<?xml version="1.0" encoding="UTF-8"?>
<gpx creator="Garmin Connect" version="1.1"
  xsi:schemaLocation="http://www.topografix.com/GPX/1/1 http://www.topografix.com/GPX/11.xsd"
  xmlns:ns3="http://www.garmin.com/xmlschemas/TrackPointExtension/v1"
  xmlns="http://www.topografix.com/GPX/1/1"
  xmlns:xsi="http://www.w3.org/2001/XMLSchema-instance" xmlns:ns2="http://www.garmin.com/xmlschemas/GpxExtensions/v3">
  <metadata>
    <link href="connect.garmin.com">
      <text>Garmin Connect</text>
    </link>
    <time>2021-05-25T06:53:40.000Z</time>
  </metadata>
  <trk>
    <name>Camerino Ciclismo</name>
    <type>cycling</type>
    <trkseg>
      <trkpt lat="43.14228720031678676605224609375" lon="13.07772763073444366455078125">
        <ele>565.5999755859375</ele>
        <time>2021-05-25T06:53:40.000Z</time>
        <extensions>
          <ns3:TrackPointExtension>
            <ns3:atemp>16.0</ns3:atemp>
          </ns3:TrackPointExtension>
        </extensions>
      </trkpt>
      <trkpt lat="43.14228468574583530426025390625" lon="13.0777542851865291595458984375">
        <ele>565.4000244140625</ele>
        <time>2021-05-25T06:53:45.000Z</time>
        <extensions>
          <ns3:TrackPointExtension>
            <ns3:atemp>16.0</ns3:atemp>
          </ns3:TrackPointExtension>
        </extensions>
      </trkpt>
      <trkpt lat="43.1422908045351505279541015625" lon="13.077799379825592041015625">
        <ele>565.5999755859375</ele>
        <time>2021-05-25T06:53:47.000Z</time>
        <extensions>
          <ns3:TrackPointExtension>
            <ns3:atemp>16.0</ns3:atemp>
          </ns3:TrackPointExtension>
        </extensions>
      </trkpt>
      <trkpt lat="43.14232793636620044708251953125" lon="13.07788831181824207305908203125">
        <ele>565.4000244140625</ele>
        <time>2021-05-25T06:53:51.000Z</time>
        <extensions>
          <ns3:TrackPointExtension>
            <ns3:atemp>16.0</ns3:atemp>
          </ns3:TrackPointExtension>
        </extensions>
      </trkpt>
      <trkpt lat="43.14235157333314418792724609375" lon="13.0779326520860195159912109375">
        <ele>565.20001220703125</ele>
        <time>2021-05-25T06:53:56.000Z</time>
        <extensions>
          <ns3:TrackPointExtension>
            <ns3:atemp>16.0</ns3:atemp>
          </ns3:TrackPointExtension>
        </extensions>
      </trkpt>
      <trkpt lat="43.1423729471862316131591796875" lon="13.07798101566731929779052734375">
        <ele>565.20001220703125</ele>
        <time>2021-05-25T06:53:58.000Z</time>
        <extensions>
          <ns3:TrackPointExtension>
            <ns3:atemp>16.0</ns3:atemp>
          </ns3:TrackPointExtension>
        </extensions>
      </trkpt>
      <trkpt lat="43.14238845370709896087646484375" lon="13.07800297625362873077392578125">
        <ele>565</ele>
        <time>2021-05-25T06:53:59.000Z</time>
        <extensions>
          <ns3:TrackPointExtension>
            <ns3:atemp>16.0</ns3:atemp>
          </ns3:TrackPointExtension>
        </extensions>
      </trkpt>
      <trkpt lat="43.14245718531310558319091796875" lon="13.07803801260888576507568359375">
        <ele>565</ele>
        <time>2021-05-25T06:54:02.000Z</time>
        <extensions>
          <ns3:TrackPointExtension>
            <ns3:atemp>16.0</ns3:atemp>
          </ns3:TrackPointExtension>
        </extensions>
      </trkpt>
      <trkpt lat="43.14250261522829532623291015625" lon="13.07815586216747760772705078125">
        <ele>565.20001220703125</ele>
        <time>2021-05-25T06:54:05.000Z</time>
        <extensions>
          <ns3:TrackPointExtension>
            <ns3:atemp>16.0</ns3:atemp>
          </ns3:TrackPointExtension>
        </extensions>
      </trkpt>
      <trkpt lat="43.14258760772645473480224609375" lon="13.0784587003290653228759765625">
        <ele>565.5999755859375</ele>
        <time>2021-05-25T06:54:11.000Z</time>
        <extensions>
          <ns3:TrackPointExtension>
            <ns3:atemp>16.0</ns3:atemp>
          </ns3:TrackPointExtension>
        </extensions>
      </trkpt>
      <trkpt lat="43.14261225052177906036376953125" lon="13.07855375111103057861328125">
        <ele>565.79998779296875</ele>
        <time>2021-05-25T06:54:13.000Z</time>
        <extensions>
          <ns3:TrackPointExtension>
            <ns3:atemp>16.0</ns3:atemp>
          </ns3:TrackPointExtension>
        </extensions>
      </trkpt>
      <trkpt lat="43.14265047200024127960205078125" lon="13.07869699783623218536376953125">
        <ele>566.79998779296875</ele>
        <time>2021-05-25T06:54:16.000Z</time>
        <extensions>
          <ns3:TrackPointExtension>
            <ns3:atemp>16.0</ns3:atemp>
          </ns3:TrackPointExtension>
        </extensions>
      </trkpt>
      <trkpt lat="43.1427115760743618011474609375" lon="13.07894610799849033355712890625">
        <ele>567</ele>
        <time>2021-05-25T06:54:22.000Z</time>
        <extensions>
          <ns3:TrackPointExtension>
            <ns3:atemp>17.0</ns3:atemp>
          </ns3:TrackPointExtension>
        </extensions>
      </trkpt>
      <trkpt lat="43.1427501328289508819580078125" lon="13.0790990777313709259033203125">
        <ele>567.20001220703125</ele>
        <time>2021-05-25T06:54:27.000Z</time>
        <extensions>
          <ns3:TrackPointExtension>
            <ns3:atemp>17.0</ns3:atemp>
          </ns3:TrackPointExtension>
        </extensions>
      </trkpt>
      <trkpt lat="43.14277251251041889190673828125" lon="13.07918231002986431121826171875">
        <ele>567.20001220703125</ele>
        <time>2021-05-25T06:54:29.000Z</time>
        <extensions>
          <ns3:TrackPointExtension>
            <ns3:atemp>17.0</ns3:atemp>
          </ns3:TrackPointExtension>
        </extensions>
      </trkpt>
      <trkpt lat="43.14282976090908050537109375" lon="13.07935045100748538970947265625">
        <ele>567.79998779296875</ele>
        <time>2021-05-25T06:54:33.000Z</time>
        <extensions>
          <ns3:TrackPointExtension>
            <ns3:atemp>17.0</ns3:atemp>
          </ns3:TrackPointExtension>
        </extensions>
      </trkpt>
      <trkpt lat="43.14291014336049556732177734375" lon="13.07969645597040653228759765625">
        <ele>567.5999755859375</ele>
        <time>2021-05-25T06:54:41.000Z</time>
        <extensions>
          <ns3:TrackPointExtension>
            <ns3:atemp>17.0</ns3:atemp>
          </ns3:TrackPointExtension>
        </extensions>
      </trkpt>
      <trkpt lat="43.142964877188205718994140625" lon="13.0798614956438541412353515625">
        <ele>568.4000244140625</ele>
        <time>2021-05-25T06:54:45.000Z</time>
        <extensions>
          <ns3:TrackPointExtension>
            <ns3:atemp>17.0</ns3:atemp>
          </ns3:TrackPointExtension>
        </extensions>
      </trkpt>
      <trkpt lat="43.14297468401491641998291015625" lon="13.080049417912960052490234375">
        <ele>569.20001220703125</ele>
        <time>2021-05-25T06:54:49.000Z</time>
        <extensions>
          <ns3:TrackPointExtension>
            <ns3:atemp>17.0</ns3:atemp>
          </ns3:TrackPointExtension>
        </extensions>
      </trkpt>
      <trkpt lat="43.14298926852643489837646484375" lon="13.08019584976136684417724609375">
        <ele>569.79998779296875</ele>
        <time>2021-05-25T06:54:52.000Z</time>
        <extensions>
          <ns3:TrackPointExtension>
            <ns3:atemp>17.0</ns3:atemp>
          </ns3:TrackPointExtension>
        </extensions>
      </trkpt>
      <trkpt lat="43.14301441423594951629638671875" lon="13.080435656011104583740234375">
        <ele>570.20001220703125</ele>
        <time>2021-05-25T06:54:57.000Z</time>
        <extensions>
          <ns3:TrackPointExtension>
            <ns3:atemp>17.0</ns3:atemp>
          </ns3:TrackPointExtension>
        </extensions>
      </trkpt>
      <trkpt lat="43.14304165542125701904296875" lon="13.080512769520282745361328125">
        <ele>570.5999755859375</ele>
        <time>2021-05-25T06:54:59.000Z</time>
        <extensions>
          <ns3:TrackPointExtension>
            <ns3:atemp>17.0</ns3:atemp>
          </ns3:TrackPointExtension>
        </extensions>
      </trkpt>
      <trkpt lat="43.14309529960155487060546875" lon="13.08076783083379268646240234375">
        <ele>571</ele>
        <time>2021-05-25T06:55:05.000Z</time>
        <extensions>
          <ns3:TrackPointExtension>
            <ns3:atemp>17.0</ns3:atemp>
          </ns3:TrackPointExtension>
        </extensions>
      </trkpt>
      <trkpt lat="43.1431112252175807952880859375" lon="13.08084947057068347930908203125">
        <ele>571.4000244140625</ele>
        <time>2021-05-25T06:55:07.000Z</time>
        <extensions>
          <ns3:TrackPointExtension>
            <ns3:atemp>17.0</ns3:atemp>
          </ns3:TrackPointExtension>
        </extensions>
      </trkpt>
      <trkpt lat="43.1431455910205841064453125" lon="13.08097905479371547698974609375">
        <ele>572</ele>
        <time>2021-05-25T06:55:10.000Z</time>
        <extensions>
          <ns3:TrackPointExtension>
            <ns3:atemp>17.0</ns3:atemp>
          </ns3:TrackPointExtension>
        </extensions>
      </trkpt>
      <trkpt lat="43.1431856565177440643310546875" lon="13.0811097286641597747802734375">
        <ele>572.5999755859375</ele>
        <time>2021-05-25T06:55:13.000Z</time>
        <extensions>
          <ns3:TrackPointExtension>
            <ns3:atemp>17.0</ns3:atemp>
          </ns3:TrackPointExtension>
        </extensions>
      </trkpt>
      <trkpt lat="43.14325044862926006317138671875" lon="13.0813749320805072784423828125">
        <ele>573.5999755859375</ele>
        <time>2021-05-25T06:55:19.000Z</time>
        <extensions>
          <ns3:TrackPointExtension>
            <ns3:atemp>17.0</ns3:atemp>
          </ns3:TrackPointExtension>
        </extensions>
      </trkpt>
      <trkpt lat="43.14332152716815471649169921875" lon="13.08162680827081203460693359375">
        <ele>574.79998779296875</ele>
        <time>2021-05-25T06:55:25.000Z</time>
        <extensions>
          <ns3:TrackPointExtension>
            <ns3:atemp>17.0</ns3:atemp>
          </ns3:TrackPointExtension>
        </extensions>
      </trkpt>
      <trkpt lat="43.1433553062379360198974609375" lon="13.0817058496177196502685546875">
        <ele>575.20001220703125</ele>
        <time>2021-05-25T06:55:27.000Z</time>
        <extensions>
          <ns3:TrackPointExtension>
            <ns3:atemp>17.0</ns3:atemp>
          </ns3:TrackPointExtension>
        </extensions>
      </trkpt>
      <trkpt lat="43.14345781691372394561767578125" lon="13.08189972303807735443115234375">
        <ele>576</ele>
        <time>2021-05-25T06:55:32.000Z</time>
        <extensions>
          <ns3:TrackPointExtension>
            <ns3:atemp>17.0</ns3:atemp>
          </ns3:TrackPointExtension>
        </extensions>
      </trkpt>
      <trkpt lat="43.1434969604015350341796875" lon="13.081978261470794677734375">
        <ele>576.20001220703125</ele>
        <time>2021-05-25T06:55:34.000Z</time>
        <extensions>
          <ns3:TrackPointExtension>
            <ns3:atemp>17.0</ns3:atemp>
          </ns3:TrackPointExtension>
        </extensions>
      </trkpt>
      <trkpt lat="43.14362193457782268524169921875" lon="13.0821510963141918182373046875">
        <ele>577</ele>
        <time>2021-05-25T06:55:39.000Z</time>
        <extensions>
          <ns3:TrackPointExtension>
            <ns3:atemp>17.0</ns3:atemp>
          </ns3:TrackPointExtension>
        </extensions>
      </trkpt>
      <trkpt lat="43.1437096931040287017822265625" lon="13.08225545100867748260498046875">
        <ele>577.5999755859375</ele>
        <time>2021-05-25T06:55:42.000Z</time>
        <extensions>
          <ns3:TrackPointExtension>
            <ns3:atemp>17.0</ns3:atemp>
          </ns3:TrackPointExtension>
        </extensions>
      </trkpt>
      <trkpt lat="43.14379611052572727203369140625" lon="13.08236139826476573944091796875">
        <ele>578.20001220703125</ele>
        <time>2021-05-25T06:55:45.000Z</time>
        <extensions>
          <ns3:TrackPointExtension>
            <ns3:atemp>17.0</ns3:atemp>
          </ns3:TrackPointExtension>
        </extensions>
      </trkpt>
      <trkpt lat="43.1439440511167049407958984375" lon="13.082535825669765472412109375">
        <ele>578.79998779296875</ele>
        <time>2021-05-25T06:55:50.000Z</time>
        <extensions>
          <ns3:TrackPointExtension>
            <ns3:atemp>17.0</ns3:atemp>
          </ns3:TrackPointExtension>
        </extensions>
      </trkpt>
      <trkpt lat="43.144172541797161102294921875" lon="13.0828038789331912994384765625">
        <ele>579</ele>
        <time>2021-05-25T06:55:57.000Z</time>
        <extensions>
          <ns3:TrackPointExtension>
            <ns3:atemp>17.0</ns3:atemp>
          </ns3:TrackPointExtension>
        </extensions>
      </trkpt>
      <trkpt lat="43.1444402597844600677490234375" lon="13.08313940651714801788330078125">
        <ele>579.20001220703125</ele>
        <time>2021-05-25T06:56:05.000Z</time>
        <extensions>
          <ns3:TrackPointExtension>
            <ns3:atemp>17.0</ns3:atemp>
          </ns3:TrackPointExtension>
        </extensions>
      </trkpt>
      <trkpt lat="43.14452198334038257598876953125" lon="13.0833024345338344573974609375">
        <ele>579.20001220703125</ele>
        <time>2021-05-25T06:56:08.000Z</time>
        <extensions>
          <ns3:TrackPointExtension>
            <ns3:atemp>17.0</ns3:atemp>
          </ns3:TrackPointExtension>
        </extensions>
      </trkpt>
      <trkpt lat="43.1445559300482273101806640625" lon="13.08344383724033832550048828125">
        <ele>579</ele>
        <time>2021-05-25T06:56:10.000Z</time>
        <extensions>
          <ns3:TrackPointExtension>
            <ns3:atemp>17.0</ns3:atemp>
          </ns3:TrackPointExtension>
        </extensions>
      </trkpt>
      <trkpt lat="43.1445488892495632171630859375" lon="13.0837969668209552764892578125">
        <ele>578.79998779296875</ele>
        <time>2021-05-25T06:56:14.000Z</time>
        <extensions>
          <ns3:TrackPointExtension>
            <ns3:atemp>17.0</ns3:atemp>
          </ns3:TrackPointExtension>
        </extensions>
      </trkpt>
      <trkpt lat="43.14445920288562774658203125" lon="13.084084801375865936279296875">
        <ele>577.5999755859375</ele>
        <time>2021-05-25T06:56:17.000Z</time>
        <extensions>
          <ns3:TrackPointExtension>
            <ns3:atemp>17.0</ns3:atemp>
          </ns3:TrackPointExtension>
        </extensions>
      </trkpt>
      <trkpt lat="43.14442223869264125823974609375" lon="13.08417792432010173797607421875">
        <ele>577</ele>
        <time>2021-05-25T06:56:18.000Z</time>
        <extensions>
          <ns3:TrackPointExtension>
            <ns3:atemp>17.0</ns3:atemp>
          </ns3:TrackPointExtension>
        </extensions>
      </trkpt>
      <trkpt lat="43.1443852744996547698974609375" lon="13.084271885454654693603515625">
        <ele>576.4000244140625</ele>
        <time>2021-05-25T06:56:19.000Z</time>
        <extensions>
          <ns3:TrackPointExtension>
            <ns3:atemp>17.0</ns3:atemp>
          </ns3:TrackPointExtension>
        </extensions>
      </trkpt>
      <trkpt lat="43.14434847794473171234130859375" lon="13.08436802588403224945068359375">
        <ele>575.79998779296875</ele>
        <time>2021-05-25T06:56:20.000Z</time>
        <extensions>
          <ns3:TrackPointExtension>
            <ns3:atemp>17.0</ns3:atemp>
          </ns3:TrackPointExtension>
        </extensions>
      </trkpt>
      <trkpt lat="43.14427547156810760498046875" lon="13.0845701135694980621337890625">
        <ele>574.5999755859375</ele>
        <time>2021-05-25T06:56:22.000Z</time>
        <extensions>
          <ns3:TrackPointExtension>
            <ns3:atemp>17.0</ns3:atemp>
          </ns3:TrackPointExtension>
        </extensions>
      </trkpt>
      <trkpt lat="43.1441975198686122894287109375" lon="13.08477907441556453704833984375">
        <ele>573</ele>
        <time>2021-05-25T06:56:24.000Z</time>
        <extensions>
          <ns3:TrackPointExtension>
            <ns3:atemp>17.0</ns3:atemp>
          </ns3:TrackPointExtension>
        </extensions>
      </trkpt>
      <trkpt lat="43.144158460199832916259765625" lon="13.08488770388066768646240234375">
        <ele>572</ele>
        <time>2021-05-25T06:56:25.000Z</time>
        <extensions>
          <ns3:TrackPointExtension>
            <ns3:atemp>17.0</ns3:atemp>
          </ns3:TrackPointExtension>
        </extensions>
      </trkpt>
      <trkpt lat="43.14412124454975128173828125" lon="13.0849992670118808746337890625">
        <ele>571.20001220703125</ele>
        <time>2021-05-25T06:56:26.000Z</time>
        <extensions>
          <ns3:TrackPointExtension>
            <ns3:atemp>17.0</ns3:atemp>
          </ns3:TrackPointExtension>
        </extensions>
      </trkpt>
      <trkpt lat="43.14401404000818729400634765625" lon="13.08533613570034503936767578125">
        <ele>570</ele>
        <time>2021-05-25T06:56:29.000Z</time>
        <extensions>
          <ns3:TrackPointExtension>
            <ns3:atemp>17.0</ns3:atemp>
          </ns3:TrackPointExtension>
        </extensions>
      </trkpt>
      <trkpt lat="43.14394597895443439483642578125" lon="13.085549287497997283935546875">
        <ele>569.20001220703125</ele>
        <time>2021-05-25T06:56:31.000Z</time>
        <extensions>
          <ns3:TrackPointExtension>
            <ns3:atemp>17.0</ns3:atemp>
          </ns3:TrackPointExtension>
        </extensions>
      </trkpt>
      <trkpt lat="43.1439172290265560150146484375" lon="13.08565146289765834808349609375">
        <ele>568.79998779296875</ele>
        <time>2021-05-25T06:56:32.000Z</time>
        <extensions>
          <ns3:TrackPointExtension>
            <ns3:atemp>17.0</ns3:atemp>
          </ns3:TrackPointExtension>
        </extensions>
      </trkpt>
      <trkpt lat="43.143892921507358551025390625" lon="13.08575087226927280426025390625">
        <ele>568.20001220703125</ele>
        <time>2021-05-25T06:56:33.000Z</time>
        <extensions>
          <ns3:TrackPointExtension>
            <ns3:atemp>17.0</ns3:atemp>
          </ns3:TrackPointExtension>
        </extensions>
      </trkpt>
      <trkpt lat="43.14387540332973003387451171875" lon="13.08585145510733127593994140625">
        <ele>567.20001220703125</ele>
        <time>2021-05-25T06:56:34.000Z</time>
        <extensions>
          <ns3:TrackPointExtension>
            <ns3:atemp>17.0</ns3:atemp>
          </ns3:TrackPointExtension>
        </extensions>
      </trkpt>
      <trkpt lat="43.14386065118014812469482421875" lon="13.0859531275928020477294921875">
        <ele>565.79998779296875</ele>
        <time>2021-05-25T06:56:35.000Z</time>
        <extensions>
          <ns3:TrackPointExtension>
            <ns3:atemp>17.0</ns3:atemp>
          </ns3:TrackPointExtension>
        </extensions>
      </trkpt>
      <trkpt lat="43.14385947771370410919189453125" lon="13.0860503576695919036865234375">
        <ele>565</ele>
        <time>2021-05-25T06:56:36.000Z</time>
        <extensions>
          <ns3:TrackPointExtension>
            <ns3:atemp>17.0</ns3:atemp>
          </ns3:TrackPointExtension>
        </extensions>
      </trkpt>
      <trkpt lat="43.14387355931103229522705078125" lon="13.08614842593669891357421875">
        <ele>564.5999755859375</ele>
        <time>2021-05-25T06:56:37.000Z</time>
        <extensions>
          <ns3:TrackPointExtension>
            <ns3:atemp>17.0</ns3:atemp>
          </ns3:TrackPointExtension>
        </extensions>
      </trkpt>
      <trkpt lat="43.14394648186862468719482421875" lon="13.08641572482883930206298828125">
        <ele>564.20001220703125</ele>
        <time>2021-05-25T06:56:40.000Z</time>
        <extensions>
          <ns3:TrackPointExtension>
            <ns3:atemp>17.0</ns3:atemp>
          </ns3:TrackPointExtension>
        </extensions>
      </trkpt>
      <trkpt lat="43.14416415989398956298828125" lon="13.08701402507722377777099609375">
        <ele>563.79998779296875</ele>
        <time>2021-05-25T06:56:47.000Z</time>
        <extensions>
          <ns3:TrackPointExtension>
            <ns3:atemp>17.0</ns3:atemp>
          </ns3:TrackPointExtension>
        </extensions>
      </trkpt>
      <trkpt lat="43.144248314201831817626953125" lon="13.087176717817783355712890625">
        <ele>563.79998779296875</ele>
        <time>2021-05-25T06:56:49.000Z</time>
        <extensions>
          <ns3:TrackPointExtension>
            <ns3:atemp>17.0</ns3:atemp>
          </ns3:TrackPointExtension>
        </extensions>
      </trkpt>
      <trkpt lat="43.144337832927703857421875" lon="13.08732734061777591705322265625">
        <ele>563.4000244140625</ele>
        <time>2021-05-25T06:56:51.000Z</time>
        <extensions>
          <ns3:TrackPointExtension>
            <ns3:atemp>17.0</ns3:atemp>
          </ns3:TrackPointExtension>
        </extensions>
      </trkpt>
      <trkpt lat="43.1443789042532444000244140625" lon="13.08740680105984210968017578125">
        <ele>563.20001220703125</ele>
        <time>2021-05-25T06:56:52.000Z</time>
        <extensions>
          <ns3:TrackPointExtension>
            <ns3:atemp>17.0</ns3:atemp>
          </ns3:TrackPointExtension>
        </extensions>
      </trkpt>
      <trkpt lat="43.14443749375641345977783203125" lon="13.08757326565682888031005859375">
        <ele>562.4000244140625</ele>
        <time>2021-05-25T06:56:54.000Z</time>
        <extensions>
          <ns3:TrackPointExtension>
            <ns3:atemp>17.0</ns3:atemp>
          </ns3:TrackPointExtension>
        </extensions>
      </trkpt>
      <trkpt lat="43.14448158256709575653076171875" lon="13.0878454260528087615966796875">
        <ele>562</ele>
        <time>2021-05-25T06:56:57.000Z</time>
        <extensions>
          <ns3:TrackPointExtension>
            <ns3:atemp>17.0</ns3:atemp>
          </ns3:TrackPointExtension>
        </extensions>
      </trkpt>
      <trkpt lat="43.1445498950779438018798828125" lon="13.08838513679802417755126953125">
        <ele>561.5999755859375</ele>
        <time>2021-05-25T06:57:02.000Z</time>
        <extensions>
          <ns3:TrackPointExtension>
            <ns3:atemp>17.0</ns3:atemp>
          </ns3:TrackPointExtension>
        </extensions>
      </trkpt>
      <trkpt lat="43.14459138549864292144775390625" lon="13.08862653560936450958251953125">
        <ele>561.20001220703125</ele>
        <time>2021-05-25T06:57:04.000Z</time>
        <extensions>
          <ns3:TrackPointExtension>
            <ns3:atemp>17.0</ns3:atemp>
          </ns3:TrackPointExtension>
        </extensions>
      </trkpt>
      <trkpt lat="43.14469045959413051605224609375" lon="13.0889756418764591217041015625">
        <ele>560</ele>
        <time>2021-05-25T06:57:07.000Z</time>
        <extensions>
          <ns3:TrackPointExtension>
            <ns3:atemp>17.0</ns3:atemp>
          </ns3:TrackPointExtension>
        </extensions>
      </trkpt>
      <trkpt lat="43.144774027168750762939453125" lon="13.08918845839798450469970703125">
        <ele>558.20001220703125</ele>
        <time>2021-05-25T06:57:09.000Z</time>
        <extensions>
          <ns3:TrackPointExtension>
            <ns3:atemp>17.0</ns3:atemp>
          </ns3:TrackPointExtension>
        </extensions>
      </trkpt>
      <trkpt lat="43.14481459558010101318359375" lon="13.0892887897789478302001953125">
        <ele>557.20001220703125</ele>
        <time>2021-05-25T06:57:10.000Z</time>
        <extensions>
          <ns3:TrackPointExtension>
            <ns3:atemp>17.0</ns3:atemp>
          </ns3:TrackPointExtension>
        </extensions>
      </trkpt>
      <trkpt lat="43.14485189504921436309814453125" lon="13.08938476257026195526123046875">
        <ele>556.20001220703125</ele>
        <time>2021-05-25T06:57:11.000Z</time>
        <extensions>
          <ns3:TrackPointExtension>
            <ns3:atemp>17.0</ns3:atemp>
          </ns3:TrackPointExtension>
        </extensions>
      </trkpt>
      <trkpt lat="43.14488676376640796661376953125" lon="13.08947704732418060302734375">
        <ele>555.5999755859375</ele>
        <time>2021-05-25T06:57:12.000Z</time>
        <extensions>
          <ns3:TrackPointExtension>
            <ns3:atemp>17.0</ns3:atemp>
          </ns3:TrackPointExtension>
        </extensions>
      </trkpt>
      <trkpt lat="43.144965805113315582275390625" lon="13.08973713777959346771240234375">
        <ele>555</ele>
        <time>2021-05-25T06:57:15.000Z</time>
        <extensions>
          <ns3:TrackPointExtension>
            <ns3:atemp>17.0</ns3:atemp>
          </ns3:TrackPointExtension>
        </extensions>
      </trkpt>
      <trkpt lat="43.1449767015874385833740234375" lon="13.08981961570680141448974609375">
        <ele>555</ele>
        <time>2021-05-25T06:57:16.000Z</time>
        <extensions>
          <ns3:TrackPointExtension>
            <ns3:atemp>17.0</ns3:atemp>
          </ns3:TrackPointExtension>
        </extensions>
      </trkpt>
      <trkpt lat="43.14496538601815700531005859375" lon="13.0901393853127956390380859375">
        <ele>555</ele>
        <time>2021-05-25T06:57:20.000Z</time>
        <extensions>
          <ns3:TrackPointExtension>
            <ns3:atemp>17.0</ns3:atemp>
          </ns3:TrackPointExtension>
        </extensions>
      </trkpt>
      <trkpt lat="43.14493906684219837188720703125" lon="13.09029671363532543182373046875">
        <ele>555.79998779296875</ele>
        <time>2021-05-25T06:57:22.000Z</time>
        <extensions>
          <ns3:TrackPointExtension>
            <ns3:atemp>17.0</ns3:atemp>
          </ns3:TrackPointExtension>
        </extensions>
      </trkpt>
      <trkpt lat="43.14491995610296726226806640625" lon="13.0903722345829010009765625">
        <ele>556.4000244140625</ele>
        <time>2021-05-25T06:57:23.000Z</time>
        <extensions>
          <ns3:TrackPointExtension>
            <ns3:atemp>17.0</ns3:atemp>
          </ns3:TrackPointExtension>
        </extensions>
      </trkpt>
      <trkpt lat="43.1448576785624027252197265625" lon="13.09058940969407558441162109375">
        <ele>557.20001220703125</ele>
        <time>2021-05-25T06:57:26.000Z</time>
        <extensions>
          <ns3:TrackPointExtension>
            <ns3:atemp>17.0</ns3:atemp>
          </ns3:TrackPointExtension>
        </extensions>
      </trkpt>
      <trkpt lat="43.14483731053769588470458984375" lon="13.09065847657620906829833984375">
        <ele>557.4000244140625</ele>
        <time>2021-05-25T06:57:27.000Z</time>
        <extensions>
          <ns3:TrackPointExtension>
            <ns3:atemp>17.0</ns3:atemp>
          </ns3:TrackPointExtension>
        </extensions>
      </trkpt>
      <trkpt lat="43.14478576183319091796875" lon="13.090851344168186187744140625">
        <ele>558</ele>
        <time>2021-05-25T06:57:30.000Z</time>
        <extensions>
          <ns3:TrackPointExtension>
            <ns3:atemp>16.0</ns3:atemp>
          </ns3:TrackPointExtension>
        </extensions>
      </trkpt>
      <trkpt lat="43.14477645792067050933837890625" lon="13.09091295115649700164794921875">
        <ele>558</ele>
        <time>2021-05-25T06:57:31.000Z</time>
        <extensions>
          <ns3:TrackPointExtension>
            <ns3:atemp>16.0</ns3:atemp>
          </ns3:TrackPointExtension>
        </extensions>
      </trkpt>
      <trkpt lat="43.144755922257900238037109375" lon="13.091092072427272796630859375">
        <ele>558.20001220703125</ele>
        <time>2021-05-25T06:57:34.000Z</time>
        <extensions>
          <ns3:TrackPointExtension>
            <ns3:atemp>16.0</ns3:atemp>
          </ns3:TrackPointExtension>
        </extensions>
      </trkpt>
      <trkpt lat="43.144756257534027099609375" lon="13.09120514430105686187744140625">
        <ele>558.5999755859375</ele>
        <time>2021-05-25T06:57:36.000Z</time>
        <extensions>
          <ns3:TrackPointExtension>
            <ns3:atemp>16.0</ns3:atemp>
          </ns3:TrackPointExtension>
        </extensions>
      </trkpt>
      <trkpt lat="43.1447634659707546234130859375" lon="13.09130840934813022613525390625">
        <ele>558.79998779296875</ele>
        <time>2021-05-25T06:57:38.000Z</time>
        <extensions>
          <ns3:TrackPointExtension>
            <ns3:atemp>16.0</ns3:atemp>
          </ns3:TrackPointExtension>
        </extensions>
      </trkpt>
      <trkpt lat="43.14477436244487762451171875" lon="13.09140966273844242095947265625">
        <ele>559.79998779296875</ele>
        <time>2021-05-25T06:57:40.000Z</time>
        <extensions>
          <ns3:TrackPointExtension>
            <ns3:atemp>16.0</ns3:atemp>
          </ns3:TrackPointExtension>
        </extensions>
      </trkpt>
      <trkpt lat="43.1448224745690822601318359375" lon="13.091631196439266204833984375">
        <ele>560.5999755859375</ele>
        <time>2021-05-25T06:57:44.000Z</time>
        <extensions>
          <ns3:TrackPointExtension>
            <ns3:atemp>16.0</ns3:atemp>
          </ns3:TrackPointExtension>
        </extensions>
      </trkpt>
      <trkpt lat="43.14483865164220333099365234375" lon="13.0916886962950229644775390625">
        <ele>561</ele>
        <time>2021-05-25T06:57:45.000Z</time>
        <extensions>
          <ns3:TrackPointExtension>
            <ns3:atemp>16.0</ns3:atemp>
          </ns3:TrackPointExtension>
        </extensions>
      </trkpt>
      <trkpt lat="43.14485357142984867095947265625" lon="13.09174678288400173187255859375">
        <ele>562.4000244140625</ele>
        <time>2021-05-25T06:57:46.000Z</time>
        <extensions>
          <ns3:TrackPointExtension>
            <ns3:atemp>16.0</ns3:atemp>
          </ns3:TrackPointExtension>
        </extensions>
      </trkpt>
      <trkpt lat="43.14489774405956268310546875" lon="13.0919254012405872344970703125">
        <ele>563</ele>
        <time>2021-05-25T06:57:49.000Z</time>
        <extensions>
          <ns3:TrackPointExtension>
            <ns3:atemp>16.0</ns3:atemp>
          </ns3:TrackPointExtension>
        </extensions>
      </trkpt>
      <trkpt lat="43.1449193693697452545166015625" lon="13.0920383892953395843505859375">
        <ele>563.20001220703125</ele>
        <time>2021-05-25T06:57:51.000Z</time>
        <extensions>
          <ns3:TrackPointExtension>
            <ns3:atemp>16.0</ns3:atemp>
          </ns3:TrackPointExtension>
        </extensions>
      </trkpt>
      <trkpt lat="43.14493596553802490234375" lon="13.09214374981820583343505859375">
        <ele>563.4000244140625</ele>
        <time>2021-05-25T06:57:53.000Z</time>
        <extensions>
          <ns3:TrackPointExtension>
            <ns3:atemp>16.0</ns3:atemp>
          </ns3:TrackPointExtension>
        </extensions>
      </trkpt>
      <trkpt lat="43.1449428386986255645751953125" lon="13.0923438258469104766845703125">
        <ele>563.5999755859375</ele>
        <time>2021-05-25T06:57:57.000Z</time>
        <extensions>
          <ns3:TrackPointExtension>
            <ns3:atemp>16.0</ns3:atemp>
          </ns3:TrackPointExtension>
        </extensions>
      </trkpt>
      <trkpt lat="43.144973181188106536865234375" lon="13.09271807782351970672607421875">
        <ele>564</ele>
        <time>2021-05-25T06:58:04.000Z</time>
        <extensions>
          <ns3:TrackPointExtension>
            <ns3:atemp>16.0</ns3:atemp>
          </ns3:TrackPointExtension>
        </extensions>
      </trkpt>
      <trkpt lat="43.144945017993450164794921875" lon="13.0929516814649105072021484375">
        <ele>564.20001220703125</ele>
        <time>2021-05-25T06:58:09.000Z</time>
        <extensions>
          <ns3:TrackPointExtension>
            <ns3:atemp>16.0</ns3:atemp>
          </ns3:TrackPointExtension>
        </extensions>
      </trkpt>
      <trkpt lat="43.14488969743251800537109375" lon="13.09307866729795932769775390625">
        <ele>564.4000244140625</ele>
        <time>2021-05-25T06:58:12.000Z</time>
        <extensions>
          <ns3:TrackPointExtension>
            <ns3:atemp>16.0</ns3:atemp>
          </ns3:TrackPointExtension>
        </extensions>
      </trkpt>
      <trkpt lat="43.144835047423839569091796875" lon="13.09321763925254344940185546875">
        <ele>565.4000244140625</ele>
        <time>2021-05-25T06:58:15.000Z</time>
        <extensions>
          <ns3:TrackPointExtension>
            <ns3:atemp>16.0</ns3:atemp>
          </ns3:TrackPointExtension>
        </extensions>
      </trkpt>
      <trkpt lat="43.14477612264454364776611328125" lon="13.0933825112879276275634765625">
        <ele>566.5999755859375</ele>
        <time>2021-05-25T06:58:18.000Z</time>
        <extensions>
          <ns3:TrackPointExtension>
            <ns3:atemp>16.0</ns3:atemp>
          </ns3:TrackPointExtension>
        </extensions>
      </trkpt>
      <trkpt lat="43.14473371021449565887451171875" lon="13.09351704083383083343505859375">
        <ele>566.79998779296875</ele>
        <time>2021-05-25T06:58:20.000Z</time>
        <extensions>
          <ns3:TrackPointExtension>
            <ns3:atemp>16.0</ns3:atemp>
          </ns3:TrackPointExtension>
        </extensions>
      </trkpt>
      <trkpt lat="43.14472717233002185821533203125" lon="13.09376531280577182769775390625">
        <ele>566.79998779296875</ele>
        <time>2021-05-25T06:58:23.000Z</time>
        <extensions>
          <ns3:TrackPointExtension>
            <ns3:atemp>16.0</ns3:atemp>
          </ns3:TrackPointExtension>
        </extensions>
      </trkpt>
      <trkpt lat="43.14474427141249179840087890625" lon="13.09386455453932285308837890625">
        <ele>566.79998779296875</ele>
        <time>2021-05-25T06:58:24.000Z</time>
        <extensions>
          <ns3:TrackPointExtension>
            <ns3:atemp>16.0</ns3:atemp>
          </ns3:TrackPointExtension>
        </extensions>
      </trkpt>
      <trkpt lat="43.14477226696908473968505859375" lon="13.0939662270247936248779296875">
        <ele>566.79998779296875</ele>
        <time>2021-05-25T06:58:25.000Z</time>
        <extensions>
          <ns3:TrackPointExtension>
            <ns3:atemp>16.0</ns3:atemp>
          </ns3:TrackPointExtension>
        </extensions>
      </trkpt>
      <trkpt lat="43.1448687426745891571044921875" lon="13.09429354034364223480224609375">
        <ele>566.5999755859375</ele>
        <time>2021-05-25T06:58:28.000Z</time>
        <extensions>
          <ns3:TrackPointExtension>
            <ns3:atemp>16.0</ns3:atemp>
          </ns3:TrackPointExtension>
        </extensions>
      </trkpt>
      <trkpt lat="43.14496404491364955902099609375" lon="13.094631917774677276611328125">
        <ele>565.5999755859375</ele>
        <time>2021-05-25T06:58:31.000Z</time>
        <extensions>
          <ns3:TrackPointExtension>
            <ns3:atemp>16.0</ns3:atemp>
          </ns3:TrackPointExtension>
        </extensions>
      </trkpt>
      <trkpt lat="43.145010061562061309814453125" lon="13.094847500324249267578125">
        <ele>563.5999755859375</ele>
        <time>2021-05-25T06:58:33.000Z</time>
        <extensions>
          <ns3:TrackPointExtension>
            <ns3:atemp>16.0</ns3:atemp>
          </ns3:TrackPointExtension>
        </extensions>
      </trkpt>
      <trkpt lat="43.1450457684695720672607421875" lon="13.09505939483642578125">
        <ele>561.79998779296875</ele>
        <time>2021-05-25T06:58:35.000Z</time>
        <extensions>
          <ns3:TrackPointExtension>
            <ns3:atemp>16.0</ns3:atemp>
          </ns3:TrackPointExtension>
        </extensions>
      </trkpt>
      <trkpt lat="43.14506546594202518463134765625" lon="13.0952774919569492340087890625">
        <ele>560</ele>
        <time>2021-05-25T06:58:37.000Z</time>
        <extensions>
          <ns3:TrackPointExtension>
            <ns3:atemp>16.0</ns3:atemp>
          </ns3:TrackPointExtension>
        </extensions>
      </trkpt>
      <trkpt lat="43.1450712494552135467529296875" lon="13.09539274312555789947509765625">
        <ele>558.79998779296875</ele>
        <time>2021-05-25T06:58:38.000Z</time>
        <extensions>
          <ns3:TrackPointExtension>
            <ns3:atemp>16.0</ns3:atemp>
          </ns3:TrackPointExtension>
        </extensions>
      </trkpt>
      <trkpt lat="43.1450953893363475799560546875" lon="13.0956105887889862060546875">
        <ele>557.4000244140625</ele>
        <time>2021-05-25T06:58:40.000Z</time>
        <extensions>
          <ns3:TrackPointExtension>
            <ns3:atemp>16.0</ns3:atemp>
          </ns3:TrackPointExtension>
        </extensions>
      </trkpt>
      <trkpt lat="43.145128078758716583251953125" lon="13.09586816467344760894775390625">
        <ele>557</ele>
        <time>2021-05-25T06:58:43.000Z</time>
        <extensions>
          <ns3:TrackPointExtension>
            <ns3:atemp>16.0</ns3:atemp>
          </ns3:TrackPointExtension>
        </extensions>
      </trkpt>
      <trkpt lat="43.145142160356044769287109375" lon="13.09593555517494678497314453125">
        <ele>557</ele>
        <time>2021-05-25T06:58:44.000Z</time>
        <extensions>
          <ns3:TrackPointExtension>
            <ns3:atemp>16.0</ns3:atemp>
          </ns3:TrackPointExtension>
        </extensions>
      </trkpt>
      <trkpt lat="43.1451993249356746673583984375" lon="13.09618650935590267181396484375">
        <ele>557.79998779296875</ele>
        <time>2021-05-25T06:58:49.000Z</time>
        <extensions>
          <ns3:TrackPointExtension>
            <ns3:atemp>16.0</ns3:atemp>
          </ns3:TrackPointExtension>
        </extensions>
      </trkpt>
      <trkpt lat="43.1452127359807491302490234375" lon="13.0962316878139972686767578125">
        <ele>558.5999755859375</ele>
        <time>2021-05-25T06:58:50.000Z</time>
        <extensions>
          <ns3:TrackPointExtension>
            <ns3:atemp>16.0</ns3:atemp>
          </ns3:TrackPointExtension>
        </extensions>
      </trkpt>
      <trkpt lat="43.14523838460445404052734375" lon="13.09632564894855022430419921875">
        <ele>560</ele>
        <time>2021-05-25T06:58:52.000Z</time>
        <extensions>
          <ns3:TrackPointExtension>
            <ns3:atemp>16.0</ns3:atemp>
          </ns3:TrackPointExtension>
        </extensions>
      </trkpt>
      <trkpt lat="43.1452573277056217193603515625" lon="13.09642338193953037261962890625">
        <ele>561.20001220703125</ele>
        <time>2021-05-25T06:58:54.000Z</time>
        <extensions>
          <ns3:TrackPointExtension>
            <ns3:atemp>16.0</ns3:atemp>
          </ns3:TrackPointExtension>
        </extensions>
      </trkpt>
      <trkpt lat="43.14526327885687351226806640625" lon="13.09652396477758884429931640625">
        <ele>562</ele>
        <time>2021-05-25T06:58:56.000Z</time>
        <extensions>
          <ns3:TrackPointExtension>
            <ns3:atemp>16.0</ns3:atemp>
          </ns3:TrackPointExtension>
        </extensions>
      </trkpt>
      <trkpt lat="43.14526394940912723541259765625" lon="13.09657190926373004913330078125">
        <ele>562.4000244140625</ele>
        <time>2021-05-25T06:58:57.000Z</time>
        <extensions>
          <ns3:TrackPointExtension>
            <ns3:atemp>16.0</ns3:atemp>
          </ns3:TrackPointExtension>
        </extensions>
      </trkpt>
      <trkpt lat="43.14526210539042949676513671875" lon="13.09670434333384037017822265625">
        <ele>563.5999755859375</ele>
        <time>2021-05-25T06:59:00.000Z</time>
        <extensions>
          <ns3:TrackPointExtension>
            <ns3:atemp>16.0</ns3:atemp>
          </ns3:TrackPointExtension>
        </extensions>
      </trkpt>
      <trkpt lat="43.14525489695370197296142578125" lon="13.09683971107006072998046875">
        <ele>564.79998779296875</ele>
        <time>2021-05-25T06:59:03.000Z</time>
        <extensions>
          <ns3:TrackPointExtension>
            <ns3:atemp>16.0</ns3:atemp>
          </ns3:TrackPointExtension>
        </extensions>
      </trkpt>
      <trkpt lat="43.1452457606792449951171875" lon="13.09692428447306156158447265625">
        <ele>566</ele>
        <time>2021-05-25T06:59:05.000Z</time>
        <extensions>
          <ns3:TrackPointExtension>
            <ns3:atemp>16.0</ns3:atemp>
          </ns3:TrackPointExtension>
        </extensions>
      </trkpt>
      <trkpt lat="43.14524148590862751007080078125" lon="13.0970195867121219635009765625">
        <ele>567.5999755859375</ele>
        <time>2021-05-25T06:59:07.000Z</time>
        <extensions>
          <ns3:TrackPointExtension>
            <ns3:atemp>16.0</ns3:atemp>
          </ns3:TrackPointExtension>
        </extensions>
      </trkpt>
      <trkpt lat="43.1452288292348384857177734375" lon="13.09712461195886135101318359375">
        <ele>569</ele>
        <time>2021-05-25T06:59:09.000Z</time>
        <extensions>
          <ns3:TrackPointExtension>
            <ns3:atemp>16.0</ns3:atemp>
          </ns3:TrackPointExtension>
        </extensions>
      </trkpt>
      <trkpt lat="43.1452258117496967315673828125" lon="13.0972361750900745391845703125">
        <ele>570.5999755859375</ele>
        <time>2021-05-25T06:59:11.000Z</time>
        <extensions>
          <ns3:TrackPointExtension>
            <ns3:atemp>16.0</ns3:atemp>
          </ns3:TrackPointExtension>
        </extensions>
      </trkpt>
      <trkpt lat="43.1452301703393459320068359375" lon="13.09737020172178745269775390625">
        <ele>572</ele>
        <time>2021-05-25T06:59:13.000Z</time>
        <extensions>
          <ns3:TrackPointExtension>
            <ns3:atemp>16.0</ns3:atemp>
          </ns3:TrackPointExtension>
        </extensions>
      </trkpt>
      <trkpt lat="43.14523461274802684783935546875" lon="13.0974393524229526519775390625">
        <ele>573</ele>
        <time>2021-05-25T06:59:14.000Z</time>
        <extensions>
          <ns3:TrackPointExtension>
            <ns3:atemp>16.0</ns3:atemp>
          </ns3:TrackPointExtension>
        </extensions>
      </trkpt>
      <trkpt lat="43.14523930661380290985107421875" lon="13.097508251667022705078125">
        <ele>573.4000244140625</ele>
        <time>2021-05-25T06:59:15.000Z</time>
        <extensions>
          <ns3:TrackPointExtension>
            <ns3:atemp>16.0</ns3:atemp>
          </ns3:TrackPointExtension>
        </extensions>
      </trkpt>
      <trkpt lat="43.14525757916271686553955078125" lon="13.097767420113086700439453125">
        <ele>574.5999755859375</ele>
        <time>2021-05-25T06:59:19.000Z</time>
        <extensions>
          <ns3:TrackPointExtension>
            <ns3:atemp>16.0</ns3:atemp>
          </ns3:TrackPointExtension>
        </extensions>
      </trkpt>
      <trkpt lat="43.14526386559009552001953125" lon="13.09788702987134456634521484375">
        <ele>574.79998779296875</ele>
        <time>2021-05-25T06:59:21.000Z</time>
        <extensions>
          <ns3:TrackPointExtension>
            <ns3:atemp>16.0</ns3:atemp>
          </ns3:TrackPointExtension>
        </extensions>
      </trkpt>
      <trkpt lat="43.14527434296905994415283203125" lon="13.09805718250572681427001953125">
        <ele>575.79998779296875</ele>
        <time>2021-05-25T06:59:24.000Z</time>
        <extensions>
          <ns3:TrackPointExtension>
            <ns3:atemp>16.0</ns3:atemp>
          </ns3:TrackPointExtension>
        </extensions>
      </trkpt>
      <trkpt lat="43.14528188668191432952880859375" lon="13.0981601960957050323486328125">
        <ele>576.79998779296875</ele>
        <time>2021-05-25T06:59:26.000Z</time>
        <extensions>
          <ns3:TrackPointExtension>
            <ns3:atemp>16.0</ns3:atemp>
          </ns3:TrackPointExtension>
        </extensions>
      </trkpt>
      <trkpt lat="43.14528398215770721435546875" lon="13.0982500500977039337158203125">
        <ele>577.20001220703125</ele>
        <time>2021-05-25T06:59:28.000Z</time>
        <extensions>
          <ns3:TrackPointExtension>
            <ns3:atemp>16.0</ns3:atemp>
          </ns3:TrackPointExtension>
        </extensions>
      </trkpt>
      <trkpt lat="43.14529010094702243804931640625" lon="13.09836429543793201446533203125">
        <ele>578</ele>
        <time>2021-05-25T06:59:31.000Z</time>
        <extensions>
          <ns3:TrackPointExtension>
            <ns3:atemp>16.0</ns3:atemp>
          </ns3:TrackPointExtension>
        </extensions>
      </trkpt>
      <trkpt lat="43.1452968902885913848876953125" lon="13.09844492934644222259521484375">
        <ele>579</ele>
        <time>2021-05-25T06:59:34.000Z</time>
        <extensions>
          <ns3:TrackPointExtension>
            <ns3:atemp>16.0</ns3:atemp>
          </ns3:TrackPointExtension>
        </extensions>
      </trkpt>
      <trkpt lat="43.1452967226505279541015625" lon="13.09847778640687465667724609375">
        <ele>579.20001220703125</ele>
        <time>2021-05-25T06:59:35.000Z</time>
        <extensions>
          <ns3:TrackPointExtension>
            <ns3:atemp>16.0</ns3:atemp>
          </ns3:TrackPointExtension>
        </extensions>
      </trkpt>
      <trkpt lat="43.14531692303717136383056640625" lon="13.09866654686629772186279296875">
        <ele>580.79998779296875</ele>
        <time>2021-05-25T06:59:39.000Z</time>
        <extensions>
          <ns3:TrackPointExtension>
            <ns3:atemp>16.0</ns3:atemp>
          </ns3:TrackPointExtension>
        </extensions>
      </trkpt>
      <trkpt lat="43.14533360302448272705078125" lon="13.0989957042038440704345703125">
        <ele>581.5999755859375</ele>
        <time>2021-05-25T06:59:43.000Z</time>
        <extensions>
          <ns3:TrackPointExtension>
            <ns3:atemp>16.0</ns3:atemp>
          </ns3:TrackPointExtension>
        </extensions>
      </trkpt>
      <trkpt lat="43.14544281922280788421630859375" lon="13.0993361771106719970703125">
        <ele>581.79998779296875</ele>
        <time>2021-05-25T06:59:47.000Z</time>
        <extensions>
          <ns3:TrackPointExtension>
            <ns3:atemp>16.0</ns3:atemp>
          </ns3:TrackPointExtension>
        </extensions>
      </trkpt>
      <trkpt lat="43.1454739160835742950439453125" lon="13.09942267835140228271484375">
        <ele>581.79998779296875</ele>
        <time>2021-05-25T06:59:48.000Z</time>
        <extensions>
          <ns3:TrackPointExtension>
            <ns3:atemp>16.0</ns3:atemp>
          </ns3:TrackPointExtension>
        </extensions>
      </trkpt>
      <trkpt lat="43.14556838013231754302978515625" lon="13.09987639077007770538330078125">
        <ele>579.79998779296875</ele>
        <time>2021-05-25T06:59:52.000Z</time>
        <extensions>
          <ns3:TrackPointExtension>
            <ns3:atemp>16.0</ns3:atemp>
          </ns3:TrackPointExtension>
        </extensions>
      </trkpt>
      <trkpt lat="43.14559855498373508453369140625" lon="13.10000429861247539520263671875">
        <ele>579.20001220703125</ele>
        <time>2021-05-25T06:59:53.000Z</time>
        <extensions>
          <ns3:TrackPointExtension>
            <ns3:atemp>16.0</ns3:atemp>
          </ns3:TrackPointExtension>
        </extensions>
      </trkpt>
      <trkpt lat="43.1457471661269664764404296875" lon="13.10034292750060558319091796875">
        <ele>577.5999755859375</ele>
        <time>2021-05-25T06:59:56.000Z</time>
        <extensions>
          <ns3:TrackPointExtension>
            <ns3:atemp>16.0</ns3:atemp>
          </ns3:TrackPointExtension>
        </extensions>
      </trkpt>
      <trkpt lat="43.145803995430469512939453125" lon="13.1004400737583637237548828125">
        <ele>576.20001220703125</ele>
        <time>2021-05-25T06:59:57.000Z</time>
        <extensions>
          <ns3:TrackPointExtension>
            <ns3:atemp>16.0</ns3:atemp>
          </ns3:TrackPointExtension>
        </extensions>
      </trkpt>
      <trkpt lat="43.1458537839353084564208984375" lon="13.10053587891161441802978515625">
        <ele>574.4000244140625</ele>
        <time>2021-05-25T06:59:58.000Z</time>
        <extensions>
          <ns3:TrackPointExtension>
            <ns3:atemp>16.0</ns3:atemp>
          </ns3:TrackPointExtension>
        </extensions>
      </trkpt>
      <trkpt lat="43.14590030349791049957275390625" lon="13.1006315164268016815185546875">
        <ele>572.5999755859375</ele>
        <time>2021-05-25T06:59:59.000Z</time>
        <extensions>
          <ns3:TrackPointExtension>
            <ns3:atemp>16.0</ns3:atemp>
          </ns3:TrackPointExtension>
        </extensions>
      </trkpt>
      <trkpt lat="43.1459439732134342193603515625" lon="13.1007237173616886138916015625">
        <ele>571.5999755859375</ele>
        <time>2021-05-25T07:00:00.000Z</time>
        <extensions>
          <ns3:TrackPointExtension>
            <ns3:atemp>16.0</ns3:atemp>
          </ns3:TrackPointExtension>
        </extensions>
      </trkpt>
      <trkpt lat="43.14598412252962589263916015625" lon="13.10081264935433864593505859375">
        <ele>571.5999755859375</ele>
        <time>2021-05-25T07:00:01.000Z</time>
        <extensions>
          <ns3:TrackPointExtension>
            <ns3:atemp>16.0</ns3:atemp>
          </ns3:TrackPointExtension>
        </extensions>
      </trkpt>
      <trkpt lat="43.14623415470123291015625" lon="13.10129645280539989471435546875">
        <ele>570.79998779296875</ele>
        <time>2021-05-25T07:00:07.000Z</time>
        <extensions>
          <ns3:TrackPointExtension>
            <ns3:atemp>16.0</ns3:atemp>
          </ns3:TrackPointExtension>
        </extensions>
      </trkpt>
      <trkpt lat="43.14644336700439453125" lon="13.1016913242638111114501953125">
        <ele>570.79998779296875</ele>
        <time>2021-05-25T07:00:13.000Z</time>
        <extensions>
          <ns3:TrackPointExtension>
            <ns3:atemp>16.0</ns3:atemp>
          </ns3:TrackPointExtension>
        </extensions>
      </trkpt>
      <trkpt lat="43.1465333886444568634033203125" lon="13.10203917324542999267578125">
        <ele>571</ele>
        <time>2021-05-25T07:00:18.000Z</time>
        <extensions>
          <ns3:TrackPointExtension>
            <ns3:atemp>16.0</ns3:atemp>
          </ns3:TrackPointExtension>
        </extensions>
      </trkpt>
      <trkpt lat="43.146593235433101654052734375" lon="13.1023632176220417022705078125">
        <ele>572.79998779296875</ele>
        <time>2021-05-25T07:00:24.000Z</time>
        <extensions>
          <ns3:TrackPointExtension>
            <ns3:atemp>16.0</ns3:atemp>
          </ns3:TrackPointExtension>
        </extensions>
      </trkpt>
      <trkpt lat="43.14661838114261627197265625" lon="13.10248467139899730682373046875">
        <ele>574</ele>
        <time>2021-05-25T07:00:27.000Z</time>
        <extensions>
          <ns3:TrackPointExtension>
            <ns3:atemp>16.0</ns3:atemp>
          </ns3:TrackPointExtension>
        </extensions>
      </trkpt>
      <trkpt lat="43.14664528705179691314697265625" lon="13.10260117985308170318603515625">
        <ele>575.4000244140625</ele>
        <time>2021-05-25T07:00:30.000Z</time>
        <extensions>
          <ns3:TrackPointExtension>
            <ns3:atemp>16.0</ns3:atemp>
          </ns3:TrackPointExtension>
        </extensions>
      </trkpt>
      <trkpt lat="43.1466614641249179840087890625" lon="13.10268198139965534210205078125">
        <ele>576.4000244140625</ele>
        <time>2021-05-25T07:00:32.000Z</time>
        <extensions>
          <ns3:TrackPointExtension>
            <ns3:atemp>16.0</ns3:atemp>
          </ns3:TrackPointExtension>
        </extensions>
      </trkpt>
      <trkpt lat="43.1466718576848506927490234375" lon="13.102765046060085296630859375">
        <ele>577.5999755859375</ele>
        <time>2021-05-25T07:00:34.000Z</time>
        <extensions>
          <ns3:TrackPointExtension>
            <ns3:atemp>16.0</ns3:atemp>
          </ns3:TrackPointExtension>
        </extensions>
      </trkpt>
      <trkpt lat="43.14668669365346431732177734375" lon="13.10284341685473918914794921875">
        <ele>578.79998779296875</ele>
        <time>2021-05-25T07:00:36.000Z</time>
        <extensions>
          <ns3:TrackPointExtension>
            <ns3:atemp>16.0</ns3:atemp>
          </ns3:TrackPointExtension>
        </extensions>
      </trkpt>
      <trkpt lat="43.14669172279536724090576171875" lon="13.1028825603425502777099609375">
        <ele>580</ele>
        <time>2021-05-25T07:00:37.000Z</time>
        <extensions>
          <ns3:TrackPointExtension>
            <ns3:atemp>16.0</ns3:atemp>
          </ns3:TrackPointExtension>
        </extensions>
      </trkpt>
      <trkpt lat="43.14670018851757049560546875" lon="13.102960847318172454833984375">
        <ele>581.20001220703125</ele>
        <time>2021-05-25T07:00:39.000Z</time>
        <extensions>
          <ns3:TrackPointExtension>
            <ns3:atemp>16.0</ns3:atemp>
          </ns3:TrackPointExtension>
        </extensions>
      </trkpt>
      <trkpt lat="43.14670681022107601165771484375" lon="13.1030408106744289398193359375">
        <ele>582.20001220703125</ele>
        <time>2021-05-25T07:00:41.000Z</time>
        <extensions>
          <ns3:TrackPointExtension>
            <ns3:atemp>16.0</ns3:atemp>
          </ns3:TrackPointExtension>
        </extensions>
      </trkpt>
      <trkpt lat="43.14672659151256084442138671875" lon="13.103157989680767059326171875">
        <ele>583.20001220703125</ele>
        <time>2021-05-25T07:00:44.000Z</time>
        <extensions>
          <ns3:TrackPointExtension>
            <ns3:atemp>16.0</ns3:atemp>
          </ns3:TrackPointExtension>
        </extensions>
      </trkpt>
      <trkpt lat="43.14673413522541522979736328125" lon="13.1031926907598972320556640625">
        <ele>583.79998779296875</ele>
        <time>2021-05-25T07:00:45.000Z</time>
        <extensions>
          <ns3:TrackPointExtension>
            <ns3:atemp>16.0</ns3:atemp>
          </ns3:TrackPointExtension>
        </extensions>
      </trkpt>
      <trkpt lat="43.146742098033428192138671875" lon="13.103304170072078704833984375">
        <ele>585</ele>
        <time>2021-05-25T07:00:48.000Z</time>
        <extensions>
          <ns3:TrackPointExtension>
            <ns3:atemp>16.0</ns3:atemp>
          </ns3:TrackPointExtension>
        </extensions>
      </trkpt>
      <trkpt lat="43.1467466242611408233642578125" lon="13.10337969101965427398681640625">
        <ele>585.79998779296875</ele>
        <time>2021-05-25T07:00:50.000Z</time>
        <extensions>
          <ns3:TrackPointExtension>
            <ns3:atemp>16.0</ns3:atemp>
          </ns3:TrackPointExtension>
        </extensions>
      </trkpt>
      <trkpt lat="43.14674712717533111572265625" lon="13.10341925360262393951416015625">
        <ele>586.20001220703125</ele>
        <time>2021-05-25T07:00:51.000Z</time>
        <extensions>
          <ns3:TrackPointExtension>
            <ns3:atemp>16.0</ns3:atemp>
          </ns3:TrackPointExtension>
        </extensions>
      </trkpt>
      <trkpt lat="43.14675760455429553985595703125" lon="13.10353240929543972015380859375">
        <ele>587.5999755859375</ele>
        <time>2021-05-25T07:00:54.000Z</time>
        <extensions>
          <ns3:TrackPointExtension>
            <ns3:atemp>16.0</ns3:atemp>
          </ns3:TrackPointExtension>
        </extensions>
      </trkpt>
      <trkpt lat="43.146767579019069671630859375" lon="13.10364439152181148529052734375">
        <ele>588.79998779296875</ele>
        <time>2021-05-25T07:00:57.000Z</time>
        <extensions>
          <ns3:TrackPointExtension>
            <ns3:atemp>16.0</ns3:atemp>
          </ns3:TrackPointExtension>
        </extensions>
      </trkpt>
      <trkpt lat="43.1467778049409389495849609375" lon="13.10375444591045379638671875">
        <ele>590.20001220703125</ele>
        <time>2021-05-25T07:01:00.000Z</time>
        <extensions>
          <ns3:TrackPointExtension>
            <ns3:atemp>16.0</ns3:atemp>
          </ns3:TrackPointExtension>
        </extensions>
      </trkpt>
      <trkpt lat="43.14679674804210662841796875" lon="13.10386902652680873870849609375">
        <ele>591.4000244140625</ele>
        <time>2021-05-25T07:01:03.000Z</time>
        <extensions>
          <ns3:TrackPointExtension>
            <ns3:atemp>16.0</ns3:atemp>
          </ns3:TrackPointExtension>
        </extensions>
      </trkpt>
      <trkpt lat="43.14680353738367557525634765625" lon="13.10390674509108066558837890625">
        <ele>591.5999755859375</ele>
        <time>2021-05-25T07:01:04.000Z</time>
        <extensions>
          <ns3:TrackPointExtension>
            <ns3:atemp>16.0</ns3:atemp>
          </ns3:TrackPointExtension>
        </extensions>
      </trkpt>
      <trkpt lat="43.146816194057464599609375" lon="13.1039779074490070343017578125">
        <ele>592.79998779296875</ele>
        <time>2021-05-25T07:01:06.000Z</time>
        <extensions>
          <ns3:TrackPointExtension>
            <ns3:atemp>16.0</ns3:atemp>
          </ns3:TrackPointExtension>
        </extensions>
      </trkpt>
      <trkpt lat="43.14684025011956691741943359375" lon="13.10408829711377620697021484375">
        <ele>594.20001220703125</ele>
        <time>2021-05-25T07:01:09.000Z</time>
        <extensions>
          <ns3:TrackPointExtension>
            <ns3:atemp>16.0</ns3:atemp>
          </ns3:TrackPointExtension>
        </extensions>
      </trkpt>
      <trkpt lat="43.1468649767339229583740234375" lon="13.104245625436305999755859375">
        <ele>595.4000244140625</ele>
        <time>2021-05-25T07:01:13.000Z</time>
        <extensions>
          <ns3:TrackPointExtension>
            <ns3:atemp>16.0</ns3:atemp>
          </ns3:TrackPointExtension>
        </extensions>
      </trkpt>
      <trkpt lat="43.14685483463108539581298828125" lon="13.10436624102294445037841796875">
        <ele>596.79998779296875</ele>
        <time>2021-05-25T07:01:16.000Z</time>
        <extensions>
          <ns3:TrackPointExtension>
            <ns3:atemp>16.0</ns3:atemp>
          </ns3:TrackPointExtension>
        </extensions>
      </trkpt>
      <trkpt lat="43.1468250788748264312744140625" lon="13.10448040254414081573486328125">
        <ele>597.5999755859375</ele>
        <time>2021-05-25T07:01:19.000Z</time>
        <extensions>
          <ns3:TrackPointExtension>
            <ns3:atemp>16.0</ns3:atemp>
          </ns3:TrackPointExtension>
        </extensions>
      </trkpt>
      <trkpt lat="43.146811835467815399169921875" lon="13.10451912693679332733154296875">
        <ele>598</ele>
        <time>2021-05-25T07:01:20.000Z</time>
        <extensions>
          <ns3:TrackPointExtension>
            <ns3:atemp>16.0</ns3:atemp>
          </ns3:TrackPointExtension>
        </extensions>
      </trkpt>
      <trkpt lat="43.14675115048885345458984375" lon="13.10467000119388103485107421875">
        <ele>599</ele>
        <time>2021-05-25T07:01:24.000Z</time>
        <extensions>
          <ns3:TrackPointExtension>
            <ns3:atemp>16.0</ns3:atemp>
          </ns3:TrackPointExtension>
        </extensions>
      </trkpt>
      <trkpt lat="43.14670345745980739593505859375" lon="13.10478282161056995391845703125">
        <ele>599.79998779296875</ele>
        <time>2021-05-25T07:01:27.000Z</time>
        <extensions>
          <ns3:TrackPointExtension>
            <ns3:atemp>16.0</ns3:atemp>
          </ns3:TrackPointExtension>
        </extensions>
      </trkpt>
      <trkpt lat="43.14667194150388240814208984375" lon="13.10485524125397205352783203125">
        <ele>600.20001220703125</ele>
        <time>2021-05-25T07:01:29.000Z</time>
        <extensions>
          <ns3:TrackPointExtension>
            <ns3:atemp>16.0</ns3:atemp>
          </ns3:TrackPointExtension>
        </extensions>
      </trkpt>
      <trkpt lat="43.14659398980438709259033203125" lon="13.10502975247800350189208984375">
        <ele>601.4000244140625</ele>
        <time>2021-05-25T07:01:34.000Z</time>
        <extensions>
          <ns3:TrackPointExtension>
            <ns3:atemp>16.0</ns3:atemp>
          </ns3:TrackPointExtension>
        </extensions>
      </trkpt>
      <trkpt lat="43.14657806418836116790771484375" lon="13.1050621904432773590087890625">
        <ele>601.5999755859375</ele>
        <time>2021-05-25T07:01:35.000Z</time>
        <extensions>
          <ns3:TrackPointExtension>
            <ns3:atemp>16.0</ns3:atemp>
          </ns3:TrackPointExtension>
        </extensions>
      </trkpt>
      <trkpt lat="43.14653464592993259429931640625" lon="13.1051594205200672149658203125">
        <ele>602.5999755859375</ele>
        <time>2021-05-25T07:01:38.000Z</time>
        <extensions>
          <ns3:TrackPointExtension>
            <ns3:atemp>16.0</ns3:atemp>
          </ns3:TrackPointExtension>
        </extensions>
      </trkpt>
      <trkpt lat="43.14647622406482696533203125" lon="13.1052868254482746124267578125">
        <ele>604</ele>
        <time>2021-05-25T07:01:42.000Z</time>
        <extensions>
          <ns3:TrackPointExtension>
            <ns3:atemp>16.0</ns3:atemp>
          </ns3:TrackPointExtension>
        </extensions>
      </trkpt>
      <trkpt lat="43.14644227735698223114013671875" lon="13.105347342789173126220703125">
        <ele>604.79998779296875</ele>
        <time>2021-05-25T07:01:44.000Z</time>
        <extensions>
          <ns3:TrackPointExtension>
            <ns3:atemp>16.0</ns3:atemp>
          </ns3:TrackPointExtension>
        </extensions>
      </trkpt>
      <trkpt lat="43.1464259326457977294921875" lon="13.10537626035511493682861328125">
        <ele>605.20001220703125</ele>
        <time>2021-05-25T07:01:45.000Z</time>
        <extensions>
          <ns3:TrackPointExtension>
            <ns3:atemp>16.0</ns3:atemp>
          </ns3:TrackPointExtension>
        </extensions>
      </trkpt>
      <trkpt lat="43.1463660858571529388427734375" lon="13.10547684319317340850830078125">
        <ele>606.4000244140625</ele>
        <time>2021-05-25T07:01:49.000Z</time>
        <extensions>
          <ns3:TrackPointExtension>
            <ns3:atemp>16.0</ns3:atemp>
          </ns3:TrackPointExtension>
        </extensions>
      </trkpt>
      <trkpt lat="43.1463132798671722412109375" lon="13.105549849569797515869140625">
        <ele>607.20001220703125</ele>
        <time>2021-05-25T07:01:52.000Z</time>
        <extensions>
          <ns3:TrackPointExtension>
            <ns3:atemp>16.0</ns3:atemp>
          </ns3:TrackPointExtension>
        </extensions>
      </trkpt>
      <trkpt lat="43.1462628208100795745849609375" lon="13.10562838800251483917236328125">
        <ele>608.5999755859375</ele>
        <time>2021-05-25T07:01:55.000Z</time>
        <extensions>
          <ns3:TrackPointExtension>
            <ns3:atemp>16.0</ns3:atemp>
          </ns3:TrackPointExtension>
        </extensions>
      </trkpt>
      <trkpt lat="43.1462118588387966156005859375" lon="13.1057102791965007781982421875">
        <ele>609.4000244140625</ele>
        <time>2021-05-25T07:01:58.000Z</time>
        <extensions>
          <ns3:TrackPointExtension>
            <ns3:atemp>16.0</ns3:atemp>
          </ns3:TrackPointExtension>
        </extensions>
      </trkpt>
      <trkpt lat="43.1461528502404689788818359375" lon="13.10582653619349002838134765625">
        <ele>610.5999755859375</ele>
        <time>2021-05-25T07:02:02.000Z</time>
        <extensions>
          <ns3:TrackPointExtension>
            <ns3:atemp>16.0</ns3:atemp>
          </ns3:TrackPointExtension>
        </extensions>
      </trkpt>
      <trkpt lat="43.14613231457769870758056640625" lon="13.10593751259148120880126953125">
        <ele>612.4000244140625</ele>
        <time>2021-05-25T07:02:05.000Z</time>
        <extensions>
          <ns3:TrackPointExtension>
            <ns3:atemp>16.0</ns3:atemp>
          </ns3:TrackPointExtension>
        </extensions>
      </trkpt>
      <trkpt lat="43.14612192101776599884033203125" lon="13.1060604751110076904296875">
        <ele>613.79998779296875</ele>
        <time>2021-05-25T07:02:08.000Z</time>
        <extensions>
          <ns3:TrackPointExtension>
            <ns3:atemp>16.0</ns3:atemp>
          </ns3:TrackPointExtension>
        </extensions>
      </trkpt>
      <trkpt lat="43.1461199931800365447998046875" lon="13.1061877124011516571044921875">
        <ele>615</ele>
        <time>2021-05-25T07:02:11.000Z</time>
        <extensions>
          <ns3:TrackPointExtension>
            <ns3:atemp>16.0</ns3:atemp>
          </ns3:TrackPointExtension>
        </extensions>
      </trkpt>
      <trkpt lat="43.14611990936100482940673828125" lon="13.1063137762248516082763671875">
        <ele>616.20001220703125</ele>
        <time>2021-05-25T07:02:14.000Z</time>
        <extensions>
          <ns3:TrackPointExtension>
            <ns3:atemp>16.0</ns3:atemp>
          </ns3:TrackPointExtension>
        </extensions>
      </trkpt>
      <trkpt lat="43.1461236812174320220947265625" lon="13.1064381636679172515869140625">
        <ele>616.5999755859375</ele>
        <time>2021-05-25T07:02:17.000Z</time>
        <extensions>
          <ns3:TrackPointExtension>
            <ns3:atemp>16.0</ns3:atemp>
          </ns3:TrackPointExtension>
        </extensions>
      </trkpt>
      <trkpt lat="43.1461273692548274993896484375" lon="13.10655358247458934783935546875">
        <ele>617</ele>
        <time>2021-05-25T07:02:20.000Z</time>
        <extensions>
          <ns3:TrackPointExtension>
            <ns3:atemp>16.0</ns3:atemp>
          </ns3:TrackPointExtension>
        </extensions>
      </trkpt>
      <trkpt lat="43.14616374671459197998046875" lon="13.10665818862617015838623046875">
        <ele>617.5999755859375</ele>
        <time>2021-05-25T07:02:23.000Z</time>
        <extensions>
          <ns3:TrackPointExtension>
            <ns3:atemp>16.0</ns3:atemp>
          </ns3:TrackPointExtension>
        </extensions>
      </trkpt>
      <trkpt lat="43.1462018005549907684326171875" lon="13.1067137606441974639892578125">
        <ele>618.20001220703125</ele>
        <time>2021-05-25T07:02:25.000Z</time>
        <extensions>
          <ns3:TrackPointExtension>
            <ns3:atemp>16.0</ns3:atemp>
          </ns3:TrackPointExtension>
        </extensions>
      </trkpt>
      <trkpt lat="43.14627648331224918365478515625" lon="13.10676698572933673858642578125">
        <ele>618.79998779296875</ele>
        <time>2021-05-25T07:02:28.000Z</time>
        <extensions>
          <ns3:TrackPointExtension>
            <ns3:atemp>16.0</ns3:atemp>
          </ns3:TrackPointExtension>
        </extensions>
      </trkpt>
      <trkpt lat="43.1463530100882053375244140625" lon="13.10678961686789989471435546875">
        <ele>619.20001220703125</ele>
        <time>2021-05-25T07:02:31.000Z</time>
        <extensions>
          <ns3:TrackPointExtension>
            <ns3:atemp>16.0</ns3:atemp>
          </ns3:TrackPointExtension>
        </extensions>
      </trkpt>
      <trkpt lat="43.14646021462976932525634765625" lon="13.1068073026835918426513671875">
        <ele>619.79998779296875</ele>
        <time>2021-05-25T07:02:35.000Z</time>
        <extensions>
          <ns3:TrackPointExtension>
            <ns3:atemp>16.0</ns3:atemp>
          </ns3:TrackPointExtension>
        </extensions>
      </trkpt>
      <trkpt lat="43.14651235006749629974365234375" lon="13.10681526549160480499267578125">
        <ele>620.20001220703125</ele>
        <time>2021-05-25T07:02:37.000Z</time>
        <extensions>
          <ns3:TrackPointExtension>
            <ns3:atemp>16.0</ns3:atemp>
          </ns3:TrackPointExtension>
        </extensions>
      </trkpt>
      <trkpt lat="43.14659516327083110809326171875" lon="13.10682331211864948272705078125">
        <ele>621.20001220703125</ele>
        <time>2021-05-25T07:02:40.000Z</time>
        <extensions>
          <ns3:TrackPointExtension>
            <ns3:atemp>16.0</ns3:atemp>
          </ns3:TrackPointExtension>
        </extensions>
      </trkpt>
      <trkpt lat="43.14670396037399768829345703125" lon="13.10683722607791423797607421875">
        <ele>621.79998779296875</ele>
        <time>2021-05-25T07:02:44.000Z</time>
        <extensions>
          <ns3:TrackPointExtension>
            <ns3:atemp>16.0</ns3:atemp>
          </ns3:TrackPointExtension>
        </extensions>
      </trkpt>
      <trkpt lat="43.14675827510654926300048828125" lon="13.10684426687657833099365234375">
        <ele>622.5999755859375</ele>
        <time>2021-05-25T07:02:46.000Z</time>
        <extensions>
          <ns3:TrackPointExtension>
            <ns3:atemp>16.0</ns3:atemp>
          </ns3:TrackPointExtension>
        </extensions>
      </trkpt>
      <trkpt lat="43.14680923707783222198486328125" lon="13.10685130767524242401123046875">
        <ele>623.5999755859375</ele>
        <time>2021-05-25T07:02:48.000Z</time>
        <extensions>
          <ns3:TrackPointExtension>
            <ns3:atemp>16.0</ns3:atemp>
          </ns3:TrackPointExtension>
        </extensions>
      </trkpt>
      <trkpt lat="43.14688702113926410675048828125" lon="13.1068629585206508636474609375">
        <ele>625</ele>
        <time>2021-05-25T07:02:51.000Z</time>
        <extensions>
          <ns3:TrackPointExtension>
            <ns3:atemp>16.0</ns3:atemp>
          </ns3:TrackPointExtension>
        </extensions>
      </trkpt>
      <trkpt lat="43.1469417549669742584228515625" lon="13.10687561519443988800048828125">
        <ele>625.5999755859375</ele>
        <time>2021-05-25T07:02:53.000Z</time>
        <extensions>
          <ns3:TrackPointExtension>
            <ns3:atemp>16.0</ns3:atemp>
          </ns3:TrackPointExtension>
        </extensions>
      </trkpt>
      <trkpt lat="43.14696782268583774566650390625" lon="13.1068777106702327728271484375">
        <ele>626.20001220703125</ele>
        <time>2021-05-25T07:02:54.000Z</time>
        <extensions>
          <ns3:TrackPointExtension>
            <ns3:atemp>16.0</ns3:atemp>
          </ns3:TrackPointExtension>
        </extensions>
      </trkpt>
      <trkpt lat="43.14705080352723598480224609375" lon="13.10689506120979785919189453125">
        <ele>627.20001220703125</ele>
        <time>2021-05-25T07:02:57.000Z</time>
        <extensions>
          <ns3:TrackPointExtension>
            <ns3:atemp>16.0</ns3:atemp>
          </ns3:TrackPointExtension>
        </extensions>
      </trkpt>
      <trkpt lat="43.14712489955127239227294921875" lon="13.106921128928661346435546875">
        <ele>628.4000244140625</ele>
        <time>2021-05-25T07:03:00.000Z</time>
        <extensions>
          <ns3:TrackPointExtension>
            <ns3:atemp>16.0</ns3:atemp>
          </ns3:TrackPointExtension>
        </extensions>
      </trkpt>
      <trkpt lat="43.14717183820903301239013671875" lon="13.10693428851664066314697265625">
        <ele>629.4000244140625</ele>
        <time>2021-05-25T07:03:02.000Z</time>
        <extensions>
          <ns3:TrackPointExtension>
            <ns3:atemp>16.0</ns3:atemp>
          </ns3:TrackPointExtension>
        </extensions>
      </trkpt>
      <trkpt lat="43.147226236760616302490234375" lon="13.1069482862949371337890625">
        <ele>630.79998779296875</ele>
        <time>2021-05-25T07:03:04.000Z</time>
        <extensions>
          <ns3:TrackPointExtension>
            <ns3:atemp>16.0</ns3:atemp>
          </ns3:TrackPointExtension>
        </extensions>
      </trkpt>
      <trkpt lat="43.14729387871921062469482421875" lon="13.10697552748024463653564453125">
        <ele>632.20001220703125</ele>
        <time>2021-05-25T07:03:07.000Z</time>
        <extensions>
          <ns3:TrackPointExtension>
            <ns3:atemp>16.0</ns3:atemp>
          </ns3:TrackPointExtension>
        </extensions>
      </trkpt>
      <trkpt lat="43.14731298945844173431396484375" lon="13.10698575340211391448974609375">
        <ele>632.79998779296875</ele>
        <time>2021-05-25T07:03:08.000Z</time>
        <extensions>
          <ns3:TrackPointExtension>
            <ns3:atemp>16.0</ns3:atemp>
          </ns3:TrackPointExtension>
        </extensions>
      </trkpt>
      <trkpt lat="43.14733377657830715179443359375" lon="13.1069950573146343231201171875">
        <ele>633.4000244140625</ele>
        <time>2021-05-25T07:03:09.000Z</time>
        <extensions>
          <ns3:TrackPointExtension>
            <ns3:atemp>16.0</ns3:atemp>
          </ns3:TrackPointExtension>
        </extensions>
      </trkpt>
      <trkpt lat="43.147377111017704010009765625" lon="13.10701140202581882476806640625">
        <ele>634.4000244140625</ele>
        <time>2021-05-25T07:03:11.000Z</time>
        <extensions>
          <ns3:TrackPointExtension>
            <ns3:atemp>16.0</ns3:atemp>
          </ns3:TrackPointExtension>
        </extensions>
      </trkpt>
      <trkpt lat="43.14744844101369380950927734375" lon="13.10704375617206096649169921875">
        <ele>635.4000244140625</ele>
        <time>2021-05-25T07:03:14.000Z</time>
        <extensions>
          <ns3:TrackPointExtension>
            <ns3:atemp>16.0</ns3:atemp>
          </ns3:TrackPointExtension>
        </extensions>
      </trkpt>
      <trkpt lat="43.1474961340427398681640625" lon="13.10707041062414646148681640625">
        <ele>636.5999755859375</ele>
        <time>2021-05-25T07:03:16.000Z</time>
        <extensions>
          <ns3:TrackPointExtension>
            <ns3:atemp>16.0</ns3:atemp>
          </ns3:TrackPointExtension>
        </extensions>
      </trkpt>
      <trkpt lat="43.14755690284073352813720703125" lon="13.10711081139743328094482421875">
        <ele>637.5999755859375</ele>
        <time>2021-05-25T07:03:19.000Z</time>
        <extensions>
          <ns3:TrackPointExtension>
            <ns3:atemp>16.0</ns3:atemp>
          </ns3:TrackPointExtension>
        </extensions>
      </trkpt>
      <trkpt lat="43.14763301052153110504150390625" lon="13.1071606837213039398193359375">
        <ele>638.79998779296875</ele>
        <time>2021-05-25T07:03:23.000Z</time>
        <extensions>
          <ns3:TrackPointExtension>
            <ns3:atemp>16.0</ns3:atemp>
          </ns3:TrackPointExtension>
        </extensions>
      </trkpt>
      <trkpt lat="43.14769352786242961883544921875" lon="13.1071958877146244049072265625">
        <ele>639.79998779296875</ele>
        <time>2021-05-25T07:03:26.000Z</time>
        <extensions>
          <ns3:TrackPointExtension>
            <ns3:atemp>16.0</ns3:atemp>
          </ns3:TrackPointExtension>
        </extensions>
      </trkpt>
      <trkpt lat="43.14771330915391445159912109375" lon="13.1072103045880794525146484375">
        <ele>640.20001220703125</ele>
        <time>2021-05-25T07:03:27.000Z</time>
        <extensions>
          <ns3:TrackPointExtension>
            <ns3:atemp>16.0</ns3:atemp>
          </ns3:TrackPointExtension>
        </extensions>
      </trkpt>
      <trkpt lat="43.14776611514389514923095703125" lon="13.10725766234099864959716796875">
        <ele>641.4000244140625</ele>
        <time>2021-05-25T07:03:30.000Z</time>
        <extensions>
          <ns3:TrackPointExtension>
            <ns3:atemp>16.0</ns3:atemp>
          </ns3:TrackPointExtension>
        </extensions>
      </trkpt>
      <trkpt lat="43.14781523309648036956787109375" lon="13.10731507837772369384765625">
        <ele>642.4000244140625</ele>
        <time>2021-05-25T07:03:33.000Z</time>
        <extensions>
          <ns3:TrackPointExtension>
            <ns3:atemp>16.0</ns3:atemp>
          </ns3:TrackPointExtension>
        </extensions>
      </trkpt>
      <trkpt lat="43.1478480063378810882568359375" lon="13.10738523490726947784423828125">
        <ele>643.79998779296875</ele>
        <time>2021-05-25T07:03:36.000Z</time>
        <extensions>
          <ns3:TrackPointExtension>
            <ns3:atemp>16.0</ns3:atemp>
          </ns3:TrackPointExtension>
        </extensions>
      </trkpt>
      <trkpt lat="43.14787357114255428314208984375" lon="13.10746218077838420867919921875">
        <ele>645</ele>
        <time>2021-05-25T07:03:39.000Z</time>
        <extensions>
          <ns3:TrackPointExtension>
            <ns3:atemp>16.0</ns3:atemp>
          </ns3:TrackPointExtension>
        </extensions>
      </trkpt>
      <trkpt lat="43.14788346178829669952392578125" lon="13.10752068646252155303955078125">
        <ele>645.79998779296875</ele>
        <time>2021-05-25T07:03:41.000Z</time>
        <extensions>
          <ns3:TrackPointExtension>
            <ns3:atemp>16.0</ns3:atemp>
          </ns3:TrackPointExtension>
        </extensions>
      </trkpt>
      <trkpt lat="43.14788647927343845367431640625" lon="13.10754784382879734039306640625">
        <ele>646</ele>
        <time>2021-05-25T07:03:42.000Z</time>
        <extensions>
          <ns3:TrackPointExtension>
            <ns3:atemp>16.0</ns3:atemp>
          </ns3:TrackPointExtension>
        </extensions>
      </trkpt>
      <trkpt lat="43.1479013152420520782470703125" lon="13.107666112482547760009765625">
        <ele>647.20001220703125</ele>
        <time>2021-05-25T07:03:46.000Z</time>
        <extensions>
          <ns3:TrackPointExtension>
            <ns3:atemp>16.0</ns3:atemp>
          </ns3:TrackPointExtension>
        </extensions>
      </trkpt>
      <trkpt lat="43.14790785312652587890625" lon="13.1077207624912261962890625">
        <ele>648.4000244140625</ele>
        <time>2021-05-25T07:03:48.000Z</time>
        <extensions>
          <ns3:TrackPointExtension>
            <ns3:atemp>16.0</ns3:atemp>
          </ns3:TrackPointExtension>
        </extensions>
      </trkpt>
      <trkpt lat="43.1479117088019847869873046875" lon="13.10774716548621654510498046875">
        <ele>648.79998779296875</ele>
        <time>2021-05-25T07:03:49.000Z</time>
        <extensions>
          <ns3:TrackPointExtension>
            <ns3:atemp>16.0</ns3:atemp>
          </ns3:TrackPointExtension>
        </extensions>
      </trkpt>
      <trkpt lat="43.147920928895473480224609375" lon="13.10779997147619724273681640625">
        <ele>649.4000244140625</ele>
        <time>2021-05-25T07:03:51.000Z</time>
        <extensions>
          <ns3:TrackPointExtension>
            <ns3:atemp>16.0</ns3:atemp>
          </ns3:TrackPointExtension>
        </extensions>
      </trkpt>
      <trkpt lat="43.1479475833475589752197265625" lon="13.10794078744947910308837890625">
        <ele>650.4000244140625</ele>
        <time>2021-05-25T07:03:56.000Z</time>
        <extensions>
          <ns3:TrackPointExtension>
            <ns3:atemp>16.0</ns3:atemp>
          </ns3:TrackPointExtension>
        </extensions>
      </trkpt>
      <trkpt lat="43.1479536183178424835205078125" lon="13.10796861536800861358642578125">
        <ele>650.5999755859375</ele>
        <time>2021-05-25T07:03:57.000Z</time>
        <extensions>
          <ns3:TrackPointExtension>
            <ns3:atemp>16.0</ns3:atemp>
          </ns3:TrackPointExtension>
        </extensions>
      </trkpt>
      <trkpt lat="43.1479653529822826385498046875" lon="13.1080595590174198150634765625">
        <ele>651.79998779296875</ele>
        <time>2021-05-25T07:04:00.000Z</time>
        <extensions>
          <ns3:TrackPointExtension>
            <ns3:atemp>16.0</ns3:atemp>
          </ns3:TrackPointExtension>
        </extensions>
      </trkpt>
      <trkpt lat="43.14796761609613895416259765625" lon="13.1081219203770160675048828125">
        <ele>652.5999755859375</ele>
        <time>2021-05-25T07:04:02.000Z</time>
        <extensions>
          <ns3:TrackPointExtension>
            <ns3:atemp>16.0</ns3:atemp>
          </ns3:TrackPointExtension>
        </extensions>
      </trkpt>
      <trkpt lat="43.14795680344104766845703125" lon="13.108146898448467254638671875">
        <ele>653</ele>
        <time>2021-05-25T07:04:03.000Z</time>
        <extensions>
          <ns3:TrackPointExtension>
            <ns3:atemp>16.0</ns3:atemp>
          </ns3:TrackPointExtension>
        </extensions>
      </trkpt>
      <trkpt lat="43.147868625819683074951171875" lon="13.1081819348037242889404296875">
        <ele>653.4000244140625</ele>
        <time>2021-05-25T07:04:07.000Z</time>
        <extensions>
          <ns3:TrackPointExtension>
            <ns3:atemp>16.0</ns3:atemp>
          </ns3:TrackPointExtension>
        </extensions>
      </trkpt>
      <trkpt lat="43.14784524030983448028564453125" lon="13.10818704776465892791748046875">
        <ele>653.4000244140625</ele>
        <time>2021-05-25T07:04:08.000Z</time>
        <extensions>
          <ns3:TrackPointExtension>
            <ns3:atemp>16.0</ns3:atemp>
          </ns3:TrackPointExtension>
        </extensions>
      </trkpt>
      <trkpt lat="43.147708363831043243408203125" lon="13.10822057537734508514404296875">
        <ele>653.79998779296875</ele>
        <time>2021-05-25T07:04:14.000Z</time>
        <extensions>
          <ns3:TrackPointExtension>
            <ns3:atemp>16.0</ns3:atemp>
          </ns3:TrackPointExtension>
        </extensions>
      </trkpt>
      <trkpt lat="43.14766301773488521575927734375" lon="13.10823599807918071746826171875">
        <ele>654</ele>
        <time>2021-05-25T07:04:16.000Z</time>
        <extensions>
          <ns3:TrackPointExtension>
            <ns3:atemp>16.0</ns3:atemp>
          </ns3:TrackPointExtension>
        </extensions>
      </trkpt>
      <trkpt lat="43.147519938647747039794921875" lon="13.1083033047616481781005859375">
        <ele>654.79998779296875</ele>
        <time>2021-05-25T07:04:23.000Z</time>
        <extensions>
          <ns3:TrackPointExtension>
            <ns3:atemp>16.0</ns3:atemp>
          </ns3:TrackPointExtension>
        </extensions>
      </trkpt>
      <trkpt lat="43.147481046617031097412109375" lon="13.1083187274634838104248046875">
        <ele>655.20001220703125</ele>
        <time>2021-05-25T07:04:25.000Z</time>
        <extensions>
          <ns3:TrackPointExtension>
            <ns3:atemp>16.0</ns3:atemp>
          </ns3:TrackPointExtension>
        </extensions>
      </trkpt>
      <trkpt lat="43.1473947130143642425537109375" lon="13.1083457171916961669921875">
        <ele>656.20001220703125</ele>
        <time>2021-05-25T07:04:29.000Z</time>
        <extensions>
          <ns3:TrackPointExtension>
            <ns3:atemp>16.0</ns3:atemp>
          </ns3:TrackPointExtension>
        </extensions>
      </trkpt>
      <trkpt lat="43.14733394421637058258056640625" lon="13.10837329365313053131103515625">
        <ele>657.4000244140625</ele>
        <time>2021-05-25T07:04:32.000Z</time>
        <extensions>
          <ns3:TrackPointExtension>
            <ns3:atemp>16.0</ns3:atemp>
          </ns3:TrackPointExtension>
        </extensions>
      </trkpt>
      <trkpt lat="43.1472445093095302581787109375" lon="13.10842148959636688232421875">
        <ele>657.79998779296875</ele>
        <time>2021-05-25T07:04:37.000Z</time>
        <extensions>
          <ns3:TrackPointExtension>
            <ns3:atemp>16.0</ns3:atemp>
          </ns3:TrackPointExtension>
        </extensions>
      </trkpt>
      <trkpt lat="43.14716043882071971893310546875" lon="13.10847890563309192657470703125">
        <ele>658.5999755859375</ele>
        <time>2021-05-25T07:04:42.000Z</time>
        <extensions>
          <ns3:TrackPointExtension>
            <ns3:atemp>16.0</ns3:atemp>
          </ns3:TrackPointExtension>
        </extensions>
      </trkpt>
      <trkpt lat="43.14711056649684906005859375" lon="13.1085262633860111236572265625">
        <ele>659.79998779296875</ele>
        <time>2021-05-25T07:04:45.000Z</time>
        <extensions>
          <ns3:TrackPointExtension>
            <ns3:atemp>16.0</ns3:atemp>
          </ns3:TrackPointExtension>
        </extensions>
      </trkpt>
      <trkpt lat="43.1470926292240619659423828125" lon="13.10854327864944934844970703125">
        <ele>660</ele>
        <time>2021-05-25T07:04:46.000Z</time>
        <extensions>
          <ns3:TrackPointExtension>
            <ns3:atemp>16.0</ns3:atemp>
          </ns3:TrackPointExtension>
        </extensions>
      </trkpt>
      <trkpt lat="43.147039152681827545166015625" lon="13.10860044322907924652099609375">
        <ele>661</ele>
        <time>2021-05-25T07:04:49.000Z</time>
        <extensions>
          <ns3:TrackPointExtension>
            <ns3:atemp>16.0</ns3:atemp>
          </ns3:TrackPointExtension>
        </extensions>
      </trkpt>
      <trkpt lat="43.1469055451452732086181640625" lon="13.10869834385812282562255859375">
        <ele>661.4000244140625</ele>
        <time>2021-05-25T07:04:55.000Z</time>
        <extensions>
          <ns3:TrackPointExtension>
            <ns3:atemp>16.0</ns3:atemp>
          </ns3:TrackPointExtension>
        </extensions>
      </trkpt>
      <trkpt lat="43.14672206528484821319580078125" lon="13.10877822339534759521484375">
        <ele>661.79998779296875</ele>
        <time>2021-05-25T07:05:02.000Z</time>
        <extensions>
          <ns3:TrackPointExtension>
            <ns3:atemp>16.0</ns3:atemp>
          </ns3:TrackPointExtension>
        </extensions>
      </trkpt>
      <trkpt lat="43.1466297805309295654296875" lon="13.10880864970386028289794921875">
        <ele>662</ele>
        <time>2021-05-25T07:05:05.000Z</time>
        <extensions>
          <ns3:TrackPointExtension>
            <ns3:atemp>16.0</ns3:atemp>
          </ns3:TrackPointExtension>
        </extensions>
      </trkpt>
      <trkpt lat="43.146596588194370269775390625" lon="13.10882189311087131500244140625">
        <ele>662.20001220703125</ele>
        <time>2021-05-25T07:05:06.000Z</time>
        <extensions>
          <ns3:TrackPointExtension>
            <ns3:atemp>16.0</ns3:atemp>
          </ns3:TrackPointExtension>
        </extensions>
      </trkpt>
      <trkpt lat="43.1464851088821887969970703125" lon="13.1088481284677982330322265625">
        <ele>662.79998779296875</ele>
        <time>2021-05-25T07:05:09.000Z</time>
        <extensions>
          <ns3:TrackPointExtension>
            <ns3:atemp>16.0</ns3:atemp>
          </ns3:TrackPointExtension>
        </extensions>
      </trkpt>
      <trkpt lat="43.14639768563210964202880859375" lon="13.108849637210369110107421875">
        <ele>663</ele>
        <time>2021-05-25T07:05:11.000Z</time>
        <extensions>
          <ns3:TrackPointExtension>
            <ns3:atemp>16.0</ns3:atemp>
          </ns3:TrackPointExtension>
        </extensions>
      </trkpt>
      <trkpt lat="43.14618813805282115936279296875" lon="13.10882457531988620758056640625">
        <ele>663</ele>
        <time>2021-05-25T07:05:15.000Z</time>
        <extensions>
          <ns3:TrackPointExtension>
            <ns3:atemp>16.0</ns3:atemp>
          </ns3:TrackPointExtension>
        </extensions>
      </trkpt>
      <trkpt lat="43.1459258683025836944580078125" lon="13.1087158620357513427734375">
        <ele>662.79998779296875</ele>
        <time>2021-05-25T07:05:20.000Z</time>
        <extensions>
          <ns3:TrackPointExtension>
            <ns3:atemp>16.0</ns3:atemp>
          </ns3:TrackPointExtension>
        </extensions>
      </trkpt>
      <trkpt lat="43.14571590162813663482666015625" lon="13.10855149291455745697021484375">
        <ele>662.20001220703125</ele>
        <time>2021-05-25T07:05:25.000Z</time>
        <extensions>
          <ns3:TrackPointExtension>
            <ns3:atemp>16.0</ns3:atemp>
          </ns3:TrackPointExtension>
        </extensions>
      </trkpt>
      <trkpt lat="43.14567952416837215423583984375" lon="13.1085111759603023529052734375">
        <ele>662.20001220703125</ele>
        <time>2021-05-25T07:05:26.000Z</time>
        <extensions>
          <ns3:TrackPointExtension>
            <ns3:atemp>16.0</ns3:atemp>
          </ns3:TrackPointExtension>
        </extensions>
      </trkpt>
      <trkpt lat="43.14556200988590717315673828125" lon="13.10837429948151111602783203125">
        <ele>662.20001220703125</ele>
        <time>2021-05-25T07:05:30.000Z</time>
        <extensions>
          <ns3:TrackPointExtension>
            <ns3:atemp>15.0</ns3:atemp>
          </ns3:TrackPointExtension>
        </extensions>
      </trkpt>
      <trkpt lat="43.14531474374234676361083984375" lon="13.10819291509687900543212890625">
        <ele>663</ele>
        <time>2021-05-25T07:05:37.000Z</time>
        <extensions>
          <ns3:TrackPointExtension>
            <ns3:atemp>15.0</ns3:atemp>
          </ns3:TrackPointExtension>
        </extensions>
      </trkpt>
      <trkpt lat="43.14521466381847858428955078125" lon="13.1081235967576503753662109375">
        <ele>663.20001220703125</ele>
        <time>2021-05-25T07:05:40.000Z</time>
        <extensions>
          <ns3:TrackPointExtension>
            <ns3:atemp>15.0</ns3:atemp>
          </ns3:TrackPointExtension>
        </extensions>
      </trkpt>
      <trkpt lat="43.1450605206191539764404296875" lon="13.10798236168920993804931640625">
        <ele>664</ele>
        <time>2021-05-25T07:05:45.000Z</time>
        <extensions>
          <ns3:TrackPointExtension>
            <ns3:atemp>15.0</ns3:atemp>
          </ns3:TrackPointExtension>
        </extensions>
      </trkpt>
      <trkpt lat="43.14492800273001194000244140625" lon="13.1078647635877132415771484375">
        <ele>664.5999755859375</ele>
        <time>2021-05-25T07:05:50.000Z</time>
        <extensions>
          <ns3:TrackPointExtension>
            <ns3:atemp>15.0</ns3:atemp>
          </ns3:TrackPointExtension>
        </extensions>
      </trkpt>
      <trkpt lat="43.14490537159144878387451171875" lon="13.10784925706684589385986328125">
        <ele>665</ele>
        <time>2021-05-25T07:05:51.000Z</time>
        <extensions>
          <ns3:TrackPointExtension>
            <ns3:atemp>15.0</ns3:atemp>
          </ns3:TrackPointExtension>
        </extensions>
      </trkpt>
      <trkpt lat="43.14484837464988231658935546875" lon="13.107818327844142913818359375">
        <ele>665.79998779296875</ele>
        <time>2021-05-25T07:05:53.000Z</time>
        <extensions>
          <ns3:TrackPointExtension>
            <ns3:atemp>15.0</ns3:atemp>
          </ns3:TrackPointExtension>
        </extensions>
      </trkpt>
      <trkpt lat="43.1447855941951274871826171875" lon="13.1077853031456470489501953125">
        <ele>667</ele>
        <time>2021-05-25T07:05:55.000Z</time>
        <extensions>
          <ns3:TrackPointExtension>
            <ns3:atemp>15.0</ns3:atemp>
          </ns3:TrackPointExtension>
        </extensions>
      </trkpt>
      <trkpt lat="43.1447239033877849578857421875" lon="13.10776032507419586181640625">
        <ele>667.4000244140625</ele>
        <time>2021-05-25T07:05:57.000Z</time>
        <extensions>
          <ns3:TrackPointExtension>
            <ns3:atemp>15.0</ns3:atemp>
          </ns3:TrackPointExtension>
        </extensions>
      </trkpt>
      <trkpt lat="43.144564814865589141845703125" lon="13.10770408250391483306884765625">
        <ele>668</ele>
        <time>2021-05-25T07:06:02.000Z</time>
        <extensions>
          <ns3:TrackPointExtension>
            <ns3:atemp>15.0</ns3:atemp>
          </ns3:TrackPointExtension>
        </extensions>
      </trkpt>
      <trkpt lat="43.14453723840415477752685546875" lon="13.1077004782855510711669921875">
        <ele>668</ele>
        <time>2021-05-25T07:06:03.000Z</time>
        <extensions>
          <ns3:TrackPointExtension>
            <ns3:atemp>15.0</ns3:atemp>
          </ns3:TrackPointExtension>
        </extensions>
      </trkpt>
      <trkpt lat="43.1443209014832973480224609375" lon="13.1076726503670215606689453125">
        <ele>669.4000244140625</ele>
        <time>2021-05-25T07:06:10.000Z</time>
        <extensions>
          <ns3:TrackPointExtension>
            <ns3:atemp>15.0</ns3:atemp>
          </ns3:TrackPointExtension>
        </extensions>
      </trkpt>
      <trkpt lat="43.14410540275275707244873046875" lon="13.1076443195343017578125">
        <ele>670.4000244140625</ele>
        <time>2021-05-25T07:06:17.000Z</time>
        <extensions>
          <ns3:TrackPointExtension>
            <ns3:atemp>15.0</ns3:atemp>
          </ns3:TrackPointExtension>
        </extensions>
      </trkpt>
      <trkpt lat="43.14407522790133953094482421875" lon="13.10764205642044544219970703125">
        <ele>670.5999755859375</ele>
        <time>2021-05-25T07:06:18.000Z</time>
        <extensions>
          <ns3:TrackPointExtension>
            <ns3:atemp>15.0</ns3:atemp>
          </ns3:TrackPointExtension>
        </extensions>
      </trkpt>
      <trkpt lat="43.14394480548799037933349609375" lon="13.107628561556339263916015625">
        <ele>671.79998779296875</ele>
        <time>2021-05-25T07:06:23.000Z</time>
        <extensions>
          <ns3:TrackPointExtension>
            <ns3:atemp>15.0</ns3:atemp>
          </ns3:TrackPointExtension>
        </extensions>
      </trkpt>
      <trkpt lat="43.143878839910030364990234375" lon="13.10762227512896060943603515625">
        <ele>673</ele>
        <time>2021-05-25T07:06:26.000Z</time>
        <extensions>
          <ns3:TrackPointExtension>
            <ns3:atemp>15.0</ns3:atemp>
          </ns3:TrackPointExtension>
        </extensions>
      </trkpt>
      <trkpt lat="43.14379376359283924102783203125" lon="13.10760467313230037689208984375">
        <ele>674</ele>
        <time>2021-05-25T07:06:29.000Z</time>
        <extensions>
          <ns3:TrackPointExtension>
            <ns3:atemp>15.0</ns3:atemp>
          </ns3:TrackPointExtension>
        </extensions>
      </trkpt>
      <trkpt lat="43.14369100145995616912841796875" lon="13.107571564614772796630859375">
        <ele>675.4000244140625</ele>
        <time>2021-05-25T07:06:33.000Z</time>
        <extensions>
          <ns3:TrackPointExtension>
            <ns3:atemp>15.0</ns3:atemp>
          </ns3:TrackPointExtension>
        </extensions>
      </trkpt>
      <trkpt lat="43.14356627874076366424560546875" lon="13.10751917771995067596435546875">
        <ele>676.4000244140625</ele>
        <time>2021-05-25T07:06:37.000Z</time>
        <extensions>
          <ns3:TrackPointExtension>
            <ns3:atemp>15.0</ns3:atemp>
          </ns3:TrackPointExtension>
        </extensions>
      </trkpt>
      <trkpt lat="43.143495954573154449462890625" lon="13.107493780553340911865234375">
        <ele>677.5999755859375</ele>
        <time>2021-05-25T07:06:39.000Z</time>
        <extensions>
          <ns3:TrackPointExtension>
            <ns3:atemp>15.0</ns3:atemp>
          </ns3:TrackPointExtension>
        </extensions>
      </trkpt>
      <trkpt lat="43.1433905102312564849853515625" lon="13.107495792210102081298828125">
        <ele>678.4000244140625</ele>
        <time>2021-05-25T07:06:42.000Z</time>
        <extensions>
          <ns3:TrackPointExtension>
            <ns3:atemp>15.0</ns3:atemp>
          </ns3:TrackPointExtension>
        </extensions>
      </trkpt>
      <trkpt lat="43.1433494389057159423828125" lon="13.1074979715049266815185546875">
        <ele>679</ele>
        <time>2021-05-25T07:06:43.000Z</time>
        <extensions>
          <ns3:TrackPointExtension>
            <ns3:atemp>15.0</ns3:atemp>
          </ns3:TrackPointExtension>
        </extensions>
      </trkpt>
      <trkpt lat="43.143168725073337554931640625" lon="13.10752739198505878448486328125">
        <ele>679.5999755859375</ele>
        <time>2021-05-25T07:06:48.000Z</time>
        <extensions>
          <ns3:TrackPointExtension>
            <ns3:atemp>15.0</ns3:atemp>
          </ns3:TrackPointExtension>
        </extensions>
      </trkpt>
      <trkpt lat="43.14291349612176418304443359375" lon="13.10757927596569061279296875">
        <ele>679.79998779296875</ele>
        <time>2021-05-25T07:06:54.000Z</time>
        <extensions>
          <ns3:TrackPointExtension>
            <ns3:atemp>15.0</ns3:atemp>
          </ns3:TrackPointExtension>
        </extensions>
      </trkpt>
      <trkpt lat="43.142659775912761688232421875" lon="13.10763384215533733367919921875">
        <ele>679.4000244140625</ele>
        <time>2021-05-25T07:07:01.000Z</time>
        <extensions>
          <ns3:TrackPointExtension>
            <ns3:atemp>15.0</ns3:atemp>
          </ns3:TrackPointExtension>
        </extensions>
      </trkpt>
      <trkpt lat="43.1424255855381488800048828125" lon="13.1077046692371368408203125">
        <ele>679.5999755859375</ele>
        <time>2021-05-25T07:07:07.000Z</time>
        <extensions>
          <ns3:TrackPointExtension>
            <ns3:atemp>15.0</ns3:atemp>
          </ns3:TrackPointExtension>
        </extensions>
      </trkpt>
      <trkpt lat="43.142149150371551513671875" lon="13.10782260261476039886474609375">
        <ele>680</ele>
        <time>2021-05-25T07:07:14.000Z</time>
        <extensions>
          <ns3:TrackPointExtension>
            <ns3:atemp>15.0</ns3:atemp>
          </ns3:TrackPointExtension>
        </extensions>
      </trkpt>
      <trkpt lat="43.14210950396955013275146484375" lon="13.10784221626818180084228515625">
        <ele>680</ele>
        <time>2021-05-25T07:07:15.000Z</time>
        <extensions>
          <ns3:TrackPointExtension>
            <ns3:atemp>15.0</ns3:atemp>
          </ns3:TrackPointExtension>
        </extensions>
      </trkpt>
      <trkpt lat="43.14190615899860858917236328125" lon="13.10792704112827777862548828125">
        <ele>680</ele>
        <time>2021-05-25T07:07:20.000Z</time>
        <extensions>
          <ns3:TrackPointExtension>
            <ns3:atemp>15.0</ns3:atemp>
          </ns3:TrackPointExtension>
        </extensions>
      </trkpt>
      <trkpt lat="43.14157255925238132476806640625" lon="13.10805444605648517608642578125">
        <ele>679.79998779296875</ele>
        <time>2021-05-25T07:07:28.000Z</time>
        <extensions>
          <ns3:TrackPointExtension>
            <ns3:atemp>15.0</ns3:atemp>
          </ns3:TrackPointExtension>
        </extensions>
      </trkpt>
      <trkpt lat="43.1413350999355316162109375" lon="13.10813256539404392242431640625">
        <ele>680.5999755859375</ele>
        <time>2021-05-25T07:07:34.000Z</time>
        <extensions>
          <ns3:TrackPointExtension>
            <ns3:atemp>15.0</ns3:atemp>
          </ns3:TrackPointExtension>
        </extensions>
      </trkpt>
      <trkpt lat="43.1410992331802845001220703125" lon="13.10814413242042064666748046875">
        <ele>681</ele>
        <time>2021-05-25T07:07:39.000Z</time>
        <extensions>
          <ns3:TrackPointExtension>
            <ns3:atemp>15.0</ns3:atemp>
          </ns3:TrackPointExtension>
        </extensions>
      </trkpt>
      <trkpt lat="43.14077384769916534423828125" lon="13.1081668473780155181884765625">
        <ele>681</ele>
        <time>2021-05-25T07:07:45.000Z</time>
        <extensions>
          <ns3:TrackPointExtension>
            <ns3:atemp>15.0</ns3:atemp>
          </ns3:TrackPointExtension>
        </extensions>
      </trkpt>
      <trkpt lat="43.1407321058213710784912109375" lon="13.108180426061153411865234375">
        <ele>681</ele>
        <time>2021-05-25T07:07:46.000Z</time>
        <extensions>
          <ns3:TrackPointExtension>
            <ns3:atemp>15.0</ns3:atemp>
          </ns3:TrackPointExtension>
        </extensions>
      </trkpt>
      <trkpt lat="43.14057025127112865447998046875" lon="13.10824035666882991790771484375">
        <ele>680.79998779296875</ele>
        <time>2021-05-25T07:07:50.000Z</time>
        <extensions>
          <ns3:TrackPointExtension>
            <ns3:atemp>14.0</ns3:atemp>
          </ns3:TrackPointExtension>
        </extensions>
      </trkpt>
      <trkpt lat="43.1403311155736446380615234375" lon="13.10823063366115093231201171875">
        <ele>680.4000244140625</ele>
        <time>2021-05-25T07:07:56.000Z</time>
        <extensions>
          <ns3:TrackPointExtension>
            <ns3:atemp>14.0</ns3:atemp>
          </ns3:TrackPointExtension>
        </extensions>
      </trkpt>
      <trkpt lat="43.1401373259723186492919921875" lon="13.10814983211457729339599609375">
        <ele>679</ele>
        <time>2021-05-25T07:08:00.000Z</time>
        <extensions>
          <ns3:TrackPointExtension>
            <ns3:atemp>14.0</ns3:atemp>
          </ns3:TrackPointExtension>
        </extensions>
      </trkpt>
      <trkpt lat="43.14003699459135532379150390625" lon="13.10811161063611507415771484375">
        <ele>678</ele>
        <time>2021-05-25T07:08:02.000Z</time>
        <extensions>
          <ns3:TrackPointExtension>
            <ns3:atemp>14.0</ns3:atemp>
          </ns3:TrackPointExtension>
        </extensions>
      </trkpt>
      <trkpt lat="43.1399844400584697723388671875" lon="13.10809467919170856475830078125">
        <ele>677.20001220703125</ele>
        <time>2021-05-25T07:08:03.000Z</time>
        <extensions>
          <ns3:TrackPointExtension>
            <ns3:atemp>14.0</ns3:atemp>
          </ns3:TrackPointExtension>
        </extensions>
      </trkpt>
      <trkpt lat="43.1399323046207427978515625" lon="13.10808395035564899444580078125">
        <ele>676.20001220703125</ele>
        <time>2021-05-25T07:08:04.000Z</time>
        <extensions>
          <ns3:TrackPointExtension>
            <ns3:atemp>14.0</ns3:atemp>
          </ns3:TrackPointExtension>
        </extensions>
      </trkpt>
      <trkpt lat="43.13983867876231670379638671875" lon="13.10809828341007232666015625">
        <ele>674.4000244140625</ele>
        <time>2021-05-25T07:08:06.000Z</time>
        <extensions>
          <ns3:TrackPointExtension>
            <ns3:atemp>14.0</ns3:atemp>
          </ns3:TrackPointExtension>
        </extensions>
      </trkpt>
      <trkpt lat="43.139747567474842071533203125" lon="13.10817095451056957244873046875">
        <ele>673</ele>
        <time>2021-05-25T07:08:08.000Z</time>
        <extensions>
          <ns3:TrackPointExtension>
            <ns3:atemp>14.0</ns3:atemp>
          </ns3:TrackPointExtension>
        </extensions>
      </trkpt>
      <trkpt lat="43.139695264399051666259765625" lon="13.10822359286248683929443359375">
        <ele>672.4000244140625</ele>
        <time>2021-05-25T07:08:09.000Z</time>
        <extensions>
          <ns3:TrackPointExtension>
            <ns3:atemp>14.0</ns3:atemp>
          </ns3:TrackPointExtension>
        </extensions>
      </trkpt>
      <trkpt lat="43.139640949666500091552734375" lon="13.10827354900538921356201171875">
        <ele>671.5999755859375</ele>
        <time>2021-05-25T07:08:10.000Z</time>
        <extensions>
          <ns3:TrackPointExtension>
            <ns3:atemp>14.0</ns3:atemp>
          </ns3:TrackPointExtension>
        </extensions>
      </trkpt>
      <trkpt lat="43.13953257165849208831787109375" lon="13.108397684991359710693359375">
        <ele>669.79998779296875</ele>
        <time>2021-05-25T07:08:12.000Z</time>
        <extensions>
          <ns3:TrackPointExtension>
            <ns3:atemp>14.0</ns3:atemp>
          </ns3:TrackPointExtension>
        </extensions>
      </trkpt>
      <trkpt lat="43.13947834074497222900390625" lon="13.10845392756164073944091796875">
        <ele>668.79998779296875</ele>
        <time>2021-05-25T07:08:13.000Z</time>
        <extensions>
          <ns3:TrackPointExtension>
            <ns3:atemp>14.0</ns3:atemp>
          </ns3:TrackPointExtension>
        </extensions>
      </trkpt>
      <trkpt lat="43.13943006098270416259765625" lon="13.10852081514894962310791015625">
        <ele>667.5999755859375</ele>
        <time>2021-05-25T07:08:14.000Z</time>
        <extensions>
          <ns3:TrackPointExtension>
            <ns3:atemp>14.0</ns3:atemp>
          </ns3:TrackPointExtension>
        </extensions>
      </trkpt>
      <trkpt lat="43.13937884755432605743408203125" lon="13.1085651554167270660400390625">
        <ele>666.4000244140625</ele>
        <time>2021-05-25T07:08:15.000Z</time>
        <extensions>
          <ns3:TrackPointExtension>
            <ns3:atemp>14.0</ns3:atemp>
          </ns3:TrackPointExtension>
        </extensions>
      </trkpt>
      <trkpt lat="43.1393256224691867828369140625" lon="13.10860656201839447021484375">
        <ele>665.20001220703125</ele>
        <time>2021-05-25T07:08:16.000Z</time>
        <extensions>
          <ns3:TrackPointExtension>
            <ns3:atemp>14.0</ns3:atemp>
          </ns3:TrackPointExtension>
        </extensions>
      </trkpt>
      <trkpt lat="43.13927424140274524688720703125" lon="13.10865073464810848236083984375">
        <ele>664.20001220703125</ele>
        <time>2021-05-25T07:08:17.000Z</time>
        <extensions>
          <ns3:TrackPointExtension>
            <ns3:atemp>14.0</ns3:atemp>
          </ns3:TrackPointExtension>
        </extensions>
      </trkpt>
      <trkpt lat="43.1392226926982402801513671875" lon="13.1086975894868373870849609375">
        <ele>663.20001220703125</ele>
        <time>2021-05-25T07:08:18.000Z</time>
        <extensions>
          <ns3:TrackPointExtension>
            <ns3:atemp>14.0</ns3:atemp>
          </ns3:TrackPointExtension>
        </extensions>
      </trkpt>
      <trkpt lat="43.1391680426895618438720703125" lon="13.10873706825077533721923828125">
        <ele>662</ele>
        <time>2021-05-25T07:08:19.000Z</time>
        <extensions>
          <ns3:TrackPointExtension>
            <ns3:atemp>14.0</ns3:atemp>
          </ns3:TrackPointExtension>
        </extensions>
      </trkpt>
      <trkpt lat="43.13911062665283679962158203125" lon="13.10877059586346149444580078125">
        <ele>661</ele>
        <time>2021-05-25T07:08:20.000Z</time>
        <extensions>
          <ns3:TrackPointExtension>
            <ns3:atemp>14.0</ns3:atemp>
          </ns3:TrackPointExtension>
        </extensions>
      </trkpt>
      <trkpt lat="43.139054216444492340087890625" lon="13.10881719924509525299072265625">
        <ele>660.20001220703125</ele>
        <time>2021-05-25T07:08:21.000Z</time>
        <extensions>
          <ns3:TrackPointExtension>
            <ns3:atemp>14.0</ns3:atemp>
          </ns3:TrackPointExtension>
        </extensions>
      </trkpt>
      <trkpt lat="43.13899227418005466461181640625" lon="13.1088419258594512939453125">
        <ele>659.5999755859375</ele>
        <time>2021-05-25T07:08:22.000Z</time>
        <extensions>
          <ns3:TrackPointExtension>
            <ns3:atemp>14.0</ns3:atemp>
          </ns3:TrackPointExtension>
        </extensions>
      </trkpt>
      <trkpt lat="43.13887677155435085296630859375" lon="13.10888693667948246002197265625">
        <ele>658.5999755859375</ele>
        <time>2021-05-25T07:08:24.000Z</time>
        <extensions>
          <ns3:TrackPointExtension>
            <ns3:atemp>14.0</ns3:atemp>
          </ns3:TrackPointExtension>
        </extensions>
      </trkpt>
      <trkpt lat="43.13876680098474025726318359375" lon="13.10890973545610904693603515625">
        <ele>657</ele>
        <time>2021-05-25T07:08:26.000Z</time>
        <extensions>
          <ns3:TrackPointExtension>
            <ns3:atemp>14.0</ns3:atemp>
          </ns3:TrackPointExtension>
        </extensions>
      </trkpt>
      <trkpt lat="43.13873411156237125396728515625" lon="13.1089557521045207977294921875">
        <ele>655.4000244140625</ele>
        <time>2021-05-25T07:08:27.000Z</time>
        <extensions>
          <ns3:TrackPointExtension>
            <ns3:atemp>14.0</ns3:atemp>
          </ns3:TrackPointExtension>
        </extensions>
      </trkpt>
      <trkpt lat="43.13869019038975238800048828125" lon="13.10898047871887683868408203125">
        <ele>654.5999755859375</ele>
        <time>2021-05-25T07:08:28.000Z</time>
        <extensions>
          <ns3:TrackPointExtension>
            <ns3:atemp>14.0</ns3:atemp>
          </ns3:TrackPointExtension>
        </extensions>
      </trkpt>
      <trkpt lat="43.13864283263683319091796875" lon="13.109019957482814788818359375">
        <ele>654</ele>
        <time>2021-05-25T07:08:29.000Z</time>
        <extensions>
          <ns3:TrackPointExtension>
            <ns3:atemp>14.0</ns3:atemp>
          </ns3:TrackPointExtension>
        </extensions>
      </trkpt>
      <trkpt lat="43.1386005878448486328125" lon="13.10906949453055858612060546875">
        <ele>653.5999755859375</ele>
        <time>2021-05-25T07:08:30.000Z</time>
        <extensions>
          <ns3:TrackPointExtension>
            <ns3:atemp>14.0</ns3:atemp>
          </ns3:TrackPointExtension>
        </extensions>
      </trkpt>
      <trkpt lat="43.13851869665086269378662109375" lon="13.1091981567442417144775390625">
        <ele>652.79998779296875</ele>
        <time>2021-05-25T07:08:32.000Z</time>
        <extensions>
          <ns3:TrackPointExtension>
            <ns3:atemp>14.0</ns3:atemp>
          </ns3:TrackPointExtension>
        </extensions>
      </trkpt>
      <trkpt lat="43.1385216303169727325439453125" lon="13.1094695627689361572265625">
        <ele>652</ele>
        <time>2021-05-25T07:08:34.000Z</time>
        <extensions>
          <ns3:TrackPointExtension>
            <ns3:atemp>14.0</ns3:atemp>
          </ns3:TrackPointExtension>
        </extensions>
      </trkpt>
      <trkpt lat="43.13852137885987758636474609375" lon="13.10958783142268657684326171875">
        <ele>651.79998779296875</ele>
        <time>2021-05-25T07:08:35.000Z</time>
        <extensions>
          <ns3:TrackPointExtension>
            <ns3:atemp>14.0</ns3:atemp>
          </ns3:TrackPointExtension>
        </extensions>
      </trkpt>
      <trkpt lat="43.13850796781480312347412109375" lon="13.10977508313953876495361328125">
        <ele>650.5999755859375</ele>
        <time>2021-05-25T07:08:37.000Z</time>
        <extensions>
          <ns3:TrackPointExtension>
            <ns3:atemp>14.0</ns3:atemp>
          </ns3:TrackPointExtension>
        </extensions>
      </trkpt>
      <trkpt lat="43.1384974904358386993408203125" lon="13.10986493714153766632080078125">
        <ele>649.4000244140625</ele>
        <time>2021-05-25T07:08:38.000Z</time>
        <extensions>
          <ns3:TrackPointExtension>
            <ns3:atemp>14.0</ns3:atemp>
          </ns3:TrackPointExtension>
        </extensions>
      </trkpt>
      <trkpt lat="43.13848986290395259857177734375" lon="13.10993987135589122772216796875">
        <ele>648.20001220703125</ele>
        <time>2021-05-25T07:08:39.000Z</time>
        <extensions>
          <ns3:TrackPointExtension>
            <ns3:atemp>14.0</ns3:atemp>
          </ns3:TrackPointExtension>
        </extensions>
      </trkpt>
      <trkpt lat="43.13848248682916164398193359375" lon="13.1100098602473735809326171875">
        <ele>647.20001220703125</ele>
        <time>2021-05-25T07:08:40.000Z</time>
        <extensions>
          <ns3:TrackPointExtension>
            <ns3:atemp>14.0</ns3:atemp>
          </ns3:TrackPointExtension>
        </extensions>
      </trkpt>
      <trkpt lat="43.138476870954036712646484375" lon="13.1100832857191562652587890625">
        <ele>646.4000244140625</ele>
        <time>2021-05-25T07:08:41.000Z</time>
        <extensions>
          <ns3:TrackPointExtension>
            <ns3:atemp>14.0</ns3:atemp>
          </ns3:TrackPointExtension>
        </extensions>
      </trkpt>
      <trkpt lat="43.1384653039276599884033203125" lon="13.11014480888843536376953125">
        <ele>645.5999755859375</ele>
        <time>2021-05-25T07:08:42.000Z</time>
        <extensions>
          <ns3:TrackPointExtension>
            <ns3:atemp>14.0</ns3:atemp>
          </ns3:TrackPointExtension>
        </extensions>
      </trkpt>
      <trkpt lat="43.13844971358776092529296875" lon="13.11020306311547756195068359375">
        <ele>645</ele>
        <time>2021-05-25T07:08:43.000Z</time>
        <extensions>
          <ns3:TrackPointExtension>
            <ns3:atemp>14.0</ns3:atemp>
          </ns3:TrackPointExtension>
        </extensions>
      </trkpt>
      <trkpt lat="43.13840738497674465179443359375" lon="13.1103297136723995208740234375">
        <ele>643.79998779296875</ele>
        <time>2021-05-25T07:08:45.000Z</time>
        <extensions>
          <ns3:TrackPointExtension>
            <ns3:atemp>14.0</ns3:atemp>
          </ns3:TrackPointExtension>
        </extensions>
      </trkpt>
      <trkpt lat="43.13839430920779705047607421875" lon="13.11048754490911960601806640625">
        <ele>642.79998779296875</ele>
        <time>2021-05-25T07:08:47.000Z</time>
        <extensions>
          <ns3:TrackPointExtension>
            <ns3:atemp>14.0</ns3:atemp>
          </ns3:TrackPointExtension>
        </extensions>
      </trkpt>
      <trkpt lat="43.1384096480906009674072265625" lon="13.11066591180860996246337890625">
        <ele>641</ele>
        <time>2021-05-25T07:08:49.000Z</time>
        <extensions>
          <ns3:TrackPointExtension>
            <ns3:atemp>14.0</ns3:atemp>
          </ns3:TrackPointExtension>
        </extensions>
      </trkpt>
      <trkpt lat="43.1384275853633880615234375" lon="13.11087059788405895233154296875">
        <ele>639.4000244140625</ele>
        <time>2021-05-25T07:08:51.000Z</time>
        <extensions>
          <ns3:TrackPointExtension>
            <ns3:atemp>14.0</ns3:atemp>
          </ns3:TrackPointExtension>
        </extensions>
      </trkpt>
      <trkpt lat="43.13843630254268646240234375" lon="13.11098509468138217926025390625">
        <ele>638.4000244140625</ele>
        <time>2021-05-25T07:08:52.000Z</time>
        <extensions>
          <ns3:TrackPointExtension>
            <ns3:atemp>14.0</ns3:atemp>
          </ns3:TrackPointExtension>
        </extensions>
      </trkpt>
      <trkpt lat="43.1384378112852573394775390625" lon="13.11120218597352504730224609375">
        <ele>636.5999755859375</ele>
        <time>2021-05-25T07:08:54.000Z</time>
        <extensions>
          <ns3:TrackPointExtension>
            <ns3:atemp>14.0</ns3:atemp>
          </ns3:TrackPointExtension>
        </extensions>
      </trkpt>
      <trkpt lat="43.13843789510428905487060546875" lon="13.11130352318286895751953125">
        <ele>635.5999755859375</ele>
        <time>2021-05-25T07:08:55.000Z</time>
        <extensions>
          <ns3:TrackPointExtension>
            <ns3:atemp>14.0</ns3:atemp>
          </ns3:TrackPointExtension>
        </extensions>
      </trkpt>
      <trkpt lat="43.1384425051510334014892578125" lon="13.11140217818319797515869140625">
        <ele>634.4000244140625</ele>
        <time>2021-05-25T07:08:56.000Z</time>
        <extensions>
          <ns3:TrackPointExtension>
            <ns3:atemp>14.0</ns3:atemp>
          </ns3:TrackPointExtension>
        </extensions>
      </trkpt>
      <trkpt lat="43.13844745047390460968017578125" lon="13.111501000821590423583984375">
        <ele>632</ele>
        <time>2021-05-25T07:08:57.000Z</time>
        <extensions>
          <ns3:TrackPointExtension>
            <ns3:atemp>14.0</ns3:atemp>
          </ns3:TrackPointExtension>
        </extensions>
      </trkpt>
      <trkpt lat="43.1384478695690631866455078125" lon="13.1115863285958766937255859375">
        <ele>631.4000244140625</ele>
        <time>2021-05-25T07:08:58.000Z</time>
        <extensions>
          <ns3:TrackPointExtension>
            <ns3:atemp>14.0</ns3:atemp>
          </ns3:TrackPointExtension>
        </extensions>
      </trkpt>
      <trkpt lat="43.138442337512969970703125" lon="13.1116662919521331787109375">
        <ele>631</ele>
        <time>2021-05-25T07:08:59.000Z</time>
        <extensions>
          <ns3:TrackPointExtension>
            <ns3:atemp>14.0</ns3:atemp>
          </ns3:TrackPointExtension>
        </extensions>
      </trkpt>
      <trkpt lat="43.138377629220485687255859375" lon="13.11200668103992938995361328125">
        <ele>630</ele>
        <time>2021-05-25T07:09:04.000Z</time>
        <extensions>
          <ns3:TrackPointExtension>
            <ns3:atemp>14.0</ns3:atemp>
          </ns3:TrackPointExtension>
        </extensions>
      </trkpt>
      <trkpt lat="43.13835642300546169281005859375" lon="13.1120570562779903411865234375">
        <ele>629.79998779296875</ele>
        <time>2021-05-25T07:09:05.000Z</time>
        <extensions>
          <ns3:TrackPointExtension>
            <ns3:atemp>14.0</ns3:atemp>
          </ns3:TrackPointExtension>
        </extensions>
      </trkpt>
      <trkpt lat="43.13825449906289577484130859375" lon="13.112157471477985382080078125">
        <ele>629.20001220703125</ele>
        <time>2021-05-25T07:09:08.000Z</time>
        <extensions>
          <ns3:TrackPointExtension>
            <ns3:atemp>14.0</ns3:atemp>
          </ns3:TrackPointExtension>
        </extensions>
      </trkpt>
      <trkpt lat="43.1381635554134845733642578125" lon="13.11217733658850193023681640625">
        <ele>629</ele>
        <time>2021-05-25T07:09:10.000Z</time>
        <extensions>
          <ns3:TrackPointExtension>
            <ns3:atemp>14.0</ns3:atemp>
          </ns3:TrackPointExtension>
        </extensions>
      </trkpt>
      <trkpt lat="43.13806909136474132537841796875" lon="13.11219996772706508636474609375">
        <ele>628.79998779296875</ele>
        <time>2021-05-25T07:09:12.000Z</time>
        <extensions>
          <ns3:TrackPointExtension>
            <ns3:atemp>14.0</ns3:atemp>
          </ns3:TrackPointExtension>
        </extensions>
      </trkpt>
      <trkpt lat="43.138022907078266143798828125" lon="13.1122200004756450653076171875">
        <ele>628.79998779296875</ele>
        <time>2021-05-25T07:09:13.000Z</time>
        <extensions>
          <ns3:TrackPointExtension>
            <ns3:atemp>14.0</ns3:atemp>
          </ns3:TrackPointExtension>
        </extensions>
      </trkpt>
      <trkpt lat="43.13793313689529895782470703125" lon="13.1122555397450923919677734375">
        <ele>627.4000244140625</ele>
        <time>2021-05-25T07:09:15.000Z</time>
        <extensions>
          <ns3:TrackPointExtension>
            <ns3:atemp>15.0</ns3:atemp>
          </ns3:TrackPointExtension>
        </extensions>
      </trkpt>
      <trkpt lat="43.137888126075267791748046875" lon="13.1122793443500995635986328125">
        <ele>626.20001220703125</ele>
        <time>2021-05-25T07:09:16.000Z</time>
        <extensions>
          <ns3:TrackPointExtension>
            <ns3:atemp>15.0</ns3:atemp>
          </ns3:TrackPointExtension>
        </extensions>
      </trkpt>
      <trkpt lat="43.137843869626522064208984375" lon="13.11230407096445560455322265625">
        <ele>625</ele>
        <time>2021-05-25T07:09:17.000Z</time>
        <extensions>
          <ns3:TrackPointExtension>
            <ns3:atemp>15.0</ns3:atemp>
          </ns3:TrackPointExtension>
        </extensions>
      </trkpt>
      <trkpt lat="43.13779885880649089813232421875" lon="13.11233156360685825347900390625">
        <ele>624</ele>
        <time>2021-05-25T07:09:18.000Z</time>
        <extensions>
          <ns3:TrackPointExtension>
            <ns3:atemp>15.0</ns3:atemp>
          </ns3:TrackPointExtension>
        </extensions>
      </trkpt>
      <trkpt lat="43.1377531774342060089111328125" lon="13.11234916560351848602294921875">
        <ele>623.20001220703125</ele>
        <time>2021-05-25T07:09:19.000Z</time>
        <extensions>
          <ns3:TrackPointExtension>
            <ns3:atemp>15.0</ns3:atemp>
          </ns3:TrackPointExtension>
        </extensions>
      </trkpt>
      <trkpt lat="43.1377105973660945892333984375" lon="13.11234916560351848602294921875">
        <ele>622.5999755859375</ele>
        <time>2021-05-25T07:09:20.000Z</time>
        <extensions>
          <ns3:TrackPointExtension>
            <ns3:atemp>15.0</ns3:atemp>
          </ns3:TrackPointExtension>
        </extensions>
      </trkpt>
      <trkpt lat="43.13763256184756755828857421875" lon="13.1123172305524349212646484375">
        <ele>621.79998779296875</ele>
        <time>2021-05-25T07:09:22.000Z</time>
        <extensions>
          <ns3:TrackPointExtension>
            <ns3:atemp>15.0</ns3:atemp>
          </ns3:TrackPointExtension>
        </extensions>
      </trkpt>
      <trkpt lat="43.13759945333003997802734375" lon="13.11228781007230281829833984375">
        <ele>621.4000244140625</ele>
        <time>2021-05-25T07:09:23.000Z</time>
        <extensions>
          <ns3:TrackPointExtension>
            <ns3:atemp>15.0</ns3:atemp>
          </ns3:TrackPointExtension>
        </extensions>
      </trkpt>
      <trkpt lat="43.13755209557712078094482421875" lon="13.11221237294375896453857421875">
        <ele>620.4000244140625</ele>
        <time>2021-05-25T07:09:25.000Z</time>
        <extensions>
          <ns3:TrackPointExtension>
            <ns3:atemp>15.0</ns3:atemp>
          </ns3:TrackPointExtension>
        </extensions>
      </trkpt>
      <trkpt lat="43.13752795569598674774169921875" lon="13.1121727265417575836181640625">
        <ele>619.79998779296875</ele>
        <time>2021-05-25T07:09:26.000Z</time>
        <extensions>
          <ns3:TrackPointExtension>
            <ns3:atemp>15.0</ns3:atemp>
          </ns3:TrackPointExtension>
        </extensions>
      </trkpt>
      <trkpt lat="43.137508593499660491943359375" lon="13.11213056556880474090576171875">
        <ele>618.4000244140625</ele>
        <time>2021-05-25T07:09:27.000Z</time>
        <extensions>
          <ns3:TrackPointExtension>
            <ns3:atemp>15.0</ns3:atemp>
          </ns3:TrackPointExtension>
        </extensions>
      </trkpt>
      <trkpt lat="43.137476742267608642578125" lon="13.11202235519886016845703125">
        <ele>617.79998779296875</ele>
        <time>2021-05-25T07:09:29.000Z</time>
        <extensions>
          <ns3:TrackPointExtension>
            <ns3:atemp>14.0</ns3:atemp>
          </ns3:TrackPointExtension>
        </extensions>
      </trkpt>
      <trkpt lat="43.1374645046889781951904296875" lon="13.11195353977382183074951171875">
        <ele>617.4000244140625</ele>
        <time>2021-05-25T07:09:30.000Z</time>
        <extensions>
          <ns3:TrackPointExtension>
            <ns3:atemp>14.0</ns3:atemp>
          </ns3:TrackPointExtension>
        </extensions>
      </trkpt>
      <trkpt lat="43.13743290491402149200439453125" lon="13.11180350370705127716064453125">
        <ele>616.20001220703125</ele>
        <time>2021-05-25T07:09:32.000Z</time>
        <extensions>
          <ns3:TrackPointExtension>
            <ns3:atemp>14.0</ns3:atemp>
          </ns3:TrackPointExtension>
        </extensions>
      </trkpt>
      <trkpt lat="43.13742234371602535247802734375" lon="13.11173276044428348541259765625">
        <ele>615.5999755859375</ele>
        <time>2021-05-25T07:09:33.000Z</time>
        <extensions>
          <ns3:TrackPointExtension>
            <ns3:atemp>14.0</ns3:atemp>
          </ns3:TrackPointExtension>
        </extensions>
      </trkpt>
      <trkpt lat="43.1374024786055088043212890625" lon="13.111601583659648895263671875">
        <ele>614.79998779296875</ele>
        <time>2021-05-25T07:09:35.000Z</time>
        <extensions>
          <ns3:TrackPointExtension>
            <ns3:atemp>14.0</ns3:atemp>
          </ns3:TrackPointExtension>
        </extensions>
      </trkpt>
      <trkpt lat="43.1373857147991657257080078125" lon="13.11154760420322418212890625">
        <ele>613.79998779296875</ele>
        <time>2021-05-25T07:09:36.000Z</time>
        <extensions>
          <ns3:TrackPointExtension>
            <ns3:atemp>14.0</ns3:atemp>
          </ns3:TrackPointExtension>
        </extensions>
      </trkpt>
      <trkpt lat="43.13736635260283946990966796875" lon="13.11150544323027133941650390625">
        <ele>612.5999755859375</ele>
        <time>2021-05-25T07:09:37.000Z</time>
        <extensions>
          <ns3:TrackPointExtension>
            <ns3:atemp>14.0</ns3:atemp>
          </ns3:TrackPointExtension>
        </extensions>
      </trkpt>
      <trkpt lat="43.137340955436229705810546875" lon="13.1114840693771839141845703125">
        <ele>611.20001220703125</ele>
        <time>2021-05-25T07:09:38.000Z</time>
        <extensions>
          <ns3:TrackPointExtension>
            <ns3:atemp>14.0</ns3:atemp>
          </ns3:TrackPointExtension>
        </extensions>
      </trkpt>
      <trkpt lat="43.13731103204190731048583984375" lon="13.11148515902459621429443359375">
        <ele>610.20001220703125</ele>
        <time>2021-05-25T07:09:39.000Z</time>
        <extensions>
          <ns3:TrackPointExtension>
            <ns3:atemp>14.0</ns3:atemp>
          </ns3:TrackPointExtension>
        </extensions>
      </trkpt>
      <trkpt lat="43.13728420995175838470458984375" lon="13.11150862835347652435302734375">
        <ele>609.79998779296875</ele>
        <time>2021-05-25T07:09:40.000Z</time>
        <extensions>
          <ns3:TrackPointExtension>
            <ns3:atemp>14.0</ns3:atemp>
          </ns3:TrackPointExtension>
        </extensions>
      </trkpt>
      <trkpt lat="43.137247748672962188720703125" lon="13.111604265868663787841796875">
        <ele>609.4000244140625</ele>
        <time>2021-05-25T07:09:42.000Z</time>
        <extensions>
          <ns3:TrackPointExtension>
            <ns3:atemp>14.0</ns3:atemp>
          </ns3:TrackPointExtension>
        </extensions>
      </trkpt>
      <trkpt lat="43.13722017221152782440185546875" lon="13.1117160804569721221923828125">
        <ele>608.79998779296875</ele>
        <time>2021-05-25T07:09:44.000Z</time>
        <extensions>
          <ns3:TrackPointExtension>
            <ns3:atemp>14.0</ns3:atemp>
          </ns3:TrackPointExtension>
        </extensions>
      </trkpt>
      <trkpt lat="43.13720785081386566162109375" lon="13.1117655336856842041015625">
        <ele>608.5999755859375</ele>
        <time>2021-05-25T07:09:45.000Z</time>
        <extensions>
          <ns3:TrackPointExtension>
            <ns3:atemp>14.0</ns3:atemp>
          </ns3:TrackPointExtension>
        </extensions>
      </trkpt>
      <trkpt lat="43.137178681790828704833984375" lon="13.11185874044895172119140625">
        <ele>608</ele>
        <time>2021-05-25T07:09:47.000Z</time>
        <extensions>
          <ns3:TrackPointExtension>
            <ns3:atemp>14.0</ns3:atemp>
          </ns3:TrackPointExtension>
        </extensions>
      </trkpt>
      <trkpt lat="43.13714976422488689422607421875" lon="13.11200902797281742095947265625">
        <ele>607.20001220703125</ele>
        <time>2021-05-25T07:09:50.000Z</time>
        <extensions>
          <ns3:TrackPointExtension>
            <ns3:atemp>14.0</ns3:atemp>
          </ns3:TrackPointExtension>
        </extensions>
      </trkpt>
      <trkpt lat="43.1371587328612804412841796875" lon="13.11205060221254825592041015625">
        <ele>606.4000244140625</ele>
        <time>2021-05-25T07:09:51.000Z</time>
        <extensions>
          <ns3:TrackPointExtension>
            <ns3:atemp>15.0</ns3:atemp>
          </ns3:TrackPointExtension>
        </extensions>
      </trkpt>
      <trkpt lat="43.13717340119183063507080078125" lon="13.1120939366519451141357421875">
        <ele>605.5999755859375</ele>
        <time>2021-05-25T07:09:52.000Z</time>
        <extensions>
          <ns3:TrackPointExtension>
            <ns3:atemp>15.0</ns3:atemp>
          </ns3:TrackPointExtension>
        </extensions>
      </trkpt>
      <trkpt lat="43.13720910809934139251708984375" lon="13.11217951588332653045654296875">
        <ele>604.4000244140625</ele>
        <time>2021-05-25T07:09:54.000Z</time>
        <extensions>
          <ns3:TrackPointExtension>
            <ns3:atemp>15.0</ns3:atemp>
          </ns3:TrackPointExtension>
        </extensions>
      </trkpt>
      <trkpt lat="43.13724950887262821197509765625" lon="13.1122679449617862701416015625">
        <ele>602.5999755859375</ele>
        <time>2021-05-25T07:09:56.000Z</time>
        <extensions>
          <ns3:TrackPointExtension>
            <ns3:atemp>15.0</ns3:atemp>
          </ns3:TrackPointExtension>
        </extensions>
      </trkpt>
      <trkpt lat="43.137316815555095672607421875" lon="13.11238311231136322021484375">
        <ele>601.4000244140625</ele>
        <time>2021-05-25T07:09:59.000Z</time>
        <extensions>
          <ns3:TrackPointExtension>
            <ns3:atemp>15.0</ns3:atemp>
          </ns3:TrackPointExtension>
        </extensions>
      </trkpt>
      <trkpt lat="43.13734523020684719085693359375" lon="13.112465254962444305419921875">
        <ele>600.20001220703125</ele>
        <time>2021-05-25T07:10:01.000Z</time>
        <extensions>
          <ns3:TrackPointExtension>
            <ns3:atemp>15.0</ns3:atemp>
          </ns3:TrackPointExtension>
        </extensions>
      </trkpt>
      <trkpt lat="43.13735947944223880767822265625" lon="13.1125539354979991912841796875">
        <ele>598.5999755859375</ele>
        <time>2021-05-25T07:10:03.000Z</time>
        <extensions>
          <ns3:TrackPointExtension>
            <ns3:atemp>15.0</ns3:atemp>
          </ns3:TrackPointExtension>
        </extensions>
      </trkpt>
      <trkpt lat="43.13736400566995143890380859375" lon="13.11265401542186737060546875">
        <ele>597</ele>
        <time>2021-05-25T07:10:05.000Z</time>
        <extensions>
          <ns3:TrackPointExtension>
            <ns3:atemp>15.0</ns3:atemp>
          </ns3:TrackPointExtension>
        </extensions>
      </trkpt>
      <trkpt lat="43.13737406395375728607177734375" lon="13.1127095036208629608154296875">
        <ele>596.4000244140625</ele>
        <time>2021-05-25T07:10:06.000Z</time>
        <extensions>
          <ns3:TrackPointExtension>
            <ns3:atemp>15.0</ns3:atemp>
          </ns3:TrackPointExtension>
        </extensions>
      </trkpt>
      <trkpt lat="43.13739635981619358062744140625" lon="13.1127705238759517669677734375">
        <ele>595.5999755859375</ele>
        <time>2021-05-25T07:10:07.000Z</time>
        <extensions>
          <ns3:TrackPointExtension>
            <ns3:atemp>15.0</ns3:atemp>
          </ns3:TrackPointExtension>
        </extensions>
      </trkpt>
      <trkpt lat="43.13744011335074901580810546875" lon="13.1129063107073307037353515625">
        <ele>594.20001220703125</ele>
        <time>2021-05-25T07:10:09.000Z</time>
        <extensions>
          <ns3:TrackPointExtension>
            <ns3:atemp>15.0</ns3:atemp>
          </ns3:TrackPointExtension>
        </extensions>
      </trkpt>
      <trkpt lat="43.13746073283255100250244140625" lon="13.11297428794205188751220703125">
        <ele>593.20001220703125</ele>
        <time>2021-05-25T07:10:10.000Z</time>
        <extensions>
          <ns3:TrackPointExtension>
            <ns3:atemp>15.0</ns3:atemp>
          </ns3:TrackPointExtension>
        </extensions>
      </trkpt>
      <trkpt lat="43.137478418648242950439453125" lon="13.11303564347326755523681640625">
        <ele>591.79998779296875</ele>
        <time>2021-05-25T07:10:11.000Z</time>
        <extensions>
          <ns3:TrackPointExtension>
            <ns3:atemp>15.0</ns3:atemp>
          </ns3:TrackPointExtension>
        </extensions>
      </trkpt>
      <trkpt lat="43.13749887049198150634765625" lon="13.11308761127293109893798828125">
        <ele>590.4000244140625</ele>
        <time>2021-05-25T07:10:12.000Z</time>
        <extensions>
          <ns3:TrackPointExtension>
            <ns3:atemp>15.0</ns3:atemp>
          </ns3:TrackPointExtension>
        </extensions>
      </trkpt>
      <trkpt lat="43.13751387409865856170654296875" lon="13.11313756741583347320556640625">
        <ele>589.20001220703125</ele>
        <time>2021-05-25T07:10:13.000Z</time>
        <extensions>
          <ns3:TrackPointExtension>
            <ns3:atemp>15.0</ns3:atemp>
          </ns3:TrackPointExtension>
        </extensions>
      </trkpt>
      <trkpt lat="43.13751907087862491607666015625" lon="13.113191127777099609375">
        <ele>587.79998779296875</ele>
        <time>2021-05-25T07:10:14.000Z</time>
        <extensions>
          <ns3:TrackPointExtension>
            <ns3:atemp>15.0</ns3:atemp>
          </ns3:TrackPointExtension>
        </extensions>
      </trkpt>
      <trkpt lat="43.13751756213605403900146484375" lon="13.11324435286223888397216796875">
        <ele>586.5999755859375</ele>
        <time>2021-05-25T07:10:15.000Z</time>
        <extensions>
          <ns3:TrackPointExtension>
            <ns3:atemp>15.0</ns3:atemp>
          </ns3:TrackPointExtension>
        </extensions>
      </trkpt>
      <trkpt lat="43.13750951550900936126708984375" lon="13.113299421966075897216796875">
        <ele>585.4000244140625</ele>
        <time>2021-05-25T07:10:16.000Z</time>
        <extensions>
          <ns3:TrackPointExtension>
            <ns3:atemp>15.0</ns3:atemp>
          </ns3:TrackPointExtension>
        </extensions>
      </trkpt>
      <trkpt lat="43.137492500245571136474609375" lon="13.113369829952716827392578125">
        <ele>584.4000244140625</ele>
        <time>2021-05-25T07:10:17.000Z</time>
        <extensions>
          <ns3:TrackPointExtension>
            <ns3:atemp>15.0</ns3:atemp>
          </ns3:TrackPointExtension>
        </extensions>
      </trkpt>
      <trkpt lat="43.13747783191502094268798828125" lon="13.11343722045421600341796875">
        <ele>583.20001220703125</ele>
        <time>2021-05-25T07:10:18.000Z</time>
        <extensions>
          <ns3:TrackPointExtension>
            <ns3:atemp>15.0</ns3:atemp>
          </ns3:TrackPointExtension>
        </extensions>
      </trkpt>
      <trkpt lat="43.137440867722034454345703125" lon="13.1135867536067962646484375">
        <ele>582</ele>
        <time>2021-05-25T07:10:20.000Z</time>
        <extensions>
          <ns3:TrackPointExtension>
            <ns3:atemp>15.0</ns3:atemp>
          </ns3:TrackPointExtension>
        </extensions>
      </trkpt>
      <trkpt lat="43.1374071724712848663330078125" lon="13.11372798867523670196533203125">
        <ele>580.5999755859375</ele>
        <time>2021-05-25T07:10:22.000Z</time>
        <extensions>
          <ns3:TrackPointExtension>
            <ns3:atemp>15.0</ns3:atemp>
          </ns3:TrackPointExtension>
        </extensions>
      </trkpt>
      <trkpt lat="43.1373880617320537567138671875" lon="13.1137961335480213165283203125">
        <ele>579.79998779296875</ele>
        <time>2021-05-25T07:10:23.000Z</time>
        <extensions>
          <ns3:TrackPointExtension>
            <ns3:atemp>15.0</ns3:atemp>
          </ns3:TrackPointExtension>
        </extensions>
      </trkpt>
      <trkpt lat="43.13737087883055210113525390625" lon="13.11386327259242534637451171875">
        <ele>578.79998779296875</ele>
        <time>2021-05-25T07:10:24.000Z</time>
        <extensions>
          <ns3:TrackPointExtension>
            <ns3:atemp>15.0</ns3:atemp>
          </ns3:TrackPointExtension>
        </extensions>
      </trkpt>
      <trkpt lat="43.13733198679983615875244140625" lon="13.1140170805156230926513671875">
        <ele>575.79998779296875</ele>
        <time>2021-05-25T07:10:26.000Z</time>
        <extensions>
          <ns3:TrackPointExtension>
            <ns3:atemp>15.0</ns3:atemp>
          </ns3:TrackPointExtension>
        </extensions>
      </trkpt>
      <trkpt lat="43.13731740228831768035888671875" lon="13.11408338136970996856689453125">
        <ele>574.79998779296875</ele>
        <time>2021-05-25T07:10:27.000Z</time>
        <extensions>
          <ns3:TrackPointExtension>
            <ns3:atemp>15.0</ns3:atemp>
          </ns3:TrackPointExtension>
        </extensions>
      </trkpt>
      <trkpt lat="43.13729904592037200927734375" lon="13.1141548790037631988525390625">
        <ele>573.79998779296875</ele>
        <time>2021-05-25T07:10:28.000Z</time>
        <extensions>
          <ns3:TrackPointExtension>
            <ns3:atemp>15.0</ns3:atemp>
          </ns3:TrackPointExtension>
        </extensions>
      </trkpt>
      <trkpt lat="43.137267529964447021484375" lon="13.11428748071193695068359375">
        <ele>572</ele>
        <time>2021-05-25T07:10:30.000Z</time>
        <extensions>
          <ns3:TrackPointExtension>
            <ns3:atemp>15.0</ns3:atemp>
          </ns3:TrackPointExtension>
        </extensions>
      </trkpt>
      <trkpt lat="43.1372412107884883880615234375" lon="13.1144106946885585784912109375">
        <ele>570.5999755859375</ele>
        <time>2021-05-25T07:10:32.000Z</time>
        <extensions>
          <ns3:TrackPointExtension>
            <ns3:atemp>15.0</ns3:atemp>
          </ns3:TrackPointExtension>
        </extensions>
      </trkpt>
      <trkpt lat="43.1372338347136974334716796875" lon="13.1144700385630130767822265625">
        <ele>569.5999755859375</ele>
        <time>2021-05-25T07:10:33.000Z</time>
        <extensions>
          <ns3:TrackPointExtension>
            <ns3:atemp>15.0</ns3:atemp>
          </ns3:TrackPointExtension>
        </extensions>
      </trkpt>
      <trkpt lat="43.13722637481987476348876953125" lon="13.11452745459973812103271484375">
        <ele>568.4000244140625</ele>
        <time>2021-05-25T07:10:34.000Z</time>
        <extensions>
          <ns3:TrackPointExtension>
            <ns3:atemp>15.0</ns3:atemp>
          </ns3:TrackPointExtension>
        </extensions>
      </trkpt>
      <trkpt lat="43.13721464015543460845947265625" lon="13.11458654701709747314453125">
        <ele>567</ele>
        <time>2021-05-25T07:10:35.000Z</time>
        <extensions>
          <ns3:TrackPointExtension>
            <ns3:atemp>15.0</ns3:atemp>
          </ns3:TrackPointExtension>
        </extensions>
      </trkpt>
      <trkpt lat="43.137200810015201568603515625" lon="13.11464765109121799468994140625">
        <ele>565.79998779296875</ele>
        <time>2021-05-25T07:10:36.000Z</time>
        <extensions>
          <ns3:TrackPointExtension>
            <ns3:atemp>15.0</ns3:atemp>
          </ns3:TrackPointExtension>
        </extensions>
      </trkpt>
      <trkpt lat="43.13718505203723907470703125" lon="13.114712275564670562744140625">
        <ele>564.79998779296875</ele>
        <time>2021-05-25T07:10:37.000Z</time>
        <extensions>
          <ns3:TrackPointExtension>
            <ns3:atemp>15.0</ns3:atemp>
          </ns3:TrackPointExtension>
        </extensions>
      </trkpt>
      <trkpt lat="43.13717164099216461181640625" lon="13.11477405019104480743408203125">
        <ele>563.5999755859375</ele>
        <time>2021-05-25T07:10:38.000Z</time>
        <extensions>
          <ns3:TrackPointExtension>
            <ns3:atemp>15.0</ns3:atemp>
          </ns3:TrackPointExtension>
        </extensions>
      </trkpt>
      <trkpt lat="43.13714691437780857086181640625" lon="13.1148804165422916412353515625">
        <ele>562</ele>
        <time>2021-05-25T07:10:40.000Z</time>
        <extensions>
          <ns3:TrackPointExtension>
            <ns3:atemp>15.0</ns3:atemp>
          </ns3:TrackPointExtension>
        </extensions>
      </trkpt>
      <trkpt lat="43.137129060924053192138671875" lon="13.1149511598050594329833984375">
        <ele>560.4000244140625</ele>
        <time>2021-05-25T07:10:42.000Z</time>
        <extensions>
          <ns3:TrackPointExtension>
            <ns3:atemp>15.0</ns3:atemp>
          </ns3:TrackPointExtension>
        </extensions>
      </trkpt>
      <trkpt lat="43.13711891882121562957763671875" lon="13.1149749644100666046142578125">
        <ele>558.5999755859375</ele>
        <time>2021-05-25T07:10:44.000Z</time>
        <extensions>
          <ns3:TrackPointExtension>
            <ns3:atemp>15.0</ns3:atemp>
          </ns3:TrackPointExtension>
        </extensions>
      </trkpt>
      <trkpt lat="43.13711799681186676025390625" lon="13.1149863637983798980712890625">
        <ele>557.4000244140625</ele>
        <time>2021-05-25T07:10:50.000Z</time>
        <extensions>
          <ns3:TrackPointExtension>
            <ns3:atemp>15.0</ns3:atemp>
          </ns3:TrackPointExtension>
        </extensions>
      </trkpt>
      <trkpt lat="43.13711958937346935272216796875" lon="13.11499021947383880615234375">
        <ele>557.20001220703125</ele>
        <time>2021-05-25T07:10:54.000Z</time>
        <extensions>
          <ns3:TrackPointExtension>
            <ns3:atemp>15.0</ns3:atemp>
          </ns3:TrackPointExtension>
        </extensions>
      </trkpt>
      <trkpt lat="43.13712461851537227630615234375" lon="13.11499197967350482940673828125">
        <ele>557.20001220703125</ele>
        <time>2021-05-25T07:11:01.000Z</time>
        <extensions>
          <ns3:TrackPointExtension>
            <ns3:atemp>15.0</ns3:atemp>
          </ns3:TrackPointExtension>
        </extensions>
      </trkpt>
      <trkpt lat="43.1371305696666240692138671875" lon="13.114991225302219390869140625">
        <ele>557.20001220703125</ele>
        <time>2021-05-25T07:11:14.000Z</time>
        <extensions>
          <ns3:TrackPointExtension>
            <ns3:atemp>15.0</ns3:atemp>
          </ns3:TrackPointExtension>
        </extensions>
      </trkpt>
      <trkpt lat="43.13713115639984607696533203125" lon="13.11500572599470615386962890625">
        <ele>557.5999755859375</ele>
        <time>2021-05-25T07:11:28.000Z</time>
        <extensions>
          <ns3:TrackPointExtension>
            <ns3:atemp>15.0</ns3:atemp>
          </ns3:TrackPointExtension>
        </extensions>
      </trkpt>
      <trkpt lat="43.13712864182889461517333984375" lon="13.11501310206949710845947265625">
        <ele>557.5999755859375</ele>
        <time>2021-05-25T07:11:42.000Z</time>
        <extensions>
          <ns3:TrackPointExtension>
            <ns3:atemp>15.0</ns3:atemp>
          </ns3:TrackPointExtension>
        </extensions>
      </trkpt>
      <trkpt lat="43.13711875118315219879150390625" lon="13.11501746065914630889892578125">
        <ele>557</ele>
        <time>2021-05-25T07:11:56.000Z</time>
        <extensions>
          <ns3:TrackPointExtension>
            <ns3:atemp>14.0</ns3:atemp>
          </ns3:TrackPointExtension>
        </extensions>
      </trkpt>
      <trkpt lat="43.1371148116886615753173828125" lon="13.11502517201006412506103515625">
        <ele>556.79998779296875</ele>
        <time>2021-05-25T07:12:07.000Z</time>
        <extensions>
          <ns3:TrackPointExtension>
            <ns3:atemp>14.0</ns3:atemp>
          </ns3:TrackPointExtension>
        </extensions>
      </trkpt>
      <trkpt lat="43.137111626565456390380859375" lon="13.115026094019412994384765625">
        <ele>557</ele>
        <time>2021-05-25T07:12:19.000Z</time>
        <extensions>
          <ns3:TrackPointExtension>
            <ns3:atemp>14.0</ns3:atemp>
          </ns3:TrackPointExtension>
        </extensions>
      </trkpt>
      <trkpt lat="43.137066364288330078125" lon="13.11512726359069347381591796875">
        <ele>557.4000244140625</ele>
        <time>2021-05-25T07:12:24.000Z</time>
        <extensions>
          <ns3:TrackPointExtension>
            <ns3:atemp>14.0</ns3:atemp>
          </ns3:TrackPointExtension>
        </extensions>
      </trkpt>
      <trkpt lat="43.136918507516384124755859375" lon="13.11538676731288433074951171875">
        <ele>557.20001220703125</ele>
        <time>2021-05-25T07:12:30.000Z</time>
        <extensions>
          <ns3:TrackPointExtension>
            <ns3:atemp>14.0</ns3:atemp>
          </ns3:TrackPointExtension>
        </extensions>
      </trkpt>
      <trkpt lat="43.13686410896480083465576171875" lon="13.115495480597019195556640625">
        <ele>556.5999755859375</ele>
        <time>2021-05-25T07:12:32.000Z</time>
        <extensions>
          <ns3:TrackPointExtension>
            <ns3:atemp>14.0</ns3:atemp>
          </ns3:TrackPointExtension>
        </extensions>
      </trkpt>
      <trkpt lat="43.1368075311183929443359375" lon="13.11561726965010166168212890625">
        <ele>555.5999755859375</ele>
        <time>2021-05-25T07:12:34.000Z</time>
        <extensions>
          <ns3:TrackPointExtension>
            <ns3:atemp>14.0</ns3:atemp>
          </ns3:TrackPointExtension>
        </extensions>
      </trkpt>
      <trkpt lat="43.13677324913442134857177734375" lon="13.11568181030452251434326171875">
        <ele>555.20001220703125</ele>
        <time>2021-05-25T07:12:35.000Z</time>
        <extensions>
          <ns3:TrackPointExtension>
            <ns3:atemp>14.0</ns3:atemp>
          </ns3:TrackPointExtension>
        </extensions>
      </trkpt>
      <trkpt lat="43.136732764542102813720703125" lon="13.115744255483150482177734375">
        <ele>554.4000244140625</ele>
        <time>2021-05-25T07:12:36.000Z</time>
        <extensions>
          <ns3:TrackPointExtension>
            <ns3:atemp>14.0</ns3:atemp>
          </ns3:TrackPointExtension>
        </extensions>
      </trkpt>
      <trkpt lat="43.13663042150437831878662109375" lon="13.11584508977830410003662109375">
        <ele>553.20001220703125</ele>
        <time>2021-05-25T07:12:38.000Z</time>
        <extensions>
          <ns3:TrackPointExtension>
            <ns3:atemp>14.0</ns3:atemp>
          </ns3:TrackPointExtension>
        </extensions>
      </trkpt>
      <trkpt lat="43.1365763582289218902587890625" lon="13.11588230542838573455810546875">
        <ele>552.5999755859375</ele>
        <time>2021-05-25T07:12:39.000Z</time>
        <extensions>
          <ns3:TrackPointExtension>
            <ns3:atemp>14.0</ns3:atemp>
          </ns3:TrackPointExtension>
        </extensions>
      </trkpt>
      <trkpt lat="43.1365232169628143310546875" lon="13.11591549776494503021240234375">
        <ele>552.20001220703125</ele>
        <time>2021-05-25T07:12:40.000Z</time>
        <extensions>
          <ns3:TrackPointExtension>
            <ns3:atemp>14.0</ns3:atemp>
          </ns3:TrackPointExtension>
        </extensions>
      </trkpt>
      <trkpt lat="43.13636069186031818389892578125" lon="13.1159962154924869537353515625">
        <ele>551.20001220703125</ele>
        <time>2021-05-25T07:12:43.000Z</time>
        <extensions>
          <ns3:TrackPointExtension>
            <ns3:atemp>14.0</ns3:atemp>
          </ns3:TrackPointExtension>
        </extensions>
      </trkpt>
      <trkpt lat="43.13625633716583251953125" lon="13.11604122631251811981201171875">
        <ele>549.79998779296875</ele>
        <time>2021-05-25T07:12:45.000Z</time>
        <extensions>
          <ns3:TrackPointExtension>
            <ns3:atemp>14.0</ns3:atemp>
          </ns3:TrackPointExtension>
        </extensions>
      </trkpt>
      <trkpt lat="43.1362055428326129913330078125" lon="13.11605966649949550628662109375">
        <ele>549.20001220703125</ele>
        <time>2021-05-25T07:12:46.000Z</time>
        <extensions>
          <ns3:TrackPointExtension>
            <ns3:atemp>14.0</ns3:atemp>
          </ns3:TrackPointExtension>
        </extensions>
      </trkpt>
      <trkpt lat="43.1361565925180912017822265625" lon="13.1160776875913143157958984375">
        <ele>548.79998779296875</ele>
        <time>2021-05-25T07:12:47.000Z</time>
        <extensions>
          <ns3:TrackPointExtension>
            <ns3:atemp>14.0</ns3:atemp>
          </ns3:TrackPointExtension>
        </extensions>
      </trkpt>
      <trkpt lat="43.13598501496016979217529296875" lon="13.116137199103832244873046875">
        <ele>547.79998779296875</ele>
        <time>2021-05-25T07:12:51.000Z</time>
        <extensions>
          <ns3:TrackPointExtension>
            <ns3:atemp>14.0</ns3:atemp>
          </ns3:TrackPointExtension>
        </extensions>
      </trkpt>
      <trkpt lat="43.13594662584364414215087890625" lon="13.1161504425108432769775390625">
        <ele>547.4000244140625</ele>
        <time>2021-05-25T07:12:52.000Z</time>
        <extensions>
          <ns3:TrackPointExtension>
            <ns3:atemp>14.0</ns3:atemp>
          </ns3:TrackPointExtension>
        </extensions>
      </trkpt>
      <trkpt lat="43.1359084881842136383056640625" lon="13.11616360209882259368896484375">
        <ele>546.79998779296875</ele>
        <time>2021-05-25T07:12:53.000Z</time>
        <extensions>
          <ns3:TrackPointExtension>
            <ns3:atemp>14.0</ns3:atemp>
          </ns3:TrackPointExtension>
        </extensions>
      </trkpt>
      <trkpt lat="43.13563766889274120330810546875" lon="13.11625756323337554931640625">
        <ele>545.79998779296875</ele>
        <time>2021-05-25T07:12:59.000Z</time>
        <extensions>
          <ns3:TrackPointExtension>
            <ns3:atemp>14.0</ns3:atemp>
          </ns3:TrackPointExtension>
        </extensions>
      </trkpt>
      <trkpt lat="43.1355899758636951446533203125" lon="13.1162755005061626434326171875">
        <ele>545.5999755859375</ele>
        <time>2021-05-25T07:13:00.000Z</time>
        <extensions>
          <ns3:TrackPointExtension>
            <ns3:atemp>14.0</ns3:atemp>
          </ns3:TrackPointExtension>
        </extensions>
      </trkpt>
      <trkpt lat="43.1352825276553630828857421875" lon="13.116397373378276824951171875">
        <ele>545.4000244140625</ele>
        <time>2021-05-25T07:13:06.000Z</time>
        <extensions>
          <ns3:TrackPointExtension>
            <ns3:atemp>14.0</ns3:atemp>
          </ns3:TrackPointExtension>
        </extensions>
      </trkpt>
      <trkpt lat="43.13493727706372737884521484375" lon="13.1165108643472194671630859375">
        <ele>545.5999755859375</ele>
        <time>2021-05-25T07:13:13.000Z</time>
        <extensions>
          <ns3:TrackPointExtension>
            <ns3:atemp>14.0</ns3:atemp>
          </ns3:TrackPointExtension>
        </extensions>
      </trkpt>
      <trkpt lat="43.13457115553319454193115234375" lon="13.11671798117458820343017578125">
        <ele>544.79998779296875</ele>
        <time>2021-05-25T07:13:21.000Z</time>
        <extensions>
          <ns3:TrackPointExtension>
            <ns3:atemp>14.0</ns3:atemp>
          </ns3:TrackPointExtension>
        </extensions>
      </trkpt>
      <trkpt lat="43.13452622853219509124755859375" lon="13.116742707788944244384765625">
        <ele>544.5999755859375</ele>
        <time>2021-05-25T07:13:22.000Z</time>
        <extensions>
          <ns3:TrackPointExtension>
            <ns3:atemp>14.0</ns3:atemp>
          </ns3:TrackPointExtension>
        </extensions>
      </trkpt>
      <trkpt lat="43.1342357955873012542724609375" lon="13.11688276939094066619873046875">
        <ele>543.79998779296875</ele>
        <time>2021-05-25T07:13:29.000Z</time>
        <extensions>
          <ns3:TrackPointExtension>
            <ns3:atemp>14.0</ns3:atemp>
          </ns3:TrackPointExtension>
        </extensions>
      </trkpt>
      <trkpt lat="43.13420419581234455108642578125" lon="13.11689366586506366729736328125">
        <ele>543.79998779296875</ele>
        <time>2021-05-25T07:13:30.000Z</time>
        <extensions>
          <ns3:TrackPointExtension>
            <ns3:atemp>14.0</ns3:atemp>
          </ns3:TrackPointExtension>
        </extensions>
      </trkpt>
      <trkpt lat="43.1341137550771236419677734375" lon="13.11690188013017177581787109375">
        <ele>543.5999755859375</ele>
        <time>2021-05-25T07:13:34.000Z</time>
        <extensions>
          <ns3:TrackPointExtension>
            <ns3:atemp>14.0</ns3:atemp>
          </ns3:TrackPointExtension>
        </extensions>
      </trkpt>
      <trkpt lat="43.13400722108781337738037109375" lon="13.1169207394123077392578125">
        <ele>545</ele>
        <time>2021-05-25T07:13:41.000Z</time>
        <extensions>
          <ns3:TrackPointExtension>
            <ns3:atemp>14.0</ns3:atemp>
          </ns3:TrackPointExtension>
        </extensions>
      </trkpt>
      <trkpt lat="43.13388937152922153472900390625" lon="13.11690037138760089874267578125">
        <ele>546</ele>
        <time>2021-05-25T07:13:47.000Z</time>
        <extensions>
          <ns3:TrackPointExtension>
            <ns3:atemp>14.0</ns3:atemp>
          </ns3:TrackPointExtension>
        </extensions>
      </trkpt>
      <trkpt lat="43.13391921110451221466064453125" lon="13.11694127507507801055908203125">
        <ele>546.4000244140625</ele>
        <time>2021-05-25T07:13:51.000Z</time>
        <extensions>
          <ns3:TrackPointExtension>
            <ns3:atemp>14.0</ns3:atemp>
          </ns3:TrackPointExtension>
        </extensions>
      </trkpt>
      <trkpt lat="43.1340617872774600982666015625" lon="13.1169033050537109375">
        <ele>546.79998779296875</ele>
        <time>2021-05-25T07:13:56.000Z</time>
        <extensions>
          <ns3:TrackPointExtension>
            <ns3:atemp>14.0</ns3:atemp>
          </ns3:TrackPointExtension>
        </extensions>
      </trkpt>
      <trkpt lat="43.13408785499632358551025390625" lon="13.1169017963111400604248046875">
        <ele>546.79998779296875</ele>
        <time>2021-05-25T07:13:57.000Z</time>
        <extensions>
          <ns3:TrackPointExtension>
            <ns3:atemp>14.0</ns3:atemp>
          </ns3:TrackPointExtension>
        </extensions>
      </trkpt>
      <trkpt lat="43.1341918744146823883056640625" lon="13.1168719567358493804931640625">
        <ele>547</ele>
        <time>2021-05-25T07:14:01.000Z</time>
        <extensions>
          <ns3:TrackPointExtension>
            <ns3:atemp>14.0</ns3:atemp>
          </ns3:TrackPointExtension>
        </extensions>
      </trkpt>
      <trkpt lat="43.1342069618403911590576171875" lon="13.11684488318860530853271484375">
        <ele>547</ele>
        <time>2021-05-25T07:14:02.000Z</time>
        <extensions>
          <ns3:TrackPointExtension>
            <ns3:atemp>14.0</ns3:atemp>
          </ns3:TrackPointExtension>
        </extensions>
      </trkpt>
      <trkpt lat="43.13418391160666942596435546875" lon="13.1167812645435333251953125">
        <ele>547</ele>
        <time>2021-05-25T07:14:05.000Z</time>
        <extensions>
          <ns3:TrackPointExtension>
            <ns3:atemp>15.0</ns3:atemp>
          </ns3:TrackPointExtension>
        </extensions>
      </trkpt>
      <trkpt lat="43.1341414153575897216796875" lon="13.11676257289946079254150390625">
        <ele>546.79998779296875</ele>
        <time>2021-05-25T07:14:07.000Z</time>
        <extensions>
          <ns3:TrackPointExtension>
            <ns3:atemp>15.0</ns3:atemp>
          </ns3:TrackPointExtension>
        </extensions>
      </trkpt>
      <trkpt lat="43.1340399943292140960693359375" lon="13.1167009659111499786376953125">
        <ele>546.4000244140625</ele>
        <time>2021-05-25T07:14:11.000Z</time>
        <extensions>
          <ns3:TrackPointExtension>
            <ns3:atemp>15.0</ns3:atemp>
          </ns3:TrackPointExtension>
        </extensions>
      </trkpt>
      <trkpt lat="43.1339873559772968292236328125" lon="13.11667841859161853790283203125">
        <ele>544.5999755859375</ele>
        <time>2021-05-25T07:14:13.000Z</time>
        <extensions>
          <ns3:TrackPointExtension>
            <ns3:atemp>15.0</ns3:atemp>
          </ns3:TrackPointExtension>
        </extensions>
      </trkpt>
      <trkpt lat="43.13393547199666500091552734375" lon="13.11665025539696216583251953125">
        <ele>543</ele>
        <time>2021-05-25T07:14:15.000Z</time>
        <extensions>
          <ns3:TrackPointExtension>
            <ns3:atemp>15.0</ns3:atemp>
          </ns3:TrackPointExtension>
        </extensions>
      </trkpt>
      <trkpt lat="43.1339089013636112213134765625" lon="13.11663047410547733306884765625">
        <ele>542.5999755859375</ele>
        <time>2021-05-25T07:14:16.000Z</time>
        <extensions>
          <ns3:TrackPointExtension>
            <ns3:atemp>15.0</ns3:atemp>
          </ns3:TrackPointExtension>
        </extensions>
      </trkpt>
      <trkpt lat="43.1338517367839813232421875" lon="13.11656978912651538848876953125">
        <ele>542</ele>
        <time>2021-05-25T07:14:19.000Z</time>
        <extensions>
          <ns3:TrackPointExtension>
            <ns3:atemp>15.0</ns3:atemp>
          </ns3:TrackPointExtension>
        </extensions>
      </trkpt>
      <trkpt lat="43.1338193826377391815185546875" lon="13.1165470741689205169677734375">
        <ele>541.20001220703125</ele>
        <time>2021-05-25T07:14:21.000Z</time>
        <extensions>
          <ns3:TrackPointExtension>
            <ns3:atemp>15.0</ns3:atemp>
          </ns3:TrackPointExtension>
        </extensions>
      </trkpt>
      <trkpt lat="43.13377923332154750823974609375" lon="13.11654045246541500091552734375">
        <ele>541</ele>
        <time>2021-05-25T07:14:23.000Z</time>
        <extensions>
          <ns3:TrackPointExtension>
            <ns3:atemp>15.0</ns3:atemp>
          </ns3:TrackPointExtension>
        </extensions>
      </trkpt>
      <trkpt lat="43.13375241123139858245849609375" lon="13.11654229648411273956298828125">
        <ele>540.5999755859375</ele>
        <time>2021-05-25T07:14:26.000Z</time>
        <extensions>
          <ns3:TrackPointExtension>
            <ns3:atemp>15.0</ns3:atemp>
          </ns3:TrackPointExtension>
        </extensions>
      </trkpt>
      <trkpt lat="43.13374646008014678955078125" lon="13.1165433861315250396728515625">
        <ele>539.79998779296875</ele>
        <time>2021-05-25T07:14:31.000Z</time>
        <extensions>
          <ns3:TrackPointExtension>
            <ns3:atemp>15.0</ns3:atemp>
          </ns3:TrackPointExtension>
        </extensions>
      </trkpt>
      <trkpt lat="43.13374067656695842742919921875" lon="13.11654279939830303192138671875">
        <ele>539.4000244140625</ele>
        <time>2021-05-25T07:14:36.000Z</time>
        <extensions>
          <ns3:TrackPointExtension>
            <ns3:atemp>15.0</ns3:atemp>
          </ns3:TrackPointExtension>
        </extensions>
      </trkpt>
      <trkpt lat="43.133746795356273651123046875" lon="13.1165618263185024261474609375">
        <ele>540</ele>
        <time>2021-05-25T07:14:46.000Z</time>
        <extensions>
          <ns3:TrackPointExtension>
            <ns3:atemp>15.0</ns3:atemp>
          </ns3:TrackPointExtension>
        </extensions>
      </trkpt>
      <trkpt lat="43.1337700970470905303955078125" lon="13.1165720522403717041015625">
        <ele>541</ele>
        <time>2021-05-25T07:14:51.000Z</time>
        <extensions>
          <ns3:TrackPointExtension>
            <ns3:atemp>15.0</ns3:atemp>
          </ns3:TrackPointExtension>
        </extensions>
      </trkpt>
      <trkpt lat="43.133779652416706085205078125" lon="13.1165722198784351348876953125">
        <ele>541.20001220703125</ele>
        <time>2021-05-25T07:14:52.000Z</time>
        <extensions>
          <ns3:TrackPointExtension>
            <ns3:atemp>15.0</ns3:atemp>
          </ns3:TrackPointExtension>
        </extensions>
      </trkpt>
      <trkpt lat="43.13376255333423614501953125" lon="13.116567023098468780517578125">
        <ele>542</ele>
        <time>2021-05-25T07:14:56.000Z</time>
        <extensions>
          <ns3:TrackPointExtension>
            <ns3:atemp>15.0</ns3:atemp>
          </ns3:TrackPointExtension>
        </extensions>
      </trkpt>
      <trkpt lat="43.1337449513375759124755859375" lon="13.11655931174755096435546875">
        <ele>542</ele>
        <time>2021-05-25T07:15:02.000Z</time>
        <extensions>
          <ns3:TrackPointExtension>
            <ns3:atemp>15.0</ns3:atemp>
          </ns3:TrackPointExtension>
        </extensions>
      </trkpt>
      <trkpt lat="43.13374151475727558135986328125" lon="13.116571046411991119384765625">
        <ele>542</ele>
        <time>2021-05-25T07:15:08.000Z</time>
        <extensions>
          <ns3:TrackPointExtension>
            <ns3:atemp>15.0</ns3:atemp>
          </ns3:TrackPointExtension>
        </extensions>
      </trkpt>
      <trkpt lat="43.13374578952789306640625" lon="13.11657833866775035858154296875">
        <ele>540.79998779296875</ele>
        <time>2021-05-25T07:15:18.000Z</time>
        <extensions>
          <ns3:TrackPointExtension>
            <ns3:atemp>15.0</ns3:atemp>
          </ns3:TrackPointExtension>
        </extensions>
      </trkpt>
      <trkpt lat="43.13375324942171573638916015625" lon="13.1165873073041439056396484375">
        <ele>540.5999755859375</ele>
        <time>2021-05-25T07:15:25.000Z</time>
        <extensions>
          <ns3:TrackPointExtension>
            <ns3:atemp>15.0</ns3:atemp>
          </ns3:TrackPointExtension>
        </extensions>
      </trkpt>
      <trkpt lat="43.1337526626884937286376953125" lon="13.11658286489546298980712890625">
        <ele>540.20001220703125</ele>
        <time>2021-05-25T07:15:31.000Z</time>
        <extensions>
          <ns3:TrackPointExtension>
            <ns3:atemp>15.0</ns3:atemp>
          </ns3:TrackPointExtension>
        </extensions>
      </trkpt>
      <trkpt lat="43.13375291414558887481689453125" lon="13.11658269725739955902099609375">
        <ele>540.20001220703125</ele>
        <time>2021-05-25T07:15:36.000Z</time>
        <extensions>
          <ns3:TrackPointExtension>
            <ns3:atemp>15.0</ns3:atemp>
          </ns3:TrackPointExtension>
        </extensions>
      </trkpt>
      <trkpt lat="43.13375174067914485931396484375" lon="13.1165826134383678436279296875">
        <ele>540.4000244140625</ele>
        <time>2021-05-25T07:15:55.000Z</time>
        <extensions>
          <ns3:TrackPointExtension>
            <ns3:atemp>15.0</ns3:atemp>
          </ns3:TrackPointExtension>
        </extensions>
      </trkpt>
      <trkpt lat="43.13375140540301799774169921875" lon="13.11658152379095554351806640625">
        <ele>539.20001220703125</ele>
        <time>2021-05-25T07:16:04.000Z</time>
        <extensions>
          <ns3:TrackPointExtension>
            <ns3:atemp>15.0</ns3:atemp>
          </ns3:TrackPointExtension>
        </extensions>
      </trkpt>
      <trkpt lat="43.13375190831720829010009765625" lon="13.11658202670514583587646484375">
        <ele>539</ele>
        <time>2021-05-25T07:16:12.000Z</time>
        <extensions>
          <ns3:TrackPointExtension>
            <ns3:atemp>15.0</ns3:atemp>
          </ns3:TrackPointExtension>
        </extensions>
      </trkpt>
      <trkpt lat="43.1337516568601131439208984375" lon="13.11658219434320926666259765625">
        <ele>540.4000244140625</ele>
        <time>2021-05-25T07:16:22.000Z</time>
        <extensions>
          <ns3:TrackPointExtension>
            <ns3:atemp>15.0</ns3:atemp>
          </ns3:TrackPointExtension>
        </extensions>
      </trkpt>
      <trkpt lat="43.13375090248882770538330078125" lon="13.11658252961933612823486328125">
        <ele>541.20001220703125</ele>
        <time>2021-05-25T07:16:30.000Z</time>
        <extensions>
          <ns3:TrackPointExtension>
            <ns3:atemp>15.0</ns3:atemp>
          </ns3:TrackPointExtension>
        </extensions>
      </trkpt>
      <trkpt lat="43.1337506510317325592041015625" lon="13.11658269725739955902099609375">
        <ele>541.4000244140625</ele>
        <time>2021-05-25T07:16:32.000Z</time>
        <extensions>
          <ns3:TrackPointExtension>
            <ns3:atemp>15.0</ns3:atemp>
          </ns3:TrackPointExtension>
        </extensions>
      </trkpt>
      <trkpt lat="43.133749477565288543701171875" lon="13.11658219434320926666259765625">
        <ele>540.79998779296875</ele>
        <time>2021-05-25T07:16:50.000Z</time>
        <extensions>
          <ns3:TrackPointExtension>
            <ns3:atemp>15.0</ns3:atemp>
          </ns3:TrackPointExtension>
        </extensions>
      </trkpt>
      <trkpt lat="43.1337483040988445281982421875" lon="13.11657699756324291229248046875">
        <ele>540.4000244140625</ele>
        <time>2021-05-25T07:16:58.000Z</time>
        <extensions>
          <ns3:TrackPointExtension>
            <ns3:atemp>15.0</ns3:atemp>
          </ns3:TrackPointExtension>
        </extensions>
      </trkpt>
      <trkpt lat="43.1337503157556056976318359375" lon="13.11658202670514583587646484375">
        <ele>540.4000244140625</ele>
        <time>2021-05-25T07:16:59.000Z</time>
        <extensions>
          <ns3:TrackPointExtension>
            <ns3:atemp>15.0</ns3:atemp>
          </ns3:TrackPointExtension>
        </extensions>
      </trkpt>
      <trkpt lat="43.13376364298164844512939453125" lon="13.1165789254009723663330078125">
        <ele>540.20001220703125</ele>
        <time>2021-05-25T07:17:02.000Z</time>
        <extensions>
          <ns3:TrackPointExtension>
            <ns3:atemp>15.0</ns3:atemp>
          </ns3:TrackPointExtension>
        </extensions>
      </trkpt>
      <trkpt lat="43.13380856998264789581298828125" lon="13.11656459234654903411865234375">
        <ele>540</ele>
        <time>2021-05-25T07:17:04.000Z</time>
        <extensions>
          <ns3:TrackPointExtension>
            <ns3:atemp>15.0</ns3:atemp>
          </ns3:TrackPointExtension>
        </extensions>
      </trkpt>
      <trkpt lat="43.13395164906978607177734375" lon="13.1166010536253452301025390625">
        <ele>540.20001220703125</ele>
        <time>2021-05-25T07:17:09.000Z</time>
        <extensions>
          <ns3:TrackPointExtension>
            <ns3:atemp>15.0</ns3:atemp>
          </ns3:TrackPointExtension>
        </extensions>
      </trkpt>
      <trkpt lat="43.1340842507779598236083984375" lon="13.116715215146541595458984375">
        <ele>540.5999755859375</ele>
        <time>2021-05-25T07:17:15.000Z</time>
        <extensions>
          <ns3:TrackPointExtension>
            <ns3:atemp>15.0</ns3:atemp>
          </ns3:TrackPointExtension>
        </extensions>
      </trkpt>
      <trkpt lat="43.13418022356927394866943359375" lon="13.11682309024035930633544921875">
        <ele>542.4000244140625</ele>
        <time>2021-05-25T07:17:20.000Z</time>
        <extensions>
          <ns3:TrackPointExtension>
            <ns3:atemp>15.0</ns3:atemp>
          </ns3:TrackPointExtension>
        </extensions>
      </trkpt>
      <trkpt lat="43.1341898627579212188720703125" lon="13.1168483197689056396484375">
        <ele>542.79998779296875</ele>
        <time>2021-05-25T07:17:21.000Z</time>
        <extensions>
          <ns3:TrackPointExtension>
            <ns3:atemp>15.0</ns3:atemp>
          </ns3:TrackPointExtension>
        </extensions>
      </trkpt>
      <trkpt lat="43.13417159020900726318359375" lon="13.1168877147138118743896484375">
        <ele>543.4000244140625</ele>
        <time>2021-05-25T07:17:23.000Z</time>
        <extensions>
          <ns3:TrackPointExtension>
            <ns3:atemp>15.0</ns3:atemp>
          </ns3:TrackPointExtension>
        </extensions>
      </trkpt>
      <trkpt lat="43.134147785604000091552734375" lon="13.1169021315872669219970703125">
        <ele>543.79998779296875</ele>
        <time>2021-05-25T07:17:24.000Z</time>
        <extensions>
          <ns3:TrackPointExtension>
            <ns3:atemp>15.0</ns3:atemp>
          </ns3:TrackPointExtension>
        </extensions>
      </trkpt>
      <trkpt lat="43.1341199576854705810546875" lon="13.11691529117524623870849609375">
        <ele>543.79998779296875</ele>
        <time>2021-05-25T07:17:25.000Z</time>
        <extensions>
          <ns3:TrackPointExtension>
            <ns3:atemp>15.0</ns3:atemp>
          </ns3:TrackPointExtension>
        </extensions>
      </trkpt>
      <trkpt lat="43.13402297906577587127685546875" lon="13.11693674884736537933349609375">
        <ele>544.5999755859375</ele>
        <time>2021-05-25T07:17:28.000Z</time>
        <extensions>
          <ns3:TrackPointExtension>
            <ns3:atemp>16.0</ns3:atemp>
          </ns3:TrackPointExtension>
        </extensions>
      </trkpt>
      <trkpt lat="43.13395542092621326446533203125" lon="13.1169319711625576019287109375">
        <ele>545.4000244140625</ele>
        <time>2021-05-25T07:17:30.000Z</time>
        <extensions>
          <ns3:TrackPointExtension>
            <ns3:atemp>16.0</ns3:atemp>
          </ns3:TrackPointExtension>
        </extensions>
      </trkpt>
      <trkpt lat="43.133925497531890869140625" lon="13.11692920513451099395751953125">
        <ele>545.5999755859375</ele>
        <time>2021-05-25T07:17:31.000Z</time>
        <extensions>
          <ns3:TrackPointExtension>
            <ns3:atemp>16.0</ns3:atemp>
          </ns3:TrackPointExtension>
        </extensions>
      </trkpt>
      <trkpt lat="43.13379608094692230224609375" lon="13.116957284510135650634765625">
        <ele>546.4000244140625</ele>
        <time>2021-05-25T07:17:35.000Z</time>
        <extensions>
          <ns3:TrackPointExtension>
            <ns3:atemp>16.0</ns3:atemp>
          </ns3:TrackPointExtension>
        </extensions>
      </trkpt>
      <trkpt lat="43.1336336396634578704833984375" lon="13.11700665391981601715087890625">
        <ele>546.79998779296875</ele>
        <time>2021-05-25T07:17:40.000Z</time>
        <extensions>
          <ns3:TrackPointExtension>
            <ns3:atemp>16.0</ns3:atemp>
          </ns3:TrackPointExtension>
        </extensions>
      </trkpt>
      <trkpt lat="43.133608996868133544921875" lon="13.11701151542365550994873046875">
        <ele>546.79998779296875</ele>
        <time>2021-05-25T07:17:41.000Z</time>
        <extensions>
          <ns3:TrackPointExtension>
            <ns3:atemp>16.0</ns3:atemp>
          </ns3:TrackPointExtension>
        </extensions>
      </trkpt>
      <trkpt lat="43.13347823917865753173828125" lon="13.1170208193361759185791015625">
        <ele>547.4000244140625</ele>
        <time>2021-05-25T07:17:47.000Z</time>
        <extensions>
          <ns3:TrackPointExtension>
            <ns3:atemp>16.0</ns3:atemp>
          </ns3:TrackPointExtension>
        </extensions>
      </trkpt>
      <trkpt lat="43.13331521116197109222412109375" lon="13.1170633994042873382568359375">
        <ele>547.5999755859375</ele>
        <time>2021-05-25T07:17:53.000Z</time>
        <extensions>
          <ns3:TrackPointExtension>
            <ns3:atemp>16.0</ns3:atemp>
          </ns3:TrackPointExtension>
        </extensions>
      </trkpt>
      <trkpt lat="43.1331582181155681610107421875" lon="13.1170060671865940093994140625">
        <ele>547.5999755859375</ele>
        <time>2021-05-25T07:17:58.000Z</time>
        <extensions>
          <ns3:TrackPointExtension>
            <ns3:atemp>16.0</ns3:atemp>
          </ns3:TrackPointExtension>
        </extensions>
      </trkpt>
      <trkpt lat="43.13291229307651519775390625" lon="13.11687220819294452667236328125">
        <ele>547.5999755859375</ele>
        <time>2021-05-25T07:18:05.000Z</time>
        <extensions>
          <ns3:TrackPointExtension>
            <ns3:atemp>16.0</ns3:atemp>
          </ns3:TrackPointExtension>
        </extensions>
      </trkpt>
      <trkpt lat="43.1326848082244396209716796875" lon="13.1168327294290065765380859375">
        <ele>546.79998779296875</ele>
        <time>2021-05-25T07:18:11.000Z</time>
        <extensions>
          <ns3:TrackPointExtension>
            <ns3:atemp>16.0</ns3:atemp>
          </ns3:TrackPointExtension>
        </extensions>
      </trkpt>
      <trkpt lat="43.1326103769242763519287109375" lon="13.1168555282056331634521484375">
        <ele>544.4000244140625</ele>
        <time>2021-05-25T07:18:13.000Z</time>
        <extensions>
          <ns3:TrackPointExtension>
            <ns3:atemp>16.0</ns3:atemp>
          </ns3:TrackPointExtension>
        </extensions>
      </trkpt>
      <trkpt lat="43.1325758434832096099853515625" lon="13.11686751432716846466064453125">
        <ele>543.20001220703125</ele>
        <time>2021-05-25T07:18:14.000Z</time>
        <extensions>
          <ns3:TrackPointExtension>
            <ns3:atemp>16.0</ns3:atemp>
          </ns3:TrackPointExtension>
        </extensions>
      </trkpt>
      <trkpt lat="43.132541477680206298828125" lon="13.11687648296356201171875">
        <ele>541.79998779296875</ele>
        <time>2021-05-25T07:18:15.000Z</time>
        <extensions>
          <ns3:TrackPointExtension>
            <ns3:atemp>16.0</ns3:atemp>
          </ns3:TrackPointExtension>
        </extensions>
      </trkpt>
      <trkpt lat="43.1325040943920612335205078125" lon="13.11688385903835296630859375">
        <ele>540.79998779296875</ele>
        <time>2021-05-25T07:18:16.000Z</time>
        <extensions>
          <ns3:TrackPointExtension>
            <ns3:atemp>16.0</ns3:atemp>
          </ns3:TrackPointExtension>
        </extensions>
      </trkpt>
      <trkpt lat="43.1324662081897258758544921875" lon="13.11689299531280994415283203125">
        <ele>540.20001220703125</ele>
        <time>2021-05-25T07:18:17.000Z</time>
        <extensions>
          <ns3:TrackPointExtension>
            <ns3:atemp>16.0</ns3:atemp>
          </ns3:TrackPointExtension>
        </extensions>
      </trkpt>
      <trkpt lat="43.13242815434932708740234375" lon="13.11689919792115688323974609375">
        <ele>539.5999755859375</ele>
        <time>2021-05-25T07:18:18.000Z</time>
        <extensions>
          <ns3:TrackPointExtension>
            <ns3:atemp>16.0</ns3:atemp>
          </ns3:TrackPointExtension>
        </extensions>
      </trkpt>
      <trkpt lat="43.13230502419173717498779296875" lon="13.1169073283672332763671875">
        <ele>538.4000244140625</ele>
        <time>2021-05-25T07:18:21.000Z</time>
        <extensions>
          <ns3:TrackPointExtension>
            <ns3:atemp>16.0</ns3:atemp>
          </ns3:TrackPointExtension>
        </extensions>
      </trkpt>
      <trkpt lat="43.13226713798940181732177734375" lon="13.116914369165897369384765625">
        <ele>538.20001220703125</ele>
        <time>2021-05-25T07:18:22.000Z</time>
        <extensions>
          <ns3:TrackPointExtension>
            <ns3:atemp>16.0</ns3:atemp>
          </ns3:TrackPointExtension>
        </extensions>
      </trkpt>
      <trkpt lat="43.13219907693564891815185546875" lon="13.1169292889535427093505859375">
        <ele>537.4000244140625</ele>
        <time>2021-05-25T07:18:24.000Z</time>
        <extensions>
          <ns3:TrackPointExtension>
            <ns3:atemp>16.0</ns3:atemp>
          </ns3:TrackPointExtension>
        </extensions>
      </trkpt>
      <trkpt lat="43.1321191973984241485595703125" lon="13.116967678070068359375">
        <ele>536.20001220703125</ele>
        <time>2021-05-25T07:18:27.000Z</time>
        <extensions>
          <ns3:TrackPointExtension>
            <ns3:atemp>16.0</ns3:atemp>
          </ns3:TrackPointExtension>
        </extensions>
      </trkpt>
      <trkpt lat="43.132046274840831756591796875" lon="13.11702358536422252655029296875">
        <ele>534.79998779296875</ele>
        <time>2021-05-25T07:18:30.000Z</time>
        <extensions>
          <ns3:TrackPointExtension>
            <ns3:atemp>16.0</ns3:atemp>
          </ns3:TrackPointExtension>
        </extensions>
      </trkpt>
      <trkpt lat="43.13195600174367427825927734375" lon="13.117072284221649169921875">
        <ele>533.79998779296875</ele>
        <time>2021-05-25T07:18:33.000Z</time>
        <extensions>
          <ns3:TrackPointExtension>
            <ns3:atemp>16.0</ns3:atemp>
          </ns3:TrackPointExtension>
        </extensions>
      </trkpt>
      <trkpt lat="43.131924234330654144287109375" lon="13.11708913184702396392822265625">
        <ele>533.5999755859375</ele>
        <time>2021-05-25T07:18:34.000Z</time>
        <extensions>
          <ns3:TrackPointExtension>
            <ns3:atemp>16.0</ns3:atemp>
          </ns3:TrackPointExtension>
        </extensions>
      </trkpt>
      <trkpt lat="43.131830357015132904052734375" lon="13.11715350486338138580322265625">
        <ele>532.20001220703125</ele>
        <time>2021-05-25T07:18:37.000Z</time>
        <extensions>
          <ns3:TrackPointExtension>
            <ns3:atemp>16.0</ns3:atemp>
          </ns3:TrackPointExtension>
        </extensions>
      </trkpt>
      <trkpt lat="43.131770677864551544189453125" lon="13.11720496974885463714599609375">
        <ele>530.5999755859375</ele>
        <time>2021-05-25T07:18:39.000Z</time>
        <extensions>
          <ns3:TrackPointExtension>
            <ns3:atemp>16.0</ns3:atemp>
          </ns3:TrackPointExtension>
        </extensions>
      </trkpt>
      <trkpt lat="43.13174544833600521087646484375" lon="13.1172233261168003082275390625">
        <ele>529.79998779296875</ele>
        <time>2021-05-25T07:18:40.000Z</time>
        <extensions>
          <ns3:TrackPointExtension>
            <ns3:atemp>16.0</ns3:atemp>
          </ns3:TrackPointExtension>
        </extensions>
      </trkpt>
      <trkpt lat="43.131729774177074432373046875" lon="13.11723648570477962493896484375">
        <ele>529.20001220703125</ele>
        <time>2021-05-25T07:18:41.000Z</time>
        <extensions>
          <ns3:TrackPointExtension>
            <ns3:atemp>16.0</ns3:atemp>
          </ns3:TrackPointExtension>
        </extensions>
      </trkpt>
      <trkpt lat="43.131721056997776031494140625" lon="13.11724805273115634918212890625">
        <ele>528</ele>
        <time>2021-05-25T07:18:43.000Z</time>
        <extensions>
          <ns3:TrackPointExtension>
            <ns3:atemp>16.0</ns3:atemp>
          </ns3:TrackPointExtension>
        </extensions>
      </trkpt>
      <trkpt lat="43.1317242421209812164306640625" lon="13.11723983846604824066162109375">
        <ele>527</ele>
        <time>2021-05-25T07:18:46.000Z</time>
        <extensions>
          <ns3:TrackPointExtension>
            <ns3:atemp>16.0</ns3:atemp>
          </ns3:TrackPointExtension>
        </extensions>
      </trkpt>
      <trkpt lat="43.13172667287290096282958984375" lon="13.11723832972347736358642578125">
        <ele>525.5999755859375</ele>
        <time>2021-05-25T07:18:48.000Z</time>
        <extensions>
          <ns3:TrackPointExtension>
            <ns3:atemp>16.0</ns3:atemp>
          </ns3:TrackPointExtension>
        </extensions>
      </trkpt>
      <trkpt lat="43.13172700814902782440185546875" lon="13.1172384135425090789794921875">
        <ele>525.20001220703125</ele>
        <time>2021-05-25T07:18:53.000Z</time>
        <extensions>
          <ns3:TrackPointExtension>
            <ns3:atemp>16.0</ns3:atemp>
          </ns3:TrackPointExtension>
        </extensions>
      </trkpt>
      <trkpt lat="43.13172734342515468597412109375" lon="13.1172384135425090789794921875">
        <ele>524.5999755859375</ele>
        <time>2021-05-25T07:18:59.000Z</time>
        <extensions>
          <ns3:TrackPointExtension>
            <ns3:atemp>16.0</ns3:atemp>
          </ns3:TrackPointExtension>
        </extensions>
      </trkpt>
      <trkpt lat="43.1317265890538692474365234375" lon="13.11723782680928707122802734375">
        <ele>523.79998779296875</ele>
        <time>2021-05-25T07:19:11.000Z</time>
        <extensions>
          <ns3:TrackPointExtension>
            <ns3:atemp>16.0</ns3:atemp>
          </ns3:TrackPointExtension>
        </extensions>
      </trkpt>
      <trkpt lat="43.13172667287290096282958984375" lon="13.11723782680928707122802734375">
        <ele>523.79998779296875</ele>
        <time>2021-05-25T07:19:16.000Z</time>
        <extensions>
          <ns3:TrackPointExtension>
            <ns3:atemp>16.0</ns3:atemp>
          </ns3:TrackPointExtension>
        </extensions>
      </trkpt>
      <trkpt lat="43.1317265890538692474365234375" lon="13.117237575352191925048828125">
        <ele>523.4000244140625</ele>
        <time>2021-05-25T07:19:25.000Z</time>
        <extensions>
          <ns3:TrackPointExtension>
            <ns3:atemp>16.0</ns3:atemp>
          </ns3:TrackPointExtension>
        </extensions>
      </trkpt>
      <trkpt lat="43.1317084841430187225341796875" lon="13.11724486760795116424560546875">
        <ele>522.4000244140625</ele>
        <time>2021-05-25T07:19:35.000Z</time>
        <extensions>
          <ns3:TrackPointExtension>
            <ns3:atemp>16.0</ns3:atemp>
          </ns3:TrackPointExtension>
        </extensions>
      </trkpt>
      <trkpt lat="43.13170052133500576019287109375" lon="13.117254674434661865234375">
        <ele>522.5999755859375</ele>
        <time>2021-05-25T07:19:42.000Z</time>
        <extensions>
          <ns3:TrackPointExtension>
            <ns3:atemp>16.0</ns3:atemp>
          </ns3:TrackPointExtension>
        </extensions>
      </trkpt>
      <trkpt lat="43.13169716857373714447021484375" lon="13.11724620871245861053466796875">
        <ele>523.4000244140625</ele>
        <time>2021-05-25T07:19:50.000Z</time>
        <extensions>
          <ns3:TrackPointExtension>
            <ns3:atemp>16.0</ns3:atemp>
          </ns3:TrackPointExtension>
        </extensions>
      </trkpt>
      <trkpt lat="43.1316957436501979827880859375" lon="13.1172397546470165252685546875">
        <ele>523.5999755859375</ele>
        <time>2021-05-25T07:19:53.000Z</time>
        <extensions>
          <ns3:TrackPointExtension>
            <ns3:atemp>16.0</ns3:atemp>
          </ns3:TrackPointExtension>
        </extensions>
      </trkpt>
      <trkpt lat="43.13163279555737972259521484375" lon="13.11728560365736484527587890625">
        <ele>524</ele>
        <time>2021-05-25T07:20:02.000Z</time>
        <extensions>
          <ns3:TrackPointExtension>
            <ns3:atemp>16.0</ns3:atemp>
          </ns3:TrackPointExtension>
        </extensions>
      </trkpt>
      <trkpt lat="43.13163430429995059967041015625" lon="13.1172840110957622528076171875">
        <ele>524.5999755859375</ele>
        <time>2021-05-25T07:20:05.000Z</time>
        <extensions>
          <ns3:TrackPointExtension>
            <ns3:atemp>16.0</ns3:atemp>
          </ns3:TrackPointExtension>
        </extensions>
      </trkpt>
      <trkpt lat="43.131641261279582977294921875" lon="13.11728241853415966033935546875">
        <ele>525</ele>
        <time>2021-05-25T07:20:10.000Z</time>
        <extensions>
          <ns3:TrackPointExtension>
            <ns3:atemp>16.0</ns3:atemp>
          </ns3:TrackPointExtension>
        </extensions>
      </trkpt>
      <trkpt lat="43.13164872117340564727783203125" lon="13.1173182092607021331787109375">
        <ele>525.20001220703125</ele>
        <time>2021-05-25T07:20:17.000Z</time>
        <extensions>
          <ns3:TrackPointExtension>
            <ns3:atemp>16.0</ns3:atemp>
          </ns3:TrackPointExtension>
        </extensions>
      </trkpt>
      <trkpt lat="43.1316182948648929595947265625" lon="13.11736104078590869903564453125">
        <ele>525.20001220703125</ele>
        <time>2021-05-25T07:20:23.000Z</time>
        <extensions>
          <ns3:TrackPointExtension>
            <ns3:atemp>16.0</ns3:atemp>
          </ns3:TrackPointExtension>
        </extensions>
      </trkpt>
      <trkpt lat="43.1315904669463634490966796875" lon="13.11741770245134830474853515625">
        <ele>525.4000244140625</ele>
        <time>2021-05-25T07:20:29.000Z</time>
        <extensions>
          <ns3:TrackPointExtension>
            <ns3:atemp>16.0</ns3:atemp>
          </ns3:TrackPointExtension>
        </extensions>
      </trkpt>
      <trkpt lat="43.13158585689961910247802734375" lon="13.1174258328974246978759765625">
        <ele>525.79998779296875</ele>
        <time>2021-05-25T07:20:30.000Z</time>
        <extensions>
          <ns3:TrackPointExtension>
            <ns3:atemp>16.0</ns3:atemp>
          </ns3:TrackPointExtension>
        </extensions>
      </trkpt>
      <trkpt lat="43.13157965429127216339111328125" lon="13.11744184233248233795166015625">
        <ele>526</ele>
        <time>2021-05-25T07:20:32.000Z</time>
        <extensions>
          <ns3:TrackPointExtension>
            <ns3:atemp>16.0</ns3:atemp>
          </ns3:TrackPointExtension>
        </extensions>
      </trkpt>
      <trkpt lat="43.13157412223517894744873046875" lon="13.11746883206069469451904296875">
        <ele>526.4000244140625</ele>
        <time>2021-05-25T07:20:38.000Z</time>
        <extensions>
          <ns3:TrackPointExtension>
            <ns3:atemp>16.0</ns3:atemp>
          </ns3:TrackPointExtension>
        </extensions>
      </trkpt>
      <trkpt lat="43.1315663270652294158935546875" lon="13.11747486703097820281982421875">
        <ele>526.79998779296875</ele>
        <time>2021-05-25T07:20:40.000Z</time>
        <extensions>
          <ns3:TrackPointExtension>
            <ns3:atemp>16.0</ns3:atemp>
          </ns3:TrackPointExtension>
        </extensions>
      </trkpt>
      <trkpt lat="43.13154193572700023651123046875" lon="13.11753940768539905548095703125">
        <ele>527.79998779296875</ele>
        <time>2021-05-25T07:20:47.000Z</time>
        <extensions>
          <ns3:TrackPointExtension>
            <ns3:atemp>16.0</ns3:atemp>
          </ns3:TrackPointExtension>
        </extensions>
      </trkpt>
      <trkpt lat="43.13153942115604877471923828125" lon="13.1175465323030948638916015625">
        <ele>528</ele>
        <time>2021-05-25T07:20:48.000Z</time>
        <extensions>
          <ns3:TrackPointExtension>
            <ns3:atemp>16.0</ns3:atemp>
          </ns3:TrackPointExtension>
        </extensions>
      </trkpt>
      <trkpt lat="43.131542690098285675048828125" lon="13.1175706721842288970947265625">
        <ele>529</ele>
        <time>2021-05-25T07:20:53.000Z</time>
        <extensions>
          <ns3:TrackPointExtension>
            <ns3:atemp>16.0</ns3:atemp>
          </ns3:TrackPointExtension>
        </extensions>
      </trkpt>
      <trkpt lat="43.13153631985187530517578125" lon="13.11756958253681659698486328125">
        <ele>529.20001220703125</ele>
        <time>2021-05-25T07:20:58.000Z</time>
        <extensions>
          <ns3:TrackPointExtension>
            <ns3:atemp>16.0</ns3:atemp>
          </ns3:TrackPointExtension>
        </extensions>
      </trkpt>
      <trkpt lat="43.13152559101581573486328125" lon="13.117579557001590728759765625">
        <ele>529.5999755859375</ele>
        <time>2021-05-25T07:21:07.000Z</time>
        <extensions>
          <ns3:TrackPointExtension>
            <ns3:atemp>16.0</ns3:atemp>
          </ns3:TrackPointExtension>
        </extensions>
      </trkpt>
      <trkpt lat="43.1315170414745807647705078125" lon="13.11757695861160755157470703125">
        <ele>529.5999755859375</ele>
        <time>2021-05-25T07:21:19.000Z</time>
        <extensions>
          <ns3:TrackPointExtension>
            <ns3:atemp>16.0</ns3:atemp>
          </ns3:TrackPointExtension>
        </extensions>
      </trkpt>
      <trkpt lat="43.1314868666231632232666015625" lon="13.11761501245200634002685546875">
        <ele>529.5999755859375</ele>
        <time>2021-05-25T07:21:27.000Z</time>
        <extensions>
          <ns3:TrackPointExtension>
            <ns3:atemp>16.0</ns3:atemp>
          </ns3:TrackPointExtension>
        </extensions>
      </trkpt>
      <trkpt lat="43.1315086595714092254638671875" lon="13.11756321229040622711181640625">
        <ele>529</ele>
        <time>2021-05-25T07:21:34.000Z</time>
        <extensions>
          <ns3:TrackPointExtension>
            <ns3:atemp>16.0</ns3:atemp>
          </ns3:TrackPointExtension>
        </extensions>
      </trkpt>
      <trkpt lat="43.13152215443551540374755859375" lon="13.1175616197288036346435546875">
        <ele>528.5999755859375</ele>
        <time>2021-05-25T07:21:44.000Z</time>
        <extensions>
          <ns3:TrackPointExtension>
            <ns3:atemp>16.0</ns3:atemp>
          </ns3:TrackPointExtension>
        </extensions>
      </trkpt>
      <trkpt lat="43.13153791241347789764404296875" lon="13.11753722839057445526123046875">
        <ele>528.4000244140625</ele>
        <time>2021-05-25T07:21:52.000Z</time>
        <extensions>
          <ns3:TrackPointExtension>
            <ns3:atemp>16.0</ns3:atemp>
          </ns3:TrackPointExtension>
        </extensions>
      </trkpt>
      <trkpt lat="43.1316152773797512054443359375" lon="13.11750906519591808319091796875">
        <ele>528</ele>
        <time>2021-05-25T07:22:03.000Z</time>
        <extensions>
          <ns3:TrackPointExtension>
            <ns3:atemp>16.0</ns3:atemp>
          </ns3:TrackPointExtension>
        </extensions>
      </trkpt>
      <trkpt lat="43.131623156368732452392578125" lon="13.1174895353615283966064453125">
        <ele>527.79998779296875</ele>
        <time>2021-05-25T07:22:05.000Z</time>
        <extensions>
          <ns3:TrackPointExtension>
            <ns3:atemp>16.0</ns3:atemp>
          </ns3:TrackPointExtension>
        </extensions>
      </trkpt>
      <trkpt lat="43.131634555757045745849609375" lon="13.1174784712493419647216796875">
        <ele>527.79998779296875</ele>
        <time>2021-05-25T07:22:06.000Z</time>
        <extensions>
          <ns3:TrackPointExtension>
            <ns3:atemp>16.0</ns3:atemp>
          </ns3:TrackPointExtension>
        </extensions>
      </trkpt>
      <trkpt lat="43.1316442787647247314453125" lon="13.11742759309709072113037109375">
        <ele>527.5999755859375</ele>
        <time>2021-05-25T07:22:12.000Z</time>
        <extensions>
          <ns3:TrackPointExtension>
            <ns3:atemp>16.0</ns3:atemp>
          </ns3:TrackPointExtension>
        </extensions>
      </trkpt>
      <trkpt lat="43.1316652335226535797119140625" lon="13.11742424033582210540771484375">
        <ele>526.5999755859375</ele>
        <time>2021-05-25T07:22:15.000Z</time>
        <extensions>
          <ns3:TrackPointExtension>
            <ns3:atemp>16.0</ns3:atemp>
          </ns3:TrackPointExtension>
        </extensions>
      </trkpt>
      <trkpt lat="43.13167721964418888092041015625" lon="13.11738518066704273223876953125">
        <ele>525.5999755859375</ele>
        <time>2021-05-25T07:22:21.000Z</time>
        <extensions>
          <ns3:TrackPointExtension>
            <ns3:atemp>16.0</ns3:atemp>
          </ns3:TrackPointExtension>
        </extensions>
      </trkpt>
      <trkpt lat="43.13168074004352092742919921875" lon="13.11737394891679286956787109375">
        <ele>525.5999755859375</ele>
        <time>2021-05-25T07:22:22.000Z</time>
        <extensions>
          <ns3:TrackPointExtension>
            <ns3:atemp>16.0</ns3:atemp>
          </ns3:TrackPointExtension>
        </extensions>
      </trkpt>
      <trkpt lat="43.13171443529427051544189453125" lon="13.11730630695819854736328125">
        <ele>524.79998779296875</ele>
        <time>2021-05-25T07:22:29.000Z</time>
        <extensions>
          <ns3:TrackPointExtension>
            <ns3:atemp>16.0</ns3:atemp>
          </ns3:TrackPointExtension>
        </extensions>
      </trkpt>
      <trkpt lat="43.13172080554068088531494140625" lon="13.117297589778900146484375">
        <ele>524.20001220703125</ele>
        <time>2021-05-25T07:22:32.000Z</time>
        <extensions>
          <ns3:TrackPointExtension>
            <ns3:atemp>16.0</ns3:atemp>
          </ns3:TrackPointExtension>
        </extensions>
      </trkpt>
      <trkpt lat="43.131735809147357940673828125" lon="13.1172783114016056060791015625">
        <ele>523.20001220703125</ele>
        <time>2021-05-25T07:22:37.000Z</time>
        <extensions>
          <ns3:TrackPointExtension>
            <ns3:atemp>16.0</ns3:atemp>
          </ns3:TrackPointExtension>
        </extensions>
      </trkpt>
      <trkpt lat="43.1317373178899288177490234375" lon="13.11727303080260753631591796875">
        <ele>523</ele>
        <time>2021-05-25T07:22:39.000Z</time>
        <extensions>
          <ns3:TrackPointExtension>
            <ns3:atemp>16.0</ns3:atemp>
          </ns3:TrackPointExtension>
        </extensions>
      </trkpt>
      <trkpt lat="43.1317456997931003570556640625" lon="13.1172659061849117279052734375">
        <ele>522.5999755859375</ele>
        <time>2021-05-25T07:22:49.000Z</time>
        <extensions>
          <ns3:TrackPointExtension>
            <ns3:atemp>16.0</ns3:atemp>
          </ns3:TrackPointExtension>
        </extensions>
      </trkpt>
      <trkpt lat="43.1317554228007793426513671875" lon="13.11727353371679782867431640625">
        <ele>522.4000244140625</ele>
        <time>2021-05-25T07:22:59.000Z</time>
        <extensions>
          <ns3:TrackPointExtension>
            <ns3:atemp>16.0</ns3:atemp>
          </ns3:TrackPointExtension>
        </extensions>
      </trkpt>
      <trkpt lat="43.13175357878208160400390625" lon="13.117271773517131805419921875">
        <ele>522.20001220703125</ele>
        <time>2021-05-25T07:23:08.000Z</time>
        <extensions>
          <ns3:TrackPointExtension>
            <ns3:atemp>16.0</ns3:atemp>
          </ns3:TrackPointExtension>
        </extensions>
      </trkpt>
      <trkpt lat="43.13175357878208160400390625" lon="13.11727202497422695159912109375">
        <ele>522</ele>
        <time>2021-05-25T07:23:16.000Z</time>
        <extensions>
          <ns3:TrackPointExtension>
            <ns3:atemp>16.0</ns3:atemp>
          </ns3:TrackPointExtension>
        </extensions>
      </trkpt>
      <trkpt lat="43.13175433315336704254150390625" lon="13.11727353371679782867431640625">
        <ele>521.5999755859375</ele>
        <time>2021-05-25T07:23:30.000Z</time>
        <extensions>
          <ns3:TrackPointExtension>
            <ns3:atemp>16.0</ns3:atemp>
          </ns3:TrackPointExtension>
        </extensions>
      </trkpt>
      <trkpt lat="43.13175416551530361175537109375" lon="13.1172793172299861907958984375">
        <ele>522</ele>
        <time>2021-05-25T07:23:45.000Z</time>
        <extensions>
          <ns3:TrackPointExtension>
            <ns3:atemp>16.0</ns3:atemp>
          </ns3:TrackPointExtension>
        </extensions>
      </trkpt>
      <trkpt lat="43.131745867431163787841796875" lon="13.11726984567940235137939453125">
        <ele>522.5999755859375</ele>
        <time>2021-05-25T07:23:54.000Z</time>
        <extensions>
          <ns3:TrackPointExtension>
            <ns3:atemp>16.0</ns3:atemp>
          </ns3:TrackPointExtension>
        </extensions>
      </trkpt>
      <trkpt lat="43.131753914058208465576171875" lon="13.117283172905445098876953125">
        <ele>522.79998779296875</ele>
        <time>2021-05-25T07:24:00.000Z</time>
        <extensions>
          <ns3:TrackPointExtension>
            <ns3:atemp>16.0</ns3:atemp>
          </ns3:TrackPointExtension>
        </extensions>
      </trkpt>
      <trkpt lat="43.131761290132999420166015625" lon="13.11729096807539463043212890625">
        <ele>523</ele>
        <time>2021-05-25T07:24:02.000Z</time>
        <extensions>
          <ns3:TrackPointExtension>
            <ns3:atemp>16.0</ns3:atemp>
          </ns3:TrackPointExtension>
        </extensions>
      </trkpt>
      <trkpt lat="43.13177905976772308349609375" lon="13.11729683540761470794677734375">
        <ele>523.20001220703125</ele>
        <time>2021-05-25T07:24:07.000Z</time>
        <extensions>
          <ns3:TrackPointExtension>
            <ns3:atemp>16.0</ns3:atemp>
          </ns3:TrackPointExtension>
        </extensions>
      </trkpt>
      <trkpt lat="43.13182868063449859619140625" lon="13.11723522841930389404296875">
        <ele>523.5999755859375</ele>
        <time>2021-05-25T07:24:14.000Z</time>
        <extensions>
          <ns3:TrackPointExtension>
            <ns3:atemp>16.0</ns3:atemp>
          </ns3:TrackPointExtension>
        </extensions>
      </trkpt>
      <trkpt lat="43.13194594345986843109130859375" lon="13.11712752096354961395263671875">
        <ele>523.5999755859375</ele>
        <time>2021-05-25T07:24:20.000Z</time>
        <extensions>
          <ns3:TrackPointExtension>
            <ns3:atemp>16.0</ns3:atemp>
          </ns3:TrackPointExtension>
        </extensions>
      </trkpt>
      <trkpt lat="43.13200746662914752960205078125" lon="13.11708292923867702484130859375">
        <ele>524</ele>
        <time>2021-05-25T07:24:23.000Z</time>
        <extensions>
          <ns3:TrackPointExtension>
            <ns3:atemp>16.0</ns3:atemp>
          </ns3:TrackPointExtension>
        </extensions>
      </trkpt>
      <trkpt lat="43.13205708749592304229736328125" lon="13.1170468032360076904296875">
        <ele>524.4000244140625</ele>
        <time>2021-05-25T07:24:26.000Z</time>
        <extensions>
          <ns3:TrackPointExtension>
            <ns3:atemp>16.0</ns3:atemp>
          </ns3:TrackPointExtension>
        </extensions>
      </trkpt>
      <trkpt lat="43.13209346495568752288818359375" lon="13.1170214898884296417236328125">
        <ele>525.20001220703125</ele>
        <time>2021-05-25T07:24:28.000Z</time>
        <extensions>
          <ns3:TrackPointExtension>
            <ns3:atemp>16.0</ns3:atemp>
          </ns3:TrackPointExtension>
        </extensions>
      </trkpt>
      <trkpt lat="43.132130764424800872802734375" lon="13.1169956736266613006591796875">
        <ele>526.20001220703125</ele>
        <time>2021-05-25T07:24:30.000Z</time>
        <extensions>
          <ns3:TrackPointExtension>
            <ns3:atemp>16.0</ns3:atemp>
          </ns3:TrackPointExtension>
        </extensions>
      </trkpt>
      <trkpt lat="43.13219605945050716400146484375" lon="13.116964660584926605224609375">
        <ele>527.4000244140625</ele>
        <time>2021-05-25T07:24:33.000Z</time>
        <extensions>
          <ns3:TrackPointExtension>
            <ns3:atemp>16.0</ns3:atemp>
          </ns3:TrackPointExtension>
        </extensions>
      </trkpt>
      <trkpt lat="43.13227954320609569549560546875" lon="13.116947896778583526611328125">
        <ele>528.5999755859375</ele>
        <time>2021-05-25T07:24:36.000Z</time>
        <extensions>
          <ns3:TrackPointExtension>
            <ns3:atemp>16.0</ns3:atemp>
          </ns3:TrackPointExtension>
        </extensions>
      </trkpt>
      <trkpt lat="43.1323632784187793731689453125" lon="13.1169306300580501556396484375">
        <ele>530</ele>
        <time>2021-05-25T07:24:39.000Z</time>
        <extensions>
          <ns3:TrackPointExtension>
            <ns3:atemp>16.0</ns3:atemp>
          </ns3:TrackPointExtension>
        </extensions>
      </trkpt>
      <trkpt lat="43.13239404000341892242431640625" lon="13.11692945659160614013671875">
        <ele>530.5999755859375</ele>
        <time>2021-05-25T07:24:40.000Z</time>
        <extensions>
          <ns3:TrackPointExtension>
            <ns3:atemp>16.0</ns3:atemp>
          </ns3:TrackPointExtension>
        </extensions>
      </trkpt>
      <trkpt lat="43.1324242986738681793212890625" lon="13.1169292889535427093505859375">
        <ele>531.20001220703125</ele>
        <time>2021-05-25T07:24:41.000Z</time>
        <extensions>
          <ns3:TrackPointExtension>
            <ns3:atemp>16.0</ns3:atemp>
          </ns3:TrackPointExtension>
        </extensions>
      </trkpt>
      <trkpt lat="43.1325154937803745269775390625" lon="13.116909004747867584228515625">
        <ele>532.20001220703125</ele>
        <time>2021-05-25T07:24:44.000Z</time>
        <extensions>
          <ns3:TrackPointExtension>
            <ns3:atemp>16.0</ns3:atemp>
          </ns3:TrackPointExtension>
        </extensions>
      </trkpt>
      <trkpt lat="43.13260383903980255126953125" lon="13.11688746325671672821044921875">
        <ele>533</ele>
        <time>2021-05-25T07:24:47.000Z</time>
        <extensions>
          <ns3:TrackPointExtension>
            <ns3:atemp>16.0</ns3:atemp>
          </ns3:TrackPointExtension>
        </extensions>
      </trkpt>
      <trkpt lat="43.1326348520815372467041015625" lon="13.11687983572483062744140625">
        <ele>533.4000244140625</ele>
        <time>2021-05-25T07:24:48.000Z</time>
        <extensions>
          <ns3:TrackPointExtension>
            <ns3:atemp>16.0</ns3:atemp>
          </ns3:TrackPointExtension>
        </extensions>
      </trkpt>
      <trkpt lat="43.13271288760006427764892578125" lon="13.1168491579592227935791015625">
        <ele>534.79998779296875</ele>
        <time>2021-05-25T07:24:51.000Z</time>
        <extensions>
          <ns3:TrackPointExtension>
            <ns3:atemp>16.0</ns3:atemp>
          </ns3:TrackPointExtension>
        </extensions>
      </trkpt>
      <trkpt lat="43.13272596336901187896728515625" lon="13.1168411113321781158447265625">
        <ele>535.20001220703125</ele>
        <time>2021-05-25T07:24:52.000Z</time>
        <extensions>
          <ns3:TrackPointExtension>
            <ns3:atemp>16.0</ns3:atemp>
          </ns3:TrackPointExtension>
        </extensions>
      </trkpt>
      <trkpt lat="43.132726214826107025146484375" lon="13.11683767475187778472900390625">
        <ele>536.20001220703125</ele>
        <time>2021-05-25T07:24:55.000Z</time>
        <extensions>
          <ns3:TrackPointExtension>
            <ns3:atemp>16.0</ns3:atemp>
          </ns3:TrackPointExtension>
        </extensions>
      </trkpt>
      <trkpt lat="43.1327260471880435943603515625" lon="13.11683868058025836944580078125">
        <ele>536.4000244140625</ele>
        <time>2021-05-25T07:24:56.000Z</time>
        <extensions>
          <ns3:TrackPointExtension>
            <ns3:atemp>16.0</ns3:atemp>
          </ns3:TrackPointExtension>
        </extensions>
      </trkpt>
      <trkpt lat="43.132725544273853302001953125" lon="13.1168390996754169464111328125">
        <ele>537.20001220703125</ele>
        <time>2021-05-25T07:24:59.000Z</time>
        <extensions>
          <ns3:TrackPointExtension>
            <ns3:atemp>16.0</ns3:atemp>
          </ns3:TrackPointExtension>
        </extensions>
      </trkpt>
      <trkpt lat="43.13272579573094844818115234375" lon="13.1168407760560512542724609375">
        <ele>537.4000244140625</ele>
        <time>2021-05-25T07:25:07.000Z</time>
        <extensions>
          <ns3:TrackPointExtension>
            <ns3:atemp>16.0</ns3:atemp>
          </ns3:TrackPointExtension>
        </extensions>
      </trkpt>
      <trkpt lat="43.1327252089977264404296875" lon="13.11684085987508296966552734375">
        <ele>537.20001220703125</ele>
        <time>2021-05-25T07:25:19.000Z</time>
        <extensions>
          <ns3:TrackPointExtension>
            <ns3:atemp>16.0</ns3:atemp>
          </ns3:TrackPointExtension>
        </extensions>
      </trkpt>
      <trkpt lat="43.13272445462644100189208984375" lon="13.11683700419962406158447265625">
        <ele>537</ele>
        <time>2021-05-25T07:25:30.000Z</time>
        <extensions>
          <ns3:TrackPointExtension>
            <ns3:atemp>16.0</ns3:atemp>
          </ns3:TrackPointExtension>
        </extensions>
      </trkpt>
      <trkpt lat="43.1327485106885433197021484375" lon="13.11683817766606807708740234375">
        <ele>537</ele>
        <time>2021-05-25T07:25:36.000Z</time>
        <extensions>
          <ns3:TrackPointExtension>
            <ns3:atemp>16.0</ns3:atemp>
          </ns3:TrackPointExtension>
        </extensions>
      </trkpt>
      <trkpt lat="43.1328713893890380859375" lon="13.11686575412750244140625">
        <ele>537.20001220703125</ele>
        <time>2021-05-25T07:25:41.000Z</time>
        <extensions>
          <ns3:TrackPointExtension>
            <ns3:atemp>16.0</ns3:atemp>
          </ns3:TrackPointExtension>
        </extensions>
      </trkpt>
      <trkpt lat="43.13308454118669033050537109375" lon="13.11696491204202175140380859375">
        <ele>538.5999755859375</ele>
        <time>2021-05-25T07:25:49.000Z</time>
        <extensions>
          <ns3:TrackPointExtension>
            <ns3:atemp>16.0</ns3:atemp>
          </ns3:TrackPointExtension>
        </extensions>
      </trkpt>
      <trkpt lat="43.1331639178097248077392578125" lon="13.11700497753918170928955078125">
        <ele>539.79998779296875</ele>
        <time>2021-05-25T07:25:52.000Z</time>
        <extensions>
          <ns3:TrackPointExtension>
            <ns3:atemp>16.0</ns3:atemp>
          </ns3:TrackPointExtension>
        </extensions>
      </trkpt>
      <trkpt lat="43.133246563374996185302734375" lon="13.11704210937023162841796875">
        <ele>540.79998779296875</ele>
        <time>2021-05-25T07:25:55.000Z</time>
        <extensions>
          <ns3:TrackPointExtension>
            <ns3:atemp>16.0</ns3:atemp>
          </ns3:TrackPointExtension>
        </extensions>
      </trkpt>
      <trkpt lat="43.13332761637866497039794921875" lon="13.1170694343745708465576171875">
        <ele>542.20001220703125</ele>
        <time>2021-05-25T07:25:58.000Z</time>
        <extensions>
          <ns3:TrackPointExtension>
            <ns3:atemp>16.0</ns3:atemp>
          </ns3:TrackPointExtension>
        </extensions>
      </trkpt>
      <trkpt lat="43.1333555281162261962890625" lon="13.1170694343745708465576171875">
        <ele>542.5999755859375</ele>
        <time>2021-05-25T07:25:59.000Z</time>
        <extensions>
          <ns3:TrackPointExtension>
            <ns3:atemp>16.0</ns3:atemp>
          </ns3:TrackPointExtension>
        </extensions>
      </trkpt>
      <trkpt lat="43.13341311179101467132568359375" lon="13.1170610524713993072509765625">
        <ele>543.4000244140625</ele>
        <time>2021-05-25T07:26:01.000Z</time>
        <extensions>
          <ns3:TrackPointExtension>
            <ns3:atemp>16.0</ns3:atemp>
          </ns3:TrackPointExtension>
        </extensions>
      </trkpt>
      <trkpt lat="43.133512437343597412109375" lon="13.11701604165136814117431640625">
        <ele>544.5999755859375</ele>
        <time>2021-05-25T07:26:05.000Z</time>
        <extensions>
          <ns3:TrackPointExtension>
            <ns3:atemp>16.0</ns3:atemp>
          </ns3:TrackPointExtension>
        </extensions>
      </trkpt>
      <trkpt lat="43.13363238237798213958740234375" lon="13.11700665391981601715087890625">
        <ele>545.79998779296875</ele>
        <time>2021-05-25T07:26:09.000Z</time>
        <extensions>
          <ns3:TrackPointExtension>
            <ns3:atemp>16.0</ns3:atemp>
          </ns3:TrackPointExtension>
        </extensions>
      </trkpt>
      <trkpt lat="43.1336839310824871063232421875" lon="13.1169819273054599761962890625">
        <ele>546</ele>
        <time>2021-05-25T07:26:11.000Z</time>
        <extensions>
          <ns3:TrackPointExtension>
            <ns3:atemp>16.0</ns3:atemp>
          </ns3:TrackPointExtension>
        </extensions>
      </trkpt>
      <trkpt lat="43.1337690912187099456787109375" lon="13.11698083765804767608642578125">
        <ele>546.4000244140625</ele>
        <time>2021-05-25T07:26:15.000Z</time>
        <extensions>
          <ns3:TrackPointExtension>
            <ns3:atemp>16.0</ns3:atemp>
          </ns3:TrackPointExtension>
        </extensions>
      </trkpt>
      <trkpt lat="43.13378426246345043182373046875" lon="13.1169869564473628997802734375">
        <ele>546.4000244140625</ele>
        <time>2021-05-25T07:26:16.000Z</time>
        <extensions>
          <ns3:TrackPointExtension>
            <ns3:atemp>16.0</ns3:atemp>
          </ns3:TrackPointExtension>
        </extensions>
      </trkpt>
      <trkpt lat="43.13379297964274883270263671875" lon="13.11697245575487613677978515625">
        <ele>546.5999755859375</ele>
        <time>2021-05-25T07:26:19.000Z</time>
        <extensions>
          <ns3:TrackPointExtension>
            <ns3:atemp>16.0</ns3:atemp>
          </ns3:TrackPointExtension>
        </extensions>
      </trkpt>
      <trkpt lat="43.1337808258831501007080078125" lon="13.11697329394519329071044921875">
        <ele>546.5999755859375</ele>
        <time>2021-05-25T07:26:20.000Z</time>
        <extensions>
          <ns3:TrackPointExtension>
            <ns3:atemp>16.0</ns3:atemp>
          </ns3:TrackPointExtension>
        </extensions>
      </trkpt>
      <trkpt lat="43.1337090767920017242431640625" lon="13.11700363643467426300048828125">
        <ele>546.79998779296875</ele>
        <time>2021-05-25T07:26:23.000Z</time>
        <extensions>
          <ns3:TrackPointExtension>
            <ns3:atemp>16.0</ns3:atemp>
          </ns3:TrackPointExtension>
        </extensions>
      </trkpt>
      <trkpt lat="43.1336789019405841827392578125" lon="13.11701369471848011016845703125">
        <ele>546.79998779296875</ele>
        <time>2021-05-25T07:26:24.000Z</time>
        <extensions>
          <ns3:TrackPointExtension>
            <ns3:atemp>16.0</ns3:atemp>
          </ns3:TrackPointExtension>
        </extensions>
      </trkpt>
      <trkpt lat="43.1335203163325786590576171875" lon="13.11710623092949390411376953125">
        <ele>547</ele>
        <time>2021-05-25T07:26:29.000Z</time>
        <extensions>
          <ns3:TrackPointExtension>
            <ns3:atemp>17.0</ns3:atemp>
          </ns3:TrackPointExtension>
        </extensions>
      </trkpt>
      <trkpt lat="43.13324614427983760833740234375" lon="13.11730002053081989288330078125">
        <ele>547.4000244140625</ele>
        <time>2021-05-25T07:26:38.000Z</time>
        <extensions>
          <ns3:TrackPointExtension>
            <ns3:atemp>17.0</ns3:atemp>
          </ns3:TrackPointExtension>
        </extensions>
      </trkpt>
      <trkpt lat="43.13307456672191619873046875" lon="13.1174405850470066070556640625">
        <ele>547.79998779296875</ele>
        <time>2021-05-25T07:26:45.000Z</time>
        <extensions>
          <ns3:TrackPointExtension>
            <ns3:atemp>17.0</ns3:atemp>
          </ns3:TrackPointExtension>
        </extensions>
      </trkpt>
      <trkpt lat="43.13303626142442226409912109375" lon="13.11747034080326557159423828125">
        <ele>547.79998779296875</ele>
        <time>2021-05-25T07:26:47.000Z</time>
        <extensions>
          <ns3:TrackPointExtension>
            <ns3:atemp>17.0</ns3:atemp>
          </ns3:TrackPointExtension>
        </extensions>
      </trkpt>
      <trkpt lat="43.1329768337309360504150390625" lon="13.117519207298755645751953125">
        <ele>548.4000244140625</ele>
        <time>2021-05-25T07:26:50.000Z</time>
        <extensions>
          <ns3:TrackPointExtension>
            <ns3:atemp>17.0</ns3:atemp>
          </ns3:TrackPointExtension>
        </extensions>
      </trkpt>
      <trkpt lat="43.13294456340372562408447265625" lon="13.1175599433481693267822265625">
        <ele>549.20001220703125</ele>
        <time>2021-05-25T07:26:52.000Z</time>
        <extensions>
          <ns3:TrackPointExtension>
            <ns3:atemp>17.0</ns3:atemp>
          </ns3:TrackPointExtension>
        </extensions>
      </trkpt>
      <trkpt lat="43.1329168193042278289794921875" lon="13.117603361606597900390625">
        <ele>549.79998779296875</ele>
        <time>2021-05-25T07:26:54.000Z</time>
        <extensions>
          <ns3:TrackPointExtension>
            <ns3:atemp>17.0</ns3:atemp>
          </ns3:TrackPointExtension>
        </extensions>
      </trkpt>
      <trkpt lat="43.13288010656833648681640625" lon="13.1176368892192840576171875">
        <ele>550.4000244140625</ele>
        <time>2021-05-25T07:26:56.000Z</time>
        <extensions>
          <ns3:TrackPointExtension>
            <ns3:atemp>17.0</ns3:atemp>
          </ns3:TrackPointExtension>
        </extensions>
      </trkpt>
      <trkpt lat="43.13278916291892528533935546875" lon="13.11769329942762851715087890625">
        <ele>550.79998779296875</ele>
        <time>2021-05-25T07:27:00.000Z</time>
        <extensions>
          <ns3:TrackPointExtension>
            <ns3:atemp>17.0</ns3:atemp>
          </ns3:TrackPointExtension>
        </extensions>
      </trkpt>
      <trkpt lat="43.132729232311248779296875" lon="13.1177577562630176544189453125">
        <ele>551.5999755859375</ele>
        <time>2021-05-25T07:27:03.000Z</time>
        <extensions>
          <ns3:TrackPointExtension>
            <ns3:atemp>17.0</ns3:atemp>
          </ns3:TrackPointExtension>
        </extensions>
      </trkpt>
      <trkpt lat="43.132661841809749603271484375" lon="13.11785674653947353363037109375">
        <ele>552.79998779296875</ele>
        <time>2021-05-25T07:27:07.000Z</time>
        <extensions>
          <ns3:TrackPointExtension>
            <ns3:atemp>17.0</ns3:atemp>
          </ns3:TrackPointExtension>
        </extensions>
      </trkpt>
      <trkpt lat="43.13264264725148677825927734375" lon="13.11788792721927165985107421875">
        <ele>553</ele>
        <time>2021-05-25T07:27:08.000Z</time>
        <extensions>
          <ns3:TrackPointExtension>
            <ns3:atemp>17.0</ns3:atemp>
          </ns3:TrackPointExtension>
        </extensions>
      </trkpt>
      <trkpt lat="43.13249680213630199432373046875" lon="13.1180481053888797760009765625">
        <ele>553</ele>
        <time>2021-05-25T07:27:13.000Z</time>
        <extensions>
          <ns3:TrackPointExtension>
            <ns3:atemp>17.0</ns3:atemp>
          </ns3:TrackPointExtension>
        </extensions>
      </trkpt>
      <trkpt lat="43.13230804167687892913818359375" lon="13.1182174198329448699951171875">
        <ele>552.20001220703125</ele>
        <time>2021-05-25T07:27:18.000Z</time>
        <extensions>
          <ns3:TrackPointExtension>
            <ns3:atemp>17.0</ns3:atemp>
          </ns3:TrackPointExtension>
        </extensions>
      </trkpt>
      <trkpt lat="43.13224048353731632232666015625" lon="13.11828891746699810028076171875">
        <ele>551.5999755859375</ele>
        <time>2021-05-25T07:27:20.000Z</time>
        <extensions>
          <ns3:TrackPointExtension>
            <ns3:atemp>17.0</ns3:atemp>
          </ns3:TrackPointExtension>
        </extensions>
      </trkpt>
      <trkpt lat="43.13214023597538471221923828125" lon="13.11840140260756015777587890625">
        <ele>550.79998779296875</ele>
        <time>2021-05-25T07:27:23.000Z</time>
        <extensions>
          <ns3:TrackPointExtension>
            <ns3:atemp>17.0</ns3:atemp>
          </ns3:TrackPointExtension>
        </extensions>
      </trkpt>
      <trkpt lat="43.1321044452488422393798828125" lon="13.11843912117183208465576171875">
        <ele>550.20001220703125</ele>
        <time>2021-05-25T07:27:24.000Z</time>
        <extensions>
          <ns3:TrackPointExtension>
            <ns3:atemp>17.0</ns3:atemp>
          </ns3:TrackPointExtension>
        </extensions>
      </trkpt>
      <trkpt lat="43.13206513412296772003173828125" lon="13.11847130768001079559326171875">
        <ele>549.5999755859375</ele>
        <time>2021-05-25T07:27:25.000Z</time>
        <extensions>
          <ns3:TrackPointExtension>
            <ns3:atemp>17.0</ns3:atemp>
          </ns3:TrackPointExtension>
        </extensions>
      </trkpt>
      <trkpt lat="43.13197293318808078765869140625" lon="13.1185247004032135009765625">
        <ele>548.4000244140625</ele>
        <time>2021-05-25T07:27:27.000Z</time>
        <extensions>
          <ns3:TrackPointExtension>
            <ns3:atemp>17.0</ns3:atemp>
          </ns3:TrackPointExtension>
        </extensions>
      </trkpt>
      <trkpt lat="43.13187419436872005462646484375" lon="13.118561916053295135498046875">
        <ele>547.20001220703125</ele>
        <time>2021-05-25T07:27:29.000Z</time>
        <extensions>
          <ns3:TrackPointExtension>
            <ns3:atemp>17.0</ns3:atemp>
          </ns3:TrackPointExtension>
        </extensions>
      </trkpt>
      <trkpt lat="43.13182423822581768035888671875" lon="13.118579685688018798828125">
        <ele>546.5999755859375</ele>
        <time>2021-05-25T07:27:30.000Z</time>
        <extensions>
          <ns3:TrackPointExtension>
            <ns3:atemp>17.0</ns3:atemp>
          </ns3:TrackPointExtension>
        </extensions>
      </trkpt>
      <trkpt lat="43.13172751106321811676025390625" lon="13.11862997710704803466796875">
        <ele>546</ele>
        <time>2021-05-25T07:27:32.000Z</time>
        <extensions>
          <ns3:TrackPointExtension>
            <ns3:atemp>17.0</ns3:atemp>
          </ns3:TrackPointExtension>
        </extensions>
      </trkpt>
      <trkpt lat="43.1315624713897705078125" lon="13.1187541969120502471923828125">
        <ele>545</ele>
        <time>2021-05-25T07:27:36.000Z</time>
        <extensions>
          <ns3:TrackPointExtension>
            <ns3:atemp>17.0</ns3:atemp>
          </ns3:TrackPointExtension>
        </extensions>
      </trkpt>
      <trkpt lat="43.13135451637208461761474609375" lon="13.1188873015344142913818359375">
        <ele>544.20001220703125</ele>
        <time>2021-05-25T07:27:42.000Z</time>
        <extensions>
          <ns3:TrackPointExtension>
            <ns3:atemp>17.0</ns3:atemp>
          </ns3:TrackPointExtension>
        </extensions>
      </trkpt>
      <trkpt lat="43.1312129460275173187255859375" lon="13.11897958628833293914794921875">
        <ele>543.79998779296875</ele>
        <time>2021-05-25T07:27:46.000Z</time>
        <extensions>
          <ns3:TrackPointExtension>
            <ns3:atemp>17.0</ns3:atemp>
          </ns3:TrackPointExtension>
        </extensions>
      </trkpt>
      <trkpt lat="43.131039105355739593505859375" lon="13.1190904788672924041748046875">
        <ele>543.4000244140625</ele>
        <time>2021-05-25T07:27:51.000Z</time>
        <extensions>
          <ns3:TrackPointExtension>
            <ns3:atemp>17.0</ns3:atemp>
          </ns3:TrackPointExtension>
        </extensions>
      </trkpt>
      <trkpt lat="43.13087875954806804656982421875" lon="13.1191447935998439788818359375">
        <ele>542.79998779296875</ele>
        <time>2021-05-25T07:27:55.000Z</time>
        <extensions>
          <ns3:TrackPointExtension>
            <ns3:atemp>17.0</ns3:atemp>
          </ns3:TrackPointExtension>
        </extensions>
      </trkpt>
      <trkpt lat="43.1307509355247020721435546875" lon="13.11916884966194629669189453125">
        <ele>542.5999755859375</ele>
        <time>2021-05-25T07:27:58.000Z</time>
        <extensions>
          <ns3:TrackPointExtension>
            <ns3:atemp>17.0</ns3:atemp>
          </ns3:TrackPointExtension>
        </extensions>
      </trkpt>
      <trkpt lat="43.1307096965610980987548828125" lon="13.11918477527797222137451171875">
        <ele>542.5999755859375</ele>
        <time>2021-05-25T07:27:59.000Z</time>
        <extensions>
          <ns3:TrackPointExtension>
            <ns3:atemp>17.0</ns3:atemp>
          </ns3:TrackPointExtension>
        </extensions>
      </trkpt>
      <trkpt lat="43.13061120919883251190185546875" lon="13.1192621402442455291748046875">
        <ele>542.4000244140625</ele>
        <time>2021-05-25T07:28:02.000Z</time>
        <extensions>
          <ns3:TrackPointExtension>
            <ns3:atemp>17.0</ns3:atemp>
          </ns3:TrackPointExtension>
        </extensions>
      </trkpt>
      <trkpt lat="43.1305799447000026702880859375" lon="13.119296170771121978759765625">
        <ele>542.4000244140625</ele>
        <time>2021-05-25T07:28:03.000Z</time>
        <extensions>
          <ns3:TrackPointExtension>
            <ns3:atemp>17.0</ns3:atemp>
          </ns3:TrackPointExtension>
        </extensions>
      </trkpt>
      <trkpt lat="43.13054163940250873565673828125" lon="13.11933011747896671295166015625">
        <ele>542.4000244140625</ele>
        <time>2021-05-25T07:28:04.000Z</time>
        <extensions>
          <ns3:TrackPointExtension>
            <ns3:atemp>17.0</ns3:atemp>
          </ns3:TrackPointExtension>
        </extensions>
      </trkpt>
      <trkpt lat="43.13049989752471446990966796875" lon="13.1193690933287143707275390625">
        <ele>542</ele>
        <time>2021-05-25T07:28:05.000Z</time>
        <extensions>
          <ns3:TrackPointExtension>
            <ns3:atemp>17.0</ns3:atemp>
          </ns3:TrackPointExtension>
        </extensions>
      </trkpt>
      <trkpt lat="43.1304659508168697357177734375" lon="13.11941494233906269073486328125">
        <ele>541.5999755859375</ele>
        <time>2021-05-25T07:28:06.000Z</time>
        <extensions>
          <ns3:TrackPointExtension>
            <ns3:atemp>17.0</ns3:atemp>
          </ns3:TrackPointExtension>
        </extensions>
      </trkpt>
      <trkpt lat="43.1304354406893253326416015625" lon="13.119481243193149566650390625">
        <ele>541</ele>
        <time>2021-05-25T07:28:08.000Z</time>
        <extensions>
          <ns3:TrackPointExtension>
            <ns3:atemp>17.0</ns3:atemp>
          </ns3:TrackPointExtension>
        </extensions>
      </trkpt>
      <trkpt lat="43.13043401576578617095947265625" lon="13.1194988451898097991943359375">
        <ele>540.4000244140625</ele>
        <time>2021-05-25T07:28:09.000Z</time>
        <extensions>
          <ns3:TrackPointExtension>
            <ns3:atemp>17.0</ns3:atemp>
          </ns3:TrackPointExtension>
        </extensions>
      </trkpt>
      <trkpt lat="43.13043435104191303253173828125" lon="13.11951116658747196197509765625">
        <ele>539.79998779296875</ele>
        <time>2021-05-25T07:28:10.000Z</time>
        <extensions>
          <ns3:TrackPointExtension>
            <ns3:atemp>17.0</ns3:atemp>
          </ns3:TrackPointExtension>
        </extensions>
      </trkpt>
      <trkpt lat="43.13043368048965930938720703125" lon="13.1195182912051677703857421875">
        <ele>538.79998779296875</ele>
        <time>2021-05-25T07:28:11.000Z</time>
        <extensions>
          <ns3:TrackPointExtension>
            <ns3:atemp>17.0</ns3:atemp>
          </ns3:TrackPointExtension>
        </extensions>
      </trkpt>
      <trkpt lat="43.1304173357784748077392578125" lon="13.11957947909832000732421875">
        <ele>537.4000244140625</ele>
        <time>2021-05-25T07:28:14.000Z</time>
        <extensions>
          <ns3:TrackPointExtension>
            <ns3:atemp>17.0</ns3:atemp>
          </ns3:TrackPointExtension>
        </extensions>
      </trkpt>
      <trkpt lat="43.1304136477410793304443359375" lon="13.1196624599397182464599609375">
        <ele>536.4000244140625</ele>
        <time>2021-05-25T07:28:18.000Z</time>
        <extensions>
          <ns3:TrackPointExtension>
            <ns3:atemp>17.0</ns3:atemp>
          </ns3:TrackPointExtension>
        </extensions>
      </trkpt>
      <trkpt lat="43.1304129771888256072998046875" lon="13.119679726660251617431640625">
        <ele>536.20001220703125</ele>
        <time>2021-05-25T07:28:19.000Z</time>
        <extensions>
          <ns3:TrackPointExtension>
            <ns3:atemp>17.0</ns3:atemp>
          </ns3:TrackPointExtension>
        </extensions>
      </trkpt>
      <trkpt lat="43.13041138462722301483154296875" lon="13.11969204805791378021240234375">
        <ele>535.20001220703125</ele>
        <time>2021-05-25T07:28:23.000Z</time>
        <extensions>
          <ns3:TrackPointExtension>
            <ns3:atemp>17.0</ns3:atemp>
          </ns3:TrackPointExtension>
        </extensions>
      </trkpt>
      <trkpt lat="43.130412138998508453369140625" lon="13.1197171099483966827392578125">
        <ele>534.20001220703125</ele>
        <time>2021-05-25T07:28:27.000Z</time>
        <extensions>
          <ns3:TrackPointExtension>
            <ns3:atemp>17.0</ns3:atemp>
          </ns3:TrackPointExtension>
        </extensions>
      </trkpt>
      <trkpt lat="43.13040652312338352203369140625" lon="13.11972842551767826080322265625">
        <ele>533.79998779296875</ele>
        <time>2021-05-25T07:28:28.000Z</time>
        <extensions>
          <ns3:TrackPointExtension>
            <ns3:atemp>17.0</ns3:atemp>
          </ns3:TrackPointExtension>
        </extensions>
      </trkpt>
      <trkpt lat="43.13039931468665599822998046875" lon="13.11974166892468929290771484375">
        <ele>533.4000244140625</ele>
        <time>2021-05-25T07:28:29.000Z</time>
        <extensions>
          <ns3:TrackPointExtension>
            <ns3:atemp>17.0</ns3:atemp>
          </ns3:TrackPointExtension>
        </extensions>
      </trkpt>
      <trkpt lat="43.13038942404091358184814453125" lon="13.11975742690265178680419921875">
        <ele>533</ele>
        <time>2021-05-25T07:28:30.000Z</time>
        <extensions>
          <ns3:TrackPointExtension>
            <ns3:atemp>17.0</ns3:atemp>
          </ns3:TrackPointExtension>
        </extensions>
      </trkpt>
      <trkpt lat="43.13032806850969791412353515625" lon="13.11986236833035945892333984375">
        <ele>532.5999755859375</ele>
        <time>2021-05-25T07:28:35.000Z</time>
        <extensions>
          <ns3:TrackPointExtension>
            <ns3:atemp>17.0</ns3:atemp>
          </ns3:TrackPointExtension>
        </extensions>
      </trkpt>
      <trkpt lat="43.13030225224792957305908203125" lon="13.1199129112064838409423828125">
        <ele>532</ele>
        <time>2021-05-25T07:28:37.000Z</time>
        <extensions>
          <ns3:TrackPointExtension>
            <ns3:atemp>17.0</ns3:atemp>
          </ns3:TrackPointExtension>
        </extensions>
      </trkpt>
      <trkpt lat="43.1302654556930065155029296875" lon="13.119986169040203094482421875">
        <ele>531</ele>
        <time>2021-05-25T07:28:40.000Z</time>
        <extensions>
          <ns3:TrackPointExtension>
            <ns3:atemp>17.0</ns3:atemp>
          </ns3:TrackPointExtension>
        </extensions>
      </trkpt>
      <trkpt lat="43.13024609349668025970458984375" lon="13.120008967816829681396484375">
        <ele>530.4000244140625</ele>
        <time>2021-05-25T07:28:41.000Z</time>
        <extensions>
          <ns3:TrackPointExtension>
            <ns3:atemp>17.0</ns3:atemp>
          </ns3:TrackPointExtension>
        </extensions>
      </trkpt>
      <trkpt lat="43.1302268989384174346923828125" lon="13.12003201805055141448974609375">
        <ele>529.4000244140625</ele>
        <time>2021-05-25T07:28:42.000Z</time>
        <extensions>
          <ns3:TrackPointExtension>
            <ns3:atemp>17.0</ns3:atemp>
          </ns3:TrackPointExtension>
        </extensions>
      </trkpt>
      <trkpt lat="43.13018959946930408477783203125" lon="13.12008800916373729705810546875">
        <ele>528.20001220703125</ele>
        <time>2021-05-25T07:28:44.000Z</time>
        <extensions>
          <ns3:TrackPointExtension>
            <ns3:atemp>17.0</ns3:atemp>
          </ns3:TrackPointExtension>
        </extensions>
      </trkpt>
      <trkpt lat="43.1301444210112094879150390625" lon="13.12015405856072902679443359375">
        <ele>527</ele>
        <time>2021-05-25T07:28:46.000Z</time>
        <extensions>
          <ns3:TrackPointExtension>
            <ns3:atemp>17.0</ns3:atemp>
          </ns3:TrackPointExtension>
        </extensions>
      </trkpt>
      <trkpt lat="43.130105696618556976318359375" lon="13.1202136538922786712646484375">
        <ele>525.5999755859375</ele>
        <time>2021-05-25T07:28:48.000Z</time>
        <extensions>
          <ns3:TrackPointExtension>
            <ns3:atemp>17.0</ns3:atemp>
          </ns3:TrackPointExtension>
        </extensions>
      </trkpt>
      <trkpt lat="43.13007694669067859649658203125" lon="13.1202681362628936767578125">
        <ele>524.5999755859375</ele>
        <time>2021-05-25T07:28:50.000Z</time>
        <extensions>
          <ns3:TrackPointExtension>
            <ns3:atemp>17.0</ns3:atemp>
          </ns3:TrackPointExtension>
        </extensions>
      </trkpt>
      <trkpt lat="43.13004626892507076263427734375" lon="13.12034030444920063018798828125">
        <ele>523.5999755859375</ele>
        <time>2021-05-25T07:28:52.000Z</time>
        <extensions>
          <ns3:TrackPointExtension>
            <ns3:atemp>17.0</ns3:atemp>
          </ns3:TrackPointExtension>
        </extensions>
      </trkpt>
      <trkpt lat="43.13003520481288433074951171875" lon="13.1203739158809185028076171875">
        <ele>523.20001220703125</ele>
        <time>2021-05-25T07:28:53.000Z</time>
        <extensions>
          <ns3:TrackPointExtension>
            <ns3:atemp>17.0</ns3:atemp>
          </ns3:TrackPointExtension>
        </extensions>
      </trkpt>
      <trkpt lat="43.1300170160830020904541015625" lon="13.12043552286922931671142578125">
        <ele>521.79998779296875</ele>
        <time>2021-05-25T07:28:55.000Z</time>
        <extensions>
          <ns3:TrackPointExtension>
            <ns3:atemp>17.0</ns3:atemp>
          </ns3:TrackPointExtension>
        </extensions>
      </trkpt>
      <trkpt lat="43.13001223839819431304931640625" lon="13.12050274573266506195068359375">
        <ele>520.79998779296875</ele>
        <time>2021-05-25T07:28:57.000Z</time>
        <extensions>
          <ns3:TrackPointExtension>
            <ns3:atemp>17.0</ns3:atemp>
          </ns3:TrackPointExtension>
        </extensions>
      </trkpt>
      <trkpt lat="43.12999329529702663421630859375" lon="13.12060299329459667205810546875">
        <ele>519.5999755859375</ele>
        <time>2021-05-25T07:29:00.000Z</time>
        <extensions>
          <ns3:TrackPointExtension>
            <ns3:atemp>17.0</ns3:atemp>
          </ns3:TrackPointExtension>
        </extensions>
      </trkpt>
      <trkpt lat="43.1299888528883457183837890625" lon="13.120643310248851776123046875">
        <ele>518.5999755859375</ele>
        <time>2021-05-25T07:29:02.000Z</time>
        <extensions>
          <ns3:TrackPointExtension>
            <ns3:atemp>17.0</ns3:atemp>
          </ns3:TrackPointExtension>
        </extensions>
      </trkpt>
      <trkpt lat="43.12998541630804538726806640625" lon="13.1206662766635417938232421875">
        <ele>518.20001220703125</ele>
        <time>2021-05-25T07:29:03.000Z</time>
        <extensions>
          <ns3:TrackPointExtension>
            <ns3:atemp>17.0</ns3:atemp>
          </ns3:TrackPointExtension>
        </extensions>
      </trkpt>
      <trkpt lat="43.12997887842357158660888671875" lon="13.12072101049125194549560546875">
        <ele>517</ele>
        <time>2021-05-25T07:29:05.000Z</time>
        <extensions>
          <ns3:TrackPointExtension>
            <ns3:atemp>17.0</ns3:atemp>
          </ns3:TrackPointExtension>
        </extensions>
      </trkpt>
      <trkpt lat="43.12996412627398967742919921875" lon="13.12078538350760936737060546875">
        <ele>516</ele>
        <time>2021-05-25T07:29:07.000Z</time>
        <extensions>
          <ns3:TrackPointExtension>
            <ns3:atemp>17.0</ns3:atemp>
          </ns3:TrackPointExtension>
        </extensions>
      </trkpt>
      <trkpt lat="43.12993361614644527435302734375" lon="13.12086266465485095977783203125">
        <ele>515</ele>
        <time>2021-05-25T07:29:09.000Z</time>
        <extensions>
          <ns3:TrackPointExtension>
            <ns3:atemp>17.0</ns3:atemp>
          </ns3:TrackPointExtension>
        </extensions>
      </trkpt>
      <trkpt lat="43.12989841215312480926513671875" lon="13.1209321506321430206298828125">
        <ele>513.79998779296875</ele>
        <time>2021-05-25T07:29:11.000Z</time>
        <extensions>
          <ns3:TrackPointExtension>
            <ns3:atemp>17.0</ns3:atemp>
          </ns3:TrackPointExtension>
        </extensions>
      </trkpt>
      <trkpt lat="43.1298289261758327484130859375" lon="13.1210176460444927215576171875">
        <ele>512.4000244140625</ele>
        <time>2021-05-25T07:29:14.000Z</time>
        <extensions>
          <ns3:TrackPointExtension>
            <ns3:atemp>17.0</ns3:atemp>
          </ns3:TrackPointExtension>
        </extensions>
      </trkpt>
      <trkpt lat="43.12980830669403076171875" lon="13.12104421667754650115966796875">
        <ele>512.20001220703125</ele>
        <time>2021-05-25T07:29:15.000Z</time>
        <extensions>
          <ns3:TrackPointExtension>
            <ns3:atemp>17.0</ns3:atemp>
          </ns3:TrackPointExtension>
        </extensions>
      </trkpt>
      <trkpt lat="43.12975826673209667205810546875" lon="13.12109853141009807586669921875">
        <ele>511.20001220703125</ele>
        <time>2021-05-25T07:29:18.000Z</time>
        <extensions>
          <ns3:TrackPointExtension>
            <ns3:atemp>18.0</ns3:atemp>
          </ns3:TrackPointExtension>
        </extensions>
      </trkpt>
      <trkpt lat="43.12975390814244747161865234375" lon="13.12111227773129940032958984375">
        <ele>510.79998779296875</ele>
        <time>2021-05-25T07:29:20.000Z</time>
        <extensions>
          <ns3:TrackPointExtension>
            <ns3:atemp>18.0</ns3:atemp>
          </ns3:TrackPointExtension>
        </extensions>
      </trkpt>
      <trkpt lat="43.1297454424202442169189453125" lon="13.121118061244487762451171875">
        <ele>510.20001220703125</ele>
        <time>2021-05-25T07:29:22.000Z</time>
        <extensions>
          <ns3:TrackPointExtension>
            <ns3:atemp>18.0</ns3:atemp>
          </ns3:TrackPointExtension>
        </extensions>
      </trkpt>
      <trkpt lat="43.12974728643894195556640625" lon="13.12112401239573955535888671875">
        <ele>509</ele>
        <time>2021-05-25T07:29:25.000Z</time>
        <extensions>
          <ns3:TrackPointExtension>
            <ns3:atemp>18.0</ns3:atemp>
          </ns3:TrackPointExtension>
        </extensions>
      </trkpt>
      <trkpt lat="43.12974787317216396331787109375" lon="13.12112309038639068603515625">
        <ele>508.600006103515625</ele>
        <time>2021-05-25T07:29:27.000Z</time>
        <extensions>
          <ns3:TrackPointExtension>
            <ns3:atemp>18.0</ns3:atemp>
          </ns3:TrackPointExtension>
        </extensions>
      </trkpt>
      <trkpt lat="43.1297464482486248016357421875" lon="13.121118731796741485595703125">
        <ele>508.20001220703125</ele>
        <time>2021-05-25T07:29:39.000Z</time>
        <extensions>
          <ns3:TrackPointExtension>
            <ns3:atemp>18.0</ns3:atemp>
          </ns3:TrackPointExtension>
        </extensions>
      </trkpt>
      <trkpt lat="43.1297461129724979400634765625" lon="13.1211178936064243316650390625">
        <ele>508</ele>
        <time>2021-05-25T07:29:41.000Z</time>
        <extensions>
          <ns3:TrackPointExtension>
            <ns3:atemp>18.0</ns3:atemp>
          </ns3:TrackPointExtension>
        </extensions>
      </trkpt>
      <trkpt lat="43.12975206412374973297119140625" lon="13.1211155466735363006591796875">
        <ele>507.79998779296875</ele>
        <time>2021-05-25T07:29:55.000Z</time>
        <extensions>
          <ns3:TrackPointExtension>
            <ns3:atemp>18.0</ns3:atemp>
          </ns3:TrackPointExtension>
        </extensions>
      </trkpt>
      <trkpt lat="43.12975273467600345611572265625" lon="13.1211155466735363006591796875">
        <ele>507.600006103515625</ele>
        <time>2021-05-25T07:30:09.000Z</time>
        <extensions>
          <ns3:TrackPointExtension>
            <ns3:atemp>18.0</ns3:atemp>
          </ns3:TrackPointExtension>
        </extensions>
      </trkpt>
      <trkpt lat="43.12975290231406688690185546875" lon="13.12111504375934600830078125">
        <ele>507.600006103515625</ele>
        <time>2021-05-25T07:30:10.000Z</time>
        <extensions>
          <ns3:TrackPointExtension>
            <ns3:atemp>18.0</ns3:atemp>
          </ns3:TrackPointExtension>
        </extensions>
      </trkpt>
      <trkpt lat="43.1297501362860202789306640625" lon="13.1211108528077602386474609375">
        <ele>507.600006103515625</ele>
        <time>2021-05-25T07:30:20.000Z</time>
        <extensions>
          <ns3:TrackPointExtension>
            <ns3:atemp>18.0</ns3:atemp>
          </ns3:TrackPointExtension>
        </extensions>
      </trkpt>
      <trkpt lat="43.12974862754344940185546875" lon="13.1211051531136035919189453125">
        <ele>507.600006103515625</ele>
        <time>2021-05-25T07:30:33.000Z</time>
        <extensions>
          <ns3:TrackPointExtension>
            <ns3:atemp>18.0</ns3:atemp>
          </ns3:TrackPointExtension>
        </extensions>
      </trkpt>
      <trkpt lat="43.1297125853598117828369140625" lon="13.12115603126585483551025390625">
        <ele>507.600006103515625</ele>
        <time>2021-05-25T07:30:41.000Z</time>
        <extensions>
          <ns3:TrackPointExtension>
            <ns3:atemp>18.0</ns3:atemp>
          </ns3:TrackPointExtension>
        </extensions>
      </trkpt>
      <trkpt lat="43.12959850765764713287353515625" lon="13.12133205123245716094970703125">
        <ele>507.399993896484375</ele>
        <time>2021-05-25T07:30:47.000Z</time>
        <extensions>
          <ns3:TrackPointExtension>
            <ns3:atemp>18.0</ns3:atemp>
          </ns3:TrackPointExtension>
        </extensions>
      </trkpt>
      <trkpt lat="43.1295764632523059844970703125" lon="13.12138133682310581207275390625">
        <ele>507</ele>
        <time>2021-05-25T07:30:51.000Z</time>
        <extensions>
          <ns3:TrackPointExtension>
            <ns3:atemp>18.0</ns3:atemp>
          </ns3:TrackPointExtension>
        </extensions>
      </trkpt>
      <trkpt lat="43.12957604415714740753173828125" lon="13.12138686887919902801513671875">
        <ele>507</ele>
        <time>2021-05-25T07:30:52.000Z</time>
        <extensions>
          <ns3:TrackPointExtension>
            <ns3:atemp>18.0</ns3:atemp>
          </ns3:TrackPointExtension>
        </extensions>
      </trkpt>
      <trkpt lat="43.12957369722425937652587890625" lon="13.12140581198036670684814453125">
        <ele>506.79998779296875</ele>
        <time>2021-05-25T07:30:53.000Z</time>
        <extensions>
          <ns3:TrackPointExtension>
            <ns3:atemp>18.0</ns3:atemp>
          </ns3:TrackPointExtension>
        </extensions>
      </trkpt>
      <trkpt lat="43.12956246547400951385498046875" lon="13.1214528344571590423583984375">
        <ele>506.20001220703125</ele>
        <time>2021-05-25T07:30:55.000Z</time>
        <extensions>
          <ns3:TrackPointExtension>
            <ns3:atemp>18.0</ns3:atemp>
          </ns3:TrackPointExtension>
        </extensions>
      </trkpt>
      <trkpt lat="43.12955575995147228240966796875" lon="13.12147454358637332916259765625">
        <ele>505.600006103515625</ele>
        <time>2021-05-25T07:30:56.000Z</time>
        <extensions>
          <ns3:TrackPointExtension>
            <ns3:atemp>18.0</ns3:atemp>
          </ns3:TrackPointExtension>
        </extensions>
      </trkpt>
      <trkpt lat="43.1295503117144107818603515625" lon="13.12149315141141414642333984375">
        <ele>505.399993896484375</ele>
        <time>2021-05-25T07:30:57.000Z</time>
        <extensions>
          <ns3:TrackPointExtension>
            <ns3:atemp>18.0</ns3:atemp>
          </ns3:TrackPointExtension>
        </extensions>
      </trkpt>
      <trkpt lat="43.12954167835414409637451171875" lon="13.121517039835453033447265625">
        <ele>504.600006103515625</ele>
        <time>2021-05-25T07:31:00.000Z</time>
        <extensions>
          <ns3:TrackPointExtension>
            <ns3:atemp>18.0</ns3:atemp>
          </ns3:TrackPointExtension>
        </extensions>
      </trkpt>
      <trkpt lat="43.12955081462860107421875" lon="13.12154998071491718292236328125">
        <ele>503.20001220703125</ele>
        <time>2021-05-25T07:31:05.000Z</time>
        <extensions>
          <ns3:TrackPointExtension>
            <ns3:atemp>18.0</ns3:atemp>
          </ns3:TrackPointExtension>
        </extensions>
      </trkpt>
      <trkpt lat="43.129555843770503997802734375" lon="13.12154813669621944427490234375">
        <ele>502.20001220703125</ele>
        <time>2021-05-25T07:31:08.000Z</time>
        <extensions>
          <ns3:TrackPointExtension>
            <ns3:atemp>18.0</ns3:atemp>
          </ns3:TrackPointExtension>
        </extensions>
      </trkpt>
      <trkpt lat="43.12955542467534542083740234375" lon="13.12152818776667118072509765625">
        <ele>501.79998779296875</ele>
        <time>2021-05-25T07:31:10.000Z</time>
        <extensions>
          <ns3:TrackPointExtension>
            <ns3:atemp>18.0</ns3:atemp>
          </ns3:TrackPointExtension>
        </extensions>
      </trkpt>
      <trkpt lat="43.1295667402446269989013671875" lon="13.12151603400707244873046875">
        <ele>501.79998779296875</ele>
        <time>2021-05-25T07:31:18.000Z</time>
        <extensions>
          <ns3:TrackPointExtension>
            <ns3:atemp>18.0</ns3:atemp>
          </ns3:TrackPointExtension>
        </extensions>
      </trkpt>
      <trkpt lat="43.1295669078826904296875" lon="13.1215148605406284332275390625">
        <ele>502.79998779296875</ele>
        <time>2021-05-25T07:31:26.000Z</time>
        <extensions>
          <ns3:TrackPointExtension>
            <ns3:atemp>18.0</ns3:atemp>
          </ns3:TrackPointExtension>
        </extensions>
      </trkpt>
      <trkpt lat="43.129565231502056121826171875" lon="13.12150857411324977874755859375">
        <ele>503</ele>
        <time>2021-05-25T07:31:37.000Z</time>
        <extensions>
          <ns3:TrackPointExtension>
            <ns3:atemp>19.0</ns3:atemp>
          </ns3:TrackPointExtension>
        </extensions>
      </trkpt>
      <trkpt lat="43.129564560949802398681640625" lon="13.12154159881174564361572265625">
        <ele>503</ele>
        <time>2021-05-25T07:31:46.000Z</time>
        <extensions>
          <ns3:TrackPointExtension>
            <ns3:atemp>19.0</ns3:atemp>
          </ns3:TrackPointExtension>
        </extensions>
      </trkpt>
      <trkpt lat="43.129566572606563568115234375" lon="13.121594153344631195068359375">
        <ele>502.20001220703125</ele>
        <time>2021-05-25T07:31:55.000Z</time>
        <extensions>
          <ns3:TrackPointExtension>
            <ns3:atemp>19.0</ns3:atemp>
          </ns3:TrackPointExtension>
        </extensions>
      </trkpt>
      <trkpt lat="43.129556514322757720947265625" lon="13.1217126734554767608642578125">
        <ele>501.79998779296875</ele>
        <time>2021-05-25T07:31:59.000Z</time>
        <extensions>
          <ns3:TrackPointExtension>
            <ns3:atemp>19.0</ns3:atemp>
          </ns3:TrackPointExtension>
        </extensions>
      </trkpt>
      <trkpt lat="43.12952122651040554046630859375" lon="13.1219161860644817352294921875">
        <ele>501.399993896484375</ele>
        <time>2021-05-25T07:32:05.000Z</time>
        <extensions>
          <ns3:TrackPointExtension>
            <ns3:atemp>19.0</ns3:atemp>
          </ns3:TrackPointExtension>
        </extensions>
      </trkpt>
      <trkpt lat="43.12951686792075634002685546875" lon="13.12194661237299442291259765625">
        <ele>501</ele>
        <time>2021-05-25T07:32:06.000Z</time>
        <extensions>
          <ns3:TrackPointExtension>
            <ns3:atemp>19.0</ns3:atemp>
          </ns3:TrackPointExtension>
        </extensions>
      </trkpt>
      <trkpt lat="43.12951259315013885498046875" lon="13.12197729013860225677490234375">
        <ele>500.79998779296875</ele>
        <time>2021-05-25T07:32:07.000Z</time>
        <extensions>
          <ns3:TrackPointExtension>
            <ns3:atemp>19.0</ns3:atemp>
          </ns3:TrackPointExtension>
        </extensions>
      </trkpt>
      <trkpt lat="43.12949826009571552276611328125" lon="13.1220425851643085479736328125">
        <ele>499.79998779296875</ele>
        <time>2021-05-25T07:32:09.000Z</time>
        <extensions>
          <ns3:TrackPointExtension>
            <ns3:atemp>19.0</ns3:atemp>
          </ns3:TrackPointExtension>
        </extensions>
      </trkpt>
      <trkpt lat="43.1294815801084041595458984375" lon="13.12209949828684329986572265625">
        <ele>498.399993896484375</ele>
        <time>2021-05-25T07:32:11.000Z</time>
        <extensions>
          <ns3:TrackPointExtension>
            <ns3:atemp>19.0</ns3:atemp>
          </ns3:TrackPointExtension>
        </extensions>
      </trkpt>
      <trkpt lat="43.1294691748917102813720703125" lon="13.122133947908878326416015625">
        <ele>497.79998779296875</ele>
        <time>2021-05-25T07:32:12.000Z</time>
        <extensions>
          <ns3:TrackPointExtension>
            <ns3:atemp>19.0</ns3:atemp>
          </ns3:TrackPointExtension>
        </extensions>
      </trkpt>
      <trkpt lat="43.1294547580182552337646484375" lon="13.12216856516897678375244140625">
        <ele>497.20001220703125</ele>
        <time>2021-05-25T07:32:13.000Z</time>
        <extensions>
          <ns3:TrackPointExtension>
            <ns3:atemp>19.0</ns3:atemp>
          </ns3:TrackPointExtension>
        </extensions>
      </trkpt>
      <trkpt lat="43.12942181713879108428955078125" lon="13.12226478941738605499267578125">
        <ele>495.79998779296875</ele>
        <time>2021-05-25T07:32:16.000Z</time>
        <extensions>
          <ns3:TrackPointExtension>
            <ns3:atemp>19.0</ns3:atemp>
          </ns3:TrackPointExtension>
        </extensions>
      </trkpt>
      <trkpt lat="43.129405640065670013427734375" lon="13.12232949770987033843994140625">
        <ele>494.79998779296875</ele>
        <time>2021-05-25T07:32:18.000Z</time>
        <extensions>
          <ns3:TrackPointExtension>
            <ns3:atemp>19.0</ns3:atemp>
          </ns3:TrackPointExtension>
        </extensions>
      </trkpt>
      <trkpt lat="43.1293967552483081817626953125" lon="13.12236227095127105712890625">
        <ele>494.399993896484375</ele>
        <time>2021-05-25T07:32:19.000Z</time>
        <extensions>
          <ns3:TrackPointExtension>
            <ns3:atemp>19.0</ns3:atemp>
          </ns3:TrackPointExtension>
        </extensions>
      </trkpt>
      <trkpt lat="43.12935962341725826263427734375" lon="13.1224576570093631744384765625">
        <ele>493.399993896484375</ele>
        <time>2021-05-25T07:32:23.000Z</time>
        <extensions>
          <ns3:TrackPointExtension>
            <ns3:atemp>19.0</ns3:atemp>
          </ns3:TrackPointExtension>
        </extensions>
      </trkpt>
      <trkpt lat="43.129349313676357269287109375" lon="13.12248070724308490753173828125">
        <ele>493.20001220703125</ele>
        <time>2021-05-25T07:32:24.000Z</time>
        <extensions>
          <ns3:TrackPointExtension>
            <ns3:atemp>19.0</ns3:atemp>
          </ns3:TrackPointExtension>
        </extensions>
      </trkpt>
      <trkpt lat="43.1293095834553241729736328125" lon="13.12255161814391613006591796875">
        <ele>492.20001220703125</ele>
        <time>2021-05-25T07:32:27.000Z</time>
        <extensions>
          <ns3:TrackPointExtension>
            <ns3:atemp>19.0</ns3:atemp>
          </ns3:TrackPointExtension>
        </extensions>
      </trkpt>
      <trkpt lat="43.1292636506259441375732421875" lon="13.12262688763439655303955078125">
        <ele>491.20001220703125</ele>
        <time>2021-05-25T07:32:30.000Z</time>
        <extensions>
          <ns3:TrackPointExtension>
            <ns3:atemp>19.0</ns3:atemp>
          </ns3:TrackPointExtension>
        </extensions>
      </trkpt>
      <trkpt lat="43.12924445606768131256103515625" lon="13.12264859676361083984375">
        <ele>490.79998779296875</ele>
        <time>2021-05-25T07:32:31.000Z</time>
        <extensions>
          <ns3:TrackPointExtension>
            <ns3:atemp>19.0</ns3:atemp>
          </ns3:TrackPointExtension>
        </extensions>
      </trkpt>
      <trkpt lat="43.1292034685611724853515625" lon="13.1226715631783008575439453125">
        <ele>490.20001220703125</ele>
        <time>2021-05-25T07:32:33.000Z</time>
        <extensions>
          <ns3:TrackPointExtension>
            <ns3:atemp>19.0</ns3:atemp>
          </ns3:TrackPointExtension>
        </extensions>
      </trkpt>
      <trkpt lat="43.1291851960122585296630859375" lon="13.1226876564323902130126953125">
        <ele>489.79998779296875</ele>
        <time>2021-05-25T07:32:34.000Z</time>
        <extensions>
          <ns3:TrackPointExtension>
            <ns3:atemp>19.0</ns3:atemp>
          </ns3:TrackPointExtension>
        </extensions>
      </trkpt>
      <trkpt lat="43.1291446276009082794189453125" lon="13.12272110022604465484619140625">
        <ele>489.20001220703125</ele>
        <time>2021-05-25T07:32:36.000Z</time>
        <extensions>
          <ns3:TrackPointExtension>
            <ns3:atemp>19.0</ns3:atemp>
          </ns3:TrackPointExtension>
        </extensions>
      </trkpt>
      <trkpt lat="43.12912627123296260833740234375" lon="13.12273836694657802581787109375">
        <ele>489</ele>
        <time>2021-05-25T07:32:37.000Z</time>
        <extensions>
          <ns3:TrackPointExtension>
            <ns3:atemp>19.0</ns3:atemp>
          </ns3:TrackPointExtension>
        </extensions>
      </trkpt>
      <trkpt lat="43.12909056432545185089111328125" lon="13.12281430698931217193603515625">
        <ele>486.79998779296875</ele>
        <time>2021-05-25T07:32:40.000Z</time>
        <extensions>
          <ns3:TrackPointExtension>
            <ns3:atemp>19.0</ns3:atemp>
          </ns3:TrackPointExtension>
        </extensions>
      </trkpt>
      <trkpt lat="43.1290822662413120269775390625" lon="13.12284364365041255950927734375">
        <ele>486.399993896484375</ele>
        <time>2021-05-25T07:32:41.000Z</time>
        <extensions>
          <ns3:TrackPointExtension>
            <ns3:atemp>19.0</ns3:atemp>
          </ns3:TrackPointExtension>
        </extensions>
      </trkpt>
      <trkpt lat="43.12906692735850811004638671875" lon="13.12290181405842304229736328125">
        <ele>485.600006103515625</ele>
        <time>2021-05-25T07:32:43.000Z</time>
        <extensions>
          <ns3:TrackPointExtension>
            <ns3:atemp>19.0</ns3:atemp>
          </ns3:TrackPointExtension>
        </extensions>
      </trkpt>
      <trkpt lat="43.1290537677705287933349609375" lon="13.12301262281835079193115234375">
        <ele>484.20001220703125</ele>
        <time>2021-05-25T07:32:46.000Z</time>
        <extensions>
          <ns3:TrackPointExtension>
            <ns3:atemp>19.0</ns3:atemp>
          </ns3:TrackPointExtension>
        </extensions>
      </trkpt>
      <trkpt lat="43.12903658486902713775634765625" lon="13.1230873055756092071533203125">
        <ele>483.20001220703125</ele>
        <time>2021-05-25T07:32:48.000Z</time>
        <extensions>
          <ns3:TrackPointExtension>
            <ns3:atemp>19.0</ns3:atemp>
          </ns3:TrackPointExtension>
        </extensions>
      </trkpt>
      <trkpt lat="43.1290068291127681732177734375" lon="13.12314706854522228240966796875">
        <ele>482.20001220703125</ele>
        <time>2021-05-25T07:32:50.000Z</time>
        <extensions>
          <ns3:TrackPointExtension>
            <ns3:atemp>19.0</ns3:atemp>
          </ns3:TrackPointExtension>
        </extensions>
      </trkpt>
      <trkpt lat="43.128968775272369384765625" lon="13.12319769524037837982177734375">
        <ele>481</ele>
        <time>2021-05-25T07:32:52.000Z</time>
        <extensions>
          <ns3:TrackPointExtension>
            <ns3:atemp>19.0</ns3:atemp>
          </ns3:TrackPointExtension>
        </extensions>
      </trkpt>
      <trkpt lat="43.1289320625364780426025390625" lon="13.12324211932718753814697265625">
        <ele>479.399993896484375</ele>
        <time>2021-05-25T07:32:54.000Z</time>
        <extensions>
          <ns3:TrackPointExtension>
            <ns3:atemp>19.0</ns3:atemp>
          </ns3:TrackPointExtension>
        </extensions>
      </trkpt>
      <trkpt lat="43.12890046276152133941650390625" lon="13.123294673860073089599609375">
        <ele>478</ele>
        <time>2021-05-25T07:32:56.000Z</time>
        <extensions>
          <ns3:TrackPointExtension>
            <ns3:atemp>19.0</ns3:atemp>
          </ns3:TrackPointExtension>
        </extensions>
      </trkpt>
      <trkpt lat="43.12886408530175685882568359375" lon="13.12333566136658191680908203125">
        <ele>477</ele>
        <time>2021-05-25T07:32:58.000Z</time>
        <extensions>
          <ns3:TrackPointExtension>
            <ns3:atemp>19.0</ns3:atemp>
          </ns3:TrackPointExtension>
        </extensions>
      </trkpt>
      <trkpt lat="43.1288479082286357879638671875" lon="13.1233518384397029876708984375">
        <ele>476.600006103515625</ele>
        <time>2021-05-25T07:32:59.000Z</time>
        <extensions>
          <ns3:TrackPointExtension>
            <ns3:atemp>19.0</ns3:atemp>
          </ns3:TrackPointExtension>
        </extensions>
      </trkpt>
      <trkpt lat="43.128840029239654541015625" lon="13.1233726255595684051513671875">
        <ele>476.20001220703125</ele>
        <time>2021-05-25T07:33:00.000Z</time>
        <extensions>
          <ns3:TrackPointExtension>
            <ns3:atemp>19.0</ns3:atemp>
          </ns3:TrackPointExtension>
        </extensions>
      </trkpt>
      <trkpt lat="43.12882234342396259307861328125" lon="13.1234235875308513641357421875">
        <ele>475.399993896484375</ele>
        <time>2021-05-25T07:33:02.000Z</time>
        <extensions>
          <ns3:TrackPointExtension>
            <ns3:atemp>19.0</ns3:atemp>
          </ns3:TrackPointExtension>
        </extensions>
      </trkpt>
      <trkpt lat="43.12881345860660076141357421875" lon="13.12345317564904689788818359375">
        <ele>475.20001220703125</ele>
        <time>2021-05-25T07:33:03.000Z</time>
        <extensions>
          <ns3:TrackPointExtension>
            <ns3:atemp>19.0</ns3:atemp>
          </ns3:TrackPointExtension>
        </extensions>
      </trkpt>
      <trkpt lat="43.128797449171543121337890625" lon="13.12351486645638942718505859375">
        <ele>474.20001220703125</ele>
        <time>2021-05-25T07:33:05.000Z</time>
        <extensions>
          <ns3:TrackPointExtension>
            <ns3:atemp>19.0</ns3:atemp>
          </ns3:TrackPointExtension>
        </extensions>
      </trkpt>
      <trkpt lat="43.12877926044166088104248046875" lon="13.12361846677958965301513671875">
        <ele>473</ele>
        <time>2021-05-25T07:33:08.000Z</time>
        <extensions>
          <ns3:TrackPointExtension>
            <ns3:atemp>19.0</ns3:atemp>
          </ns3:TrackPointExtension>
        </extensions>
      </trkpt>
      <trkpt lat="43.12876434065401554107666015625" lon="13.1236954964697360992431640625">
        <ele>471.600006103515625</ele>
        <time>2021-05-25T07:33:10.000Z</time>
        <extensions>
          <ns3:TrackPointExtension>
            <ns3:atemp>19.0</ns3:atemp>
          </ns3:TrackPointExtension>
        </extensions>
      </trkpt>
      <trkpt lat="43.12874254770576953887939453125" lon="13.12376816757023334503173828125">
        <ele>470.600006103515625</ele>
        <time>2021-05-25T07:33:12.000Z</time>
        <extensions>
          <ns3:TrackPointExtension>
            <ns3:atemp>19.0</ns3:atemp>
          </ns3:TrackPointExtension>
        </extensions>
      </trkpt>
      <trkpt lat="43.1287308968603610992431640625" lon="13.1238140165805816650390625">
        <ele>469.399993896484375</ele>
        <time>2021-05-25T07:33:14.000Z</time>
        <extensions>
          <ns3:TrackPointExtension>
            <ns3:atemp>19.0</ns3:atemp>
          </ns3:TrackPointExtension>
        </extensions>
      </trkpt>
      <trkpt lat="43.1287305615842342376708984375" lon="13.123822398483753204345703125">
        <ele>468.600006103515625</ele>
        <time>2021-05-25T07:33:15.000Z</time>
        <extensions>
          <ns3:TrackPointExtension>
            <ns3:atemp>19.0</ns3:atemp>
          </ns3:TrackPointExtension>
        </extensions>
      </trkpt>
      <trkpt lat="43.12873114831745624542236328125" lon="13.1238356418907642364501953125">
        <ele>467.79998779296875</ele>
        <time>2021-05-25T07:33:16.000Z</time>
        <extensions>
          <ns3:TrackPointExtension>
            <ns3:atemp>19.0</ns3:atemp>
          </ns3:TrackPointExtension>
        </extensions>
      </trkpt>
      <trkpt lat="43.12872938811779022216796875" lon="13.1238555908203125">
        <ele>467</ele>
        <time>2021-05-25T07:33:17.000Z</time>
        <extensions>
          <ns3:TrackPointExtension>
            <ns3:atemp>19.0</ns3:atemp>
          </ns3:TrackPointExtension>
        </extensions>
      </trkpt>
      <trkpt lat="43.12872578389942646026611328125" lon="13.1238785572350025177001953125">
        <ele>466.399993896484375</ele>
        <time>2021-05-25T07:33:18.000Z</time>
        <extensions>
          <ns3:TrackPointExtension>
            <ns3:atemp>19.0</ns3:atemp>
          </ns3:TrackPointExtension>
        </extensions>
      </trkpt>
      <trkpt lat="43.128710947930812835693359375" lon="13.123937733471393585205078125">
        <ele>465.20001220703125</ele>
        <time>2021-05-25T07:33:20.000Z</time>
        <extensions>
          <ns3:TrackPointExtension>
            <ns3:atemp>19.0</ns3:atemp>
          </ns3:TrackPointExtension>
        </extensions>
      </trkpt>
      <trkpt lat="43.12869946472346782684326171875" lon="13.12396966852247714996337890625">
        <ele>464.79998779296875</ele>
        <time>2021-05-25T07:33:21.000Z</time>
        <extensions>
          <ns3:TrackPointExtension>
            <ns3:atemp>19.0</ns3:atemp>
          </ns3:TrackPointExtension>
        </extensions>
      </trkpt>
      <trkpt lat="43.12868672423064708709716796875" lon="13.1239948980510234832763671875">
        <ele>464.20001220703125</ele>
        <time>2021-05-25T07:33:22.000Z</time>
        <extensions>
          <ns3:TrackPointExtension>
            <ns3:atemp>19.0</ns3:atemp>
          </ns3:TrackPointExtension>
        </extensions>
      </trkpt>
      <trkpt lat="43.1286227703094482421875" lon="13.12407058663666248321533203125">
        <ele>463.20001220703125</ele>
        <time>2021-05-25T07:33:26.000Z</time>
        <extensions>
          <ns3:TrackPointExtension>
            <ns3:atemp>19.0</ns3:atemp>
          </ns3:TrackPointExtension>
        </extensions>
      </trkpt>
      <trkpt lat="43.12859552912414073944091796875" lon="13.124085254967212677001953125">
        <ele>462.399993896484375</ele>
        <time>2021-05-25T07:33:28.000Z</time>
        <extensions>
          <ns3:TrackPointExtension>
            <ns3:atemp>19.0</ns3:atemp>
          </ns3:TrackPointExtension>
        </extensions>
      </trkpt>
      <trkpt lat="43.12858245335519313812255859375" lon="13.12409439124166965484619140625">
        <ele>462</ele>
        <time>2021-05-25T07:33:29.000Z</time>
        <extensions>
          <ns3:TrackPointExtension>
            <ns3:atemp>19.0</ns3:atemp>
          </ns3:TrackPointExtension>
        </extensions>
      </trkpt>
      <trkpt lat="43.12856920994818210601806640625" lon="13.1241122446954250335693359375">
        <ele>461.399993896484375</ele>
        <time>2021-05-25T07:33:30.000Z</time>
        <extensions>
          <ns3:TrackPointExtension>
            <ns3:atemp>19.0</ns3:atemp>
          </ns3:TrackPointExtension>
        </extensions>
      </trkpt>
      <trkpt lat="43.12855370342731475830078125" lon="13.124126829206943511962890625">
        <ele>461</ele>
        <time>2021-05-25T07:33:31.000Z</time>
        <extensions>
          <ns3:TrackPointExtension>
            <ns3:atemp>19.0</ns3:atemp>
          </ns3:TrackPointExtension>
        </extensions>
      </trkpt>
      <trkpt lat="43.12854708172380924224853515625" lon="13.1241477839648723602294921875">
        <ele>460.399993896484375</ele>
        <time>2021-05-25T07:33:32.000Z</time>
        <extensions>
          <ns3:TrackPointExtension>
            <ns3:atemp>19.0</ns3:atemp>
          </ns3:TrackPointExtension>
        </extensions>
      </trkpt>
      <trkpt lat="43.12852109782397747039794921875" lon="13.12419631518423557281494140625">
        <ele>459.20001220703125</ele>
        <time>2021-05-25T07:33:34.000Z</time>
        <extensions>
          <ns3:TrackPointExtension>
            <ns3:atemp>19.0</ns3:atemp>
          </ns3:TrackPointExtension>
        </extensions>
      </trkpt>
      <trkpt lat="43.1285079382359981536865234375" lon="13.12421844340860843658447265625">
        <ele>458.79998779296875</ele>
        <time>2021-05-25T07:33:35.000Z</time>
        <extensions>
          <ns3:TrackPointExtension>
            <ns3:atemp>19.0</ns3:atemp>
          </ns3:TrackPointExtension>
        </extensions>
      </trkpt>
      <trkpt lat="43.12849461100995540618896484375" lon="13.1242497079074382781982421875">
        <ele>458.20001220703125</ele>
        <time>2021-05-25T07:33:37.000Z</time>
        <extensions>
          <ns3:TrackPointExtension>
            <ns3:atemp>19.0</ns3:atemp>
          </ns3:TrackPointExtension>
        </extensions>
      </trkpt>
      <trkpt lat="43.12849025242030620574951171875" lon="13.1242782063782215118408203125">
        <ele>456.79998779296875</ele>
        <time>2021-05-25T07:33:40.000Z</time>
        <extensions>
          <ns3:TrackPointExtension>
            <ns3:atemp>19.0</ns3:atemp>
          </ns3:TrackPointExtension>
        </extensions>
      </trkpt>
      <trkpt lat="43.12848153524100780487060546875" lon="13.1242852471768856048583984375">
        <ele>455.79998779296875</ele>
        <time>2021-05-25T07:33:42.000Z</time>
        <extensions>
          <ns3:TrackPointExtension>
            <ns3:atemp>19.0</ns3:atemp>
          </ns3:TrackPointExtension>
        </extensions>
      </trkpt>
      <trkpt lat="43.1284780986607074737548828125" lon="13.1242986582219600677490234375">
        <ele>454</ele>
        <time>2021-05-25T07:33:45.000Z</time>
        <extensions>
          <ns3:TrackPointExtension>
            <ns3:atemp>19.0</ns3:atemp>
          </ns3:TrackPointExtension>
        </extensions>
      </trkpt>
      <trkpt lat="43.12847055494785308837890625" lon="13.12433092854917049407958984375">
        <ele>453.399993896484375</ele>
        <time>2021-05-25T07:33:51.000Z</time>
        <extensions>
          <ns3:TrackPointExtension>
            <ns3:atemp>19.0</ns3:atemp>
          </ns3:TrackPointExtension>
        </extensions>
      </trkpt>
      <trkpt lat="43.128459155559539794921875" lon="13.12439714558422565460205078125">
        <ele>453.20001220703125</ele>
        <time>2021-05-25T07:33:58.000Z</time>
        <extensions>
          <ns3:TrackPointExtension>
            <ns3:atemp>19.0</ns3:atemp>
          </ns3:TrackPointExtension>
        </extensions>
      </trkpt>
      <trkpt lat="43.1284482590854167938232421875" lon="13.1245655380189418792724609375">
        <ele>453</ele>
        <time>2021-05-25T07:34:03.000Z</time>
        <extensions>
          <ns3:TrackPointExtension>
            <ns3:atemp>19.0</ns3:atemp>
          </ns3:TrackPointExtension>
        </extensions>
      </trkpt>
      <trkpt lat="43.12845068983733654022216796875" lon="13.12465346418321132659912109375">
        <ele>453</ele>
        <time>2021-05-25T07:34:05.000Z</time>
        <extensions>
          <ns3:TrackPointExtension>
            <ns3:atemp>19.0</ns3:atemp>
          </ns3:TrackPointExtension>
        </extensions>
      </trkpt>
      <trkpt lat="43.12842629849910736083984375" lon="13.1247680447995662689208984375">
        <ele>451.79998779296875</ele>
        <time>2021-05-25T07:34:08.000Z</time>
        <extensions>
          <ns3:TrackPointExtension>
            <ns3:atemp>19.0</ns3:atemp>
          </ns3:TrackPointExtension>
        </extensions>
      </trkpt>
      <trkpt lat="43.12841313891112804412841796875" lon="13.12480065040290355682373046875">
        <ele>450.600006103515625</ele>
        <time>2021-05-25T07:34:09.000Z</time>
        <extensions>
          <ns3:TrackPointExtension>
            <ns3:atemp>19.0</ns3:atemp>
          </ns3:TrackPointExtension>
        </extensions>
      </trkpt>
      <trkpt lat="43.12837793491780757904052734375" lon="13.124874494969844818115234375">
        <ele>449.600006103515625</ele>
        <time>2021-05-25T07:34:11.000Z</time>
        <extensions>
          <ns3:TrackPointExtension>
            <ns3:atemp>19.0</ns3:atemp>
          </ns3:TrackPointExtension>
        </extensions>
      </trkpt>
      <trkpt lat="43.1283362768590450286865234375" lon="13.1249485909938812255859375">
        <ele>448.600006103515625</ele>
        <time>2021-05-25T07:34:13.000Z</time>
        <extensions>
          <ns3:TrackPointExtension>
            <ns3:atemp>19.0</ns3:atemp>
          </ns3:TrackPointExtension>
        </extensions>
      </trkpt>
      <trkpt lat="43.1283128075301647186279296875" lon="13.12498572282493114471435546875">
        <ele>448.20001220703125</ele>
        <time>2021-05-25T07:34:14.000Z</time>
        <extensions>
          <ns3:TrackPointExtension>
            <ns3:atemp>19.0</ns3:atemp>
          </ns3:TrackPointExtension>
        </extensions>
      </trkpt>
      <trkpt lat="43.12823125161230564117431640625" lon="13.1250801868736743927001953125">
        <ele>446.79998779296875</ele>
        <time>2021-05-25T07:34:17.000Z</time>
        <extensions>
          <ns3:TrackPointExtension>
            <ns3:atemp>19.0</ns3:atemp>
          </ns3:TrackPointExtension>
        </extensions>
      </trkpt>
      <trkpt lat="43.1281870789825916290283203125" lon="13.12513877637684345245361328125">
        <ele>446.20001220703125</ele>
        <time>2021-05-25T07:34:19.000Z</time>
        <extensions>
          <ns3:TrackPointExtension>
            <ns3:atemp>19.0</ns3:atemp>
          </ns3:TrackPointExtension>
        </extensions>
      </trkpt>
      <trkpt lat="43.12816671095788478851318359375" lon="13.12517448328435420989990234375">
        <ele>445.79998779296875</ele>
        <time>2021-05-25T07:34:20.000Z</time>
        <extensions>
          <ns3:TrackPointExtension>
            <ns3:atemp>19.0</ns3:atemp>
          </ns3:TrackPointExtension>
        </extensions>
      </trkpt>
      <trkpt lat="43.128091357648372650146484375" lon="13.125370703637599945068359375">
        <ele>444.600006103515625</ele>
        <time>2021-05-25T07:34:24.000Z</time>
        <extensions>
          <ns3:TrackPointExtension>
            <ns3:atemp>19.0</ns3:atemp>
          </ns3:TrackPointExtension>
        </extensions>
      </trkpt>
      <trkpt lat="43.12804919667541980743408203125" lon="13.12552887015044689178466796875">
        <ele>443.399993896484375</ele>
        <time>2021-05-25T07:34:28.000Z</time>
        <extensions>
          <ns3:TrackPointExtension>
            <ns3:atemp>20.0</ns3:atemp>
          </ns3:TrackPointExtension>
        </extensions>
      </trkpt>
      <trkpt lat="43.12795766629278659820556640625" lon="13.125719726085662841796875">
        <ele>442.600006103515625</ele>
        <time>2021-05-25T07:34:34.000Z</time>
        <extensions>
          <ns3:TrackPointExtension>
            <ns3:atemp>20.0</ns3:atemp>
          </ns3:TrackPointExtension>
        </extensions>
      </trkpt>
      <trkpt lat="43.12784870155155658721923828125" lon="13.12584553845226764678955078125">
        <ele>442.600006103515625</ele>
        <time>2021-05-25T07:34:39.000Z</time>
        <extensions>
          <ns3:TrackPointExtension>
            <ns3:atemp>20.0</ns3:atemp>
          </ns3:TrackPointExtension>
        </extensions>
      </trkpt>
      <trkpt lat="43.12782187946140766143798828125" lon="13.12593354843556880950927734375">
        <ele>442.20001220703125</ele>
        <time>2021-05-25T07:34:42.000Z</time>
        <extensions>
          <ns3:TrackPointExtension>
            <ns3:atemp>20.0</ns3:atemp>
          </ns3:TrackPointExtension>
        </extensions>
      </trkpt>
      <trkpt lat="43.1278031878173351287841796875" lon="13.12600362114608287811279296875">
        <ele>442</ele>
        <time>2021-05-25T07:34:44.000Z</time>
        <extensions>
          <ns3:TrackPointExtension>
            <ns3:atemp>20.0</ns3:atemp>
          </ns3:TrackPointExtension>
        </extensions>
      </trkpt>
      <trkpt lat="43.1278018467128276824951171875" lon="13.1260370649397373199462890625">
        <ele>442</ele>
        <time>2021-05-25T07:34:45.000Z</time>
        <extensions>
          <ns3:TrackPointExtension>
            <ns3:atemp>20.0</ns3:atemp>
          </ns3:TrackPointExtension>
        </extensions>
      </trkpt>
      <trkpt lat="43.127794302999973297119140625" lon="13.12614946626126766204833984375">
        <ele>441.79998779296875</ele>
        <time>2021-05-25T07:34:48.000Z</time>
        <extensions>
          <ns3:TrackPointExtension>
            <ns3:atemp>20.0</ns3:atemp>
          </ns3:TrackPointExtension>
        </extensions>
      </trkpt>
      <trkpt lat="43.1277398206293582916259765625" lon="13.12641651369631290435791015625">
        <ele>441.399993896484375</ele>
        <time>2021-05-25T07:34:54.000Z</time>
        <extensions>
          <ns3:TrackPointExtension>
            <ns3:atemp>20.0</ns3:atemp>
          </ns3:TrackPointExtension>
        </extensions>
      </trkpt>
      <trkpt lat="43.1277207098901271820068359375" lon="13.126524724066257476806640625">
        <ele>441.20001220703125</ele>
        <time>2021-05-25T07:34:56.000Z</time>
        <extensions>
          <ns3:TrackPointExtension>
            <ns3:atemp>20.0</ns3:atemp>
          </ns3:TrackPointExtension>
        </extensions>
      </trkpt>
      <trkpt lat="43.1276757828891277313232421875" lon="13.12669345177710056304931640625">
        <ele>441</ele>
        <time>2021-05-25T07:35:00.000Z</time>
        <extensions>
          <ns3:TrackPointExtension>
            <ns3:atemp>20.0</ns3:atemp>
          </ns3:TrackPointExtension>
        </extensions>
      </trkpt>
      <trkpt lat="43.1276764534413814544677734375" lon="13.12671742402017116546630859375">
        <ele>441</ele>
        <time>2021-05-25T07:35:01.000Z</time>
        <extensions>
          <ns3:TrackPointExtension>
            <ns3:atemp>20.0</ns3:atemp>
          </ns3:TrackPointExtension>
        </extensions>
      </trkpt>
      <trkpt lat="43.127676285803318023681640625" lon="13.12673519365489482879638671875">
        <ele>440.600006103515625</ele>
        <time>2021-05-25T07:35:03.000Z</time>
        <extensions>
          <ns3:TrackPointExtension>
            <ns3:atemp>20.0</ns3:atemp>
          </ns3:TrackPointExtension>
        </extensions>
      </trkpt>
      <trkpt lat="43.1276741065084934234619140625" lon="13.12674768269062042236328125">
        <ele>440</ele>
        <time>2021-05-25T07:35:05.000Z</time>
        <extensions>
          <ns3:TrackPointExtension>
            <ns3:atemp>20.0</ns3:atemp>
          </ns3:TrackPointExtension>
        </extensions>
      </trkpt>
      <trkpt lat="43.12766849063336849212646484375" lon="13.12676318921148777008056640625">
        <ele>439</ele>
        <time>2021-05-25T07:35:08.000Z</time>
        <extensions>
          <ns3:TrackPointExtension>
            <ns3:atemp>20.0</ns3:atemp>
          </ns3:TrackPointExtension>
        </extensions>
      </trkpt>
      <trkpt lat="43.12767016701400279998779296875" lon="13.12678447924554347991943359375">
        <ele>438</ele>
        <time>2021-05-25T07:35:13.000Z</time>
        <extensions>
          <ns3:TrackPointExtension>
            <ns3:atemp>20.0</ns3:atemp>
          </ns3:TrackPointExtension>
        </extensions>
      </trkpt>
      <trkpt lat="43.1276781298220157623291015625" lon="13.1267974711954593658447265625">
        <ele>437.79998779296875</ele>
        <time>2021-05-25T07:35:16.000Z</time>
        <extensions>
          <ns3:TrackPointExtension>
            <ns3:atemp>20.0</ns3:atemp>
          </ns3:TrackPointExtension>
        </extensions>
      </trkpt>
      <trkpt lat="43.127681314945220947265625" lon="13.12686846591532230377197265625">
        <ele>437.79998779296875</ele>
        <time>2021-05-25T07:35:24.000Z</time>
        <extensions>
          <ns3:TrackPointExtension>
            <ns3:atemp>20.0</ns3:atemp>
          </ns3:TrackPointExtension>
        </extensions>
      </trkpt>
      <trkpt lat="43.12766916118562221527099609375" lon="13.12689210288226604461669921875">
        <ele>437.79998779296875</ele>
        <time>2021-05-25T07:35:25.000Z</time>
        <extensions>
          <ns3:TrackPointExtension>
            <ns3:atemp>20.0</ns3:atemp>
          </ns3:TrackPointExtension>
        </extensions>
      </trkpt>
      <trkpt lat="43.1276435963809490203857421875" lon="13.12699268572032451629638671875">
        <ele>437.79998779296875</ele>
        <time>2021-05-25T07:35:28.000Z</time>
        <extensions>
          <ns3:TrackPointExtension>
            <ns3:atemp>20.0</ns3:atemp>
          </ns3:TrackPointExtension>
        </extensions>
      </trkpt>
      <trkpt lat="43.12763010151684284210205078125" lon="13.1270291469991207122802734375">
        <ele>437.79998779296875</ele>
        <time>2021-05-25T07:35:29.000Z</time>
        <extensions>
          <ns3:TrackPointExtension>
            <ns3:atemp>20.0</ns3:atemp>
          </ns3:TrackPointExtension>
        </extensions>
      </trkpt>
      <trkpt lat="43.12757042236626148223876953125" lon="13.1271639280021190643310546875">
        <ele>437.600006103515625</ele>
        <time>2021-05-25T07:35:33.000Z</time>
        <extensions>
          <ns3:TrackPointExtension>
            <ns3:atemp>20.0</ns3:atemp>
          </ns3:TrackPointExtension>
        </extensions>
      </trkpt>
      <trkpt lat="43.12753639183938503265380859375" lon="13.12731991522014141082763671875">
        <ele>436.600006103515625</ele>
        <time>2021-05-25T07:35:37.000Z</time>
        <extensions>
          <ns3:TrackPointExtension>
            <ns3:atemp>20.0</ns3:atemp>
          </ns3:TrackPointExtension>
        </extensions>
      </trkpt>
      <trkpt lat="43.1275324523448944091796875" lon="13.12736383639276027679443359375">
        <ele>436.399993896484375</ele>
        <time>2021-05-25T07:35:38.000Z</time>
        <extensions>
          <ns3:TrackPointExtension>
            <ns3:atemp>20.0</ns3:atemp>
          </ns3:TrackPointExtension>
        </extensions>
      </trkpt>
      <trkpt lat="43.127516694366931915283203125" lon="13.12744363211095333099365234375">
        <ele>435.600006103515625</ele>
        <time>2021-05-25T07:35:40.000Z</time>
        <extensions>
          <ns3:TrackPointExtension>
            <ns3:atemp>20.0</ns3:atemp>
          </ns3:TrackPointExtension>
        </extensions>
      </trkpt>
      <trkpt lat="43.1275083124637603759765625" lon="13.12756047584116458892822265625">
        <ele>434.20001220703125</ele>
        <time>2021-05-25T07:35:43.000Z</time>
        <extensions>
          <ns3:TrackPointExtension>
            <ns3:atemp>20.0</ns3:atemp>
          </ns3:TrackPointExtension>
        </extensions>
      </trkpt>
      <trkpt lat="43.12750135548412799835205078125" lon="13.12759199179708957672119140625">
        <ele>433.79998779296875</ele>
        <time>2021-05-25T07:35:44.000Z</time>
        <extensions>
          <ns3:TrackPointExtension>
            <ns3:atemp>20.0</ns3:atemp>
          </ns3:TrackPointExtension>
        </extensions>
      </trkpt>
      <trkpt lat="43.12748727388679981231689453125" lon="13.127648569643497467041015625">
        <ele>433</ele>
        <time>2021-05-25T07:35:46.000Z</time>
        <extensions>
          <ns3:TrackPointExtension>
            <ns3:atemp>20.0</ns3:atemp>
          </ns3:TrackPointExtension>
        </extensions>
      </trkpt>
      <trkpt lat="43.12745274044573307037353515625" lon="13.1277761422097682952880859375">
        <ele>431.79998779296875</ele>
        <time>2021-05-25T07:35:50.000Z</time>
        <extensions>
          <ns3:TrackPointExtension>
            <ns3:atemp>20.0</ns3:atemp>
          </ns3:TrackPointExtension>
        </extensions>
      </trkpt>
      <trkpt lat="43.12742340378463268280029296875" lon="13.1278800778090953826904296875">
        <ele>430.79998779296875</ele>
        <time>2021-05-25T07:35:53.000Z</time>
        <extensions>
          <ns3:TrackPointExtension>
            <ns3:atemp>20.0</ns3:atemp>
          </ns3:TrackPointExtension>
        </extensions>
      </trkpt>
      <trkpt lat="43.12740563414990901947021484375" lon="13.12795962207019329071044921875">
        <ele>429.79998779296875</ele>
        <time>2021-05-25T07:35:55.000Z</time>
        <extensions>
          <ns3:TrackPointExtension>
            <ns3:atemp>20.0</ns3:atemp>
          </ns3:TrackPointExtension>
        </extensions>
      </trkpt>
      <trkpt lat="43.12740035355091094970703125" lon="13.1279967539012432098388671875">
        <ele>429.399993896484375</ele>
        <time>2021-05-25T07:35:56.000Z</time>
        <extensions>
          <ns3:TrackPointExtension>
            <ns3:atemp>20.0</ns3:atemp>
          </ns3:TrackPointExtension>
        </extensions>
      </trkpt>
      <trkpt lat="43.12739633023738861083984375" lon="13.12808132730424404144287109375">
        <ele>428.399993896484375</ele>
        <time>2021-05-25T07:35:58.000Z</time>
        <extensions>
          <ns3:TrackPointExtension>
            <ns3:atemp>20.0</ns3:atemp>
          </ns3:TrackPointExtension>
        </extensions>
      </trkpt>
      <trkpt lat="43.127391971647739410400390625" lon="13.12819247134029865264892578125">
        <ele>427.20001220703125</ele>
        <time>2021-05-25T07:36:00.000Z</time>
        <extensions>
          <ns3:TrackPointExtension>
            <ns3:atemp>20.0</ns3:atemp>
          </ns3:TrackPointExtension>
        </extensions>
      </trkpt>
      <trkpt lat="43.12739021144807338714599609375" lon="13.12824510969221591949462890625">
        <ele>426.79998779296875</ele>
        <time>2021-05-25T07:36:01.000Z</time>
        <extensions>
          <ns3:TrackPointExtension>
            <ns3:atemp>20.0</ns3:atemp>
          </ns3:TrackPointExtension>
        </extensions>
      </trkpt>
      <trkpt lat="43.12738836742937564849853515625" lon="13.12829506583511829376220703125">
        <ele>426.20001220703125</ele>
        <time>2021-05-25T07:36:02.000Z</time>
        <extensions>
          <ns3:TrackPointExtension>
            <ns3:atemp>20.0</ns3:atemp>
          </ns3:TrackPointExtension>
        </extensions>
      </trkpt>
      <trkpt lat="43.12738132663071155548095703125" lon="13.12845633365213871002197265625">
        <ele>424.79998779296875</ele>
        <time>2021-05-25T07:36:05.000Z</time>
        <extensions>
          <ns3:TrackPointExtension>
            <ns3:atemp>20.0</ns3:atemp>
          </ns3:TrackPointExtension>
        </extensions>
      </trkpt>
      <trkpt lat="43.12737814150750637054443359375" lon="13.12854786403477191925048828125">
        <ele>423.399993896484375</ele>
        <time>2021-05-25T07:36:07.000Z</time>
        <extensions>
          <ns3:TrackPointExtension>
            <ns3:atemp>20.0</ns3:atemp>
          </ns3:TrackPointExtension>
        </extensions>
      </trkpt>
      <trkpt lat="43.1273814104497432708740234375" lon="13.128632269799709320068359375">
        <ele>422.399993896484375</ele>
        <time>2021-05-25T07:36:09.000Z</time>
        <extensions>
          <ns3:TrackPointExtension>
            <ns3:atemp>20.0</ns3:atemp>
          </ns3:TrackPointExtension>
        </extensions>
      </trkpt>
      <trkpt lat="43.12738216482102870941162109375" lon="13.12872690148651599884033203125">
        <ele>421.20001220703125</ele>
        <time>2021-05-25T07:36:11.000Z</time>
        <extensions>
          <ns3:TrackPointExtension>
            <ns3:atemp>20.0</ns3:atemp>
          </ns3:TrackPointExtension>
        </extensions>
      </trkpt>
      <trkpt lat="43.12736338935792446136474609375" lon="13.1288171745836734771728515625">
        <ele>420.20001220703125</ele>
        <time>2021-05-25T07:36:13.000Z</time>
        <extensions>
          <ns3:TrackPointExtension>
            <ns3:atemp>20.0</ns3:atemp>
          </ns3:TrackPointExtension>
        </extensions>
      </trkpt>
      <trkpt lat="43.127337656915187835693359375" lon="13.1289727427065372467041015625">
        <ele>419</ele>
        <time>2021-05-25T07:36:16.000Z</time>
        <extensions>
          <ns3:TrackPointExtension>
            <ns3:atemp>20.0</ns3:atemp>
          </ns3:TrackPointExtension>
        </extensions>
      </trkpt>
      <trkpt lat="43.12730706296861171722412109375" lon="13.129117079079151153564453125">
        <ele>418.20001220703125</ele>
        <time>2021-05-25T07:36:19.000Z</time>
        <extensions>
          <ns3:TrackPointExtension>
            <ns3:atemp>20.0</ns3:atemp>
          </ns3:TrackPointExtension>
        </extensions>
      </trkpt>
      <trkpt lat="43.12728828750550746917724609375" lon="13.129169382154941558837890625">
        <ele>417.79998779296875</ele>
        <time>2021-05-25T07:36:20.000Z</time>
        <extensions>
          <ns3:TrackPointExtension>
            <ns3:atemp>20.0</ns3:atemp>
          </ns3:TrackPointExtension>
        </extensions>
      </trkpt>
      <trkpt lat="43.12726758420467376708984375" lon="13.12933660112321376800537109375">
        <ele>416.600006103515625</ele>
        <time>2021-05-25T07:36:23.000Z</time>
        <extensions>
          <ns3:TrackPointExtension>
            <ns3:atemp>20.0</ns3:atemp>
          </ns3:TrackPointExtension>
        </extensions>
      </trkpt>
      <trkpt lat="43.1272588670253753662109375" lon="13.1293871439993381500244140625">
        <ele>416.20001220703125</ele>
        <time>2021-05-25T07:36:24.000Z</time>
        <extensions>
          <ns3:TrackPointExtension>
            <ns3:atemp>20.0</ns3:atemp>
          </ns3:TrackPointExtension>
        </extensions>
      </trkpt>
      <trkpt lat="43.127246797084808349609375" lon="13.12950759194791316986083984375">
        <ele>415.600006103515625</ele>
        <time>2021-05-25T07:36:26.000Z</time>
        <extensions>
          <ns3:TrackPointExtension>
            <ns3:atemp>20.0</ns3:atemp>
          </ns3:TrackPointExtension>
        </extensions>
      </trkpt>
      <trkpt lat="43.12722709961235523223876953125" lon="13.12967120669782161712646484375">
        <ele>414.20001220703125</ele>
        <time>2021-05-25T07:36:29.000Z</time>
        <extensions>
          <ns3:TrackPointExtension>
            <ns3:atemp>20.0</ns3:atemp>
          </ns3:TrackPointExtension>
        </extensions>
      </trkpt>
      <trkpt lat="43.12719441018998622894287109375" lon="13.129823505878448486328125">
        <ele>412.600006103515625</ele>
        <time>2021-05-25T07:36:32.000Z</time>
        <extensions>
          <ns3:TrackPointExtension>
            <ns3:atemp>20.0</ns3:atemp>
          </ns3:TrackPointExtension>
        </extensions>
      </trkpt>
      <trkpt lat="43.1271886266767978668212890625" lon="13.12987941317260265350341796875">
        <ele>412.20001220703125</ele>
        <time>2021-05-25T07:36:33.000Z</time>
        <extensions>
          <ns3:TrackPointExtension>
            <ns3:atemp>20.0</ns3:atemp>
          </ns3:TrackPointExtension>
        </extensions>
      </trkpt>
      <trkpt lat="43.1271819211542606353759765625" lon="13.12993548810482025146484375">
        <ele>411.600006103515625</ele>
        <time>2021-05-25T07:36:34.000Z</time>
        <extensions>
          <ns3:TrackPointExtension>
            <ns3:atemp>20.0</ns3:atemp>
          </ns3:TrackPointExtension>
        </extensions>
      </trkpt>
      <trkpt lat="43.127170018851757049560546875" lon="13.13004034571349620819091796875">
        <ele>410</ele>
        <time>2021-05-25T07:36:36.000Z</time>
        <extensions>
          <ns3:TrackPointExtension>
            <ns3:atemp>20.0</ns3:atemp>
          </ns3:TrackPointExtension>
        </extensions>
      </trkpt>
      <trkpt lat="43.12716222368180751800537109375" lon="13.1301498971879482269287109375">
        <ele>409</ele>
        <time>2021-05-25T07:36:38.000Z</time>
        <extensions>
          <ns3:TrackPointExtension>
            <ns3:atemp>20.0</ns3:atemp>
          </ns3:TrackPointExtension>
        </extensions>
      </trkpt>
      <trkpt lat="43.12715736217796802520751953125" lon="13.13020169734954833984375">
        <ele>408.399993896484375</ele>
        <time>2021-05-25T07:36:39.000Z</time>
        <extensions>
          <ns3:TrackPointExtension>
            <ns3:atemp>20.0</ns3:atemp>
          </ns3:TrackPointExtension>
        </extensions>
      </trkpt>
      <trkpt lat="43.12715535052120685577392578125" lon="13.1302471272647380828857421875">
        <ele>408</ele>
        <time>2021-05-25T07:36:40.000Z</time>
        <extensions>
          <ns3:TrackPointExtension>
            <ns3:atemp>20.0</ns3:atemp>
          </ns3:TrackPointExtension>
        </extensions>
      </trkpt>
      <trkpt lat="43.1271649897098541259765625" lon="13.1303956545889377593994140625">
        <ele>406.600006103515625</ele>
        <time>2021-05-25T07:36:43.000Z</time>
        <extensions>
          <ns3:TrackPointExtension>
            <ns3:atemp>20.0</ns3:atemp>
          </ns3:TrackPointExtension>
        </extensions>
      </trkpt>
      <trkpt lat="43.1271661631762981414794921875" lon="13.130445443093776702880859375">
        <ele>406</ele>
        <time>2021-05-25T07:36:44.000Z</time>
        <extensions>
          <ns3:TrackPointExtension>
            <ns3:atemp>20.0</ns3:atemp>
          </ns3:TrackPointExtension>
        </extensions>
      </trkpt>
      <trkpt lat="43.12716406770050525665283203125" lon="13.1304888613522052764892578125">
        <ele>405.399993896484375</ele>
        <time>2021-05-25T07:36:45.000Z</time>
        <extensions>
          <ns3:TrackPointExtension>
            <ns3:atemp>20.0</ns3:atemp>
          </ns3:TrackPointExtension>
        </extensions>
      </trkpt>
      <trkpt lat="43.127161301672458648681640625" lon="13.1305834092199802398681640625">
        <ele>404.399993896484375</ele>
        <time>2021-05-25T07:36:47.000Z</time>
        <extensions>
          <ns3:TrackPointExtension>
            <ns3:atemp>20.0</ns3:atemp>
          </ns3:TrackPointExtension>
        </extensions>
      </trkpt>
      <trkpt lat="43.12716708518564701080322265625" lon="13.13069589436054229736328125">
        <ele>403.20001220703125</ele>
        <time>2021-05-25T07:36:49.000Z</time>
        <extensions>
          <ns3:TrackPointExtension>
            <ns3:atemp>20.0</ns3:atemp>
          </ns3:TrackPointExtension>
        </extensions>
      </trkpt>
      <trkpt lat="43.12716901302337646484375" lon="13.13074626959860324859619140625">
        <ele>402.600006103515625</ele>
        <time>2021-05-25T07:36:50.000Z</time>
        <extensions>
          <ns3:TrackPointExtension>
            <ns3:atemp>20.0</ns3:atemp>
          </ns3:TrackPointExtension>
        </extensions>
      </trkpt>
      <trkpt lat="43.1271698512136936187744140625" lon="13.13079605810344219207763671875">
        <ele>402.20001220703125</ele>
        <time>2021-05-25T07:36:51.000Z</time>
        <extensions>
          <ns3:TrackPointExtension>
            <ns3:atemp>20.0</ns3:atemp>
          </ns3:TrackPointExtension>
        </extensions>
      </trkpt>
      <trkpt lat="43.1271842680871486663818359375" lon="13.130947016179561614990234375">
        <ele>400.600006103515625</ele>
        <time>2021-05-25T07:36:54.000Z</time>
        <extensions>
          <ns3:TrackPointExtension>
            <ns3:atemp>20.0</ns3:atemp>
          </ns3:TrackPointExtension>
        </extensions>
      </trkpt>
      <trkpt lat="43.12719524838030338287353515625" lon="13.131046257913112640380859375">
        <ele>399.79998779296875</ele>
        <time>2021-05-25T07:36:56.000Z</time>
        <extensions>
          <ns3:TrackPointExtension>
            <ns3:atemp>20.0</ns3:atemp>
          </ns3:TrackPointExtension>
        </extensions>
      </trkpt>
      <trkpt lat="43.12720061279833316802978515625" lon="13.1310997344553470611572265625">
        <ele>399.600006103515625</ele>
        <time>2021-05-25T07:36:57.000Z</time>
        <extensions>
          <ns3:TrackPointExtension>
            <ns3:atemp>20.0</ns3:atemp>
          </ns3:TrackPointExtension>
        </extensions>
      </trkpt>
      <trkpt lat="43.12720715068280696868896484375" lon="13.13127181492745876312255859375">
        <ele>398.600006103515625</ele>
        <time>2021-05-25T07:37:00.000Z</time>
        <extensions>
          <ns3:TrackPointExtension>
            <ns3:atemp>20.0</ns3:atemp>
          </ns3:TrackPointExtension>
        </extensions>
      </trkpt>
      <trkpt lat="43.127205558121204376220703125" lon="13.13133166171610355377197265625">
        <ele>398.20001220703125</ele>
        <time>2021-05-25T07:37:01.000Z</time>
        <extensions>
          <ns3:TrackPointExtension>
            <ns3:atemp>20.0</ns3:atemp>
          </ns3:TrackPointExtension>
        </extensions>
      </trkpt>
      <trkpt lat="43.12720413319766521453857421875" lon="13.13144624233245849609375">
        <ele>397.399993896484375</ele>
        <time>2021-05-25T07:37:03.000Z</time>
        <extensions>
          <ns3:TrackPointExtension>
            <ns3:atemp>20.0</ns3:atemp>
          </ns3:TrackPointExtension>
        </extensions>
      </trkpt>
      <trkpt lat="43.12721989117562770843505859375" lon="13.13159485347568988800048828125">
        <ele>395.79998779296875</ele>
        <time>2021-05-25T07:37:06.000Z</time>
        <extensions>
          <ns3:TrackPointExtension>
            <ns3:atemp>20.0</ns3:atemp>
          </ns3:TrackPointExtension>
        </extensions>
      </trkpt>
      <trkpt lat="43.12726867385208606719970703125" lon="13.1317421235144138336181640625">
        <ele>394.79998779296875</ele>
        <time>2021-05-25T07:37:09.000Z</time>
        <extensions>
          <ns3:TrackPointExtension>
            <ns3:atemp>20.0</ns3:atemp>
          </ns3:TrackPointExtension>
        </extensions>
      </trkpt>
      <trkpt lat="43.12728979624807834625244140625" lon="13.13179819844663143157958984375">
        <ele>394.399993896484375</ele>
        <time>2021-05-25T07:37:10.000Z</time>
        <extensions>
          <ns3:TrackPointExtension>
            <ns3:atemp>20.0</ns3:atemp>
          </ns3:TrackPointExtension>
        </extensions>
      </trkpt>
      <trkpt lat="43.12732801772654056549072265625" lon="13.13190816901624202728271484375">
        <ele>393.600006103515625</ele>
        <time>2021-05-25T07:37:12.000Z</time>
        <extensions>
          <ns3:TrackPointExtension>
            <ns3:atemp>20.0</ns3:atemp>
          </ns3:TrackPointExtension>
        </extensions>
      </trkpt>
      <trkpt lat="43.1273576058447360992431640625" lon="13.13201478682458400726318359375">
        <ele>392.20001220703125</ele>
        <time>2021-05-25T07:37:14.000Z</time>
        <extensions>
          <ns3:TrackPointExtension>
            <ns3:atemp>20.0</ns3:atemp>
          </ns3:TrackPointExtension>
        </extensions>
      </trkpt>
      <trkpt lat="43.1273854337632656097412109375" lon="13.132131882011890411376953125">
        <ele>391</ele>
        <time>2021-05-25T07:37:16.000Z</time>
        <extensions>
          <ns3:TrackPointExtension>
            <ns3:atemp>20.0</ns3:atemp>
          </ns3:TrackPointExtension>
        </extensions>
      </trkpt>
      <trkpt lat="43.1274092383682727813720703125" lon="13.1322453729808330535888671875">
        <ele>390</ele>
        <time>2021-05-25T07:37:18.000Z</time>
        <extensions>
          <ns3:TrackPointExtension>
            <ns3:atemp>20.0</ns3:atemp>
          </ns3:TrackPointExtension>
        </extensions>
      </trkpt>
      <trkpt lat="43.1274223141372203826904296875" lon="13.13234486617147922515869140625">
        <ele>388.600006103515625</ele>
        <time>2021-05-25T07:37:20.000Z</time>
        <extensions>
          <ns3:TrackPointExtension>
            <ns3:atemp>20.0</ns3:atemp>
          </ns3:TrackPointExtension>
        </extensions>
      </trkpt>
      <trkpt lat="43.1274219788610935211181640625" lon="13.13238962553441524505615234375">
        <ele>387.79998779296875</ele>
        <time>2021-05-25T07:37:21.000Z</time>
        <extensions>
          <ns3:TrackPointExtension>
            <ns3:atemp>20.0</ns3:atemp>
          </ns3:TrackPointExtension>
        </extensions>
      </trkpt>
      <trkpt lat="43.1274166144430637359619140625" lon="13.1324371509253978729248046875">
        <ele>387.20001220703125</ele>
        <time>2021-05-25T07:37:22.000Z</time>
        <extensions>
          <ns3:TrackPointExtension>
            <ns3:atemp>20.0</ns3:atemp>
          </ns3:TrackPointExtension>
        </extensions>
      </trkpt>
      <trkpt lat="43.1274038739502429962158203125" lon="13.13252943567931652069091796875">
        <ele>385.600006103515625</ele>
        <time>2021-05-25T07:37:24.000Z</time>
        <extensions>
          <ns3:TrackPointExtension>
            <ns3:atemp>20.0</ns3:atemp>
          </ns3:TrackPointExtension>
        </extensions>
      </trkpt>
      <trkpt lat="43.12739423476159572601318359375" lon="13.13260872848331928253173828125">
        <ele>384.20001220703125</ele>
        <time>2021-05-25T07:37:26.000Z</time>
        <extensions>
          <ns3:TrackPointExtension>
            <ns3:atemp>20.0</ns3:atemp>
          </ns3:TrackPointExtension>
        </extensions>
      </trkpt>
      <trkpt lat="43.1274018622934818267822265625" lon="13.13267058692872524261474609375">
        <ele>383</ele>
        <time>2021-05-25T07:37:28.000Z</time>
        <extensions>
          <ns3:TrackPointExtension>
            <ns3:atemp>20.0</ns3:atemp>
          </ns3:TrackPointExtension>
        </extensions>
      </trkpt>
      <trkpt lat="43.12741870991885662078857421875" lon="13.13272842206060886383056640625">
        <ele>381.79998779296875</ele>
        <time>2021-05-25T07:37:30.000Z</time>
        <extensions>
          <ns3:TrackPointExtension>
            <ns3:atemp>20.0</ns3:atemp>
          </ns3:TrackPointExtension>
        </extensions>
      </trkpt>
      <trkpt lat="43.12745667994022369384765625" lon="13.13278173096477985382080078125">
        <ele>380.79998779296875</ele>
        <time>2021-05-25T07:37:32.000Z</time>
        <extensions>
          <ns3:TrackPointExtension>
            <ns3:atemp>20.0</ns3:atemp>
          </ns3:TrackPointExtension>
        </extensions>
      </trkpt>
      <trkpt lat="43.127505294978618621826171875" lon="13.13283436931669712066650390625">
        <ele>379.600006103515625</ele>
        <time>2021-05-25T07:37:34.000Z</time>
        <extensions>
          <ns3:TrackPointExtension>
            <ns3:atemp>20.0</ns3:atemp>
          </ns3:TrackPointExtension>
        </extensions>
      </trkpt>
      <trkpt lat="43.12752834521234035491943359375" lon="13.13285314477980136871337890625">
        <ele>378.600006103515625</ele>
        <time>2021-05-25T07:37:35.000Z</time>
        <extensions>
          <ns3:TrackPointExtension>
            <ns3:atemp>20.0</ns3:atemp>
          </ns3:TrackPointExtension>
        </extensions>
      </trkpt>
      <trkpt lat="43.12754309736192226409912109375" lon="13.1328790448606014251708984375">
        <ele>378.20001220703125</ele>
        <time>2021-05-25T07:37:36.000Z</time>
        <extensions>
          <ns3:TrackPointExtension>
            <ns3:atemp>20.0</ns3:atemp>
          </ns3:TrackPointExtension>
        </extensions>
      </trkpt>
      <trkpt lat="43.12755382619798183441162109375" lon="13.13291567377746105194091796875">
        <ele>377.79998779296875</ele>
        <time>2021-05-25T07:37:37.000Z</time>
        <extensions>
          <ns3:TrackPointExtension>
            <ns3:atemp>20.0</ns3:atemp>
          </ns3:TrackPointExtension>
        </extensions>
      </trkpt>
      <trkpt lat="43.1275597773492336273193359375" lon="13.1329523026943206787109375">
        <ele>377.399993896484375</ele>
        <time>2021-05-25T07:37:38.000Z</time>
        <extensions>
          <ns3:TrackPointExtension>
            <ns3:atemp>20.0</ns3:atemp>
          </ns3:TrackPointExtension>
        </extensions>
      </trkpt>
      <trkpt lat="43.12755189836025238037109375" lon="13.13301474787294864654541015625">
        <ele>376</ele>
        <time>2021-05-25T07:37:40.000Z</time>
        <extensions>
          <ns3:TrackPointExtension>
            <ns3:atemp>20.0</ns3:atemp>
          </ns3:TrackPointExtension>
        </extensions>
      </trkpt>
      <trkpt lat="43.1275420077145099639892578125" lon="13.1330352835357189178466796875">
        <ele>375.20001220703125</ele>
        <time>2021-05-25T07:37:41.000Z</time>
        <extensions>
          <ns3:TrackPointExtension>
            <ns3:atemp>20.0</ns3:atemp>
          </ns3:TrackPointExtension>
        </extensions>
      </trkpt>
      <trkpt lat="43.12753186561167240142822265625" lon="13.133051209151744842529296875">
        <ele>374.399993896484375</ele>
        <time>2021-05-25T07:37:42.000Z</time>
        <extensions>
          <ns3:TrackPointExtension>
            <ns3:atemp>20.0</ns3:atemp>
          </ns3:TrackPointExtension>
        </extensions>
      </trkpt>
      <trkpt lat="43.12750227749347686767578125" lon="13.13308029435575008392333984375">
        <ele>372.79998779296875</ele>
        <time>2021-05-25T07:37:44.000Z</time>
        <extensions>
          <ns3:TrackPointExtension>
            <ns3:atemp>20.0</ns3:atemp>
          </ns3:TrackPointExtension>
        </extensions>
      </trkpt>
      <trkpt lat="43.12746128998696804046630859375" lon="13.13308498822152614593505859375">
        <ele>371.600006103515625</ele>
        <time>2021-05-25T07:37:46.000Z</time>
        <extensions>
          <ns3:TrackPointExtension>
            <ns3:atemp>20.0</ns3:atemp>
          </ns3:TrackPointExtension>
        </extensions>
      </trkpt>
      <trkpt lat="43.12741108238697052001953125" lon="13.13307928852736949920654296875">
        <ele>370.600006103515625</ele>
        <time>2021-05-25T07:37:48.000Z</time>
        <extensions>
          <ns3:TrackPointExtension>
            <ns3:atemp>20.0</ns3:atemp>
          </ns3:TrackPointExtension>
        </extensions>
      </trkpt>
      <trkpt lat="43.12732952646911144256591796875" lon="13.133084066212177276611328125">
        <ele>369.399993896484375</ele>
        <time>2021-05-25T07:37:51.000Z</time>
        <extensions>
          <ns3:TrackPointExtension>
            <ns3:atemp>20.0</ns3:atemp>
          </ns3:TrackPointExtension>
        </extensions>
      </trkpt>
      <trkpt lat="43.1272328831255435943603515625" lon="13.13310242258012294769287109375">
        <ele>368</ele>
        <time>2021-05-25T07:37:54.000Z</time>
        <extensions>
          <ns3:TrackPointExtension>
            <ns3:atemp>20.0</ns3:atemp>
          </ns3:TrackPointExtension>
        </extensions>
      </trkpt>
      <trkpt lat="43.127163983881473541259765625" lon="13.13311650417745113372802734375">
        <ele>367</ele>
        <time>2021-05-25T07:37:56.000Z</time>
        <extensions>
          <ns3:TrackPointExtension>
            <ns3:atemp>20.0</ns3:atemp>
          </ns3:TrackPointExtension>
        </extensions>
      </trkpt>
      <trkpt lat="43.1270947493612766265869140625" lon="13.13312329351902008056640625">
        <ele>365.399993896484375</ele>
        <time>2021-05-25T07:37:58.000Z</time>
        <extensions>
          <ns3:TrackPointExtension>
            <ns3:atemp>20.0</ns3:atemp>
          </ns3:TrackPointExtension>
        </extensions>
      </trkpt>
      <trkpt lat="43.127024173736572265625" lon="13.13312605954706668853759765625">
        <ele>363.79998779296875</ele>
        <time>2021-05-25T07:38:00.000Z</time>
        <extensions>
          <ns3:TrackPointExtension>
            <ns3:atemp>20.0</ns3:atemp>
          </ns3:TrackPointExtension>
        </extensions>
      </trkpt>
      <trkpt lat="43.1269676797091960906982421875" lon="13.13313477672636508941650390625">
        <ele>362.399993896484375</ele>
        <time>2021-05-25T07:38:02.000Z</time>
        <extensions>
          <ns3:TrackPointExtension>
            <ns3:atemp>20.0</ns3:atemp>
          </ns3:TrackPointExtension>
        </extensions>
      </trkpt>
      <trkpt lat="43.12694345600903034210205078125" lon="13.1331469304859638214111328125">
        <ele>361.79998779296875</ele>
        <time>2021-05-25T07:38:03.000Z</time>
        <extensions>
          <ns3:TrackPointExtension>
            <ns3:atemp>20.0</ns3:atemp>
          </ns3:TrackPointExtension>
        </extensions>
      </trkpt>
      <trkpt lat="43.12691797502338886260986328125" lon="13.133160509169101715087890625">
        <ele>361</ele>
        <time>2021-05-25T07:38:04.000Z</time>
        <extensions>
          <ns3:TrackPointExtension>
            <ns3:atemp>20.0</ns3:atemp>
          </ns3:TrackPointExtension>
        </extensions>
      </trkpt>
      <trkpt lat="43.1268882192671298980712890625" lon="13.1331720761954784393310546875">
        <ele>359.600006103515625</ele>
        <time>2021-05-25T07:38:05.000Z</time>
        <extensions>
          <ns3:TrackPointExtension>
            <ns3:atemp>20.0</ns3:atemp>
          </ns3:TrackPointExtension>
        </extensions>
      </trkpt>
      <trkpt lat="43.12683968804776668548583984375" lon="13.13319110311567783355712890625">
        <ele>358.20001220703125</ele>
        <time>2021-05-25T07:38:07.000Z</time>
        <extensions>
          <ns3:TrackPointExtension>
            <ns3:atemp>20.0</ns3:atemp>
          </ns3:TrackPointExtension>
        </extensions>
      </trkpt>
      <trkpt lat="43.1267963536083698272705078125" lon="13.13320987857878208160400390625">
        <ele>356.399993896484375</ele>
        <time>2021-05-25T07:38:09.000Z</time>
        <extensions>
          <ns3:TrackPointExtension>
            <ns3:atemp>20.0</ns3:atemp>
          </ns3:TrackPointExtension>
        </extensions>
      </trkpt>
      <trkpt lat="43.1267423741519451141357421875" lon="13.13322094269096851348876953125">
        <ele>354.79998779296875</ele>
        <time>2021-05-25T07:38:11.000Z</time>
        <extensions>
          <ns3:TrackPointExtension>
            <ns3:atemp>20.0</ns3:atemp>
          </ns3:TrackPointExtension>
        </extensions>
      </trkpt>
      <trkpt lat="43.12669359147548675537109375" lon="13.13323284499347209930419921875">
        <ele>353.600006103515625</ele>
        <time>2021-05-25T07:38:13.000Z</time>
        <extensions>
          <ns3:TrackPointExtension>
            <ns3:atemp>20.0</ns3:atemp>
          </ns3:TrackPointExtension>
        </extensions>
      </trkpt>
      <trkpt lat="43.12664170749485492706298828125" lon="13.133254386484622955322265625">
        <ele>352.399993896484375</ele>
        <time>2021-05-25T07:38:15.000Z</time>
        <extensions>
          <ns3:TrackPointExtension>
            <ns3:atemp>20.0</ns3:atemp>
          </ns3:TrackPointExtension>
        </extensions>
      </trkpt>
      <trkpt lat="43.1265693716704845428466796875" lon="13.13328146003186702728271484375">
        <ele>351</ele>
        <time>2021-05-25T07:38:18.000Z</time>
        <extensions>
          <ns3:TrackPointExtension>
            <ns3:atemp>20.0</ns3:atemp>
          </ns3:TrackPointExtension>
        </extensions>
      </trkpt>
      <trkpt lat="43.12652285210788249969482421875" lon="13.13330358825623989105224609375">
        <ele>350.399993896484375</ele>
        <time>2021-05-25T07:38:20.000Z</time>
        <extensions>
          <ns3:TrackPointExtension>
            <ns3:atemp>20.0</ns3:atemp>
          </ns3:TrackPointExtension>
        </extensions>
      </trkpt>
      <trkpt lat="43.1265013106167316436767578125" lon="13.133310712873935699462890625">
        <ele>350</ele>
        <time>2021-05-25T07:38:21.000Z</time>
        <extensions>
          <ns3:TrackPointExtension>
            <ns3:atemp>20.0</ns3:atemp>
          </ns3:TrackPointExtension>
        </extensions>
      </trkpt>
      <trkpt lat="43.12643182463943958282470703125" lon="13.13333409838378429412841796875">
        <ele>348.600006103515625</ele>
        <time>2021-05-25T07:38:24.000Z</time>
        <extensions>
          <ns3:TrackPointExtension>
            <ns3:atemp>20.0</ns3:atemp>
          </ns3:TrackPointExtension>
        </extensions>
      </trkpt>
      <trkpt lat="43.1264010630548000335693359375" lon="13.1333407200872898101806640625">
        <ele>348.20001220703125</ele>
        <time>2021-05-25T07:38:25.000Z</time>
        <extensions>
          <ns3:TrackPointExtension>
            <ns3:atemp>20.0</ns3:atemp>
          </ns3:TrackPointExtension>
        </extensions>
      </trkpt>
      <trkpt lat="43.1263683736324310302734375" lon="13.13334499485790729522705078125">
        <ele>347.600006103515625</ele>
        <time>2021-05-25T07:38:26.000Z</time>
        <extensions>
          <ns3:TrackPointExtension>
            <ns3:atemp>20.0</ns3:atemp>
          </ns3:TrackPointExtension>
        </extensions>
      </trkpt>
      <trkpt lat="43.1262951157987117767333984375" lon="13.13335530459880828857421875">
        <ele>346.20001220703125</ele>
        <time>2021-05-25T07:38:29.000Z</time>
        <extensions>
          <ns3:TrackPointExtension>
            <ns3:atemp>20.0</ns3:atemp>
          </ns3:TrackPointExtension>
        </extensions>
      </trkpt>
      <trkpt lat="43.126272149384021759033203125" lon="13.13336041755974292755126953125">
        <ele>345.79998779296875</ele>
        <time>2021-05-25T07:38:30.000Z</time>
        <extensions>
          <ns3:TrackPointExtension>
            <ns3:atemp>20.0</ns3:atemp>
          </ns3:TrackPointExtension>
        </extensions>
      </trkpt>
      <trkpt lat="43.1262260489165782928466796875" lon="13.1333742476999759674072265625">
        <ele>345.20001220703125</ele>
        <time>2021-05-25T07:38:32.000Z</time>
        <extensions>
          <ns3:TrackPointExtension>
            <ns3:atemp>20.0</ns3:atemp>
          </ns3:TrackPointExtension>
        </extensions>
      </trkpt>
      <trkpt lat="43.12617014162242412567138671875" lon="13.13337835483253002166748046875">
        <ele>344.20001220703125</ele>
        <time>2021-05-25T07:38:34.000Z</time>
        <extensions>
          <ns3:TrackPointExtension>
            <ns3:atemp>20.0</ns3:atemp>
          </ns3:TrackPointExtension>
        </extensions>
      </trkpt>
      <trkpt lat="43.12611155211925506591796875" lon="13.1333822943270206451416015625">
        <ele>343.600006103515625</ele>
        <time>2021-05-25T07:38:36.000Z</time>
        <extensions>
          <ns3:TrackPointExtension>
            <ns3:atemp>20.0</ns3:atemp>
          </ns3:TrackPointExtension>
        </extensions>
      </trkpt>
      <trkpt lat="43.1260478496551513671875" lon="13.1333668716251850128173828125">
        <ele>343</ele>
        <time>2021-05-25T07:38:38.000Z</time>
        <extensions>
          <ns3:TrackPointExtension>
            <ns3:atemp>20.0</ns3:atemp>
          </ns3:TrackPointExtension>
        </extensions>
      </trkpt>
      <trkpt lat="43.12600065954029560089111328125" lon="13.13333895988762378692626953125">
        <ele>342.399993896484375</ele>
        <time>2021-05-25T07:38:40.000Z</time>
        <extensions>
          <ns3:TrackPointExtension>
            <ns3:atemp>20.0</ns3:atemp>
          </ns3:TrackPointExtension>
        </extensions>
      </trkpt>
      <trkpt lat="43.12595020048320293426513671875" lon="13.1333192624151706695556640625">
        <ele>341.79998779296875</ele>
        <time>2021-05-25T07:38:42.000Z</time>
        <extensions>
          <ns3:TrackPointExtension>
            <ns3:atemp>20.0</ns3:atemp>
          </ns3:TrackPointExtension>
        </extensions>
      </trkpt>
      <trkpt lat="43.12579781748354434967041015625" lon="13.1332284025847911834716796875">
        <ele>341.600006103515625</ele>
        <time>2021-05-25T07:38:48.000Z</time>
        <extensions>
          <ns3:TrackPointExtension>
            <ns3:atemp>20.0</ns3:atemp>
          </ns3:TrackPointExtension>
        </extensions>
      </trkpt>
      <trkpt lat="43.125616349279880523681640625" lon="13.13311248086392879486083984375">
        <ele>341.79998779296875</ele>
        <time>2021-05-25T07:38:56.000Z</time>
        <extensions>
          <ns3:TrackPointExtension>
            <ns3:atemp>20.0</ns3:atemp>
          </ns3:TrackPointExtension>
        </extensions>
      </trkpt>
      <trkpt lat="43.1254751980304718017578125" lon="13.1330433301627635955810546875">
        <ele>342.79998779296875</ele>
        <time>2021-05-25T07:39:02.000Z</time>
        <extensions>
          <ns3:TrackPointExtension>
            <ns3:atemp>20.0</ns3:atemp>
          </ns3:TrackPointExtension>
        </extensions>
      </trkpt>
      <trkpt lat="43.12545080669224262237548828125" lon="13.13303285278379917144775390625">
        <ele>343</ele>
        <time>2021-05-25T07:39:03.000Z</time>
        <extensions>
          <ns3:TrackPointExtension>
            <ns3:atemp>20.0</ns3:atemp>
          </ns3:TrackPointExtension>
        </extensions>
      </trkpt>
      <trkpt lat="43.1252245791256427764892578125" lon="13.13294568099081516265869140625">
        <ele>343.399993896484375</ele>
        <time>2021-05-25T07:39:12.000Z</time>
        <extensions>
          <ns3:TrackPointExtension>
            <ns3:atemp>20.0</ns3:atemp>
          </ns3:TrackPointExtension>
        </extensions>
      </trkpt>
      <trkpt lat="43.12508284114301204681396484375" lon="13.1329414062201976776123046875">
        <ele>344</ele>
        <time>2021-05-25T07:39:18.000Z</time>
        <extensions>
          <ns3:TrackPointExtension>
            <ns3:atemp>20.0</ns3:atemp>
          </ns3:TrackPointExtension>
        </extensions>
      </trkpt>
      <trkpt lat="43.124942444264888763427734375" lon="13.1330450065433979034423828125">
        <ele>345</ele>
        <time>2021-05-25T07:39:24.000Z</time>
        <extensions>
          <ns3:TrackPointExtension>
            <ns3:atemp>20.0</ns3:atemp>
          </ns3:TrackPointExtension>
        </extensions>
      </trkpt>
      <trkpt lat="43.1248182244598865509033203125" lon="13.13326871953904628753662109375">
        <ele>345.79998779296875</ele>
        <time>2021-05-25T07:39:31.000Z</time>
        <extensions>
          <ns3:TrackPointExtension>
            <ns3:atemp>20.0</ns3:atemp>
          </ns3:TrackPointExtension>
        </extensions>
      </trkpt>
      <trkpt lat="43.12479198910295963287353515625" lon="13.13334717415273189544677734375">
        <ele>346</ele>
        <time>2021-05-25T07:39:33.000Z</time>
        <extensions>
          <ns3:TrackPointExtension>
            <ns3:atemp>20.0</ns3:atemp>
          </ns3:TrackPointExtension>
        </extensions>
      </trkpt>
      <trkpt lat="43.124703727662563323974609375" lon="13.13355688937008380889892578125">
        <ele>346.79998779296875</ele>
        <time>2021-05-25T07:39:38.000Z</time>
        <extensions>
          <ns3:TrackPointExtension>
            <ns3:atemp>20.0</ns3:atemp>
          </ns3:TrackPointExtension>
        </extensions>
      </trkpt>
      <trkpt lat="43.12467791140079498291015625" lon="13.13370441086590290069580078125">
        <ele>347</ele>
        <time>2021-05-25T07:39:41.000Z</time>
        <extensions>
          <ns3:TrackPointExtension>
            <ns3:atemp>20.0</ns3:atemp>
          </ns3:TrackPointExtension>
        </extensions>
      </trkpt>
      <trkpt lat="43.1246810965240001678466796875" lon="13.13380113802850246429443359375">
        <ele>347.20001220703125</ele>
        <time>2021-05-25T07:39:43.000Z</time>
        <extensions>
          <ns3:TrackPointExtension>
            <ns3:atemp>20.0</ns3:atemp>
          </ns3:TrackPointExtension>
        </extensions>
      </trkpt>
      <trkpt lat="43.124695681035518646240234375" lon="13.1339633278548717498779296875">
        <ele>347.399993896484375</ele>
        <time>2021-05-25T07:39:46.000Z</time>
        <extensions>
          <ns3:TrackPointExtension>
            <ns3:atemp>20.0</ns3:atemp>
          </ns3:TrackPointExtension>
        </extensions>
      </trkpt>
      <trkpt lat="43.1247152946889400482177734375" lon="13.13414060510694980621337890625">
        <ele>347.600006103515625</ele>
        <time>2021-05-25T07:39:49.000Z</time>
        <extensions>
          <ns3:TrackPointExtension>
            <ns3:atemp>20.0</ns3:atemp>
          </ns3:TrackPointExtension>
        </extensions>
      </trkpt>
      <trkpt lat="43.12469065189361572265625" lon="13.1343666650354862213134765625">
        <ele>347.79998779296875</ele>
        <time>2021-05-25T07:39:53.000Z</time>
        <extensions>
          <ns3:TrackPointExtension>
            <ns3:atemp>20.0</ns3:atemp>
          </ns3:TrackPointExtension>
        </extensions>
      </trkpt>
      <trkpt lat="43.1246707029640674591064453125" lon="13.13442458398640155792236328125">
        <ele>348.20001220703125</ele>
        <time>2021-05-25T07:39:54.000Z</time>
        <extensions>
          <ns3:TrackPointExtension>
            <ns3:atemp>20.0</ns3:atemp>
          </ns3:TrackPointExtension>
        </extensions>
      </trkpt>
      <trkpt lat="43.1245523504912853240966796875" lon="13.134534470736980438232421875">
        <ele>348.399993896484375</ele>
        <time>2021-05-25T07:39:57.000Z</time>
        <extensions>
          <ns3:TrackPointExtension>
            <ns3:atemp>20.0</ns3:atemp>
          </ns3:TrackPointExtension>
        </extensions>
      </trkpt>
      <trkpt lat="43.1243132986128330230712890625" lon="13.13450706191360950469970703125">
        <ele>348.600006103515625</ele>
        <time>2021-05-25T07:40:02.000Z</time>
        <extensions>
          <ns3:TrackPointExtension>
            <ns3:atemp>20.0</ns3:atemp>
          </ns3:TrackPointExtension>
        </extensions>
      </trkpt>
      <trkpt lat="43.123915158212184906005859375" lon="13.1344095803797245025634765625">
        <ele>348.399993896484375</ele>
        <time>2021-05-25T07:40:09.000Z</time>
        <extensions>
          <ns3:TrackPointExtension>
            <ns3:atemp>20.0</ns3:atemp>
          </ns3:TrackPointExtension>
        </extensions>
      </trkpt>
      <trkpt lat="43.12350285239517688751220703125" lon="13.13442525453865528106689453125">
        <ele>348.20001220703125</ele>
        <time>2021-05-25T07:40:16.000Z</time>
        <extensions>
          <ns3:TrackPointExtension>
            <ns3:atemp>20.0</ns3:atemp>
          </ns3:TrackPointExtension>
        </extensions>
      </trkpt>
      <trkpt lat="43.12306766398251056671142578125" lon="13.13444721512496471405029296875">
        <ele>348</ele>
        <time>2021-05-25T07:40:24.000Z</time>
        <extensions>
          <ns3:TrackPointExtension>
            <ns3:atemp>20.0</ns3:atemp>
          </ns3:TrackPointExtension>
        </extensions>
      </trkpt>
      <trkpt lat="43.12272048555314540863037109375" lon="13.13448761589825153350830078125">
        <ele>347.79998779296875</ele>
        <time>2021-05-25T07:40:30.000Z</time>
        <extensions>
          <ns3:TrackPointExtension>
            <ns3:atemp>20.0</ns3:atemp>
          </ns3:TrackPointExtension>
        </extensions>
      </trkpt>
      <trkpt lat="43.122331984341144561767578125" lon="13.1345638073980808258056640625">
        <ele>347</ele>
        <time>2021-05-25T07:40:36.000Z</time>
        <extensions>
          <ns3:TrackPointExtension>
            <ns3:atemp>20.0</ns3:atemp>
          </ns3:TrackPointExtension>
        </extensions>
      </trkpt>
      <trkpt lat="43.12220214866101741790771484375" lon="13.1345953233540058135986328125">
        <ele>346.600006103515625</ele>
        <time>2021-05-25T07:40:38.000Z</time>
        <extensions>
          <ns3:TrackPointExtension>
            <ns3:atemp>20.0</ns3:atemp>
          </ns3:TrackPointExtension>
        </extensions>
      </trkpt>
      <trkpt lat="43.121960498392581939697265625" lon="13.1346737779676914215087890625">
        <ele>346</ele>
        <time>2021-05-25T07:40:42.000Z</time>
        <extensions>
          <ns3:TrackPointExtension>
            <ns3:atemp>20.0</ns3:atemp>
          </ns3:TrackPointExtension>
        </extensions>
      </trkpt>
      <trkpt lat="43.12184952199459075927734375" lon="13.13470671884715557098388671875">
        <ele>345.79998779296875</ele>
        <time>2021-05-25T07:40:44.000Z</time>
        <extensions>
          <ns3:TrackPointExtension>
            <ns3:atemp>20.0</ns3:atemp>
          </ns3:TrackPointExtension>
        </extensions>
      </trkpt>
      <trkpt lat="43.12144760973751544952392578125" lon="13.13481601886451244354248046875">
        <ele>345.20001220703125</ele>
        <time>2021-05-25T07:40:52.000Z</time>
        <extensions>
          <ns3:TrackPointExtension>
            <ns3:atemp>20.0</ns3:atemp>
          </ns3:TrackPointExtension>
        </extensions>
      </trkpt>
      <trkpt lat="43.1211942248046398162841796875" lon="13.1348290108144283294677734375">
        <ele>345</ele>
        <time>2021-05-25T07:40:57.000Z</time>
        <extensions>
          <ns3:TrackPointExtension>
            <ns3:atemp>20.0</ns3:atemp>
          </ns3:TrackPointExtension>
        </extensions>
      </trkpt>
      <trkpt lat="43.121094144880771636962890625" lon="13.1348109059035778045654296875">
        <ele>345</ele>
        <time>2021-05-25T07:40:59.000Z</time>
        <extensions>
          <ns3:TrackPointExtension>
            <ns3:atemp>20.0</ns3:atemp>
          </ns3:TrackPointExtension>
        </extensions>
      </trkpt>
      <trkpt lat="43.120821900665760040283203125" lon="13.13471074216067790985107421875">
        <ele>345</ele>
        <time>2021-05-25T07:41:05.000Z</time>
        <extensions>
          <ns3:TrackPointExtension>
            <ns3:atemp>20.0</ns3:atemp>
          </ns3:TrackPointExtension>
        </extensions>
      </trkpt>
      <trkpt lat="43.1207788176834583282470703125" lon="13.13470789231359958648681640625">
        <ele>345.20001220703125</ele>
        <time>2021-05-25T07:41:06.000Z</time>
        <extensions>
          <ns3:TrackPointExtension>
            <ns3:atemp>20.0</ns3:atemp>
          </ns3:TrackPointExtension>
        </extensions>
      </trkpt>
      <trkpt lat="43.1206460483372211456298828125" lon="13.134777545928955078125">
        <ele>346</ele>
        <time>2021-05-25T07:41:10.000Z</time>
        <extensions>
          <ns3:TrackPointExtension>
            <ns3:atemp>20.0</ns3:atemp>
          </ns3:TrackPointExtension>
        </extensions>
      </trkpt>
      <trkpt lat="43.12062668614089488983154296875" lon="13.1348045356571674346923828125">
        <ele>346.20001220703125</ele>
        <time>2021-05-25T07:41:11.000Z</time>
        <extensions>
          <ns3:TrackPointExtension>
            <ns3:atemp>20.0</ns3:atemp>
          </ns3:TrackPointExtension>
        </extensions>
      </trkpt>
      <trkpt lat="43.12059634365141391754150390625" lon="13.13486664555966854095458984375">
        <ele>346.399993896484375</ele>
        <time>2021-05-25T07:41:13.000Z</time>
        <extensions>
          <ns3:TrackPointExtension>
            <ns3:atemp>20.0</ns3:atemp>
          </ns3:TrackPointExtension>
        </extensions>
      </trkpt>
      <trkpt lat="43.120564408600330352783203125" lon="13.1349456869065761566162109375">
        <ele>346.399993896484375</ele>
        <time>2021-05-25T07:41:15.000Z</time>
        <extensions>
          <ns3:TrackPointExtension>
            <ns3:atemp>20.0</ns3:atemp>
          </ns3:TrackPointExtension>
        </extensions>
      </trkpt>
      <trkpt lat="43.120508082211017608642578125" lon="13.13506311737000942230224609375">
        <ele>346.600006103515625</ele>
        <time>2021-05-25T07:41:19.000Z</time>
        <extensions>
          <ns3:TrackPointExtension>
            <ns3:atemp>20.0</ns3:atemp>
          </ns3:TrackPointExtension>
        </extensions>
      </trkpt>
      <trkpt lat="43.1205015443265438079833984375" lon="13.13507191836833953857421875">
        <ele>345.399993896484375</ele>
        <time>2021-05-25T07:41:24.000Z</time>
        <extensions>
          <ns3:TrackPointExtension>
            <ns3:atemp>20.0</ns3:atemp>
          </ns3:TrackPointExtension>
        </extensions>
      </trkpt>
      <trkpt lat="43.12050363980233669281005859375" lon="13.1350712478160858154296875">
        <ele>345</ele>
        <time>2021-05-25T07:41:26.000Z</time>
        <extensions>
          <ns3:TrackPointExtension>
            <ns3:atemp>20.0</ns3:atemp>
          </ns3:TrackPointExtension>
        </extensions>
      </trkpt>
      <trkpt lat="43.12050431035459041595458984375" lon="13.13507284037768840789794921875">
        <ele>343.79998779296875</ele>
        <time>2021-05-25T07:41:32.000Z</time>
        <extensions>
          <ns3:TrackPointExtension>
            <ns3:atemp>20.0</ns3:atemp>
          </ns3:TrackPointExtension>
        </extensions>
      </trkpt>
      <trkpt lat="43.12050330452620983123779296875" lon="13.13507501967251300811767578125">
        <ele>343.79998779296875</ele>
        <time>2021-05-25T07:41:33.000Z</time>
        <extensions>
          <ns3:TrackPointExtension>
            <ns3:atemp>20.0</ns3:atemp>
          </ns3:TrackPointExtension>
        </extensions>
      </trkpt>
      <trkpt lat="43.12050850130617618560791015625" lon="13.135076276957988739013671875">
        <ele>343.600006103515625</ele>
        <time>2021-05-25T07:41:43.000Z</time>
        <extensions>
          <ns3:TrackPointExtension>
            <ns3:atemp>20.0</ns3:atemp>
          </ns3:TrackPointExtension>
        </extensions>
      </trkpt>
      <trkpt lat="43.12050749547779560089111328125" lon="13.1350761093199253082275390625">
        <ele>343.600006103515625</ele>
        <time>2021-05-25T07:41:58.000Z</time>
        <extensions>
          <ns3:TrackPointExtension>
            <ns3:atemp>20.0</ns3:atemp>
          </ns3:TrackPointExtension>
        </extensions>
      </trkpt>
      <trkpt lat="43.12050841748714447021484375" lon="13.1350781209766864776611328125">
        <ele>343.600006103515625</ele>
        <time>2021-05-25T07:42:24.000Z</time>
        <extensions>
          <ns3:TrackPointExtension>
            <ns3:atemp>20.0</ns3:atemp>
          </ns3:TrackPointExtension>
        </extensions>
      </trkpt>
      <trkpt lat="43.12051068060100078582763671875" lon="13.13512061722576618194580078125">
        <ele>343.399993896484375</ele>
        <time>2021-05-25T07:42:26.000Z</time>
        <extensions>
          <ns3:TrackPointExtension>
            <ns3:atemp>20.0</ns3:atemp>
          </ns3:TrackPointExtension>
        </extensions>
      </trkpt>
      <trkpt lat="43.12047480605542659759521484375" lon="13.13525808043777942657470703125">
        <ele>343.399993896484375</ele>
        <time>2021-05-25T07:42:30.000Z</time>
        <extensions>
          <ns3:TrackPointExtension>
            <ns3:atemp>20.0</ns3:atemp>
          </ns3:TrackPointExtension>
        </extensions>
      </trkpt>
      <trkpt lat="43.12038813717663288116455078125" lon="13.13536302186548709869384765625">
        <ele>343</ele>
        <time>2021-05-25T07:42:33.000Z</time>
        <extensions>
          <ns3:TrackPointExtension>
            <ns3:atemp>21.0</ns3:atemp>
          </ns3:TrackPointExtension>
        </extensions>
      </trkpt>
      <trkpt lat="43.12030917964875698089599609375" lon="13.13542596995830535888671875">
        <ele>342.79998779296875</ele>
        <time>2021-05-25T07:42:35.000Z</time>
        <extensions>
          <ns3:TrackPointExtension>
            <ns3:atemp>21.0</ns3:atemp>
          </ns3:TrackPointExtension>
        </extensions>
      </trkpt>
      <trkpt lat="43.12026944942772388458251953125" lon="13.1354563124477863311767578125">
        <ele>342.600006103515625</ele>
        <time>2021-05-25T07:42:36.000Z</time>
        <extensions>
          <ns3:TrackPointExtension>
            <ns3:atemp>21.0</ns3:atemp>
          </ns3:TrackPointExtension>
        </extensions>
      </trkpt>
      <trkpt lat="43.120164759457111358642578125" lon="13.1355002336204051971435546875">
        <ele>342.20001220703125</ele>
        <time>2021-05-25T07:42:39.000Z</time>
        <extensions>
          <ns3:TrackPointExtension>
            <ns3:atemp>21.0</ns3:atemp>
          </ns3:TrackPointExtension>
        </extensions>
      </trkpt>
      <trkpt lat="43.12011279165744781494140625" lon="13.135474584996700286865234375">
        <ele>342.20001220703125</ele>
        <time>2021-05-25T07:42:41.000Z</time>
        <extensions>
          <ns3:TrackPointExtension>
            <ns3:atemp>21.0</ns3:atemp>
          </ns3:TrackPointExtension>
        </extensions>
      </trkpt>
      <trkpt lat="43.1200636737048625946044921875" lon="13.13542203046381473541259765625">
        <ele>342.20001220703125</ele>
        <time>2021-05-25T07:42:43.000Z</time>
        <extensions>
          <ns3:TrackPointExtension>
            <ns3:atemp>21.0</ns3:atemp>
          </ns3:TrackPointExtension>
        </extensions>
      </trkpt>
      <trkpt lat="43.1199020706117153167724609375" lon="13.13524735160171985626220703125">
        <ele>342.399993896484375</ele>
        <time>2021-05-25T07:42:50.000Z</time>
        <extensions>
          <ns3:TrackPointExtension>
            <ns3:atemp>21.0</ns3:atemp>
          </ns3:TrackPointExtension>
        </extensions>
      </trkpt>
      <trkpt lat="43.11976318247616291046142578125" lon="13.13515967689454555511474609375">
        <ele>344</ele>
        <time>2021-05-25T07:42:56.000Z</time>
        <extensions>
          <ns3:TrackPointExtension>
            <ns3:atemp>21.0</ns3:atemp>
          </ns3:TrackPointExtension>
        </extensions>
      </trkpt>
      <trkpt lat="43.11974256299436092376708984375" lon="13.13515213318169116973876953125">
        <ele>344.20001220703125</ele>
        <time>2021-05-25T07:42:57.000Z</time>
        <extensions>
          <ns3:TrackPointExtension>
            <ns3:atemp>21.0</ns3:atemp>
          </ns3:TrackPointExtension>
        </extensions>
      </trkpt>
      <trkpt lat="43.11967651359736919403076171875" lon="13.13511927612125873565673828125">
        <ele>345.399993896484375</ele>
        <time>2021-05-25T07:43:01.000Z</time>
        <extensions>
          <ns3:TrackPointExtension>
            <ns3:atemp>20.0</ns3:atemp>
          </ns3:TrackPointExtension>
        </extensions>
      </trkpt>
      <trkpt lat="43.11962504871189594268798828125" lon="13.13509203493595123291015625">
        <ele>346.79998779296875</ele>
        <time>2021-05-25T07:43:04.000Z</time>
        <extensions>
          <ns3:TrackPointExtension>
            <ns3:atemp>20.0</ns3:atemp>
          </ns3:TrackPointExtension>
        </extensions>
      </trkpt>
      <trkpt lat="43.11956771649420261383056640625" lon="13.135061524808406829833984375">
        <ele>348.20001220703125</ele>
        <time>2021-05-25T07:43:07.000Z</time>
        <extensions>
          <ns3:TrackPointExtension>
            <ns3:atemp>20.0</ns3:atemp>
          </ns3:TrackPointExtension>
        </extensions>
      </trkpt>
      <trkpt lat="43.119489848613739013671875" lon="13.1350095570087432861328125">
        <ele>349.399993896484375</ele>
        <time>2021-05-25T07:43:11.000Z</time>
        <extensions>
          <ns3:TrackPointExtension>
            <ns3:atemp>20.0</ns3:atemp>
          </ns3:TrackPointExtension>
        </extensions>
      </trkpt>
      <trkpt lat="43.11946931295096874237060546875" lon="13.1349966488778591156005859375">
        <ele>349.600006103515625</ele>
        <time>2021-05-25T07:43:12.000Z</time>
        <extensions>
          <ns3:TrackPointExtension>
            <ns3:atemp>20.0</ns3:atemp>
          </ns3:TrackPointExtension>
        </extensions>
      </trkpt>
      <trkpt lat="43.11940200626850128173828125" lon="13.13495968468487262725830078125">
        <ele>350.600006103515625</ele>
        <time>2021-05-25T07:43:15.000Z</time>
        <extensions>
          <ns3:TrackPointExtension>
            <ns3:atemp>20.0</ns3:atemp>
          </ns3:TrackPointExtension>
        </extensions>
      </trkpt>
      <trkpt lat="43.11933503486216068267822265625" lon="13.134919703006744384765625">
        <ele>351.79998779296875</ele>
        <time>2021-05-25T07:43:18.000Z</time>
        <extensions>
          <ns3:TrackPointExtension>
            <ns3:atemp>20.0</ns3:atemp>
          </ns3:TrackPointExtension>
        </extensions>
      </trkpt>
      <trkpt lat="43.11929513700306415557861328125" lon="13.1348917074501514434814453125">
        <ele>352.600006103515625</ele>
        <time>2021-05-25T07:43:20.000Z</time>
        <extensions>
          <ns3:TrackPointExtension>
            <ns3:atemp>20.0</ns3:atemp>
          </ns3:TrackPointExtension>
        </extensions>
      </trkpt>
      <trkpt lat="43.1192730925977230072021484375" lon="13.13488106243312358856201171875">
        <ele>353</ele>
        <time>2021-05-25T07:43:21.000Z</time>
        <extensions>
          <ns3:TrackPointExtension>
            <ns3:atemp>20.0</ns3:atemp>
          </ns3:TrackPointExtension>
        </extensions>
      </trkpt>
      <trkpt lat="43.1192083843052387237548828125" lon="13.13484619371592998504638671875">
        <ele>354.20001220703125</ele>
        <time>2021-05-25T07:43:24.000Z</time>
        <extensions>
          <ns3:TrackPointExtension>
            <ns3:atemp>20.0</ns3:atemp>
          </ns3:TrackPointExtension>
        </extensions>
      </trkpt>
      <trkpt lat="43.1191557459533214569091796875" lon="13.1348182819783687591552734375">
        <ele>355.20001220703125</ele>
        <time>2021-05-25T07:43:26.000Z</time>
        <extensions>
          <ns3:TrackPointExtension>
            <ns3:atemp>20.0</ns3:atemp>
          </ns3:TrackPointExtension>
        </extensions>
      </trkpt>
      <trkpt lat="43.11913504265248775482177734375" lon="13.13480906188488006591796875">
        <ele>355.600006103515625</ele>
        <time>2021-05-25T07:43:27.000Z</time>
        <extensions>
          <ns3:TrackPointExtension>
            <ns3:atemp>20.0</ns3:atemp>
          </ns3:TrackPointExtension>
        </extensions>
      </trkpt>
      <trkpt lat="43.119055666029453277587890625" lon="13.134772516787052154541015625">
        <ele>356.600006103515625</ele>
        <time>2021-05-25T07:43:30.000Z</time>
        <extensions>
          <ns3:TrackPointExtension>
            <ns3:atemp>20.0</ns3:atemp>
          </ns3:TrackPointExtension>
        </extensions>
      </trkpt>
      <trkpt lat="43.11897645704448223114013671875" lon="13.1347306072711944580078125">
        <ele>357.600006103515625</ele>
        <time>2021-05-25T07:43:33.000Z</time>
        <extensions>
          <ns3:TrackPointExtension>
            <ns3:atemp>20.0</ns3:atemp>
          </ns3:TrackPointExtension>
        </extensions>
      </trkpt>
      <trkpt lat="43.11895198188722133636474609375" lon="13.13471241854131221771240234375">
        <ele>357.79998779296875</ele>
        <time>2021-05-25T07:43:34.000Z</time>
        <extensions>
          <ns3:TrackPointExtension>
            <ns3:atemp>20.0</ns3:atemp>
          </ns3:TrackPointExtension>
        </extensions>
      </trkpt>
      <trkpt lat="43.118883334100246429443359375" lon="13.13464569859206676483154296875">
        <ele>359</ele>
        <time>2021-05-25T07:43:37.000Z</time>
        <extensions>
          <ns3:TrackPointExtension>
            <ns3:atemp>20.0</ns3:atemp>
          </ns3:TrackPointExtension>
        </extensions>
      </trkpt>
      <trkpt lat="43.11881594359874725341796875" lon="13.13457076437771320343017578125">
        <ele>360.20001220703125</ele>
        <time>2021-05-25T07:43:40.000Z</time>
        <extensions>
          <ns3:TrackPointExtension>
            <ns3:atemp>20.0</ns3:atemp>
          </ns3:TrackPointExtension>
        </extensions>
      </trkpt>
      <trkpt lat="43.118723742663860321044921875" lon="13.1345098279416561126708984375">
        <ele>361.600006103515625</ele>
        <time>2021-05-25T07:43:44.000Z</time>
        <extensions>
          <ns3:TrackPointExtension>
            <ns3:atemp>20.0</ns3:atemp>
          </ns3:TrackPointExtension>
        </extensions>
      </trkpt>
      <trkpt lat="43.11868141405284404754638671875" lon="13.1344997696578502655029296875">
        <ele>362.20001220703125</ele>
        <time>2021-05-25T07:43:46.000Z</time>
        <extensions>
          <ns3:TrackPointExtension>
            <ns3:atemp>20.0</ns3:atemp>
          </ns3:TrackPointExtension>
        </extensions>
      </trkpt>
      <trkpt lat="43.11865895055234432220458984375" lon="13.13450597226619720458984375">
        <ele>362.600006103515625</ele>
        <time>2021-05-25T07:43:47.000Z</time>
        <extensions>
          <ns3:TrackPointExtension>
            <ns3:atemp>20.0</ns3:atemp>
          </ns3:TrackPointExtension>
        </extensions>
      </trkpt>
      <trkpt lat="43.11859508045017719268798828125" lon="13.13454964198172092437744140625">
        <ele>363.600006103515625</ele>
        <time>2021-05-25T07:43:50.000Z</time>
        <extensions>
          <ns3:TrackPointExtension>
            <ns3:atemp>20.0</ns3:atemp>
          </ns3:TrackPointExtension>
        </extensions>
      </trkpt>
      <trkpt lat="43.11857999302446842193603515625" lon="13.1345735304057598114013671875">
        <ele>363.79998779296875</ele>
        <time>2021-05-25T07:43:51.000Z</time>
        <extensions>
          <ns3:TrackPointExtension>
            <ns3:atemp>20.0</ns3:atemp>
          </ns3:TrackPointExtension>
        </extensions>
      </trkpt>
      <trkpt lat="43.118536658585071563720703125" lon="13.1346982531249523162841796875">
        <ele>365</ele>
        <time>2021-05-25T07:43:55.000Z</time>
        <extensions>
          <ns3:TrackPointExtension>
            <ns3:atemp>20.0</ns3:atemp>
          </ns3:TrackPointExtension>
        </extensions>
      </trkpt>
      <trkpt lat="43.11853841878473758697509765625" lon="13.1347257457673549652099609375">
        <ele>365.399993896484375</ele>
        <time>2021-05-25T07:43:56.000Z</time>
        <extensions>
          <ns3:TrackPointExtension>
            <ns3:atemp>20.0</ns3:atemp>
          </ns3:TrackPointExtension>
        </extensions>
      </trkpt>
      <trkpt lat="43.1185545958578586578369140625" lon="13.13478299416601657867431640625">
        <ele>366</ele>
        <time>2021-05-25T07:43:58.000Z</time>
        <extensions>
          <ns3:TrackPointExtension>
            <ns3:atemp>20.0</ns3:atemp>
          </ns3:TrackPointExtension>
        </extensions>
      </trkpt>
      <trkpt lat="43.11858602799475193023681640625" lon="13.134867064654827117919921875">
        <ele>367</ele>
        <time>2021-05-25T07:44:01.000Z</time>
        <extensions>
          <ns3:TrackPointExtension>
            <ns3:atemp>20.0</ns3:atemp>
          </ns3:TrackPointExtension>
        </extensions>
      </trkpt>
      <trkpt lat="43.1186015345156192779541015625" lon="13.13492163084447383880615234375">
        <ele>367.20001220703125</ele>
        <time>2021-05-25T07:44:03.000Z</time>
        <extensions>
          <ns3:TrackPointExtension>
            <ns3:atemp>20.0</ns3:atemp>
          </ns3:TrackPointExtension>
        </extensions>
      </trkpt>
      <trkpt lat="43.11865258030593395233154296875" lon="13.1350727565586566925048828125">
        <ele>368.399993896484375</ele>
        <time>2021-05-25T07:44:08.000Z</time>
        <extensions>
          <ns3:TrackPointExtension>
            <ns3:atemp>20.0</ns3:atemp>
          </ns3:TrackPointExtension>
        </extensions>
      </trkpt>
      <trkpt lat="43.11867387033998966217041015625" lon="13.13513302244246006011962890625">
        <ele>368.600006103515625</ele>
        <time>2021-05-25T07:44:10.000Z</time>
        <extensions>
          <ns3:TrackPointExtension>
            <ns3:atemp>20.0</ns3:atemp>
          </ns3:TrackPointExtension>
        </extensions>
      </trkpt>
      <trkpt lat="43.1187436915934085845947265625" lon="13.13531122170388698577880859375">
        <ele>369.600006103515625</ele>
        <time>2021-05-25T07:44:16.000Z</time>
        <extensions>
          <ns3:TrackPointExtension>
            <ns3:atemp>20.0</ns3:atemp>
          </ns3:TrackPointExtension>
        </extensions>
      </trkpt>
      <trkpt lat="43.11877361498773097991943359375" lon="13.1353996507823467254638671875">
        <ele>370.79998779296875</ele>
        <time>2021-05-25T07:44:19.000Z</time>
        <extensions>
          <ns3:TrackPointExtension>
            <ns3:atemp>20.0</ns3:atemp>
          </ns3:TrackPointExtension>
        </extensions>
      </trkpt>
      <trkpt lat="43.11881669797003269195556640625" lon="13.135518841445446014404296875">
        <ele>371.79998779296875</ele>
        <time>2021-05-25T07:44:23.000Z</time>
        <extensions>
          <ns3:TrackPointExtension>
            <ns3:atemp>20.0</ns3:atemp>
          </ns3:TrackPointExtension>
        </extensions>
      </trkpt>
      <trkpt lat="43.11886422336101531982421875" lon="13.13563409261405467987060546875">
        <ele>373.20001220703125</ele>
        <time>2021-05-25T07:44:27.000Z</time>
        <extensions>
          <ns3:TrackPointExtension>
            <ns3:atemp>20.0</ns3:atemp>
          </ns3:TrackPointExtension>
        </extensions>
      </trkpt>
      <trkpt lat="43.11890319921076297760009765625" lon="13.135719001293182373046875">
        <ele>374.20001220703125</ele>
        <time>2021-05-25T07:44:30.000Z</time>
        <extensions>
          <ns3:TrackPointExtension>
            <ns3:atemp>20.0</ns3:atemp>
          </ns3:TrackPointExtension>
        </extensions>
      </trkpt>
      <trkpt lat="43.1189425103366374969482421875" lon="13.13584229908883571624755859375">
        <ele>375.600006103515625</ele>
        <time>2021-05-25T07:44:34.000Z</time>
        <extensions>
          <ns3:TrackPointExtension>
            <ns3:atemp>20.0</ns3:atemp>
          </ns3:TrackPointExtension>
        </extensions>
      </trkpt>
      <trkpt lat="43.1189505569636821746826171875" lon="13.13587389886379241943359375">
        <ele>375.79998779296875</ele>
        <time>2021-05-25T07:44:35.000Z</time>
        <extensions>
          <ns3:TrackPointExtension>
            <ns3:atemp>20.0</ns3:atemp>
          </ns3:TrackPointExtension>
        </extensions>
      </trkpt>
      <trkpt lat="43.11897695995867252349853515625" lon="13.1360018067061901092529296875">
        <ele>376.79998779296875</ele>
        <time>2021-05-25T07:44:39.000Z</time>
        <extensions>
          <ns3:TrackPointExtension>
            <ns3:atemp>20.0</ns3:atemp>
          </ns3:TrackPointExtension>
        </extensions>
      </trkpt>
      <trkpt lat="43.1189887784421443939208984375" lon="13.13606257550418376922607421875">
        <ele>377.399993896484375</ele>
        <time>2021-05-25T07:44:41.000Z</time>
        <extensions>
          <ns3:TrackPointExtension>
            <ns3:atemp>20.0</ns3:atemp>
          </ns3:TrackPointExtension>
        </extensions>
      </trkpt>
      <trkpt lat="43.1189944781363010406494140625" lon="13.13613097183406352996826171875">
        <ele>378</ele>
        <time>2021-05-25T07:44:43.000Z</time>
        <extensions>
          <ns3:TrackPointExtension>
            <ns3:atemp>20.0</ns3:atemp>
          </ns3:TrackPointExtension>
        </extensions>
      </trkpt>
      <trkpt lat="43.119023144245147705078125" lon="13.13627514056861400604248046875">
        <ele>379</ele>
        <time>2021-05-25T07:44:47.000Z</time>
        <extensions>
          <ns3:TrackPointExtension>
            <ns3:atemp>20.0</ns3:atemp>
          </ns3:TrackPointExtension>
        </extensions>
      </trkpt>
      <trkpt lat="43.119031526148319244384765625" lon="13.1363095901906490325927734375">
        <ele>379.399993896484375</ele>
        <time>2021-05-25T07:44:48.000Z</time>
        <extensions>
          <ns3:TrackPointExtension>
            <ns3:atemp>20.0</ns3:atemp>
          </ns3:TrackPointExtension>
        </extensions>
      </trkpt>
      <trkpt lat="43.11907284893095493316650390625" lon="13.1364095024764537811279296875">
        <ele>380.20001220703125</ele>
        <time>2021-05-25T07:44:51.000Z</time>
        <extensions>
          <ns3:TrackPointExtension>
            <ns3:atemp>20.0</ns3:atemp>
          </ns3:TrackPointExtension>
        </extensions>
      </trkpt>
      <trkpt lat="43.119136132299900054931640625" lon="13.1364892981946468353271484375">
        <ele>381</ele>
        <time>2021-05-25T07:44:54.000Z</time>
        <extensions>
          <ns3:TrackPointExtension>
            <ns3:atemp>20.0</ns3:atemp>
          </ns3:TrackPointExtension>
        </extensions>
      </trkpt>
      <trkpt lat="43.119158260524272918701171875" lon="13.13651033677160739898681640625">
        <ele>381.399993896484375</ele>
        <time>2021-05-25T07:44:55.000Z</time>
        <extensions>
          <ns3:TrackPointExtension>
            <ns3:atemp>20.0</ns3:atemp>
          </ns3:TrackPointExtension>
        </extensions>
      </trkpt>
      <trkpt lat="43.11925322748720645904541015625" lon="13.13659164123237133026123046875">
        <ele>382.600006103515625</ele>
        <time>2021-05-25T07:44:59.000Z</time>
        <extensions>
          <ns3:TrackPointExtension>
            <ns3:atemp>20.0</ns3:atemp>
          </ns3:TrackPointExtension>
        </extensions>
      </trkpt>
      <trkpt lat="43.1193106435239315032958984375" lon="13.1366418488323688507080078125">
        <ele>382.79998779296875</ele>
        <time>2021-05-25T07:45:02.000Z</time>
        <extensions>
          <ns3:TrackPointExtension>
            <ns3:atemp>20.0</ns3:atemp>
          </ns3:TrackPointExtension>
        </extensions>
      </trkpt>
      <trkpt lat="43.11933453194797039031982421875" lon="13.1366633065044879913330078125">
        <ele>383</ele>
        <time>2021-05-25T07:45:04.000Z</time>
        <extensions>
          <ns3:TrackPointExtension>
            <ns3:atemp>20.0</ns3:atemp>
          </ns3:TrackPointExtension>
        </extensions>
      </trkpt>
      <trkpt lat="43.119360096752643585205078125" lon="13.136682920157909393310546875">
        <ele>383.600006103515625</ele>
        <time>2021-05-25T07:45:07.000Z</time>
        <extensions>
          <ns3:TrackPointExtension>
            <ns3:atemp>20.0</ns3:atemp>
          </ns3:TrackPointExtension>
        </extensions>
      </trkpt>
      <trkpt lat="43.1193649582564830780029296875" lon="13.13668535090982913970947265625">
        <ele>383.600006103515625</ele>
        <time>2021-05-25T07:45:08.000Z</time>
        <extensions>
          <ns3:TrackPointExtension>
            <ns3:atemp>20.0</ns3:atemp>
          </ns3:TrackPointExtension>
        </extensions>
      </trkpt>
      <trkpt lat="43.11938080005347728729248046875" lon="13.13669188879430294036865234375">
        <ele>384.79998779296875</ele>
        <time>2021-05-25T07:45:12.000Z</time>
        <extensions>
          <ns3:TrackPointExtension>
            <ns3:atemp>20.0</ns3:atemp>
          </ns3:TrackPointExtension>
        </extensions>
      </trkpt>
      <trkpt lat="43.11938415281474590301513671875" lon="13.136688955128192901611328125">
        <ele>385.399993896484375</ele>
        <time>2021-05-25T07:45:14.000Z</time>
        <extensions>
          <ns3:TrackPointExtension>
            <ns3:atemp>20.0</ns3:atemp>
          </ns3:TrackPointExtension>
        </extensions>
      </trkpt>
      <trkpt lat="43.11940678395330905914306640625" lon="13.1367028690874576568603515625">
        <ele>385.79998779296875</ele>
        <time>2021-05-25T07:45:17.000Z</time>
        <extensions>
          <ns3:TrackPointExtension>
            <ns3:atemp>20.0</ns3:atemp>
          </ns3:TrackPointExtension>
        </extensions>
      </trkpt>
      <trkpt lat="43.11946864239871501922607421875" lon="13.136748634278774261474609375">
        <ele>386</ele>
        <time>2021-05-25T07:45:20.000Z</time>
        <extensions>
          <ns3:TrackPointExtension>
            <ns3:atemp>20.0</ns3:atemp>
          </ns3:TrackPointExtension>
        </extensions>
      </trkpt>
      <trkpt lat="43.11962991021573543548583984375" lon="13.1369043700397014617919921875">
        <ele>386.79998779296875</ele>
        <time>2021-05-25T07:45:28.000Z</time>
        <extensions>
          <ns3:TrackPointExtension>
            <ns3:atemp>20.0</ns3:atemp>
          </ns3:TrackPointExtension>
        </extensions>
      </trkpt>
      <trkpt lat="43.1196440756320953369140625" lon="13.1369328685104846954345703125">
        <ele>387</ele>
        <time>2021-05-25T07:45:29.000Z</time>
        <extensions>
          <ns3:TrackPointExtension>
            <ns3:atemp>20.0</ns3:atemp>
          </ns3:TrackPointExtension>
        </extensions>
      </trkpt>
      <trkpt lat="43.11967047862708568572998046875" lon="13.137020207941532135009765625">
        <ele>388.399993896484375</ele>
        <time>2021-05-25T07:45:32.000Z</time>
        <extensions>
          <ns3:TrackPointExtension>
            <ns3:atemp>20.0</ns3:atemp>
          </ns3:TrackPointExtension>
        </extensions>
      </trkpt>
      <trkpt lat="43.11968036927282810211181640625" lon="13.13708516769111156463623046875">
        <ele>389.20001220703125</ele>
        <time>2021-05-25T07:45:34.000Z</time>
        <extensions>
          <ns3:TrackPointExtension>
            <ns3:atemp>20.0</ns3:atemp>
          </ns3:TrackPointExtension>
        </extensions>
      </trkpt>
      <trkpt lat="43.11968556605279445648193359375" lon="13.1371186114847660064697265625">
        <ele>389.600006103515625</ele>
        <time>2021-05-25T07:45:35.000Z</time>
        <extensions>
          <ns3:TrackPointExtension>
            <ns3:atemp>20.0</ns3:atemp>
          </ns3:TrackPointExtension>
        </extensions>
      </trkpt>
      <trkpt lat="43.1197099573910236358642578125" lon="13.13724945299327373504638671875">
        <ele>391</ele>
        <time>2021-05-25T07:45:39.000Z</time>
        <extensions>
          <ns3:TrackPointExtension>
            <ns3:atemp>20.0</ns3:atemp>
          </ns3:TrackPointExtension>
        </extensions>
      </trkpt>
      <trkpt lat="43.11972261406481266021728515625" lon="13.1373060308396816253662109375">
        <ele>392</ele>
        <time>2021-05-25T07:45:41.000Z</time>
        <extensions>
          <ns3:TrackPointExtension>
            <ns3:atemp>20.0</ns3:atemp>
          </ns3:TrackPointExtension>
        </extensions>
      </trkpt>
      <trkpt lat="43.119729571044445037841796875" lon="13.13733109273016452789306640625">
        <ele>392.399993896484375</ele>
        <time>2021-05-25T07:45:42.000Z</time>
        <extensions>
          <ns3:TrackPointExtension>
            <ns3:atemp>20.0</ns3:atemp>
          </ns3:TrackPointExtension>
        </extensions>
      </trkpt>
      <trkpt lat="43.11975161544978618621826171875" lon="13.1373764388263225555419921875">
        <ele>393.399993896484375</ele>
        <time>2021-05-25T07:45:44.000Z</time>
        <extensions>
          <ns3:TrackPointExtension>
            <ns3:atemp>20.0</ns3:atemp>
          </ns3:TrackPointExtension>
        </extensions>
      </trkpt>
      <trkpt lat="43.11978748999536037445068359375" lon="13.13744776882231235504150390625">
        <ele>394.600006103515625</ele>
        <time>2021-05-25T07:45:47.000Z</time>
        <extensions>
          <ns3:TrackPointExtension>
            <ns3:atemp>20.0</ns3:atemp>
          </ns3:TrackPointExtension>
        </extensions>
      </trkpt>
      <trkpt lat="43.11980626545846462249755859375" lon="13.13749588094651699066162109375">
        <ele>395.600006103515625</ele>
        <time>2021-05-25T07:45:49.000Z</time>
        <extensions>
          <ns3:TrackPointExtension>
            <ns3:atemp>20.0</ns3:atemp>
          </ns3:TrackPointExtension>
        </extensions>
      </trkpt>
      <trkpt lat="43.11982168816030025482177734375" lon="13.13756369054317474365234375">
        <ele>397</ele>
        <time>2021-05-25T07:45:52.000Z</time>
        <extensions>
          <ns3:TrackPointExtension>
            <ns3:atemp>20.0</ns3:atemp>
          </ns3:TrackPointExtension>
        </extensions>
      </trkpt>
      <trkpt lat="43.11981800012290477752685546875" lon="13.13759042881429195404052734375">
        <ele>397.20001220703125</ele>
        <time>2021-05-25T07:45:53.000Z</time>
        <extensions>
          <ns3:TrackPointExtension>
            <ns3:atemp>20.0</ns3:atemp>
          </ns3:TrackPointExtension>
        </extensions>
      </trkpt>
      <trkpt lat="43.11979268677532672882080078125" lon="13.13763133250176906585693359375">
        <ele>398</ele>
        <time>2021-05-25T07:45:55.000Z</time>
        <extensions>
          <ns3:TrackPointExtension>
            <ns3:atemp>20.0</ns3:atemp>
          </ns3:TrackPointExtension>
        </extensions>
      </trkpt>
      <trkpt lat="43.11975798569619655609130859375" lon="13.13762596808373928070068359375">
        <ele>398.79998779296875</ele>
        <time>2021-05-25T07:45:57.000Z</time>
        <extensions>
          <ns3:TrackPointExtension>
            <ns3:atemp>20.0</ns3:atemp>
          </ns3:TrackPointExtension>
        </extensions>
      </trkpt>
      <trkpt lat="43.1197428144514560699462890625" lon="13.13760786317288875579833984375">
        <ele>399.600006103515625</ele>
        <time>2021-05-25T07:45:58.000Z</time>
        <extensions>
          <ns3:TrackPointExtension>
            <ns3:atemp>20.0</ns3:atemp>
          </ns3:TrackPointExtension>
        </extensions>
      </trkpt>
      <trkpt lat="43.1197112984955310821533203125" lon="13.13756226561963558197021484375">
        <ele>400.600006103515625</ele>
        <time>2021-05-25T07:46:00.000Z</time>
        <extensions>
          <ns3:TrackPointExtension>
            <ns3:atemp>20.0</ns3:atemp>
          </ns3:TrackPointExtension>
        </extensions>
      </trkpt>
      <trkpt lat="43.1196479313075542449951171875" lon="13.13750141300261020660400390625">
        <ele>401.79998779296875</ele>
        <time>2021-05-25T07:46:03.000Z</time>
        <extensions>
          <ns3:TrackPointExtension>
            <ns3:atemp>20.0</ns3:atemp>
          </ns3:TrackPointExtension>
        </extensions>
      </trkpt>
      <trkpt lat="43.119579367339611053466796875" lon="13.1374572403728961944580078125">
        <ele>403</ele>
        <time>2021-05-25T07:46:06.000Z</time>
        <extensions>
          <ns3:TrackPointExtension>
            <ns3:atemp>20.0</ns3:atemp>
          </ns3:TrackPointExtension>
        </extensions>
      </trkpt>
      <trkpt lat="43.11949965544044971466064453125" lon="13.13743251375854015350341796875">
        <ele>403.600006103515625</ele>
        <time>2021-05-25T07:46:09.000Z</time>
        <extensions>
          <ns3:TrackPointExtension>
            <ns3:atemp>20.0</ns3:atemp>
          </ns3:TrackPointExtension>
        </extensions>
      </trkpt>
      <trkpt lat="43.1194467656314373016357421875" lon="13.13743117265403270721435546875">
        <ele>404.399993896484375</ele>
        <time>2021-05-25T07:46:11.000Z</time>
        <extensions>
          <ns3:TrackPointExtension>
            <ns3:atemp>20.0</ns3:atemp>
          </ns3:TrackPointExtension>
        </extensions>
      </trkpt>
      <trkpt lat="43.11936722137033939361572265625" lon="13.13742832280695438385009765625">
        <ele>405.399993896484375</ele>
        <time>2021-05-25T07:46:14.000Z</time>
        <extensions>
          <ns3:TrackPointExtension>
            <ns3:atemp>20.0</ns3:atemp>
          </ns3:TrackPointExtension>
        </extensions>
      </trkpt>
      <trkpt lat="43.11934006400406360626220703125" lon="13.13742823898792266845703125">
        <ele>405.600006103515625</ele>
        <time>2021-05-25T07:46:15.000Z</time>
        <extensions>
          <ns3:TrackPointExtension>
            <ns3:atemp>20.0</ns3:atemp>
          </ns3:TrackPointExtension>
        </extensions>
      </trkpt>
      <trkpt lat="43.119166977703571319580078125" lon="13.13737719319760799407958984375">
        <ele>406</ele>
        <time>2021-05-25T07:46:21.000Z</time>
        <extensions>
          <ns3:TrackPointExtension>
            <ns3:atemp>19.0</ns3:atemp>
          </ns3:TrackPointExtension>
        </extensions>
      </trkpt>
      <trkpt lat="43.119046948850154876708984375" lon="13.1373415701091289520263671875">
        <ele>406.399993896484375</ele>
        <time>2021-05-25T07:46:25.000Z</time>
        <extensions>
          <ns3:TrackPointExtension>
            <ns3:atemp>19.0</ns3:atemp>
          </ns3:TrackPointExtension>
        </extensions>
      </trkpt>
      <trkpt lat="43.11901819892227649688720703125" lon="13.13734886236488819122314453125">
        <ele>406.600006103515625</ele>
        <time>2021-05-25T07:46:26.000Z</time>
        <extensions>
          <ns3:TrackPointExtension>
            <ns3:atemp>19.0</ns3:atemp>
          </ns3:TrackPointExtension>
        </extensions>
      </trkpt>
      <trkpt lat="43.11896882951259613037109375" lon="13.13736177049577236175537109375">
        <ele>407.600006103515625</ele>
        <time>2021-05-25T07:46:29.000Z</time>
        <extensions>
          <ns3:TrackPointExtension>
            <ns3:atemp>19.0</ns3:atemp>
          </ns3:TrackPointExtension>
        </extensions>
      </trkpt>
      <trkpt lat="43.1189619563519954681396484375" lon="13.13736596144735813140869140625">
        <ele>408</ele>
        <time>2021-05-25T07:46:30.000Z</time>
        <extensions>
          <ns3:TrackPointExtension>
            <ns3:atemp>19.0</ns3:atemp>
          </ns3:TrackPointExtension>
        </extensions>
      </trkpt>
      <trkpt lat="43.11895868740975856781005859375" lon="13.1373806297779083251953125">
        <ele>408.79998779296875</ele>
        <time>2021-05-25T07:46:32.000Z</time>
        <extensions>
          <ns3:TrackPointExtension>
            <ns3:atemp>19.0</ns3:atemp>
          </ns3:TrackPointExtension>
        </extensions>
      </trkpt>
      <trkpt lat="43.11896287836134433746337890625" lon="13.137396387755870819091796875">
        <ele>409.399993896484375</ele>
        <time>2021-05-25T07:46:33.000Z</time>
        <extensions>
          <ns3:TrackPointExtension>
            <ns3:atemp>19.0</ns3:atemp>
          </ns3:TrackPointExtension>
        </extensions>
      </trkpt>
      <trkpt lat="43.11898048035800457000732421875" lon="13.13744165003299713134765625">
        <ele>410.20001220703125</ele>
        <time>2021-05-25T07:46:35.000Z</time>
        <extensions>
          <ns3:TrackPointExtension>
            <ns3:atemp>19.0</ns3:atemp>
          </ns3:TrackPointExtension>
        </extensions>
      </trkpt>
      <trkpt lat="43.11899506486952304840087890625" lon="13.13746537081897258758544921875">
        <ele>410.399993896484375</ele>
        <time>2021-05-25T07:46:36.000Z</time>
        <extensions>
          <ns3:TrackPointExtension>
            <ns3:atemp>19.0</ns3:atemp>
          </ns3:TrackPointExtension>
        </extensions>
      </trkpt>
      <trkpt lat="43.119098581373691558837890625" lon="13.1375777721405029296875">
        <ele>411</ele>
        <time>2021-05-25T07:46:42.000Z</time>
        <extensions>
          <ns3:TrackPointExtension>
            <ns3:atemp>19.0</ns3:atemp>
          </ns3:TrackPointExtension>
        </extensions>
      </trkpt>
      <trkpt lat="43.11915985308587551116943359375" lon="13.1376221962273120880126953125">
        <ele>411.399993896484375</ele>
        <time>2021-05-25T07:46:45.000Z</time>
        <extensions>
          <ns3:TrackPointExtension>
            <ns3:atemp>19.0</ns3:atemp>
          </ns3:TrackPointExtension>
        </extensions>
      </trkpt>
      <trkpt lat="43.11923042871057987213134765625" lon="13.1376636028289794921875">
        <ele>412.399993896484375</ele>
        <time>2021-05-25T07:46:48.000Z</time>
        <extensions>
          <ns3:TrackPointExtension>
            <ns3:atemp>19.0</ns3:atemp>
          </ns3:TrackPointExtension>
        </extensions>
      </trkpt>
      <trkpt lat="43.1193302571773529052734375" lon="13.13773526810109615325927734375">
        <ele>413.79998779296875</ele>
        <time>2021-05-25T07:46:52.000Z</time>
        <extensions>
          <ns3:TrackPointExtension>
            <ns3:atemp>19.0</ns3:atemp>
          </ns3:TrackPointExtension>
        </extensions>
      </trkpt>
      <trkpt lat="43.11937124468386173248291015625" lon="13.13777097500860691070556640625">
        <ele>414.399993896484375</ele>
        <time>2021-05-25T07:46:54.000Z</time>
        <extensions>
          <ns3:TrackPointExtension>
            <ns3:atemp>19.0</ns3:atemp>
          </ns3:TrackPointExtension>
        </extensions>
      </trkpt>
      <trkpt lat="43.1194160878658294677734375" lon="13.1378216855227947235107421875">
        <ele>414.79998779296875</ele>
        <time>2021-05-25T07:46:56.000Z</time>
        <extensions>
          <ns3:TrackPointExtension>
            <ns3:atemp>19.0</ns3:atemp>
          </ns3:TrackPointExtension>
        </extensions>
      </trkpt>
      <trkpt lat="43.11945774592459201812744140625" lon="13.1378816999495029449462890625">
        <ele>415.79998779296875</ele>
        <time>2021-05-25T07:46:58.000Z</time>
        <extensions>
          <ns3:TrackPointExtension>
            <ns3:atemp>19.0</ns3:atemp>
          </ns3:TrackPointExtension>
        </extensions>
      </trkpt>
      <trkpt lat="43.11952496878802776336669921875" lon="13.13796945847570896148681640625">
        <ele>417.399993896484375</ele>
        <time>2021-05-25T07:47:01.000Z</time>
        <extensions>
          <ns3:TrackPointExtension>
            <ns3:atemp>19.0</ns3:atemp>
          </ns3:TrackPointExtension>
        </extensions>
      </trkpt>
      <trkpt lat="43.11956050805747509002685546875" lon="13.13802896998822689056396484375">
        <ele>418.399993896484375</ele>
        <time>2021-05-25T07:47:03.000Z</time>
        <extensions>
          <ns3:TrackPointExtension>
            <ns3:atemp>19.0</ns3:atemp>
          </ns3:TrackPointExtension>
        </extensions>
      </trkpt>
      <trkpt lat="43.1196090392768383026123046875" lon="13.13812620006501674652099609375">
        <ele>419.399993896484375</ele>
        <time>2021-05-25T07:47:06.000Z</time>
        <extensions>
          <ns3:TrackPointExtension>
            <ns3:atemp>19.0</ns3:atemp>
          </ns3:TrackPointExtension>
        </extensions>
      </trkpt>
      <trkpt lat="43.1196258030831813812255859375" lon="13.13816073350608348846435546875">
        <ele>419.79998779296875</ele>
        <time>2021-05-25T07:47:07.000Z</time>
        <extensions>
          <ns3:TrackPointExtension>
            <ns3:atemp>19.0</ns3:atemp>
          </ns3:TrackPointExtension>
        </extensions>
      </trkpt>
      <trkpt lat="43.11965639702975749969482421875" lon="13.138236589729785919189453125">
        <ele>420.399993896484375</ele>
        <time>2021-05-25T07:47:09.000Z</time>
        <extensions>
          <ns3:TrackPointExtension>
            <ns3:atemp>19.0</ns3:atemp>
          </ns3:TrackPointExtension>
        </extensions>
      </trkpt>
      <trkpt lat="43.11971046030521392822265625" lon="13.1383247673511505126953125">
        <ele>421.600006103515625</ele>
        <time>2021-05-25T07:47:12.000Z</time>
        <extensions>
          <ns3:TrackPointExtension>
            <ns3:atemp>19.0</ns3:atemp>
          </ns3:TrackPointExtension>
        </extensions>
      </trkpt>
      <trkpt lat="43.11980274505913257598876953125" lon="13.13841889612376689910888671875">
        <ele>422.600006103515625</ele>
        <time>2021-05-25T07:47:16.000Z</time>
        <extensions>
          <ns3:TrackPointExtension>
            <ns3:atemp>19.0</ns3:atemp>
          </ns3:TrackPointExtension>
        </extensions>
      </trkpt>
      <trkpt lat="43.1199258752167224884033203125" lon="13.1384667567908763885498046875">
        <ele>424</ele>
        <time>2021-05-25T07:47:20.000Z</time>
        <extensions>
          <ns3:TrackPointExtension>
            <ns3:atemp>19.0</ns3:atemp>
          </ns3:TrackPointExtension>
        </extensions>
      </trkpt>
      <trkpt lat="43.11995009891688823699951171875" lon="13.13846516422927379608154296875">
        <ele>424.399993896484375</ele>
        <time>2021-05-25T07:47:21.000Z</time>
        <extensions>
          <ns3:TrackPointExtension>
            <ns3:atemp>19.0</ns3:atemp>
          </ns3:TrackPointExtension>
        </extensions>
      </trkpt>
      <trkpt lat="43.1200019828975200653076171875" lon="13.13846097327768802642822265625">
        <ele>425</ele>
        <time>2021-05-25T07:47:23.000Z</time>
        <extensions>
          <ns3:TrackPointExtension>
            <ns3:atemp>19.0</ns3:atemp>
          </ns3:TrackPointExtension>
        </extensions>
      </trkpt>
      <trkpt lat="43.12008186243474483489990234375" lon="13.1384406052529811859130859375">
        <ele>426.20001220703125</ele>
        <time>2021-05-25T07:47:26.000Z</time>
        <extensions>
          <ns3:TrackPointExtension>
            <ns3:atemp>19.0</ns3:atemp>
          </ns3:TrackPointExtension>
        </extensions>
      </trkpt>
      <trkpt lat="43.12010767869651317596435546875" lon="13.1384308822453022003173828125">
        <ele>426.79998779296875</ele>
        <time>2021-05-25T07:47:27.000Z</time>
        <extensions>
          <ns3:TrackPointExtension>
            <ns3:atemp>19.0</ns3:atemp>
          </ns3:TrackPointExtension>
        </extensions>
      </trkpt>
      <trkpt lat="43.120181858539581298828125" lon="13.1384320557117462158203125">
        <ele>427.399993896484375</ele>
        <time>2021-05-25T07:47:30.000Z</time>
        <extensions>
          <ns3:TrackPointExtension>
            <ns3:atemp>19.0</ns3:atemp>
          </ns3:TrackPointExtension>
        </extensions>
      </trkpt>
      <trkpt lat="43.1202326528728008270263671875" lon="13.13843750394880771636962890625">
        <ele>428.20001220703125</ele>
        <time>2021-05-25T07:47:32.000Z</time>
        <extensions>
          <ns3:TrackPointExtension>
            <ns3:atemp>19.0</ns3:atemp>
          </ns3:TrackPointExtension>
        </extensions>
      </trkpt>
      <trkpt lat="43.1202588044106960296630859375" lon="13.138449154794216156005859375">
        <ele>428.79998779296875</ele>
        <time>2021-05-25T07:47:33.000Z</time>
        <extensions>
          <ns3:TrackPointExtension>
            <ns3:atemp>19.0</ns3:atemp>
          </ns3:TrackPointExtension>
        </extensions>
      </trkpt>
      <trkpt lat="43.12033248133957386016845703125" lon="13.1384882144629955291748046875">
        <ele>430</ele>
        <time>2021-05-25T07:47:36.000Z</time>
        <extensions>
          <ns3:TrackPointExtension>
            <ns3:atemp>19.0</ns3:atemp>
          </ns3:TrackPointExtension>
        </extensions>
      </trkpt>
      <trkpt lat="43.12039819546043872833251953125" lon="13.13851729966700077056884765625">
        <ele>431.399993896484375</ele>
        <time>2021-05-25T07:47:39.000Z</time>
        <extensions>
          <ns3:TrackPointExtension>
            <ns3:atemp>19.0</ns3:atemp>
          </ns3:TrackPointExtension>
        </extensions>
      </trkpt>
      <trkpt lat="43.12044228427112102508544921875" lon="13.138530962169170379638671875">
        <ele>432.600006103515625</ele>
        <time>2021-05-25T07:47:41.000Z</time>
        <extensions>
          <ns3:TrackPointExtension>
            <ns3:atemp>19.0</ns3:atemp>
          </ns3:TrackPointExtension>
        </extensions>
      </trkpt>
      <trkpt lat="43.1204809248447418212890625" lon="13.1385472230613231658935546875">
        <ele>433.600006103515625</ele>
        <time>2021-05-25T07:47:43.000Z</time>
        <extensions>
          <ns3:TrackPointExtension>
            <ns3:atemp>19.0</ns3:atemp>
          </ns3:TrackPointExtension>
        </extensions>
      </trkpt>
      <trkpt lat="43.120519816875457763671875" lon="13.1385606341063976287841796875">
        <ele>434.600006103515625</ele>
        <time>2021-05-25T07:47:45.000Z</time>
        <extensions>
          <ns3:TrackPointExtension>
            <ns3:atemp>19.0</ns3:atemp>
          </ns3:TrackPointExtension>
        </extensions>
      </trkpt>
      <trkpt lat="43.120573125779628753662109375" lon="13.13858552835881710052490234375">
        <ele>435.79998779296875</ele>
        <time>2021-05-25T07:47:48.000Z</time>
        <extensions>
          <ns3:TrackPointExtension>
            <ns3:atemp>19.0</ns3:atemp>
          </ns3:TrackPointExtension>
        </extensions>
      </trkpt>
      <trkpt lat="43.1206245906651020050048828125" lon="13.1386112608015537261962890625">
        <ele>437.20001220703125</ele>
        <time>2021-05-25T07:47:51.000Z</time>
        <extensions>
          <ns3:TrackPointExtension>
            <ns3:atemp>19.0</ns3:atemp>
          </ns3:TrackPointExtension>
        </extensions>
      </trkpt>
      <trkpt lat="43.12064194120466709136962890625" lon="13.1386198103427886962890625">
        <ele>437.600006103515625</ele>
        <time>2021-05-25T07:47:52.000Z</time>
        <extensions>
          <ns3:TrackPointExtension>
            <ns3:atemp>19.0</ns3:atemp>
          </ns3:TrackPointExtension>
        </extensions>
      </trkpt>
      <trkpt lat="43.12068049795925617218017578125" lon="13.13864202238619327545166015625">
        <ele>438.20001220703125</ele>
        <time>2021-05-25T07:47:54.000Z</time>
        <extensions>
          <ns3:TrackPointExtension>
            <ns3:atemp>19.0</ns3:atemp>
          </ns3:TrackPointExtension>
        </extensions>
      </trkpt>
      <trkpt lat="43.12072098255157470703125" lon="13.13866339623928070068359375">
        <ele>439.399993896484375</ele>
        <time>2021-05-25T07:47:56.000Z</time>
        <extensions>
          <ns3:TrackPointExtension>
            <ns3:atemp>19.0</ns3:atemp>
          </ns3:TrackPointExtension>
        </extensions>
      </trkpt>
      <trkpt lat="43.1207949109375476837158203125" lon="13.1387021206319332122802734375">
        <ele>440.600006103515625</ele>
        <time>2021-05-25T07:48:00.000Z</time>
        <extensions>
          <ns3:TrackPointExtension>
            <ns3:atemp>19.0</ns3:atemp>
          </ns3:TrackPointExtension>
        </extensions>
      </trkpt>
      <trkpt lat="43.12087713740766048431396484375" lon="13.138739168643951416015625">
        <ele>442</ele>
        <time>2021-05-25T07:48:04.000Z</time>
        <extensions>
          <ns3:TrackPointExtension>
            <ns3:atemp>18.0</ns3:atemp>
          </ns3:TrackPointExtension>
        </extensions>
      </trkpt>
      <trkpt lat="43.12094788067042827606201171875" lon="13.1387621350586414337158203125">
        <ele>443</ele>
        <time>2021-05-25T07:48:07.000Z</time>
        <extensions>
          <ns3:TrackPointExtension>
            <ns3:atemp>18.0</ns3:atemp>
          </ns3:TrackPointExtension>
        </extensions>
      </trkpt>
      <trkpt lat="43.12103790231049060821533203125" lon="13.13880077563226222991943359375">
        <ele>444.20001220703125</ele>
        <time>2021-05-25T07:48:11.000Z</time>
        <extensions>
          <ns3:TrackPointExtension>
            <ns3:atemp>18.0</ns3:atemp>
          </ns3:TrackPointExtension>
        </extensions>
      </trkpt>
      <trkpt lat="43.121106214821338653564453125" lon="13.13883279450237751007080078125">
        <ele>445</ele>
        <time>2021-05-25T07:48:14.000Z</time>
        <extensions>
          <ns3:TrackPointExtension>
            <ns3:atemp>18.0</ns3:atemp>
          </ns3:TrackPointExtension>
        </extensions>
      </trkpt>
      <trkpt lat="43.1211516447365283966064453125" lon="13.13884913921356201171875">
        <ele>445.399993896484375</ele>
        <time>2021-05-25T07:48:16.000Z</time>
        <extensions>
          <ns3:TrackPointExtension>
            <ns3:atemp>18.0</ns3:atemp>
          </ns3:TrackPointExtension>
        </extensions>
      </trkpt>
      <trkpt lat="43.12124292366206645965576171875" lon="13.13888761214911937713623046875">
        <ele>446.399993896484375</ele>
        <time>2021-05-25T07:48:20.000Z</time>
        <extensions>
          <ns3:TrackPointExtension>
            <ns3:atemp>18.0</ns3:atemp>
          </ns3:TrackPointExtension>
        </extensions>
      </trkpt>
      <trkpt lat="43.1213119067251682281494140625" lon="13.1389136798679828643798828125">
        <ele>447.600006103515625</ele>
        <time>2021-05-25T07:48:23.000Z</time>
        <extensions>
          <ns3:TrackPointExtension>
            <ns3:atemp>18.0</ns3:atemp>
          </ns3:TrackPointExtension>
        </extensions>
      </trkpt>
      <trkpt lat="43.12138390727341175079345703125" lon="13.13894460909068584442138671875">
        <ele>449</ele>
        <time>2021-05-25T07:48:26.000Z</time>
        <extensions>
          <ns3:TrackPointExtension>
            <ns3:atemp>18.0</ns3:atemp>
          </ns3:TrackPointExtension>
        </extensions>
      </trkpt>
      <trkpt lat="43.12140670605003833770751953125" lon="13.13895550556480884552001953125">
        <ele>449.20001220703125</ele>
        <time>2021-05-25T07:48:27.000Z</time>
        <extensions>
          <ns3:TrackPointExtension>
            <ns3:atemp>18.0</ns3:atemp>
          </ns3:TrackPointExtension>
        </extensions>
      </trkpt>
      <trkpt lat="43.12147510237991809844970703125" lon="13.13898500986397266387939453125">
        <ele>450.20001220703125</ele>
        <time>2021-05-25T07:48:30.000Z</time>
        <extensions>
          <ns3:TrackPointExtension>
            <ns3:atemp>18.0</ns3:atemp>
          </ns3:TrackPointExtension>
        </extensions>
      </trkpt>
      <trkpt lat="43.121562190353870391845703125" lon="13.1390246562659740447998046875">
        <ele>451.399993896484375</ele>
        <time>2021-05-25T07:48:34.000Z</time>
        <extensions>
          <ns3:TrackPointExtension>
            <ns3:atemp>18.0</ns3:atemp>
          </ns3:TrackPointExtension>
        </extensions>
      </trkpt>
      <trkpt lat="43.121578954160213470458984375" lon="13.13903865404427051544189453125">
        <ele>451.600006103515625</ele>
        <time>2021-05-25T07:48:35.000Z</time>
        <extensions>
          <ns3:TrackPointExtension>
            <ns3:atemp>18.0</ns3:atemp>
          </ns3:TrackPointExtension>
        </extensions>
      </trkpt>
      <trkpt lat="43.1216374598443508148193359375" lon="13.13906815834343433380126953125">
        <ele>452.399993896484375</ele>
        <time>2021-05-25T07:48:38.000Z</time>
        <extensions>
          <ns3:TrackPointExtension>
            <ns3:atemp>18.0</ns3:atemp>
          </ns3:TrackPointExtension>
        </extensions>
      </trkpt>
      <trkpt lat="43.12167643569409847259521484375" lon="13.13909246586263179779052734375">
        <ele>453</ele>
        <time>2021-05-25T07:48:40.000Z</time>
        <extensions>
          <ns3:TrackPointExtension>
            <ns3:atemp>18.0</ns3:atemp>
          </ns3:TrackPointExtension>
        </extensions>
      </trkpt>
      <trkpt lat="43.1217219494283199310302734375" lon="13.13911157660186290740966796875">
        <ele>453.600006103515625</ele>
        <time>2021-05-25T07:48:42.000Z</time>
        <extensions>
          <ns3:TrackPointExtension>
            <ns3:atemp>18.0</ns3:atemp>
          </ns3:TrackPointExtension>
        </extensions>
      </trkpt>
      <trkpt lat="43.12180199660360813140869140625" lon="13.13912800513207912445068359375">
        <ele>454.600006103515625</ele>
        <time>2021-05-25T07:48:46.000Z</time>
        <extensions>
          <ns3:TrackPointExtension>
            <ns3:atemp>18.0</ns3:atemp>
          </ns3:TrackPointExtension>
        </extensions>
      </trkpt>
      <trkpt lat="43.121902160346508026123046875" lon="13.13913823105394840240478515625">
        <ele>455.79998779296875</ele>
        <time>2021-05-25T07:48:51.000Z</time>
        <extensions>
          <ns3:TrackPointExtension>
            <ns3:atemp>18.0</ns3:atemp>
          </ns3:TrackPointExtension>
        </extensions>
      </trkpt>
      <trkpt lat="43.1219599954783916473388671875" lon="13.1391490437090396881103515625">
        <ele>457</ele>
        <time>2021-05-25T07:48:55.000Z</time>
        <extensions>
          <ns3:TrackPointExtension>
            <ns3:atemp>18.0</ns3:atemp>
          </ns3:TrackPointExtension>
        </extensions>
      </trkpt>
      <trkpt lat="43.121987320482730865478515625" lon="13.13914476893842220306396484375">
        <ele>457.79998779296875</ele>
        <time>2021-05-25T07:48:57.000Z</time>
        <extensions>
          <ns3:TrackPointExtension>
            <ns3:atemp>18.0</ns3:atemp>
          </ns3:TrackPointExtension>
        </extensions>
      </trkpt>
      <trkpt lat="43.12201808206737041473388671875" lon="13.1391406618058681488037109375">
        <ele>458.20001220703125</ele>
        <time>2021-05-25T07:48:59.000Z</time>
        <extensions>
          <ns3:TrackPointExtension>
            <ns3:atemp>18.0</ns3:atemp>
          </ns3:TrackPointExtension>
        </extensions>
      </trkpt>
      <trkpt lat="43.1221103668212890625" lon="13.13913253135979175567626953125">
        <ele>459.399993896484375</ele>
        <time>2021-05-25T07:49:04.000Z</time>
        <extensions>
          <ns3:TrackPointExtension>
            <ns3:atemp>18.0</ns3:atemp>
          </ns3:TrackPointExtension>
        </extensions>
      </trkpt>
      <trkpt lat="43.1221997179090976715087890625" lon="13.1391128338873386383056640625">
        <ele>460.600006103515625</ele>
        <time>2021-05-25T07:49:08.000Z</time>
        <extensions>
          <ns3:TrackPointExtension>
            <ns3:atemp>18.0</ns3:atemp>
          </ns3:TrackPointExtension>
        </extensions>
      </trkpt>
      <trkpt lat="43.1222791783511638641357421875" lon="13.13909347169101238250732421875">
        <ele>461</ele>
        <time>2021-05-25T07:49:11.000Z</time>
        <extensions>
          <ns3:TrackPointExtension>
            <ns3:atemp>18.0</ns3:atemp>
          </ns3:TrackPointExtension>
        </extensions>
      </trkpt>
      <trkpt lat="43.1223277933895587921142578125" lon="13.13908324576914310455322265625">
        <ele>461.600006103515625</ele>
        <time>2021-05-25T07:49:13.000Z</time>
        <extensions>
          <ns3:TrackPointExtension>
            <ns3:atemp>18.0</ns3:atemp>
          </ns3:TrackPointExtension>
        </extensions>
      </trkpt>
      <trkpt lat="43.122413791716098785400390625" lon="13.13905793242156505584716796875">
        <ele>462.79998779296875</ele>
        <time>2021-05-25T07:49:17.000Z</time>
        <extensions>
          <ns3:TrackPointExtension>
            <ns3:atemp>18.0</ns3:atemp>
          </ns3:TrackPointExtension>
        </extensions>
      </trkpt>
      <trkpt lat="43.12246777117252349853515625" lon="13.1390521489083766937255859375">
        <ele>464</ele>
        <time>2021-05-25T07:49:19.000Z</time>
        <extensions>
          <ns3:TrackPointExtension>
            <ns3:atemp>18.0</ns3:atemp>
          </ns3:TrackPointExtension>
        </extensions>
      </trkpt>
      <trkpt lat="43.12254957854747772216796875" lon="13.1390370614826679229736328125">
        <ele>465.399993896484375</ele>
        <time>2021-05-25T07:49:22.000Z</time>
        <extensions>
          <ns3:TrackPointExtension>
            <ns3:atemp>18.0</ns3:atemp>
          </ns3:TrackPointExtension>
        </extensions>
      </trkpt>
      <trkpt lat="43.12260129489004611968994140625" lon="13.139034211635589599609375">
        <ele>466.399993896484375</ele>
        <time>2021-05-25T07:49:24.000Z</time>
        <extensions>
          <ns3:TrackPointExtension>
            <ns3:atemp>18.0</ns3:atemp>
          </ns3:TrackPointExtension>
        </extensions>
      </trkpt>
      <trkpt lat="43.12265275977551937103271484375" lon="13.13903580419719219207763671875">
        <ele>467.399993896484375</ele>
        <time>2021-05-25T07:49:26.000Z</time>
        <extensions>
          <ns3:TrackPointExtension>
            <ns3:atemp>18.0</ns3:atemp>
          </ns3:TrackPointExtension>
        </extensions>
      </trkpt>
      <trkpt lat="43.122703470289707183837890625" lon="13.1390451081097126007080078125">
        <ele>468.20001220703125</ele>
        <time>2021-05-25T07:49:28.000Z</time>
        <extensions>
          <ns3:TrackPointExtension>
            <ns3:atemp>18.0</ns3:atemp>
          </ns3:TrackPointExtension>
        </extensions>
      </trkpt>
      <trkpt lat="43.12274797819554805755615234375" lon="13.13905558548867702484130859375">
        <ele>468.600006103515625</ele>
        <time>2021-05-25T07:49:30.000Z</time>
        <extensions>
          <ns3:TrackPointExtension>
            <ns3:atemp>18.0</ns3:atemp>
          </ns3:TrackPointExtension>
        </extensions>
      </trkpt>
      <trkpt lat="43.12282592989504337310791015625" lon="13.13909062184393405914306640625">
        <ele>469.79998779296875</ele>
        <time>2021-05-25T07:49:34.000Z</time>
        <extensions>
          <ns3:TrackPointExtension>
            <ns3:atemp>18.0</ns3:atemp>
          </ns3:TrackPointExtension>
        </extensions>
      </trkpt>
      <trkpt lat="43.12286599539220333099365234375" lon="13.1391054578125476837158203125">
        <ele>470.399993896484375</ele>
        <time>2021-05-25T07:49:36.000Z</time>
        <extensions>
          <ns3:TrackPointExtension>
            <ns3:atemp>18.0</ns3:atemp>
          </ns3:TrackPointExtension>
        </extensions>
      </trkpt>
      <trkpt lat="43.12290790490806102752685546875" lon="13.13913018442690372467041015625">
        <ele>470.79998779296875</ele>
        <time>2021-05-25T07:49:38.000Z</time>
        <extensions>
          <ns3:TrackPointExtension>
            <ns3:atemp>18.0</ns3:atemp>
          </ns3:TrackPointExtension>
        </extensions>
      </trkpt>
      <trkpt lat="43.1229809112846851348876953125" lon="13.1391869299113750457763671875">
        <ele>471.79998779296875</ele>
        <time>2021-05-25T07:49:42.000Z</time>
        <extensions>
          <ns3:TrackPointExtension>
            <ns3:atemp>18.0</ns3:atemp>
          </ns3:TrackPointExtension>
        </extensions>
      </trkpt>
      <trkpt lat="43.1229946576058864593505859375" lon="13.13920243643224239349365234375">
        <ele>472</ele>
        <time>2021-05-25T07:49:43.000Z</time>
        <extensions>
          <ns3:TrackPointExtension>
            <ns3:atemp>18.0</ns3:atemp>
          </ns3:TrackPointExtension>
        </extensions>
      </trkpt>
      <trkpt lat="43.1230724416673183441162109375" lon="13.13925775699317455291748046875">
        <ele>473</ele>
        <time>2021-05-25T07:49:47.000Z</time>
        <extensions>
          <ns3:TrackPointExtension>
            <ns3:atemp>18.0</ns3:atemp>
          </ns3:TrackPointExtension>
        </extensions>
      </trkpt>
      <trkpt lat="43.12308979220688343048095703125" lon="13.1392747722566127777099609375">
        <ele>473.399993896484375</ele>
        <time>2021-05-25T07:49:48.000Z</time>
        <extensions>
          <ns3:TrackPointExtension>
            <ns3:atemp>18.0</ns3:atemp>
          </ns3:TrackPointExtension>
        </extensions>
      </trkpt>
      <trkpt lat="43.12312952242791652679443359375" lon="13.1393086351454257965087890625">
        <ele>474.20001220703125</ele>
        <time>2021-05-25T07:49:50.000Z</time>
        <extensions>
          <ns3:TrackPointExtension>
            <ns3:atemp>18.0</ns3:atemp>
          </ns3:TrackPointExtension>
        </extensions>
      </trkpt>
      <trkpt lat="43.12319330871105194091796875" lon="13.13934878446161746978759765625">
        <ele>475.600006103515625</ele>
        <time>2021-05-25T07:49:53.000Z</time>
        <extensions>
          <ns3:TrackPointExtension>
            <ns3:atemp>18.0</ns3:atemp>
          </ns3:TrackPointExtension>
        </extensions>
      </trkpt>
      <trkpt lat="43.1232367269694805145263671875" lon="13.13937962986528873443603515625">
        <ele>476.79998779296875</ele>
        <time>2021-05-25T07:49:55.000Z</time>
        <extensions>
          <ns3:TrackPointExtension>
            <ns3:atemp>18.0</ns3:atemp>
          </ns3:TrackPointExtension>
        </extensions>
      </trkpt>
      <trkpt lat="43.12329648993909358978271484375" lon="13.13942874781787395477294921875">
        <ele>478</ele>
        <time>2021-05-25T07:49:58.000Z</time>
        <extensions>
          <ns3:TrackPointExtension>
            <ns3:atemp>18.0</ns3:atemp>
          </ns3:TrackPointExtension>
        </extensions>
      </trkpt>
      <trkpt lat="43.1233589351177215576171875" lon="13.1394781172275543212890625">
        <ele>479</ele>
        <time>2021-05-25T07:50:01.000Z</time>
        <extensions>
          <ns3:TrackPointExtension>
            <ns3:atemp>18.0</ns3:atemp>
          </ns3:TrackPointExtension>
        </extensions>
      </trkpt>
      <trkpt lat="43.123375363647937774658203125" lon="13.13949194736778736114501953125">
        <ele>479.399993896484375</ele>
        <time>2021-05-25T07:50:02.000Z</time>
        <extensions>
          <ns3:TrackPointExtension>
            <ns3:atemp>18.0</ns3:atemp>
          </ns3:TrackPointExtension>
        </extensions>
      </trkpt>
      <trkpt lat="43.1234150938689708709716796875" lon="13.13952195458114147186279296875">
        <ele>480.20001220703125</ele>
        <time>2021-05-25T07:50:04.000Z</time>
        <extensions>
          <ns3:TrackPointExtension>
            <ns3:atemp>18.0</ns3:atemp>
          </ns3:TrackPointExtension>
        </extensions>
      </trkpt>
      <trkpt lat="43.1234714202582836151123046875" lon="13.13957140780985355377197265625">
        <ele>481.399993896484375</ele>
        <time>2021-05-25T07:50:07.000Z</time>
        <extensions>
          <ns3:TrackPointExtension>
            <ns3:atemp>18.0</ns3:atemp>
          </ns3:TrackPointExtension>
        </extensions>
      </trkpt>
      <trkpt lat="43.123491369187831878662109375" lon="13.13958548940718173980712890625">
        <ele>481.79998779296875</ele>
        <time>2021-05-25T07:50:08.000Z</time>
        <extensions>
          <ns3:TrackPointExtension>
            <ns3:atemp>18.0</ns3:atemp>
          </ns3:TrackPointExtension>
        </extensions>
      </trkpt>
      <trkpt lat="43.12352984212338924407958984375" lon="13.13961432315409183502197265625">
        <ele>482.79998779296875</ele>
        <time>2021-05-25T07:50:10.000Z</time>
        <extensions>
          <ns3:TrackPointExtension>
            <ns3:atemp>18.0</ns3:atemp>
          </ns3:TrackPointExtension>
        </extensions>
      </trkpt>
      <trkpt lat="43.1235787086188793182373046875" lon="13.13966117799282073974609375">
        <ele>484.20001220703125</ele>
        <time>2021-05-25T07:50:13.000Z</time>
        <extensions>
          <ns3:TrackPointExtension>
            <ns3:atemp>17.0</ns3:atemp>
          </ns3:TrackPointExtension>
        </extensions>
      </trkpt>
      <trkpt lat="43.12359840609133243560791015625" lon="13.1396712362766265869140625">
        <ele>484.600006103515625</ele>
        <time>2021-05-25T07:50:14.000Z</time>
        <extensions>
          <ns3:TrackPointExtension>
            <ns3:atemp>17.0</ns3:atemp>
          </ns3:TrackPointExtension>
        </extensions>
      </trkpt>
      <trkpt lat="43.12363612465560436248779296875" lon="13.13969395123422145843505859375">
        <ele>485.399993896484375</ele>
        <time>2021-05-25T07:50:16.000Z</time>
        <extensions>
          <ns3:TrackPointExtension>
            <ns3:atemp>17.0</ns3:atemp>
          </ns3:TrackPointExtension>
        </extensions>
      </trkpt>
      <trkpt lat="43.1237081252038478851318359375" lon="13.13974189572036266326904296875">
        <ele>486.399993896484375</ele>
        <time>2021-05-25T07:50:20.000Z</time>
        <extensions>
          <ns3:TrackPointExtension>
            <ns3:atemp>17.0</ns3:atemp>
          </ns3:TrackPointExtension>
        </extensions>
      </trkpt>
      <trkpt lat="43.12378984875977039337158203125" lon="13.13979621045291423797607421875">
        <ele>487.600006103515625</ele>
        <time>2021-05-25T07:50:24.000Z</time>
        <extensions>
          <ns3:TrackPointExtension>
            <ns3:atemp>17.0</ns3:atemp>
          </ns3:TrackPointExtension>
        </extensions>
      </trkpt>
      <trkpt lat="43.12384768389165401458740234375" lon="13.139835186302661895751953125">
        <ele>488.79998779296875</ele>
        <time>2021-05-25T07:50:27.000Z</time>
        <extensions>
          <ns3:TrackPointExtension>
            <ns3:atemp>17.0</ns3:atemp>
          </ns3:TrackPointExtension>
        </extensions>
      </trkpt>
      <trkpt lat="43.12390551902353763580322265625" lon="13.13987399451434612274169921875">
        <ele>489.79998779296875</ele>
        <time>2021-05-25T07:50:30.000Z</time>
        <extensions>
          <ns3:TrackPointExtension>
            <ns3:atemp>17.0</ns3:atemp>
          </ns3:TrackPointExtension>
        </extensions>
      </trkpt>
      <trkpt lat="43.1239398010075092315673828125" lon="13.13989846967160701751708984375">
        <ele>490.79998779296875</ele>
        <time>2021-05-25T07:50:32.000Z</time>
        <extensions>
          <ns3:TrackPointExtension>
            <ns3:atemp>17.0</ns3:atemp>
          </ns3:TrackPointExtension>
        </extensions>
      </trkpt>
      <trkpt lat="43.1239570677280426025390625" lon="13.13990928232669830322265625">
        <ele>491.20001220703125</ele>
        <time>2021-05-25T07:50:33.000Z</time>
        <extensions>
          <ns3:TrackPointExtension>
            <ns3:atemp>17.0</ns3:atemp>
          </ns3:TrackPointExtension>
        </extensions>
      </trkpt>
      <trkpt lat="43.1239874102175235748291015625" lon="13.139930404722690582275390625">
        <ele>492.20001220703125</ele>
        <time>2021-05-25T07:50:35.000Z</time>
        <extensions>
          <ns3:TrackPointExtension>
            <ns3:atemp>17.0</ns3:atemp>
          </ns3:TrackPointExtension>
        </extensions>
      </trkpt>
      <trkpt lat="43.12403996475040912628173828125" lon="13.13996820710599422454833984375">
        <ele>493.79998779296875</ele>
        <time>2021-05-25T07:50:38.000Z</time>
        <extensions>
          <ns3:TrackPointExtension>
            <ns3:atemp>17.0</ns3:atemp>
          </ns3:TrackPointExtension>
        </extensions>
      </trkpt>
      <trkpt lat="43.12410098500549793243408203125" lon="13.1399942748248577117919921875">
        <ele>495</ele>
        <time>2021-05-25T07:50:41.000Z</time>
        <extensions>
          <ns3:TrackPointExtension>
            <ns3:atemp>17.0</ns3:atemp>
          </ns3:TrackPointExtension>
        </extensions>
      </trkpt>
      <trkpt lat="43.12415932305157184600830078125" lon="13.1400145590305328369140625">
        <ele>496.20001220703125</ele>
        <time>2021-05-25T07:50:44.000Z</time>
        <extensions>
          <ns3:TrackPointExtension>
            <ns3:atemp>17.0</ns3:atemp>
          </ns3:TrackPointExtension>
        </extensions>
      </trkpt>
      <trkpt lat="43.12417977489531040191650390625" lon="13.1400231085717678070068359375">
        <ele>496.79998779296875</ele>
        <time>2021-05-25T07:50:45.000Z</time>
        <extensions>
          <ns3:TrackPointExtension>
            <ns3:atemp>17.0</ns3:atemp>
          </ns3:TrackPointExtension>
        </extensions>
      </trkpt>
      <trkpt lat="43.1242174096405506134033203125" lon="13.14003802835941314697265625">
        <ele>497.600006103515625</ele>
        <time>2021-05-25T07:50:47.000Z</time>
        <extensions>
          <ns3:TrackPointExtension>
            <ns3:atemp>17.0</ns3:atemp>
          </ns3:TrackPointExtension>
        </extensions>
      </trkpt>
      <trkpt lat="43.124271892011165618896484375" lon="13.140059821307659149169921875">
        <ele>498.600006103515625</ele>
        <time>2021-05-25T07:50:50.000Z</time>
        <extensions>
          <ns3:TrackPointExtension>
            <ns3:atemp>17.0</ns3:atemp>
          </ns3:TrackPointExtension>
        </extensions>
      </trkpt>
      <trkpt lat="43.12428857199847698211669921875" lon="13.140067197382450103759765625">
        <ele>499</ele>
        <time>2021-05-25T07:50:51.000Z</time>
        <extensions>
          <ns3:TrackPointExtension>
            <ns3:atemp>17.0</ns3:atemp>
          </ns3:TrackPointExtension>
        </extensions>
      </trkpt>
      <trkpt lat="43.1243464909493923187255859375" lon="13.14007935114204883575439453125">
        <ele>500</ele>
        <time>2021-05-25T07:50:54.000Z</time>
        <extensions>
          <ns3:TrackPointExtension>
            <ns3:atemp>17.0</ns3:atemp>
          </ns3:TrackPointExtension>
        </extensions>
      </trkpt>
      <trkpt lat="43.12438764609396457672119140625" lon="13.1400874815881252288818359375">
        <ele>501.20001220703125</ele>
        <time>2021-05-25T07:50:56.000Z</time>
        <extensions>
          <ns3:TrackPointExtension>
            <ns3:atemp>17.0</ns3:atemp>
          </ns3:TrackPointExtension>
        </extensions>
      </trkpt>
      <trkpt lat="43.12443458475172519683837890625" lon="13.1401139684021472930908203125">
        <ele>501.79998779296875</ele>
        <time>2021-05-25T07:50:58.000Z</time>
        <extensions>
          <ns3:TrackPointExtension>
            <ns3:atemp>17.0</ns3:atemp>
          </ns3:TrackPointExtension>
        </extensions>
      </trkpt>
      <trkpt lat="43.12444615177810192108154296875" lon="13.14013282768428325653076171875">
        <ele>502.20001220703125</ele>
        <time>2021-05-25T07:50:59.000Z</time>
        <extensions>
          <ns3:TrackPointExtension>
            <ns3:atemp>17.0</ns3:atemp>
          </ns3:TrackPointExtension>
        </extensions>
      </trkpt>
      <trkpt lat="43.124451600015163421630859375" lon="13.14015604555606842041015625">
        <ele>502.399993896484375</ele>
        <time>2021-05-25T07:51:00.000Z</time>
        <extensions>
          <ns3:TrackPointExtension>
            <ns3:atemp>17.0</ns3:atemp>
          </ns3:TrackPointExtension>
        </extensions>
      </trkpt>
      <trkpt lat="43.1244417093694210052490234375" lon="13.14019183628261089324951171875">
        <ele>503.399993896484375</ele>
        <time>2021-05-25T07:51:02.000Z</time>
        <extensions>
          <ns3:TrackPointExtension>
            <ns3:atemp>17.0</ns3:atemp>
          </ns3:TrackPointExtension>
        </extensions>
      </trkpt>
      <trkpt lat="43.1244306452572345733642578125" lon="13.140200637280941009521484375">
        <ele>503.79998779296875</ele>
        <time>2021-05-25T07:51:03.000Z</time>
        <extensions>
          <ns3:TrackPointExtension>
            <ns3:atemp>17.0</ns3:atemp>
          </ns3:TrackPointExtension>
        </extensions>
      </trkpt>
      <trkpt lat="43.1243827007710933685302734375" lon="13.14019150100648403167724609375">
        <ele>505</ele>
        <time>2021-05-25T07:51:06.000Z</time>
        <extensions>
          <ns3:TrackPointExtension>
            <ns3:atemp>17.0</ns3:atemp>
          </ns3:TrackPointExtension>
        </extensions>
      </trkpt>
      <trkpt lat="43.12436702661216259002685546875" lon="13.1401862204074859619140625">
        <ele>505.399993896484375</ele>
        <time>2021-05-25T07:51:07.000Z</time>
        <extensions>
          <ns3:TrackPointExtension>
            <ns3:atemp>17.0</ns3:atemp>
          </ns3:TrackPointExtension>
        </extensions>
      </trkpt>
      <trkpt lat="43.12434959225356578826904296875" lon="13.14018077217042446136474609375">
        <ele>505.600006103515625</ele>
        <time>2021-05-25T07:51:08.000Z</time>
        <extensions>
          <ns3:TrackPointExtension>
            <ns3:atemp>17.0</ns3:atemp>
          </ns3:TrackPointExtension>
        </extensions>
      </trkpt>
      <trkpt lat="43.12427532859146595001220703125" lon="13.1401759944856166839599609375">
        <ele>506</ele>
        <time>2021-05-25T07:51:12.000Z</time>
        <extensions>
          <ns3:TrackPointExtension>
            <ns3:atemp>17.0</ns3:atemp>
          </ns3:TrackPointExtension>
        </extensions>
      </trkpt>
      <trkpt lat="43.1242324970662593841552734375" lon="13.14018554985523223876953125">
        <ele>506.20001220703125</ele>
        <time>2021-05-25T07:51:14.000Z</time>
        <extensions>
          <ns3:TrackPointExtension>
            <ns3:atemp>17.0</ns3:atemp>
          </ns3:TrackPointExtension>
        </extensions>
      </trkpt>
      <trkpt lat="43.1241319142282009124755859375" lon="13.14022134058177471160888671875">
        <ele>507</ele>
        <time>2021-05-25T07:51:19.000Z</time>
        <extensions>
          <ns3:TrackPointExtension>
            <ns3:atemp>17.0</ns3:atemp>
          </ns3:TrackPointExtension>
        </extensions>
      </trkpt>
      <trkpt lat="43.12406360171735286712646484375" lon="13.14024900086224079132080078125">
        <ele>508.20001220703125</ele>
        <time>2021-05-25T07:51:22.000Z</time>
        <extensions>
          <ns3:TrackPointExtension>
            <ns3:atemp>17.0</ns3:atemp>
          </ns3:TrackPointExtension>
        </extensions>
      </trkpt>
      <trkpt lat="43.12400308437645435333251953125" lon="13.1402782537043094635009765625">
        <ele>509.399993896484375</ele>
        <time>2021-05-25T07:51:25.000Z</time>
        <extensions>
          <ns3:TrackPointExtension>
            <ns3:atemp>17.0</ns3:atemp>
          </ns3:TrackPointExtension>
        </extensions>
      </trkpt>
      <trkpt lat="43.1239221990108489990234375" lon="13.1403114460408687591552734375">
        <ele>510.600006103515625</ele>
        <time>2021-05-25T07:51:29.000Z</time>
        <extensions>
          <ns3:TrackPointExtension>
            <ns3:atemp>17.0</ns3:atemp>
          </ns3:TrackPointExtension>
        </extensions>
      </trkpt>
      <trkpt lat="43.12385505996644496917724609375" lon="13.14033575356006622314453125">
        <ele>511.600006103515625</ele>
        <time>2021-05-25T07:51:32.000Z</time>
        <extensions>
          <ns3:TrackPointExtension>
            <ns3:atemp>17.0</ns3:atemp>
          </ns3:TrackPointExtension>
        </extensions>
      </trkpt>
      <trkpt lat="43.1238308362662792205810546875" lon="13.1403417885303497314453125">
        <ele>512</ele>
        <time>2021-05-25T07:51:33.000Z</time>
        <extensions>
          <ns3:TrackPointExtension>
            <ns3:atemp>17.0</ns3:atemp>
          </ns3:TrackPointExtension>
        </extensions>
      </trkpt>
      <trkpt lat="43.12375715933740139007568359375" lon="13.14036014489829540252685546875">
        <ele>512.5999755859375</ele>
        <time>2021-05-25T07:51:36.000Z</time>
        <extensions>
          <ns3:TrackPointExtension>
            <ns3:atemp>17.0</ns3:atemp>
          </ns3:TrackPointExtension>
        </extensions>
      </trkpt>
      <trkpt lat="43.12371231615543365478515625" lon="13.14037288539111614227294921875">
        <ele>513.20001220703125</ele>
        <time>2021-05-25T07:51:38.000Z</time>
        <extensions>
          <ns3:TrackPointExtension>
            <ns3:atemp>17.0</ns3:atemp>
          </ns3:TrackPointExtension>
        </extensions>
      </trkpt>
      <trkpt lat="43.123652972280979156494140625" lon="13.14038931392133235931396484375">
        <ele>514.4000244140625</ele>
        <time>2021-05-25T07:51:41.000Z</time>
        <extensions>
          <ns3:TrackPointExtension>
            <ns3:atemp>17.0</ns3:atemp>
          </ns3:TrackPointExtension>
        </extensions>
      </trkpt>
      <trkpt lat="43.1235735118389129638671875" lon="13.1404207460582256317138671875">
        <ele>515.5999755859375</ele>
        <time>2021-05-25T07:51:45.000Z</time>
        <extensions>
          <ns3:TrackPointExtension>
            <ns3:atemp>17.0</ns3:atemp>
          </ns3:TrackPointExtension>
        </extensions>
      </trkpt>
      <trkpt lat="43.12355406582355499267578125" lon="13.14042787067592144012451171875">
        <ele>516</ele>
        <time>2021-05-25T07:51:46.000Z</time>
        <extensions>
          <ns3:TrackPointExtension>
            <ns3:atemp>17.0</ns3:atemp>
          </ns3:TrackPointExtension>
        </extensions>
      </trkpt>
      <trkpt lat="43.12349128536880016326904296875" lon="13.140474222600460052490234375">
        <ele>517</ele>
        <time>2021-05-25T07:51:50.000Z</time>
        <extensions>
          <ns3:TrackPointExtension>
            <ns3:atemp>17.0</ns3:atemp>
          </ns3:TrackPointExtension>
        </extensions>
      </trkpt>
      <trkpt lat="43.12346748076379299163818359375" lon="13.14048335887491703033447265625">
        <ele>518</ele>
        <time>2021-05-25T07:51:52.000Z</time>
        <extensions>
          <ns3:TrackPointExtension>
            <ns3:atemp>17.0</ns3:atemp>
          </ns3:TrackPointExtension>
        </extensions>
      </trkpt>
      <trkpt lat="43.12345256097614765167236328125" lon="13.14048998057842254638671875">
        <ele>518.5999755859375</ele>
        <time>2021-05-25T07:51:53.000Z</time>
        <extensions>
          <ns3:TrackPointExtension>
            <ns3:atemp>17.0</ns3:atemp>
          </ns3:TrackPointExtension>
        </extensions>
      </trkpt>
      <trkpt lat="43.12343294732272624969482421875" lon="13.1405042298138141632080078125">
        <ele>519.20001220703125</ele>
        <time>2021-05-25T07:51:57.000Z</time>
        <extensions>
          <ns3:TrackPointExtension>
            <ns3:atemp>17.0</ns3:atemp>
          </ns3:TrackPointExtension>
        </extensions>
      </trkpt>
      <trkpt lat="43.12343244440853595733642578125" lon="13.140507079660892486572265625">
        <ele>519.5999755859375</ele>
        <time>2021-05-25T07:51:59.000Z</time>
        <extensions>
          <ns3:TrackPointExtension>
            <ns3:atemp>17.0</ns3:atemp>
          </ns3:TrackPointExtension>
        </extensions>
      </trkpt>
      <trkpt lat="43.12343093566596508026123046875" lon="13.14050850458443164825439453125">
        <ele>520.79998779296875</ele>
        <time>2021-05-25T07:52:05.000Z</time>
        <extensions>
          <ns3:TrackPointExtension>
            <ns3:atemp>17.0</ns3:atemp>
          </ns3:TrackPointExtension>
        </extensions>
      </trkpt>
      <trkpt lat="43.12342992983758449554443359375" lon="13.1405095942318439483642578125">
        <ele>520.79998779296875</ele>
        <time>2021-05-25T07:52:25.000Z</time>
        <extensions>
          <ns3:TrackPointExtension>
            <ns3:atemp>17.0</ns3:atemp>
          </ns3:TrackPointExtension>
        </extensions>
      </trkpt>
      <trkpt lat="43.1234278343617916107177734375" lon="13.1405129469931125640869140625">
        <ele>520.5999755859375</ele>
        <time>2021-05-25T07:53:11.000Z</time>
        <extensions>
          <ns3:TrackPointExtension>
            <ns3:atemp>17.0</ns3:atemp>
          </ns3:TrackPointExtension>
        </extensions>
      </trkpt>
      <trkpt lat="43.123425655066967010498046875" lon="13.14051437191665172576904296875">
        <ele>520.5999755859375</ele>
        <time>2021-05-25T07:53:53.000Z</time>
        <extensions>
          <ns3:TrackPointExtension>
            <ns3:atemp>18.0</ns3:atemp>
          </ns3:TrackPointExtension>
        </extensions>
      </trkpt>
      <trkpt lat="43.12342540360987186431884765625" lon="13.140514455735683441162109375">
        <ele>520.5999755859375</ele>
        <time>2021-05-25T07:54:00.000Z</time>
        <extensions>
          <ns3:TrackPointExtension>
            <ns3:atemp>18.0</ns3:atemp>
          </ns3:TrackPointExtension>
        </extensions>
      </trkpt>
      <trkpt lat="43.1234244816005229949951171875" lon="13.14051412045955657958984375">
        <ele>520.20001220703125</ele>
        <time>2021-05-25T07:54:19.000Z</time>
        <extensions>
          <ns3:TrackPointExtension>
            <ns3:atemp>18.0</ns3:atemp>
          </ns3:TrackPointExtension>
        </extensions>
      </trkpt>
      <trkpt lat="43.12339874915778636932373046875" lon="13.140543289482593536376953125">
        <ele>520.20001220703125</ele>
        <time>2021-05-25T07:54:30.000Z</time>
        <extensions>
          <ns3:TrackPointExtension>
            <ns3:atemp>18.0</ns3:atemp>
          </ns3:TrackPointExtension>
        </extensions>
      </trkpt>
      <trkpt lat="43.12329665757715702056884765625" lon="13.1406386755406856536865234375">
        <ele>520.20001220703125</ele>
        <time>2021-05-25T07:54:35.000Z</time>
        <extensions>
          <ns3:TrackPointExtension>
            <ns3:atemp>18.0</ns3:atemp>
          </ns3:TrackPointExtension>
        </extensions>
      </trkpt>
      <trkpt lat="43.12318660318851470947265625" lon="13.1407280266284942626953125">
        <ele>520.20001220703125</ele>
        <time>2021-05-25T07:54:40.000Z</time>
        <extensions>
          <ns3:TrackPointExtension>
            <ns3:atemp>18.0</ns3:atemp>
          </ns3:TrackPointExtension>
        </extensions>
      </trkpt>
      <trkpt lat="43.12311510555446147918701171875" lon="13.14082684926688671112060546875">
        <ele>521.5999755859375</ele>
        <time>2021-05-25T07:54:44.000Z</time>
        <extensions>
          <ns3:TrackPointExtension>
            <ns3:atemp>18.0</ns3:atemp>
          </ns3:TrackPointExtension>
        </extensions>
      </trkpt>
      <trkpt lat="43.12309130094945430755615234375" lon="13.14088719896972179412841796875">
        <ele>522.20001220703125</ele>
        <time>2021-05-25T07:54:46.000Z</time>
        <extensions>
          <ns3:TrackPointExtension>
            <ns3:atemp>18.0</ns3:atemp>
          </ns3:TrackPointExtension>
        </extensions>
      </trkpt>
      <trkpt lat="43.1230761297047138214111328125" lon="13.14094888977706432342529296875">
        <ele>522.79998779296875</ele>
        <time>2021-05-25T07:54:48.000Z</time>
        <extensions>
          <ns3:TrackPointExtension>
            <ns3:atemp>18.0</ns3:atemp>
          </ns3:TrackPointExtension>
        </extensions>
      </trkpt>
      <trkpt lat="43.12305919826030731201171875" lon="13.141043186187744140625">
        <ele>523.79998779296875</ele>
        <time>2021-05-25T07:54:51.000Z</time>
        <extensions>
          <ns3:TrackPointExtension>
            <ns3:atemp>18.0</ns3:atemp>
          </ns3:TrackPointExtension>
        </extensions>
      </trkpt>
      <trkpt lat="43.12305995263159275054931640625" lon="13.1410741992294788360595703125">
        <ele>524.20001220703125</ele>
        <time>2021-05-25T07:54:52.000Z</time>
        <extensions>
          <ns3:TrackPointExtension>
            <ns3:atemp>18.0</ns3:atemp>
          </ns3:TrackPointExtension>
        </extensions>
      </trkpt>
      <trkpt lat="43.12306464649736881256103515625" lon="13.14113639295101165771484375">
        <ele>524.79998779296875</ele>
        <time>2021-05-25T07:54:54.000Z</time>
        <extensions>
          <ns3:TrackPointExtension>
            <ns3:atemp>18.0</ns3:atemp>
          </ns3:TrackPointExtension>
        </extensions>
      </trkpt>
      <trkpt lat="43.1230838410556316375732421875" lon="13.14130428247153759002685546875">
        <ele>525.79998779296875</ele>
        <time>2021-05-25T07:54:59.000Z</time>
        <extensions>
          <ns3:TrackPointExtension>
            <ns3:atemp>18.0</ns3:atemp>
          </ns3:TrackPointExtension>
        </extensions>
      </trkpt>
      <trkpt lat="43.1230880320072174072265625" lon="13.14133579842746257781982421875">
        <ele>526</ele>
        <time>2021-05-25T07:55:00.000Z</time>
        <extensions>
          <ns3:TrackPointExtension>
            <ns3:atemp>18.0</ns3:atemp>
          </ns3:TrackPointExtension>
        </extensions>
      </trkpt>
      <trkpt lat="43.1230979226529598236083984375" lon="13.14144493080675601959228515625">
        <ele>527</ele>
        <time>2021-05-25T07:55:04.000Z</time>
        <extensions>
          <ns3:TrackPointExtension>
            <ns3:atemp>19.0</ns3:atemp>
          </ns3:TrackPointExtension>
        </extensions>
      </trkpt>
      <trkpt lat="43.123111836612224578857421875" lon="13.141515254974365234375">
        <ele>527.79998779296875</ele>
        <time>2021-05-25T07:55:07.000Z</time>
        <extensions>
          <ns3:TrackPointExtension>
            <ns3:atemp>19.0</ns3:atemp>
          </ns3:TrackPointExtension>
        </extensions>
      </trkpt>
      <trkpt lat="43.12312650494277477264404296875" lon="13.14152908511459827423095703125">
        <ele>528.20001220703125</ele>
        <time>2021-05-25T07:55:08.000Z</time>
        <extensions>
          <ns3:TrackPointExtension>
            <ns3:atemp>19.0</ns3:atemp>
          </ns3:TrackPointExtension>
        </extensions>
      </trkpt>
      <trkpt lat="43.1231824122369289398193359375" lon="13.1415352039039134979248046875">
        <ele>528.5999755859375</ele>
        <time>2021-05-25T07:55:11.000Z</time>
        <extensions>
          <ns3:TrackPointExtension>
            <ns3:atemp>19.0</ns3:atemp>
          </ns3:TrackPointExtension>
        </extensions>
      </trkpt>
      <trkpt lat="43.12321971170604228973388671875" lon="13.14153914339840412139892578125">
        <ele>529.20001220703125</ele>
        <time>2021-05-25T07:55:13.000Z</time>
        <extensions>
          <ns3:TrackPointExtension>
            <ns3:atemp>19.0</ns3:atemp>
          </ns3:TrackPointExtension>
        </extensions>
      </trkpt>
      <trkpt lat="43.12329615466296672821044921875" lon="13.14154140651226043701171875">
        <ele>530.4000244140625</ele>
        <time>2021-05-25T07:55:17.000Z</time>
        <extensions>
          <ns3:TrackPointExtension>
            <ns3:atemp>19.0</ns3:atemp>
          </ns3:TrackPointExtension>
        </extensions>
      </trkpt>
      <trkpt lat="43.123339153826236724853515625" lon="13.14154006540775299072265625">
        <ele>530.5999755859375</ele>
        <time>2021-05-25T07:55:19.000Z</time>
        <extensions>
          <ns3:TrackPointExtension>
            <ns3:atemp>19.0</ns3:atemp>
          </ns3:TrackPointExtension>
        </extensions>
      </trkpt>
      <trkpt lat="43.12339858151972293853759765625" lon="13.1415352039039134979248046875">
        <ele>531.5999755859375</ele>
        <time>2021-05-25T07:55:22.000Z</time>
        <extensions>
          <ns3:TrackPointExtension>
            <ns3:atemp>19.0</ns3:atemp>
          </ns3:TrackPointExtension>
        </extensions>
      </trkpt>
      <trkpt lat="43.1234445981681346893310546875" lon="13.14154149033129215240478515625">
        <ele>532</ele>
        <time>2021-05-25T07:55:24.000Z</time>
        <extensions>
          <ns3:TrackPointExtension>
            <ns3:atemp>19.0</ns3:atemp>
          </ns3:TrackPointExtension>
        </extensions>
      </trkpt>
      <trkpt lat="43.12349933199584484100341796875" lon="13.14154651947319507598876953125">
        <ele>532.5999755859375</ele>
        <time>2021-05-25T07:55:26.000Z</time>
        <extensions>
          <ns3:TrackPointExtension>
            <ns3:atemp>19.0</ns3:atemp>
          </ns3:TrackPointExtension>
        </extensions>
      </trkpt>
      <trkpt lat="43.123530261218547821044921875" lon="13.14155272208154201507568359375">
        <ele>532.5999755859375</ele>
        <time>2021-05-25T07:55:27.000Z</time>
        <extensions>
          <ns3:TrackPointExtension>
            <ns3:atemp>19.0</ns3:atemp>
          </ns3:TrackPointExtension>
        </extensions>
      </trkpt>
      <trkpt lat="43.12370217405259609222412109375" lon="13.1415962241590023040771484375">
        <ele>532.79998779296875</ele>
        <time>2021-05-25T07:55:31.000Z</time>
        <extensions>
          <ns3:TrackPointExtension>
            <ns3:atemp>19.0</ns3:atemp>
          </ns3:TrackPointExtension>
        </extensions>
      </trkpt>
      <trkpt lat="43.12406494282186031341552734375" lon="13.14177584834396839141845703125">
        <ele>532.4000244140625</ele>
        <time>2021-05-25T07:55:38.000Z</time>
        <extensions>
          <ns3:TrackPointExtension>
            <ns3:atemp>19.0</ns3:atemp>
          </ns3:TrackPointExtension>
        </extensions>
      </trkpt>
      <trkpt lat="43.12411875464022159576416015625" lon="13.141795881092548370361328125">
        <ele>531.79998779296875</ele>
        <time>2021-05-25T07:55:39.000Z</time>
        <extensions>
          <ns3:TrackPointExtension>
            <ns3:atemp>19.0</ns3:atemp>
          </ns3:TrackPointExtension>
        </extensions>
      </trkpt>
      <trkpt lat="43.12433592975139617919921875" lon="13.14184240065515041351318359375">
        <ele>530.79998779296875</ele>
        <time>2021-05-25T07:55:43.000Z</time>
        <extensions>
          <ns3:TrackPointExtension>
            <ns3:atemp>19.0</ns3:atemp>
          </ns3:TrackPointExtension>
        </extensions>
      </trkpt>
      <trkpt lat="43.12438865192234516143798828125" lon="13.14184675924479961395263671875">
        <ele>530.4000244140625</ele>
        <time>2021-05-25T07:55:44.000Z</time>
        <extensions>
          <ns3:TrackPointExtension>
            <ns3:atemp>19.0</ns3:atemp>
          </ns3:TrackPointExtension>
        </extensions>
      </trkpt>
      <trkpt lat="43.12454245984554290771484375" lon="13.1418537162244319915771484375">
        <ele>529.4000244140625</ele>
        <time>2021-05-25T07:55:47.000Z</time>
        <extensions>
          <ns3:TrackPointExtension>
            <ns3:atemp>19.0</ns3:atemp>
          </ns3:TrackPointExtension>
        </extensions>
      </trkpt>
      <trkpt lat="43.1247944198548793792724609375" lon="13.14186452887952327728271484375">
        <ele>528.5999755859375</ele>
        <time>2021-05-25T07:55:52.000Z</time>
        <extensions>
          <ns3:TrackPointExtension>
            <ns3:atemp>19.0</ns3:atemp>
          </ns3:TrackPointExtension>
        </extensions>
      </trkpt>
      <trkpt lat="43.1249271892011165618896484375" lon="13.14188967458903789520263671875">
        <ele>528.4000244140625</ele>
        <time>2021-05-25T07:55:55.000Z</time>
        <extensions>
          <ns3:TrackPointExtension>
            <ns3:atemp>19.0</ns3:atemp>
          </ns3:TrackPointExtension>
        </extensions>
      </trkpt>
      <trkpt lat="43.1250810809433460235595703125" lon="13.14194667153060436248779296875">
        <ele>528</ele>
        <time>2021-05-25T07:55:59.000Z</time>
        <extensions>
          <ns3:TrackPointExtension>
            <ns3:atemp>19.0</ns3:atemp>
          </ns3:TrackPointExtension>
        </extensions>
      </trkpt>
      <trkpt lat="43.12533681280910968780517578125" lon="13.1421024911105632781982421875">
        <ele>528</ele>
        <time>2021-05-25T07:56:06.000Z</time>
        <extensions>
          <ns3:TrackPointExtension>
            <ns3:atemp>19.0</ns3:atemp>
          </ns3:TrackPointExtension>
        </extensions>
      </trkpt>
      <trkpt lat="43.12561073340475559234619140625" lon="13.14230223186314105987548828125">
        <ele>527.5999755859375</ele>
        <time>2021-05-25T07:56:14.000Z</time>
        <extensions>
          <ns3:TrackPointExtension>
            <ns3:atemp>19.0</ns3:atemp>
          </ns3:TrackPointExtension>
        </extensions>
      </trkpt>
      <trkpt lat="43.12582857906818389892578125" lon="13.1425199098885059356689453125">
        <ele>527.5999755859375</ele>
        <time>2021-05-25T07:56:22.000Z</time>
        <extensions>
          <ns3:TrackPointExtension>
            <ns3:atemp>19.0</ns3:atemp>
          </ns3:TrackPointExtension>
        </extensions>
      </trkpt>
      <trkpt lat="43.1260708160698413848876953125" lon="13.14272836782038211822509765625">
        <ele>527.4000244140625</ele>
        <time>2021-05-25T07:56:29.000Z</time>
        <extensions>
          <ns3:TrackPointExtension>
            <ns3:atemp>19.0</ns3:atemp>
          </ns3:TrackPointExtension>
        </extensions>
      </trkpt>
      <trkpt lat="43.12615178525447845458984375" lon="13.14281034283339977264404296875">
        <ele>527.4000244140625</ele>
        <time>2021-05-25T07:56:31.000Z</time>
        <extensions>
          <ns3:TrackPointExtension>
            <ns3:atemp>19.0</ns3:atemp>
          </ns3:TrackPointExtension>
        </extensions>
      </trkpt>
      <trkpt lat="43.12623317353427410125732421875" lon="13.142980076372623443603515625">
        <ele>527.4000244140625</ele>
        <time>2021-05-25T07:56:34.000Z</time>
        <extensions>
          <ns3:TrackPointExtension>
            <ns3:atemp>19.0</ns3:atemp>
          </ns3:TrackPointExtension>
        </extensions>
      </trkpt>
      <trkpt lat="43.12624306418001651763916015625" lon="13.14314134418964385986328125">
        <ele>526.4000244140625</ele>
        <time>2021-05-25T07:56:37.000Z</time>
        <extensions>
          <ns3:TrackPointExtension>
            <ns3:atemp>19.0</ns3:atemp>
          </ns3:TrackPointExtension>
        </extensions>
      </trkpt>
      <trkpt lat="43.12624222598969936370849609375" lon="13.14319004304707050323486328125">
        <ele>526.20001220703125</ele>
        <time>2021-05-25T07:56:38.000Z</time>
        <extensions>
          <ns3:TrackPointExtension>
            <ns3:atemp>19.0</ns3:atemp>
          </ns3:TrackPointExtension>
        </extensions>
      </trkpt>
      <trkpt lat="43.12627474777400493621826171875" lon="13.14342825673520565032958984375">
        <ele>525.5999755859375</ele>
        <time>2021-05-25T07:56:43.000Z</time>
        <extensions>
          <ns3:TrackPointExtension>
            <ns3:atemp>19.0</ns3:atemp>
          </ns3:TrackPointExtension>
        </extensions>
      </trkpt>
      <trkpt lat="43.1262917630374431610107421875" lon="13.14347737468779087066650390625">
        <ele>525.4000244140625</ele>
        <time>2021-05-25T07:56:44.000Z</time>
        <extensions>
          <ns3:TrackPointExtension>
            <ns3:atemp>19.0</ns3:atemp>
          </ns3:TrackPointExtension>
        </extensions>
      </trkpt>
      <trkpt lat="43.126356303691864013671875" lon="13.1436105631291866302490234375">
        <ele>525.4000244140625</ele>
        <time>2021-05-25T07:56:47.000Z</time>
        <extensions>
          <ns3:TrackPointExtension>
            <ns3:atemp>19.0</ns3:atemp>
          </ns3:TrackPointExtension>
        </extensions>
      </trkpt>
      <trkpt lat="43.1264111213386058807373046875" lon="13.1436937116086483001708984375">
        <ele>525.20001220703125</ele>
        <time>2021-05-25T07:56:49.000Z</time>
        <extensions>
          <ns3:TrackPointExtension>
            <ns3:atemp>19.0</ns3:atemp>
          </ns3:TrackPointExtension>
        </extensions>
      </trkpt>
      <trkpt lat="43.12644657678902149200439453125" lon="13.14373402856290340423583984375">
        <ele>525.20001220703125</ele>
        <time>2021-05-25T07:56:50.000Z</time>
        <extensions>
          <ns3:TrackPointExtension>
            <ns3:atemp>19.0</ns3:atemp>
          </ns3:TrackPointExtension>
        </extensions>
      </trkpt>
      <trkpt lat="43.12662058509886264801025390625" lon="13.14389127306640148162841796875">
        <ele>525.20001220703125</ele>
        <time>2021-05-25T07:56:54.000Z</time>
        <extensions>
          <ns3:TrackPointExtension>
            <ns3:atemp>19.0</ns3:atemp>
          </ns3:TrackPointExtension>
        </extensions>
      </trkpt>
      <trkpt lat="43.1266981177031993865966796875" lon="13.1439552269876003265380859375">
        <ele>525</ele>
        <time>2021-05-25T07:56:56.000Z</time>
        <extensions>
          <ns3:TrackPointExtension>
            <ns3:atemp>19.0</ns3:atemp>
          </ns3:TrackPointExtension>
        </extensions>
      </trkpt>
      <trkpt lat="43.12676492147147655487060546875" lon="13.14399923197925090789794921875">
        <ele>524</ele>
        <time>2021-05-25T07:56:59.000Z</time>
        <extensions>
          <ns3:TrackPointExtension>
            <ns3:atemp>19.0</ns3:atemp>
          </ns3:TrackPointExtension>
        </extensions>
      </trkpt>
      <trkpt lat="43.126774393022060394287109375" lon="13.1439991481602191925048828125">
        <ele>523.4000244140625</ele>
        <time>2021-05-25T07:57:00.000Z</time>
        <extensions>
          <ns3:TrackPointExtension>
            <ns3:atemp>19.0</ns3:atemp>
          </ns3:TrackPointExtension>
        </extensions>
      </trkpt>
      <trkpt lat="43.1267755664885044097900390625" lon="13.1439994834363460540771484375">
        <ele>522.79998779296875</ele>
        <time>2021-05-25T07:57:01.000Z</time>
        <extensions>
          <ns3:TrackPointExtension>
            <ns3:atemp>19.0</ns3:atemp>
          </ns3:TrackPointExtension>
        </extensions>
      </trkpt>
      <trkpt lat="43.1267738901078701019287109375" lon="13.14399487338960170745849609375">
        <ele>521.79998779296875</ele>
        <time>2021-05-25T07:57:05.000Z</time>
        <extensions>
          <ns3:TrackPointExtension>
            <ns3:atemp>19.0</ns3:atemp>
          </ns3:TrackPointExtension>
        </extensions>
      </trkpt>
      <trkpt lat="43.1267738901078701019287109375" lon="13.14399453811347484588623046875">
        <ele>521.5999755859375</ele>
        <time>2021-05-25T07:57:06.000Z</time>
        <extensions>
          <ns3:TrackPointExtension>
            <ns3:atemp>19.0</ns3:atemp>
          </ns3:TrackPointExtension>
        </extensions>
      </trkpt>
      <trkpt lat="43.12680347822606563568115234375" lon="13.14402110874652862548828125">
        <ele>521</ele>
        <time>2021-05-25T07:57:30.000Z</time>
        <extensions>
          <ns3:TrackPointExtension>
            <ns3:atemp>20.0</ns3:atemp>
          </ns3:TrackPointExtension>
        </extensions>
      </trkpt>
      <trkpt lat="43.1269227527081966400146484375" lon="13.144113980233669281005859375">
        <ele>521</ele>
        <time>2021-05-25T07:57:34.000Z</time>
        <extensions>
          <ns3:TrackPointExtension>
            <ns3:atemp>20.0</ns3:atemp>
          </ns3:TrackPointExtension>
        </extensions>
      </trkpt>
      <trkpt lat="43.12696516513824462890625" lon="13.14413535408675670623779296875">
        <ele>520.79998779296875</ele>
        <time>2021-05-25T07:57:35.000Z</time>
        <extensions>
          <ns3:TrackPointExtension>
            <ns3:atemp>20.0</ns3:atemp>
          </ns3:TrackPointExtension>
        </extensions>
      </trkpt>
      <trkpt lat="43.12708226032555103302001953125" lon="13.14420073293149471282958984375">
        <ele>520.5999755859375</ele>
        <time>2021-05-25T07:57:38.000Z</time>
        <extensions>
          <ns3:TrackPointExtension>
            <ns3:atemp>20.0</ns3:atemp>
          </ns3:TrackPointExtension>
        </extensions>
      </trkpt>
      <trkpt lat="43.12711997888982295989990234375" lon="13.14422671683132648468017578125">
        <ele>520.5999755859375</ele>
        <time>2021-05-25T07:57:39.000Z</time>
        <extensions>
          <ns3:TrackPointExtension>
            <ns3:atemp>20.0</ns3:atemp>
          </ns3:TrackPointExtension>
        </extensions>
      </trkpt>
      <trkpt lat="43.1271571107208728790283203125" lon="13.14424800686538219451904296875">
        <ele>520.20001220703125</ele>
        <time>2021-05-25T07:57:40.000Z</time>
        <extensions>
          <ns3:TrackPointExtension>
            <ns3:atemp>20.0</ns3:atemp>
          </ns3:TrackPointExtension>
        </extensions>
      </trkpt>
      <trkpt lat="43.12722600996494293212890625" lon="13.144286312162876129150390625">
        <ele>519.5999755859375</ele>
        <time>2021-05-25T07:57:42.000Z</time>
        <extensions>
          <ns3:TrackPointExtension>
            <ns3:atemp>20.0</ns3:atemp>
          </ns3:TrackPointExtension>
        </extensions>
      </trkpt>
      <trkpt lat="43.12728929333388805389404296875" lon="13.14432461746037006378173828125">
        <ele>518.4000244140625</ele>
        <time>2021-05-25T07:57:44.000Z</time>
        <extensions>
          <ns3:TrackPointExtension>
            <ns3:atemp>20.0</ns3:atemp>
          </ns3:TrackPointExtension>
        </extensions>
      </trkpt>
      <trkpt lat="43.1273582763969898223876953125" lon="13.14438178203999996185302734375">
        <ele>517.20001220703125</ele>
        <time>2021-05-25T07:57:46.000Z</time>
        <extensions>
          <ns3:TrackPointExtension>
            <ns3:atemp>20.0</ns3:atemp>
          </ns3:TrackPointExtension>
        </extensions>
      </trkpt>
      <trkpt lat="43.12742692418396472930908203125" lon="13.1444517709314823150634765625">
        <ele>516.20001220703125</ele>
        <time>2021-05-25T07:57:48.000Z</time>
        <extensions>
          <ns3:TrackPointExtension>
            <ns3:atemp>20.0</ns3:atemp>
          </ns3:TrackPointExtension>
        </extensions>
      </trkpt>
      <trkpt lat="43.1274990923702716827392578125" lon="13.14451723359525203704833984375">
        <ele>515.20001220703125</ele>
        <time>2021-05-25T07:57:50.000Z</time>
        <extensions>
          <ns3:TrackPointExtension>
            <ns3:atemp>20.0</ns3:atemp>
          </ns3:TrackPointExtension>
        </extensions>
      </trkpt>
      <trkpt lat="43.12753857113420963287353515625" lon="13.14454120583832263946533203125">
        <ele>514.79998779296875</ele>
        <time>2021-05-25T07:57:51.000Z</time>
        <extensions>
          <ns3:TrackPointExtension>
            <ns3:atemp>20.0</ns3:atemp>
          </ns3:TrackPointExtension>
        </extensions>
      </trkpt>
      <trkpt lat="43.1275782175362110137939453125" lon="13.14456266351044178009033203125">
        <ele>514.5999755859375</ele>
        <time>2021-05-25T07:57:52.000Z</time>
        <extensions>
          <ns3:TrackPointExtension>
            <ns3:atemp>20.0</ns3:atemp>
          </ns3:TrackPointExtension>
        </extensions>
      </trkpt>
      <trkpt lat="43.12775599770247936248779296875" lon="13.1446365080773830413818359375">
        <ele>513.79998779296875</ele>
        <time>2021-05-25T07:57:56.000Z</time>
        <extensions>
          <ns3:TrackPointExtension>
            <ns3:atemp>20.0</ns3:atemp>
          </ns3:TrackPointExtension>
        </extensions>
      </trkpt>
      <trkpt lat="43.12789882533252239227294921875" lon="13.14467632211744785308837890625">
        <ele>513.4000244140625</ele>
        <time>2021-05-25T07:57:59.000Z</time>
        <extensions>
          <ns3:TrackPointExtension>
            <ns3:atemp>20.0</ns3:atemp>
          </ns3:TrackPointExtension>
        </extensions>
      </trkpt>
      <trkpt lat="43.1279433332383632659912109375" lon="13.1446951813995838165283203125">
        <ele>513.20001220703125</ele>
        <time>2021-05-25T07:58:00.000Z</time>
        <extensions>
          <ns3:TrackPointExtension>
            <ns3:atemp>20.0</ns3:atemp>
          </ns3:TrackPointExtension>
        </extensions>
      </trkpt>
      <trkpt lat="43.128118850290775299072265625" lon="13.1447759829461574554443359375">
        <ele>512.5999755859375</ele>
        <time>2021-05-25T07:58:04.000Z</time>
        <extensions>
          <ns3:TrackPointExtension>
            <ns3:atemp>20.0</ns3:atemp>
          </ns3:TrackPointExtension>
        </extensions>
      </trkpt>
      <trkpt lat="43.12828154303133487701416015625" lon="13.1448688544332981109619140625">
        <ele>511.600006103515625</ele>
        <time>2021-05-25T07:58:08.000Z</time>
        <extensions>
          <ns3:TrackPointExtension>
            <ns3:atemp>20.0</ns3:atemp>
          </ns3:TrackPointExtension>
        </extensions>
      </trkpt>
      <trkpt lat="43.1283674575388431549072265625" lon="13.1449248455464839935302734375">
        <ele>511.20001220703125</ele>
        <time>2021-05-25T07:58:10.000Z</time>
        <extensions>
          <ns3:TrackPointExtension>
            <ns3:atemp>20.0</ns3:atemp>
          </ns3:TrackPointExtension>
        </extensions>
      </trkpt>
      <trkpt lat="43.1285666115581989288330078125" lon="13.14508066512644290924072265625">
        <ele>510.20001220703125</ele>
        <time>2021-05-25T07:58:15.000Z</time>
        <extensions>
          <ns3:TrackPointExtension>
            <ns3:atemp>20.0</ns3:atemp>
          </ns3:TrackPointExtension>
        </extensions>
      </trkpt>
      <trkpt lat="43.1286366842687129974365234375" lon="13.14515643753111362457275390625">
        <ele>509.600006103515625</ele>
        <time>2021-05-25T07:58:17.000Z</time>
        <extensions>
          <ns3:TrackPointExtension>
            <ns3:atemp>20.0</ns3:atemp>
          </ns3:TrackPointExtension>
        </extensions>
      </trkpt>
      <trkpt lat="43.128667362034320831298828125" lon="13.1452001072466373443603515625">
        <ele>509.20001220703125</ele>
        <time>2021-05-25T07:58:18.000Z</time>
        <extensions>
          <ns3:TrackPointExtension>
            <ns3:atemp>20.0</ns3:atemp>
          </ns3:TrackPointExtension>
        </extensions>
      </trkpt>
      <trkpt lat="43.12876115553081035614013671875" lon="13.14532575197517871856689453125">
        <ele>508</ele>
        <time>2021-05-25T07:58:21.000Z</time>
        <extensions>
          <ns3:TrackPointExtension>
            <ns3:atemp>20.0</ns3:atemp>
          </ns3:TrackPointExtension>
        </extensions>
      </trkpt>
      <trkpt lat="43.128789402544498443603515625" lon="13.14536531455814838409423828125">
        <ele>507.600006103515625</ele>
        <time>2021-05-25T07:58:22.000Z</time>
        <extensions>
          <ns3:TrackPointExtension>
            <ns3:atemp>20.0</ns3:atemp>
          </ns3:TrackPointExtension>
        </extensions>
      </trkpt>
      <trkpt lat="43.12899434007704257965087890625" lon="13.145642168819904327392578125">
        <ele>507</ele>
        <time>2021-05-25T07:58:29.000Z</time>
        <extensions>
          <ns3:TrackPointExtension>
            <ns3:atemp>20.0</ns3:atemp>
          </ns3:TrackPointExtension>
        </extensions>
      </trkpt>
      <trkpt lat="43.1290893070399761199951171875" lon="13.14576320350170135498046875">
        <ele>506.79998779296875</ele>
        <time>2021-05-25T07:58:32.000Z</time>
        <extensions>
          <ns3:TrackPointExtension>
            <ns3:atemp>20.0</ns3:atemp>
          </ns3:TrackPointExtension>
        </extensions>
      </trkpt>
      <trkpt lat="43.1291587091982364654541015625" lon="13.145843334496021270751953125">
        <ele>506.79998779296875</ele>
        <time>2021-05-25T07:58:34.000Z</time>
        <extensions>
          <ns3:TrackPointExtension>
            <ns3:atemp>20.0</ns3:atemp>
          </ns3:TrackPointExtension>
        </extensions>
      </trkpt>
      <trkpt lat="43.12924646772444248199462890625" lon="13.14598574303090572357177734375">
        <ele>506.600006103515625</ele>
        <time>2021-05-25T07:58:37.000Z</time>
        <extensions>
          <ns3:TrackPointExtension>
            <ns3:atemp>20.0</ns3:atemp>
          </ns3:TrackPointExtension>
        </extensions>
      </trkpt>
      <trkpt lat="43.12936750240623950958251953125" lon="13.14629788510501384735107421875">
        <ele>506</ele>
        <time>2021-05-25T07:58:43.000Z</time>
        <extensions>
          <ns3:TrackPointExtension>
            <ns3:atemp>20.0</ns3:atemp>
          </ns3:TrackPointExtension>
        </extensions>
      </trkpt>
      <trkpt lat="43.12940530478954315185546875" lon="13.14640752039849758148193359375">
        <ele>505.79998779296875</ele>
        <time>2021-05-25T07:58:45.000Z</time>
        <extensions>
          <ns3:TrackPointExtension>
            <ns3:atemp>20.0</ns3:atemp>
          </ns3:TrackPointExtension>
        </extensions>
      </trkpt>
      <trkpt lat="43.12947906553745269775390625" lon="13.14667641185224056243896484375">
        <ele>504.79998779296875</ele>
        <time>2021-05-25T07:58:50.000Z</time>
        <extensions>
          <ns3:TrackPointExtension>
            <ns3:atemp>20.0</ns3:atemp>
          </ns3:TrackPointExtension>
        </extensions>
      </trkpt>
      <trkpt lat="43.1294886209070682525634765625" lon="13.14673894084990024566650390625">
        <ele>504.79998779296875</ele>
        <time>2021-05-25T07:58:51.000Z</time>
        <extensions>
          <ns3:TrackPointExtension>
            <ns3:atemp>20.0</ns3:atemp>
          </ns3:TrackPointExtension>
        </extensions>
      </trkpt>
      <trkpt lat="43.1295315362513065338134765625" lon="13.14696592278778553009033203125">
        <ele>503.79998779296875</ele>
        <time>2021-05-25T07:58:55.000Z</time>
        <extensions>
          <ns3:TrackPointExtension>
            <ns3:atemp>20.0</ns3:atemp>
          </ns3:TrackPointExtension>
        </extensions>
      </trkpt>
      <trkpt lat="43.1295870244503021240234375" lon="13.147205226123332977294921875">
        <ele>502.79998779296875</ele>
        <time>2021-05-25T07:59:00.000Z</time>
        <extensions>
          <ns3:TrackPointExtension>
            <ns3:atemp>20.0</ns3:atemp>
          </ns3:TrackPointExtension>
        </extensions>
      </trkpt>
      <trkpt lat="43.129648379981517791748046875" lon="13.14750789664685726165771484375">
        <ele>502.79998779296875</ele>
        <time>2021-05-25T07:59:07.000Z</time>
        <extensions>
          <ns3:TrackPointExtension>
            <ns3:atemp>19.0</ns3:atemp>
          </ns3:TrackPointExtension>
        </extensions>
      </trkpt>
      <trkpt lat="43.12963404692709445953369140625" lon="13.14764334820210933685302734375">
        <ele>503.399993896484375</ele>
        <time>2021-05-25T07:59:11.000Z</time>
        <extensions>
          <ns3:TrackPointExtension>
            <ns3:atemp>19.0</ns3:atemp>
          </ns3:TrackPointExtension>
        </extensions>
      </trkpt>
      <trkpt lat="43.12961543910205364227294921875" lon="13.14775650389492511749267578125">
        <ele>504.79998779296875</ele>
        <time>2021-05-25T07:59:15.000Z</time>
        <extensions>
          <ns3:TrackPointExtension>
            <ns3:atemp>19.0</ns3:atemp>
          </ns3:TrackPointExtension>
        </extensions>
      </trkpt>
      <trkpt lat="43.12960923649370670318603515625" lon="13.1477902829647064208984375">
        <ele>505</ele>
        <time>2021-05-25T07:59:16.000Z</time>
        <extensions>
          <ns3:TrackPointExtension>
            <ns3:atemp>19.0</ns3:atemp>
          </ns3:TrackPointExtension>
        </extensions>
      </trkpt>
      <trkpt lat="43.12955760397017002105712890625" lon="13.14804718829691410064697265625">
        <ele>505.600006103515625</ele>
        <time>2021-05-25T07:59:23.000Z</time>
        <extensions>
          <ns3:TrackPointExtension>
            <ns3:atemp>19.0</ns3:atemp>
          </ns3:TrackPointExtension>
        </extensions>
      </trkpt>
      <trkpt lat="43.129579983651638031005859375" lon="13.14822119660675525665283203125">
        <ele>505.79998779296875</ele>
        <time>2021-05-25T07:59:28.000Z</time>
        <extensions>
          <ns3:TrackPointExtension>
            <ns3:atemp>19.0</ns3:atemp>
          </ns3:TrackPointExtension>
        </extensions>
      </trkpt>
      <trkpt lat="43.12959549017250537872314453125" lon="13.1482588313519954681396484375">
        <ele>505.79998779296875</ele>
        <time>2021-05-25T07:59:29.000Z</time>
        <extensions>
          <ns3:TrackPointExtension>
            <ns3:atemp>19.0</ns3:atemp>
          </ns3:TrackPointExtension>
        </extensions>
      </trkpt>
      <trkpt lat="43.12973680905997753143310546875" lon="13.14842018298804759979248046875">
        <ele>506</ele>
        <time>2021-05-25T07:59:34.000Z</time>
        <extensions>
          <ns3:TrackPointExtension>
            <ns3:atemp>19.0</ns3:atemp>
          </ns3:TrackPointExtension>
        </extensions>
      </trkpt>
      <trkpt lat="43.12991492450237274169921875" lon="13.1485252082347869873046875">
        <ele>506</ele>
        <time>2021-05-25T07:59:39.000Z</time>
        <extensions>
          <ns3:TrackPointExtension>
            <ns3:atemp>19.0</ns3:atemp>
          </ns3:TrackPointExtension>
        </extensions>
      </trkpt>
      <trkpt lat="43.13006454147398471832275390625" lon="13.14857759512960910797119140625">
        <ele>505.399993896484375</ele>
        <time>2021-05-25T07:59:44.000Z</time>
        <extensions>
          <ns3:TrackPointExtension>
            <ns3:atemp>19.0</ns3:atemp>
          </ns3:TrackPointExtension>
        </extensions>
      </trkpt>
      <trkpt lat="43.13029202632606029510498046875" lon="13.14870717935264110565185546875">
        <ele>505.20001220703125</ele>
        <time>2021-05-25T07:59:50.000Z</time>
        <extensions>
          <ns3:TrackPointExtension>
            <ns3:atemp>19.0</ns3:atemp>
          </ns3:TrackPointExtension>
        </extensions>
      </trkpt>
      <trkpt lat="43.13048263080418109893798828125" lon="13.14887724816799163818359375">
        <ele>505.600006103515625</ele>
        <time>2021-05-25T07:59:56.000Z</time>
        <extensions>
          <ns3:TrackPointExtension>
            <ns3:atemp>19.0</ns3:atemp>
          </ns3:TrackPointExtension>
        </extensions>
      </trkpt>
      <trkpt lat="43.13061774708330631256103515625" lon="13.1490899808704853057861328125">
        <ele>505.79998779296875</ele>
        <time>2021-05-25T08:00:02.000Z</time>
        <extensions>
          <ns3:TrackPointExtension>
            <ns3:atemp>19.0</ns3:atemp>
          </ns3:TrackPointExtension>
        </extensions>
      </trkpt>
      <trkpt lat="43.13063819892704486846923828125" lon="13.149132393300533294677734375">
        <ele>505.79998779296875</ele>
        <time>2021-05-25T08:00:03.000Z</time>
        <extensions>
          <ns3:TrackPointExtension>
            <ns3:atemp>19.0</ns3:atemp>
          </ns3:TrackPointExtension>
        </extensions>
      </trkpt>
      <trkpt lat="43.1306936033070087432861328125" lon="13.14932811073958873748779296875">
        <ele>505.399993896484375</ele>
        <time>2021-05-25T08:00:07.000Z</time>
        <extensions>
          <ns3:TrackPointExtension>
            <ns3:atemp>19.0</ns3:atemp>
          </ns3:TrackPointExtension>
        </extensions>
      </trkpt>
      <trkpt lat="43.13070349395275115966796875" lon="13.149377144873142242431640625">
        <ele>504.600006103515625</ele>
        <time>2021-05-25T08:00:09.000Z</time>
        <extensions>
          <ns3:TrackPointExtension>
            <ns3:atemp>19.0</ns3:atemp>
          </ns3:TrackPointExtension>
        </extensions>
      </trkpt>
      <trkpt lat="43.13071019947528839111328125" lon="13.1493893824517726898193359375">
        <ele>503.399993896484375</ele>
        <time>2021-05-25T08:00:11.000Z</time>
        <extensions>
          <ns3:TrackPointExtension>
            <ns3:atemp>19.0</ns3:atemp>
          </ns3:TrackPointExtension>
        </extensions>
      </trkpt>
      <trkpt lat="43.130712211132049560546875" lon="13.1494141928851604461669921875">
        <ele>502</ele>
        <time>2021-05-25T08:00:13.000Z</time>
        <extensions>
          <ns3:TrackPointExtension>
            <ns3:atemp>19.0</ns3:atemp>
          </ns3:TrackPointExtension>
        </extensions>
      </trkpt>
      <trkpt lat="43.130701817572116851806640625" lon="13.149520643055438995361328125">
        <ele>501</ele>
        <time>2021-05-25T08:00:16.000Z</time>
        <extensions>
          <ns3:TrackPointExtension>
            <ns3:atemp>19.0</ns3:atemp>
          </ns3:TrackPointExtension>
        </extensions>
      </trkpt>
      <trkpt lat="43.13068882562220096588134765625" lon="13.14957537688314914703369140625">
        <ele>501</ele>
        <time>2021-05-25T08:00:17.000Z</time>
        <extensions>
          <ns3:TrackPointExtension>
            <ns3:atemp>19.0</ns3:atemp>
          </ns3:TrackPointExtension>
        </extensions>
      </trkpt>
      <trkpt lat="43.13064448535442352294921875" lon="13.1497635506093502044677734375">
        <ele>500.79998779296875</ele>
        <time>2021-05-25T08:00:20.000Z</time>
        <extensions>
          <ns3:TrackPointExtension>
            <ns3:atemp>19.0</ns3:atemp>
          </ns3:TrackPointExtension>
        </extensions>
      </trkpt>
      <trkpt lat="43.13062948174774646759033203125" lon="13.14982230775058269500732421875">
        <ele>500.79998779296875</ele>
        <time>2021-05-25T08:00:21.000Z</time>
        <extensions>
          <ns3:TrackPointExtension>
            <ns3:atemp>19.0</ns3:atemp>
          </ns3:TrackPointExtension>
        </extensions>
      </trkpt>
      <trkpt lat="43.1305581517517566680908203125" lon="13.14998156391084194183349609375">
        <ele>499.79998779296875</ele>
        <time>2021-05-25T08:00:24.000Z</time>
        <extensions>
          <ns3:TrackPointExtension>
            <ns3:atemp>19.0</ns3:atemp>
          </ns3:TrackPointExtension>
        </extensions>
      </trkpt>
      <trkpt lat="43.13053049147129058837890625" lon="13.15003118477761745452880859375">
        <ele>499.399993896484375</ele>
        <time>2021-05-25T08:00:25.000Z</time>
        <extensions>
          <ns3:TrackPointExtension>
            <ns3:atemp>19.0</ns3:atemp>
          </ns3:TrackPointExtension>
        </extensions>
      </trkpt>
      <trkpt lat="43.1305110454559326171875" lon="13.1500803865492343902587890625">
        <ele>498.600006103515625</ele>
        <time>2021-05-25T08:00:26.000Z</time>
        <extensions>
          <ns3:TrackPointExtension>
            <ns3:atemp>19.0</ns3:atemp>
          </ns3:TrackPointExtension>
        </extensions>
      </trkpt>
      <trkpt lat="43.13047324307262897491455078125" lon="13.1502108089625835418701171875">
        <ele>497.399993896484375</ele>
        <time>2021-05-25T08:00:29.000Z</time>
        <extensions>
          <ns3:TrackPointExtension>
            <ns3:atemp>19.0</ns3:atemp>
          </ns3:TrackPointExtension>
        </extensions>
      </trkpt>
      <trkpt lat="43.13043099828064441680908203125" lon="13.15042178146541118621826171875">
        <ele>496</ele>
        <time>2021-05-25T08:00:33.000Z</time>
        <extensions>
          <ns3:TrackPointExtension>
            <ns3:atemp>19.0</ns3:atemp>
          </ns3:TrackPointExtension>
        </extensions>
      </trkpt>
      <trkpt lat="43.1304223649203777313232421875" lon="13.15048095770180225372314453125">
        <ele>495.600006103515625</ele>
        <time>2021-05-25T08:00:34.000Z</time>
        <extensions>
          <ns3:TrackPointExtension>
            <ns3:atemp>19.0</ns3:atemp>
          </ns3:TrackPointExtension>
        </extensions>
      </trkpt>
      <trkpt lat="43.13042161054909229278564453125" lon="13.1505343504250049591064453125">
        <ele>495</ele>
        <time>2021-05-25T08:00:35.000Z</time>
        <extensions>
          <ns3:TrackPointExtension>
            <ns3:atemp>19.0</ns3:atemp>
          </ns3:TrackPointExtension>
        </extensions>
      </trkpt>
      <trkpt lat="43.1304381228983402252197265625" lon="13.1506506912410259246826171875">
        <ele>493.79998779296875</ele>
        <time>2021-05-25T08:00:37.000Z</time>
        <extensions>
          <ns3:TrackPointExtension>
            <ns3:atemp>19.0</ns3:atemp>
          </ns3:TrackPointExtension>
        </extensions>
      </trkpt>
      <trkpt lat="43.1304525397717952728271484375" lon="13.150712549686431884765625">
        <ele>493.20001220703125</ele>
        <time>2021-05-25T08:00:38.000Z</time>
        <extensions>
          <ns3:TrackPointExtension>
            <ns3:atemp>19.0</ns3:atemp>
          </ns3:TrackPointExtension>
        </extensions>
      </trkpt>
      <trkpt lat="43.1304766796529293060302734375" lon="13.15077180974185466766357421875">
        <ele>492.600006103515625</ele>
        <time>2021-05-25T08:00:39.000Z</time>
        <extensions>
          <ns3:TrackPointExtension>
            <ns3:atemp>19.0</ns3:atemp>
          </ns3:TrackPointExtension>
        </extensions>
      </trkpt>
      <trkpt lat="43.1305418908596038818359375" lon="13.15089636482298374176025390625">
        <ele>491.600006103515625</ele>
        <time>2021-05-25T08:00:41.000Z</time>
        <extensions>
          <ns3:TrackPointExtension>
            <ns3:atemp>19.0</ns3:atemp>
          </ns3:TrackPointExtension>
        </extensions>
      </trkpt>
      <trkpt lat="43.13060970045626163482666015625" lon="13.15100231207907199859619140625">
        <ele>490.20001220703125</ele>
        <time>2021-05-25T08:00:43.000Z</time>
        <extensions>
          <ns3:TrackPointExtension>
            <ns3:atemp>18.0</ns3:atemp>
          </ns3:TrackPointExtension>
        </extensions>
      </trkpt>
      <trkpt lat="43.13064021058380603790283203125" lon="13.1510647572576999664306640625">
        <ele>489.600006103515625</ele>
        <time>2021-05-25T08:00:44.000Z</time>
        <extensions>
          <ns3:TrackPointExtension>
            <ns3:atemp>18.0</ns3:atemp>
          </ns3:TrackPointExtension>
        </extensions>
      </trkpt>
      <trkpt lat="43.13068279065191745758056640625" lon="13.1511257775127887725830078125">
        <ele>488</ele>
        <time>2021-05-25T08:00:45.000Z</time>
        <extensions>
          <ns3:TrackPointExtension>
            <ns3:atemp>18.0</ns3:atemp>
          </ns3:TrackPointExtension>
        </extensions>
      </trkpt>
      <trkpt lat="43.13081824220716953277587890625" lon="13.15130875445902347564697265625">
        <ele>487</ele>
        <time>2021-05-25T08:00:48.000Z</time>
        <extensions>
          <ns3:TrackPointExtension>
            <ns3:atemp>18.0</ns3:atemp>
          </ns3:TrackPointExtension>
        </extensions>
      </trkpt>
      <trkpt lat="43.1309058330953121185302734375" lon="13.151435740292072296142578125">
        <ele>486</ele>
        <time>2021-05-25T08:00:50.000Z</time>
        <extensions>
          <ns3:TrackPointExtension>
            <ns3:atemp>18.0</ns3:atemp>
          </ns3:TrackPointExtension>
        </extensions>
      </trkpt>
      <trkpt lat="43.13095084391534328460693359375" lon="13.1514962576329708099365234375">
        <ele>485.399993896484375</ele>
        <time>2021-05-25T08:00:51.000Z</time>
        <extensions>
          <ns3:TrackPointExtension>
            <ns3:atemp>18.0</ns3:atemp>
          </ns3:TrackPointExtension>
        </extensions>
      </trkpt>
      <trkpt lat="43.1310640834271907806396484375" lon="13.15167940221726894378662109375">
        <ele>484.399993896484375</ele>
        <time>2021-05-25T08:00:54.000Z</time>
        <extensions>
          <ns3:TrackPointExtension>
            <ns3:atemp>18.0</ns3:atemp>
          </ns3:TrackPointExtension>
        </extensions>
      </trkpt>
      <trkpt lat="43.1311277858912944793701171875" lon="13.15181418322026729583740234375">
        <ele>483.399993896484375</ele>
        <time>2021-05-25T08:00:56.000Z</time>
        <extensions>
          <ns3:TrackPointExtension>
            <ns3:atemp>18.0</ns3:atemp>
          </ns3:TrackPointExtension>
        </extensions>
      </trkpt>
      <trkpt lat="43.13115502707660198211669921875" lon="13.1518779695034027099609375">
        <ele>483</ele>
        <time>2021-05-25T08:00:57.000Z</time>
        <extensions>
          <ns3:TrackPointExtension>
            <ns3:atemp>18.0</ns3:atemp>
          </ns3:TrackPointExtension>
        </extensions>
      </trkpt>
      <trkpt lat="43.13118754886090755462646484375" lon="13.1519324518740177154541015625">
        <ele>482.399993896484375</ele>
        <time>2021-05-25T08:00:58.000Z</time>
        <extensions>
          <ns3:TrackPointExtension>
            <ns3:atemp>18.0</ns3:atemp>
          </ns3:TrackPointExtension>
        </extensions>
      </trkpt>
      <trkpt lat="43.1312152929604053497314453125" lon="13.15197947435081005096435546875">
        <ele>481.79998779296875</ele>
        <time>2021-05-25T08:00:59.000Z</time>
        <extensions>
          <ns3:TrackPointExtension>
            <ns3:atemp>18.0</ns3:atemp>
          </ns3:TrackPointExtension>
        </extensions>
      </trkpt>
      <trkpt lat="43.1312377564609050750732421875" lon="13.15201434306800365447998046875">
        <ele>481</ele>
        <time>2021-05-25T08:01:00.000Z</time>
        <extensions>
          <ns3:TrackPointExtension>
            <ns3:atemp>18.0</ns3:atemp>
          </ns3:TrackPointExtension>
        </extensions>
      </trkpt>
      <trkpt lat="43.1312521733343601226806640625" lon="13.15204770304262638092041015625">
        <ele>480.20001220703125</ele>
        <time>2021-05-25T08:01:01.000Z</time>
        <extensions>
          <ns3:TrackPointExtension>
            <ns3:atemp>18.0</ns3:atemp>
          </ns3:TrackPointExtension>
        </extensions>
      </trkpt>
      <trkpt lat="43.13127757050096988677978515625" lon="13.152094222605228424072265625">
        <ele>478.20001220703125</ele>
        <time>2021-05-25T08:01:03.000Z</time>
        <extensions>
          <ns3:TrackPointExtension>
            <ns3:atemp>18.0</ns3:atemp>
          </ns3:TrackPointExtension>
        </extensions>
      </trkpt>
      <trkpt lat="43.131283186376094818115234375" lon="13.15210235305130481719970703125">
        <ele>477</ele>
        <time>2021-05-25T08:01:04.000Z</time>
        <extensions>
          <ns3:TrackPointExtension>
            <ns3:atemp>18.0</ns3:atemp>
          </ns3:TrackPointExtension>
        </extensions>
      </trkpt>
      <trkpt lat="43.13128729350864887237548828125" lon="13.1521193683147430419921875">
        <ele>475.399993896484375</ele>
        <time>2021-05-25T08:01:06.000Z</time>
        <extensions>
          <ns3:TrackPointExtension>
            <ns3:atemp>18.0</ns3:atemp>
          </ns3:TrackPointExtension>
        </extensions>
      </trkpt>
      <trkpt lat="43.13130053691565990447998046875" lon="13.152168653905391693115234375">
        <ele>474.79998779296875</ele>
        <time>2021-05-25T08:01:12.000Z</time>
        <extensions>
          <ns3:TrackPointExtension>
            <ns3:atemp>18.0</ns3:atemp>
          </ns3:TrackPointExtension>
        </extensions>
      </trkpt>
      <trkpt lat="43.13131009228527545928955078125" lon="13.15218499861657619476318359375">
        <ele>474.79998779296875</ele>
        <time>2021-05-25T08:01:20.000Z</time>
        <extensions>
          <ns3:TrackPointExtension>
            <ns3:atemp>18.0</ns3:atemp>
          </ns3:TrackPointExtension>
        </extensions>
      </trkpt>
      <trkpt lat="43.1313289515674114227294921875" lon="13.15221659839153289794921875">
        <ele>474.600006103515625</ele>
        <time>2021-05-25T08:01:31.000Z</time>
        <extensions>
          <ns3:TrackPointExtension>
            <ns3:atemp>18.0</ns3:atemp>
          </ns3:TrackPointExtension>
        </extensions>
      </trkpt>
      <trkpt lat="43.1313571147620677947998046875" lon="13.15231257118284702301025390625">
        <ele>474.600006103515625</ele>
        <time>2021-05-25T08:01:36.000Z</time>
        <extensions>
          <ns3:TrackPointExtension>
            <ns3:atemp>18.0</ns3:atemp>
          </ns3:TrackPointExtension>
        </extensions>
      </trkpt>
      <trkpt lat="43.131406567990779876708984375" lon="13.152489177882671356201171875">
        <ele>474.600006103515625</ele>
        <time>2021-05-25T08:01:41.000Z</time>
        <extensions>
          <ns3:TrackPointExtension>
            <ns3:atemp>18.0</ns3:atemp>
          </ns3:TrackPointExtension>
        </extensions>
      </trkpt>
      <trkpt lat="43.13141654245555400848388671875" lon="13.15252563916146755218505859375">
        <ele>474.399993896484375</ele>
        <time>2021-05-25T08:01:42.000Z</time>
        <extensions>
          <ns3:TrackPointExtension>
            <ns3:atemp>18.0</ns3:atemp>
          </ns3:TrackPointExtension>
        </extensions>
      </trkpt>
      <trkpt lat="43.1314431130886077880859375" lon="13.15260459668934345245361328125">
        <ele>473.20001220703125</ele>
        <time>2021-05-25T08:01:44.000Z</time>
        <extensions>
          <ns3:TrackPointExtension>
            <ns3:atemp>18.0</ns3:atemp>
          </ns3:TrackPointExtension>
        </extensions>
      </trkpt>
      <trkpt lat="43.1314543448388576507568359375" lon="13.15264365635812282562255859375">
        <ele>472</ele>
        <time>2021-05-25T08:01:45.000Z</time>
        <extensions>
          <ns3:TrackPointExtension>
            <ns3:atemp>18.0</ns3:atemp>
          </ns3:TrackPointExtension>
        </extensions>
      </trkpt>
      <trkpt lat="43.13148728571832180023193359375" lon="13.15272177569568157196044921875">
        <ele>471.20001220703125</ele>
        <time>2021-05-25T08:01:47.000Z</time>
        <extensions>
          <ns3:TrackPointExtension>
            <ns3:atemp>18.0</ns3:atemp>
          </ns3:TrackPointExtension>
        </extensions>
      </trkpt>
      <trkpt lat="43.13150639645755290985107421875" lon="13.15276670269668102264404296875">
        <ele>470.600006103515625</ele>
        <time>2021-05-25T08:01:48.000Z</time>
        <extensions>
          <ns3:TrackPointExtension>
            <ns3:atemp>18.0</ns3:atemp>
          </ns3:TrackPointExtension>
        </extensions>
      </trkpt>
      <trkpt lat="43.131574876606464385986328125" lon="13.15290047787129878997802734375">
        <ele>469.399993896484375</ele>
        <time>2021-05-25T08:01:51.000Z</time>
        <extensions>
          <ns3:TrackPointExtension>
            <ns3:atemp>18.0</ns3:atemp>
          </ns3:TrackPointExtension>
        </extensions>
      </trkpt>
      <trkpt lat="43.1315904669463634490966796875" lon="13.152947835624217987060546875">
        <ele>469</ele>
        <time>2021-05-25T08:01:52.000Z</time>
        <extensions>
          <ns3:TrackPointExtension>
            <ns3:atemp>18.0</ns3:atemp>
          </ns3:TrackPointExtension>
        </extensions>
      </trkpt>
      <trkpt lat="43.13160915859043598175048828125" lon="13.15299452282488346099853515625">
        <ele>468.600006103515625</ele>
        <time>2021-05-25T08:01:53.000Z</time>
        <extensions>
          <ns3:TrackPointExtension>
            <ns3:atemp>18.0</ns3:atemp>
          </ns3:TrackPointExtension>
        </extensions>
      </trkpt>
      <trkpt lat="43.1316296942532062530517578125" lon="13.1530375219881534576416015625">
        <ele>468.20001220703125</ele>
        <time>2021-05-25T08:01:54.000Z</time>
        <extensions>
          <ns3:TrackPointExtension>
            <ns3:atemp>18.0</ns3:atemp>
          </ns3:TrackPointExtension>
        </extensions>
      </trkpt>
      <trkpt lat="43.1316736154258251190185546875" lon="13.15313366241753101348876953125">
        <ele>467</ele>
        <time>2021-05-25T08:01:56.000Z</time>
        <extensions>
          <ns3:TrackPointExtension>
            <ns3:atemp>18.0</ns3:atemp>
          </ns3:TrackPointExtension>
        </extensions>
      </trkpt>
      <trkpt lat="43.1317094899713993072509765625" lon="13.15323206596076488494873046875">
        <ele>465.79998779296875</ele>
        <time>2021-05-25T08:01:58.000Z</time>
        <extensions>
          <ns3:TrackPointExtension>
            <ns3:atemp>18.0</ns3:atemp>
          </ns3:TrackPointExtension>
        </extensions>
      </trkpt>
      <trkpt lat="43.13175986520946025848388671875" lon="13.15340339206159114837646484375">
        <ele>464.600006103515625</ele>
        <time>2021-05-25T08:02:01.000Z</time>
        <extensions>
          <ns3:TrackPointExtension>
            <ns3:atemp>18.0</ns3:atemp>
          </ns3:TrackPointExtension>
        </extensions>
      </trkpt>
      <trkpt lat="43.131767325103282928466796875" lon="13.15346340648829936981201171875">
        <ele>464.399993896484375</ele>
        <time>2021-05-25T08:02:02.000Z</time>
        <extensions>
          <ns3:TrackPointExtension>
            <ns3:atemp>18.0</ns3:atemp>
          </ns3:TrackPointExtension>
        </extensions>
      </trkpt>
      <trkpt lat="43.13179557211697101593017578125" lon="13.1536038033664226531982421875">
        <ele>463.79998779296875</ele>
        <time>2021-05-25T08:02:04.000Z</time>
        <extensions>
          <ns3:TrackPointExtension>
            <ns3:atemp>18.0</ns3:atemp>
          </ns3:TrackPointExtension>
        </extensions>
      </trkpt>
      <trkpt lat="43.1318228133022785186767578125" lon="13.15367706120014190673828125">
        <ele>463.20001220703125</ele>
        <time>2021-05-25T08:02:05.000Z</time>
        <extensions>
          <ns3:TrackPointExtension>
            <ns3:atemp>18.0</ns3:atemp>
          </ns3:TrackPointExtension>
        </extensions>
      </trkpt>
      <trkpt lat="43.13187570311129093170166015625" lon="13.15390798263251781463623046875">
        <ele>461.79998779296875</ele>
        <time>2021-05-25T08:02:08.000Z</time>
        <extensions>
          <ns3:TrackPointExtension>
            <ns3:atemp>18.0</ns3:atemp>
          </ns3:TrackPointExtension>
        </extensions>
      </trkpt>
      <trkpt lat="43.13189380802214145660400390625" lon="13.15398442558944225311279296875">
        <ele>461.399993896484375</ele>
        <time>2021-05-25T08:02:09.000Z</time>
        <extensions>
          <ns3:TrackPointExtension>
            <ns3:atemp>18.0</ns3:atemp>
          </ns3:TrackPointExtension>
        </extensions>
      </trkpt>
      <trkpt lat="43.13190654851496219635009765625" lon="13.15406455658376216888427734375">
        <ele>460.79998779296875</ele>
        <time>2021-05-25T08:02:10.000Z</time>
        <extensions>
          <ns3:TrackPointExtension>
            <ns3:atemp>18.0</ns3:atemp>
          </ns3:TrackPointExtension>
        </extensions>
      </trkpt>
      <trkpt lat="43.131908141076564788818359375" lon="13.15420537255704402923583984375">
        <ele>459.79998779296875</ele>
        <time>2021-05-25T08:02:12.000Z</time>
        <extensions>
          <ns3:TrackPointExtension>
            <ns3:atemp>18.0</ns3:atemp>
          </ns3:TrackPointExtension>
        </extensions>
      </trkpt>
      <trkpt lat="43.13191090710461139678955078125" lon="13.15433965064585208892822265625">
        <ele>458.20001220703125</ele>
        <time>2021-05-25T08:02:14.000Z</time>
        <extensions>
          <ns3:TrackPointExtension>
            <ns3:atemp>18.0</ns3:atemp>
          </ns3:TrackPointExtension>
        </extensions>
      </trkpt>
      <trkpt lat="43.13191811554133892059326171875" lon="13.15440117381513118743896484375">
        <ele>457.600006103515625</ele>
        <time>2021-05-25T08:02:15.000Z</time>
        <extensions>
          <ns3:TrackPointExtension>
            <ns3:atemp>18.0</ns3:atemp>
          </ns3:TrackPointExtension>
        </extensions>
      </trkpt>
      <trkpt lat="43.1319438479840755462646484375" lon="13.15451500006020069122314453125">
        <ele>457</ele>
        <time>2021-05-25T08:02:17.000Z</time>
        <extensions>
          <ns3:TrackPointExtension>
            <ns3:atemp>18.0</ns3:atemp>
          </ns3:TrackPointExtension>
        </extensions>
      </trkpt>
      <trkpt lat="43.13197888433933258056640625" lon="13.15462128259241580963134765625">
        <ele>456.79998779296875</ele>
        <time>2021-05-25T08:02:19.000Z</time>
        <extensions>
          <ns3:TrackPointExtension>
            <ns3:atemp>18.0</ns3:atemp>
          </ns3:TrackPointExtension>
        </extensions>
      </trkpt>
      <trkpt lat="43.13207209110260009765625" lon="13.15503199584782123565673828125">
        <ele>456.600006103515625</ele>
        <time>2021-05-25T08:02:26.000Z</time>
        <extensions>
          <ns3:TrackPointExtension>
            <ns3:atemp>17.0</ns3:atemp>
          </ns3:TrackPointExtension>
        </extensions>
      </trkpt>
      <trkpt lat="43.13211433589458465576171875" lon="13.15523634664714336395263671875">
        <ele>456.600006103515625</ele>
        <time>2021-05-25T08:02:29.000Z</time>
        <extensions>
          <ns3:TrackPointExtension>
            <ns3:atemp>17.0</ns3:atemp>
          </ns3:TrackPointExtension>
        </extensions>
      </trkpt>
      <trkpt lat="43.13214006833732128143310546875" lon="13.1553019769489765167236328125">
        <ele>456.600006103515625</ele>
        <time>2021-05-25T08:02:30.000Z</time>
        <extensions>
          <ns3:TrackPointExtension>
            <ns3:atemp>17.0</ns3:atemp>
          </ns3:TrackPointExtension>
        </extensions>
      </trkpt>
      <trkpt lat="43.13232111744582653045654296875" lon="13.15556005574762821197509765625">
        <ele>455.79998779296875</ele>
        <time>2021-05-25T08:02:34.000Z</time>
        <extensions>
          <ns3:TrackPointExtension>
            <ns3:atemp>17.0</ns3:atemp>
          </ns3:TrackPointExtension>
        </extensions>
      </trkpt>
      <trkpt lat="43.132362775504589080810546875" lon="13.1556161306798458099365234375">
        <ele>455.399993896484375</ele>
        <time>2021-05-25T08:02:35.000Z</time>
        <extensions>
          <ns3:TrackPointExtension>
            <ns3:atemp>17.0</ns3:atemp>
          </ns3:TrackPointExtension>
        </extensions>
      </trkpt>
      <trkpt lat="43.1324382126331329345703125" lon="13.1557261012494564056396484375">
        <ele>454.79998779296875</ele>
        <time>2021-05-25T08:02:37.000Z</time>
        <extensions>
          <ns3:TrackPointExtension>
            <ns3:atemp>17.0</ns3:atemp>
          </ns3:TrackPointExtension>
        </extensions>
      </trkpt>
      <trkpt lat="43.13256469555199146270751953125" lon="13.1558856926858425140380859375">
        <ele>454</ele>
        <time>2021-05-25T08:02:40.000Z</time>
        <extensions>
          <ns3:TrackPointExtension>
            <ns3:atemp>17.0</ns3:atemp>
          </ns3:TrackPointExtension>
        </extensions>
      </trkpt>
      <trkpt lat="43.1325969658792018890380859375" lon="13.15593355335295200347900390625">
        <ele>453.79998779296875</ele>
        <time>2021-05-25T08:02:41.000Z</time>
        <extensions>
          <ns3:TrackPointExtension>
            <ns3:atemp>17.0</ns3:atemp>
          </ns3:TrackPointExtension>
        </extensions>
      </trkpt>
      <trkpt lat="43.13279586844146251678466796875" lon="13.156244941055774688720703125">
        <ele>453.79998779296875</ele>
        <time>2021-05-25T08:02:49.000Z</time>
        <extensions>
          <ns3:TrackPointExtension>
            <ns3:atemp>17.0</ns3:atemp>
          </ns3:TrackPointExtension>
        </extensions>
      </trkpt>
      <trkpt lat="43.1328732334077358245849609375" lon="13.156383745372295379638671875">
        <ele>453.79998779296875</ele>
        <time>2021-05-25T08:02:54.000Z</time>
        <extensions>
          <ns3:TrackPointExtension>
            <ns3:atemp>17.0</ns3:atemp>
          </ns3:TrackPointExtension>
        </extensions>
      </trkpt>
      <trkpt lat="43.13291489146649837493896484375" lon="13.1564308516681194305419921875">
        <ele>453.600006103515625</ele>
        <time>2021-05-25T08:02:56.000Z</time>
        <extensions>
          <ns3:TrackPointExtension>
            <ns3:atemp>17.0</ns3:atemp>
          </ns3:TrackPointExtension>
        </extensions>
      </trkpt>
      <trkpt lat="43.13304397277534008026123046875" lon="13.15654844976961612701416015625">
        <ele>453</ele>
        <time>2021-05-25T08:03:00.000Z</time>
        <extensions>
          <ns3:TrackPointExtension>
            <ns3:atemp>17.0</ns3:atemp>
          </ns3:TrackPointExtension>
        </extensions>
      </trkpt>
      <trkpt lat="43.1330767460167407989501953125" lon="13.15660796128213405609130859375">
        <ele>452.600006103515625</ele>
        <time>2021-05-25T08:03:01.000Z</time>
        <extensions>
          <ns3:TrackPointExtension>
            <ns3:atemp>17.0</ns3:atemp>
          </ns3:TrackPointExtension>
        </extensions>
      </trkpt>
      <trkpt lat="43.1331575475633144378662109375" lon="13.15675782971084117889404296875">
        <ele>451.79998779296875</ele>
        <time>2021-05-25T08:03:03.000Z</time>
        <extensions>
          <ns3:TrackPointExtension>
            <ns3:atemp>17.0</ns3:atemp>
          </ns3:TrackPointExtension>
        </extensions>
      </trkpt>
      <trkpt lat="43.13321010209619998931884765625" lon="13.15682454966008663177490234375">
        <ele>451.20001220703125</ele>
        <time>2021-05-25T08:03:04.000Z</time>
        <extensions>
          <ns3:TrackPointExtension>
            <ns3:atemp>17.0</ns3:atemp>
          </ns3:TrackPointExtension>
        </extensions>
      </trkpt>
      <trkpt lat="43.13325603492558002471923828125" lon="13.15686746500432491302490234375">
        <ele>450.20001220703125</ele>
        <time>2021-05-25T08:03:05.000Z</time>
        <extensions>
          <ns3:TrackPointExtension>
            <ns3:atemp>17.0</ns3:atemp>
          </ns3:TrackPointExtension>
        </extensions>
      </trkpt>
      <trkpt lat="43.13329861499369144439697265625" lon="13.1568963825702667236328125">
        <ele>448.600006103515625</ele>
        <time>2021-05-25T08:03:06.000Z</time>
        <extensions>
          <ns3:TrackPointExtension>
            <ns3:atemp>17.0</ns3:atemp>
          </ns3:TrackPointExtension>
        </extensions>
      </trkpt>
      <trkpt lat="43.13333247788250446319580078125" lon="13.1569260545074939727783203125">
        <ele>447</ele>
        <time>2021-05-25T08:03:07.000Z</time>
        <extensions>
          <ns3:TrackPointExtension>
            <ns3:atemp>17.0</ns3:atemp>
          </ns3:TrackPointExtension>
        </extensions>
      </trkpt>
      <trkpt lat="43.13336751423776149749755859375" lon="13.15696201287209987640380859375">
        <ele>445.600006103515625</ele>
        <time>2021-05-25T08:03:08.000Z</time>
        <extensions>
          <ns3:TrackPointExtension>
            <ns3:atemp>17.0</ns3:atemp>
          </ns3:TrackPointExtension>
        </extensions>
      </trkpt>
      <trkpt lat="43.13339450396597385406494140625" lon="13.15700375474989414215087890625">
        <ele>444.20001220703125</ele>
        <time>2021-05-25T08:03:09.000Z</time>
        <extensions>
          <ns3:TrackPointExtension>
            <ns3:atemp>17.0</ns3:atemp>
          </ns3:TrackPointExtension>
        </extensions>
      </trkpt>
      <trkpt lat="43.1334064900875091552734375" lon="13.15704667009413242340087890625">
        <ele>443</ele>
        <time>2021-05-25T08:03:10.000Z</time>
        <extensions>
          <ns3:TrackPointExtension>
            <ns3:atemp>17.0</ns3:atemp>
          </ns3:TrackPointExtension>
        </extensions>
      </trkpt>
      <trkpt lat="43.1334150396287441253662109375" lon="13.1571335904300212860107421875">
        <ele>441.79998779296875</ele>
        <time>2021-05-25T08:03:12.000Z</time>
        <extensions>
          <ns3:TrackPointExtension>
            <ns3:atemp>17.0</ns3:atemp>
          </ns3:TrackPointExtension>
        </extensions>
      </trkpt>
      <trkpt lat="43.133415542542934417724609375" lon="13.1571754999458789825439453125">
        <ele>441.20001220703125</ele>
        <time>2021-05-25T08:03:13.000Z</time>
        <extensions>
          <ns3:TrackPointExtension>
            <ns3:atemp>17.0</ns3:atemp>
          </ns3:TrackPointExtension>
        </extensions>
      </trkpt>
      <trkpt lat="43.13340808264911174774169921875" lon="13.1572593189775943756103515625">
        <ele>440.600006103515625</ele>
        <time>2021-05-25T08:03:15.000Z</time>
        <extensions>
          <ns3:TrackPointExtension>
            <ns3:atemp>17.0</ns3:atemp>
          </ns3:TrackPointExtension>
        </extensions>
      </trkpt>
      <trkpt lat="43.1334100104868412017822265625" lon="13.15745227038860321044921875">
        <ele>439.20001220703125</ele>
        <time>2021-05-25T08:03:19.000Z</time>
        <extensions>
          <ns3:TrackPointExtension>
            <ns3:atemp>17.0</ns3:atemp>
          </ns3:TrackPointExtension>
        </extensions>
      </trkpt>
      <trkpt lat="43.1334172189235687255859375" lon="13.15750096924602985382080078125">
        <ele>438.20001220703125</ele>
        <time>2021-05-25T08:03:20.000Z</time>
        <extensions>
          <ns3:TrackPointExtension>
            <ns3:atemp>17.0</ns3:atemp>
          </ns3:TrackPointExtension>
        </extensions>
      </trkpt>
      <trkpt lat="43.13342786394059658050537109375" lon="13.15754556097090244293212890625">
        <ele>437</ele>
        <time>2021-05-25T08:03:21.000Z</time>
        <extensions>
          <ns3:TrackPointExtension>
            <ns3:atemp>17.0</ns3:atemp>
          </ns3:TrackPointExtension>
        </extensions>
      </trkpt>
      <trkpt lat="43.13344244845211505889892578125" lon="13.1575905717909336090087890625">
        <ele>436.20001220703125</ele>
        <time>2021-05-25T08:03:22.000Z</time>
        <extensions>
          <ns3:TrackPointExtension>
            <ns3:atemp>17.0</ns3:atemp>
          </ns3:TrackPointExtension>
        </extensions>
      </trkpt>
      <trkpt lat="43.133458793163299560546875" lon="13.157638013362884521484375">
        <ele>435</ele>
        <time>2021-05-25T08:03:23.000Z</time>
        <extensions>
          <ns3:TrackPointExtension>
            <ns3:atemp>17.0</ns3:atemp>
          </ns3:TrackPointExtension>
        </extensions>
      </trkpt>
      <trkpt lat="43.13348419032990932464599609375" lon="13.1576921604573726654052734375">
        <ele>433.79998779296875</ele>
        <time>2021-05-25T08:03:24.000Z</time>
        <extensions>
          <ns3:TrackPointExtension>
            <ns3:atemp>17.0</ns3:atemp>
          </ns3:TrackPointExtension>
        </extensions>
      </trkpt>
      <trkpt lat="43.1335099227726459503173828125" lon="13.15775577910244464874267578125">
        <ele>432.600006103515625</ele>
        <time>2021-05-25T08:03:25.000Z</time>
        <extensions>
          <ns3:TrackPointExtension>
            <ns3:atemp>17.0</ns3:atemp>
          </ns3:TrackPointExtension>
        </extensions>
      </trkpt>
      <trkpt lat="43.133538924157619476318359375" lon="13.1578262709081172943115234375">
        <ele>431.399993896484375</ele>
        <time>2021-05-25T08:03:26.000Z</time>
        <extensions>
          <ns3:TrackPointExtension>
            <ns3:atemp>17.0</ns3:atemp>
          </ns3:TrackPointExtension>
        </extensions>
      </trkpt>
      <trkpt lat="43.13357957638800144195556640625" lon="13.157900534570217132568359375">
        <ele>430.20001220703125</ele>
        <time>2021-05-25T08:03:27.000Z</time>
        <extensions>
          <ns3:TrackPointExtension>
            <ns3:atemp>17.0</ns3:atemp>
          </ns3:TrackPointExtension>
        </extensions>
      </trkpt>
      <trkpt lat="43.13361863605678081512451171875" lon="13.1579731218516826629638671875">
        <ele>429</ele>
        <time>2021-05-25T08:03:28.000Z</time>
        <extensions>
          <ns3:TrackPointExtension>
            <ns3:atemp>17.0</ns3:atemp>
          </ns3:TrackPointExtension>
        </extensions>
      </trkpt>
      <trkpt lat="43.13365501351654529571533203125" lon="13.15803590230643749237060546875">
        <ele>427.79998779296875</ele>
        <time>2021-05-25T08:03:29.000Z</time>
        <extensions>
          <ns3:TrackPointExtension>
            <ns3:atemp>17.0</ns3:atemp>
          </ns3:TrackPointExtension>
        </extensions>
      </trkpt>
      <trkpt lat="43.13370329327881336212158203125" lon="13.15809541381895542144775390625">
        <ele>426.600006103515625</ele>
        <time>2021-05-25T08:03:30.000Z</time>
        <extensions>
          <ns3:TrackPointExtension>
            <ns3:atemp>17.0</ns3:atemp>
          </ns3:TrackPointExtension>
        </extensions>
      </trkpt>
      <trkpt lat="43.1337439455091953277587890625" lon="13.158144615590572357177734375">
        <ele>425</ele>
        <time>2021-05-25T08:03:31.000Z</time>
        <extensions>
          <ns3:TrackPointExtension>
            <ns3:atemp>17.0</ns3:atemp>
          </ns3:TrackPointExtension>
        </extensions>
      </trkpt>
      <trkpt lat="43.133791387081146240234375" lon="13.158186189830303192138671875">
        <ele>423.600006103515625</ele>
        <time>2021-05-25T08:03:32.000Z</time>
        <extensions>
          <ns3:TrackPointExtension>
            <ns3:atemp>17.0</ns3:atemp>
          </ns3:TrackPointExtension>
        </extensions>
      </trkpt>
      <trkpt lat="43.13383539207279682159423828125" lon="13.15822298638522624969482421875">
        <ele>422.79998779296875</ele>
        <time>2021-05-25T08:03:33.000Z</time>
        <extensions>
          <ns3:TrackPointExtension>
            <ns3:atemp>17.0</ns3:atemp>
          </ns3:TrackPointExtension>
        </extensions>
      </trkpt>
      <trkpt lat="43.13386372290551662445068359375" lon="13.15825383178889751434326171875">
        <ele>422.399993896484375</ele>
        <time>2021-05-25T08:03:34.000Z</time>
        <extensions>
          <ns3:TrackPointExtension>
            <ns3:atemp>17.0</ns3:atemp>
          </ns3:TrackPointExtension>
        </extensions>
      </trkpt>
      <trkpt lat="43.13401677645742893218994140625" lon="13.15835391171276569366455078125">
        <ele>422</ele>
        <time>2021-05-25T08:03:38.000Z</time>
        <extensions>
          <ns3:TrackPointExtension>
            <ns3:atemp>17.0</ns3:atemp>
          </ns3:TrackPointExtension>
        </extensions>
      </trkpt>
      <trkpt lat="43.13423185609281063079833984375" lon="13.15844091586768627166748046875">
        <ele>422</ele>
        <time>2021-05-25T08:03:43.000Z</time>
        <extensions>
          <ns3:TrackPointExtension>
            <ns3:atemp>17.0</ns3:atemp>
          </ns3:TrackPointExtension>
        </extensions>
      </trkpt>
      <trkpt lat="43.134276866912841796875" lon="13.15846136771142482757568359375">
        <ele>422.399993896484375</ele>
        <time>2021-05-25T08:03:44.000Z</time>
        <extensions>
          <ns3:TrackPointExtension>
            <ns3:atemp>17.0</ns3:atemp>
          </ns3:TrackPointExtension>
        </extensions>
      </trkpt>
      <trkpt lat="43.1343950517475605010986328125" lon="13.158567063510417938232421875">
        <ele>422.79998779296875</ele>
        <time>2021-05-25T08:03:47.000Z</time>
        <extensions>
          <ns3:TrackPointExtension>
            <ns3:atemp>17.0</ns3:atemp>
          </ns3:TrackPointExtension>
        </extensions>
      </trkpt>
      <trkpt lat="43.13442799262702465057373046875" lon="13.15871533937752246856689453125">
        <ele>423</ele>
        <time>2021-05-25T08:03:50.000Z</time>
        <extensions>
          <ns3:TrackPointExtension>
            <ns3:atemp>17.0</ns3:atemp>
          </ns3:TrackPointExtension>
        </extensions>
      </trkpt>
      <trkpt lat="43.13442237675189971923828125" lon="13.15880653448402881622314453125">
        <ele>423.20001220703125</ele>
        <time>2021-05-25T08:03:52.000Z</time>
        <extensions>
          <ns3:TrackPointExtension>
            <ns3:atemp>17.0</ns3:atemp>
          </ns3:TrackPointExtension>
        </extensions>
      </trkpt>
      <trkpt lat="43.134418018162250518798828125" lon="13.15889638848602771759033203125">
        <ele>423.399993896484375</ele>
        <time>2021-05-25T08:03:55.000Z</time>
        <extensions>
          <ns3:TrackPointExtension>
            <ns3:atemp>17.0</ns3:atemp>
          </ns3:TrackPointExtension>
        </extensions>
      </trkpt>
      <trkpt lat="43.1343752704560756683349609375" lon="13.1591026671230792999267578125">
        <ele>424.600006103515625</ele>
        <time>2021-05-25T08:04:01.000Z</time>
        <extensions>
          <ns3:TrackPointExtension>
            <ns3:atemp>17.0</ns3:atemp>
          </ns3:TrackPointExtension>
        </extensions>
      </trkpt>
      <trkpt lat="43.1343667209148406982421875" lon="13.159137032926082611083984375">
        <ele>425.20001220703125</ele>
        <time>2021-05-25T08:04:02.000Z</time>
        <extensions>
          <ns3:TrackPointExtension>
            <ns3:atemp>17.0</ns3:atemp>
          </ns3:TrackPointExtension>
        </extensions>
      </trkpt>
      <trkpt lat="43.13434400595724582672119140625" lon="13.15921439789235591888427734375">
        <ele>426</ele>
        <time>2021-05-25T08:04:04.000Z</time>
        <extensions>
          <ns3:TrackPointExtension>
            <ns3:atemp>17.0</ns3:atemp>
          </ns3:TrackPointExtension>
        </extensions>
      </trkpt>
      <trkpt lat="43.13430980779230594635009765625" lon="13.15932713449001312255859375">
        <ele>427.399993896484375</ele>
        <time>2021-05-25T08:04:07.000Z</time>
        <extensions>
          <ns3:TrackPointExtension>
            <ns3:atemp>17.0</ns3:atemp>
          </ns3:TrackPointExtension>
        </extensions>
      </trkpt>
      <trkpt lat="43.1342713348567485809326171875" lon="13.15945588052272796630859375">
        <ele>428.79998779296875</ele>
        <time>2021-05-25T08:04:10.000Z</time>
        <extensions>
          <ns3:TrackPointExtension>
            <ns3:atemp>17.0</ns3:atemp>
          </ns3:TrackPointExtension>
        </extensions>
      </trkpt>
      <trkpt lat="43.13425700180232524871826171875" lon="13.1595552898943424224853515625">
        <ele>429.600006103515625</ele>
        <time>2021-05-25T08:04:12.000Z</time>
        <extensions>
          <ns3:TrackPointExtension>
            <ns3:atemp>17.0</ns3:atemp>
          </ns3:TrackPointExtension>
        </extensions>
      </trkpt>
      <trkpt lat="43.134275861084461212158203125" lon="13.15982443280518054962158203125">
        <ele>429.79998779296875</ele>
        <time>2021-05-25T08:04:17.000Z</time>
        <extensions>
          <ns3:TrackPointExtension>
            <ns3:atemp>17.0</ns3:atemp>
          </ns3:TrackPointExtension>
        </extensions>
      </trkpt>
      <trkpt lat="43.13425767235457897186279296875" lon="13.160033561289310455322265625">
        <ele>429.399993896484375</ele>
        <time>2021-05-25T08:04:22.000Z</time>
        <extensions>
          <ns3:TrackPointExtension>
            <ns3:atemp>17.0</ns3:atemp>
          </ns3:TrackPointExtension>
        </extensions>
      </trkpt>
      <trkpt lat="43.13426001928746700286865234375" lon="13.1600997783243656158447265625">
        <ele>429.20001220703125</ele>
        <time>2021-05-25T08:04:26.000Z</time>
        <extensions>
          <ns3:TrackPointExtension>
            <ns3:atemp>17.0</ns3:atemp>
          </ns3:TrackPointExtension>
        </extensions>
      </trkpt>
      <trkpt lat="43.134281225502490997314453125" lon="13.16013221628963947296142578125">
        <ele>429.79998779296875</ele>
        <time>2021-05-25T08:04:39.000Z</time>
        <extensions>
          <ns3:TrackPointExtension>
            <ns3:atemp>17.0</ns3:atemp>
          </ns3:TrackPointExtension>
        </extensions>
      </trkpt>
      <trkpt lat="43.13427946530282497406005859375" lon="13.1601457111537456512451171875">
        <ele>429.79998779296875</ele>
        <time>2021-05-25T08:04:40.000Z</time>
        <extensions>
          <ns3:TrackPointExtension>
            <ns3:atemp>17.0</ns3:atemp>
          </ns3:TrackPointExtension>
        </extensions>
      </trkpt>
      <trkpt lat="43.13424945808947086334228515625" lon="13.160295747220516204833984375">
        <ele>429.79998779296875</ele>
        <time>2021-05-25T08:04:45.000Z</time>
        <extensions>
          <ns3:TrackPointExtension>
            <ns3:atemp>17.0</ns3:atemp>
          </ns3:TrackPointExtension>
        </extensions>
      </trkpt>
      <trkpt lat="43.13423101790249347686767578125" lon="13.1604970805346965789794921875">
        <ele>429.79998779296875</ele>
        <time>2021-05-25T08:04:51.000Z</time>
        <extensions>
          <ns3:TrackPointExtension>
            <ns3:atemp>17.0</ns3:atemp>
          </ns3:TrackPointExtension>
        </extensions>
      </trkpt>
      <trkpt lat="43.13424627296626567840576171875" lon="13.16064988262951374053955078125">
        <ele>429.79998779296875</ele>
        <time>2021-05-25T08:04:55.000Z</time>
        <extensions>
          <ns3:TrackPointExtension>
            <ns3:atemp>17.0</ns3:atemp>
          </ns3:TrackPointExtension>
        </extensions>
      </trkpt>
      <trkpt lat="43.13425348140299320220947265625" lon="13.16068860702216625213623046875">
        <ele>429.79998779296875</ele>
        <time>2021-05-25T08:04:56.000Z</time>
        <extensions>
          <ns3:TrackPointExtension>
            <ns3:atemp>17.0</ns3:atemp>
          </ns3:TrackPointExtension>
        </extensions>
      </trkpt>
      <trkpt lat="43.13433009199798107147216796875" lon="13.16090167500078678131103515625">
        <ele>430.399993896484375</ele>
        <time>2021-05-25T08:05:01.000Z</time>
        <extensions>
          <ns3:TrackPointExtension>
            <ns3:atemp>17.0</ns3:atemp>
          </ns3:TrackPointExtension>
        </extensions>
      </trkpt>
      <trkpt lat="43.1344315968453884124755859375" lon="13.16111105494201183319091796875">
        <ele>430.600006103515625</ele>
        <time>2021-05-25T08:05:05.000Z</time>
        <extensions>
          <ns3:TrackPointExtension>
            <ns3:atemp>17.0</ns3:atemp>
          </ns3:TrackPointExtension>
        </extensions>
      </trkpt>
      <trkpt lat="43.13444090075790882110595703125" lon="13.161275424063205718994140625">
        <ele>430</ele>
        <time>2021-05-25T08:05:09.000Z</time>
        <extensions>
          <ns3:TrackPointExtension>
            <ns3:atemp>17.0</ns3:atemp>
          </ns3:TrackPointExtension>
        </extensions>
      </trkpt>
      <trkpt lat="43.1344419904053211212158203125" lon="13.16132412292063236236572265625">
        <ele>428.20001220703125</ele>
        <time>2021-05-25T08:05:12.000Z</time>
        <extensions>
          <ns3:TrackPointExtension>
            <ns3:atemp>17.0</ns3:atemp>
          </ns3:TrackPointExtension>
        </extensions>
      </trkpt>
      <trkpt lat="43.13444240950047969818115234375" lon="13.16134071908891201019287109375">
        <ele>427.399993896484375</ele>
        <time>2021-05-25T08:05:14.000Z</time>
        <extensions>
          <ns3:TrackPointExtension>
            <ns3:atemp>17.0</ns3:atemp>
          </ns3:TrackPointExtension>
        </extensions>
      </trkpt>
      <trkpt lat="43.134458921849727630615234375" lon="13.1613604165613651275634765625">
        <ele>427.20001220703125</ele>
        <time>2021-05-25T08:05:17.000Z</time>
        <extensions>
          <ns3:TrackPointExtension>
            <ns3:atemp>17.0</ns3:atemp>
          </ns3:TrackPointExtension>
        </extensions>
      </trkpt>
      <trkpt lat="43.1345040164887905120849609375" lon="13.16138111986219882965087890625">
        <ele>427</ele>
        <time>2021-05-25T08:05:23.000Z</time>
        <extensions>
          <ns3:TrackPointExtension>
            <ns3:atemp>17.0</ns3:atemp>
          </ns3:TrackPointExtension>
        </extensions>
      </trkpt>
      <trkpt lat="43.1345180980861186981201171875" lon="13.16139704547822475433349609375">
        <ele>426.79998779296875</ele>
        <time>2021-05-25T08:05:37.000Z</time>
        <extensions>
          <ns3:TrackPointExtension>
            <ns3:atemp>17.0</ns3:atemp>
          </ns3:TrackPointExtension>
        </extensions>
      </trkpt>
      <trkpt lat="43.1345236301422119140625" lon="13.16140224225819110870361328125">
        <ele>426.79998779296875</ele>
        <time>2021-05-25T08:05:45.000Z</time>
        <extensions>
          <ns3:TrackPointExtension>
            <ns3:atemp>17.0</ns3:atemp>
          </ns3:TrackPointExtension>
        </extensions>
      </trkpt>
      <trkpt lat="43.1345115602016448974609375" lon="13.16140727140009403228759765625">
        <ele>427</ele>
        <time>2021-05-25T08:05:57.000Z</time>
        <extensions>
          <ns3:TrackPointExtension>
            <ns3:atemp>16.0</ns3:atemp>
          </ns3:TrackPointExtension>
        </extensions>
      </trkpt>
      <trkpt lat="43.13451784662902355194091796875" lon="13.16141062416136264801025390625">
        <ele>427</ele>
        <time>2021-05-25T08:06:11.000Z</time>
        <extensions>
          <ns3:TrackPointExtension>
            <ns3:atemp>16.0</ns3:atemp>
          </ns3:TrackPointExtension>
        </extensions>
      </trkpt>
      <trkpt lat="43.1345194391906261444091796875" lon="13.16142470575869083404541015625">
        <ele>426.79998779296875</ele>
        <time>2021-05-25T08:06:23.000Z</time>
        <extensions>
          <ns3:TrackPointExtension>
            <ns3:atemp>16.0</ns3:atemp>
          </ns3:TrackPointExtension>
        </extensions>
      </trkpt>
      <trkpt lat="43.13452337868511676788330078125" lon="13.161425627768039703369140625">
        <ele>426.79998779296875</ele>
        <time>2021-05-25T08:06:46.000Z</time>
        <extensions>
          <ns3:TrackPointExtension>
            <ns3:atemp>16.0</ns3:atemp>
          </ns3:TrackPointExtension>
        </extensions>
      </trkpt>
      <trkpt lat="43.1345258094370365142822265625" lon="13.1614241190254688262939453125">
        <ele>426.399993896484375</ele>
        <time>2021-05-25T08:07:17.000Z</time>
        <extensions>
          <ns3:TrackPointExtension>
            <ns3:atemp>16.0</ns3:atemp>
          </ns3:TrackPointExtension>
        </extensions>
      </trkpt>
      <trkpt lat="43.1345298327505588531494140625" lon="13.16142034716904163360595703125">
        <ele>426.399993896484375</ele>
        <time>2021-05-25T08:07:29.000Z</time>
        <extensions>
          <ns3:TrackPointExtension>
            <ns3:atemp>16.0</ns3:atemp>
          </ns3:TrackPointExtension>
        </extensions>
      </trkpt>
      <trkpt lat="43.1345315091311931610107421875" lon="13.161418251693248748779296875">
        <ele>426.600006103515625</ele>
        <time>2021-05-25T08:07:47.000Z</time>
        <extensions>
          <ns3:TrackPointExtension>
            <ns3:atemp>16.0</ns3:atemp>
          </ns3:TrackPointExtension>
        </extensions>
      </trkpt>
      <trkpt lat="43.13453092239797115325927734375" lon="13.16141925752162933349609375">
        <ele>427.399993896484375</ele>
        <time>2021-05-25T08:08:39.000Z</time>
        <extensions>
          <ns3:TrackPointExtension>
            <ns3:atemp>16.0</ns3:atemp>
          </ns3:TrackPointExtension>
        </extensions>
      </trkpt>
      <trkpt lat="43.13453100621700286865234375" lon="13.16141934134066104888916015625">
        <ele>427.20001220703125</ele>
        <time>2021-05-25T08:08:40.000Z</time>
        <extensions>
          <ns3:TrackPointExtension>
            <ns3:atemp>16.0</ns3:atemp>
          </ns3:TrackPointExtension>
        </extensions>
      </trkpt>
      <trkpt lat="43.13454282470047473907470703125" lon="13.16141313873231410980224609375">
        <ele>427.399993896484375</ele>
        <time>2021-05-25T08:09:41.000Z</time>
        <extensions>
          <ns3:TrackPointExtension>
            <ns3:atemp>16.0</ns3:atemp>
          </ns3:TrackPointExtension>
        </extensions>
      </trkpt>
      <trkpt lat="43.13454366289079189300537109375" lon="13.16141121089458465576171875">
        <ele>427</ele>
        <time>2021-05-25T08:10:35.000Z</time>
        <extensions>
          <ns3:TrackPointExtension>
            <ns3:atemp>16.0</ns3:atemp>
          </ns3:TrackPointExtension>
        </extensions>
      </trkpt>
      <trkpt lat="43.134532012045383453369140625" lon="13.16140240989625453948974609375">
        <ele>427.399993896484375</ele>
        <time>2021-05-25T08:11:24.000Z</time>
        <extensions>
          <ns3:TrackPointExtension>
            <ns3:atemp>16.0</ns3:atemp>
          </ns3:TrackPointExtension>
        </extensions>
      </trkpt>
      <trkpt lat="43.1345330178737640380859375" lon="13.1614284776151180267333984375">
        <ele>427</ele>
        <time>2021-05-25T08:11:56.000Z</time>
        <extensions>
          <ns3:TrackPointExtension>
            <ns3:atemp>16.0</ns3:atemp>
          </ns3:TrackPointExtension>
        </extensions>
      </trkpt>
      <trkpt lat="43.13454550690948963165283203125" lon="13.1614921800792217254638671875">
        <ele>427</ele>
        <time>2021-05-25T08:11:58.000Z</time>
        <extensions>
          <ns3:TrackPointExtension>
            <ns3:atemp>16.0</ns3:atemp>
          </ns3:TrackPointExtension>
        </extensions>
      </trkpt>
      <trkpt lat="43.134564198553562164306640625" lon="13.16156837157905101776123046875">
        <ele>427</ele>
        <time>2021-05-25T08:12:00.000Z</time>
        <extensions>
          <ns3:TrackPointExtension>
            <ns3:atemp>16.0</ns3:atemp>
          </ns3:TrackPointExtension>
        </extensions>
      </trkpt>
      <trkpt lat="43.1346156634390354156494140625" lon="13.16183189861476421356201171875">
        <ele>426</ele>
        <time>2021-05-25T08:12:06.000Z</time>
        <extensions>
          <ns3:TrackPointExtension>
            <ns3:atemp>16.0</ns3:atemp>
          </ns3:TrackPointExtension>
        </extensions>
      </trkpt>
      <trkpt lat="43.13468581996858119964599609375" lon="13.16207279451191425323486328125">
        <ele>426</ele>
        <time>2021-05-25T08:12:13.000Z</time>
        <extensions>
          <ns3:TrackPointExtension>
            <ns3:atemp>16.0</ns3:atemp>
          </ns3:TrackPointExtension>
        </extensions>
      </trkpt>
      <trkpt lat="43.13483300618827342987060546875" lon="13.1622264347970485687255859375">
        <ele>427.399993896484375</ele>
        <time>2021-05-25T08:12:18.000Z</time>
        <extensions>
          <ns3:TrackPointExtension>
            <ns3:atemp>16.0</ns3:atemp>
          </ns3:TrackPointExtension>
        </extensions>
      </trkpt>
      <trkpt lat="43.13487726263701915740966796875" lon="13.16225434653460979461669921875">
        <ele>427.600006103515625</ele>
        <time>2021-05-25T08:12:19.000Z</time>
        <extensions>
          <ns3:TrackPointExtension>
            <ns3:atemp>16.0</ns3:atemp>
          </ns3:TrackPointExtension>
        </extensions>
      </trkpt>
      <trkpt lat="43.13495102338492870330810546875" lon="13.16232190467417240142822265625">
        <ele>428</ele>
        <time>2021-05-25T08:12:21.000Z</time>
        <extensions>
          <ns3:TrackPointExtension>
            <ns3:atemp>16.0</ns3:atemp>
          </ns3:TrackPointExtension>
        </extensions>
      </trkpt>
      <trkpt lat="43.134967871010303497314453125" lon="13.16237739287316799163818359375">
        <ele>428</ele>
        <time>2021-05-25T08:12:22.000Z</time>
        <extensions>
          <ns3:TrackPointExtension>
            <ns3:atemp>16.0</ns3:atemp>
          </ns3:TrackPointExtension>
        </extensions>
      </trkpt>
      <trkpt lat="43.1350501812994480133056640625" lon="13.16264091990888118743896484375">
        <ele>428</ele>
        <time>2021-05-25T08:12:26.000Z</time>
        <extensions>
          <ns3:TrackPointExtension>
            <ns3:atemp>16.0</ns3:atemp>
          </ns3:TrackPointExtension>
        </extensions>
      </trkpt>
      <trkpt lat="43.13522142358124256134033203125" lon="13.16286186687648296356201171875">
        <ele>428</ele>
        <time>2021-05-25T08:12:30.000Z</time>
        <extensions>
          <ns3:TrackPointExtension>
            <ns3:atemp>16.0</ns3:atemp>
          </ns3:TrackPointExtension>
        </extensions>
      </trkpt>
      <trkpt lat="43.13528981991112232208251953125" lon="13.16309270448982715606689453125">
        <ele>427.600006103515625</ele>
        <time>2021-05-25T08:12:33.000Z</time>
        <extensions>
          <ns3:TrackPointExtension>
            <ns3:atemp>16.0</ns3:atemp>
          </ns3:TrackPointExtension>
        </extensions>
      </trkpt>
      <trkpt lat="43.13534614630043506622314453125" lon="13.1633241288363933563232421875">
        <ele>426.20001220703125</ele>
        <time>2021-05-25T08:12:36.000Z</time>
        <extensions>
          <ns3:TrackPointExtension>
            <ns3:atemp>16.0</ns3:atemp>
          </ns3:TrackPointExtension>
        </extensions>
      </trkpt>
      <trkpt lat="43.135420493781566619873046875" lon="13.1634367816150188446044921875">
        <ele>425.600006103515625</ele>
        <time>2021-05-25T08:12:38.000Z</time>
        <extensions>
          <ns3:TrackPointExtension>
            <ns3:atemp>16.0</ns3:atemp>
          </ns3:TrackPointExtension>
        </extensions>
      </trkpt>
      <trkpt lat="43.135474808514118194580078125" lon="13.163482211530208587646484375">
        <ele>425.20001220703125</ele>
        <time>2021-05-25T08:12:39.000Z</time>
        <extensions>
          <ns3:TrackPointExtension>
            <ns3:atemp>16.0</ns3:atemp>
          </ns3:TrackPointExtension>
        </extensions>
      </trkpt>
      <trkpt lat="43.13552074134349822998046875" lon="13.16353292204439640045166015625">
        <ele>425</ele>
        <time>2021-05-25T08:12:40.000Z</time>
        <extensions>
          <ns3:TrackPointExtension>
            <ns3:atemp>16.0</ns3:atemp>
          </ns3:TrackPointExtension>
        </extensions>
      </trkpt>
      <trkpt lat="43.13562191091477870941162109375" lon="13.16372671164572238922119140625">
        <ele>424.20001220703125</ele>
        <time>2021-05-25T08:12:43.000Z</time>
        <extensions>
          <ns3:TrackPointExtension>
            <ns3:atemp>16.0</ns3:atemp>
          </ns3:TrackPointExtension>
        </extensions>
      </trkpt>
      <trkpt lat="43.13565460033714771270751953125" lon="13.16380080766975879669189453125">
        <ele>424.20001220703125</ele>
        <time>2021-05-25T08:12:44.000Z</time>
        <extensions>
          <ns3:TrackPointExtension>
            <ns3:atemp>16.0</ns3:atemp>
          </ns3:TrackPointExtension>
        </extensions>
      </trkpt>
      <trkpt lat="43.13572316430509090423583984375" lon="13.16406148485839366912841796875">
        <ele>423.79998779296875</ele>
        <time>2021-05-25T08:12:47.000Z</time>
        <extensions>
          <ns3:TrackPointExtension>
            <ns3:atemp>16.0</ns3:atemp>
          </ns3:TrackPointExtension>
        </extensions>
      </trkpt>
      <trkpt lat="43.1357200630009174346923828125" lon="13.16415737383067607879638671875">
        <ele>423.79998779296875</ele>
        <time>2021-05-25T08:12:48.000Z</time>
        <extensions>
          <ns3:TrackPointExtension>
            <ns3:atemp>16.0</ns3:atemp>
          </ns3:TrackPointExtension>
        </extensions>
      </trkpt>
      <trkpt lat="43.13566247932612895965576171875" lon="13.16457462497055530548095703125">
        <ele>423.20001220703125</ele>
        <time>2021-05-25T08:12:53.000Z</time>
        <extensions>
          <ns3:TrackPointExtension>
            <ns3:atemp>16.0</ns3:atemp>
          </ns3:TrackPointExtension>
        </extensions>
      </trkpt>
      <trkpt lat="43.13564588315784931182861328125" lon="13.1646511517465114593505859375">
        <ele>423</ele>
        <time>2021-05-25T08:12:54.000Z</time>
        <extensions>
          <ns3:TrackPointExtension>
            <ns3:atemp>16.0</ns3:atemp>
          </ns3:TrackPointExtension>
        </extensions>
      </trkpt>
      <trkpt lat="43.135612271726131439208984375" lon="13.16482029855251312255859375">
        <ele>422</ele>
        <time>2021-05-25T08:12:56.000Z</time>
        <extensions>
          <ns3:TrackPointExtension>
            <ns3:atemp>16.0</ns3:atemp>
          </ns3:TrackPointExtension>
        </extensions>
      </trkpt>
      <trkpt lat="43.13559793867170810699462890625" lon="13.164923228323459625244140625">
        <ele>421.79998779296875</ele>
        <time>2021-05-25T08:12:57.000Z</time>
        <extensions>
          <ns3:TrackPointExtension>
            <ns3:atemp>16.0</ns3:atemp>
          </ns3:TrackPointExtension>
        </extensions>
      </trkpt>
      <trkpt lat="43.13558855094015598297119140625" lon="13.16503613255918025970458984375">
        <ele>421.600006103515625</ele>
        <time>2021-05-25T08:12:58.000Z</time>
        <extensions>
          <ns3:TrackPointExtension>
            <ns3:atemp>16.0</ns3:atemp>
          </ns3:TrackPointExtension>
        </extensions>
      </trkpt>
      <trkpt lat="43.13560229726135730743408203125" lon="13.16528641618788242340087890625">
        <ele>420.79998779296875</ele>
        <time>2021-05-25T08:13:00.000Z</time>
        <extensions>
          <ns3:TrackPointExtension>
            <ns3:atemp>16.0</ns3:atemp>
          </ns3:TrackPointExtension>
        </extensions>
      </trkpt>
      <trkpt lat="43.135605566203594207763671875" lon="13.16541214473545551300048828125">
        <ele>420.399993896484375</ele>
        <time>2021-05-25T08:13:01.000Z</time>
        <extensions>
          <ns3:TrackPointExtension>
            <ns3:atemp>16.0</ns3:atemp>
          </ns3:TrackPointExtension>
        </extensions>
      </trkpt>
      <trkpt lat="43.135606236755847930908203125" lon="13.16552999429404735565185546875">
        <ele>419.600006103515625</ele>
        <time>2021-05-25T08:13:02.000Z</time>
        <extensions>
          <ns3:TrackPointExtension>
            <ns3:atemp>16.0</ns3:atemp>
          </ns3:TrackPointExtension>
        </extensions>
      </trkpt>
      <trkpt lat="43.135607577860355377197265625" lon="13.165636025369167327880859375">
        <ele>418.600006103515625</ele>
        <time>2021-05-25T08:13:03.000Z</time>
        <extensions>
          <ns3:TrackPointExtension>
            <ns3:atemp>16.0</ns3:atemp>
          </ns3:TrackPointExtension>
        </extensions>
      </trkpt>
      <trkpt lat="43.13561218790709972381591796875" lon="13.165732584893703460693359375">
        <ele>417.399993896484375</ele>
        <time>2021-05-25T08:13:04.000Z</time>
        <extensions>
          <ns3:TrackPointExtension>
            <ns3:atemp>16.0</ns3:atemp>
          </ns3:TrackPointExtension>
        </extensions>
      </trkpt>
      <trkpt lat="43.13561973161995410919189453125" lon="13.1658112071454524993896484375">
        <ele>416</ele>
        <time>2021-05-25T08:13:05.000Z</time>
        <extensions>
          <ns3:TrackPointExtension>
            <ns3:atemp>16.0</ns3:atemp>
          </ns3:TrackPointExtension>
        </extensions>
      </trkpt>
      <trkpt lat="43.13563180156052112579345703125" lon="13.16591874696314334869384765625">
        <ele>414.600006103515625</ele>
        <time>2021-05-25T08:13:07.000Z</time>
        <extensions>
          <ns3:TrackPointExtension>
            <ns3:atemp>16.0</ns3:atemp>
          </ns3:TrackPointExtension>
        </extensions>
      </trkpt>
      <trkpt lat="43.13563465140759944915771484375" lon="13.165948502719402313232421875">
        <ele>414.600006103515625</ele>
        <time>2021-05-25T08:13:08.000Z</time>
        <extensions>
          <ns3:TrackPointExtension>
            <ns3:atemp>16.0</ns3:atemp>
          </ns3:TrackPointExtension>
        </extensions>
      </trkpt>
      <trkpt lat="43.13566197641193866729736328125" lon="13.16598043777048587799072265625">
        <ele>414.399993896484375</ele>
        <time>2021-05-25T08:13:12.000Z</time>
        <extensions>
          <ns3:TrackPointExtension>
            <ns3:atemp>16.0</ns3:atemp>
          </ns3:TrackPointExtension>
        </extensions>
      </trkpt>
      <trkpt lat="43.13568033277988433837890625" lon="13.16597859375178813934326171875">
        <ele>416</ele>
        <time>2021-05-25T08:13:16.000Z</time>
        <extensions>
          <ns3:TrackPointExtension>
            <ns3:atemp>16.0</ns3:atemp>
          </ns3:TrackPointExtension>
        </extensions>
      </trkpt>
      <trkpt lat="43.13568309880793094635009765625" lon="13.1659811921417713165283203125">
        <ele>417</ele>
        <time>2021-05-25T08:13:21.000Z</time>
        <extensions>
          <ns3:TrackPointExtension>
            <ns3:atemp>16.0</ns3:atemp>
          </ns3:TrackPointExtension>
        </extensions>
      </trkpt>
      <trkpt lat="43.1356835179030895233154296875" lon="13.16598127596080303192138671875">
        <ele>417.20001220703125</ele>
        <time>2021-05-25T08:13:25.000Z</time>
        <extensions>
          <ns3:TrackPointExtension>
            <ns3:atemp>16.0</ns3:atemp>
          </ns3:TrackPointExtension>
        </extensions>
      </trkpt>
      <trkpt lat="43.1356865353882312774658203125" lon="13.165984041988849639892578125">
        <ele>417.600006103515625</ele>
        <time>2021-05-25T08:13:36.000Z</time>
        <extensions>
          <ns3:TrackPointExtension>
            <ns3:atemp>16.0</ns3:atemp>
          </ns3:TrackPointExtension>
        </extensions>
      </trkpt>
      <trkpt lat="43.13569634221494197845458984375" lon="13.1660844571888446807861328125">
        <ele>417.79998779296875</ele>
        <time>2021-05-25T08:13:42.000Z</time>
        <extensions>
          <ns3:TrackPointExtension>
            <ns3:atemp>16.0</ns3:atemp>
          </ns3:TrackPointExtension>
        </extensions>
      </trkpt>
      <trkpt lat="43.13571159727871417999267578125" lon="13.16630213521420955657958984375">
        <ele>417.79998779296875</ele>
        <time>2021-05-25T08:13:46.000Z</time>
        <extensions>
          <ns3:TrackPointExtension>
            <ns3:atemp>16.0</ns3:atemp>
          </ns3:TrackPointExtension>
        </extensions>
      </trkpt>
      <trkpt lat="43.13567924313247203826904296875" lon="13.16661737859249114990234375">
        <ele>417.20001220703125</ele>
        <time>2021-05-25T08:13:52.000Z</time>
        <extensions>
          <ns3:TrackPointExtension>
            <ns3:atemp>16.0</ns3:atemp>
          </ns3:TrackPointExtension>
        </extensions>
      </trkpt>
      <trkpt lat="43.13566281460225582122802734375" lon="13.1669558398425579071044921875">
        <ele>417.20001220703125</ele>
        <time>2021-05-25T08:14:00.000Z</time>
        <extensions>
          <ns3:TrackPointExtension>
            <ns3:atemp>16.0</ns3:atemp>
          </ns3:TrackPointExtension>
        </extensions>
      </trkpt>
      <trkpt lat="43.135685361921787261962890625" lon="13.16726873628795146942138671875">
        <ele>418</ele>
        <time>2021-05-25T08:14:08.000Z</time>
        <extensions>
          <ns3:TrackPointExtension>
            <ns3:atemp>16.0</ns3:atemp>
          </ns3:TrackPointExtension>
        </extensions>
      </trkpt>
      <trkpt lat="43.13571243546903133392333984375" lon="13.16753326915204524993896484375">
        <ele>418.20001220703125</ele>
        <time>2021-05-25T08:14:12.000Z</time>
        <extensions>
          <ns3:TrackPointExtension>
            <ns3:atemp>16.0</ns3:atemp>
          </ns3:TrackPointExtension>
        </extensions>
      </trkpt>
      <trkpt lat="43.1357096694409847259521484375" lon="13.16762027330696582794189453125">
        <ele>418.20001220703125</ele>
        <time>2021-05-25T08:14:13.000Z</time>
        <extensions>
          <ns3:TrackPointExtension>
            <ns3:atemp>16.0</ns3:atemp>
          </ns3:TrackPointExtension>
        </extensions>
      </trkpt>
      <trkpt lat="43.13568712212145328521728515625" lon="13.16797466017305850982666015625">
        <ele>418.20001220703125</ele>
        <time>2021-05-25T08:14:17.000Z</time>
        <extensions>
          <ns3:TrackPointExtension>
            <ns3:atemp>16.0</ns3:atemp>
          </ns3:TrackPointExtension>
        </extensions>
      </trkpt>
      <trkpt lat="43.13567253760993480682373046875" lon="13.1682329066097736358642578125">
        <ele>416.20001220703125</ele>
        <time>2021-05-25T08:14:20.000Z</time>
        <extensions>
          <ns3:TrackPointExtension>
            <ns3:atemp>16.0</ns3:atemp>
          </ns3:TrackPointExtension>
        </extensions>
      </trkpt>
      <trkpt lat="43.13567236997187137603759765625" lon="13.16829836927354335784912109375">
        <ele>415.20001220703125</ele>
        <time>2021-05-25T08:14:21.000Z</time>
        <extensions>
          <ns3:TrackPointExtension>
            <ns3:atemp>16.0</ns3:atemp>
          </ns3:TrackPointExtension>
        </extensions>
      </trkpt>
      <trkpt lat="43.1356895528733730316162109375" lon="13.16837422549724578857421875">
        <ele>413.600006103515625</ele>
        <time>2021-05-25T08:14:23.000Z</time>
        <extensions>
          <ns3:TrackPointExtension>
            <ns3:atemp>16.0</ns3:atemp>
          </ns3:TrackPointExtension>
        </extensions>
      </trkpt>
      <trkpt lat="43.1356939114630222320556640625" lon="13.16839895211160182952880859375">
        <ele>413.20001220703125</ele>
        <time>2021-05-25T08:14:24.000Z</time>
        <extensions>
          <ns3:TrackPointExtension>
            <ns3:atemp>16.0</ns3:atemp>
          </ns3:TrackPointExtension>
        </extensions>
      </trkpt>
      <trkpt lat="43.135727606713771820068359375" lon="13.1684528477489948272705078125">
        <ele>412.79998779296875</ele>
        <time>2021-05-25T08:14:30.000Z</time>
        <extensions>
          <ns3:TrackPointExtension>
            <ns3:atemp>16.0</ns3:atemp>
          </ns3:TrackPointExtension>
        </extensions>
      </trkpt>
      <trkpt lat="43.13573104329407215118408203125" lon="13.1684585474431514739990234375">
        <ele>413</ele>
        <time>2021-05-25T08:14:40.000Z</time>
        <extensions>
          <ns3:TrackPointExtension>
            <ns3:atemp>16.0</ns3:atemp>
          </ns3:TrackPointExtension>
        </extensions>
      </trkpt>
      <trkpt lat="43.13573171384632587432861328125" lon="13.1684615649282932281494140625">
        <ele>413.399993896484375</ele>
        <time>2021-05-25T08:14:54.000Z</time>
        <extensions>
          <ns3:TrackPointExtension>
            <ns3:atemp>16.0</ns3:atemp>
          </ns3:TrackPointExtension>
        </extensions>
      </trkpt>
      <trkpt lat="43.13573221676051616668701171875" lon="13.16846516914665699005126953125">
        <ele>413</ele>
        <time>2021-05-25T08:15:29.000Z</time>
        <extensions>
          <ns3:TrackPointExtension>
            <ns3:atemp>16.0</ns3:atemp>
          </ns3:TrackPointExtension>
        </extensions>
      </trkpt>
      <trkpt lat="43.1357317976653575897216796875" lon="13.1684699468314647674560546875">
        <ele>412.79998779296875</ele>
        <time>2021-05-25T08:16:16.000Z</time>
        <extensions>
          <ns3:TrackPointExtension>
            <ns3:atemp>17.0</ns3:atemp>
          </ns3:TrackPointExtension>
        </extensions>
      </trkpt>
      <trkpt lat="43.1357319653034210205078125" lon="13.1684702821075916290283203125">
        <ele>412.600006103515625</ele>
        <time>2021-05-25T08:16:27.000Z</time>
        <extensions>
          <ns3:TrackPointExtension>
            <ns3:atemp>17.0</ns3:atemp>
          </ns3:TrackPointExtension>
        </extensions>
      </trkpt>
      <trkpt lat="43.13572970218956470489501953125" lon="13.16847145557403564453125">
        <ele>412.600006103515625</ele>
        <time>2021-05-25T08:16:37.000Z</time>
        <extensions>
          <ns3:TrackPointExtension>
            <ns3:atemp>17.0</ns3:atemp>
          </ns3:TrackPointExtension>
        </extensions>
      </trkpt>
      <trkpt lat="43.135726265609264373779296875" lon="13.1684743054211139678955078125">
        <ele>412.79998779296875</ele>
        <time>2021-05-25T08:16:41.000Z</time>
        <extensions>
          <ns3:TrackPointExtension>
            <ns3:atemp>17.0</ns3:atemp>
          </ns3:TrackPointExtension>
        </extensions>
      </trkpt>
      <trkpt lat="43.13571629114449024200439453125" lon="13.16847975365817546844482421875">
        <ele>412.79998779296875</ele>
        <time>2021-05-25T08:16:49.000Z</time>
        <extensions>
          <ns3:TrackPointExtension>
            <ns3:atemp>17.0</ns3:atemp>
          </ns3:TrackPointExtension>
        </extensions>
      </trkpt>
      <trkpt lat="43.1357143633067607879638671875" lon="13.16848394460976123809814453125">
        <ele>412.79998779296875</ele>
        <time>2021-05-25T08:16:59.000Z</time>
        <extensions>
          <ns3:TrackPointExtension>
            <ns3:atemp>17.0</ns3:atemp>
          </ns3:TrackPointExtension>
        </extensions>
      </trkpt>
      <trkpt lat="43.1356929056346416473388671875" lon="13.168546222150325775146484375">
        <ele>412.600006103515625</ele>
        <time>2021-05-25T08:17:09.000Z</time>
        <extensions>
          <ns3:TrackPointExtension>
            <ns3:atemp>17.0</ns3:atemp>
          </ns3:TrackPointExtension>
        </extensions>
      </trkpt>
      <trkpt lat="43.13563783653080463409423828125" lon="13.16870137117803096771240234375">
        <ele>412.399993896484375</ele>
        <time>2021-05-25T08:17:14.000Z</time>
        <extensions>
          <ns3:TrackPointExtension>
            <ns3:atemp>17.0</ns3:atemp>
          </ns3:TrackPointExtension>
        </extensions>
      </trkpt>
      <trkpt lat="43.13559207133948802947998046875" lon="13.16889046691358089447021484375">
        <ele>412.399993896484375</ele>
        <time>2021-05-25T08:17:18.000Z</time>
        <extensions>
          <ns3:TrackPointExtension>
            <ns3:atemp>17.0</ns3:atemp>
          </ns3:TrackPointExtension>
        </extensions>
      </trkpt>
      <trkpt lat="43.13554680906236171722412109375" lon="13.16911451518535614013671875">
        <ele>411.79998779296875</ele>
        <time>2021-05-25T08:17:22.000Z</time>
        <extensions>
          <ns3:TrackPointExtension>
            <ns3:atemp>17.0</ns3:atemp>
          </ns3:TrackPointExtension>
        </extensions>
      </trkpt>
      <trkpt lat="43.135548569262027740478515625" lon="13.1692407466471195220947265625">
        <ele>411.600006103515625</ele>
        <time>2021-05-25T08:17:24.000Z</time>
        <extensions>
          <ns3:TrackPointExtension>
            <ns3:atemp>17.0</ns3:atemp>
          </ns3:TrackPointExtension>
        </extensions>
      </trkpt>
      <trkpt lat="43.13555971719324588775634765625" lon="13.16930738277733325958251953125">
        <ele>411.399993896484375</ele>
        <time>2021-05-25T08:17:25.000Z</time>
        <extensions>
          <ns3:TrackPointExtension>
            <ns3:atemp>17.0</ns3:atemp>
          </ns3:TrackPointExtension>
        </extensions>
      </trkpt>
      <trkpt lat="43.13563196919858455657958984375" lon="13.16959035582840442657470703125">
        <ele>411</ele>
        <time>2021-05-25T08:17:29.000Z</time>
        <extensions>
          <ns3:TrackPointExtension>
            <ns3:atemp>17.0</ns3:atemp>
          </ns3:TrackPointExtension>
        </extensions>
      </trkpt>
      <trkpt lat="43.13564487732946872711181640625" lon="13.16965992562472820281982421875">
        <ele>410.79998779296875</ele>
        <time>2021-05-25T08:17:30.000Z</time>
        <extensions>
          <ns3:TrackPointExtension>
            <ns3:atemp>17.0</ns3:atemp>
          </ns3:TrackPointExtension>
        </extensions>
      </trkpt>
      <trkpt lat="43.13571578823029994964599609375" lon="13.16987198777496814727783203125">
        <ele>410.20001220703125</ele>
        <time>2021-05-25T08:17:33.000Z</time>
        <extensions>
          <ns3:TrackPointExtension>
            <ns3:atemp>17.0</ns3:atemp>
          </ns3:TrackPointExtension>
        </extensions>
      </trkpt>
      <trkpt lat="43.135762475430965423583984375" lon="13.1700098700821399688720703125">
        <ele>408.600006103515625</ele>
        <time>2021-05-25T08:17:35.000Z</time>
        <extensions>
          <ns3:TrackPointExtension>
            <ns3:atemp>18.0</ns3:atemp>
          </ns3:TrackPointExtension>
        </extensions>
      </trkpt>
      <trkpt lat="43.1357827596366405487060546875" lon="13.17016988061368465423583984375">
        <ele>407.399993896484375</ele>
        <time>2021-05-25T08:17:37.000Z</time>
        <extensions>
          <ns3:TrackPointExtension>
            <ns3:atemp>18.0</ns3:atemp>
          </ns3:TrackPointExtension>
        </extensions>
      </trkpt>
      <trkpt lat="43.13579273410141468048095703125" lon="13.17031958140432834625244140625">
        <ele>406.20001220703125</ele>
        <time>2021-05-25T08:17:39.000Z</time>
        <extensions>
          <ns3:TrackPointExtension>
            <ns3:atemp>18.0</ns3:atemp>
          </ns3:TrackPointExtension>
        </extensions>
      </trkpt>
      <trkpt lat="43.13579390756785869598388671875" lon="13.170427791774272918701171875">
        <ele>405</ele>
        <time>2021-05-25T08:17:41.000Z</time>
        <extensions>
          <ns3:TrackPointExtension>
            <ns3:atemp>18.0</ns3:atemp>
          </ns3:TrackPointExtension>
        </extensions>
      </trkpt>
      <trkpt lat="43.1357991881668567657470703125" lon="13.170686624944210052490234375">
        <ele>404.399993896484375</ele>
        <time>2021-05-25T08:17:47.000Z</time>
        <extensions>
          <ns3:TrackPointExtension>
            <ns3:atemp>18.0</ns3:atemp>
          </ns3:TrackPointExtension>
        </extensions>
      </trkpt>
      <trkpt lat="43.1357941590249538421630859375" lon="13.1707481481134891510009765625">
        <ele>404</ele>
        <time>2021-05-25T08:17:48.000Z</time>
        <extensions>
          <ns3:TrackPointExtension>
            <ns3:atemp>18.0</ns3:atemp>
          </ns3:TrackPointExtension>
        </extensions>
      </trkpt>
      <trkpt lat="43.135790638625621795654296875" lon="13.17082048393785953521728515625">
        <ele>403.600006103515625</ele>
        <time>2021-05-25T08:17:49.000Z</time>
        <extensions>
          <ns3:TrackPointExtension>
            <ns3:atemp>18.0</ns3:atemp>
          </ns3:TrackPointExtension>
        </extensions>
      </trkpt>
      <trkpt lat="43.1357616372406482696533203125" lon="13.170964904129505157470703125">
        <ele>403</ele>
        <time>2021-05-25T08:17:51.000Z</time>
        <extensions>
          <ns3:TrackPointExtension>
            <ns3:atemp>18.0</ns3:atemp>
          </ns3:TrackPointExtension>
        </extensions>
      </trkpt>
      <trkpt lat="43.13574126921594142913818359375" lon="13.1710844300687313079833984375">
        <ele>402.600006103515625</ele>
        <time>2021-05-25T08:17:53.000Z</time>
        <extensions>
          <ns3:TrackPointExtension>
            <ns3:atemp>18.0</ns3:atemp>
          </ns3:TrackPointExtension>
        </extensions>
      </trkpt>
      <trkpt lat="43.13568209297955036163330078125" lon="13.17118694074451923370361328125">
        <ele>402.600006103515625</ele>
        <time>2021-05-25T08:17:55.000Z</time>
        <extensions>
          <ns3:TrackPointExtension>
            <ns3:atemp>18.0</ns3:atemp>
          </ns3:TrackPointExtension>
        </extensions>
      </trkpt>
      <trkpt lat="43.13555468805134296417236328125" lon="13.17138944752514362335205078125">
        <ele>401.600006103515625</ele>
        <time>2021-05-25T08:17:59.000Z</time>
        <extensions>
          <ns3:TrackPointExtension>
            <ns3:atemp>18.0</ns3:atemp>
          </ns3:TrackPointExtension>
        </extensions>
      </trkpt>
      <trkpt lat="43.1355202384293079376220703125" lon="13.1714364700019359588623046875">
        <ele>400.399993896484375</ele>
        <time>2021-05-25T08:18:00.000Z</time>
        <extensions>
          <ns3:TrackPointExtension>
            <ns3:atemp>18.0</ns3:atemp>
          </ns3:TrackPointExtension>
        </extensions>
      </trkpt>
      <trkpt lat="43.13548092730343341827392578125" lon="13.17147963680326938629150390625">
        <ele>399.79998779296875</ele>
        <time>2021-05-25T08:18:01.000Z</time>
        <extensions>
          <ns3:TrackPointExtension>
            <ns3:atemp>18.0</ns3:atemp>
          </ns3:TrackPointExtension>
        </extensions>
      </trkpt>
      <trkpt lat="43.1354337371885776519775390625" lon="13.1715139187872409820556640625">
        <ele>399.20001220703125</ele>
        <time>2021-05-25T08:18:02.000Z</time>
        <extensions>
          <ns3:TrackPointExtension>
            <ns3:atemp>18.0</ns3:atemp>
          </ns3:TrackPointExtension>
        </extensions>
      </trkpt>
      <trkpt lat="43.1353296339511871337890625" lon="13.17155725322663784027099609375">
        <ele>398</ele>
        <time>2021-05-25T08:18:04.000Z</time>
        <extensions>
          <ns3:TrackPointExtension>
            <ns3:atemp>18.0</ns3:atemp>
          </ns3:TrackPointExtension>
        </extensions>
      </trkpt>
      <trkpt lat="43.135156296193599700927734375" lon="13.17161760292947292327880859375">
        <ele>396.600006103515625</ele>
        <time>2021-05-25T08:18:07.000Z</time>
        <extensions>
          <ns3:TrackPointExtension>
            <ns3:atemp>18.0</ns3:atemp>
          </ns3:TrackPointExtension>
        </extensions>
      </trkpt>
      <trkpt lat="43.13505378551781177520751953125" lon="13.17166890017688274383544921875">
        <ele>395.399993896484375</ele>
        <time>2021-05-25T08:18:09.000Z</time>
        <extensions>
          <ns3:TrackPointExtension>
            <ns3:atemp>18.0</ns3:atemp>
          </ns3:TrackPointExtension>
        </extensions>
      </trkpt>
      <trkpt lat="43.1350096128880977630615234375" lon="13.17169270478188991546630859375">
        <ele>394.399993896484375</ele>
        <time>2021-05-25T08:18:10.000Z</time>
        <extensions>
          <ns3:TrackPointExtension>
            <ns3:atemp>18.0</ns3:atemp>
          </ns3:TrackPointExtension>
        </extensions>
      </trkpt>
      <trkpt lat="43.13496963120996952056884765625" lon="13.1717227958142757415771484375">
        <ele>393.79998779296875</ele>
        <time>2021-05-25T08:18:11.000Z</time>
        <extensions>
          <ns3:TrackPointExtension>
            <ns3:atemp>18.0</ns3:atemp>
          </ns3:TrackPointExtension>
        </extensions>
      </trkpt>
      <trkpt lat="43.134933002293109893798828125" lon="13.171754814684391021728515625">
        <ele>393.600006103515625</ele>
        <time>2021-05-25T08:18:12.000Z</time>
        <extensions>
          <ns3:TrackPointExtension>
            <ns3:atemp>18.0</ns3:atemp>
          </ns3:TrackPointExtension>
        </extensions>
      </trkpt>
      <trkpt lat="43.1348966248333454132080078125" lon="13.171798400580883026123046875">
        <ele>393.399993896484375</ele>
        <time>2021-05-25T08:18:13.000Z</time>
        <extensions>
          <ns3:TrackPointExtension>
            <ns3:atemp>18.0</ns3:atemp>
          </ns3:TrackPointExtension>
        </extensions>
      </trkpt>
      <trkpt lat="43.134819008409976959228515625" lon="13.1718984805047512054443359375">
        <ele>393</ele>
        <time>2021-05-25T08:18:15.000Z</time>
        <extensions>
          <ns3:TrackPointExtension>
            <ns3:atemp>18.0</ns3:atemp>
          </ns3:TrackPointExtension>
        </extensions>
      </trkpt>
      <trkpt lat="43.134724795818328857421875" lon="13.17207173444330692291259765625">
        <ele>393</ele>
        <time>2021-05-25T08:18:19.000Z</time>
        <extensions>
          <ns3:TrackPointExtension>
            <ns3:atemp>18.0</ns3:atemp>
          </ns3:TrackPointExtension>
        </extensions>
      </trkpt>
      <trkpt lat="43.1346035934984683990478515625" lon="13.17231170833110809326171875">
        <ele>393</ele>
        <time>2021-05-25T08:18:24.000Z</time>
        <extensions>
          <ns3:TrackPointExtension>
            <ns3:atemp>18.0</ns3:atemp>
          </ns3:TrackPointExtension>
        </extensions>
      </trkpt>
      <trkpt lat="43.13459931872785091400146484375" lon="13.172352612018585205078125">
        <ele>393</ele>
        <time>2021-05-25T08:18:25.000Z</time>
        <extensions>
          <ns3:TrackPointExtension>
            <ns3:atemp>18.0</ns3:atemp>
          </ns3:TrackPointExtension>
        </extensions>
      </trkpt>
      <trkpt lat="43.13465245999395847320556640625" lon="13.17242159508168697357177734375">
        <ele>393</ele>
        <time>2021-05-25T08:18:27.000Z</time>
        <extensions>
          <ns3:TrackPointExtension>
            <ns3:atemp>18.0</ns3:atemp>
          </ns3:TrackPointExtension>
        </extensions>
      </trkpt>
      <trkpt lat="43.1347413919866085052490234375" lon="13.172478340566158294677734375">
        <ele>392.79998779296875</ele>
        <time>2021-05-25T08:18:29.000Z</time>
        <extensions>
          <ns3:TrackPointExtension>
            <ns3:atemp>18.0</ns3:atemp>
          </ns3:TrackPointExtension>
        </extensions>
      </trkpt>
      <trkpt lat="43.13480819575488567352294921875" lon="13.1725251115858554840087890625">
        <ele>392.600006103515625</ele>
        <time>2021-05-25T08:18:30.000Z</time>
        <extensions>
          <ns3:TrackPointExtension>
            <ns3:atemp>18.0</ns3:atemp>
          </ns3:TrackPointExtension>
        </extensions>
      </trkpt>
      <trkpt lat="43.13487106002867221832275390625" lon="13.17256157286465167999267578125">
        <ele>392.20001220703125</ele>
        <time>2021-05-25T08:18:31.000Z</time>
        <extensions>
          <ns3:TrackPointExtension>
            <ns3:atemp>18.0</ns3:atemp>
          </ns3:TrackPointExtension>
        </extensions>
      </trkpt>
      <trkpt lat="43.1350702978670597076416015625" lon="13.1727229245007038116455078125">
        <ele>391.399993896484375</ele>
        <time>2021-05-25T08:18:34.000Z</time>
        <extensions>
          <ns3:TrackPointExtension>
            <ns3:atemp>18.0</ns3:atemp>
          </ns3:TrackPointExtension>
        </extensions>
      </trkpt>
      <trkpt lat="43.13512285239994525909423828125" lon="13.17278780043125152587890625">
        <ele>391</ele>
        <time>2021-05-25T08:18:35.000Z</time>
        <extensions>
          <ns3:TrackPointExtension>
            <ns3:atemp>18.0</ns3:atemp>
          </ns3:TrackPointExtension>
        </extensions>
      </trkpt>
      <trkpt lat="43.135168366134166717529296875" lon="13.1728516705334186553955078125">
        <ele>390</ele>
        <time>2021-05-25T08:18:36.000Z</time>
        <extensions>
          <ns3:TrackPointExtension>
            <ns3:atemp>18.0</ns3:atemp>
          </ns3:TrackPointExtension>
        </extensions>
      </trkpt>
      <trkpt lat="43.13521086238324642181396484375" lon="13.17291319370269775390625">
        <ele>388.79998779296875</ele>
        <time>2021-05-25T08:18:37.000Z</time>
        <extensions>
          <ns3:TrackPointExtension>
            <ns3:atemp>18.0</ns3:atemp>
          </ns3:TrackPointExtension>
        </extensions>
      </trkpt>
      <trkpt lat="43.1352520175278186798095703125" lon="13.17296641878783702850341796875">
        <ele>387.600006103515625</ele>
        <time>2021-05-25T08:18:38.000Z</time>
        <extensions>
          <ns3:TrackPointExtension>
            <ns3:atemp>18.0</ns3:atemp>
          </ns3:TrackPointExtension>
        </extensions>
      </trkpt>
      <trkpt lat="43.13529384322464466094970703125" lon="13.1730102561414241790771484375">
        <ele>386.20001220703125</ele>
        <time>2021-05-25T08:18:39.000Z</time>
        <extensions>
          <ns3:TrackPointExtension>
            <ns3:atemp>18.0</ns3:atemp>
          </ns3:TrackPointExtension>
        </extensions>
      </trkpt>
      <trkpt lat="43.135336339473724365234375" lon="13.17305007018148899078369140625">
        <ele>385</ele>
        <time>2021-05-25T08:18:40.000Z</time>
        <extensions>
          <ns3:TrackPointExtension>
            <ns3:atemp>18.0</ns3:atemp>
          </ns3:TrackPointExtension>
        </extensions>
      </trkpt>
      <trkpt lat="43.1354193203151226043701171875" lon="13.173143863677978515625">
        <ele>383.20001220703125</ele>
        <time>2021-05-25T08:18:42.000Z</time>
        <extensions>
          <ns3:TrackPointExtension>
            <ns3:atemp>18.0</ns3:atemp>
          </ns3:TrackPointExtension>
        </extensions>
      </trkpt>
      <trkpt lat="43.13551009632647037506103515625" lon="13.17324218340218067169189453125">
        <ele>381.600006103515625</ele>
        <time>2021-05-25T08:18:44.000Z</time>
        <extensions>
          <ns3:TrackPointExtension>
            <ns3:atemp>18.0</ns3:atemp>
          </ns3:TrackPointExtension>
        </extensions>
      </trkpt>
      <trkpt lat="43.13555552624166011810302734375" lon="13.1732841767370700836181640625">
        <ele>380.79998779296875</ele>
        <time>2021-05-25T08:18:45.000Z</time>
        <extensions>
          <ns3:TrackPointExtension>
            <ns3:atemp>18.0</ns3:atemp>
          </ns3:TrackPointExtension>
        </extensions>
      </trkpt>
      <trkpt lat="43.1356005370616912841796875" lon="13.173325918614864349365234375">
        <ele>380.20001220703125</ele>
        <time>2021-05-25T08:18:46.000Z</time>
        <extensions>
          <ns3:TrackPointExtension>
            <ns3:atemp>18.0</ns3:atemp>
          </ns3:TrackPointExtension>
        </extensions>
      </trkpt>
      <trkpt lat="43.13576507382094860076904296875" lon="13.17348609678447246551513671875">
        <ele>379.399993896484375</ele>
        <time>2021-05-25T08:18:50.000Z</time>
        <extensions>
          <ns3:TrackPointExtension>
            <ns3:atemp>18.0</ns3:atemp>
          </ns3:TrackPointExtension>
        </extensions>
      </trkpt>
      <trkpt lat="43.135803379118442535400390625" lon="13.17349682562053203582763671875">
        <ele>379.20001220703125</ele>
        <time>2021-05-25T08:18:51.000Z</time>
        <extensions>
          <ns3:TrackPointExtension>
            <ns3:atemp>18.0</ns3:atemp>
          </ns3:TrackPointExtension>
        </extensions>
      </trkpt>
      <trkpt lat="43.135833553969860076904296875" lon="13.17344988696277141571044921875">
        <ele>378.79998779296875</ele>
        <time>2021-05-25T08:18:53.000Z</time>
        <extensions>
          <ns3:TrackPointExtension>
            <ns3:atemp>18.0</ns3:atemp>
          </ns3:TrackPointExtension>
        </extensions>
      </trkpt>
      <trkpt lat="43.13580849207937717437744140625" lon="13.1733408384025096893310546875">
        <ele>378.20001220703125</ele>
        <time>2021-05-25T08:18:55.000Z</time>
        <extensions>
          <ns3:TrackPointExtension>
            <ns3:atemp>18.0</ns3:atemp>
          </ns3:TrackPointExtension>
        </extensions>
      </trkpt>
      <trkpt lat="43.13581318594515323638916015625" lon="13.17328342236578464508056640625">
        <ele>377.600006103515625</ele>
        <time>2021-05-25T08:18:56.000Z</time>
        <extensions>
          <ns3:TrackPointExtension>
            <ns3:atemp>18.0</ns3:atemp>
          </ns3:TrackPointExtension>
        </extensions>
      </trkpt>
      <trkpt lat="43.13583724200725555419921875" lon="13.17324738018214702606201171875">
        <ele>377</ele>
        <time>2021-05-25T08:18:57.000Z</time>
        <extensions>
          <ns3:TrackPointExtension>
            <ns3:atemp>18.0</ns3:atemp>
          </ns3:TrackPointExtension>
        </extensions>
      </trkpt>
      <trkpt lat="43.1358749605715274810791015625" lon="13.17323195748031139373779296875">
        <ele>376.20001220703125</ele>
        <time>2021-05-25T08:18:58.000Z</time>
        <extensions>
          <ns3:TrackPointExtension>
            <ns3:atemp>18.0</ns3:atemp>
          </ns3:TrackPointExtension>
        </extensions>
      </trkpt>
      <trkpt lat="43.13592617399990558624267578125" lon="13.17323950119316577911376953125">
        <ele>375.399993896484375</ele>
        <time>2021-05-25T08:18:59.000Z</time>
        <extensions>
          <ns3:TrackPointExtension>
            <ns3:atemp>18.0</ns3:atemp>
          </ns3:TrackPointExtension>
        </extensions>
      </trkpt>
      <trkpt lat="43.13598610460758209228515625" lon="13.1732578575611114501953125">
        <ele>374.399993896484375</ele>
        <time>2021-05-25T08:19:00.000Z</time>
        <extensions>
          <ns3:TrackPointExtension>
            <ns3:atemp>18.0</ns3:atemp>
          </ns3:TrackPointExtension>
        </extensions>
      </trkpt>
      <trkpt lat="43.1360523216426372528076171875" lon="13.1732751242816448211669921875">
        <ele>373.600006103515625</ele>
        <time>2021-05-25T08:19:01.000Z</time>
        <extensions>
          <ns3:TrackPointExtension>
            <ns3:atemp>18.0</ns3:atemp>
          </ns3:TrackPointExtension>
        </extensions>
      </trkpt>
      <trkpt lat="43.1361264176666736602783203125" lon="13.17328493110835552215576171875">
        <ele>372.399993896484375</ele>
        <time>2021-05-25T08:19:02.000Z</time>
        <extensions>
          <ns3:TrackPointExtension>
            <ns3:atemp>18.0</ns3:atemp>
          </ns3:TrackPointExtension>
        </extensions>
      </trkpt>
      <trkpt lat="43.13620193861424922943115234375" lon="13.173291720449924468994140625">
        <ele>370.79998779296875</ele>
        <time>2021-05-25T08:19:03.000Z</time>
        <extensions>
          <ns3:TrackPointExtension>
            <ns3:atemp>18.0</ns3:atemp>
          </ns3:TrackPointExtension>
        </extensions>
      </trkpt>
      <trkpt lat="43.1363515555858612060546875" lon="13.17331393249332904815673828125">
        <ele>369.79998779296875</ele>
        <time>2021-05-25T08:19:05.000Z</time>
        <extensions>
          <ns3:TrackPointExtension>
            <ns3:atemp>18.0</ns3:atemp>
          </ns3:TrackPointExtension>
        </extensions>
      </trkpt>
      <trkpt lat="43.1364134140312671661376953125" lon="13.17333706654608249664306640625">
        <ele>368.20001220703125</ele>
        <time>2021-05-25T08:19:06.000Z</time>
        <extensions>
          <ns3:TrackPointExtension>
            <ns3:atemp>18.0</ns3:atemp>
          </ns3:TrackPointExtension>
        </extensions>
      </trkpt>
      <trkpt lat="43.1364626996219158172607421875" lon="13.1733678281307220458984375">
        <ele>366.399993896484375</ele>
        <time>2021-05-25T08:19:07.000Z</time>
        <extensions>
          <ns3:TrackPointExtension>
            <ns3:atemp>18.0</ns3:atemp>
          </ns3:TrackPointExtension>
        </extensions>
      </trkpt>
      <trkpt lat="43.1365009211003780364990234375" lon="13.17339858971536159515380859375">
        <ele>364.399993896484375</ele>
        <time>2021-05-25T08:19:08.000Z</time>
        <extensions>
          <ns3:TrackPointExtension>
            <ns3:atemp>18.0</ns3:atemp>
          </ns3:TrackPointExtension>
        </extensions>
      </trkpt>
      <trkpt lat="43.13653034158051013946533203125" lon="13.173425830900669097900390625">
        <ele>362.399993896484375</ele>
        <time>2021-05-25T08:19:09.000Z</time>
        <extensions>
          <ns3:TrackPointExtension>
            <ns3:atemp>18.0</ns3:atemp>
          </ns3:TrackPointExtension>
        </extensions>
      </trkpt>
      <trkpt lat="43.136553056538105010986328125" lon="13.1734498031437397003173828125">
        <ele>360.399993896484375</ele>
        <time>2021-05-25T08:19:10.000Z</time>
        <extensions>
          <ns3:TrackPointExtension>
            <ns3:atemp>18.0</ns3:atemp>
          </ns3:TrackPointExtension>
        </extensions>
      </trkpt>
      <trkpt lat="43.136554062366485595703125" lon="13.17347151227295398712158203125">
        <ele>358.20001220703125</ele>
        <time>2021-05-25T08:19:11.000Z</time>
        <extensions>
          <ns3:TrackPointExtension>
            <ns3:atemp>18.0</ns3:atemp>
          </ns3:TrackPointExtension>
        </extensions>
      </trkpt>
      <trkpt lat="43.136554062366485595703125" lon="13.17347939126193523406982421875">
        <ele>357</ele>
        <time>2021-05-25T08:19:12.000Z</time>
        <extensions>
          <ns3:TrackPointExtension>
            <ns3:atemp>18.0</ns3:atemp>
          </ns3:TrackPointExtension>
        </extensions>
      </trkpt>
      <trkpt lat="43.1365522183477878570556640625" lon="13.173469416797161102294921875">
        <ele>356</ele>
        <time>2021-05-25T08:19:15.000Z</time>
        <extensions>
          <ns3:TrackPointExtension>
            <ns3:atemp>18.0</ns3:atemp>
          </ns3:TrackPointExtension>
        </extensions>
      </trkpt>
      <trkpt lat="43.13654945231974124908447265625" lon="13.17345575429499149322509765625">
        <ele>355.79998779296875</ele>
        <time>2021-05-25T08:19:20.000Z</time>
        <extensions>
          <ns3:TrackPointExtension>
            <ns3:atemp>18.0</ns3:atemp>
          </ns3:TrackPointExtension>
        </extensions>
      </trkpt>
      <trkpt lat="43.13655012287199497222900390625" lon="13.1734551675617694854736328125">
        <ele>355.600006103515625</ele>
        <time>2021-05-25T08:19:36.000Z</time>
        <extensions>
          <ns3:TrackPointExtension>
            <ns3:atemp>19.0</ns3:atemp>
          </ns3:TrackPointExtension>
        </extensions>
      </trkpt>
      <trkpt lat="43.13655230216681957244873046875" lon="13.17343018949031829833984375">
        <ele>355.600006103515625</ele>
        <time>2021-05-25T08:19:43.000Z</time>
        <extensions>
          <ns3:TrackPointExtension>
            <ns3:atemp>19.0</ns3:atemp>
          </ns3:TrackPointExtension>
        </extensions>
      </trkpt>
      <trkpt lat="43.1365535594522953033447265625" lon="13.17343714646995067596435546875">
        <ele>355.600006103515625</ele>
        <time>2021-05-25T08:19:46.000Z</time>
        <extensions>
          <ns3:TrackPointExtension>
            <ns3:atemp>19.0</ns3:atemp>
          </ns3:TrackPointExtension>
        </extensions>
      </trkpt>
      <trkpt lat="43.13655364327132701873779296875" lon="13.17344033159315586090087890625">
        <ele>355.399993896484375</ele>
        <time>2021-05-25T08:19:49.000Z</time>
        <extensions>
          <ns3:TrackPointExtension>
            <ns3:atemp>19.0</ns3:atemp>
          </ns3:TrackPointExtension>
        </extensions>
      </trkpt>
      <trkpt lat="43.13654995523393154144287109375" lon="13.173441588878631591796875">
        <ele>355.399993896484375</ele>
        <time>2021-05-25T08:19:56.000Z</time>
        <extensions>
          <ns3:TrackPointExtension>
            <ns3:atemp>19.0</ns3:atemp>
          </ns3:TrackPointExtension>
        </extensions>
      </trkpt>
      <trkpt lat="43.1365508772432804107666015625" lon="13.1734752841293811798095703125">
        <ele>355.20001220703125</ele>
        <time>2021-05-25T08:19:59.000Z</time>
        <extensions>
          <ns3:TrackPointExtension>
            <ns3:atemp>19.0</ns3:atemp>
          </ns3:TrackPointExtension>
        </extensions>
      </trkpt>
      <trkpt lat="43.136534951627254486083984375" lon="13.1735986657440662384033203125">
        <ele>354.79998779296875</ele>
        <time>2021-05-25T08:20:03.000Z</time>
        <extensions>
          <ns3:TrackPointExtension>
            <ns3:atemp>19.0</ns3:atemp>
          </ns3:TrackPointExtension>
        </extensions>
      </trkpt>
      <trkpt lat="43.13654744066298007965087890625" lon="13.17376504652202129364013671875">
        <ele>354.79998779296875</ele>
        <time>2021-05-25T08:20:06.000Z</time>
        <extensions>
          <ns3:TrackPointExtension>
            <ns3:atemp>19.0</ns3:atemp>
          </ns3:TrackPointExtension>
        </extensions>
      </trkpt>
      <trkpt lat="43.13658532686531543731689453125" lon="13.17380427382886409759521484375">
        <ele>354.600006103515625</ele>
        <time>2021-05-25T08:20:07.000Z</time>
        <extensions>
          <ns3:TrackPointExtension>
            <ns3:atemp>19.0</ns3:atemp>
          </ns3:TrackPointExtension>
        </extensions>
      </trkpt>
      <trkpt lat="43.1366685591638088226318359375" lon="13.173781894147396087646484375">
        <ele>354.399993896484375</ele>
        <time>2021-05-25T08:20:10.000Z</time>
        <extensions>
          <ns3:TrackPointExtension>
            <ns3:atemp>19.0</ns3:atemp>
          </ns3:TrackPointExtension>
        </extensions>
      </trkpt>
      <trkpt lat="43.13673620112240314483642578125" lon="13.17359489388763904571533203125">
        <ele>353</ele>
        <time>2021-05-25T08:20:13.000Z</time>
        <extensions>
          <ns3:TrackPointExtension>
            <ns3:atemp>19.0</ns3:atemp>
          </ns3:TrackPointExtension>
        </extensions>
      </trkpt>
      <trkpt lat="43.1367594189941883087158203125" lon="13.17351643927395343780517578125">
        <ele>352.399993896484375</ele>
        <time>2021-05-25T08:20:14.000Z</time>
        <extensions>
          <ns3:TrackPointExtension>
            <ns3:atemp>19.0</ns3:atemp>
          </ns3:TrackPointExtension>
        </extensions>
      </trkpt>
      <trkpt lat="43.13677467405796051025390625" lon="13.17342809401452541351318359375">
        <ele>351.600006103515625</ele>
        <time>2021-05-25T08:20:15.000Z</time>
        <extensions>
          <ns3:TrackPointExtension>
            <ns3:atemp>19.0</ns3:atemp>
          </ns3:TrackPointExtension>
        </extensions>
      </trkpt>
      <trkpt lat="43.1367453373968601226806640625" lon="13.17325584590435028076171875">
        <ele>349.79998779296875</ele>
        <time>2021-05-25T08:20:17.000Z</time>
        <extensions>
          <ns3:TrackPointExtension>
            <ns3:atemp>19.0</ns3:atemp>
          </ns3:TrackPointExtension>
        </extensions>
      </trkpt>
      <trkpt lat="43.13671541400253772735595703125" lon="13.1731678359210491180419921875">
        <ele>348.79998779296875</ele>
        <time>2021-05-25T08:20:18.000Z</time>
        <extensions>
          <ns3:TrackPointExtension>
            <ns3:atemp>19.0</ns3:atemp>
          </ns3:TrackPointExtension>
        </extensions>
      </trkpt>
      <trkpt lat="43.136672079563140869140625" lon="13.172985948622226715087890625">
        <ele>347.20001220703125</ele>
        <time>2021-05-25T08:20:20.000Z</time>
        <extensions>
          <ns3:TrackPointExtension>
            <ns3:atemp>19.0</ns3:atemp>
          </ns3:TrackPointExtension>
        </extensions>
      </trkpt>
      <trkpt lat="43.13666914589703083038330078125" lon="13.172900117933750152587890625">
        <ele>346.600006103515625</ele>
        <time>2021-05-25T08:20:21.000Z</time>
        <extensions>
          <ns3:TrackPointExtension>
            <ns3:atemp>19.0</ns3:atemp>
          </ns3:TrackPointExtension>
        </extensions>
      </trkpt>
      <trkpt lat="43.13671809621155261993408203125" lon="13.17275159060955047607421875">
        <ele>345.600006103515625</ele>
        <time>2021-05-25T08:20:23.000Z</time>
        <extensions>
          <ns3:TrackPointExtension>
            <ns3:atemp>19.0</ns3:atemp>
          </ns3:TrackPointExtension>
        </extensions>
      </trkpt>
      <trkpt lat="43.13675883226096630096435546875" lon="13.17268411628901958465576171875">
        <ele>344.79998779296875</ele>
        <time>2021-05-25T08:20:24.000Z</time>
        <extensions>
          <ns3:TrackPointExtension>
            <ns3:atemp>19.0</ns3:atemp>
          </ns3:TrackPointExtension>
        </extensions>
      </trkpt>
      <trkpt lat="43.1368043459951877593994140625" lon="13.1726253591477870941162109375">
        <ele>343.600006103515625</ele>
        <time>2021-05-25T08:20:25.000Z</time>
        <extensions>
          <ns3:TrackPointExtension>
            <ns3:atemp>19.0</ns3:atemp>
          </ns3:TrackPointExtension>
        </extensions>
      </trkpt>
      <trkpt lat="43.1368610076606273651123046875" lon="13.17258554510772228240966796875">
        <ele>342</ele>
        <time>2021-05-25T08:20:26.000Z</time>
        <extensions>
          <ns3:TrackPointExtension>
            <ns3:atemp>19.0</ns3:atemp>
          </ns3:TrackPointExtension>
        </extensions>
      </trkpt>
      <trkpt lat="43.13692487776279449462890625" lon="13.172550760209560394287109375">
        <ele>340.20001220703125</ele>
        <time>2021-05-25T08:20:27.000Z</time>
        <extensions>
          <ns3:TrackPointExtension>
            <ns3:atemp>19.0</ns3:atemp>
          </ns3:TrackPointExtension>
        </extensions>
      </trkpt>
      <trkpt lat="43.1369914300739765167236328125" lon="13.1725046597421169281005859375">
        <ele>339</ele>
        <time>2021-05-25T08:20:28.000Z</time>
        <extensions>
          <ns3:TrackPointExtension>
            <ns3:atemp>19.0</ns3:atemp>
          </ns3:TrackPointExtension>
        </extensions>
      </trkpt>
      <trkpt lat="43.137096203863620758056640625" lon="13.172371722757816314697265625">
        <ele>338</ele>
        <time>2021-05-25T08:20:30.000Z</time>
        <extensions>
          <ns3:TrackPointExtension>
            <ns3:atemp>19.0</ns3:atemp>
          </ns3:TrackPointExtension>
        </extensions>
      </trkpt>
      <trkpt lat="43.13715730793774127960205078125" lon="13.1721972115337848663330078125">
        <ele>336.20001220703125</ele>
        <time>2021-05-25T08:20:32.000Z</time>
        <extensions>
          <ns3:TrackPointExtension>
            <ns3:atemp>19.0</ns3:atemp>
          </ns3:TrackPointExtension>
        </extensions>
      </trkpt>
      <trkpt lat="43.1371708028018474578857421875" lon="13.17210786044597625732421875">
        <ele>335.20001220703125</ele>
        <time>2021-05-25T08:20:33.000Z</time>
        <extensions>
          <ns3:TrackPointExtension>
            <ns3:atemp>19.0</ns3:atemp>
          </ns3:TrackPointExtension>
        </extensions>
      </trkpt>
      <trkpt lat="43.13717742450535297393798828125" lon="13.17202630452811717987060546875">
        <ele>334.20001220703125</ele>
        <time>2021-05-25T08:20:34.000Z</time>
        <extensions>
          <ns3:TrackPointExtension>
            <ns3:atemp>19.0</ns3:atemp>
          </ns3:TrackPointExtension>
        </extensions>
      </trkpt>
      <trkpt lat="43.1371875666081905364990234375" lon="13.17195204086601734161376953125">
        <ele>333</ele>
        <time>2021-05-25T08:20:35.000Z</time>
        <extensions>
          <ns3:TrackPointExtension>
            <ns3:atemp>19.0</ns3:atemp>
          </ns3:TrackPointExtension>
        </extensions>
      </trkpt>
      <trkpt lat="43.13719636760652065277099609375" lon="13.17189571447670459747314453125">
        <ele>331.79998779296875</ele>
        <time>2021-05-25T08:20:36.000Z</time>
        <extensions>
          <ns3:TrackPointExtension>
            <ns3:atemp>19.0</ns3:atemp>
          </ns3:TrackPointExtension>
        </extensions>
      </trkpt>
      <trkpt lat="43.1372147239744663238525390625" lon="13.1718699820339679718017578125">
        <ele>330.600006103515625</ele>
        <time>2021-05-25T08:20:37.000Z</time>
        <extensions>
          <ns3:TrackPointExtension>
            <ns3:atemp>19.0</ns3:atemp>
          </ns3:TrackPointExtension>
        </extensions>
      </trkpt>
      <trkpt lat="43.13724582083523273468017578125" lon="13.17198674194514751434326171875">
        <ele>329.600006103515625</ele>
        <time>2021-05-25T08:20:39.000Z</time>
        <extensions>
          <ns3:TrackPointExtension>
            <ns3:atemp>19.0</ns3:atemp>
          </ns3:TrackPointExtension>
        </extensions>
      </trkpt>
      <trkpt lat="43.13726417720317840576171875" lon="13.17218153737485408782958984375">
        <ele>328.20001220703125</ele>
        <time>2021-05-25T08:20:41.000Z</time>
        <extensions>
          <ns3:TrackPointExtension>
            <ns3:atemp>19.0</ns3:atemp>
          </ns3:TrackPointExtension>
        </extensions>
      </trkpt>
      <trkpt lat="43.1372995488345623016357421875" lon="13.17227742634713649749755859375">
        <ele>327.79998779296875</ele>
        <time>2021-05-25T08:20:42.000Z</time>
        <extensions>
          <ns3:TrackPointExtension>
            <ns3:atemp>19.0</ns3:atemp>
          </ns3:TrackPointExtension>
        </extensions>
      </trkpt>
      <trkpt lat="43.13738294877111911773681640625" lon="13.17241891287267208099365234375">
        <ele>327</ele>
        <time>2021-05-25T08:20:44.000Z</time>
        <extensions>
          <ns3:TrackPointExtension>
            <ns3:atemp>19.0</ns3:atemp>
          </ns3:TrackPointExtension>
        </extensions>
      </trkpt>
      <trkpt lat="43.137420751154422760009765625" lon="13.1724718026816844940185546875">
        <ele>326.600006103515625</ele>
        <time>2021-05-25T08:20:45.000Z</time>
        <extensions>
          <ns3:TrackPointExtension>
            <ns3:atemp>19.0</ns3:atemp>
          </ns3:TrackPointExtension>
        </extensions>
      </trkpt>
      <trkpt lat="43.137513287365436553955078125" lon="13.17256609909236431121826171875">
        <ele>325</ele>
        <time>2021-05-25T08:20:47.000Z</time>
        <extensions>
          <ns3:TrackPointExtension>
            <ns3:atemp>19.0</ns3:atemp>
          </ns3:TrackPointExtension>
        </extensions>
      </trkpt>
      <trkpt lat="43.1375738047063350677490234375" lon="13.17257733084261417388916015625">
        <ele>323.399993896484375</ele>
        <time>2021-05-25T08:20:48.000Z</time>
        <extensions>
          <ns3:TrackPointExtension>
            <ns3:atemp>19.0</ns3:atemp>
          </ns3:TrackPointExtension>
        </extensions>
      </trkpt>
      <trkpt lat="43.1376227550208568572998046875" lon="13.1725546158850193023681640625">
        <ele>321.79998779296875</ele>
        <time>2021-05-25T08:20:49.000Z</time>
        <extensions>
          <ns3:TrackPointExtension>
            <ns3:atemp>20.0</ns3:atemp>
          </ns3:TrackPointExtension>
        </extensions>
      </trkpt>
      <trkpt lat="43.1376442126929759979248046875" lon="13.172501809895038604736328125">
        <ele>320.20001220703125</ele>
        <time>2021-05-25T08:20:50.000Z</time>
        <extensions>
          <ns3:TrackPointExtension>
            <ns3:atemp>20.0</ns3:atemp>
          </ns3:TrackPointExtension>
        </extensions>
      </trkpt>
      <trkpt lat="43.137635327875614166259765625" lon="13.1723678670823574066162109375">
        <ele>318.79998779296875</ele>
        <time>2021-05-25T08:20:52.000Z</time>
        <extensions>
          <ns3:TrackPointExtension>
            <ns3:atemp>20.0</ns3:atemp>
          </ns3:TrackPointExtension>
        </extensions>
      </trkpt>
      <trkpt lat="43.13762937672436237335205078125" lon="13.17229318432509899139404296875">
        <ele>318.399993896484375</ele>
        <time>2021-05-25T08:20:53.000Z</time>
        <extensions>
          <ns3:TrackPointExtension>
            <ns3:atemp>20.0</ns3:atemp>
          </ns3:TrackPointExtension>
        </extensions>
      </trkpt>
      <trkpt lat="43.1376244314014911651611328125" lon="13.17221791483461856842041015625">
        <ele>318.20001220703125</ele>
        <time>2021-05-25T08:20:54.000Z</time>
        <extensions>
          <ns3:TrackPointExtension>
            <ns3:atemp>20.0</ns3:atemp>
          </ns3:TrackPointExtension>
        </extensions>
      </trkpt>
      <trkpt lat="43.13760875724256038665771484375" lon="13.17206217907369136810302734375">
        <ele>317.600006103515625</ele>
        <time>2021-05-25T08:20:56.000Z</time>
        <extensions>
          <ns3:TrackPointExtension>
            <ns3:atemp>20.0</ns3:atemp>
          </ns3:TrackPointExtension>
        </extensions>
      </trkpt>
      <trkpt lat="43.13757640309631824493408203125" lon="13.17188967950642108917236328125">
        <ele>315.600006103515625</ele>
        <time>2021-05-25T08:20:58.000Z</time>
        <extensions>
          <ns3:TrackPointExtension>
            <ns3:atemp>20.0</ns3:atemp>
          </ns3:TrackPointExtension>
        </extensions>
      </trkpt>
      <trkpt lat="43.137558214366436004638671875" lon="13.1717975623905658721923828125">
        <ele>314.20001220703125</ele>
        <time>2021-05-25T08:20:59.000Z</time>
        <extensions>
          <ns3:TrackPointExtension>
            <ns3:atemp>20.0</ns3:atemp>
          </ns3:TrackPointExtension>
        </extensions>
      </trkpt>
      <trkpt lat="43.1375443004071712493896484375" lon="13.1716983206570148468017578125">
        <ele>313.20001220703125</ele>
        <time>2021-05-25T08:21:00.000Z</time>
        <extensions>
          <ns3:TrackPointExtension>
            <ns3:atemp>20.0</ns3:atemp>
          </ns3:TrackPointExtension>
        </extensions>
      </trkpt>
      <trkpt lat="43.1375325657427310943603515625" lon="13.1715903617441654205322265625">
        <ele>312.399993896484375</ele>
        <time>2021-05-25T08:21:01.000Z</time>
        <extensions>
          <ns3:TrackPointExtension>
            <ns3:atemp>20.0</ns3:atemp>
          </ns3:TrackPointExtension>
        </extensions>
      </trkpt>
      <trkpt lat="43.1375007145106792449951171875" lon="13.1713549979031085968017578125">
        <ele>312</ele>
        <time>2021-05-25T08:21:03.000Z</time>
        <extensions>
          <ns3:TrackPointExtension>
            <ns3:atemp>20.0</ns3:atemp>
          </ns3:TrackPointExtension>
        </extensions>
      </trkpt>
      <trkpt lat="43.13747716136276721954345703125" lon="13.1711008585989475250244140625">
        <ele>311.20001220703125</ele>
        <time>2021-05-25T08:21:05.000Z</time>
        <extensions>
          <ns3:TrackPointExtension>
            <ns3:atemp>20.0</ns3:atemp>
          </ns3:TrackPointExtension>
        </extensions>
      </trkpt>
      <trkpt lat="43.13748839311301708221435546875" lon="13.17098275758326053619384765625">
        <ele>310.399993896484375</ele>
        <time>2021-05-25T08:21:06.000Z</time>
        <extensions>
          <ns3:TrackPointExtension>
            <ns3:atemp>20.0</ns3:atemp>
          </ns3:TrackPointExtension>
        </extensions>
      </trkpt>
      <trkpt lat="43.137503899633884429931640625" lon="13.1708732061088085174560546875">
        <ele>309.79998779296875</ele>
        <time>2021-05-25T08:21:07.000Z</time>
        <extensions>
          <ns3:TrackPointExtension>
            <ns3:atemp>20.0</ns3:atemp>
          </ns3:TrackPointExtension>
        </extensions>
      </trkpt>
      <trkpt lat="43.13755745999515056610107421875" lon="13.17075259052217006683349609375">
        <ele>308.600006103515625</ele>
        <time>2021-05-25T08:21:09.000Z</time>
        <extensions>
          <ns3:TrackPointExtension>
            <ns3:atemp>20.0</ns3:atemp>
          </ns3:TrackPointExtension>
        </extensions>
      </trkpt>
      <trkpt lat="43.1376308016479015350341796875" lon="13.1707893870770931243896484375">
        <ele>307.79998779296875</ele>
        <time>2021-05-25T08:21:10.000Z</time>
        <extensions>
          <ns3:TrackPointExtension>
            <ns3:atemp>20.0</ns3:atemp>
          </ns3:TrackPointExtension>
        </extensions>
      </trkpt>
      <trkpt lat="43.13767111860215663909912109375" lon="13.1709097512066364288330078125">
        <ele>306.399993896484375</ele>
        <time>2021-05-25T08:21:11.000Z</time>
        <extensions>
          <ns3:TrackPointExtension>
            <ns3:atemp>20.0</ns3:atemp>
          </ns3:TrackPointExtension>
        </extensions>
      </trkpt>
      <trkpt lat="43.13770271837711334228515625" lon="13.171039335429668426513671875">
        <ele>305.79998779296875</ele>
        <time>2021-05-25T08:21:12.000Z</time>
        <extensions>
          <ns3:TrackPointExtension>
            <ns3:atemp>20.0</ns3:atemp>
          </ns3:TrackPointExtension>
        </extensions>
      </trkpt>
      <trkpt lat="43.13772409223020076751708984375" lon="13.171155340969562530517578125">
        <ele>305.399993896484375</ele>
        <time>2021-05-25T08:21:13.000Z</time>
        <extensions>
          <ns3:TrackPointExtension>
            <ns3:atemp>20.0</ns3:atemp>
          </ns3:TrackPointExtension>
        </extensions>
      </trkpt>
      <trkpt lat="43.1377330608665943145751953125" lon="13.17124963738024234771728515625">
        <ele>305.20001220703125</ele>
        <time>2021-05-25T08:21:14.000Z</time>
        <extensions>
          <ns3:TrackPointExtension>
            <ns3:atemp>20.0</ns3:atemp>
          </ns3:TrackPointExtension>
        </extensions>
      </trkpt>
      <trkpt lat="43.13775275833904743194580078125" lon="13.1713211350142955780029296875">
        <ele>305</ele>
        <time>2021-05-25T08:21:15.000Z</time>
        <extensions>
          <ns3:TrackPointExtension>
            <ns3:atemp>20.0</ns3:atemp>
          </ns3:TrackPointExtension>
        </extensions>
      </trkpt>
      <trkpt lat="43.1377692706882953643798828125" lon="13.171397745609283447265625">
        <ele>305</ele>
        <time>2021-05-25T08:21:16.000Z</time>
        <extensions>
          <ns3:TrackPointExtension>
            <ns3:atemp>20.0</ns3:atemp>
          </ns3:TrackPointExtension>
        </extensions>
      </trkpt>
      <trkpt lat="43.1378115154802799224853515625" lon="13.1717264838516712188720703125">
        <ele>305</ele>
        <time>2021-05-25T08:21:21.000Z</time>
        <extensions>
          <ns3:TrackPointExtension>
            <ns3:atemp>20.0</ns3:atemp>
          </ns3:TrackPointExtension>
        </extensions>
      </trkpt>
      <trkpt lat="43.1378343142569065093994140625" lon="13.171905018389225006103515625">
        <ele>306.20001220703125</ele>
        <time>2021-05-25T08:21:24.000Z</time>
        <extensions>
          <ns3:TrackPointExtension>
            <ns3:atemp>20.0</ns3:atemp>
          </ns3:TrackPointExtension>
        </extensions>
      </trkpt>
      <trkpt lat="43.13784420490264892578125" lon="13.1719618476927280426025390625">
        <ele>306.600006103515625</ele>
        <time>2021-05-25T08:21:25.000Z</time>
        <extensions>
          <ns3:TrackPointExtension>
            <ns3:atemp>20.0</ns3:atemp>
          </ns3:TrackPointExtension>
        </extensions>
      </trkpt>
      <trkpt lat="43.13786943443119525909423828125" lon="13.17208447493612766265869140625">
        <ele>307.600006103515625</ele>
        <time>2021-05-25T08:21:27.000Z</time>
        <extensions>
          <ns3:TrackPointExtension>
            <ns3:atemp>20.0</ns3:atemp>
          </ns3:TrackPointExtension>
        </extensions>
      </trkpt>
      <trkpt lat="43.1378884613513946533203125" lon="13.17214515991508960723876953125">
        <ele>308</ele>
        <time>2021-05-25T08:21:28.000Z</time>
        <extensions>
          <ns3:TrackPointExtension>
            <ns3:atemp>20.0</ns3:atemp>
          </ns3:TrackPointExtension>
        </extensions>
      </trkpt>
      <trkpt lat="43.13794889487326145172119140625" lon="13.17225412465631961822509765625">
        <ele>309</ele>
        <time>2021-05-25T08:21:30.000Z</time>
        <extensions>
          <ns3:TrackPointExtension>
            <ns3:atemp>20.0</ns3:atemp>
          </ns3:TrackPointExtension>
        </extensions>
      </trkpt>
      <trkpt lat="43.137993402779102325439453125" lon="13.1722897477447986602783203125">
        <ele>309.20001220703125</ele>
        <time>2021-05-25T08:21:31.000Z</time>
        <extensions>
          <ns3:TrackPointExtension>
            <ns3:atemp>20.0</ns3:atemp>
          </ns3:TrackPointExtension>
        </extensions>
      </trkpt>
      <trkpt lat="43.13809373416006565093994140625" lon="13.172328472137451171875">
        <ele>309.600006103515625</ele>
        <time>2021-05-25T08:21:33.000Z</time>
        <extensions>
          <ns3:TrackPointExtension>
            <ns3:atemp>20.0</ns3:atemp>
          </ns3:TrackPointExtension>
        </extensions>
      </trkpt>
      <trkpt lat="43.13819222152233123779296875" lon="13.17235621623694896697998046875">
        <ele>309.79998779296875</ele>
        <time>2021-05-25T08:21:35.000Z</time>
        <extensions>
          <ns3:TrackPointExtension>
            <ns3:atemp>20.0</ns3:atemp>
          </ns3:TrackPointExtension>
        </extensions>
      </trkpt>
      <trkpt lat="43.1382363103330135345458984375" lon="13.17237298004329204559326171875">
        <ele>309.79998779296875</ele>
        <time>2021-05-25T08:21:36.000Z</time>
        <extensions>
          <ns3:TrackPointExtension>
            <ns3:atemp>20.0</ns3:atemp>
          </ns3:TrackPointExtension>
        </extensions>
      </trkpt>
      <trkpt lat="43.13831132836639881134033203125" lon="13.1724127940833568572998046875">
        <ele>310.20001220703125</ele>
        <time>2021-05-25T08:21:38.000Z</time>
        <extensions>
          <ns3:TrackPointExtension>
            <ns3:atemp>20.0</ns3:atemp>
          </ns3:TrackPointExtension>
        </extensions>
      </trkpt>
      <trkpt lat="43.1383429281413555145263671875" lon="13.1724275462329387664794921875">
        <ele>310.20001220703125</ele>
        <time>2021-05-25T08:21:39.000Z</time>
        <extensions>
          <ns3:TrackPointExtension>
            <ns3:atemp>20.0</ns3:atemp>
          </ns3:TrackPointExtension>
        </extensions>
      </trkpt>
      <trkpt lat="43.1383684091269969940185546875" lon="13.1724422983825206756591796875">
        <ele>310.600006103515625</ele>
        <time>2021-05-25T08:21:42.000Z</time>
        <extensions>
          <ns3:TrackPointExtension>
            <ns3:atemp>20.0</ns3:atemp>
          </ns3:TrackPointExtension>
        </extensions>
      </trkpt>
      <trkpt lat="43.1383576802909374237060546875" lon="13.1724359281361103057861328125">
        <ele>311.399993896484375</ele>
        <time>2021-05-25T08:21:44.000Z</time>
        <extensions>
          <ns3:TrackPointExtension>
            <ns3:atemp>20.0</ns3:atemp>
          </ns3:TrackPointExtension>
        </extensions>
      </trkpt>
      <trkpt lat="43.13834234140813350677490234375" lon="13.17242964170873165130615234375">
        <ele>312</ele>
        <time>2021-05-25T08:21:46.000Z</time>
        <extensions>
          <ns3:TrackPointExtension>
            <ns3:atemp>20.0</ns3:atemp>
          </ns3:TrackPointExtension>
        </extensions>
      </trkpt>
      <trkpt lat="43.1383278407156467437744140625" lon="13.17242545075714588165283203125">
        <ele>312.399993896484375</ele>
        <time>2021-05-25T08:21:47.000Z</time>
        <extensions>
          <ns3:TrackPointExtension>
            <ns3:atemp>20.0</ns3:atemp>
          </ns3:TrackPointExtension>
        </extensions>
      </trkpt>
      <trkpt lat="43.13827360980212688446044921875" lon="13.172401897609233856201171875">
        <ele>313.20001220703125</ele>
        <time>2021-05-25T08:21:52.000Z</time>
        <extensions>
          <ns3:TrackPointExtension>
            <ns3:atemp>20.0</ns3:atemp>
          </ns3:TrackPointExtension>
        </extensions>
      </trkpt>
      <trkpt lat="43.13827746547758579254150390625" lon="13.17240156233310699462890625">
        <ele>313</ele>
        <time>2021-05-25T08:22:07.000Z</time>
        <extensions>
          <ns3:TrackPointExtension>
            <ns3:atemp>20.0</ns3:atemp>
          </ns3:TrackPointExtension>
        </extensions>
      </trkpt>
      <trkpt lat="43.1382926367223262786865234375" lon="13.17239888012409210205078125">
        <ele>312.79998779296875</ele>
        <time>2021-05-25T08:22:17.000Z</time>
        <extensions>
          <ns3:TrackPointExtension>
            <ns3:atemp>20.0</ns3:atemp>
          </ns3:TrackPointExtension>
        </extensions>
      </trkpt>
      <trkpt lat="43.13831870444118976593017578125" lon="13.17241673357784748077392578125">
        <ele>312.79998779296875</ele>
        <time>2021-05-25T08:22:20.000Z</time>
        <extensions>
          <ns3:TrackPointExtension>
            <ns3:atemp>20.0</ns3:atemp>
          </ns3:TrackPointExtension>
        </extensions>
      </trkpt>
      <trkpt lat="43.13836991786956787109375" lon="13.1724426336586475372314453125">
        <ele>313</ele>
        <time>2021-05-25T08:22:23.000Z</time>
        <extensions>
          <ns3:TrackPointExtension>
            <ns3:atemp>20.0</ns3:atemp>
          </ns3:TrackPointExtension>
        </extensions>
      </trkpt>
      <trkpt lat="43.13839112408459186553955078125" lon="13.1724577210843563079833984375">
        <ele>313</ele>
        <time>2021-05-25T08:22:24.000Z</time>
        <extensions>
          <ns3:TrackPointExtension>
            <ns3:atemp>20.0</ns3:atemp>
          </ns3:TrackPointExtension>
        </extensions>
      </trkpt>
      <trkpt lat="43.138447366654872894287109375" lon="13.17251798696815967559814453125">
        <ele>313</ele>
        <time>2021-05-25T08:22:27.000Z</time>
        <extensions>
          <ns3:TrackPointExtension>
            <ns3:atemp>20.0</ns3:atemp>
          </ns3:TrackPointExtension>
        </extensions>
      </trkpt>
      <trkpt lat="43.13850645907223224639892578125" lon="13.17256442271173000335693359375">
        <ele>313.20001220703125</ele>
        <time>2021-05-25T08:22:30.000Z</time>
        <extensions>
          <ns3:TrackPointExtension>
            <ns3:atemp>20.0</ns3:atemp>
          </ns3:TrackPointExtension>
        </extensions>
      </trkpt>
      <trkpt lat="43.13852858729660511016845703125" lon="13.17256408743560314178466796875">
        <ele>313.600006103515625</ele>
        <time>2021-05-25T08:22:33.000Z</time>
        <extensions>
          <ns3:TrackPointExtension>
            <ns3:atemp>20.0</ns3:atemp>
          </ns3:TrackPointExtension>
        </extensions>
      </trkpt>
      <trkpt lat="43.138535209000110626220703125" lon="13.17254212684929370880126953125">
        <ele>313.79998779296875</ele>
        <time>2021-05-25T08:22:34.000Z</time>
        <extensions>
          <ns3:TrackPointExtension>
            <ns3:atemp>20.0</ns3:atemp>
          </ns3:TrackPointExtension>
        </extensions>
      </trkpt>
      <trkpt lat="43.13855892978608608245849609375" lon="13.17238471470773220062255859375">
        <ele>314</ele>
        <time>2021-05-25T08:22:38.000Z</time>
        <extensions>
          <ns3:TrackPointExtension>
            <ns3:atemp>20.0</ns3:atemp>
          </ns3:TrackPointExtension>
        </extensions>
      </trkpt>
      <trkpt lat="43.138565719127655029296875" lon="13.1723373569548130035400390625">
        <ele>314.20001220703125</ele>
        <time>2021-05-25T08:22:39.000Z</time>
        <extensions>
          <ns3:TrackPointExtension>
            <ns3:atemp>20.0</ns3:atemp>
          </ns3:TrackPointExtension>
        </extensions>
      </trkpt>
      <trkpt lat="43.13860000111162662506103515625" lon="13.1721110455691814422607421875">
        <ele>314.79998779296875</ele>
        <time>2021-05-25T08:22:44.000Z</time>
        <extensions>
          <ns3:TrackPointExtension>
            <ns3:atemp>20.0</ns3:atemp>
          </ns3:TrackPointExtension>
        </extensions>
      </trkpt>
      <trkpt lat="43.13860469497740268707275390625" lon="13.17206687293946743011474609375">
        <ele>314.79998779296875</ele>
        <time>2021-05-25T08:22:45.000Z</time>
        <extensions>
          <ns3:TrackPointExtension>
            <ns3:atemp>20.0</ns3:atemp>
          </ns3:TrackPointExtension>
        </extensions>
      </trkpt>
      <trkpt lat="43.138629086315631866455078125" lon="13.1717643700540065765380859375">
        <ele>315.20001220703125</ele>
        <time>2021-05-25T08:22:51.000Z</time>
        <extensions>
          <ns3:TrackPointExtension>
            <ns3:atemp>20.0</ns3:atemp>
          </ns3:TrackPointExtension>
        </extensions>
      </trkpt>
      <trkpt lat="43.13861408270895481109619140625" lon="13.17142121493816375732421875">
        <ele>315.600006103515625</ele>
        <time>2021-05-25T08:22:57.000Z</time>
        <extensions>
          <ns3:TrackPointExtension>
            <ns3:atemp>20.0</ns3:atemp>
          </ns3:TrackPointExtension>
        </extensions>
      </trkpt>
      <trkpt lat="43.1385863386094570159912109375" lon="13.17124930210411548614501953125">
        <ele>315.600006103515625</ele>
        <time>2021-05-25T08:23:00.000Z</time>
        <extensions>
          <ns3:TrackPointExtension>
            <ns3:atemp>20.0</ns3:atemp>
          </ns3:TrackPointExtension>
        </extensions>
      </trkpt>
      <trkpt lat="43.13852372579276561737060546875" lon="13.17103589884936809539794921875">
        <ele>315.600006103515625</ele>
        <time>2021-05-25T08:23:03.000Z</time>
        <extensions>
          <ns3:TrackPointExtension>
            <ns3:atemp>20.0</ns3:atemp>
          </ns3:TrackPointExtension>
        </extensions>
      </trkpt>
      <trkpt lat="43.1384331174194812774658203125" lon="13.17060020752251148223876953125">
        <ele>315.20001220703125</ele>
        <time>2021-05-25T08:23:09.000Z</time>
        <extensions>
          <ns3:TrackPointExtension>
            <ns3:atemp>20.0</ns3:atemp>
          </ns3:TrackPointExtension>
        </extensions>
      </trkpt>
      <trkpt lat="43.13840872608125209808349609375" lon="13.17045000381767749786376953125">
        <ele>315</ele>
        <time>2021-05-25T08:23:11.000Z</time>
        <extensions>
          <ns3:TrackPointExtension>
            <ns3:atemp>20.0</ns3:atemp>
          </ns3:TrackPointExtension>
        </extensions>
      </trkpt>
      <trkpt lat="43.1383684091269969940185546875" lon="13.17017625086009502410888671875">
        <ele>315</ele>
        <time>2021-05-25T08:23:15.000Z</time>
        <extensions>
          <ns3:TrackPointExtension>
            <ns3:atemp>20.0</ns3:atemp>
          </ns3:TrackPointExtension>
        </extensions>
      </trkpt>
      <trkpt lat="43.138356171548366546630859375" lon="13.17011221311986446380615234375">
        <ele>315</ele>
        <time>2021-05-25T08:23:16.000Z</time>
        <extensions>
          <ns3:TrackPointExtension>
            <ns3:atemp>20.0</ns3:atemp>
          </ns3:TrackPointExtension>
        </extensions>
      </trkpt>
      <trkpt lat="43.138291798532009124755859375" lon="13.16978481598198413848876953125">
        <ele>315.399993896484375</ele>
        <time>2021-05-25T08:23:21.000Z</time>
        <extensions>
          <ns3:TrackPointExtension>
            <ns3:atemp>20.0</ns3:atemp>
          </ns3:TrackPointExtension>
        </extensions>
      </trkpt>
      <trkpt lat="43.138280399143695831298828125" lon="13.1697138212621212005615234375">
        <ele>315.20001220703125</ele>
        <time>2021-05-25T08:23:22.000Z</time>
        <extensions>
          <ns3:TrackPointExtension>
            <ns3:atemp>20.0</ns3:atemp>
          </ns3:TrackPointExtension>
        </extensions>
      </trkpt>
      <trkpt lat="43.138190209865570068359375" lon="13.16926681436598300933837890625">
        <ele>314.79998779296875</ele>
        <time>2021-05-25T08:23:28.000Z</time>
        <extensions>
          <ns3:TrackPointExtension>
            <ns3:atemp>20.0</ns3:atemp>
          </ns3:TrackPointExtension>
        </extensions>
      </trkpt>
      <trkpt lat="43.138091303408145904541015625" lon="13.16864504478871822357177734375">
        <ele>315.399993896484375</ele>
        <time>2021-05-25T08:23:36.000Z</time>
        <extensions>
          <ns3:TrackPointExtension>
            <ns3:atemp>21.0</ns3:atemp>
          </ns3:TrackPointExtension>
        </extensions>
      </trkpt>
      <trkpt lat="43.13806104473769664764404296875" lon="13.168412111699581146240234375">
        <ele>315.600006103515625</ele>
        <time>2021-05-25T08:23:39.000Z</time>
        <extensions>
          <ns3:TrackPointExtension>
            <ns3:atemp>21.0</ns3:atemp>
          </ns3:TrackPointExtension>
        </extensions>
      </trkpt>
      <trkpt lat="43.13804059289395809173583984375" lon="13.16826702095568180084228515625">
        <ele>315.79998779296875</ele>
        <time>2021-05-25T08:23:41.000Z</time>
        <extensions>
          <ns3:TrackPointExtension>
            <ns3:atemp>21.0</ns3:atemp>
          </ns3:TrackPointExtension>
        </extensions>
      </trkpt>
      <trkpt lat="43.13803003169596195220947265625" lon="13.1681286357343196868896484375">
        <ele>316.20001220703125</ele>
        <time>2021-05-25T08:23:43.000Z</time>
        <extensions>
          <ns3:TrackPointExtension>
            <ns3:atemp>21.0</ns3:atemp>
          </ns3:TrackPointExtension>
        </extensions>
      </trkpt>
      <trkpt lat="43.13801921904087066650390625" lon="13.16799259744584560394287109375">
        <ele>316.399993896484375</ele>
        <time>2021-05-25T08:23:45.000Z</time>
        <extensions>
          <ns3:TrackPointExtension>
            <ns3:atemp>21.0</ns3:atemp>
          </ns3:TrackPointExtension>
        </extensions>
      </trkpt>
      <trkpt lat="43.1379985995590686798095703125" lon="13.1678651086986064910888671875">
        <ele>316.399993896484375</ele>
        <time>2021-05-25T08:23:47.000Z</time>
        <extensions>
          <ns3:TrackPointExtension>
            <ns3:atemp>21.0</ns3:atemp>
          </ns3:TrackPointExtension>
        </extensions>
      </trkpt>
      <trkpt lat="43.1379570253193378448486328125" lon="13.16754047758877277374267578125">
        <ele>317</ele>
        <time>2021-05-25T08:23:52.000Z</time>
        <extensions>
          <ns3:TrackPointExtension>
            <ns3:atemp>21.0</ns3:atemp>
          </ns3:TrackPointExtension>
        </extensions>
      </trkpt>
      <trkpt lat="43.1379473023116588592529296875" lon="13.167476356029510498046875">
        <ele>317.20001220703125</ele>
        <time>2021-05-25T08:23:53.000Z</time>
        <extensions>
          <ns3:TrackPointExtension>
            <ns3:atemp>21.0</ns3:atemp>
          </ns3:TrackPointExtension>
        </extensions>
      </trkpt>
      <trkpt lat="43.137935064733028411865234375" lon="13.167412988841533660888671875">
        <ele>317.399993896484375</ele>
        <time>2021-05-25T08:23:54.000Z</time>
        <extensions>
          <ns3:TrackPointExtension>
            <ns3:atemp>21.0</ns3:atemp>
          </ns3:TrackPointExtension>
        </extensions>
      </trkpt>
      <trkpt lat="43.13789173029363155364990234375" lon="13.1671462766826152801513671875">
        <ele>318</ele>
        <time>2021-05-25T08:23:58.000Z</time>
        <extensions>
          <ns3:TrackPointExtension>
            <ns3:atemp>21.0</ns3:atemp>
          </ns3:TrackPointExtension>
        </extensions>
      </trkpt>
      <trkpt lat="43.13788242638111114501953125" lon="13.1670788861811161041259765625">
        <ele>318.399993896484375</ele>
        <time>2021-05-25T08:23:59.000Z</time>
        <extensions>
          <ns3:TrackPointExtension>
            <ns3:atemp>21.0</ns3:atemp>
          </ns3:TrackPointExtension>
        </extensions>
      </trkpt>
      <trkpt lat="43.1378182210028171539306640625" lon="13.16653347574174404144287109375">
        <ele>318.79998779296875</ele>
        <time>2021-05-25T08:24:07.000Z</time>
        <extensions>
          <ns3:TrackPointExtension>
            <ns3:atemp>21.0</ns3:atemp>
          </ns3:TrackPointExtension>
        </extensions>
      </trkpt>
      <trkpt lat="43.13781009055674076080322265625" lon="13.16634538583457469940185546875">
        <ele>318.600006103515625</ele>
        <time>2021-05-25T08:24:10.000Z</time>
        <extensions>
          <ns3:TrackPointExtension>
            <ns3:atemp>21.0</ns3:atemp>
          </ns3:TrackPointExtension>
        </extensions>
      </trkpt>
      <trkpt lat="43.137794248759746551513671875" lon="13.16624589264392852783203125">
        <ele>318.600006103515625</ele>
        <time>2021-05-25T08:24:12.000Z</time>
        <extensions>
          <ns3:TrackPointExtension>
            <ns3:atemp>21.0</ns3:atemp>
          </ns3:TrackPointExtension>
        </extensions>
      </trkpt>
      <trkpt lat="43.1377679295837879180908203125" lon="13.16611270420253276824951171875">
        <ele>319</ele>
        <time>2021-05-25T08:24:15.000Z</time>
        <extensions>
          <ns3:TrackPointExtension>
            <ns3:atemp>21.0</ns3:atemp>
          </ns3:TrackPointExtension>
        </extensions>
      </trkpt>
      <trkpt lat="43.1377659179270267486572265625" lon="13.16606777720153331756591796875">
        <ele>319.20001220703125</ele>
        <time>2021-05-25T08:24:16.000Z</time>
        <extensions>
          <ns3:TrackPointExtension>
            <ns3:atemp>21.0</ns3:atemp>
          </ns3:TrackPointExtension>
        </extensions>
      </trkpt>
      <trkpt lat="43.1377652473747730255126953125" lon="13.16602997481822967529296875">
        <ele>319.600006103515625</ele>
        <time>2021-05-25T08:24:17.000Z</time>
        <extensions>
          <ns3:TrackPointExtension>
            <ns3:atemp>21.0</ns3:atemp>
          </ns3:TrackPointExtension>
        </extensions>
      </trkpt>
      <trkpt lat="43.13776683993637561798095703125" lon="13.16594221629202365875244140625">
        <ele>320.399993896484375</ele>
        <time>2021-05-25T08:24:20.000Z</time>
        <extensions>
          <ns3:TrackPointExtension>
            <ns3:atemp>21.0</ns3:atemp>
          </ns3:TrackPointExtension>
        </extensions>
      </trkpt>
      <trkpt lat="43.13777002505958080291748046875" lon="13.16591338254511356353759765625">
        <ele>321</ele>
        <time>2021-05-25T08:24:22.000Z</time>
        <extensions>
          <ns3:TrackPointExtension>
            <ns3:atemp>21.0</ns3:atemp>
          </ns3:TrackPointExtension>
        </extensions>
      </trkpt>
      <trkpt lat="43.13777874223887920379638671875" lon="13.1658725626766681671142578125">
        <ele>321.600006103515625</ele>
        <time>2021-05-25T08:24:26.000Z</time>
        <extensions>
          <ns3:TrackPointExtension>
            <ns3:atemp>21.0</ns3:atemp>
          </ns3:TrackPointExtension>
        </extensions>
      </trkpt>
      <trkpt lat="43.13778142444789409637451171875" lon="13.16582084633409976959228515625">
        <ele>322.600006103515625</ele>
        <time>2021-05-25T08:24:29.000Z</time>
        <extensions>
          <ns3:TrackPointExtension>
            <ns3:atemp>21.0</ns3:atemp>
          </ns3:TrackPointExtension>
        </extensions>
      </trkpt>
      <trkpt lat="43.13778528012335300445556640625" lon="13.165799640119075775146484375">
        <ele>322.600006103515625</ele>
        <time>2021-05-25T08:24:31.000Z</time>
        <extensions>
          <ns3:TrackPointExtension>
            <ns3:atemp>21.0</ns3:atemp>
          </ns3:TrackPointExtension>
        </extensions>
      </trkpt>
      <trkpt lat="43.137790225446224212646484375" lon="13.165795616805553436279296875">
        <ele>322.79998779296875</ele>
        <time>2021-05-25T08:24:34.000Z</time>
        <extensions>
          <ns3:TrackPointExtension>
            <ns3:atemp>21.0</ns3:atemp>
          </ns3:TrackPointExtension>
        </extensions>
      </trkpt>
      <trkpt lat="43.13779315911233425140380859375" lon="13.16579603590071201324462890625">
        <ele>323.79998779296875</ele>
        <time>2021-05-25T08:24:40.000Z</time>
        <extensions>
          <ns3:TrackPointExtension>
            <ns3:atemp>21.0</ns3:atemp>
          </ns3:TrackPointExtension>
        </extensions>
      </trkpt>
      <trkpt lat="43.13779785297811031341552734375" lon="13.16579469479620456695556640625">
        <ele>324.20001220703125</ele>
        <time>2021-05-25T08:24:45.000Z</time>
        <extensions>
          <ns3:TrackPointExtension>
            <ns3:atemp>21.0</ns3:atemp>
          </ns3:TrackPointExtension>
        </extensions>
      </trkpt>
      <trkpt lat="43.13780003227293491363525390625" lon="13.16579385660588741302490234375">
        <ele>324.600006103515625</ele>
        <time>2021-05-25T08:25:01.000Z</time>
        <extensions>
          <ns3:TrackPointExtension>
            <ns3:atemp>21.0</ns3:atemp>
          </ns3:TrackPointExtension>
        </extensions>
      </trkpt>
      <trkpt lat="43.13780053518712520599365234375" lon="13.16579352132976055145263671875">
        <ele>323.79998779296875</ele>
        <time>2021-05-25T08:25:24.000Z</time>
        <extensions>
          <ns3:TrackPointExtension>
            <ns3:atemp>21.0</ns3:atemp>
          </ns3:TrackPointExtension>
        </extensions>
      </trkpt>
      <trkpt lat="43.13780237920582294464111328125" lon="13.165781199932098388671875">
        <ele>324.399993896484375</ele>
        <time>2021-05-25T08:25:33.000Z</time>
        <extensions>
          <ns3:TrackPointExtension>
            <ns3:atemp>21.0</ns3:atemp>
          </ns3:TrackPointExtension>
        </extensions>
      </trkpt>
      <trkpt lat="43.13781511969864368438720703125" lon="13.165775500237941741943359375">
        <ele>324.399993896484375</ele>
        <time>2021-05-25T08:25:45.000Z</time>
        <extensions>
          <ns3:TrackPointExtension>
            <ns3:atemp>21.0</ns3:atemp>
          </ns3:TrackPointExtension>
        </extensions>
      </trkpt>
      <trkpt lat="43.1378235854208469390869140625" lon="13.1657692976295948028564453125">
        <ele>324.20001220703125</ele>
        <time>2021-05-25T08:25:53.000Z</time>
        <extensions>
          <ns3:TrackPointExtension>
            <ns3:atemp>21.0</ns3:atemp>
          </ns3:TrackPointExtension>
        </extensions>
      </trkpt>
      <trkpt lat="43.13783003948628902435302734375" lon="13.16564717330038547515869140625">
        <ele>323.399993896484375</ele>
        <time>2021-05-25T08:25:59.000Z</time>
        <extensions>
          <ns3:TrackPointExtension>
            <ns3:atemp>21.0</ns3:atemp>
          </ns3:TrackPointExtension>
        </extensions>
      </trkpt>
      <trkpt lat="43.1378172151744365692138671875" lon="13.16549009643495082855224609375">
        <ele>323.399993896484375</ele>
        <time>2021-05-25T08:26:03.000Z</time>
        <extensions>
          <ns3:TrackPointExtension>
            <ns3:atemp>21.0</ns3:atemp>
          </ns3:TrackPointExtension>
        </extensions>
      </trkpt>
      <trkpt lat="43.13781671226024627685546875" lon="13.1654346920549869537353515625">
        <ele>323.399993896484375</ele>
        <time>2021-05-25T08:26:05.000Z</time>
        <extensions>
          <ns3:TrackPointExtension>
            <ns3:atemp>21.0</ns3:atemp>
          </ns3:TrackPointExtension>
        </extensions>
      </trkpt>
      <trkpt lat="43.137810342013835906982421875" lon="13.16539789550006389617919921875">
        <ele>323.79998779296875</ele>
        <time>2021-05-25T08:26:11.000Z</time>
        <extensions>
          <ns3:TrackPointExtension>
            <ns3:atemp>22.0</ns3:atemp>
          </ns3:TrackPointExtension>
        </extensions>
      </trkpt>
      <trkpt lat="43.13780925236642360687255859375" lon="13.16541650332510471343994140625">
        <ele>324.20001220703125</ele>
        <time>2021-05-25T08:26:17.000Z</time>
        <extensions>
          <ns3:TrackPointExtension>
            <ns3:atemp>22.0</ns3:atemp>
          </ns3:TrackPointExtension>
        </extensions>
      </trkpt>
      <trkpt lat="43.13780690543353557586669921875" lon="13.165425471961498260498046875">
        <ele>324.20001220703125</ele>
        <time>2021-05-25T08:26:26.000Z</time>
        <extensions>
          <ns3:TrackPointExtension>
            <ns3:atemp>22.0</ns3:atemp>
          </ns3:TrackPointExtension>
        </extensions>
      </trkpt>
      <trkpt lat="43.13781042583286762237548828125" lon="13.16542186774313449859619140625">
        <ele>324.20001220703125</ele>
        <time>2021-05-25T08:26:34.000Z</time>
        <extensions>
          <ns3:TrackPointExtension>
            <ns3:atemp>22.0</ns3:atemp>
          </ns3:TrackPointExtension>
        </extensions>
      </trkpt>
      <trkpt lat="43.1378152035176753997802734375" lon="13.165402673184871673583984375">
        <ele>324.20001220703125</ele>
        <time>2021-05-25T08:26:36.000Z</time>
        <extensions>
          <ns3:TrackPointExtension>
            <ns3:atemp>22.0</ns3:atemp>
          </ns3:TrackPointExtension>
        </extensions>
      </trkpt>
      <trkpt lat="43.1378172151744365692138671875" lon="13.16536084748804569244384765625">
        <ele>324.20001220703125</ele>
        <time>2021-05-25T08:26:38.000Z</time>
        <extensions>
          <ns3:TrackPointExtension>
            <ns3:atemp>22.0</ns3:atemp>
          </ns3:TrackPointExtension>
        </extensions>
      </trkpt>
      <trkpt lat="43.1377940811216831207275390625" lon="13.16527518443763256072998046875">
        <ele>324</ele>
        <time>2021-05-25T08:26:41.000Z</time>
        <extensions>
          <ns3:TrackPointExtension>
            <ns3:atemp>22.0</ns3:atemp>
          </ns3:TrackPointExtension>
        </extensions>
      </trkpt>
      <trkpt lat="43.13777136616408824920654296875" lon="13.16509597934782505035400390625">
        <ele>323.399993896484375</ele>
        <time>2021-05-25T08:26:47.000Z</time>
        <extensions>
          <ns3:TrackPointExtension>
            <ns3:atemp>22.0</ns3:atemp>
          </ns3:TrackPointExtension>
        </extensions>
      </trkpt>
      <trkpt lat="43.137774132192134857177734375" lon="13.1649096496403217315673828125">
        <ele>323.20001220703125</ele>
        <time>2021-05-25T08:26:51.000Z</time>
        <extensions>
          <ns3:TrackPointExtension>
            <ns3:atemp>22.0</ns3:atemp>
          </ns3:TrackPointExtension>
        </extensions>
      </trkpt>
      <trkpt lat="43.13776440918445587158203125" lon="13.1648566760122776031494140625">
        <ele>323.20001220703125</ele>
        <time>2021-05-25T08:26:52.000Z</time>
        <extensions>
          <ns3:TrackPointExtension>
            <ns3:atemp>22.0</ns3:atemp>
          </ns3:TrackPointExtension>
        </extensions>
      </trkpt>
      <trkpt lat="43.1377333961427211761474609375" lon="13.16460647620260715484619140625">
        <ele>323</ele>
        <time>2021-05-25T08:26:56.000Z</time>
        <extensions>
          <ns3:TrackPointExtension>
            <ns3:atemp>22.0</ns3:atemp>
          </ns3:TrackPointExtension>
        </extensions>
      </trkpt>
      <trkpt lat="43.13772476278245449066162109375" lon="13.1645374931395053863525390625">
        <ele>323</ele>
        <time>2021-05-25T08:26:57.000Z</time>
        <extensions>
          <ns3:TrackPointExtension>
            <ns3:atemp>22.0</ns3:atemp>
          </ns3:TrackPointExtension>
        </extensions>
      </trkpt>
      <trkpt lat="43.137683607637882232666015625" lon="13.1640932522714138031005859375">
        <ele>322.600006103515625</ele>
        <time>2021-05-25T08:27:03.000Z</time>
        <extensions>
          <ns3:TrackPointExtension>
            <ns3:atemp>22.0</ns3:atemp>
          </ns3:TrackPointExtension>
        </extensions>
      </trkpt>
      <trkpt lat="43.1376358307898044586181640625" lon="13.163623027503490447998046875">
        <ele>322.20001220703125</ele>
        <time>2021-05-25T08:27:10.000Z</time>
        <extensions>
          <ns3:TrackPointExtension>
            <ns3:atemp>22.0</ns3:atemp>
          </ns3:TrackPointExtension>
        </extensions>
      </trkpt>
      <trkpt lat="43.137632310390472412109375" lon="13.1635598279535770416259765625">
        <ele>322</ele>
        <time>2021-05-25T08:27:11.000Z</time>
        <extensions>
          <ns3:TrackPointExtension>
            <ns3:atemp>22.0</ns3:atemp>
          </ns3:TrackPointExtension>
        </extensions>
      </trkpt>
      <trkpt lat="43.1376207433640956878662109375" lon="13.16319479607045650482177734375">
        <ele>321.20001220703125</ele>
        <time>2021-05-25T08:27:17.000Z</time>
        <extensions>
          <ns3:TrackPointExtension>
            <ns3:atemp>22.0</ns3:atemp>
          </ns3:TrackPointExtension>
        </extensions>
      </trkpt>
      <trkpt lat="43.1376363337039947509765625" lon="13.16300980746746063232421875">
        <ele>321</ele>
        <time>2021-05-25T08:27:20.000Z</time>
        <extensions>
          <ns3:TrackPointExtension>
            <ns3:atemp>22.0</ns3:atemp>
          </ns3:TrackPointExtension>
        </extensions>
      </trkpt>
      <trkpt lat="43.1376432068645954132080078125" lon="13.16280461847782135009765625">
        <ele>321.20001220703125</ele>
        <time>2021-05-25T08:27:23.000Z</time>
        <extensions>
          <ns3:TrackPointExtension>
            <ns3:atemp>22.0</ns3:atemp>
          </ns3:TrackPointExtension>
        </extensions>
      </trkpt>
      <trkpt lat="43.13763474114239215850830078125" lon="13.16257872618734836578369140625">
        <ele>321.20001220703125</ele>
        <time>2021-05-25T08:27:26.000Z</time>
        <extensions>
          <ns3:TrackPointExtension>
            <ns3:atemp>22.0</ns3:atemp>
          </ns3:TrackPointExtension>
        </extensions>
      </trkpt>
      <trkpt lat="43.13760121352970600128173828125" lon="13.16234570927917957305908203125">
        <ele>321.20001220703125</ele>
        <time>2021-05-25T08:27:29.000Z</time>
        <extensions>
          <ns3:TrackPointExtension>
            <ns3:atemp>22.0</ns3:atemp>
          </ns3:TrackPointExtension>
        </extensions>
      </trkpt>
      <trkpt lat="43.13758629374206066131591796875" lon="13.1622693501412868499755859375">
        <ele>321.20001220703125</ele>
        <time>2021-05-25T08:27:30.000Z</time>
        <extensions>
          <ns3:TrackPointExtension>
            <ns3:atemp>22.0</ns3:atemp>
          </ns3:TrackPointExtension>
        </extensions>
      </trkpt>
      <trkpt lat="43.13751169480383396148681640625" lon="13.16196768544614315032958984375">
        <ele>321.600006103515625</ele>
        <time>2021-05-25T08:27:34.000Z</time>
        <extensions>
          <ns3:TrackPointExtension>
            <ns3:atemp>22.0</ns3:atemp>
          </ns3:TrackPointExtension>
        </extensions>
      </trkpt>
      <trkpt lat="43.13741362653672695159912109375" lon="13.1617825292050838470458984375">
        <ele>321.79998779296875</ele>
        <time>2021-05-25T08:27:37.000Z</time>
        <extensions>
          <ns3:TrackPointExtension>
            <ns3:atemp>22.0</ns3:atemp>
          </ns3:TrackPointExtension>
        </extensions>
      </trkpt>
      <trkpt lat="43.13734020106494426727294921875" lon="13.1616809405386447906494140625">
        <ele>322.20001220703125</ele>
        <time>2021-05-25T08:27:39.000Z</time>
        <extensions>
          <ns3:TrackPointExtension>
            <ns3:atemp>22.0</ns3:atemp>
          </ns3:TrackPointExtension>
        </extensions>
      </trkpt>
      <trkpt lat="43.13709788024425506591796875" lon="13.1613657809793949127197265625">
        <ele>322.399993896484375</ele>
        <time>2021-05-25T08:27:45.000Z</time>
        <extensions>
          <ns3:TrackPointExtension>
            <ns3:atemp>22.0</ns3:atemp>
          </ns3:TrackPointExtension>
        </extensions>
      </trkpt>
      <trkpt lat="43.1369589082896709442138671875" lon="13.1610321812331676483154296875">
        <ele>322</ele>
        <time>2021-05-25T08:27:50.000Z</time>
        <extensions>
          <ns3:TrackPointExtension>
            <ns3:atemp>22.0</ns3:atemp>
          </ns3:TrackPointExtension>
        </extensions>
      </trkpt>
      <trkpt lat="43.13694574870169162750244140625" lon="13.16096135415136814117431640625">
        <ele>322</ele>
        <time>2021-05-25T08:27:51.000Z</time>
        <extensions>
          <ns3:TrackPointExtension>
            <ns3:atemp>22.0</ns3:atemp>
          </ns3:TrackPointExtension>
        </extensions>
      </trkpt>
      <trkpt lat="43.13693937845528125762939453125" lon="13.16088549792766571044921875">
        <ele>321.79998779296875</ele>
        <time>2021-05-25T08:27:52.000Z</time>
        <extensions>
          <ns3:TrackPointExtension>
            <ns3:atemp>22.0</ns3:atemp>
          </ns3:TrackPointExtension>
        </extensions>
      </trkpt>
      <trkpt lat="43.13695329241454601287841796875" lon="13.1607284210622310638427734375">
        <ele>321.79998779296875</ele>
        <time>2021-05-25T08:27:54.000Z</time>
        <extensions>
          <ns3:TrackPointExtension>
            <ns3:atemp>22.0</ns3:atemp>
          </ns3:TrackPointExtension>
        </extensions>
      </trkpt>
      <trkpt lat="43.1370782665908336639404296875" lon="13.16055231727659702301025390625">
        <ele>321.79998779296875</ele>
        <time>2021-05-25T08:27:57.000Z</time>
        <extensions>
          <ns3:TrackPointExtension>
            <ns3:atemp>22.0</ns3:atemp>
          </ns3:TrackPointExtension>
        </extensions>
      </trkpt>
      <trkpt lat="43.1372324936091899871826171875" lon="13.16048895008862018585205078125">
        <ele>321.399993896484375</ele>
        <time>2021-05-25T08:28:00.000Z</time>
        <extensions>
          <ns3:TrackPointExtension>
            <ns3:atemp>22.0</ns3:atemp>
          </ns3:TrackPointExtension>
        </extensions>
      </trkpt>
      <trkpt lat="43.1373421289026737213134765625" lon="13.16047654487192630767822265625">
        <ele>321.600006103515625</ele>
        <time>2021-05-25T08:28:02.000Z</time>
        <extensions>
          <ns3:TrackPointExtension>
            <ns3:atemp>22.0</ns3:atemp>
          </ns3:TrackPointExtension>
        </extensions>
      </trkpt>
      <trkpt lat="43.13750884495675563812255859375" lon="13.1604498066008090972900390625">
        <ele>322</ele>
        <time>2021-05-25T08:28:05.000Z</time>
        <extensions>
          <ns3:TrackPointExtension>
            <ns3:atemp>22.0</ns3:atemp>
          </ns3:TrackPointExtension>
        </extensions>
      </trkpt>
      <trkpt lat="43.13780724070966243743896484375" lon="13.160342685878276824951171875">
        <ele>322.600006103515625</ele>
        <time>2021-05-25T08:28:11.000Z</time>
        <extensions>
          <ns3:TrackPointExtension>
            <ns3:atemp>22.0</ns3:atemp>
          </ns3:TrackPointExtension>
        </extensions>
      </trkpt>
      <trkpt lat="43.13795040361583232879638671875" lon="13.160269260406494140625">
        <ele>323.20001220703125</ele>
        <time>2021-05-25T08:28:14.000Z</time>
        <extensions>
          <ns3:TrackPointExtension>
            <ns3:atemp>22.0</ns3:atemp>
          </ns3:TrackPointExtension>
        </extensions>
      </trkpt>
      <trkpt lat="43.13809356652200222015380859375" lon="13.1602013669908046722412109375">
        <ele>323.399993896484375</ele>
        <time>2021-05-25T08:28:17.000Z</time>
        <extensions>
          <ns3:TrackPointExtension>
            <ns3:atemp>22.0</ns3:atemp>
          </ns3:TrackPointExtension>
        </extensions>
      </trkpt>
      <trkpt lat="43.13813991844654083251953125" lon="13.16017194651067256927490234375">
        <ele>323.600006103515625</ele>
        <time>2021-05-25T08:28:18.000Z</time>
        <extensions>
          <ns3:TrackPointExtension>
            <ns3:atemp>22.0</ns3:atemp>
          </ns3:TrackPointExtension>
        </extensions>
      </trkpt>
      <trkpt lat="43.13846102915704250335693359375" lon="13.15994203090667724609375">
        <ele>324</ele>
        <time>2021-05-25T08:28:25.000Z</time>
        <extensions>
          <ns3:TrackPointExtension>
            <ns3:atemp>22.0</ns3:atemp>
          </ns3:TrackPointExtension>
        </extensions>
      </trkpt>
      <trkpt lat="43.1386111490428447723388671875" lon="13.15971203148365020751953125">
        <ele>324.20001220703125</ele>
        <time>2021-05-25T08:28:29.000Z</time>
        <extensions>
          <ns3:TrackPointExtension>
            <ns3:atemp>22.0</ns3:atemp>
          </ns3:TrackPointExtension>
        </extensions>
      </trkpt>
      <trkpt lat="43.1386689841747283935546875" lon="13.15959133207798004150390625">
        <ele>324.20001220703125</ele>
        <time>2021-05-25T08:28:31.000Z</time>
        <extensions>
          <ns3:TrackPointExtension>
            <ns3:atemp>22.0</ns3:atemp>
          </ns3:TrackPointExtension>
        </extensions>
      </trkpt>
      <trkpt lat="43.138724304735660552978515625" lon="13.15938211977481842041015625">
        <ele>324</ele>
        <time>2021-05-25T08:28:34.000Z</time>
        <extensions>
          <ns3:TrackPointExtension>
            <ns3:atemp>22.0</ns3:atemp>
          </ns3:TrackPointExtension>
        </extensions>
      </trkpt>
      <trkpt lat="43.1387338601052761077880859375" lon="13.15913057886064052581787109375">
        <ele>323.600006103515625</ele>
        <time>2021-05-25T08:28:37.000Z</time>
        <extensions>
          <ns3:TrackPointExtension>
            <ns3:atemp>22.0</ns3:atemp>
          </ns3:TrackPointExtension>
        </extensions>
      </trkpt>
      <trkpt lat="43.13872992061078548431396484375" lon="13.15904206596314907073974609375">
        <ele>323.399993896484375</ele>
        <time>2021-05-25T08:28:38.000Z</time>
        <extensions>
          <ns3:TrackPointExtension>
            <ns3:atemp>22.0</ns3:atemp>
          </ns3:TrackPointExtension>
        </extensions>
      </trkpt>
      <trkpt lat="43.138632439076900482177734375" lon="13.15849967300891876220703125">
        <ele>323.20001220703125</ele>
        <time>2021-05-25T08:28:44.000Z</time>
        <extensions>
          <ns3:TrackPointExtension>
            <ns3:atemp>22.0</ns3:atemp>
          </ns3:TrackPointExtension>
        </extensions>
      </trkpt>
      <trkpt lat="43.138611316680908203125" lon="13.1584119983017444610595703125">
        <ele>323.20001220703125</ele>
        <time>2021-05-25T08:28:45.000Z</time>
        <extensions>
          <ns3:TrackPointExtension>
            <ns3:atemp>22.0</ns3:atemp>
          </ns3:TrackPointExtension>
        </extensions>
      </trkpt>
      <trkpt lat="43.13852506689727306365966796875" lon="13.15808418206870555877685546875">
        <ele>323</ele>
        <time>2021-05-25T08:28:49.000Z</time>
        <extensions>
          <ns3:TrackPointExtension>
            <ns3:atemp>22.0</ns3:atemp>
          </ns3:TrackPointExtension>
        </extensions>
      </trkpt>
      <trkpt lat="43.1384904496371746063232421875" lon="13.15801821649074554443359375">
        <ele>322.79998779296875</ele>
        <time>2021-05-25T08:28:50.000Z</time>
        <extensions>
          <ns3:TrackPointExtension>
            <ns3:atemp>22.0</ns3:atemp>
          </ns3:TrackPointExtension>
        </extensions>
      </trkpt>
      <trkpt lat="43.13837117515504360198974609375" lon="13.15786692313849925994873046875">
        <ele>322.600006103515625</ele>
        <time>2021-05-25T08:28:53.000Z</time>
        <extensions>
          <ns3:TrackPointExtension>
            <ns3:atemp>22.0</ns3:atemp>
          </ns3:TrackPointExtension>
        </extensions>
      </trkpt>
      <trkpt lat="43.138292469084262847900390625" lon="13.15779198892414569854736328125">
        <ele>322.79998779296875</ele>
        <time>2021-05-25T08:28:55.000Z</time>
        <extensions>
          <ns3:TrackPointExtension>
            <ns3:atemp>22.0</ns3:atemp>
          </ns3:TrackPointExtension>
        </extensions>
      </trkpt>
      <trkpt lat="43.13817369751632213592529296875" lon="13.15768696367740631103515625">
        <ele>323.20001220703125</ele>
        <time>2021-05-25T08:28:58.000Z</time>
        <extensions>
          <ns3:TrackPointExtension>
            <ns3:atemp>22.0</ns3:atemp>
          </ns3:TrackPointExtension>
        </extensions>
      </trkpt>
      <trkpt lat="43.138111419975757598876953125" lon="13.15761127509176731109619140625">
        <ele>323.20001220703125</ele>
        <time>2021-05-25T08:29:00.000Z</time>
        <extensions>
          <ns3:TrackPointExtension>
            <ns3:atemp>22.0</ns3:atemp>
          </ns3:TrackPointExtension>
        </extensions>
      </trkpt>
      <trkpt lat="43.137939088046550750732421875" lon="13.15744564868509769439697265625">
        <ele>324</ele>
        <time>2021-05-25T08:29:05.000Z</time>
        <extensions>
          <ns3:TrackPointExtension>
            <ns3:atemp>22.0</ns3:atemp>
          </ns3:TrackPointExtension>
        </extensions>
      </trkpt>
      <trkpt lat="43.1379063986241817474365234375" lon="13.15740910358726978302001953125">
        <ele>324.20001220703125</ele>
        <time>2021-05-25T08:29:06.000Z</time>
        <extensions>
          <ns3:TrackPointExtension>
            <ns3:atemp>22.0</ns3:atemp>
          </ns3:TrackPointExtension>
        </extensions>
      </trkpt>
      <trkpt lat="43.137876726686954498291015625" lon="13.15736937336623668670654296875">
        <ele>324.20001220703125</ele>
        <time>2021-05-25T08:29:07.000Z</time>
        <extensions>
          <ns3:TrackPointExtension>
            <ns3:atemp>22.0</ns3:atemp>
          </ns3:TrackPointExtension>
        </extensions>
      </trkpt>
      <trkpt lat="43.13773180358111858367919921875" lon="13.1571617536246776580810546875">
        <ele>324.600006103515625</ele>
        <time>2021-05-25T08:29:12.000Z</time>
        <extensions>
          <ns3:TrackPointExtension>
            <ns3:atemp>22.0</ns3:atemp>
          </ns3:TrackPointExtension>
        </extensions>
      </trkpt>
      <trkpt lat="43.13769106753170490264892578125" lon="13.1570497713983058929443359375">
        <ele>325.20001220703125</ele>
        <time>2021-05-25T08:29:14.000Z</time>
        <extensions>
          <ns3:TrackPointExtension>
            <ns3:atemp>22.0</ns3:atemp>
          </ns3:TrackPointExtension>
        </extensions>
      </trkpt>
      <trkpt lat="43.13764178194105625152587890625" lon="13.15687333233654499053955078125">
        <ele>325.79998779296875</ele>
        <time>2021-05-25T08:29:17.000Z</time>
        <extensions>
          <ns3:TrackPointExtension>
            <ns3:atemp>22.0</ns3:atemp>
          </ns3:TrackPointExtension>
        </extensions>
      </trkpt>
      <trkpt lat="43.13762820325791835784912109375" lon="13.15681365318596363067626953125">
        <ele>325.79998779296875</ele>
        <time>2021-05-25T08:29:18.000Z</time>
        <extensions>
          <ns3:TrackPointExtension>
            <ns3:atemp>22.0</ns3:atemp>
          </ns3:TrackPointExtension>
        </extensions>
      </trkpt>
      <trkpt lat="43.137616217136383056640625" lon="13.156755901873111724853515625">
        <ele>326</ele>
        <time>2021-05-25T08:29:19.000Z</time>
        <extensions>
          <ns3:TrackPointExtension>
            <ns3:atemp>22.0</ns3:atemp>
          </ns3:TrackPointExtension>
        </extensions>
      </trkpt>
      <trkpt lat="43.1375972740352153778076171875" lon="13.156581223011016845703125">
        <ele>326.399993896484375</ele>
        <time>2021-05-25T08:29:22.000Z</time>
        <extensions>
          <ns3:TrackPointExtension>
            <ns3:atemp>22.0</ns3:atemp>
          </ns3:TrackPointExtension>
        </extensions>
      </trkpt>
      <trkpt lat="43.137584030628204345703125" lon="13.156468234956264495849609375">
        <ele>326.399993896484375</ele>
        <time>2021-05-25T08:29:24.000Z</time>
        <extensions>
          <ns3:TrackPointExtension>
            <ns3:atemp>22.0</ns3:atemp>
          </ns3:TrackPointExtension>
        </extensions>
      </trkpt>
      <trkpt lat="43.1375704519450664520263671875" lon="13.1563121639192104339599609375">
        <ele>327.399993896484375</ele>
        <time>2021-05-25T08:29:27.000Z</time>
        <extensions>
          <ns3:TrackPointExtension>
            <ns3:atemp>22.0</ns3:atemp>
          </ns3:TrackPointExtension>
        </extensions>
      </trkpt>
      <trkpt lat="43.13756617717444896697998046875" lon="13.156216777861118316650390625">
        <ele>328.600006103515625</ele>
        <time>2021-05-25T08:29:29.000Z</time>
        <extensions>
          <ns3:TrackPointExtension>
            <ns3:atemp>22.0</ns3:atemp>
          </ns3:TrackPointExtension>
        </extensions>
      </trkpt>
      <trkpt lat="43.13755997456610202789306640625" lon="13.15617620944976806640625">
        <ele>328.79998779296875</ele>
        <time>2021-05-25T08:29:30.000Z</time>
        <extensions>
          <ns3:TrackPointExtension>
            <ns3:atemp>22.0</ns3:atemp>
          </ns3:TrackPointExtension>
        </extensions>
      </trkpt>
      <trkpt lat="43.1375556997954845428466796875" lon="13.155972026288509368896484375">
        <ele>329.600006103515625</ele>
        <time>2021-05-25T08:29:35.000Z</time>
        <extensions>
          <ns3:TrackPointExtension>
            <ns3:atemp>22.0</ns3:atemp>
          </ns3:TrackPointExtension>
        </extensions>
      </trkpt>
      <trkpt lat="43.1375540234148502349853515625" lon="13.15593539737164974212646484375">
        <ele>329.600006103515625</ele>
        <time>2021-05-25T08:29:36.000Z</time>
        <extensions>
          <ns3:TrackPointExtension>
            <ns3:atemp>22.0</ns3:atemp>
          </ns3:TrackPointExtension>
        </extensions>
      </trkpt>
      <trkpt lat="43.13754522241652011871337890625" lon="13.15581478178501129150390625">
        <ele>331.20001220703125</ele>
        <time>2021-05-25T08:29:39.000Z</time>
        <extensions>
          <ns3:TrackPointExtension>
            <ns3:atemp>22.0</ns3:atemp>
          </ns3:TrackPointExtension>
        </extensions>
      </trkpt>
      <trkpt lat="43.137532733380794525146484375" lon="13.1556858681142330169677734375">
        <ele>332.600006103515625</ele>
        <time>2021-05-25T08:29:42.000Z</time>
        <extensions>
          <ns3:TrackPointExtension>
            <ns3:atemp>22.0</ns3:atemp>
          </ns3:TrackPointExtension>
        </extensions>
      </trkpt>
      <trkpt lat="43.1375298835337162017822265625" lon="13.15564219839870929718017578125">
        <ele>332.79998779296875</ele>
        <time>2021-05-25T08:29:43.000Z</time>
        <extensions>
          <ns3:TrackPointExtension>
            <ns3:atemp>22.0</ns3:atemp>
          </ns3:TrackPointExtension>
        </extensions>
      </trkpt>
      <trkpt lat="43.137527368962764739990234375" lon="13.155465424060821533203125">
        <ele>333.79998779296875</ele>
        <time>2021-05-25T08:29:47.000Z</time>
        <extensions>
          <ns3:TrackPointExtension>
            <ns3:atemp>22.0</ns3:atemp>
          </ns3:TrackPointExtension>
        </extensions>
      </trkpt>
      <trkpt lat="43.1375312246382236480712890625" lon="13.1553871370851993560791015625">
        <ele>335.20001220703125</ele>
        <time>2021-05-25T08:29:49.000Z</time>
        <extensions>
          <ns3:TrackPointExtension>
            <ns3:atemp>22.0</ns3:atemp>
          </ns3:TrackPointExtension>
        </extensions>
      </trkpt>
      <trkpt lat="43.13753348775207996368408203125" lon="13.1553487479686737060546875">
        <ele>335.600006103515625</ele>
        <time>2021-05-25T08:29:50.000Z</time>
        <extensions>
          <ns3:TrackPointExtension>
            <ns3:atemp>22.0</ns3:atemp>
          </ns3:TrackPointExtension>
        </extensions>
      </trkpt>
      <trkpt lat="43.13754756934940814971923828125" lon="13.15522461198270320892333984375">
        <ele>336.399993896484375</ele>
        <time>2021-05-25T08:29:53.000Z</time>
        <extensions>
          <ns3:TrackPointExtension>
            <ns3:atemp>22.0</ns3:atemp>
          </ns3:TrackPointExtension>
        </extensions>
      </trkpt>
      <trkpt lat="43.1376041471958160400390625" lon="13.15510936081409454345703125">
        <ele>336.79998779296875</ele>
        <time>2021-05-25T08:29:56.000Z</time>
        <extensions>
          <ns3:TrackPointExtension>
            <ns3:atemp>22.0</ns3:atemp>
          </ns3:TrackPointExtension>
        </extensions>
      </trkpt>
      <trkpt lat="43.1376703642308712005615234375" lon="13.15499804913997650146484375">
        <ele>337.79998779296875</ele>
        <time>2021-05-25T08:29:59.000Z</time>
        <extensions>
          <ns3:TrackPointExtension>
            <ns3:atemp>22.0</ns3:atemp>
          </ns3:TrackPointExtension>
        </extensions>
      </trkpt>
      <trkpt lat="43.13771881163120269775390625" lon="13.15492831170558929443359375">
        <ele>339.399993896484375</ele>
        <time>2021-05-25T08:30:01.000Z</time>
        <extensions>
          <ns3:TrackPointExtension>
            <ns3:atemp>22.0</ns3:atemp>
          </ns3:TrackPointExtension>
        </extensions>
      </trkpt>
      <trkpt lat="43.13776901923120021820068359375" lon="13.1548590771853923797607421875">
        <ele>340.399993896484375</ele>
        <time>2021-05-25T08:30:03.000Z</time>
        <extensions>
          <ns3:TrackPointExtension>
            <ns3:atemp>22.0</ns3:atemp>
          </ns3:TrackPointExtension>
        </extensions>
      </trkpt>
      <trkpt lat="43.13791452907025814056396484375" lon="13.15463234670460224151611328125">
        <ele>341.79998779296875</ele>
        <time>2021-05-25T08:30:10.000Z</time>
        <extensions>
          <ns3:TrackPointExtension>
            <ns3:atemp>22.0</ns3:atemp>
          </ns3:TrackPointExtension>
        </extensions>
      </trkpt>
      <trkpt lat="43.13793716020882129669189453125" lon="13.15454685129225254058837890625">
        <ele>342.79998779296875</ele>
        <time>2021-05-25T08:30:12.000Z</time>
        <extensions>
          <ns3:TrackPointExtension>
            <ns3:atemp>22.0</ns3:atemp>
          </ns3:TrackPointExtension>
        </extensions>
      </trkpt>
      <trkpt lat="43.137954175472259521484375" lon="13.15442539751529693603515625">
        <ele>344.399993896484375</ele>
        <time>2021-05-25T08:30:15.000Z</time>
        <extensions>
          <ns3:TrackPointExtension>
            <ns3:atemp>22.0</ns3:atemp>
          </ns3:TrackPointExtension>
        </extensions>
      </trkpt>
      <trkpt lat="43.1379603780806064605712890625" lon="13.15438256599009037017822265625">
        <ele>344.79998779296875</ele>
        <time>2021-05-25T08:30:16.000Z</time>
        <extensions>
          <ns3:TrackPointExtension>
            <ns3:atemp>22.0</ns3:atemp>
          </ns3:TrackPointExtension>
        </extensions>
      </trkpt>
      <trkpt lat="43.13800605945289134979248046875" lon="13.15426354296505451202392578125">
        <ele>345.399993896484375</ele>
        <time>2021-05-25T08:30:19.000Z</time>
        <extensions>
          <ns3:TrackPointExtension>
            <ns3:atemp>22.0</ns3:atemp>
          </ns3:TrackPointExtension>
        </extensions>
      </trkpt>
      <trkpt lat="43.13805517740547657012939453125" lon="13.1541945599019527435302734375">
        <ele>345.79998779296875</ele>
        <time>2021-05-25T08:30:21.000Z</time>
        <extensions>
          <ns3:TrackPointExtension>
            <ns3:atemp>22.0</ns3:atemp>
          </ns3:TrackPointExtension>
        </extensions>
      </trkpt>
      <trkpt lat="43.1381142698228359222412109375" lon="13.154140412807464599609375">
        <ele>346.399993896484375</ele>
        <time>2021-05-25T08:30:23.000Z</time>
        <extensions>
          <ns3:TrackPointExtension>
            <ns3:atemp>22.0</ns3:atemp>
          </ns3:TrackPointExtension>
        </extensions>
      </trkpt>
      <trkpt lat="43.138174451887607574462890625" lon="13.15410085022449493408203125">
        <ele>347.600006103515625</ele>
        <time>2021-05-25T08:30:25.000Z</time>
        <extensions>
          <ns3:TrackPointExtension>
            <ns3:atemp>22.0</ns3:atemp>
          </ns3:TrackPointExtension>
        </extensions>
      </trkpt>
      <trkpt lat="43.138236142694950103759765625" lon="13.1540601141750812530517578125">
        <ele>348.600006103515625</ele>
        <time>2021-05-25T08:30:27.000Z</time>
        <extensions>
          <ns3:TrackPointExtension>
            <ns3:atemp>22.0</ns3:atemp>
          </ns3:TrackPointExtension>
        </extensions>
      </trkpt>
      <trkpt lat="43.13826673664152622222900390625" lon="13.15403237007558345794677734375">
        <ele>348.79998779296875</ele>
        <time>2021-05-25T08:30:28.000Z</time>
        <extensions>
          <ns3:TrackPointExtension>
            <ns3:atemp>22.0</ns3:atemp>
          </ns3:TrackPointExtension>
        </extensions>
      </trkpt>
      <trkpt lat="43.1383774615824222564697265625" lon="13.153874874114990234375">
        <ele>349.79998779296875</ele>
        <time>2021-05-25T08:30:32.000Z</time>
        <extensions>
          <ns3:TrackPointExtension>
            <ns3:atemp>22.0</ns3:atemp>
          </ns3:TrackPointExtension>
        </extensions>
      </trkpt>
      <trkpt lat="43.13843688927590847015380859375" lon="13.1537268497049808502197265625">
        <ele>350.79998779296875</ele>
        <time>2021-05-25T08:30:35.000Z</time>
        <extensions>
          <ns3:TrackPointExtension>
            <ns3:atemp>22.0</ns3:atemp>
          </ns3:TrackPointExtension>
        </extensions>
      </trkpt>
      <trkpt lat="43.13843957148492336273193359375" lon="13.1536671705543994903564453125">
        <ele>351</ele>
        <time>2021-05-25T08:30:36.000Z</time>
        <extensions>
          <ns3:TrackPointExtension>
            <ns3:atemp>22.0</ns3:atemp>
          </ns3:TrackPointExtension>
        </extensions>
      </trkpt>
      <trkpt lat="43.138436973094940185546875" lon="13.15360673703253269195556640625">
        <ele>351.20001220703125</ele>
        <time>2021-05-25T08:30:37.000Z</time>
        <extensions>
          <ns3:TrackPointExtension>
            <ns3:atemp>22.0</ns3:atemp>
          </ns3:TrackPointExtension>
        </extensions>
      </trkpt>
      <trkpt lat="43.1384207122027873992919921875" lon="13.153432644903659820556640625">
        <ele>351.600006103515625</ele>
        <time>2021-05-25T08:30:40.000Z</time>
        <extensions>
          <ns3:TrackPointExtension>
            <ns3:atemp>22.0</ns3:atemp>
          </ns3:TrackPointExtension>
        </extensions>
      </trkpt>
      <trkpt lat="43.1384119950234889984130859375" lon="13.153369612991809844970703125">
        <ele>352.20001220703125</ele>
        <time>2021-05-25T08:30:41.000Z</time>
        <extensions>
          <ns3:TrackPointExtension>
            <ns3:atemp>22.0</ns3:atemp>
          </ns3:TrackPointExtension>
        </extensions>
      </trkpt>
      <trkpt lat="43.1384046189486980438232421875" lon="13.15331161022186279296875">
        <ele>352.600006103515625</ele>
        <time>2021-05-25T08:30:42.000Z</time>
        <extensions>
          <ns3:TrackPointExtension>
            <ns3:atemp>22.0</ns3:atemp>
          </ns3:TrackPointExtension>
        </extensions>
      </trkpt>
      <trkpt lat="43.13839229755103588104248046875" lon="13.15314170904457569122314453125">
        <ele>353</ele>
        <time>2021-05-25T08:30:45.000Z</time>
        <extensions>
          <ns3:TrackPointExtension>
            <ns3:atemp>22.0</ns3:atemp>
          </ns3:TrackPointExtension>
        </extensions>
      </trkpt>
      <trkpt lat="43.13842180185019969940185546875" lon="13.15302486531436443328857421875">
        <ele>353.20001220703125</ele>
        <time>2021-05-25T08:30:47.000Z</time>
        <extensions>
          <ns3:TrackPointExtension>
            <ns3:atemp>22.0</ns3:atemp>
          </ns3:TrackPointExtension>
        </extensions>
      </trkpt>
      <trkpt lat="43.13856312073767185211181640625" lon="13.15285571850836277008056640625">
        <ele>353.20001220703125</ele>
        <time>2021-05-25T08:30:51.000Z</time>
        <extensions>
          <ns3:TrackPointExtension>
            <ns3:atemp>22.0</ns3:atemp>
          </ns3:TrackPointExtension>
        </extensions>
      </trkpt>
      <trkpt lat="43.13860637135803699493408203125" lon="13.15282001160085201263427734375">
        <ele>353</ele>
        <time>2021-05-25T08:30:52.000Z</time>
        <extensions>
          <ns3:TrackPointExtension>
            <ns3:atemp>22.0</ns3:atemp>
          </ns3:TrackPointExtension>
        </extensions>
      </trkpt>
      <trkpt lat="43.1387333571910858154296875" lon="13.1527069397270679473876953125">
        <ele>350</ele>
        <time>2021-05-25T08:30:55.000Z</time>
        <extensions>
          <ns3:TrackPointExtension>
            <ns3:atemp>22.0</ns3:atemp>
          </ns3:TrackPointExtension>
        </extensions>
      </trkpt>
      <trkpt lat="43.13883821479976177215576171875" lon="13.15256251953542232513427734375">
        <ele>348.79998779296875</ele>
        <time>2021-05-25T08:30:58.000Z</time>
        <extensions>
          <ns3:TrackPointExtension>
            <ns3:atemp>22.0</ns3:atemp>
          </ns3:TrackPointExtension>
        </extensions>
      </trkpt>
      <trkpt lat="43.138909377157688140869140625" lon="13.15228943713009357452392578125">
        <ele>348.399993896484375</ele>
        <time>2021-05-25T08:31:02.000Z</time>
        <extensions>
          <ns3:TrackPointExtension>
            <ns3:atemp>22.0</ns3:atemp>
          </ns3:TrackPointExtension>
        </extensions>
      </trkpt>
      <trkpt lat="43.1389184296131134033203125" lon="13.15221802331507205963134765625">
        <ele>348.399993896484375</ele>
        <time>2021-05-25T08:31:03.000Z</time>
        <extensions>
          <ns3:TrackPointExtension>
            <ns3:atemp>22.0</ns3:atemp>
          </ns3:TrackPointExtension>
        </extensions>
      </trkpt>
      <trkpt lat="43.1389259733259677886962890625" lon="13.15207754261791706085205078125">
        <ele>348</ele>
        <time>2021-05-25T08:31:05.000Z</time>
        <extensions>
          <ns3:TrackPointExtension>
            <ns3:atemp>22.0</ns3:atemp>
          </ns3:TrackPointExtension>
        </extensions>
      </trkpt>
      <trkpt lat="43.1389185972511768341064453125" lon="13.15194276161491870880126953125">
        <ele>347.79998779296875</ele>
        <time>2021-05-25T08:31:07.000Z</time>
        <extensions>
          <ns3:TrackPointExtension>
            <ns3:atemp>22.0</ns3:atemp>
          </ns3:TrackPointExtension>
        </extensions>
      </trkpt>
      <trkpt lat="43.13890158198773860931396484375" lon="13.151828683912754058837890625">
        <ele>347.600006103515625</ele>
        <time>2021-05-25T08:31:09.000Z</time>
        <extensions>
          <ns3:TrackPointExtension>
            <ns3:atemp>22.0</ns3:atemp>
          </ns3:TrackPointExtension>
        </extensions>
      </trkpt>
      <trkpt lat="43.138907365500926971435546875" lon="13.15162517130374908447265625">
        <ele>348</ele>
        <time>2021-05-25T08:31:13.000Z</time>
        <extensions>
          <ns3:TrackPointExtension>
            <ns3:atemp>22.0</ns3:atemp>
          </ns3:TrackPointExtension>
        </extensions>
      </trkpt>
      <trkpt lat="43.13901641406118869781494140625" lon="13.151412270963191986083984375">
        <ele>348.399993896484375</ele>
        <time>2021-05-25T08:31:18.000Z</time>
        <extensions>
          <ns3:TrackPointExtension>
            <ns3:atemp>22.0</ns3:atemp>
          </ns3:TrackPointExtension>
        </extensions>
      </trkpt>
      <trkpt lat="43.1391137279570102691650390625" lon="13.15120331011712551116943359375">
        <ele>348.399993896484375</ele>
        <time>2021-05-25T08:31:22.000Z</time>
        <extensions>
          <ns3:TrackPointExtension>
            <ns3:atemp>22.0</ns3:atemp>
          </ns3:TrackPointExtension>
        </extensions>
      </trkpt>
      <trkpt lat="43.13914985395967960357666015625" lon="13.15108763985335826873779296875">
        <ele>348.79998779296875</ele>
        <time>2021-05-25T08:31:24.000Z</time>
        <extensions>
          <ns3:TrackPointExtension>
            <ns3:atemp>22.0</ns3:atemp>
          </ns3:TrackPointExtension>
        </extensions>
      </trkpt>
      <trkpt lat="43.1391744129359722137451171875" lon="13.1509762443602085113525390625">
        <ele>349.79998779296875</ele>
        <time>2021-05-25T08:31:26.000Z</time>
        <extensions>
          <ns3:TrackPointExtension>
            <ns3:atemp>22.0</ns3:atemp>
          </ns3:TrackPointExtension>
        </extensions>
      </trkpt>
      <trkpt lat="43.139220513403415679931640625" lon="13.1507353484630584716796875">
        <ele>350.399993896484375</ele>
        <time>2021-05-25T08:31:30.000Z</time>
        <extensions>
          <ns3:TrackPointExtension>
            <ns3:atemp>22.0</ns3:atemp>
          </ns3:TrackPointExtension>
        </extensions>
      </trkpt>
      <trkpt lat="43.1392656080424785614013671875" lon="13.1504689715802669525146484375">
        <ele>350.600006103515625</ele>
        <time>2021-05-25T08:31:34.000Z</time>
        <extensions>
          <ns3:TrackPointExtension>
            <ns3:atemp>22.0</ns3:atemp>
          </ns3:TrackPointExtension>
        </extensions>
      </trkpt>
      <trkpt lat="43.13929284922778606414794921875" lon="13.15033980645239353179931640625">
        <ele>350.600006103515625</ele>
        <time>2021-05-25T08:31:36.000Z</time>
        <extensions>
          <ns3:TrackPointExtension>
            <ns3:atemp>22.0</ns3:atemp>
          </ns3:TrackPointExtension>
        </extensions>
      </trkpt>
      <trkpt lat="43.13938739709556102752685546875" lon="13.1498815678060054779052734375">
        <ele>350.20001220703125</ele>
        <time>2021-05-25T08:31:43.000Z</time>
        <extensions>
          <ns3:TrackPointExtension>
            <ns3:atemp>22.0</ns3:atemp>
          </ns3:TrackPointExtension>
        </extensions>
      </trkpt>
      <trkpt lat="43.13945629633963108062744140625" lon="13.1494344770908355712890625">
        <ele>350</ele>
        <time>2021-05-25T08:31:50.000Z</time>
        <extensions>
          <ns3:TrackPointExtension>
            <ns3:atemp>22.0</ns3:atemp>
          </ns3:TrackPointExtension>
        </extensions>
      </trkpt>
      <trkpt lat="43.139484040439128875732421875" lon="13.14894857816398143768310546875">
        <ele>349.79998779296875</ele>
        <time>2021-05-25T08:31:57.000Z</time>
        <extensions>
          <ns3:TrackPointExtension>
            <ns3:atemp>22.0</ns3:atemp>
          </ns3:TrackPointExtension>
        </extensions>
      </trkpt>
      <trkpt lat="43.13950507901608943939208984375" lon="13.1485330872237682342529296875">
        <ele>350</ele>
        <time>2021-05-25T08:32:03.000Z</time>
        <extensions>
          <ns3:TrackPointExtension>
            <ns3:atemp>22.0</ns3:atemp>
          </ns3:TrackPointExtension>
        </extensions>
      </trkpt>
      <trkpt lat="43.139598369598388671875" lon="13.14822052605450153350830078125">
        <ele>350.20001220703125</ele>
        <time>2021-05-25T08:32:08.000Z</time>
        <extensions>
          <ns3:TrackPointExtension>
            <ns3:atemp>22.0</ns3:atemp>
          </ns3:TrackPointExtension>
        </extensions>
      </trkpt>
      <trkpt lat="43.1396940909326076507568359375" lon="13.14790436066687107086181640625">
        <ele>350.600006103515625</ele>
        <time>2021-05-25T08:32:13.000Z</time>
        <extensions>
          <ns3:TrackPointExtension>
            <ns3:atemp>21.0</ns3:atemp>
          </ns3:TrackPointExtension>
        </extensions>
      </trkpt>
      <trkpt lat="43.13972284086048603057861328125" lon="13.1477663107216358184814453125">
        <ele>351.20001220703125</ele>
        <time>2021-05-25T08:32:15.000Z</time>
        <extensions>
          <ns3:TrackPointExtension>
            <ns3:atemp>21.0</ns3:atemp>
          </ns3:TrackPointExtension>
        </extensions>
      </trkpt>
      <trkpt lat="43.1397624872624874114990234375" lon="13.147629015147686004638671875">
        <ele>352.20001220703125</ele>
        <time>2021-05-25T08:32:17.000Z</time>
        <extensions>
          <ns3:TrackPointExtension>
            <ns3:atemp>21.0</ns3:atemp>
          </ns3:TrackPointExtension>
        </extensions>
      </trkpt>
      <trkpt lat="43.13982057385146617889404296875" lon="13.147435225546360015869140625">
        <ele>353.399993896484375</ele>
        <time>2021-05-25T08:32:20.000Z</time>
        <extensions>
          <ns3:TrackPointExtension>
            <ns3:atemp>21.0</ns3:atemp>
          </ns3:TrackPointExtension>
        </extensions>
      </trkpt>
      <trkpt lat="43.13984069041907787322998046875" lon="13.1473750434815883636474609375">
        <ele>353.600006103515625</ele>
        <time>2021-05-25T08:32:21.000Z</time>
        <extensions>
          <ns3:TrackPointExtension>
            <ns3:atemp>21.0</ns3:atemp>
          </ns3:TrackPointExtension>
        </extensions>
      </trkpt>
      <trkpt lat="43.13989165239036083221435546875" lon="13.147265911102294921875">
        <ele>353.79998779296875</ele>
        <time>2021-05-25T08:32:23.000Z</time>
        <extensions>
          <ns3:TrackPointExtension>
            <ns3:atemp>21.0</ns3:atemp>
          </ns3:TrackPointExtension>
        </extensions>
      </trkpt>
      <trkpt lat="43.14006750471889972686767578125" lon="13.146970532834529876708984375">
        <ele>354.399993896484375</ele>
        <time>2021-05-25T08:32:29.000Z</time>
        <extensions>
          <ns3:TrackPointExtension>
            <ns3:atemp>21.0</ns3:atemp>
          </ns3:TrackPointExtension>
        </extensions>
      </trkpt>
      <trkpt lat="43.14010287635028362274169921875" lon="13.14692401327192783355712890625">
        <ele>354.399993896484375</ele>
        <time>2021-05-25T08:32:30.000Z</time>
        <extensions>
          <ns3:TrackPointExtension>
            <ns3:atemp>21.0</ns3:atemp>
          </ns3:TrackPointExtension>
        </extensions>
      </trkpt>
      <trkpt lat="43.1402630545198917388916015625" lon="13.14673827029764652252197265625">
        <ele>354.20001220703125</ele>
        <time>2021-05-25T08:32:34.000Z</time>
        <extensions>
          <ns3:TrackPointExtension>
            <ns3:atemp>21.0</ns3:atemp>
          </ns3:TrackPointExtension>
        </extensions>
      </trkpt>
      <trkpt lat="43.14035139977931976318359375" lon="13.1466610729694366455078125">
        <ele>354.20001220703125</ele>
        <time>2021-05-25T08:32:36.000Z</time>
        <extensions>
          <ns3:TrackPointExtension>
            <ns3:atemp>21.0</ns3:atemp>
          </ns3:TrackPointExtension>
        </extensions>
      </trkpt>
      <trkpt lat="43.1405453570187091827392578125" lon="13.146536014974117279052734375">
        <ele>353</ele>
        <time>2021-05-25T08:32:40.000Z</time>
        <extensions>
          <ns3:TrackPointExtension>
            <ns3:atemp>21.0</ns3:atemp>
          </ns3:TrackPointExtension>
        </extensions>
      </trkpt>
      <trkpt lat="43.1406513042747974395751953125" lon="13.14649469219148159027099609375">
        <ele>352.20001220703125</ele>
        <time>2021-05-25T08:32:42.000Z</time>
        <extensions>
          <ns3:TrackPointExtension>
            <ns3:atemp>21.0</ns3:atemp>
          </ns3:TrackPointExtension>
        </extensions>
      </trkpt>
      <trkpt lat="43.14070679247379302978515625" lon="13.1464765034615993499755859375">
        <ele>352</ele>
        <time>2021-05-25T08:32:43.000Z</time>
        <extensions>
          <ns3:TrackPointExtension>
            <ns3:atemp>21.0</ns3:atemp>
          </ns3:TrackPointExtension>
        </extensions>
      </trkpt>
      <trkpt lat="43.1409108079969882965087890625" lon="13.146387822926044464111328125">
        <ele>351.79998779296875</ele>
        <time>2021-05-25T08:32:47.000Z</time>
        <extensions>
          <ns3:TrackPointExtension>
            <ns3:atemp>21.0</ns3:atemp>
          </ns3:TrackPointExtension>
        </extensions>
      </trkpt>
      <trkpt lat="43.14094810746610164642333984375" lon="13.1463484279811382293701171875">
        <ele>351.79998779296875</ele>
        <time>2021-05-25T08:32:48.000Z</time>
        <extensions>
          <ns3:TrackPointExtension>
            <ns3:atemp>21.0</ns3:atemp>
          </ns3:TrackPointExtension>
        </extensions>
      </trkpt>
      <trkpt lat="43.14099638722836971282958984375" lon="13.14620769582688808441162109375">
        <ele>352</ele>
        <time>2021-05-25T08:32:51.000Z</time>
        <extensions>
          <ns3:TrackPointExtension>
            <ns3:atemp>21.0</ns3:atemp>
          </ns3:TrackPointExtension>
        </extensions>
      </trkpt>
      <trkpt lat="43.14100183546543121337890625" lon="13.14616620540618896484375">
        <ele>352.20001220703125</ele>
        <time>2021-05-25T08:32:52.000Z</time>
        <extensions>
          <ns3:TrackPointExtension>
            <ns3:atemp>21.0</ns3:atemp>
          </ns3:TrackPointExtension>
        </extensions>
      </trkpt>
      <trkpt lat="43.1410159170627593994140625" lon="13.14596612937748432159423828125">
        <ele>353.20001220703125</ele>
        <time>2021-05-25T08:32:57.000Z</time>
        <extensions>
          <ns3:TrackPointExtension>
            <ns3:atemp>21.0</ns3:atemp>
          </ns3:TrackPointExtension>
        </extensions>
      </trkpt>
      <trkpt lat="43.14099487848579883575439453125" lon="13.1459125690162181854248046875">
        <ele>354</ele>
        <time>2021-05-25T08:32:59.000Z</time>
        <extensions>
          <ns3:TrackPointExtension>
            <ns3:atemp>21.0</ns3:atemp>
          </ns3:TrackPointExtension>
        </extensions>
      </trkpt>
      <trkpt lat="43.14096294343471527099609375" lon="13.145892620086669921875">
        <ele>354.600006103515625</ele>
        <time>2021-05-25T08:33:01.000Z</time>
        <extensions>
          <ns3:TrackPointExtension>
            <ns3:atemp>21.0</ns3:atemp>
          </ns3:TrackPointExtension>
        </extensions>
      </trkpt>
      <trkpt lat="43.14094425179064273834228515625" lon="13.14588650129735469818115234375">
        <ele>355</ele>
        <time>2021-05-25T08:33:02.000Z</time>
        <extensions>
          <ns3:TrackPointExtension>
            <ns3:atemp>21.0</ns3:atemp>
          </ns3:TrackPointExtension>
        </extensions>
      </trkpt>
      <trkpt lat="43.14091742970049381256103515625" lon="13.14588868059217929840087890625">
        <ele>355.600006103515625</ele>
        <time>2021-05-25T08:33:03.000Z</time>
        <extensions>
          <ns3:TrackPointExtension>
            <ns3:atemp>21.0</ns3:atemp>
          </ns3:TrackPointExtension>
        </extensions>
      </trkpt>
      <trkpt lat="43.14084936864674091339111328125" lon="13.14591298811137676239013671875">
        <ele>356</ele>
        <time>2021-05-25T08:33:05.000Z</time>
        <extensions>
          <ns3:TrackPointExtension>
            <ns3:atemp>21.0</ns3:atemp>
          </ns3:TrackPointExtension>
        </extensions>
      </trkpt>
      <trkpt lat="43.1407324410974979400634765625" lon="13.14596562646329402923583984375">
        <ele>356.20001220703125</ele>
        <time>2021-05-25T08:33:09.000Z</time>
        <extensions>
          <ns3:TrackPointExtension>
            <ns3:atemp>21.0</ns3:atemp>
          </ns3:TrackPointExtension>
        </extensions>
      </trkpt>
      <trkpt lat="43.14070888794958591461181640625" lon="13.14597752876579761505126953125">
        <ele>356.20001220703125</ele>
        <time>2021-05-25T08:33:10.000Z</time>
        <extensions>
          <ns3:TrackPointExtension>
            <ns3:atemp>21.0</ns3:atemp>
          </ns3:TrackPointExtension>
        </extensions>
      </trkpt>
      <trkpt lat="43.1406590156257152557373046875" lon="13.14600753597915172576904296875">
        <ele>355.79998779296875</ele>
        <time>2021-05-25T08:33:13.000Z</time>
        <extensions>
          <ns3:TrackPointExtension>
            <ns3:atemp>21.0</ns3:atemp>
          </ns3:TrackPointExtension>
        </extensions>
      </trkpt>
      <trkpt lat="43.14064535312354564666748046875" lon="13.1460024230182170867919921875">
        <ele>355.79998779296875</ele>
        <time>2021-05-25T08:33:14.000Z</time>
        <extensions>
          <ns3:TrackPointExtension>
            <ns3:atemp>21.0</ns3:atemp>
          </ns3:TrackPointExtension>
        </extensions>
      </trkpt>
      <trkpt lat="43.14063973724842071533203125" lon="13.14598180353641510009765625">
        <ele>354.600006103515625</ele>
        <time>2021-05-25T08:33:16.000Z</time>
        <extensions>
          <ns3:TrackPointExtension>
            <ns3:atemp>21.0</ns3:atemp>
          </ns3:TrackPointExtension>
        </extensions>
      </trkpt>
      <trkpt lat="43.14064317382872104644775390625" lon="13.145959675312042236328125">
        <ele>353.399993896484375</ele>
        <time>2021-05-25T08:33:18.000Z</time>
        <extensions>
          <ns3:TrackPointExtension>
            <ns3:atemp>21.0</ns3:atemp>
          </ns3:TrackPointExtension>
        </extensions>
      </trkpt>
      <trkpt lat="43.14065641723573207855224609375" lon="13.14590510912239551544189453125">
        <ele>352.20001220703125</ele>
        <time>2021-05-25T08:33:20.000Z</time>
        <extensions>
          <ns3:TrackPointExtension>
            <ns3:atemp>21.0</ns3:atemp>
          </ns3:TrackPointExtension>
        </extensions>
      </trkpt>
      <trkpt lat="43.1406945548951625823974609375" lon="13.145809136331081390380859375">
        <ele>351.20001220703125</ele>
        <time>2021-05-25T08:33:22.000Z</time>
        <extensions>
          <ns3:TrackPointExtension>
            <ns3:atemp>21.0</ns3:atemp>
          </ns3:TrackPointExtension>
        </extensions>
      </trkpt>
      <trkpt lat="43.14074191264808177947998046875" lon="13.14565993845462799072265625">
        <ele>350</ele>
        <time>2021-05-25T08:33:26.000Z</time>
        <extensions>
          <ns3:TrackPointExtension>
            <ns3:atemp>21.0</ns3:atemp>
          </ns3:TrackPointExtension>
        </extensions>
      </trkpt>
      <trkpt lat="43.1407450139522552490234375" lon="13.145569749176502227783203125">
        <ele>349</ele>
        <time>2021-05-25T08:33:28.000Z</time>
        <extensions>
          <ns3:TrackPointExtension>
            <ns3:atemp>21.0</ns3:atemp>
          </ns3:TrackPointExtension>
        </extensions>
      </trkpt>
      <trkpt lat="43.14074057154357433319091796875" lon="13.14552222378551959991455078125">
        <ele>348.20001220703125</ele>
        <time>2021-05-25T08:33:30.000Z</time>
        <extensions>
          <ns3:TrackPointExtension>
            <ns3:atemp>21.0</ns3:atemp>
          </ns3:TrackPointExtension>
        </extensions>
      </trkpt>
      <trkpt lat="43.140743672847747802734375" lon="13.14545567147433757781982421875">
        <ele>347.600006103515625</ele>
        <time>2021-05-25T08:33:33.000Z</time>
        <extensions>
          <ns3:TrackPointExtension>
            <ns3:atemp>21.0</ns3:atemp>
          </ns3:TrackPointExtension>
        </extensions>
      </trkpt>
      <trkpt lat="43.14076035283505916595458984375" lon="13.1454213894903659820556640625">
        <ele>346.79998779296875</ele>
        <time>2021-05-25T08:33:34.000Z</time>
        <extensions>
          <ns3:TrackPointExtension>
            <ns3:atemp>21.0</ns3:atemp>
          </ns3:TrackPointExtension>
        </extensions>
      </trkpt>
      <trkpt lat="43.14078189432621002197265625" lon="13.1453938968479633331298828125">
        <ele>346</ele>
        <time>2021-05-25T08:33:35.000Z</time>
        <extensions>
          <ns3:TrackPointExtension>
            <ns3:atemp>21.0</ns3:atemp>
          </ns3:TrackPointExtension>
        </extensions>
      </trkpt>
      <trkpt lat="43.1408199481666088104248046875" lon="13.1453808210790157318115234375">
        <ele>345.20001220703125</ele>
        <time>2021-05-25T08:33:37.000Z</time>
        <extensions>
          <ns3:TrackPointExtension>
            <ns3:atemp>21.0</ns3:atemp>
          </ns3:TrackPointExtension>
        </extensions>
      </trkpt>
      <trkpt lat="43.14083394594490528106689453125" lon="13.1453747861087322235107421875">
        <ele>344.79998779296875</ele>
        <time>2021-05-25T08:33:39.000Z</time>
        <extensions>
          <ns3:TrackPointExtension>
            <ns3:atemp>21.0</ns3:atemp>
          </ns3:TrackPointExtension>
        </extensions>
      </trkpt>
      <trkpt lat="43.140832521021366119384765625" lon="13.14536648802459239959716796875">
        <ele>343.79998779296875</ele>
        <time>2021-05-25T08:33:41.000Z</time>
        <extensions>
          <ns3:TrackPointExtension>
            <ns3:atemp>21.0</ns3:atemp>
          </ns3:TrackPointExtension>
        </extensions>
      </trkpt>
      <trkpt lat="43.14082682132720947265625" lon="13.14537034370005130767822265625">
        <ele>343</ele>
        <time>2021-05-25T08:33:42.000Z</time>
        <extensions>
          <ns3:TrackPointExtension>
            <ns3:atemp>21.0</ns3:atemp>
          </ns3:TrackPointExtension>
        </extensions>
      </trkpt>
      <trkpt lat="43.14083394594490528106689453125" lon="13.1453610397875308990478515625">
        <ele>341.79998779296875</ele>
        <time>2021-05-25T08:33:46.000Z</time>
        <extensions>
          <ns3:TrackPointExtension>
            <ns3:atemp>21.0</ns3:atemp>
          </ns3:TrackPointExtension>
        </extensions>
      </trkpt>
      <trkpt lat="43.14083528704941272735595703125" lon="13.14535492099821567535400390625">
        <ele>341.79998779296875</ele>
        <time>2021-05-25T08:33:49.000Z</time>
        <extensions>
          <ns3:TrackPointExtension>
            <ns3:atemp>21.0</ns3:atemp>
          </ns3:TrackPointExtension>
        </extensions>
      </trkpt>
      <trkpt lat="43.14084903337061405181884765625" lon="13.14533497206866741180419921875">
        <ele>341</ele>
        <time>2021-05-25T08:34:01.000Z</time>
        <extensions>
          <ns3:TrackPointExtension>
            <ns3:atemp>21.0</ns3:atemp>
          </ns3:TrackPointExtension>
        </extensions>
      </trkpt>
      <trkpt lat="43.1408447585999965667724609375" lon="13.14531200565397739410400390625">
        <ele>341</ele>
        <time>2021-05-25T08:34:14.000Z</time>
        <extensions>
          <ns3:TrackPointExtension>
            <ns3:atemp>21.0</ns3:atemp>
          </ns3:TrackPointExtension>
        </extensions>
      </trkpt>
      <trkpt lat="43.14083109609782695770263671875" lon="13.14528702758252620697021484375">
        <ele>341.79998779296875</ele>
        <time>2021-05-25T08:34:31.000Z</time>
        <extensions>
          <ns3:TrackPointExtension>
            <ns3:atemp>21.0</ns3:atemp>
          </ns3:TrackPointExtension>
        </extensions>
      </trkpt>
      <trkpt lat="43.14082908444106578826904296875" lon="13.14528032205998897552490234375">
        <ele>342.20001220703125</ele>
        <time>2021-05-25T08:34:46.000Z</time>
        <extensions>
          <ns3:TrackPointExtension>
            <ns3:atemp>21.0</ns3:atemp>
          </ns3:TrackPointExtension>
        </extensions>
      </trkpt>
      <trkpt lat="43.140823803842067718505859375" lon="13.1452810764312744140625">
        <ele>341.79998779296875</ele>
        <time>2021-05-25T08:34:55.000Z</time>
        <extensions>
          <ns3:TrackPointExtension>
            <ns3:atemp>21.0</ns3:atemp>
          </ns3:TrackPointExtension>
        </extensions>
      </trkpt>
      <trkpt lat="43.14080695621669292449951171875" lon="13.14527277834713459014892578125">
        <ele>341.600006103515625</ele>
        <time>2021-05-25T08:35:07.000Z</time>
        <extensions>
          <ns3:TrackPointExtension>
            <ns3:atemp>21.0</ns3:atemp>
          </ns3:TrackPointExtension>
        </extensions>
      </trkpt>
      <trkpt lat="43.1408048607409000396728515625" lon="13.14523925073444843292236328125">
        <ele>342</ele>
        <time>2021-05-25T08:35:20.000Z</time>
        <extensions>
          <ns3:TrackPointExtension>
            <ns3:atemp>21.0</ns3:atemp>
          </ns3:TrackPointExtension>
        </extensions>
      </trkpt>
      <trkpt lat="43.140813410282135009765625" lon="13.1452395021915435791015625">
        <ele>342.399993896484375</ele>
        <time>2021-05-25T08:35:23.000Z</time>
        <extensions>
          <ns3:TrackPointExtension>
            <ns3:atemp>21.0</ns3:atemp>
          </ns3:TrackPointExtension>
        </extensions>
      </trkpt>
      <trkpt lat="43.14083042554557323455810546875" lon="13.14524679444730281829833984375">
        <ele>342.600006103515625</ele>
        <time>2021-05-25T08:35:33.000Z</time>
        <extensions>
          <ns3:TrackPointExtension>
            <ns3:atemp>21.0</ns3:atemp>
          </ns3:TrackPointExtension>
        </extensions>
      </trkpt>
      <trkpt lat="43.14082321710884571075439453125" lon="13.145248889923095703125">
        <ele>342.79998779296875</ele>
        <time>2021-05-25T08:35:42.000Z</time>
        <extensions>
          <ns3:TrackPointExtension>
            <ns3:atemp>21.0</ns3:atemp>
          </ns3:TrackPointExtension>
        </extensions>
      </trkpt>
      <trkpt lat="43.14082103781402111053466796875" lon="13.14524863846600055694580078125">
        <ele>342.600006103515625</ele>
        <time>2021-05-25T08:35:53.000Z</time>
        <extensions>
          <ns3:TrackPointExtension>
            <ns3:atemp>21.0</ns3:atemp>
          </ns3:TrackPointExtension>
        </extensions>
      </trkpt>
      <trkpt lat="43.140823803842067718505859375" lon="13.145251236855983734130859375">
        <ele>342.600006103515625</ele>
        <time>2021-05-25T08:36:03.000Z</time>
        <extensions>
          <ns3:TrackPointExtension>
            <ns3:atemp>21.0</ns3:atemp>
          </ns3:TrackPointExtension>
        </extensions>
      </trkpt>
      <trkpt lat="43.1408256478607654571533203125" lon="13.145246542990207672119140625">
        <ele>342.399993896484375</ele>
        <time>2021-05-25T08:36:16.000Z</time>
        <extensions>
          <ns3:TrackPointExtension>
            <ns3:atemp>21.0</ns3:atemp>
          </ns3:TrackPointExtension>
        </extensions>
      </trkpt>
      <trkpt lat="43.1408199481666088104248046875" lon="13.1452695094048976898193359375">
        <ele>342.600006103515625</ele>
        <time>2021-05-25T08:36:27.000Z</time>
        <extensions>
          <ns3:TrackPointExtension>
            <ns3:atemp>21.0</ns3:atemp>
          </ns3:TrackPointExtension>
        </extensions>
      </trkpt>
      <trkpt lat="43.1408129073679447174072265625" lon="13.145280070602893829345703125">
        <ele>342.600006103515625</ele>
        <time>2021-05-25T08:36:29.000Z</time>
        <extensions>
          <ns3:TrackPointExtension>
            <ns3:atemp>21.0</ns3:atemp>
          </ns3:TrackPointExtension>
        </extensions>
      </trkpt>
      <trkpt lat="43.1408018432557582855224609375" lon="13.1452916376292705535888671875">
        <ele>342.399993896484375</ele>
        <time>2021-05-25T08:36:38.000Z</time>
        <extensions>
          <ns3:TrackPointExtension>
            <ns3:atemp>21.0</ns3:atemp>
          </ns3:TrackPointExtension>
        </extensions>
      </trkpt>
      <trkpt lat="43.1408018432557582855224609375" lon="13.145298175513744354248046875">
        <ele>342.600006103515625</ele>
        <time>2021-05-25T08:36:46.000Z</time>
        <extensions>
          <ns3:TrackPointExtension>
            <ns3:atemp>21.0</ns3:atemp>
          </ns3:TrackPointExtension>
        </extensions>
      </trkpt>
      <trkpt lat="43.14080058597028255462646484375" lon="13.14530245028436183929443359375">
        <ele>342.79998779296875</ele>
        <time>2021-05-25T08:36:48.000Z</time>
        <extensions>
          <ns3:TrackPointExtension>
            <ns3:atemp>21.0</ns3:atemp>
          </ns3:TrackPointExtension>
        </extensions>
      </trkpt>
      <trkpt lat="43.14080511219799518585205078125" lon="13.145304210484027862548828125">
        <ele>342.79998779296875</ele>
        <time>2021-05-25T08:36:55.000Z</time>
        <extensions>
          <ns3:TrackPointExtension>
            <ns3:atemp>21.0</ns3:atemp>
          </ns3:TrackPointExtension>
        </extensions>
      </trkpt>
      <trkpt lat="43.1408303417265415191650390625" lon="13.14530513249337673187255859375">
        <ele>342.399993896484375</ele>
        <time>2021-05-25T08:37:07.000Z</time>
        <extensions>
          <ns3:TrackPointExtension>
            <ns3:atemp>21.0</ns3:atemp>
          </ns3:TrackPointExtension>
        </extensions>
      </trkpt>
      <trkpt lat="43.14083847217261791229248046875" lon="13.14530588686466217041015625">
        <ele>341.600006103515625</ele>
        <time>2021-05-25T08:37:15.000Z</time>
        <extensions>
          <ns3:TrackPointExtension>
            <ns3:atemp>21.0</ns3:atemp>
          </ns3:TrackPointExtension>
        </extensions>
      </trkpt>
      <trkpt lat="43.1408357061445713043212890625" lon="13.14531049691140651702880859375">
        <ele>341.399993896484375</ele>
        <time>2021-05-25T08:37:16.000Z</time>
        <extensions>
          <ns3:TrackPointExtension>
            <ns3:atemp>21.0</ns3:atemp>
          </ns3:TrackPointExtension>
        </extensions>
      </trkpt>
      <trkpt lat="43.140840232372283935546875" lon="13.14532273449003696441650390625">
        <ele>340.399993896484375</ele>
        <time>2021-05-25T08:37:27.000Z</time>
        <extensions>
          <ns3:TrackPointExtension>
            <ns3:atemp>21.0</ns3:atemp>
          </ns3:TrackPointExtension>
        </extensions>
      </trkpt>
      <trkpt lat="43.14083461649715900421142578125" lon="13.145329691469669342041015625">
        <ele>340.79998779296875</ele>
        <time>2021-05-25T08:37:42.000Z</time>
        <extensions>
          <ns3:TrackPointExtension>
            <ns3:atemp>21.0</ns3:atemp>
          </ns3:TrackPointExtension>
        </extensions>
      </trkpt>
      <trkpt lat="43.1408357061445713043212890625" lon="13.1453385762870311737060546875">
        <ele>340.79998779296875</ele>
        <time>2021-05-25T08:37:52.000Z</time>
        <extensions>
          <ns3:TrackPointExtension>
            <ns3:atemp>21.0</ns3:atemp>
          </ns3:TrackPointExtension>
        </extensions>
      </trkpt>
      <trkpt lat="43.1408370472490787506103515625" lon="13.14536984078586101531982421875">
        <ele>341.20001220703125</ele>
        <time>2021-05-25T08:38:04.000Z</time>
        <extensions>
          <ns3:TrackPointExtension>
            <ns3:atemp>21.0</ns3:atemp>
          </ns3:TrackPointExtension>
        </extensions>
      </trkpt>
      <trkpt lat="43.1408397294580936431884765625" lon="13.14537101425230503082275390625">
        <ele>341.399993896484375</ele>
        <time>2021-05-25T08:38:17.000Z</time>
        <extensions>
          <ns3:TrackPointExtension>
            <ns3:atemp>21.0</ns3:atemp>
          </ns3:TrackPointExtension>
        </extensions>
      </trkpt>
      <trkpt lat="43.1408414058387279510498046875" lon="13.14537294209003448486328125">
        <ele>341.600006103515625</ele>
        <time>2021-05-25T08:38:26.000Z</time>
        <extensions>
          <ns3:TrackPointExtension>
            <ns3:atemp>21.0</ns3:atemp>
          </ns3:TrackPointExtension>
        </extensions>
      </trkpt>
      <trkpt lat="43.1408347003161907196044921875" lon="13.14537151716649532318115234375">
        <ele>342</ele>
        <time>2021-05-25T08:38:30.000Z</time>
        <extensions>
          <ns3:TrackPointExtension>
            <ns3:atemp>21.0</ns3:atemp>
          </ns3:TrackPointExtension>
        </extensions>
      </trkpt>
      <trkpt lat="43.1408149190247058868408203125" lon="13.14537269063293933868408203125">
        <ele>342</ele>
        <time>2021-05-25T08:38:37.000Z</time>
        <extensions>
          <ns3:TrackPointExtension>
            <ns3:atemp>21.0</ns3:atemp>
          </ns3:TrackPointExtension>
        </extensions>
      </trkpt>
      <trkpt lat="43.14077929593622684478759765625" lon="13.14539615996181964874267578125">
        <ele>342</ele>
        <time>2021-05-25T08:38:43.000Z</time>
        <extensions>
          <ns3:TrackPointExtension>
            <ns3:atemp>21.0</ns3:atemp>
          </ns3:TrackPointExtension>
        </extensions>
      </trkpt>
      <trkpt lat="43.140757083892822265625" lon="13.14544326625764369964599609375">
        <ele>341.79998779296875</ele>
        <time>2021-05-25T08:38:45.000Z</time>
        <extensions>
          <ns3:TrackPointExtension>
            <ns3:atemp>21.0</ns3:atemp>
          </ns3:TrackPointExtension>
        </extensions>
      </trkpt>
      <trkpt lat="43.14075850881636142730712890625" lon="13.145546615123748779296875">
        <ele>341.79998779296875</ele>
        <time>2021-05-25T08:38:50.000Z</time>
        <extensions>
          <ns3:TrackPointExtension>
            <ns3:atemp>21.0</ns3:atemp>
          </ns3:TrackPointExtension>
        </extensions>
      </trkpt>
      <trkpt lat="43.14075666479766368865966796875" lon="13.14568265341222286224365234375">
        <ele>342.79998779296875</ele>
        <time>2021-05-25T08:38:55.000Z</time>
        <extensions>
          <ns3:TrackPointExtension>
            <ns3:atemp>21.0</ns3:atemp>
          </ns3:TrackPointExtension>
        </extensions>
      </trkpt>
      <trkpt lat="43.14074761234223842620849609375" lon="13.14571014605462551116943359375">
        <ele>343.399993896484375</ele>
        <time>2021-05-25T08:38:56.000Z</time>
        <extensions>
          <ns3:TrackPointExtension>
            <ns3:atemp>21.0</ns3:atemp>
          </ns3:TrackPointExtension>
        </extensions>
      </trkpt>
      <trkpt lat="43.14072162844240665435791015625" lon="13.14578206278383731842041015625">
        <ele>344.600006103515625</ele>
        <time>2021-05-25T08:38:59.000Z</time>
        <extensions>
          <ns3:TrackPointExtension>
            <ns3:atemp>21.0</ns3:atemp>
          </ns3:TrackPointExtension>
        </extensions>
      </trkpt>
      <trkpt lat="43.14067821018397808074951171875" lon="13.145879209041595458984375">
        <ele>346.20001220703125</ele>
        <time>2021-05-25T08:39:03.000Z</time>
        <extensions>
          <ns3:TrackPointExtension>
            <ns3:atemp>21.0</ns3:atemp>
          </ns3:TrackPointExtension>
        </extensions>
      </trkpt>
      <trkpt lat="43.14066463150084018707275390625" lon="13.14592874608933925628662109375">
        <ele>347.600006103515625</ele>
        <time>2021-05-25T08:39:05.000Z</time>
        <extensions>
          <ns3:TrackPointExtension>
            <ns3:atemp>21.0</ns3:atemp>
          </ns3:TrackPointExtension>
        </extensions>
      </trkpt>
      <trkpt lat="43.14068374224007129669189453125" lon="13.1459625251591205596923828125">
        <ele>348.399993896484375</ele>
        <time>2021-05-25T08:39:07.000Z</time>
        <extensions>
          <ns3:TrackPointExtension>
            <ns3:atemp>21.0</ns3:atemp>
          </ns3:TrackPointExtension>
        </extensions>
      </trkpt>
      <trkpt lat="43.14069530926644802093505859375" lon="13.14596436917781829833984375">
        <ele>348.79998779296875</ele>
        <time>2021-05-25T08:39:08.000Z</time>
        <extensions>
          <ns3:TrackPointExtension>
            <ns3:atemp>21.0</ns3:atemp>
          </ns3:TrackPointExtension>
        </extensions>
      </trkpt>
      <trkpt lat="43.14072967506945133209228515625" lon="13.145941905677318572998046875">
        <ele>349.600006103515625</ele>
        <time>2021-05-25T08:39:11.000Z</time>
        <extensions>
          <ns3:TrackPointExtension>
            <ns3:atemp>21.0</ns3:atemp>
          </ns3:TrackPointExtension>
        </extensions>
      </trkpt>
      <trkpt lat="43.140743337571620941162109375" lon="13.14593276940286159515380859375">
        <ele>350</ele>
        <time>2021-05-25T08:39:12.000Z</time>
        <extensions>
          <ns3:TrackPointExtension>
            <ns3:atemp>21.0</ns3:atemp>
          </ns3:TrackPointExtension>
        </extensions>
      </trkpt>
      <trkpt lat="43.14075750298798084259033203125" lon="13.14592354930937290191650390625">
        <ele>350.399993896484375</ele>
        <time>2021-05-25T08:39:13.000Z</time>
        <extensions>
          <ns3:TrackPointExtension>
            <ns3:atemp>21.0</ns3:atemp>
          </ns3:TrackPointExtension>
        </extensions>
      </trkpt>
      <trkpt lat="43.14078834839165210723876953125" lon="13.1459068693220615386962890625">
        <ele>351.20001220703125</ele>
        <time>2021-05-25T08:39:15.000Z</time>
        <extensions>
          <ns3:TrackPointExtension>
            <ns3:atemp>21.0</ns3:atemp>
          </ns3:TrackPointExtension>
        </extensions>
      </trkpt>
      <trkpt lat="43.14083981327712535858154296875" lon="13.14589873887598514556884765625">
        <ele>352.20001220703125</ele>
        <time>2021-05-25T08:39:18.000Z</time>
        <extensions>
          <ns3:TrackPointExtension>
            <ns3:atemp>21.0</ns3:atemp>
          </ns3:TrackPointExtension>
        </extensions>
      </trkpt>
      <trkpt lat="43.140914998948574066162109375" lon="13.14588080160319805145263671875">
        <ele>353.20001220703125</ele>
        <time>2021-05-25T08:39:22.000Z</time>
        <extensions>
          <ns3:TrackPointExtension>
            <ns3:atemp>21.0</ns3:atemp>
          </ns3:TrackPointExtension>
        </extensions>
      </trkpt>
      <trkpt lat="43.14095020294189453125" lon="13.14587024040520191192626953125">
        <ele>354.20001220703125</ele>
        <time>2021-05-25T08:39:24.000Z</time>
        <extensions>
          <ns3:TrackPointExtension>
            <ns3:atemp>21.0</ns3:atemp>
          </ns3:TrackPointExtension>
        </extensions>
      </trkpt>
      <trkpt lat="43.14096654765307903289794921875" lon="13.1458751857280731201171875">
        <ele>354.600006103515625</ele>
        <time>2021-05-25T08:39:25.000Z</time>
        <extensions>
          <ns3:TrackPointExtension>
            <ns3:atemp>21.0</ns3:atemp>
          </ns3:TrackPointExtension>
        </extensions>
      </trkpt>
      <trkpt lat="43.1410351954400539398193359375" lon="13.14586554653942584991455078125">
        <ele>355.600006103515625</ele>
        <time>2021-05-25T08:39:28.000Z</time>
        <extensions>
          <ns3:TrackPointExtension>
            <ns3:atemp>21.0</ns3:atemp>
          </ns3:TrackPointExtension>
        </extensions>
      </trkpt>
      <trkpt lat="43.1410590000450611114501953125" lon="13.1458562426269054412841796875">
        <ele>356</ele>
        <time>2021-05-25T08:39:29.000Z</time>
        <extensions>
          <ns3:TrackPointExtension>
            <ns3:atemp>21.0</ns3:atemp>
          </ns3:TrackPointExtension>
        </extensions>
      </trkpt>
      <trkpt lat="43.141172491014003753662109375" lon="13.14576731063425540924072265625">
        <ele>356.600006103515625</ele>
        <time>2021-05-25T08:39:34.000Z</time>
        <extensions>
          <ns3:TrackPointExtension>
            <ns3:atemp>21.0</ns3:atemp>
          </ns3:TrackPointExtension>
        </extensions>
      </trkpt>
      <trkpt lat="43.14135815016925334930419921875" lon="13.1456738524138927459716796875">
        <ele>356.399993896484375</ele>
        <time>2021-05-25T08:39:40.000Z</time>
        <extensions>
          <ns3:TrackPointExtension>
            <ns3:atemp>21.0</ns3:atemp>
          </ns3:TrackPointExtension>
        </extensions>
      </trkpt>
      <trkpt lat="43.1414784304797649383544921875" lon="13.14562012441456317901611328125">
        <ele>356.79998779296875</ele>
        <time>2021-05-25T08:39:44.000Z</time>
        <extensions>
          <ns3:TrackPointExtension>
            <ns3:atemp>21.0</ns3:atemp>
          </ns3:TrackPointExtension>
        </extensions>
      </trkpt>
      <trkpt lat="43.14151220954954624176025390625" lon="13.14560269005596637725830078125">
        <ele>356.600006103515625</ele>
        <time>2021-05-25T08:39:45.000Z</time>
        <extensions>
          <ns3:TrackPointExtension>
            <ns3:atemp>21.0</ns3:atemp>
          </ns3:TrackPointExtension>
        </extensions>
      </trkpt>
      <trkpt lat="43.14173717983067035675048828125" lon="13.14545198343694210052490234375">
        <ele>357.20001220703125</ele>
        <time>2021-05-25T08:39:52.000Z</time>
        <extensions>
          <ns3:TrackPointExtension>
            <ns3:atemp>21.0</ns3:atemp>
          </ns3:TrackPointExtension>
        </extensions>
      </trkpt>
      <trkpt lat="43.14183072187006473541259765625" lon="13.145373947918415069580078125">
        <ele>357.79998779296875</ele>
        <time>2021-05-25T08:39:55.000Z</time>
        <extensions>
          <ns3:TrackPointExtension>
            <ns3:atemp>21.0</ns3:atemp>
          </ns3:TrackPointExtension>
        </extensions>
      </trkpt>
      <trkpt lat="43.14192158170044422149658203125" lon="13.14527898095548152923583984375">
        <ele>358.600006103515625</ele>
        <time>2021-05-25T08:39:58.000Z</time>
        <extensions>
          <ns3:TrackPointExtension>
            <ns3:atemp>21.0</ns3:atemp>
          </ns3:TrackPointExtension>
        </extensions>
      </trkpt>
      <trkpt lat="43.14195326529443264007568359375" lon="13.145244531333446502685546875">
        <ele>359.20001220703125</ele>
        <time>2021-05-25T08:39:59.000Z</time>
        <extensions>
          <ns3:TrackPointExtension>
            <ns3:atemp>21.0</ns3:atemp>
          </ns3:TrackPointExtension>
        </extensions>
      </trkpt>
      <trkpt lat="43.14211553893983364105224609375" lon="13.14507513307034969329833984375">
        <ele>359.79998779296875</ele>
        <time>2021-05-25T08:40:04.000Z</time>
        <extensions>
          <ns3:TrackPointExtension>
            <ns3:atemp>21.0</ns3:atemp>
          </ns3:TrackPointExtension>
        </extensions>
      </trkpt>
      <trkpt lat="43.1422143615782260894775390625" lon="13.14495049417018890380859375">
        <ele>360.20001220703125</ele>
        <time>2021-05-25T08:40:07.000Z</time>
        <extensions>
          <ns3:TrackPointExtension>
            <ns3:atemp>21.0</ns3:atemp>
          </ns3:TrackPointExtension>
        </extensions>
      </trkpt>
      <trkpt lat="43.14224227331578731536865234375" lon="13.14490665681660175323486328125">
        <ele>360.20001220703125</ele>
        <time>2021-05-25T08:40:08.000Z</time>
        <extensions>
          <ns3:TrackPointExtension>
            <ns3:atemp>21.0</ns3:atemp>
          </ns3:TrackPointExtension>
        </extensions>
      </trkpt>
      <trkpt lat="43.1423045508563518524169921875" lon="13.1447676010429859161376953125">
        <ele>360.399993896484375</ele>
        <time>2021-05-25T08:40:11.000Z</time>
        <extensions>
          <ns3:TrackPointExtension>
            <ns3:atemp>21.0</ns3:atemp>
          </ns3:TrackPointExtension>
        </extensions>
      </trkpt>
      <trkpt lat="43.1423199735581874847412109375" lon="13.14471823163330554962158203125">
        <ele>360.399993896484375</ele>
        <time>2021-05-25T08:40:12.000Z</time>
        <extensions>
          <ns3:TrackPointExtension>
            <ns3:atemp>21.0</ns3:atemp>
          </ns3:TrackPointExtension>
        </extensions>
      </trkpt>
      <trkpt lat="43.14240236766636371612548828125" lon="13.1444241106510162353515625">
        <ele>361</ele>
        <time>2021-05-25T08:40:18.000Z</time>
        <extensions>
          <ns3:TrackPointExtension>
            <ns3:atemp>21.0</ns3:atemp>
          </ns3:TrackPointExtension>
        </extensions>
      </trkpt>
      <trkpt lat="43.14241426996886730194091796875" lon="13.14437591470777988433837890625">
        <ele>361.20001220703125</ele>
        <time>2021-05-25T08:40:19.000Z</time>
        <extensions>
          <ns3:TrackPointExtension>
            <ns3:atemp>21.0</ns3:atemp>
          </ns3:TrackPointExtension>
        </extensions>
      </trkpt>
      <trkpt lat="43.14243840985000133514404296875" lon="13.1442811153829097747802734375">
        <ele>362.600006103515625</ele>
        <time>2021-05-25T08:40:21.000Z</time>
        <extensions>
          <ns3:TrackPointExtension>
            <ns3:atemp>21.0</ns3:atemp>
          </ns3:TrackPointExtension>
        </extensions>
      </trkpt>
      <trkpt lat="43.1425127573311328887939453125" lon="13.144091181457042694091796875">
        <ele>363.600006103515625</ele>
        <time>2021-05-25T08:40:25.000Z</time>
        <extensions>
          <ns3:TrackPointExtension>
            <ns3:atemp>21.0</ns3:atemp>
          </ns3:TrackPointExtension>
        </extensions>
      </trkpt>
      <trkpt lat="43.1426374800503253936767578125" lon="13.1437986530363559722900390625">
        <ele>364.399993896484375</ele>
        <time>2021-05-25T08:40:31.000Z</time>
        <extensions>
          <ns3:TrackPointExtension>
            <ns3:atemp>21.0</ns3:atemp>
          </ns3:TrackPointExtension>
        </extensions>
      </trkpt>
      <trkpt lat="43.1427682377398014068603515625" lon="13.14349397085607051849365234375">
        <ele>364</ele>
        <time>2021-05-25T08:40:38.000Z</time>
        <extensions>
          <ns3:TrackPointExtension>
            <ns3:atemp>21.0</ns3:atemp>
          </ns3:TrackPointExtension>
        </extensions>
      </trkpt>
      <trkpt lat="43.14293612726032733917236328125" lon="13.14323279075324535369873046875">
        <ele>364.399993896484375</ele>
        <time>2021-05-25T08:40:44.000Z</time>
        <extensions>
          <ns3:TrackPointExtension>
            <ns3:atemp>21.0</ns3:atemp>
          </ns3:TrackPointExtension>
        </extensions>
      </trkpt>
      <trkpt lat="43.1430019252002239227294921875" lon="13.14313254319131374359130859375">
        <ele>364.399993896484375</ele>
        <time>2021-05-25T08:40:46.000Z</time>
        <extensions>
          <ns3:TrackPointExtension>
            <ns3:atemp>21.0</ns3:atemp>
          </ns3:TrackPointExtension>
        </extensions>
      </trkpt>
      <trkpt lat="43.14303017221391201019287109375" lon="13.1430747918784618377685546875">
        <ele>364.399993896484375</ele>
        <time>2021-05-25T08:40:47.000Z</time>
        <extensions>
          <ns3:TrackPointExtension>
            <ns3:atemp>21.0</ns3:atemp>
          </ns3:TrackPointExtension>
        </extensions>
      </trkpt>
      <trkpt lat="43.14308415167033672332763671875" lon="13.14295484684407711029052734375">
        <ele>365</ele>
        <time>2021-05-25T08:40:49.000Z</time>
        <extensions>
          <ns3:TrackPointExtension>
            <ns3:atemp>21.0</ns3:atemp>
          </ns3:TrackPointExtension>
        </extensions>
      </trkpt>
      <trkpt lat="43.14310963265597820281982421875" lon="13.1428979337215423583984375">
        <ele>365.20001220703125</ele>
        <time>2021-05-25T08:40:50.000Z</time>
        <extensions>
          <ns3:TrackPointExtension>
            <ns3:atemp>21.0</ns3:atemp>
          </ns3:TrackPointExtension>
        </extensions>
      </trkpt>
      <trkpt lat="43.14313729293644428253173828125" lon="13.142847977578639984130859375">
        <ele>365.600006103515625</ele>
        <time>2021-05-25T08:40:51.000Z</time>
        <extensions>
          <ns3:TrackPointExtension>
            <ns3:atemp>21.0</ns3:atemp>
          </ns3:TrackPointExtension>
        </extensions>
      </trkpt>
      <trkpt lat="43.1431930325925350189208984375" lon="13.1426905654370784759521484375">
        <ele>365.79998779296875</ele>
        <time>2021-05-25T08:40:54.000Z</time>
        <extensions>
          <ns3:TrackPointExtension>
            <ns3:atemp>21.0</ns3:atemp>
          </ns3:TrackPointExtension>
        </extensions>
      </trkpt>
      <trkpt lat="43.14320669509470462799072265625" lon="13.14263013191521167755126953125">
        <ele>365.79998779296875</ele>
        <time>2021-05-25T08:40:55.000Z</time>
        <extensions>
          <ns3:TrackPointExtension>
            <ns3:atemp>21.0</ns3:atemp>
          </ns3:TrackPointExtension>
        </extensions>
      </trkpt>
      <trkpt lat="43.1432215310633182525634765625" lon="13.1425707042217254638671875">
        <ele>366</ele>
        <time>2021-05-25T08:40:56.000Z</time>
        <extensions>
          <ns3:TrackPointExtension>
            <ns3:atemp>21.0</ns3:atemp>
          </ns3:TrackPointExtension>
        </extensions>
      </trkpt>
      <trkpt lat="43.14329571090638637542724609375" lon="13.14234615303575992584228515625">
        <ele>366.399993896484375</ele>
        <time>2021-05-25T08:41:00.000Z</time>
        <extensions>
          <ns3:TrackPointExtension>
            <ns3:atemp>21.0</ns3:atemp>
          </ns3:TrackPointExtension>
        </extensions>
      </trkpt>
      <trkpt lat="43.1433589942753314971923828125" lon="13.14214783720672130584716796875">
        <ele>366.600006103515625</ele>
        <time>2021-05-25T08:41:04.000Z</time>
        <extensions>
          <ns3:TrackPointExtension>
            <ns3:atemp>21.0</ns3:atemp>
          </ns3:TrackPointExtension>
        </extensions>
      </trkpt>
      <trkpt lat="43.143390677869319915771484375" lon="13.1420538760721683502197265625">
        <ele>366.79998779296875</ele>
        <time>2021-05-25T08:41:06.000Z</time>
        <extensions>
          <ns3:TrackPointExtension>
            <ns3:atemp>21.0</ns3:atemp>
          </ns3:TrackPointExtension>
        </extensions>
      </trkpt>
      <trkpt lat="43.14344574697315692901611328125" lon="13.14182999543845653533935546875">
        <ele>367</ele>
        <time>2021-05-25T08:41:11.000Z</time>
        <extensions>
          <ns3:TrackPointExtension>
            <ns3:atemp>21.0</ns3:atemp>
          </ns3:TrackPointExtension>
        </extensions>
      </trkpt>
      <trkpt lat="43.14347776584327220916748046875" lon="13.14166470430791378021240234375">
        <ele>367.79998779296875</ele>
        <time>2021-05-25T08:41:16.000Z</time>
        <extensions>
          <ns3:TrackPointExtension>
            <ns3:atemp>21.0</ns3:atemp>
          </ns3:TrackPointExtension>
        </extensions>
      </trkpt>
      <trkpt lat="43.14348396845161914825439453125" lon="13.1416300870478153228759765625">
        <ele>367.79998779296875</ele>
        <time>2021-05-25T08:41:17.000Z</time>
        <extensions>
          <ns3:TrackPointExtension>
            <ns3:atemp>21.0</ns3:atemp>
          </ns3:TrackPointExtension>
        </extensions>
      </trkpt>
      <trkpt lat="43.14352621324360370635986328125" lon="13.141456581652164459228515625">
        <ele>369</ele>
        <time>2021-05-25T08:41:22.000Z</time>
        <extensions>
          <ns3:TrackPointExtension>
            <ns3:atemp>21.0</ns3:atemp>
          </ns3:TrackPointExtension>
        </extensions>
      </trkpt>
      <trkpt lat="43.14353576861321926116943359375" lon="13.14141928218305110931396484375">
        <ele>369.20001220703125</ele>
        <time>2021-05-25T08:41:23.000Z</time>
        <extensions>
          <ns3:TrackPointExtension>
            <ns3:atemp>21.0</ns3:atemp>
          </ns3:TrackPointExtension>
        </extensions>
      </trkpt>
      <trkpt lat="43.14359293319284915924072265625" lon="13.14111200161278247833251953125">
        <ele>369.79998779296875</ele>
        <time>2021-05-25T08:41:30.000Z</time>
        <extensions>
          <ns3:TrackPointExtension>
            <ns3:atemp>21.0</ns3:atemp>
          </ns3:TrackPointExtension>
        </extensions>
      </trkpt>
      <trkpt lat="43.1436015665531158447265625" lon="13.14106573350727558135986328125">
        <ele>370.20001220703125</ele>
        <time>2021-05-25T08:41:31.000Z</time>
        <extensions>
          <ns3:TrackPointExtension>
            <ns3:atemp>21.0</ns3:atemp>
          </ns3:TrackPointExtension>
        </extensions>
      </trkpt>
      <trkpt lat="43.14360969699919223785400390625" lon="13.140920810401439666748046875">
        <ele>371.600006103515625</ele>
        <time>2021-05-25T08:41:34.000Z</time>
        <extensions>
          <ns3:TrackPointExtension>
            <ns3:atemp>21.0</ns3:atemp>
          </ns3:TrackPointExtension>
        </extensions>
      </trkpt>
      <trkpt lat="43.14367038197815418243408203125" lon="13.14068553037941455841064453125">
        <ele>372.600006103515625</ele>
        <time>2021-05-25T08:41:39.000Z</time>
        <extensions>
          <ns3:TrackPointExtension>
            <ns3:atemp>21.0</ns3:atemp>
          </ns3:TrackPointExtension>
        </extensions>
      </trkpt>
      <trkpt lat="43.1437127105891704559326171875" lon="13.1404187344014644622802734375">
        <ele>373.20001220703125</ele>
        <time>2021-05-25T08:41:45.000Z</time>
        <extensions>
          <ns3:TrackPointExtension>
            <ns3:atemp>21.0</ns3:atemp>
          </ns3:TrackPointExtension>
        </extensions>
      </trkpt>
      <trkpt lat="43.14375956542789936065673828125" lon="13.14016182906925678253173828125">
        <ele>373.79998779296875</ele>
        <time>2021-05-25T08:41:50.000Z</time>
        <extensions>
          <ns3:TrackPointExtension>
            <ns3:atemp>21.0</ns3:atemp>
          </ns3:TrackPointExtension>
        </extensions>
      </trkpt>
      <trkpt lat="43.14387984573841094970703125" lon="13.13985832035541534423828125">
        <ele>375</ele>
        <time>2021-05-25T08:41:56.000Z</time>
        <extensions>
          <ns3:TrackPointExtension>
            <ns3:atemp>21.0</ns3:atemp>
          </ns3:TrackPointExtension>
        </extensions>
      </trkpt>
      <trkpt lat="43.143905662000179290771484375" lon="13.1398160755634307861328125">
        <ele>375.20001220703125</ele>
        <time>2021-05-25T08:41:57.000Z</time>
        <extensions>
          <ns3:TrackPointExtension>
            <ns3:atemp>21.0</ns3:atemp>
          </ns3:TrackPointExtension>
        </extensions>
      </trkpt>
      <trkpt lat="43.1440788321197032928466796875" lon="13.13949890434741973876953125">
        <ele>376</ele>
        <time>2021-05-25T08:42:05.000Z</time>
        <extensions>
          <ns3:TrackPointExtension>
            <ns3:atemp>21.0</ns3:atemp>
          </ns3:TrackPointExtension>
        </extensions>
      </trkpt>
      <trkpt lat="43.14409635029733180999755859375" lon="13.1394593417644500732421875">
        <ele>376.20001220703125</ele>
        <time>2021-05-25T08:42:06.000Z</time>
        <extensions>
          <ns3:TrackPointExtension>
            <ns3:atemp>21.0</ns3:atemp>
          </ns3:TrackPointExtension>
        </extensions>
      </trkpt>
      <trkpt lat="43.14413289539515972137451171875" lon="13.139377534389495849609375">
        <ele>377.20001220703125</ele>
        <time>2021-05-25T08:42:08.000Z</time>
        <extensions>
          <ns3:TrackPointExtension>
            <ns3:atemp>21.0</ns3:atemp>
          </ns3:TrackPointExtension>
        </extensions>
      </trkpt>
      <trkpt lat="43.1441676802933216094970703125" lon="13.13929581083357334136962890625">
        <ele>378.399993896484375</ele>
        <time>2021-05-25T08:42:10.000Z</time>
        <extensions>
          <ns3:TrackPointExtension>
            <ns3:atemp>21.0</ns3:atemp>
          </ns3:TrackPointExtension>
        </extensions>
      </trkpt>
      <trkpt lat="43.1442219950258731842041015625" lon="13.139182068407535552978515625">
        <ele>379.399993896484375</ele>
        <time>2021-05-25T08:42:13.000Z</time>
        <extensions>
          <ns3:TrackPointExtension>
            <ns3:atemp>21.0</ns3:atemp>
          </ns3:TrackPointExtension>
        </extensions>
      </trkpt>
      <trkpt lat="43.14423926174640655517578125" lon="13.13914326019585132598876953125">
        <ele>379.79998779296875</ele>
        <time>2021-05-25T08:42:14.000Z</time>
        <extensions>
          <ns3:TrackPointExtension>
            <ns3:atemp>21.0</ns3:atemp>
          </ns3:TrackPointExtension>
        </extensions>
      </trkpt>
      <trkpt lat="43.1442801654338836669921875" lon="13.1390159390866756439208984375">
        <ele>381</ele>
        <time>2021-05-25T08:42:17.000Z</time>
        <extensions>
          <ns3:TrackPointExtension>
            <ns3:atemp>21.0</ns3:atemp>
          </ns3:TrackPointExtension>
        </extensions>
      </trkpt>
      <trkpt lat="43.14431880600750446319580078125" lon="13.1388851813971996307373046875">
        <ele>382</ele>
        <time>2021-05-25T08:42:20.000Z</time>
        <extensions>
          <ns3:TrackPointExtension>
            <ns3:atemp>21.0</ns3:atemp>
          </ns3:TrackPointExtension>
        </extensions>
      </trkpt>
      <trkpt lat="43.1443762220442295074462890625" lon="13.1387048028409481048583984375">
        <ele>383.20001220703125</ele>
        <time>2021-05-25T08:42:24.000Z</time>
        <extensions>
          <ns3:TrackPointExtension>
            <ns3:atemp>21.0</ns3:atemp>
          </ns3:TrackPointExtension>
        </extensions>
      </trkpt>
      <trkpt lat="43.1444188021123409271240234375" lon="13.138508163392543792724609375">
        <ele>384.20001220703125</ele>
        <time>2021-05-25T08:42:28.000Z</time>
        <extensions>
          <ns3:TrackPointExtension>
            <ns3:atemp>21.0</ns3:atemp>
          </ns3:TrackPointExtension>
        </extensions>
      </trkpt>
      <trkpt lat="43.1444291956722736358642578125" lon="13.13845326192677021026611328125">
        <ele>384.600006103515625</ele>
        <time>2021-05-25T08:42:29.000Z</time>
        <extensions>
          <ns3:TrackPointExtension>
            <ns3:atemp>21.0</ns3:atemp>
          </ns3:TrackPointExtension>
        </extensions>
      </trkpt>
      <trkpt lat="43.14447303302586078643798828125" lon="13.1382243521511554718017578125">
        <ele>385.600006103515625</ele>
        <time>2021-05-25T08:42:33.000Z</time>
        <extensions>
          <ns3:TrackPointExtension>
            <ns3:atemp>21.0</ns3:atemp>
          </ns3:TrackPointExtension>
        </extensions>
      </trkpt>
      <trkpt lat="43.14448577351868152618408203125" lon="13.138165511190891265869140625">
        <ele>385.79998779296875</ele>
        <time>2021-05-25T08:42:34.000Z</time>
        <extensions>
          <ns3:TrackPointExtension>
            <ns3:atemp>21.0</ns3:atemp>
          </ns3:TrackPointExtension>
        </extensions>
      </trkpt>
      <trkpt lat="43.1444955803453922271728515625" lon="13.13810809515416622161865234375">
        <ele>385.79998779296875</ele>
        <time>2021-05-25T08:42:35.000Z</time>
        <extensions>
          <ns3:TrackPointExtension>
            <ns3:atemp>21.0</ns3:atemp>
          </ns3:TrackPointExtension>
        </extensions>
      </trkpt>
      <trkpt lat="43.14452298916876316070556640625" lon="13.13793123699724674224853515625">
        <ele>386</ele>
        <time>2021-05-25T08:42:38.000Z</time>
        <extensions>
          <ns3:TrackPointExtension>
            <ns3:atemp>21.0</ns3:atemp>
          </ns3:TrackPointExtension>
        </extensions>
      </trkpt>
      <trkpt lat="43.14452533610165119171142578125" lon="13.13787491060793399810791015625">
        <ele>386.20001220703125</ele>
        <time>2021-05-25T08:42:39.000Z</time>
        <extensions>
          <ns3:TrackPointExtension>
            <ns3:atemp>21.0</ns3:atemp>
          </ns3:TrackPointExtension>
        </extensions>
      </trkpt>
      <trkpt lat="43.14454109407961368560791015625" lon="13.13772738911211490631103515625">
        <ele>386.79998779296875</ele>
        <time>2021-05-25T08:42:42.000Z</time>
        <extensions>
          <ns3:TrackPointExtension>
            <ns3:atemp>21.0</ns3:atemp>
          </ns3:TrackPointExtension>
        </extensions>
      </trkpt>
      <trkpt lat="43.14454905688762664794921875" lon="13.13767240382730960845947265625">
        <ele>387</ele>
        <time>2021-05-25T08:42:43.000Z</time>
        <extensions>
          <ns3:TrackPointExtension>
            <ns3:atemp>21.0</ns3:atemp>
          </ns3:TrackPointExtension>
        </extensions>
      </trkpt>
      <trkpt lat="43.1445931456983089447021484375" lon="13.13739580102264881134033203125">
        <ele>387.79998779296875</ele>
        <time>2021-05-25T08:42:49.000Z</time>
        <extensions>
          <ns3:TrackPointExtension>
            <ns3:atemp>21.0</ns3:atemp>
          </ns3:TrackPointExtension>
        </extensions>
      </trkpt>
      <trkpt lat="43.1445991806685924530029296875" lon="13.1373469345271587371826171875">
        <ele>388</ele>
        <time>2021-05-25T08:42:50.000Z</time>
        <extensions>
          <ns3:TrackPointExtension>
            <ns3:atemp>21.0</ns3:atemp>
          </ns3:TrackPointExtension>
        </extensions>
      </trkpt>
      <trkpt lat="43.1446149386465549468994140625" lon="13.13721089623868465423583984375">
        <ele>389.399993896484375</ele>
        <time>2021-05-25T08:42:53.000Z</time>
        <extensions>
          <ns3:TrackPointExtension>
            <ns3:atemp>21.0</ns3:atemp>
          </ns3:TrackPointExtension>
        </extensions>
      </trkpt>
      <trkpt lat="43.1446454487740993499755859375" lon="13.13699246384203433990478515625">
        <ele>390.20001220703125</ele>
        <time>2021-05-25T08:42:57.000Z</time>
        <extensions>
          <ns3:TrackPointExtension>
            <ns3:atemp>21.0</ns3:atemp>
          </ns3:TrackPointExtension>
        </extensions>
      </trkpt>
      <trkpt lat="43.14465927891433238983154296875" lon="13.136697672307491302490234375">
        <ele>390.79998779296875</ele>
        <time>2021-05-25T08:43:02.000Z</time>
        <extensions>
          <ns3:TrackPointExtension>
            <ns3:atemp>21.0</ns3:atemp>
          </ns3:TrackPointExtension>
        </extensions>
      </trkpt>
      <trkpt lat="43.14466229639947414398193359375" lon="13.13648200593888759613037109375">
        <ele>391.600006103515625</ele>
        <time>2021-05-25T08:43:06.000Z</time>
        <extensions>
          <ns3:TrackPointExtension>
            <ns3:atemp>21.0</ns3:atemp>
          </ns3:TrackPointExtension>
        </extensions>
      </trkpt>
      <trkpt lat="43.1446575187146663665771484375" lon="13.1361912377178668975830078125">
        <ele>392.20001220703125</ele>
        <time>2021-05-25T08:43:11.000Z</time>
        <extensions>
          <ns3:TrackPointExtension>
            <ns3:atemp>21.0</ns3:atemp>
          </ns3:TrackPointExtension>
        </extensions>
      </trkpt>
      <trkpt lat="43.1446182914078235626220703125" lon="13.1359213404357433319091796875">
        <ele>392.20001220703125</ele>
        <time>2021-05-25T08:43:16.000Z</time>
        <extensions>
          <ns3:TrackPointExtension>
            <ns3:atemp>21.0</ns3:atemp>
          </ns3:TrackPointExtension>
        </extensions>
      </trkpt>
      <trkpt lat="43.1445975042879581451416015625" lon="13.13578479923307895660400390625">
        <ele>391.79998779296875</ele>
        <time>2021-05-25T08:43:18.000Z</time>
        <extensions>
          <ns3:TrackPointExtension>
            <ns3:atemp>21.0</ns3:atemp>
          </ns3:TrackPointExtension>
        </extensions>
      </trkpt>
      <trkpt lat="43.1445928104221820831298828125" lon="13.135649599134922027587890625">
        <ele>391.600006103515625</ele>
        <time>2021-05-25T08:43:20.000Z</time>
        <extensions>
          <ns3:TrackPointExtension>
            <ns3:atemp>21.0</ns3:atemp>
          </ns3:TrackPointExtension>
        </extensions>
      </trkpt>
      <trkpt lat="43.144640587270259857177734375" lon="13.13532211817800998687744140625">
        <ele>391.600006103515625</ele>
        <time>2021-05-25T08:43:25.000Z</time>
        <extensions>
          <ns3:TrackPointExtension>
            <ns3:atemp>21.0</ns3:atemp>
          </ns3:TrackPointExtension>
        </extensions>
      </trkpt>
      <trkpt lat="43.1447175331413745880126953125" lon="13.135129250586032867431640625">
        <ele>391.600006103515625</ele>
        <time>2021-05-25T08:43:28.000Z</time>
        <extensions>
          <ns3:TrackPointExtension>
            <ns3:atemp>21.0</ns3:atemp>
          </ns3:TrackPointExtension>
        </extensions>
      </trkpt>
      <trkpt lat="43.14477193169295787811279296875" lon="13.13500930555164813995361328125">
        <ele>391.79998779296875</ele>
        <time>2021-05-25T08:43:30.000Z</time>
        <extensions>
          <ns3:TrackPointExtension>
            <ns3:atemp>21.0</ns3:atemp>
          </ns3:TrackPointExtension>
        </extensions>
      </trkpt>
      <trkpt lat="43.14479707740247249603271484375" lon="13.13495457172393798828125">
        <ele>392</ele>
        <time>2021-05-25T08:43:31.000Z</time>
        <extensions>
          <ns3:TrackPointExtension>
            <ns3:atemp>21.0</ns3:atemp>
          </ns3:TrackPointExtension>
        </extensions>
      </trkpt>
      <trkpt lat="43.144854493439197540283203125" lon="13.13478332944214344024658203125">
        <ele>392.399993896484375</ele>
        <time>2021-05-25T08:43:34.000Z</time>
        <extensions>
          <ns3:TrackPointExtension>
            <ns3:atemp>21.0</ns3:atemp>
          </ns3:TrackPointExtension>
        </extensions>
      </trkpt>
      <trkpt lat="43.14487167634069919586181640625" lon="13.13472532667219638824462890625">
        <ele>392.600006103515625</ele>
        <time>2021-05-25T08:43:35.000Z</time>
        <extensions>
          <ns3:TrackPointExtension>
            <ns3:atemp>21.0</ns3:atemp>
          </ns3:TrackPointExtension>
        </extensions>
      </trkpt>
      <trkpt lat="43.14490218646824359893798828125" lon="13.1346218101680278778076171875">
        <ele>392.79998779296875</ele>
        <time>2021-05-25T08:43:37.000Z</time>
        <extensions>
          <ns3:TrackPointExtension>
            <ns3:atemp>21.0</ns3:atemp>
          </ns3:TrackPointExtension>
        </extensions>
      </trkpt>
      <trkpt lat="43.144949041306972503662109375" lon="13.1343981809914112091064453125">
        <ele>393.600006103515625</ele>
        <time>2021-05-25T08:43:42.000Z</time>
        <extensions>
          <ns3:TrackPointExtension>
            <ns3:atemp>21.0</ns3:atemp>
          </ns3:TrackPointExtension>
        </extensions>
      </trkpt>
      <trkpt lat="43.14495901577174663543701171875" lon="13.13435501419007778167724609375">
        <ele>393.600006103515625</ele>
        <time>2021-05-25T08:43:43.000Z</time>
        <extensions>
          <ns3:TrackPointExtension>
            <ns3:atemp>21.0</ns3:atemp>
          </ns3:TrackPointExtension>
        </extensions>
      </trkpt>
      <trkpt lat="43.14500846900045871734619140625" lon="13.13413741998374462127685546875">
        <ele>395</ele>
        <time>2021-05-25T08:43:48.000Z</time>
        <extensions>
          <ns3:TrackPointExtension>
            <ns3:atemp>21.0</ns3:atemp>
          </ns3:TrackPointExtension>
        </extensions>
      </trkpt>
      <trkpt lat="43.145021460950374603271484375" lon="13.13409232534468173980712890625">
        <ele>395.20001220703125</ele>
        <time>2021-05-25T08:43:49.000Z</time>
        <extensions>
          <ns3:TrackPointExtension>
            <ns3:atemp>21.0</ns3:atemp>
          </ns3:TrackPointExtension>
        </extensions>
      </trkpt>
      <trkpt lat="43.1450913660228252410888671875" lon="13.13389970920979976654052734375">
        <ele>395.79998779296875</ele>
        <time>2021-05-25T08:43:53.000Z</time>
        <extensions>
          <ns3:TrackPointExtension>
            <ns3:atemp>21.0</ns3:atemp>
          </ns3:TrackPointExtension>
        </extensions>
      </trkpt>
      <trkpt lat="43.14511877484619617462158203125" lon="13.1338476575911045074462890625">
        <ele>395.79998779296875</ele>
        <time>2021-05-25T08:43:54.000Z</time>
        <extensions>
          <ns3:TrackPointExtension>
            <ns3:atemp>21.0</ns3:atemp>
          </ns3:TrackPointExtension>
        </extensions>
      </trkpt>
      <trkpt lat="43.14521499909460544586181640625" lon="13.13367976807057857513427734375">
        <ele>396</ele>
        <time>2021-05-25T08:43:57.000Z</time>
        <extensions>
          <ns3:TrackPointExtension>
            <ns3:atemp>21.0</ns3:atemp>
          </ns3:TrackPointExtension>
        </extensions>
      </trkpt>
      <trkpt lat="43.14527953974902629852294921875" lon="13.13356996513903141021728515625">
        <ele>396</ele>
        <time>2021-05-25T08:43:59.000Z</time>
        <extensions>
          <ns3:TrackPointExtension>
            <ns3:atemp>21.0</ns3:atemp>
          </ns3:TrackPointExtension>
        </extensions>
      </trkpt>
      <trkpt lat="43.145490847527980804443359375" lon="13.13330702483654022216796875">
        <ele>396</ele>
        <time>2021-05-25T08:44:05.000Z</time>
        <extensions>
          <ns3:TrackPointExtension>
            <ns3:atemp>21.0</ns3:atemp>
          </ns3:TrackPointExtension>
        </extensions>
      </trkpt>
      <trkpt lat="43.14553820528090000152587890625" lon="13.13327760435640811920166015625">
        <ele>396</ele>
        <time>2021-05-25T08:44:06.000Z</time>
        <extensions>
          <ns3:TrackPointExtension>
            <ns3:atemp>21.0</ns3:atemp>
          </ns3:TrackPointExtension>
        </extensions>
      </trkpt>
      <trkpt lat="43.14575362019240856170654296875" lon="13.1331636942923069000244140625">
        <ele>395.79998779296875</ele>
        <time>2021-05-25T08:44:10.000Z</time>
        <extensions>
          <ns3:TrackPointExtension>
            <ns3:atemp>21.0</ns3:atemp>
          </ns3:TrackPointExtension>
        </extensions>
      </trkpt>
      <trkpt lat="43.14579360187053680419921875" lon="13.1331026740372180938720703125">
        <ele>395.79998779296875</ele>
        <time>2021-05-25T08:44:11.000Z</time>
        <extensions>
          <ns3:TrackPointExtension>
            <ns3:atemp>21.0</ns3:atemp>
          </ns3:TrackPointExtension>
        </extensions>
      </trkpt>
      <trkpt lat="43.14583039842545986175537109375" lon="13.1328991614282131195068359375">
        <ele>394.79998779296875</ele>
        <time>2021-05-25T08:44:14.000Z</time>
        <extensions>
          <ns3:TrackPointExtension>
            <ns3:atemp>21.0</ns3:atemp>
          </ns3:TrackPointExtension>
        </extensions>
      </trkpt>
      <trkpt lat="43.14583651721477508544921875" lon="13.13265834935009479522705078125">
        <ele>394</ele>
        <time>2021-05-25T08:44:17.000Z</time>
        <extensions>
          <ns3:TrackPointExtension>
            <ns3:atemp>21.0</ns3:atemp>
          </ns3:TrackPointExtension>
        </extensions>
      </trkpt>
      <trkpt lat="43.14584397710859775543212890625" lon="13.13257838599383831024169921875">
        <ele>393.600006103515625</ele>
        <time>2021-05-25T08:44:18.000Z</time>
        <extensions>
          <ns3:TrackPointExtension>
            <ns3:atemp>21.0</ns3:atemp>
          </ns3:TrackPointExtension>
        </extensions>
      </trkpt>
      <trkpt lat="43.1458527781069278717041015625" lon="13.132512755692005157470703125">
        <ele>393.399993896484375</ele>
        <time>2021-05-25T08:44:19.000Z</time>
        <extensions>
          <ns3:TrackPointExtension>
            <ns3:atemp>21.0</ns3:atemp>
          </ns3:TrackPointExtension>
        </extensions>
      </trkpt>
      <trkpt lat="43.14587314613163471221923828125" lon="13.1324073113501071929931640625">
        <ele>393.20001220703125</ele>
        <time>2021-05-25T08:44:21.000Z</time>
        <extensions>
          <ns3:TrackPointExtension>
            <ns3:atemp>21.0</ns3:atemp>
          </ns3:TrackPointExtension>
        </extensions>
      </trkpt>
      <trkpt lat="43.14591354690492153167724609375" lon="13.132208324968814849853515625">
        <ele>394</ele>
        <time>2021-05-25T08:44:26.000Z</time>
        <extensions>
          <ns3:TrackPointExtension>
            <ns3:atemp>21.0</ns3:atemp>
          </ns3:TrackPointExtension>
        </extensions>
      </trkpt>
      <trkpt lat="43.14596660435199737548828125" lon="13.13205049373209476470947265625">
        <ele>395</ele>
        <time>2021-05-25T08:44:30.000Z</time>
        <extensions>
          <ns3:TrackPointExtension>
            <ns3:atemp>21.0</ns3:atemp>
          </ns3:TrackPointExtension>
        </extensions>
      </trkpt>
      <trkpt lat="43.1459967792034149169921875" lon="13.13193834386765956878662109375">
        <ele>396.399993896484375</ele>
        <time>2021-05-25T08:44:33.000Z</time>
        <extensions>
          <ns3:TrackPointExtension>
            <ns3:atemp>21.0</ns3:atemp>
          </ns3:TrackPointExtension>
        </extensions>
      </trkpt>
      <trkpt lat="43.146008513867855072021484375" lon="13.1319023855030536651611328125">
        <ele>397</ele>
        <time>2021-05-25T08:44:34.000Z</time>
        <extensions>
          <ns3:TrackPointExtension>
            <ns3:atemp>21.0</ns3:atemp>
          </ns3:TrackPointExtension>
        </extensions>
      </trkpt>
      <trkpt lat="43.14602150581777095794677734375" lon="13.13186743296682834625244140625">
        <ele>397.600006103515625</ele>
        <time>2021-05-25T08:44:35.000Z</time>
        <extensions>
          <ns3:TrackPointExtension>
            <ns3:atemp>21.0</ns3:atemp>
          </ns3:TrackPointExtension>
        </extensions>
      </trkpt>
      <trkpt lat="43.146056123077869415283203125" lon="13.13176207244396209716796875">
        <ele>398.79998779296875</ele>
        <time>2021-05-25T08:44:38.000Z</time>
        <extensions>
          <ns3:TrackPointExtension>
            <ns3:atemp>21.0</ns3:atemp>
          </ns3:TrackPointExtension>
        </extensions>
      </trkpt>
      <trkpt lat="43.14608839340507984161376953125" lon="13.1316656805574893951416015625">
        <ele>399.79998779296875</ele>
        <time>2021-05-25T08:44:41.000Z</time>
        <extensions>
          <ns3:TrackPointExtension>
            <ns3:atemp>21.0</ns3:atemp>
          </ns3:TrackPointExtension>
        </extensions>
      </trkpt>
      <trkpt lat="43.1461028940975666046142578125" lon="13.13163072802126407623291015625">
        <ele>400.399993896484375</ele>
        <time>2021-05-25T08:44:42.000Z</time>
        <extensions>
          <ns3:TrackPointExtension>
            <ns3:atemp>21.0</ns3:atemp>
          </ns3:TrackPointExtension>
        </extensions>
      </trkpt>
      <trkpt lat="43.14615595154464244842529296875" lon="13.131498880684375762939453125">
        <ele>402</ele>
        <time>2021-05-25T08:44:46.000Z</time>
        <extensions>
          <ns3:TrackPointExtension>
            <ns3:atemp>21.0</ns3:atemp>
          </ns3:TrackPointExtension>
        </extensions>
      </trkpt>
      <trkpt lat="43.1461810134351253509521484375" lon="13.131441213190555572509765625">
        <ele>402.399993896484375</ele>
        <time>2021-05-25T08:44:48.000Z</time>
        <extensions>
          <ns3:TrackPointExtension>
            <ns3:atemp>21.0</ns3:atemp>
          </ns3:TrackPointExtension>
        </extensions>
      </trkpt>
      <trkpt lat="43.1462349928915500640869140625" lon="13.131287656724452972412109375">
        <ele>403</ele>
        <time>2021-05-25T08:44:53.000Z</time>
        <extensions>
          <ns3:TrackPointExtension>
            <ns3:atemp>21.0</ns3:atemp>
          </ns3:TrackPointExtension>
        </extensions>
      </trkpt>
      <trkpt lat="43.1462430395185947418212890625" lon="13.1312542967498302459716796875">
        <ele>403.399993896484375</ele>
        <time>2021-05-25T08:44:54.000Z</time>
        <extensions>
          <ns3:TrackPointExtension>
            <ns3:atemp>21.0</ns3:atemp>
          </ns3:TrackPointExtension>
        </extensions>
      </trkpt>
      <trkpt lat="43.1462775729596614837646484375" lon="13.1311483494937419891357421875">
        <ele>404</ele>
        <time>2021-05-25T08:44:57.000Z</time>
        <extensions>
          <ns3:TrackPointExtension>
            <ns3:atemp>21.0</ns3:atemp>
          </ns3:TrackPointExtension>
        </extensions>
      </trkpt>
      <trkpt lat="43.1463255174458026885986328125" lon="13.13101373612880706787109375">
        <ele>405.20001220703125</ele>
        <time>2021-05-25T08:45:01.000Z</time>
        <extensions>
          <ns3:TrackPointExtension>
            <ns3:atemp>21.0</ns3:atemp>
          </ns3:TrackPointExtension>
        </extensions>
      </trkpt>
      <trkpt lat="43.1463416106998920440673828125" lon="13.1309827230870723724365234375">
        <ele>405.399993896484375</ele>
        <time>2021-05-25T08:45:02.000Z</time>
        <extensions>
          <ns3:TrackPointExtension>
            <ns3:atemp>21.0</ns3:atemp>
          </ns3:TrackPointExtension>
        </extensions>
      </trkpt>
      <trkpt lat="43.146424256265163421630859375" lon="13.13078281469643115997314453125">
        <ele>406.20001220703125</ele>
        <time>2021-05-25T08:45:08.000Z</time>
        <extensions>
          <ns3:TrackPointExtension>
            <ns3:atemp>21.0</ns3:atemp>
          </ns3:TrackPointExtension>
        </extensions>
      </trkpt>
      <trkpt lat="43.1464431993663311004638671875" lon="13.130752556025981903076171875">
        <ele>406.399993896484375</ele>
        <time>2021-05-25T08:45:09.000Z</time>
        <extensions>
          <ns3:TrackPointExtension>
            <ns3:atemp>21.0</ns3:atemp>
          </ns3:TrackPointExtension>
        </extensions>
      </trkpt>
      <trkpt lat="43.146472536027431488037109375" lon="13.13069455325603485107421875">
        <ele>407.600006103515625</ele>
        <time>2021-05-25T08:45:11.000Z</time>
        <extensions>
          <ns3:TrackPointExtension>
            <ns3:atemp>21.0</ns3:atemp>
          </ns3:TrackPointExtension>
        </extensions>
      </trkpt>
      <trkpt lat="43.14654889516532421112060546875" lon="13.13058600760996341705322265625">
        <ele>408.79998779296875</ele>
        <time>2021-05-25T08:45:15.000Z</time>
        <extensions>
          <ns3:TrackPointExtension>
            <ns3:atemp>21.0</ns3:atemp>
          </ns3:TrackPointExtension>
        </extensions>
      </trkpt>
      <trkpt lat="43.14657102338969707489013671875" lon="13.1305597722530364990234375">
        <ele>410.399993896484375</ele>
        <time>2021-05-25T08:45:16.000Z</time>
        <extensions>
          <ns3:TrackPointExtension>
            <ns3:atemp>21.0</ns3:atemp>
          </ns3:TrackPointExtension>
        </extensions>
      </trkpt>
      <trkpt lat="43.14663137309253215789794921875" lon="13.1304915435612201690673828125">
        <ele>411.399993896484375</ele>
        <time>2021-05-25T08:45:19.000Z</time>
        <extensions>
          <ns3:TrackPointExtension>
            <ns3:atemp>21.0</ns3:atemp>
          </ns3:TrackPointExtension>
        </extensions>
      </trkpt>
      <trkpt lat="43.1466604582965373992919921875" lon="13.1304439343512058258056640625">
        <ele>412.20001220703125</ele>
        <time>2021-05-25T08:45:21.000Z</time>
        <extensions>
          <ns3:TrackPointExtension>
            <ns3:atemp>21.0</ns3:atemp>
          </ns3:TrackPointExtension>
        </extensions>
      </trkpt>
      <trkpt lat="43.146675042808055877685546875" lon="13.13041166402399539947509765625">
        <ele>412.600006103515625</ele>
        <time>2021-05-25T08:45:22.000Z</time>
        <extensions>
          <ns3:TrackPointExtension>
            <ns3:atemp>21.0</ns3:atemp>
          </ns3:TrackPointExtension>
        </extensions>
      </trkpt>
      <trkpt lat="43.14673782326281070709228515625" lon="13.13025374896824359893798828125">
        <ele>412.79998779296875</ele>
        <time>2021-05-25T08:45:26.000Z</time>
        <extensions>
          <ns3:TrackPointExtension>
            <ns3:atemp>21.0</ns3:atemp>
          </ns3:TrackPointExtension>
        </extensions>
      </trkpt>
      <trkpt lat="43.1468207202851772308349609375" lon="13.1300161220133304595947265625">
        <ele>412.600006103515625</ele>
        <time>2021-05-25T08:45:32.000Z</time>
        <extensions>
          <ns3:TrackPointExtension>
            <ns3:atemp>21.0</ns3:atemp>
          </ns3:TrackPointExtension>
        </extensions>
      </trkpt>
      <trkpt lat="43.14693211577832698822021484375" lon="13.1299131922423839569091796875">
        <ele>412.20001220703125</ele>
        <time>2021-05-25T08:45:37.000Z</time>
        <extensions>
          <ns3:TrackPointExtension>
            <ns3:atemp>21.0</ns3:atemp>
          </ns3:TrackPointExtension>
        </extensions>
      </trkpt>
      <trkpt lat="43.14697536639869213104248046875" lon="13.12989064492285251617431640625">
        <ele>412.399993896484375</ele>
        <time>2021-05-25T08:45:41.000Z</time>
        <extensions>
          <ns3:TrackPointExtension>
            <ns3:atemp>21.0</ns3:atemp>
          </ns3:TrackPointExtension>
        </extensions>
      </trkpt>
      <trkpt lat="43.14698374830186367034912109375" lon="13.1298900581896305084228515625">
        <ele>412.20001220703125</ele>
        <time>2021-05-25T08:45:51.000Z</time>
        <extensions>
          <ns3:TrackPointExtension>
            <ns3:atemp>21.0</ns3:atemp>
          </ns3:TrackPointExtension>
        </extensions>
      </trkpt>
      <trkpt lat="43.14698450267314910888671875" lon="13.12989081256091594696044921875">
        <ele>412</ele>
        <time>2021-05-25T08:46:06.000Z</time>
        <extensions>
          <ns3:TrackPointExtension>
            <ns3:atemp>21.0</ns3:atemp>
          </ns3:TrackPointExtension>
        </extensions>
      </trkpt>
      <trkpt lat="43.14698575995862483978271484375" lon="13.1298893876373767852783203125">
        <ele>411.600006103515625</ele>
        <time>2021-05-25T08:46:26.000Z</time>
        <extensions>
          <ns3:TrackPointExtension>
            <ns3:atemp>21.0</ns3:atemp>
          </ns3:TrackPointExtension>
        </extensions>
      </trkpt>
      <trkpt lat="43.146986179053783416748046875" lon="13.12988896854221820831298828125">
        <ele>411.399993896484375</ele>
        <time>2021-05-25T08:46:29.000Z</time>
        <extensions>
          <ns3:TrackPointExtension>
            <ns3:atemp>21.0</ns3:atemp>
          </ns3:TrackPointExtension>
        </extensions>
      </trkpt>
      <trkpt lat="43.1469883583486080169677734375" lon="13.12988846562802791595458984375">
        <ele>410.600006103515625</ele>
        <time>2021-05-25T08:46:58.000Z</time>
        <extensions>
          <ns3:TrackPointExtension>
            <ns3:atemp>21.0</ns3:atemp>
          </ns3:TrackPointExtension>
        </extensions>
      </trkpt>
      <trkpt lat="43.14699028618633747100830078125" lon="13.1298892199993133544921875">
        <ele>410.79998779296875</ele>
        <time>2021-05-25T08:47:31.000Z</time>
        <extensions>
          <ns3:TrackPointExtension>
            <ns3:atemp>22.0</ns3:atemp>
          </ns3:TrackPointExtension>
        </extensions>
      </trkpt>
      <trkpt lat="43.14699062146246433258056640625" lon="13.1298883818089962005615234375">
        <ele>410.20001220703125</ele>
        <time>2021-05-25T08:47:37.000Z</time>
        <extensions>
          <ns3:TrackPointExtension>
            <ns3:atemp>22.0</ns3:atemp>
          </ns3:TrackPointExtension>
        </extensions>
      </trkpt>
      <trkpt lat="43.146991543471813201904296875" lon="13.12988720834255218505859375">
        <ele>410.600006103515625</ele>
        <time>2021-05-25T08:47:56.000Z</time>
        <extensions>
          <ns3:TrackPointExtension>
            <ns3:atemp>22.0</ns3:atemp>
          </ns3:TrackPointExtension>
        </extensions>
      </trkpt>
      <trkpt lat="43.14699213020503520965576171875" lon="13.1298853643238544464111328125">
        <ele>411</ele>
        <time>2021-05-25T08:48:19.000Z</time>
        <extensions>
          <ns3:TrackPointExtension>
            <ns3:atemp>22.0</ns3:atemp>
          </ns3:TrackPointExtension>
        </extensions>
      </trkpt>
      <trkpt lat="43.146992214024066925048828125" lon="13.12988226301968097686767578125">
        <ele>410.600006103515625</ele>
        <time>2021-05-25T08:49:00.000Z</time>
        <extensions>
          <ns3:TrackPointExtension>
            <ns3:atemp>22.0</ns3:atemp>
          </ns3:TrackPointExtension>
        </extensions>
      </trkpt>
      <trkpt lat="43.14699246548116207122802734375" lon="13.12988025136291980743408203125">
        <ele>410.79998779296875</ele>
        <time>2021-05-25T08:49:28.000Z</time>
        <extensions>
          <ns3:TrackPointExtension>
            <ns3:atemp>23.0</ns3:atemp>
          </ns3:TrackPointExtension>
        </extensions>
      </trkpt>
      <trkpt lat="43.14701392315328121185302734375" lon="13.12986382283270359039306640625">
        <ele>411</ele>
        <time>2021-05-25T08:49:47.000Z</time>
        <extensions>
          <ns3:TrackPointExtension>
            <ns3:atemp>23.0</ns3:atemp>
          </ns3:TrackPointExtension>
        </extensions>
      </trkpt>
      <trkpt lat="43.14703336916863918304443359375" lon="13.12983817420899868011474609375">
        <ele>411</ele>
        <time>2021-05-25T08:49:49.000Z</time>
        <extensions>
          <ns3:TrackPointExtension>
            <ns3:atemp>23.0</ns3:atemp>
          </ns3:TrackPointExtension>
        </extensions>
      </trkpt>
      <trkpt lat="43.14708567224442958831787109375" lon="13.12976122833788394927978515625">
        <ele>411.20001220703125</ele>
        <time>2021-05-25T08:49:52.000Z</time>
        <extensions>
          <ns3:TrackPointExtension>
            <ns3:atemp>23.0</ns3:atemp>
          </ns3:TrackPointExtension>
        </extensions>
      </trkpt>
      <trkpt lat="43.1471640430390834808349609375" lon="13.12969543039798736572265625">
        <ele>411.20001220703125</ele>
        <time>2021-05-25T08:49:55.000Z</time>
        <extensions>
          <ns3:TrackPointExtension>
            <ns3:atemp>23.0</ns3:atemp>
          </ns3:TrackPointExtension>
        </extensions>
      </trkpt>
      <trkpt lat="43.14723922871053218841552734375" lon="13.12962703406810760498046875">
        <ele>411.399993896484375</ele>
        <time>2021-05-25T08:49:58.000Z</time>
        <extensions>
          <ns3:TrackPointExtension>
            <ns3:atemp>23.0</ns3:atemp>
          </ns3:TrackPointExtension>
        </extensions>
      </trkpt>
      <trkpt lat="43.14740653149783611297607421875" lon="13.12943659722805023193359375">
        <ele>412.20001220703125</ele>
        <time>2021-05-25T08:50:05.000Z</time>
        <extensions>
          <ns3:TrackPointExtension>
            <ns3:atemp>23.0</ns3:atemp>
          </ns3:TrackPointExtension>
        </extensions>
      </trkpt>
      <trkpt lat="43.14742631278932094573974609375" lon="13.12940348871052265167236328125">
        <ele>412.20001220703125</ele>
        <time>2021-05-25T08:50:06.000Z</time>
        <extensions>
          <ns3:TrackPointExtension>
            <ns3:atemp>23.0</ns3:atemp>
          </ns3:TrackPointExtension>
        </extensions>
      </trkpt>
      <trkpt lat="43.1475095450878143310546875" lon="13.1292335875332355499267578125">
        <ele>412.600006103515625</ele>
        <time>2021-05-25T08:50:11.000Z</time>
        <extensions>
          <ns3:TrackPointExtension>
            <ns3:atemp>23.0</ns3:atemp>
          </ns3:TrackPointExtension>
        </extensions>
      </trkpt>
      <trkpt lat="43.14763493835926055908203125" lon="13.1290589086711406707763671875">
        <ele>412.79998779296875</ele>
        <time>2021-05-25T08:50:16.000Z</time>
        <extensions>
          <ns3:TrackPointExtension>
            <ns3:atemp>23.0</ns3:atemp>
          </ns3:TrackPointExtension>
        </extensions>
      </trkpt>
      <trkpt lat="43.1478238664567470550537109375" lon="13.12882597558200359344482421875">
        <ele>411.79998779296875</ele>
        <time>2021-05-25T08:50:22.000Z</time>
        <extensions>
          <ns3:TrackPointExtension>
            <ns3:atemp>23.0</ns3:atemp>
          </ns3:TrackPointExtension>
        </extensions>
      </trkpt>
      <trkpt lat="43.14787633717060089111328125" lon="13.1287497840821743011474609375">
        <ele>411.20001220703125</ele>
        <time>2021-05-25T08:50:24.000Z</time>
        <extensions>
          <ns3:TrackPointExtension>
            <ns3:atemp>23.0</ns3:atemp>
          </ns3:TrackPointExtension>
        </extensions>
      </trkpt>
      <trkpt lat="43.14799125306308269500732421875" lon="13.12859362922608852386474609375">
        <ele>411</ele>
        <time>2021-05-25T08:50:28.000Z</time>
        <extensions>
          <ns3:TrackPointExtension>
            <ns3:atemp>23.0</ns3:atemp>
          </ns3:TrackPointExtension>
        </extensions>
      </trkpt>
      <trkpt lat="43.148226030170917510986328125" lon="13.128326833248138427734375">
        <ele>411</ele>
        <time>2021-05-25T08:50:35.000Z</time>
        <extensions>
          <ns3:TrackPointExtension>
            <ns3:atemp>23.0</ns3:atemp>
          </ns3:TrackPointExtension>
        </extensions>
      </trkpt>
      <trkpt lat="43.1484766490757465362548828125" lon="13.128095827996730804443359375">
        <ele>412</ele>
        <time>2021-05-25T08:50:42.000Z</time>
        <extensions>
          <ns3:TrackPointExtension>
            <ns3:atemp>23.0</ns3:atemp>
          </ns3:TrackPointExtension>
        </extensions>
      </trkpt>
      <trkpt lat="43.14851545728743076324462890625" lon="13.12806523405015468597412109375">
        <ele>412.20001220703125</ele>
        <time>2021-05-25T08:50:43.000Z</time>
        <extensions>
          <ns3:TrackPointExtension>
            <ns3:atemp>23.0</ns3:atemp>
          </ns3:TrackPointExtension>
        </extensions>
      </trkpt>
      <trkpt lat="43.1485946662724018096923828125" lon="13.1280034594237804412841796875">
        <ele>412.399993896484375</ele>
        <time>2021-05-25T08:50:45.000Z</time>
        <extensions>
          <ns3:TrackPointExtension>
            <ns3:atemp>23.0</ns3:atemp>
          </ns3:TrackPointExtension>
        </extensions>
      </trkpt>
      <trkpt lat="43.1487043015658855438232421875" lon="13.127933554351329803466796875">
        <ele>412.79998779296875</ele>
        <time>2021-05-25T08:50:48.000Z</time>
        <extensions>
          <ns3:TrackPointExtension>
            <ns3:atemp>23.0</ns3:atemp>
          </ns3:TrackPointExtension>
        </extensions>
      </trkpt>
      <trkpt lat="43.1488265097141265869140625" lon="13.1278579495847225189208984375">
        <ele>413.20001220703125</ele>
        <time>2021-05-25T08:50:51.000Z</time>
        <extensions>
          <ns3:TrackPointExtension>
            <ns3:atemp>23.0</ns3:atemp>
          </ns3:TrackPointExtension>
        </extensions>
      </trkpt>
      <trkpt lat="43.1489094905555248260498046875" lon="13.1278078258037567138671875">
        <ele>413.399993896484375</ele>
        <time>2021-05-25T08:50:53.000Z</time>
        <extensions>
          <ns3:TrackPointExtension>
            <ns3:atemp>23.0</ns3:atemp>
          </ns3:TrackPointExtension>
        </extensions>
      </trkpt>
      <trkpt lat="43.14918525516986846923828125" lon="13.12765150330960750579833984375">
        <ele>413.79998779296875</ele>
        <time>2021-05-25T08:51:00.000Z</time>
        <extensions>
          <ns3:TrackPointExtension>
            <ns3:atemp>23.0</ns3:atemp>
          </ns3:TrackPointExtension>
        </extensions>
      </trkpt>
      <trkpt lat="43.14942103810608386993408203125" lon="13.1274593062698841094970703125">
        <ele>413.79998779296875</ele>
        <time>2021-05-25T08:51:06.000Z</time>
        <extensions>
          <ns3:TrackPointExtension>
            <ns3:atemp>23.0</ns3:atemp>
          </ns3:TrackPointExtension>
        </extensions>
      </trkpt>
      <trkpt lat="43.14959228038787841796875" lon="13.127201311290264129638671875">
        <ele>413.20001220703125</ele>
        <time>2021-05-25T08:51:12.000Z</time>
        <extensions>
          <ns3:TrackPointExtension>
            <ns3:atemp>23.0</ns3:atemp>
          </ns3:TrackPointExtension>
        </extensions>
      </trkpt>
      <trkpt lat="43.149797134101390838623046875" lon="13.127007186412811279296875">
        <ele>413.399993896484375</ele>
        <time>2021-05-25T08:51:19.000Z</time>
        <extensions>
          <ns3:TrackPointExtension>
            <ns3:atemp>23.0</ns3:atemp>
          </ns3:TrackPointExtension>
        </extensions>
      </trkpt>
      <trkpt lat="43.14992026425898075103759765625" lon="13.1270167417824268341064453125">
        <ele>414.600006103515625</ele>
        <time>2021-05-25T08:51:23.000Z</time>
        <extensions>
          <ns3:TrackPointExtension>
            <ns3:atemp>23.0</ns3:atemp>
          </ns3:TrackPointExtension>
        </extensions>
      </trkpt>
      <trkpt lat="43.149952702224254608154296875" lon="13.12702151946723461151123046875">
        <ele>415.399993896484375</ele>
        <time>2021-05-25T08:51:24.000Z</time>
        <extensions>
          <ns3:TrackPointExtension>
            <ns3:atemp>23.0</ns3:atemp>
          </ns3:TrackPointExtension>
        </extensions>
      </trkpt>
      <trkpt lat="43.14998597837984561920166015625" lon="13.1270281411707401275634765625">
        <ele>416</ele>
        <time>2021-05-25T08:51:25.000Z</time>
        <extensions>
          <ns3:TrackPointExtension>
            <ns3:atemp>23.0</ns3:atemp>
          </ns3:TrackPointExtension>
        </extensions>
      </trkpt>
      <trkpt lat="43.1501590646803379058837890625" lon="13.12704582698643207550048828125">
        <ele>417.20001220703125</ele>
        <time>2021-05-25T08:51:30.000Z</time>
        <extensions>
          <ns3:TrackPointExtension>
            <ns3:atemp>23.0</ns3:atemp>
          </ns3:TrackPointExtension>
        </extensions>
      </trkpt>
      <trkpt lat="43.1501952745020389556884765625" lon="13.127041049301624298095703125">
        <ele>417.600006103515625</ele>
        <time>2021-05-25T08:51:31.000Z</time>
        <extensions>
          <ns3:TrackPointExtension>
            <ns3:atemp>23.0</ns3:atemp>
          </ns3:TrackPointExtension>
        </extensions>
      </trkpt>
      <trkpt lat="43.15027020871639251708984375" lon="13.12702487222850322723388671875">
        <ele>418.399993896484375</ele>
        <time>2021-05-25T08:51:33.000Z</time>
        <extensions>
          <ns3:TrackPointExtension>
            <ns3:atemp>23.0</ns3:atemp>
          </ns3:TrackPointExtension>
        </extensions>
      </trkpt>
      <trkpt lat="43.1504460610449314117431640625" lon="13.12697374261915683746337890625">
        <ele>419.20001220703125</ele>
        <time>2021-05-25T08:51:38.000Z</time>
        <extensions>
          <ns3:TrackPointExtension>
            <ns3:atemp>23.0</ns3:atemp>
          </ns3:TrackPointExtension>
        </extensions>
      </trkpt>
      <trkpt lat="43.1505134515464305877685546875" lon="13.1269496865570545196533203125">
        <ele>419.399993896484375</ele>
        <time>2021-05-25T08:51:40.000Z</time>
        <extensions>
          <ns3:TrackPointExtension>
            <ns3:atemp>23.0</ns3:atemp>
          </ns3:TrackPointExtension>
        </extensions>
      </trkpt>
      <trkpt lat="43.150674887001514434814453125" lon="13.12684868462383747100830078125">
        <ele>419.399993896484375</ele>
        <time>2021-05-25T08:51:45.000Z</time>
        <extensions>
          <ns3:TrackPointExtension>
            <ns3:atemp>23.0</ns3:atemp>
          </ns3:TrackPointExtension>
        </extensions>
      </trkpt>
      <trkpt lat="43.15084562636911869049072265625" lon="13.12667266465723514556884765625">
        <ele>418.600006103515625</ele>
        <time>2021-05-25T08:51:51.000Z</time>
        <extensions>
          <ns3:TrackPointExtension>
            <ns3:atemp>23.0</ns3:atemp>
          </ns3:TrackPointExtension>
        </extensions>
      </trkpt>
      <trkpt lat="43.150900192558765411376953125" lon="13.1266237981617450714111328125">
        <ele>418.399993896484375</ele>
        <time>2021-05-25T08:51:53.000Z</time>
        <extensions>
          <ns3:TrackPointExtension>
            <ns3:atemp>23.0</ns3:atemp>
          </ns3:TrackPointExtension>
        </extensions>
      </trkpt>
      <trkpt lat="43.15103304572403430938720703125" lon="13.12653587199747562408447265625">
        <ele>418.399993896484375</ele>
        <time>2021-05-25T08:51:57.000Z</time>
        <extensions>
          <ns3:TrackPointExtension>
            <ns3:atemp>23.0</ns3:atemp>
          </ns3:TrackPointExtension>
        </extensions>
      </trkpt>
      <trkpt lat="43.15129925496876239776611328125" lon="13.12644367106258869171142578125">
        <ele>419.20001220703125</ele>
        <time>2021-05-25T08:52:04.000Z</time>
        <extensions>
          <ns3:TrackPointExtension>
            <ns3:atemp>23.0</ns3:atemp>
          </ns3:TrackPointExtension>
        </extensions>
      </trkpt>
      <trkpt lat="43.1513922102749347686767578125" lon="13.12641651369631290435791015625">
        <ele>419.600006103515625</ele>
        <time>2021-05-25T08:52:06.000Z</time>
        <extensions>
          <ns3:TrackPointExtension>
            <ns3:atemp>23.0</ns3:atemp>
          </ns3:TrackPointExtension>
        </extensions>
      </trkpt>
      <trkpt lat="43.1514357961714267730712890625" lon="13.126409053802490234375">
        <ele>419.79998779296875</ele>
        <time>2021-05-25T08:52:07.000Z</time>
        <extensions>
          <ns3:TrackPointExtension>
            <ns3:atemp>23.0</ns3:atemp>
          </ns3:TrackPointExtension>
        </extensions>
      </trkpt>
      <trkpt lat="43.1515638716518878936767578125" lon="13.1263870932161808013916015625">
        <ele>419.79998779296875</ele>
        <time>2021-05-25T08:52:10.000Z</time>
        <extensions>
          <ns3:TrackPointExtension>
            <ns3:atemp>23.0</ns3:atemp>
          </ns3:TrackPointExtension>
        </extensions>
      </trkpt>
      <trkpt lat="43.1518332660198211669921875" lon="13.12624803744256496429443359375">
        <ele>420.20001220703125</ele>
        <time>2021-05-25T08:52:17.000Z</time>
        <extensions>
          <ns3:TrackPointExtension>
            <ns3:atemp>23.0</ns3:atemp>
          </ns3:TrackPointExtension>
        </extensions>
      </trkpt>
      <trkpt lat="43.15189856104552745819091796875" lon="13.12617746181786060333251953125">
        <ele>420.399993896484375</ele>
        <time>2021-05-25T08:52:19.000Z</time>
        <extensions>
          <ns3:TrackPointExtension>
            <ns3:atemp>23.0</ns3:atemp>
          </ns3:TrackPointExtension>
        </extensions>
      </trkpt>
      <trkpt lat="43.15202261321246623992919921875" lon="13.12604226171970367431640625">
        <ele>420.600006103515625</ele>
        <time>2021-05-25T08:52:23.000Z</time>
        <extensions>
          <ns3:TrackPointExtension>
            <ns3:atemp>23.0</ns3:atemp>
          </ns3:TrackPointExtension>
        </extensions>
      </trkpt>
      <trkpt lat="43.15226820297539234161376953125" lon="13.125791810452938079833984375">
        <ele>421.20001220703125</ele>
        <time>2021-05-25T08:52:31.000Z</time>
        <extensions>
          <ns3:TrackPointExtension>
            <ns3:atemp>23.0</ns3:atemp>
          </ns3:TrackPointExtension>
        </extensions>
      </trkpt>
      <trkpt lat="43.15240432508289813995361328125" lon="13.12563682906329631805419921875">
        <ele>421.399993896484375</ele>
        <time>2021-05-25T08:52:36.000Z</time>
        <extensions>
          <ns3:TrackPointExtension>
            <ns3:atemp>23.0</ns3:atemp>
          </ns3:TrackPointExtension>
        </extensions>
      </trkpt>
      <trkpt lat="43.152602054178714752197265625" lon="13.12540884129703044891357421875">
        <ele>421.79998779296875</ele>
        <time>2021-05-25T08:52:43.000Z</time>
        <extensions>
          <ns3:TrackPointExtension>
            <ns3:atemp>23.0</ns3:atemp>
          </ns3:TrackPointExtension>
        </extensions>
      </trkpt>
      <trkpt lat="43.15275049768388271331787109375" lon="13.12520097009837627410888671875">
        <ele>422.20001220703125</ele>
        <time>2021-05-25T08:52:48.000Z</time>
        <extensions>
          <ns3:TrackPointExtension>
            <ns3:atemp>23.0</ns3:atemp>
          </ns3:TrackPointExtension>
        </extensions>
      </trkpt>
      <trkpt lat="43.15279190428555011749267578125" lon="13.12517750076949596405029296875">
        <ele>422.399993896484375</ele>
        <time>2021-05-25T08:52:49.000Z</time>
        <extensions>
          <ns3:TrackPointExtension>
            <ns3:atemp>23.0</ns3:atemp>
          </ns3:TrackPointExtension>
        </extensions>
      </trkpt>
      <trkpt lat="43.15294931642711162567138671875" lon="13.12519493512809276580810546875">
        <ele>422.600006103515625</ele>
        <time>2021-05-25T08:52:53.000Z</time>
        <extensions>
          <ns3:TrackPointExtension>
            <ns3:atemp>23.0</ns3:atemp>
          </ns3:TrackPointExtension>
        </extensions>
      </trkpt>
      <trkpt lat="43.153042607009410858154296875" lon="13.12531077302992343902587890625">
        <ele>423</ele>
        <time>2021-05-25T08:52:57.000Z</time>
        <extensions>
          <ns3:TrackPointExtension>
            <ns3:atemp>23.0</ns3:atemp>
          </ns3:TrackPointExtension>
        </extensions>
      </trkpt>
      <trkpt lat="43.153060711920261383056640625" lon="13.1253986991941928863525390625">
        <ele>423.399993896484375</ele>
        <time>2021-05-25T08:53:00.000Z</time>
        <extensions>
          <ns3:TrackPointExtension>
            <ns3:atemp>23.0</ns3:atemp>
          </ns3:TrackPointExtension>
        </extensions>
      </trkpt>
      <trkpt lat="43.1530571915209293365478515625" lon="13.1254302151501178741455078125">
        <ele>423.399993896484375</ele>
        <time>2021-05-25T08:53:01.000Z</time>
        <extensions>
          <ns3:TrackPointExtension>
            <ns3:atemp>23.0</ns3:atemp>
          </ns3:TrackPointExtension>
        </extensions>
      </trkpt>
      <trkpt lat="43.15305124036967754364013671875" lon="13.12546147964894771575927734375">
        <ele>423.600006103515625</ele>
        <time>2021-05-25T08:53:02.000Z</time>
        <extensions>
          <ns3:TrackPointExtension>
            <ns3:atemp>23.0</ns3:atemp>
          </ns3:TrackPointExtension>
        </extensions>
      </trkpt>
      <trkpt lat="43.15303917042911052703857421875" lon="13.12552166171371936798095703125">
        <ele>424.79998779296875</ele>
        <time>2021-05-25T08:53:04.000Z</time>
        <extensions>
          <ns3:TrackPointExtension>
            <ns3:atemp>23.0</ns3:atemp>
          </ns3:TrackPointExtension>
        </extensions>
      </trkpt>
      <trkpt lat="43.15302307717502117156982421875" lon="13.125585280358791351318359375">
        <ele>425.79998779296875</ele>
        <time>2021-05-25T08:53:06.000Z</time>
        <extensions>
          <ns3:TrackPointExtension>
            <ns3:atemp>23.0</ns3:atemp>
          </ns3:TrackPointExtension>
        </extensions>
      </trkpt>
      <trkpt lat="43.15300312824547290802001953125" lon="13.12565065920352935791015625">
        <ele>426.20001220703125</ele>
        <time>2021-05-25T08:53:08.000Z</time>
        <extensions>
          <ns3:TrackPointExtension>
            <ns3:atemp>23.0</ns3:atemp>
          </ns3:TrackPointExtension>
        </extensions>
      </trkpt>
      <trkpt lat="43.152967505156993865966796875" lon="13.12575124204158782958984375">
        <ele>427.20001220703125</ele>
        <time>2021-05-25T08:53:11.000Z</time>
        <extensions>
          <ns3:TrackPointExtension>
            <ns3:atemp>23.0</ns3:atemp>
          </ns3:TrackPointExtension>
        </extensions>
      </trkpt>
      <trkpt lat="43.15291394479572772979736328125" lon="13.125889040529727935791015625">
        <ele>427.79998779296875</ele>
        <time>2021-05-25T08:53:15.000Z</time>
        <extensions>
          <ns3:TrackPointExtension>
            <ns3:atemp>23.0</ns3:atemp>
          </ns3:TrackPointExtension>
        </extensions>
      </trkpt>
      <trkpt lat="43.15281185321509838104248046875" lon="13.126106299459934234619140625">
        <ele>428.20001220703125</ele>
        <time>2021-05-25T08:53:21.000Z</time>
        <extensions>
          <ns3:TrackPointExtension>
            <ns3:atemp>23.0</ns3:atemp>
          </ns3:TrackPointExtension>
        </extensions>
      </trkpt>
      <trkpt lat="43.152771703898906707763671875" lon="13.126187436282634735107421875">
        <ele>428.399993896484375</ele>
        <time>2021-05-25T08:53:23.000Z</time>
        <extensions>
          <ns3:TrackPointExtension>
            <ns3:atemp>23.0</ns3:atemp>
          </ns3:TrackPointExtension>
        </extensions>
      </trkpt>
      <trkpt lat="43.1526806764304637908935546875" lon="13.12633470632135868072509765625">
        <ele>428.600006103515625</ele>
        <time>2021-05-25T08:53:27.000Z</time>
        <extensions>
          <ns3:TrackPointExtension>
            <ns3:atemp>23.0</ns3:atemp>
          </ns3:TrackPointExtension>
        </extensions>
      </trkpt>
      <trkpt lat="43.15264740027487277984619140625" lon="13.12636907212436199188232421875">
        <ele>428.600006103515625</ele>
        <time>2021-05-25T08:53:28.000Z</time>
        <extensions>
          <ns3:TrackPointExtension>
            <ns3:atemp>23.0</ns3:atemp>
          </ns3:TrackPointExtension>
        </extensions>
      </trkpt>
      <trkpt lat="43.1525100208818912506103515625" lon="13.12649848870933055877685546875">
        <ele>429</ele>
        <time>2021-05-25T08:53:32.000Z</time>
        <extensions>
          <ns3:TrackPointExtension>
            <ns3:atemp>23.0</ns3:atemp>
          </ns3:TrackPointExtension>
        </extensions>
      </trkpt>
      <trkpt lat="43.152333833277225494384765625" lon="13.12663972377777099609375">
        <ele>429.399993896484375</ele>
        <time>2021-05-25T08:53:37.000Z</time>
        <extensions>
          <ns3:TrackPointExtension>
            <ns3:atemp>23.0</ns3:atemp>
          </ns3:TrackPointExtension>
        </extensions>
      </trkpt>
      <trkpt lat="43.15230055712163448333740234375" lon="13.1266626901924610137939453125">
        <ele>429.399993896484375</ele>
        <time>2021-05-25T08:53:38.000Z</time>
        <extensions>
          <ns3:TrackPointExtension>
            <ns3:atemp>23.0</ns3:atemp>
          </ns3:TrackPointExtension>
        </extensions>
      </trkpt>
      <trkpt lat="43.1522059254348278045654296875" lon="13.1267562322318553924560546875">
        <ele>430.399993896484375</ele>
        <time>2021-05-25T08:53:41.000Z</time>
        <extensions>
          <ns3:TrackPointExtension>
            <ns3:atemp>23.0</ns3:atemp>
          </ns3:TrackPointExtension>
        </extensions>
      </trkpt>
      <trkpt lat="43.15215119160711765289306640625" lon="13.12683024443686008453369140625">
        <ele>430.79998779296875</ele>
        <time>2021-05-25T08:53:43.000Z</time>
        <extensions>
          <ns3:TrackPointExtension>
            <ns3:atemp>23.0</ns3:atemp>
          </ns3:TrackPointExtension>
        </extensions>
      </trkpt>
      <trkpt lat="43.15205161459743976593017578125" lon="13.12698849476873874664306640625">
        <ele>431.600006103515625</ele>
        <time>2021-05-25T08:53:47.000Z</time>
        <extensions>
          <ns3:TrackPointExtension>
            <ns3:atemp>23.0</ns3:atemp>
          </ns3:TrackPointExtension>
        </extensions>
      </trkpt>
      <trkpt lat="43.15199327655136585235595703125" lon="13.12709745950996875762939453125">
        <ele>432.399993896484375</ele>
        <time>2021-05-25T08:53:50.000Z</time>
        <extensions>
          <ns3:TrackPointExtension>
            <ns3:atemp>23.0</ns3:atemp>
          </ns3:TrackPointExtension>
        </extensions>
      </trkpt>
      <trkpt lat="43.15197617746889591217041015625" lon="13.1271310709416866302490234375">
        <ele>432.600006103515625</ele>
        <time>2021-05-25T08:53:51.000Z</time>
        <extensions>
          <ns3:TrackPointExtension>
            <ns3:atemp>23.0</ns3:atemp>
          </ns3:TrackPointExtension>
        </extensions>
      </trkpt>
      <trkpt lat="43.151893280446529388427734375" lon="13.12730365432798862457275390625">
        <ele>433.600006103515625</ele>
        <time>2021-05-25T08:53:56.000Z</time>
        <extensions>
          <ns3:TrackPointExtension>
            <ns3:atemp>23.0</ns3:atemp>
          </ns3:TrackPointExtension>
        </extensions>
      </trkpt>
      <trkpt lat="43.15185807645320892333984375" lon="13.12738001346588134765625">
        <ele>434</ele>
        <time>2021-05-25T08:53:58.000Z</time>
        <extensions>
          <ns3:TrackPointExtension>
            <ns3:atemp>23.0</ns3:atemp>
          </ns3:TrackPointExtension>
        </extensions>
      </trkpt>
      <trkpt lat="43.1517590023577213287353515625" lon="13.12757489271461963653564453125">
        <ele>434.79998779296875</ele>
        <time>2021-05-25T08:54:03.000Z</time>
        <extensions>
          <ns3:TrackPointExtension>
            <ns3:atemp>23.0</ns3:atemp>
          </ns3:TrackPointExtension>
        </extensions>
      </trkpt>
      <trkpt lat="43.151669986546039581298828125" lon="13.1277798302471637725830078125">
        <ele>435.399993896484375</ele>
        <time>2021-05-25T08:54:08.000Z</time>
        <extensions>
          <ns3:TrackPointExtension>
            <ns3:atemp>23.0</ns3:atemp>
          </ns3:TrackPointExtension>
        </extensions>
      </trkpt>
      <trkpt lat="43.15163402818143367767333984375" lon="13.12785954214632511138916015625">
        <ele>435.79998779296875</ele>
        <time>2021-05-25T08:54:10.000Z</time>
        <extensions>
          <ns3:TrackPointExtension>
            <ns3:atemp>24.0</ns3:atemp>
          </ns3:TrackPointExtension>
        </extensions>
      </trkpt>
      <trkpt lat="43.151574432849884033203125" lon="13.1279669143259525299072265625">
        <ele>437</ele>
        <time>2021-05-25T08:54:13.000Z</time>
        <extensions>
          <ns3:TrackPointExtension>
            <ns3:atemp>24.0</ns3:atemp>
          </ns3:TrackPointExtension>
        </extensions>
      </trkpt>
      <trkpt lat="43.15150863490998744964599609375" lon="13.128063641488552093505859375">
        <ele>437.79998779296875</ele>
        <time>2021-05-25T08:54:16.000Z</time>
        <extensions>
          <ns3:TrackPointExtension>
            <ns3:atemp>24.0</ns3:atemp>
          </ns3:TrackPointExtension>
        </extensions>
      </trkpt>
      <trkpt lat="43.15148348920047283172607421875" lon="13.12809373252093791961669921875">
        <ele>438.20001220703125</ele>
        <time>2021-05-25T08:54:17.000Z</time>
        <extensions>
          <ns3:TrackPointExtension>
            <ns3:atemp>24.0</ns3:atemp>
          </ns3:TrackPointExtension>
        </extensions>
      </trkpt>
      <trkpt lat="43.1513772904872894287109375" lon="13.128186352550983428955078125">
        <ele>439.399993896484375</ele>
        <time>2021-05-25T08:54:21.000Z</time>
        <extensions>
          <ns3:TrackPointExtension>
            <ns3:atemp>24.0</ns3:atemp>
          </ns3:TrackPointExtension>
        </extensions>
      </trkpt>
      <trkpt lat="43.15134820528328418731689453125" lon="13.1282066367566585540771484375">
        <ele>439.600006103515625</ele>
        <time>2021-05-25T08:54:22.000Z</time>
        <extensions>
          <ns3:TrackPointExtension>
            <ns3:atemp>24.0</ns3:atemp>
          </ns3:TrackPointExtension>
        </extensions>
      </trkpt>
      <trkpt lat="43.15125382505357265472412109375" lon="13.12825768254697322845458984375">
        <ele>440.399993896484375</ele>
        <time>2021-05-25T08:54:25.000Z</time>
        <extensions>
          <ns3:TrackPointExtension>
            <ns3:atemp>24.0</ns3:atemp>
          </ns3:TrackPointExtension>
        </extensions>
      </trkpt>
      <trkpt lat="43.1511632166802883148193359375" lon="13.1283065490424633026123046875">
        <ele>441.600006103515625</ele>
        <time>2021-05-25T08:54:28.000Z</time>
        <extensions>
          <ns3:TrackPointExtension>
            <ns3:atemp>24.0</ns3:atemp>
          </ns3:TrackPointExtension>
        </extensions>
      </trkpt>
      <trkpt lat="43.15105467103421688079833984375" lon="13.12837687321007251739501953125">
        <ele>442.79998779296875</ele>
        <time>2021-05-25T08:54:32.000Z</time>
        <extensions>
          <ns3:TrackPointExtension>
            <ns3:atemp>24.0</ns3:atemp>
          </ns3:TrackPointExtension>
        </extensions>
      </trkpt>
      <trkpt lat="43.15096884034574031829833984375" lon="13.12842808663845062255859375">
        <ele>444</ele>
        <time>2021-05-25T08:54:35.000Z</time>
        <extensions>
          <ns3:TrackPointExtension>
            <ns3:atemp>24.0</ns3:atemp>
          </ns3:TrackPointExtension>
        </extensions>
      </trkpt>
      <trkpt lat="43.150885440409183502197265625" lon="13.12847812660038471221923828125">
        <ele>445</ele>
        <time>2021-05-25T08:54:38.000Z</time>
        <extensions>
          <ns3:TrackPointExtension>
            <ns3:atemp>24.0</ns3:atemp>
          </ns3:TrackPointExtension>
        </extensions>
      </trkpt>
      <trkpt lat="43.1508001126348972320556640625" lon="13.128531016409397125244140625">
        <ele>446.399993896484375</ele>
        <time>2021-05-25T08:54:41.000Z</time>
        <extensions>
          <ns3:TrackPointExtension>
            <ns3:atemp>24.0</ns3:atemp>
          </ns3:TrackPointExtension>
        </extensions>
      </trkpt>
      <trkpt lat="43.15071134828031063079833984375" lon="13.12857720069587230682373046875">
        <ele>447.399993896484375</ele>
        <time>2021-05-25T08:54:44.000Z</time>
        <extensions>
          <ns3:TrackPointExtension>
            <ns3:atemp>24.0</ns3:atemp>
          </ns3:TrackPointExtension>
        </extensions>
      </trkpt>
      <trkpt lat="43.150617890059947967529296875" lon="13.128632269799709320068359375">
        <ele>448.399993896484375</ele>
        <time>2021-05-25T08:54:47.000Z</time>
        <extensions>
          <ns3:TrackPointExtension>
            <ns3:atemp>24.0</ns3:atemp>
          </ns3:TrackPointExtension>
        </extensions>
      </trkpt>
      <trkpt lat="43.15053281374275684356689453125" lon="13.128685913980007171630859375">
        <ele>449.79998779296875</ele>
        <time>2021-05-25T08:54:50.000Z</time>
        <extensions>
          <ns3:TrackPointExtension>
            <ns3:atemp>24.0</ns3:atemp>
          </ns3:TrackPointExtension>
        </extensions>
      </trkpt>
      <trkpt lat="43.15044748596847057342529296875" lon="13.12874634750187397003173828125">
        <ele>451</ele>
        <time>2021-05-25T08:54:53.000Z</time>
        <extensions>
          <ns3:TrackPointExtension>
            <ns3:atemp>24.0</ns3:atemp>
          </ns3:TrackPointExtension>
        </extensions>
      </trkpt>
      <trkpt lat="43.15033265389502048492431640625" lon="13.128818683326244354248046875">
        <ele>452.20001220703125</ele>
        <time>2021-05-25T08:54:57.000Z</time>
        <extensions>
          <ns3:TrackPointExtension>
            <ns3:atemp>24.0</ns3:atemp>
          </ns3:TrackPointExtension>
        </extensions>
      </trkpt>
      <trkpt lat="43.15030365251004695892333984375" lon="13.12883846461772918701171875">
        <ele>452.600006103515625</ele>
        <time>2021-05-25T08:54:58.000Z</time>
        <extensions>
          <ns3:TrackPointExtension>
            <ns3:atemp>24.0</ns3:atemp>
          </ns3:TrackPointExtension>
        </extensions>
      </trkpt>
      <trkpt lat="43.15027800388634204864501953125" lon="13.12886285595595836639404296875">
        <ele>452.79998779296875</ele>
        <time>2021-05-25T08:54:59.000Z</time>
        <extensions>
          <ns3:TrackPointExtension>
            <ns3:atemp>24.0</ns3:atemp>
          </ns3:TrackPointExtension>
        </extensions>
      </trkpt>
      <trkpt lat="43.15022134222090244293212890625" lon="13.12891147099435329437255859375">
        <ele>453.600006103515625</ele>
        <time>2021-05-25T08:55:01.000Z</time>
        <extensions>
          <ns3:TrackPointExtension>
            <ns3:atemp>24.0</ns3:atemp>
          </ns3:TrackPointExtension>
        </extensions>
      </trkpt>
      <trkpt lat="43.15014506690204143524169921875" lon="13.12897534109652042388916015625">
        <ele>454.600006103515625</ele>
        <time>2021-05-25T08:55:04.000Z</time>
        <extensions>
          <ns3:TrackPointExtension>
            <ns3:atemp>24.0</ns3:atemp>
          </ns3:TrackPointExtension>
        </extensions>
      </trkpt>
      <trkpt lat="43.15011925064027309417724609375" lon="13.1289987266063690185546875">
        <ele>454.79998779296875</ele>
        <time>2021-05-25T08:55:05.000Z</time>
        <extensions>
          <ns3:TrackPointExtension>
            <ns3:atemp>24.0</ns3:atemp>
          </ns3:TrackPointExtension>
        </extensions>
      </trkpt>
      <trkpt lat="43.1500430591404438018798828125" lon="13.1290646083652973175048828125">
        <ele>456</ele>
        <time>2021-05-25T08:55:08.000Z</time>
        <extensions>
          <ns3:TrackPointExtension>
            <ns3:atemp>24.0</ns3:atemp>
          </ns3:TrackPointExtension>
        </extensions>
      </trkpt>
      <trkpt lat="43.14997843466699123382568359375" lon="13.129134513437747955322265625">
        <ele>456.79998779296875</ele>
        <time>2021-05-25T08:55:11.000Z</time>
        <extensions>
          <ns3:TrackPointExtension>
            <ns3:atemp>24.0</ns3:atemp>
          </ns3:TrackPointExtension>
        </extensions>
      </trkpt>
      <trkpt lat="43.1499572284519672393798828125" lon="13.12915437854826450347900390625">
        <ele>457.20001220703125</ele>
        <time>2021-05-25T08:55:12.000Z</time>
        <extensions>
          <ns3:TrackPointExtension>
            <ns3:atemp>24.0</ns3:atemp>
          </ns3:TrackPointExtension>
        </extensions>
      </trkpt>
      <trkpt lat="43.14984717406332492828369140625" lon="13.1292751617729663848876953125">
        <ele>458.20001220703125</ele>
        <time>2021-05-25T08:55:17.000Z</time>
        <extensions>
          <ns3:TrackPointExtension>
            <ns3:atemp>24.0</ns3:atemp>
          </ns3:TrackPointExtension>
        </extensions>
      </trkpt>
      <trkpt lat="43.14977609552443027496337890625" lon="13.12934095971286296844482421875">
        <ele>459.399993896484375</ele>
        <time>2021-05-25T08:55:20.000Z</time>
        <extensions>
          <ns3:TrackPointExtension>
            <ns3:atemp>24.0</ns3:atemp>
          </ns3:TrackPointExtension>
        </extensions>
      </trkpt>
      <trkpt lat="43.1496856547892093658447265625" lon="13.1294427998363971710205078125">
        <ele>460.79998779296875</ele>
        <time>2021-05-25T08:55:24.000Z</time>
        <extensions>
          <ns3:TrackPointExtension>
            <ns3:atemp>24.0</ns3:atemp>
          </ns3:TrackPointExtension>
        </extensions>
      </trkpt>
      <trkpt lat="43.14958515577018260955810546875" lon="13.12955796718597412109375">
        <ele>461.79998779296875</ele>
        <time>2021-05-25T08:55:28.000Z</time>
        <extensions>
          <ns3:TrackPointExtension>
            <ns3:atemp>24.0</ns3:atemp>
          </ns3:TrackPointExtension>
        </extensions>
      </trkpt>
      <trkpt lat="43.1495508737862110137939453125" lon="13.12962644733488559722900390625">
        <ele>462.20001220703125</ele>
        <time>2021-05-25T08:55:30.000Z</time>
        <extensions>
          <ns3:TrackPointExtension>
            <ns3:atemp>24.0</ns3:atemp>
          </ns3:TrackPointExtension>
        </extensions>
      </trkpt>
      <trkpt lat="43.1495176814496517181396484375" lon="13.12970087863504886627197265625">
        <ele>463</ele>
        <time>2021-05-25T08:55:32.000Z</time>
        <extensions>
          <ns3:TrackPointExtension>
            <ns3:atemp>24.0</ns3:atemp>
          </ns3:TrackPointExtension>
        </extensions>
      </trkpt>
      <trkpt lat="43.1494541466236114501953125" lon="13.12980649061501026153564453125">
        <ele>464.20001220703125</ele>
        <time>2021-05-25T08:55:35.000Z</time>
        <extensions>
          <ns3:TrackPointExtension>
            <ns3:atemp>24.0</ns3:atemp>
          </ns3:TrackPointExtension>
        </extensions>
      </trkpt>
      <trkpt lat="43.1494154222309589385986328125" lon="13.12988192774355411529541015625">
        <ele>464.79998779296875</ele>
        <time>2021-05-25T08:55:37.000Z</time>
        <extensions>
          <ns3:TrackPointExtension>
            <ns3:atemp>24.0</ns3:atemp>
          </ns3:TrackPointExtension>
        </extensions>
      </trkpt>
      <trkpt lat="43.149382062256336212158203125" lon="13.129954598844051361083984375">
        <ele>465.399993896484375</ele>
        <time>2021-05-25T08:55:39.000Z</time>
        <extensions>
          <ns3:TrackPointExtension>
            <ns3:atemp>24.0</ns3:atemp>
          </ns3:TrackPointExtension>
        </extensions>
      </trkpt>
      <trkpt lat="43.14932665787637233734130859375" lon="13.13010019250214099884033203125">
        <ele>466.600006103515625</ele>
        <time>2021-05-25T08:55:43.000Z</time>
        <extensions>
          <ns3:TrackPointExtension>
            <ns3:atemp>24.0</ns3:atemp>
          </ns3:TrackPointExtension>
        </extensions>
      </trkpt>
      <trkpt lat="43.14931408502161502838134765625" lon="13.13013539649546146392822265625">
        <ele>466.79998779296875</ele>
        <time>2021-05-25T08:55:44.000Z</time>
        <extensions>
          <ns3:TrackPointExtension>
            <ns3:atemp>24.0</ns3:atemp>
          </ns3:TrackPointExtension>
        </extensions>
      </trkpt>
      <trkpt lat="43.14927083440124988555908203125" lon="13.130236230790615081787109375">
        <ele>467.600006103515625</ele>
        <time>2021-05-25T08:55:47.000Z</time>
        <extensions>
          <ns3:TrackPointExtension>
            <ns3:atemp>24.0</ns3:atemp>
          </ns3:TrackPointExtension>
        </extensions>
      </trkpt>
      <trkpt lat="43.149208389222621917724609375" lon="13.1303664855659008026123046875">
        <ele>468.600006103515625</ele>
        <time>2021-05-25T08:55:51.000Z</time>
        <extensions>
          <ns3:TrackPointExtension>
            <ns3:atemp>24.0</ns3:atemp>
          </ns3:TrackPointExtension>
        </extensions>
      </trkpt>
      <trkpt lat="43.14919137395918369293212890625" lon="13.1304003484547138214111328125">
        <ele>468.600006103515625</ele>
        <time>2021-05-25T08:55:52.000Z</time>
        <extensions>
          <ns3:TrackPointExtension>
            <ns3:atemp>24.0</ns3:atemp>
          </ns3:TrackPointExtension>
        </extensions>
      </trkpt>
      <trkpt lat="43.14911174587905406951904296875" lon="13.130574524402618408203125">
        <ele>469.79998779296875</ele>
        <time>2021-05-25T08:55:57.000Z</time>
        <extensions>
          <ns3:TrackPointExtension>
            <ns3:atemp>24.0</ns3:atemp>
          </ns3:TrackPointExtension>
        </extensions>
      </trkpt>
      <trkpt lat="43.14909875392913818359375" lon="13.13060880638659000396728515625">
        <ele>470.20001220703125</ele>
        <time>2021-05-25T08:55:58.000Z</time>
        <extensions>
          <ns3:TrackPointExtension>
            <ns3:atemp>24.0</ns3:atemp>
          </ns3:TrackPointExtension>
        </extensions>
      </trkpt>
      <trkpt lat="43.14906933344900608062744140625" lon="13.1306742690503597259521484375">
        <ele>471</ele>
        <time>2021-05-25T08:56:00.000Z</time>
        <extensions>
          <ns3:TrackPointExtension>
            <ns3:atemp>24.0</ns3:atemp>
          </ns3:TrackPointExtension>
        </extensions>
      </trkpt>
      <trkpt lat="43.14896523021161556243896484375" lon="13.1308968923985958099365234375">
        <ele>472.399993896484375</ele>
        <time>2021-05-25T08:56:07.000Z</time>
        <extensions>
          <ns3:TrackPointExtension>
            <ns3:atemp>24.0</ns3:atemp>
          </ns3:TrackPointExtension>
        </extensions>
      </trkpt>
      <trkpt lat="43.14893069677054882049560546875" lon="13.13095699064433574676513671875">
        <ele>473.399993896484375</ele>
        <time>2021-05-25T08:56:09.000Z</time>
        <extensions>
          <ns3:TrackPointExtension>
            <ns3:atemp>24.0</ns3:atemp>
          </ns3:TrackPointExtension>
        </extensions>
      </trkpt>
      <trkpt lat="43.14888040535151958465576171875" lon="13.13105807639658451080322265625">
        <ele>474.399993896484375</ele>
        <time>2021-05-25T08:56:12.000Z</time>
        <extensions>
          <ns3:TrackPointExtension>
            <ns3:atemp>24.0</ns3:atemp>
          </ns3:TrackPointExtension>
        </extensions>
      </trkpt>
      <trkpt lat="43.14883514307439327239990234375" lon="13.131160922348499298095703125">
        <ele>475.20001220703125</ele>
        <time>2021-05-25T08:56:15.000Z</time>
        <extensions>
          <ns3:TrackPointExtension>
            <ns3:atemp>24.0</ns3:atemp>
          </ns3:TrackPointExtension>
        </extensions>
      </trkpt>
      <trkpt lat="43.1488179601728916168212890625" lon="13.13119336031377315521240234375">
        <ele>475.399993896484375</ele>
        <time>2021-05-25T08:56:16.000Z</time>
        <extensions>
          <ns3:TrackPointExtension>
            <ns3:atemp>24.0</ns3:atemp>
          </ns3:TrackPointExtension>
        </extensions>
      </trkpt>
      <trkpt lat="43.148731626570224761962890625" lon="13.13135839998722076416015625">
        <ele>476</ele>
        <time>2021-05-25T08:56:21.000Z</time>
        <extensions>
          <ns3:TrackPointExtension>
            <ns3:atemp>24.0</ns3:atemp>
          </ns3:TrackPointExtension>
        </extensions>
      </trkpt>
      <trkpt lat="43.1486602127552032470703125" lon="13.13154280185699462890625">
        <ele>476.399993896484375</ele>
        <time>2021-05-25T08:56:26.000Z</time>
        <extensions>
          <ns3:TrackPointExtension>
            <ns3:atemp>24.0</ns3:atemp>
          </ns3:TrackPointExtension>
        </extensions>
      </trkpt>
      <trkpt lat="43.14863598905503749847412109375" lon="13.13161999918520450592041015625">
        <ele>476.79998779296875</ele>
        <time>2021-05-25T08:56:28.000Z</time>
        <extensions>
          <ns3:TrackPointExtension>
            <ns3:atemp>24.0</ns3:atemp>
          </ns3:TrackPointExtension>
        </extensions>
      </trkpt>
      <trkpt lat="43.14859977923333644866943359375" lon="13.13173717819154262542724609375">
        <ele>477.600006103515625</ele>
        <time>2021-05-25T08:56:31.000Z</time>
        <extensions>
          <ns3:TrackPointExtension>
            <ns3:atemp>24.0</ns3:atemp>
          </ns3:TrackPointExtension>
        </extensions>
      </trkpt>
      <trkpt lat="43.14856574870645999908447265625" lon="13.13184924423694610595703125">
        <ele>478.600006103515625</ele>
        <time>2021-05-25T08:56:34.000Z</time>
        <extensions>
          <ns3:TrackPointExtension>
            <ns3:atemp>24.0</ns3:atemp>
          </ns3:TrackPointExtension>
        </extensions>
      </trkpt>
      <trkpt lat="43.14854286611080169677734375" lon="13.13192744739353656768798828125">
        <ele>479</ele>
        <time>2021-05-25T08:56:36.000Z</time>
        <extensions>
          <ns3:TrackPointExtension>
            <ns3:atemp>24.0</ns3:atemp>
          </ns3:TrackPointExtension>
        </extensions>
      </trkpt>
      <trkpt lat="43.148518390953540802001953125" lon="13.13200221396982669830322265625">
        <ele>479.600006103515625</ele>
        <time>2021-05-25T08:56:38.000Z</time>
        <extensions>
          <ns3:TrackPointExtension>
            <ns3:atemp>24.0</ns3:atemp>
          </ns3:TrackPointExtension>
        </extensions>
      </trkpt>
      <trkpt lat="43.1484857015311717987060546875" lon="13.13211335800588130950927734375">
        <ele>481</ele>
        <time>2021-05-25T08:56:41.000Z</time>
        <extensions>
          <ns3:TrackPointExtension>
            <ns3:atemp>24.0</ns3:atemp>
          </ns3:TrackPointExtension>
        </extensions>
      </trkpt>
      <trkpt lat="43.148443289101123809814453125" lon="13.13226087950170040130615234375">
        <ele>481.600006103515625</ele>
        <time>2021-05-25T08:56:45.000Z</time>
        <extensions>
          <ns3:TrackPointExtension>
            <ns3:atemp>24.0</ns3:atemp>
          </ns3:TrackPointExtension>
        </extensions>
      </trkpt>
      <trkpt lat="43.14839308150112628936767578125" lon="13.13236414454877376556396484375">
        <ele>482</ele>
        <time>2021-05-25T08:56:48.000Z</time>
        <extensions>
          <ns3:TrackPointExtension>
            <ns3:atemp>24.0</ns3:atemp>
          </ns3:TrackPointExtension>
        </extensions>
      </trkpt>
      <trkpt lat="43.14834413118660449981689453125" lon="13.13247294165194034576416015625">
        <ele>482.399993896484375</ele>
        <time>2021-05-25T08:56:51.000Z</time>
        <extensions>
          <ns3:TrackPointExtension>
            <ns3:atemp>24.0</ns3:atemp>
          </ns3:TrackPointExtension>
        </extensions>
      </trkpt>
      <trkpt lat="43.14829207956790924072265625" lon="13.13262063078582286834716796875">
        <ele>483</ele>
        <time>2021-05-25T08:56:55.000Z</time>
        <extensions>
          <ns3:TrackPointExtension>
            <ns3:atemp>24.0</ns3:atemp>
          </ns3:TrackPointExtension>
        </extensions>
      </trkpt>
      <trkpt lat="43.14826659858226776123046875" lon="13.132695816457271575927734375">
        <ele>483.399993896484375</ele>
        <time>2021-05-25T08:56:57.000Z</time>
        <extensions>
          <ns3:TrackPointExtension>
            <ns3:atemp>24.0</ns3:atemp>
          </ns3:TrackPointExtension>
        </extensions>
      </trkpt>
      <trkpt lat="43.14823868684470653533935546875" lon="13.1327680684626102447509765625">
        <ele>484.399993896484375</ele>
        <time>2021-05-25T08:56:59.000Z</time>
        <extensions>
          <ns3:TrackPointExtension>
            <ns3:atemp>24.0</ns3:atemp>
          </ns3:TrackPointExtension>
        </extensions>
      </trkpt>
      <trkpt lat="43.1482124514877796173095703125" lon="13.13283638097345829010009765625">
        <ele>485.600006103515625</ele>
        <time>2021-05-25T08:57:01.000Z</time>
        <extensions>
          <ns3:TrackPointExtension>
            <ns3:atemp>24.0</ns3:atemp>
          </ns3:TrackPointExtension>
        </extensions>
      </trkpt>
      <trkpt lat="43.14818747341632843017578125" lon="13.1329105608165264129638671875">
        <ele>486</ele>
        <time>2021-05-25T08:57:03.000Z</time>
        <extensions>
          <ns3:TrackPointExtension>
            <ns3:atemp>24.0</ns3:atemp>
          </ns3:TrackPointExtension>
        </extensions>
      </trkpt>
      <trkpt lat="43.14814581535756587982177734375" lon="13.1330238841474056243896484375">
        <ele>486.79998779296875</ele>
        <time>2021-05-25T08:57:06.000Z</time>
        <extensions>
          <ns3:TrackPointExtension>
            <ns3:atemp>24.0</ns3:atemp>
          </ns3:TrackPointExtension>
        </extensions>
      </trkpt>
      <trkpt lat="43.14808378927409648895263671875" lon="13.13319831155240535736083984375">
        <ele>488</ele>
        <time>2021-05-25T08:57:11.000Z</time>
        <extensions>
          <ns3:TrackPointExtension>
            <ns3:atemp>24.0</ns3:atemp>
          </ns3:TrackPointExtension>
        </extensions>
      </trkpt>
      <trkpt lat="43.14805277623236179351806640625" lon="13.13334398902952671051025390625">
        <ele>489.20001220703125</ele>
        <time>2021-05-25T08:57:15.000Z</time>
        <extensions>
          <ns3:TrackPointExtension>
            <ns3:atemp>24.0</ns3:atemp>
          </ns3:TrackPointExtension>
        </extensions>
      </trkpt>
      <trkpt lat="43.14803534187376499176025390625" lon="13.13346552662551403045654296875">
        <ele>490.399993896484375</ele>
        <time>2021-05-25T08:57:18.000Z</time>
        <extensions>
          <ns3:TrackPointExtension>
            <ns3:atemp>24.0</ns3:atemp>
          </ns3:TrackPointExtension>
        </extensions>
      </trkpt>
      <trkpt lat="43.1480146385729312896728515625" lon="13.13363852910697460174560546875">
        <ele>491.399993896484375</ele>
        <time>2021-05-25T08:57:22.000Z</time>
        <extensions>
          <ns3:TrackPointExtension>
            <ns3:atemp>24.0</ns3:atemp>
          </ns3:TrackPointExtension>
        </extensions>
      </trkpt>
      <trkpt lat="43.1479978747665882110595703125" lon="13.133798874914646148681640625">
        <ele>492.399993896484375</ele>
        <time>2021-05-25T08:57:26.000Z</time>
        <extensions>
          <ns3:TrackPointExtension>
            <ns3:atemp>24.0</ns3:atemp>
          </ns3:TrackPointExtension>
        </extensions>
      </trkpt>
      <trkpt lat="43.14799561165273189544677734375" lon="13.13387188129127025604248046875">
        <ele>492.600006103515625</ele>
        <time>2021-05-25T08:57:28.000Z</time>
        <extensions>
          <ns3:TrackPointExtension>
            <ns3:atemp>24.0</ns3:atemp>
          </ns3:TrackPointExtension>
        </extensions>
      </trkpt>
      <trkpt lat="43.1479961983859539031982421875" lon="13.13398000784218311309814453125">
        <ele>493.79998779296875</ele>
        <time>2021-05-25T08:57:31.000Z</time>
        <extensions>
          <ns3:TrackPointExtension>
            <ns3:atemp>24.0</ns3:atemp>
          </ns3:TrackPointExtension>
        </extensions>
      </trkpt>
      <trkpt lat="43.14799368381500244140625" lon="13.13401269726455211639404296875">
        <ele>494</ele>
        <time>2021-05-25T08:57:32.000Z</time>
        <extensions>
          <ns3:TrackPointExtension>
            <ns3:atemp>24.0</ns3:atemp>
          </ns3:TrackPointExtension>
        </extensions>
      </trkpt>
      <trkpt lat="43.14797616563737392425537109375" lon="13.1341819278895854949951171875">
        <ele>495</ele>
        <time>2021-05-25T08:57:37.000Z</time>
        <extensions>
          <ns3:TrackPointExtension>
            <ns3:atemp>24.0</ns3:atemp>
          </ns3:TrackPointExtension>
        </extensions>
      </trkpt>
      <trkpt lat="43.14797515980899333953857421875" lon="13.13428862951695919036865234375">
        <ele>496.20001220703125</ele>
        <time>2021-05-25T08:57:40.000Z</time>
        <extensions>
          <ns3:TrackPointExtension>
            <ns3:atemp>24.0</ns3:atemp>
          </ns3:TrackPointExtension>
        </extensions>
      </trkpt>
      <trkpt lat="43.1479646824300289154052734375" lon="13.13446984626352787017822265625">
        <ele>497.399993896484375</ele>
        <time>2021-05-25T08:57:45.000Z</time>
        <extensions>
          <ns3:TrackPointExtension>
            <ns3:atemp>24.0</ns3:atemp>
          </ns3:TrackPointExtension>
        </extensions>
      </trkpt>
      <trkpt lat="43.1479616649448871612548828125" lon="13.1345455348491668701171875">
        <ele>498.20001220703125</ele>
        <time>2021-05-25T08:57:47.000Z</time>
        <extensions>
          <ns3:TrackPointExtension>
            <ns3:atemp>24.0</ns3:atemp>
          </ns3:TrackPointExtension>
        </extensions>
      </trkpt>
      <trkpt lat="43.14795755781233310699462890625" lon="13.13458182848989963531494140625">
        <ele>498.399993896484375</ele>
        <time>2021-05-25T08:57:48.000Z</time>
        <extensions>
          <ns3:TrackPointExtension>
            <ns3:atemp>24.0</ns3:atemp>
          </ns3:TrackPointExtension>
        </extensions>
      </trkpt>
      <trkpt lat="43.1479385308921337127685546875" lon="13.13477343879640102386474609375">
        <ele>499.600006103515625</ele>
        <time>2021-05-25T08:57:53.000Z</time>
        <extensions>
          <ns3:TrackPointExtension>
            <ns3:atemp>24.0</ns3:atemp>
          </ns3:TrackPointExtension>
        </extensions>
      </trkpt>
      <trkpt lat="43.1479279696941375732421875" lon="13.13497812487185001373291015625">
        <ele>500.600006103515625</ele>
        <time>2021-05-25T08:57:58.000Z</time>
        <extensions>
          <ns3:TrackPointExtension>
            <ns3:atemp>24.0</ns3:atemp>
          </ns3:TrackPointExtension>
        </extensions>
      </trkpt>
      <trkpt lat="43.14791900105774402618408203125" lon="13.13505574129521846771240234375">
        <ele>501</ele>
        <time>2021-05-25T08:58:00.000Z</time>
        <extensions>
          <ns3:TrackPointExtension>
            <ns3:atemp>24.0</ns3:atemp>
          </ns3:TrackPointExtension>
        </extensions>
      </trkpt>
      <trkpt lat="43.14790827222168445587158203125" lon="13.1351704895496368408203125">
        <ele>501.600006103515625</ele>
        <time>2021-05-25T08:58:03.000Z</time>
        <extensions>
          <ns3:TrackPointExtension>
            <ns3:atemp>24.0</ns3:atemp>
          </ns3:TrackPointExtension>
        </extensions>
      </trkpt>
      <trkpt lat="43.147894106805324554443359375" lon="13.1352846510708332061767578125">
        <ele>502</ele>
        <time>2021-05-25T08:58:06.000Z</time>
        <extensions>
          <ns3:TrackPointExtension>
            <ns3:atemp>24.0</ns3:atemp>
          </ns3:TrackPointExtension>
        </extensions>
      </trkpt>
      <trkpt lat="43.14788446761667728424072265625" lon="13.1353594176471233367919921875">
        <ele>502.79998779296875</ele>
        <time>2021-05-25T08:58:08.000Z</time>
        <extensions>
          <ns3:TrackPointExtension>
            <ns3:atemp>24.0</ns3:atemp>
          </ns3:TrackPointExtension>
        </extensions>
      </trkpt>
      <trkpt lat="43.14784205518662929534912109375" lon="13.13559235073626041412353515625">
        <ele>504</ele>
        <time>2021-05-25T08:58:14.000Z</time>
        <extensions>
          <ns3:TrackPointExtension>
            <ns3:atemp>24.0</ns3:atemp>
          </ns3:TrackPointExtension>
        </extensions>
      </trkpt>
      <trkpt lat="43.14780886285006999969482421875" lon="13.13582587055861949920654296875">
        <ele>505.20001220703125</ele>
        <time>2021-05-25T08:58:20.000Z</time>
        <extensions>
          <ns3:TrackPointExtension>
            <ns3:atemp>24.0</ns3:atemp>
          </ns3:TrackPointExtension>
        </extensions>
      </trkpt>
      <trkpt lat="43.14780215732753276824951171875" lon="13.1358616612851619720458984375">
        <ele>505.399993896484375</ele>
        <time>2021-05-25T08:58:21.000Z</time>
        <extensions>
          <ns3:TrackPointExtension>
            <ns3:atemp>24.0</ns3:atemp>
          </ns3:TrackPointExtension>
        </extensions>
      </trkpt>
      <trkpt lat="43.1477869860827922821044921875" lon="13.1359649263322353363037109375">
        <ele>506.399993896484375</ele>
        <time>2021-05-25T08:58:24.000Z</time>
        <extensions>
          <ns3:TrackPointExtension>
            <ns3:atemp>24.0</ns3:atemp>
          </ns3:TrackPointExtension>
        </extensions>
      </trkpt>
      <trkpt lat="43.14775974489748477935791015625" lon="13.1361540220677852630615234375">
        <ele>507.600006103515625</ele>
        <time>2021-05-25T08:58:29.000Z</time>
        <extensions>
          <ns3:TrackPointExtension>
            <ns3:atemp>24.0</ns3:atemp>
          </ns3:TrackPointExtension>
        </extensions>
      </trkpt>
      <trkpt lat="43.14773677848279476165771484375" lon="13.13634621910750865936279296875">
        <ele>508.79998779296875</ele>
        <time>2021-05-25T08:58:34.000Z</time>
        <extensions>
          <ns3:TrackPointExtension>
            <ns3:atemp>24.0</ns3:atemp>
          </ns3:TrackPointExtension>
        </extensions>
      </trkpt>
      <trkpt lat="43.1477320007979869842529296875" lon="13.13638578169047832489013671875">
        <ele>509.20001220703125</ele>
        <time>2021-05-25T08:58:35.000Z</time>
        <extensions>
          <ns3:TrackPointExtension>
            <ns3:atemp>24.0</ns3:atemp>
          </ns3:TrackPointExtension>
        </extensions>
      </trkpt>
      <trkpt lat="43.147720433771610260009765625" lon="13.1365053914487361907958984375">
        <ele>510.399993896484375</ele>
        <time>2021-05-25T08:58:38.000Z</time>
        <extensions>
          <ns3:TrackPointExtension>
            <ns3:atemp>24.0</ns3:atemp>
          </ns3:TrackPointExtension>
        </extensions>
      </trkpt>
      <trkpt lat="43.1477065198123455047607421875" lon="13.13666925765573978424072265625">
        <ele>511.600006103515625</ele>
        <time>2021-05-25T08:58:42.000Z</time>
        <extensions>
          <ns3:TrackPointExtension>
            <ns3:atemp>24.0</ns3:atemp>
          </ns3:TrackPointExtension>
        </extensions>
      </trkpt>
      <trkpt lat="43.14770123921334743499755859375" lon="13.13670731149613857269287109375">
        <ele>512</ele>
        <time>2021-05-25T08:58:43.000Z</time>
        <extensions>
          <ns3:TrackPointExtension>
            <ns3:atemp>24.0</ns3:atemp>
          </ns3:TrackPointExtension>
        </extensions>
      </trkpt>
      <trkpt lat="43.147694952785968780517578125" lon="13.1367866881191730499267578125">
        <ele>512.79998779296875</ele>
        <time>2021-05-25T08:58:45.000Z</time>
        <extensions>
          <ns3:TrackPointExtension>
            <ns3:atemp>24.0</ns3:atemp>
          </ns3:TrackPointExtension>
        </extensions>
      </trkpt>
      <trkpt lat="43.1476907618343830108642578125" lon="13.1369861774146556854248046875">
        <ele>513.79998779296875</ele>
        <time>2021-05-25T08:58:50.000Z</time>
        <extensions>
          <ns3:TrackPointExtension>
            <ns3:atemp>24.0</ns3:atemp>
          </ns3:TrackPointExtension>
        </extensions>
      </trkpt>
      <trkpt lat="43.1476892530918121337890625" lon="13.1370260752737522125244140625">
        <ele>514</ele>
        <time>2021-05-25T08:58:51.000Z</time>
        <extensions>
          <ns3:TrackPointExtension>
            <ns3:atemp>24.0</ns3:atemp>
          </ns3:TrackPointExtension>
        </extensions>
      </trkpt>
      <trkpt lat="43.14767894335091114044189453125" lon="13.13727141357958316802978515625">
        <ele>515.20001220703125</ele>
        <time>2021-05-25T08:58:57.000Z</time>
        <extensions>
          <ns3:TrackPointExtension>
            <ns3:atemp>24.0</ns3:atemp>
          </ns3:TrackPointExtension>
        </extensions>
      </trkpt>
      <trkpt lat="43.1476750038564205169677734375" lon="13.1373918615281581878662109375">
        <ele>515.79998779296875</ele>
        <time>2021-05-25T08:59:00.000Z</time>
        <extensions>
          <ns3:TrackPointExtension>
            <ns3:atemp>24.0</ns3:atemp>
          </ns3:TrackPointExtension>
        </extensions>
      </trkpt>
      <trkpt lat="43.1476672925055027008056640625" lon="13.13747341744601726531982421875">
        <ele>516.4000244140625</ele>
        <time>2021-05-25T08:59:02.000Z</time>
        <extensions>
          <ns3:TrackPointExtension>
            <ns3:atemp>24.0</ns3:atemp>
          </ns3:TrackPointExtension>
        </extensions>
      </trkpt>
      <trkpt lat="43.14765932969748973846435546875" lon="13.13767491839826107025146484375">
        <ele>517.79998779296875</ele>
        <time>2021-05-25T08:59:07.000Z</time>
        <extensions>
          <ns3:TrackPointExtension>
            <ns3:atemp>24.0</ns3:atemp>
          </ns3:TrackPointExtension>
        </extensions>
      </trkpt>
      <trkpt lat="43.1476468406617641448974609375" lon="13.1379197537899017333984375">
        <ele>519</ele>
        <time>2021-05-25T08:59:13.000Z</time>
        <extensions>
          <ns3:TrackPointExtension>
            <ns3:atemp>24.0</ns3:atemp>
          </ns3:TrackPointExtension>
        </extensions>
      </trkpt>
      <trkpt lat="43.14764139242470264434814453125" lon="13.1380860507488250732421875">
        <ele>520</ele>
        <time>2021-05-25T08:59:17.000Z</time>
        <extensions>
          <ns3:TrackPointExtension>
            <ns3:atemp>24.0</ns3:atemp>
          </ns3:TrackPointExtension>
        </extensions>
      </trkpt>
      <trkpt lat="43.14763988368213176727294921875" lon="13.13812552951276302337646484375">
        <ele>520.20001220703125</ele>
        <time>2021-05-25T08:59:18.000Z</time>
        <extensions>
          <ns3:TrackPointExtension>
            <ns3:atemp>25.0</ns3:atemp>
          </ns3:TrackPointExtension>
        </extensions>
      </trkpt>
      <trkpt lat="43.14763552509248256683349609375" lon="13.13827774487435817718505859375">
        <ele>521.20001220703125</ele>
        <time>2021-05-25T08:59:22.000Z</time>
        <extensions>
          <ns3:TrackPointExtension>
            <ns3:atemp>25.0</ns3:atemp>
          </ns3:TrackPointExtension>
        </extensions>
      </trkpt>
      <trkpt lat="43.14762890338897705078125" lon="13.13838654197752475738525390625">
        <ele>522</ele>
        <time>2021-05-25T08:59:25.000Z</time>
        <extensions>
          <ns3:TrackPointExtension>
            <ns3:atemp>25.0</ns3:atemp>
          </ns3:TrackPointExtension>
        </extensions>
      </trkpt>
      <trkpt lat="43.14761892892420291900634765625" lon="13.13849802128970623016357421875">
        <ele>522.4000244140625</ele>
        <time>2021-05-25T08:59:28.000Z</time>
        <extensions>
          <ns3:TrackPointExtension>
            <ns3:atemp>25.0</ns3:atemp>
          </ns3:TrackPointExtension>
        </extensions>
      </trkpt>
      <trkpt lat="43.1476114690303802490234375" lon="13.13864503987133502960205078125">
        <ele>523.4000244140625</ele>
        <time>2021-05-25T08:59:32.000Z</time>
        <extensions>
          <ns3:TrackPointExtension>
            <ns3:atemp>25.0</ns3:atemp>
          </ns3:TrackPointExtension>
        </extensions>
      </trkpt>
      <trkpt lat="43.1476072780787944793701171875" lon="13.13867974095046520233154296875">
        <ele>523.5999755859375</ele>
        <time>2021-05-25T08:59:33.000Z</time>
        <extensions>
          <ns3:TrackPointExtension>
            <ns3:atemp>25.0</ns3:atemp>
          </ns3:TrackPointExtension>
        </extensions>
      </trkpt>
      <trkpt lat="43.147615827620029449462890625" lon="13.13878049142658710479736328125">
        <ele>524.5999755859375</ele>
        <time>2021-05-25T08:59:36.000Z</time>
        <extensions>
          <ns3:TrackPointExtension>
            <ns3:atemp>25.0</ns3:atemp>
          </ns3:TrackPointExtension>
        </extensions>
      </trkpt>
      <trkpt lat="43.1476186774671077728271484375" lon="13.1388429366052150726318359375">
        <ele>525.20001220703125</ele>
        <time>2021-05-25T08:59:38.000Z</time>
        <extensions>
          <ns3:TrackPointExtension>
            <ns3:atemp>25.0</ns3:atemp>
          </ns3:TrackPointExtension>
        </extensions>
      </trkpt>
      <trkpt lat="43.14761348068714141845703125" lon="13.138903118669986724853515625">
        <ele>525.5999755859375</ele>
        <time>2021-05-25T08:59:40.000Z</time>
        <extensions>
          <ns3:TrackPointExtension>
            <ns3:atemp>25.0</ns3:atemp>
          </ns3:TrackPointExtension>
        </extensions>
      </trkpt>
      <trkpt lat="43.14760987646877765655517578125" lon="13.139011748135089874267578125">
        <ele>526.79998779296875</ele>
        <time>2021-05-25T08:59:43.000Z</time>
        <extensions>
          <ns3:TrackPointExtension>
            <ns3:atemp>25.0</ns3:atemp>
          </ns3:TrackPointExtension>
        </extensions>
      </trkpt>
      <trkpt lat="43.14758657477796077728271484375" lon="13.1391802243888378143310546875">
        <ele>528</ele>
        <time>2021-05-25T08:59:47.000Z</time>
        <extensions>
          <ns3:TrackPointExtension>
            <ns3:atemp>25.0</ns3:atemp>
          </ns3:TrackPointExtension>
        </extensions>
      </trkpt>
      <trkpt lat="43.14757919870316982269287109375" lon="13.139225654304027557373046875">
        <ele>528.20001220703125</ele>
        <time>2021-05-25T08:59:48.000Z</time>
        <extensions>
          <ns3:TrackPointExtension>
            <ns3:atemp>25.0</ns3:atemp>
          </ns3:TrackPointExtension>
        </extensions>
      </trkpt>
      <trkpt lat="43.14754910767078399658203125" lon="13.13935867510735988616943359375">
        <ele>529.20001220703125</ele>
        <time>2021-05-25T08:59:51.000Z</time>
        <extensions>
          <ns3:TrackPointExtension>
            <ns3:atemp>25.0</ns3:atemp>
          </ns3:TrackPointExtension>
        </extensions>
      </trkpt>
      <trkpt lat="43.14753527753055095672607421875" lon="13.13945137895643711090087890625">
        <ele>529.5999755859375</ele>
        <time>2021-05-25T08:59:53.000Z</time>
        <extensions>
          <ns3:TrackPointExtension>
            <ns3:atemp>25.0</ns3:atemp>
          </ns3:TrackPointExtension>
        </extensions>
      </trkpt>
      <trkpt lat="43.1475060246884822845458984375" lon="13.13959571532905101776123046875">
        <ele>530.4000244140625</ele>
        <time>2021-05-25T08:59:56.000Z</time>
        <extensions>
          <ns3:TrackPointExtension>
            <ns3:atemp>25.0</ns3:atemp>
          </ns3:TrackPointExtension>
        </extensions>
      </trkpt>
      <trkpt lat="43.14747911877930164337158203125" lon="13.1397149898111820220947265625">
        <ele>530.79998779296875</ele>
        <time>2021-05-25T08:59:59.000Z</time>
        <extensions>
          <ns3:TrackPointExtension>
            <ns3:atemp>25.0</ns3:atemp>
          </ns3:TrackPointExtension>
        </extensions>
      </trkpt>
      <trkpt lat="43.14738624729216098785400390625" lon="13.13986904919147491455078125">
        <ele>531.20001220703125</ele>
        <time>2021-05-25T09:00:03.000Z</time>
        <extensions>
          <ns3:TrackPointExtension>
            <ns3:atemp>25.0</ns3:atemp>
          </ns3:TrackPointExtension>
        </extensions>
      </trkpt>
      <trkpt lat="43.14733922481536865234375" lon="13.13994071446359157562255859375">
        <ele>531.5999755859375</ele>
        <time>2021-05-25T09:00:05.000Z</time>
        <extensions>
          <ns3:TrackPointExtension>
            <ns3:atemp>25.0</ns3:atemp>
          </ns3:TrackPointExtension>
        </extensions>
      </trkpt>
      <trkpt lat="43.14726035110652446746826171875" lon="13.14004196785390377044677734375">
        <ele>532.4000244140625</ele>
        <time>2021-05-25T09:00:08.000Z</time>
        <extensions>
          <ns3:TrackPointExtension>
            <ns3:atemp>25.0</ns3:atemp>
          </ns3:TrackPointExtension>
        </extensions>
      </trkpt>
      <trkpt lat="43.14723570831120014190673828125" lon="13.14008186571300029754638671875">
        <ele>532.5999755859375</ele>
        <time>2021-05-25T09:00:09.000Z</time>
        <extensions>
          <ns3:TrackPointExtension>
            <ns3:atemp>25.0</ns3:atemp>
          </ns3:TrackPointExtension>
        </extensions>
      </trkpt>
      <trkpt lat="43.14715172164142131805419921875" lon="13.1402537785470485687255859375">
        <ele>533.79998779296875</ele>
        <time>2021-05-25T09:00:13.000Z</time>
        <extensions>
          <ns3:TrackPointExtension>
            <ns3:atemp>25.0</ns3:atemp>
          </ns3:TrackPointExtension>
        </extensions>
      </trkpt>
      <trkpt lat="43.147127665579319000244140625" lon="13.14029241912066936492919921875">
        <ele>534.20001220703125</ele>
        <time>2021-05-25T09:00:14.000Z</time>
        <extensions>
          <ns3:TrackPointExtension>
            <ns3:atemp>25.0</ns3:atemp>
          </ns3:TrackPointExtension>
        </extensions>
      </trkpt>
      <trkpt lat="43.14705516211688518524169921875" lon="13.1404080055654048919677734375">
        <ele>535</ele>
        <time>2021-05-25T09:00:17.000Z</time>
        <extensions>
          <ns3:TrackPointExtension>
            <ns3:atemp>25.0</ns3:atemp>
          </ns3:TrackPointExtension>
        </extensions>
      </trkpt>
      <trkpt lat="43.1469568423926830291748046875" lon="13.14056935720145702362060546875">
        <ele>535.79998779296875</ele>
        <time>2021-05-25T09:00:21.000Z</time>
        <extensions>
          <ns3:TrackPointExtension>
            <ns3:atemp>25.0</ns3:atemp>
          </ns3:TrackPointExtension>
        </extensions>
      </trkpt>
      <trkpt lat="43.1469328701496124267578125" lon="13.14061461947858333587646484375">
        <ele>536</ele>
        <time>2021-05-25T09:00:22.000Z</time>
        <extensions>
          <ns3:TrackPointExtension>
            <ns3:atemp>25.0</ns3:atemp>
          </ns3:TrackPointExtension>
        </extensions>
      </trkpt>
      <trkpt lat="43.14684544689953327178955078125" lon="13.14083640463650226593017578125">
        <ele>537.20001220703125</ele>
        <time>2021-05-25T09:00:27.000Z</time>
        <extensions>
          <ns3:TrackPointExtension>
            <ns3:atemp>25.0</ns3:atemp>
          </ns3:TrackPointExtension>
        </extensions>
      </trkpt>
      <trkpt lat="43.146834634244441986083984375" lon="13.1408807449042797088623046875">
        <ele>537.4000244140625</ele>
        <time>2021-05-25T09:00:28.000Z</time>
        <extensions>
          <ns3:TrackPointExtension>
            <ns3:atemp>25.0</ns3:atemp>
          </ns3:TrackPointExtension>
        </extensions>
      </trkpt>
      <trkpt lat="43.14681560732424259185791015625" lon="13.14111602492630481719970703125">
        <ele>538.4000244140625</ele>
        <time>2021-05-25T09:00:33.000Z</time>
        <extensions>
          <ns3:TrackPointExtension>
            <ns3:atemp>25.0</ns3:atemp>
          </ns3:TrackPointExtension>
        </extensions>
      </trkpt>
      <trkpt lat="43.14683052711188793182373046875" lon="13.14136572182178497314453125">
        <ele>539.4000244140625</ele>
        <time>2021-05-25T09:00:38.000Z</time>
        <extensions>
          <ns3:TrackPointExtension>
            <ns3:atemp>25.0</ns3:atemp>
          </ns3:TrackPointExtension>
        </extensions>
      </trkpt>
      <trkpt lat="43.14684226177632808685302734375" lon="13.14156018197536468505859375">
        <ele>540.20001220703125</ele>
        <time>2021-05-25T09:00:42.000Z</time>
        <extensions>
          <ns3:TrackPointExtension>
            <ns3:atemp>25.0</ns3:atemp>
          </ns3:TrackPointExtension>
        </extensions>
      </trkpt>
      <trkpt lat="43.14684360288083553314208984375" lon="13.14160988666117191314697265625">
        <ele>540.4000244140625</ele>
        <time>2021-05-25T09:00:43.000Z</time>
        <extensions>
          <ns3:TrackPointExtension>
            <ns3:atemp>25.0</ns3:atemp>
          </ns3:TrackPointExtension>
        </extensions>
      </trkpt>
      <trkpt lat="43.14685030840337276458740234375" lon="13.1419036723673343658447265625">
        <ele>541.5999755859375</ele>
        <time>2021-05-25T09:00:49.000Z</time>
        <extensions>
          <ns3:TrackPointExtension>
            <ns3:atemp>25.0</ns3:atemp>
          </ns3:TrackPointExtension>
        </extensions>
      </trkpt>
      <trkpt lat="43.1468462012708187103271484375" lon="13.142043314874172210693359375">
        <ele>542</ele>
        <time>2021-05-25T09:00:52.000Z</time>
        <extensions>
          <ns3:TrackPointExtension>
            <ns3:atemp>25.0</ns3:atemp>
          </ns3:TrackPointExtension>
        </extensions>
      </trkpt>
      <trkpt lat="43.14682734198868274688720703125" lon="13.1421876512467861175537109375">
        <ele>543</ele>
        <time>2021-05-25T09:00:55.000Z</time>
        <extensions>
          <ns3:TrackPointExtension>
            <ns3:atemp>25.0</ns3:atemp>
          </ns3:TrackPointExtension>
        </extensions>
      </trkpt>
      <trkpt lat="43.14680655486881732940673828125" lon="13.14232771284878253936767578125">
        <ele>543.5999755859375</ele>
        <time>2021-05-25T09:00:58.000Z</time>
        <extensions>
          <ns3:TrackPointExtension>
            <ns3:atemp>25.0</ns3:atemp>
          </ns3:TrackPointExtension>
        </extensions>
      </trkpt>
      <trkpt lat="43.1467987596988677978515625" lon="13.1424236856400966644287109375">
        <ele>544</ele>
        <time>2021-05-25T09:01:00.000Z</time>
        <extensions>
          <ns3:TrackPointExtension>
            <ns3:atemp>25.0</ns3:atemp>
          </ns3:TrackPointExtension>
        </extensions>
      </trkpt>
      <trkpt lat="43.14676967449486255645751953125" lon="13.1426523439586162567138671875">
        <ele>545</ele>
        <time>2021-05-25T09:01:05.000Z</time>
        <extensions>
          <ns3:TrackPointExtension>
            <ns3:atemp>25.0</ns3:atemp>
          </ns3:TrackPointExtension>
        </extensions>
      </trkpt>
      <trkpt lat="43.14676330424845218658447265625" lon="13.142698444426059722900390625">
        <ele>545.4000244140625</ele>
        <time>2021-05-25T09:01:06.000Z</time>
        <extensions>
          <ns3:TrackPointExtension>
            <ns3:atemp>25.0</ns3:atemp>
          </ns3:TrackPointExtension>
        </extensions>
      </trkpt>
      <trkpt lat="43.146732039749622344970703125" lon="13.1429326348006725311279296875">
        <ele>546.4000244140625</ele>
        <time>2021-05-25T09:01:11.000Z</time>
        <extensions>
          <ns3:TrackPointExtension>
            <ns3:atemp>25.0</ns3:atemp>
          </ns3:TrackPointExtension>
        </extensions>
      </trkpt>
      <trkpt lat="43.1467241607606410980224609375" lon="13.14302743412554264068603515625">
        <ele>547.20001220703125</ele>
        <time>2021-05-25T09:01:13.000Z</time>
        <extensions>
          <ns3:TrackPointExtension>
            <ns3:atemp>25.0</ns3:atemp>
          </ns3:TrackPointExtension>
        </extensions>
      </trkpt>
      <trkpt lat="43.14671653322875499725341796875" lon="13.14311988651752471923828125">
        <ele>547.79998779296875</ele>
        <time>2021-05-25T09:01:15.000Z</time>
        <extensions>
          <ns3:TrackPointExtension>
            <ns3:atemp>25.0</ns3:atemp>
          </ns3:TrackPointExtension>
        </extensions>
      </trkpt>
      <trkpt lat="43.1467070616781711578369140625" lon="13.14330236054956912994384765625">
        <ele>548.79998779296875</ele>
        <time>2021-05-25T09:01:19.000Z</time>
        <extensions>
          <ns3:TrackPointExtension>
            <ns3:atemp>25.0</ns3:atemp>
          </ns3:TrackPointExtension>
        </extensions>
      </trkpt>
      <trkpt lat="43.1466970033943653106689453125" lon="13.1434365548193454742431640625">
        <ele>550.20001220703125</ele>
        <time>2021-05-25T09:01:22.000Z</time>
        <extensions>
          <ns3:TrackPointExtension>
            <ns3:atemp>25.0</ns3:atemp>
          </ns3:TrackPointExtension>
        </extensions>
      </trkpt>
      <trkpt lat="43.1466913037002086639404296875" lon="13.14351911656558513641357421875">
        <ele>551.5999755859375</ele>
        <time>2021-05-25T09:01:24.000Z</time>
        <extensions>
          <ns3:TrackPointExtension>
            <ns3:atemp>25.0</ns3:atemp>
          </ns3:TrackPointExtension>
        </extensions>
      </trkpt>
      <trkpt lat="43.146682418882846832275390625" lon="13.14363897778093814849853515625">
        <ele>552.79998779296875</ele>
        <time>2021-05-25T09:01:27.000Z</time>
        <extensions>
          <ns3:TrackPointExtension>
            <ns3:atemp>25.0</ns3:atemp>
          </ns3:TrackPointExtension>
        </extensions>
      </trkpt>
      <trkpt lat="43.14668141305446624755859375" lon="13.14367585815489292144775390625">
        <ele>553.20001220703125</ele>
        <time>2021-05-25T09:01:28.000Z</time>
        <extensions>
          <ns3:TrackPointExtension>
            <ns3:atemp>25.0</ns3:atemp>
          </ns3:TrackPointExtension>
        </extensions>
      </trkpt>
      <trkpt lat="43.14668007194995880126953125" lon="13.1438097171485424041748046875">
        <ele>554</ele>
        <time>2021-05-25T09:01:32.000Z</time>
        <extensions>
          <ns3:TrackPointExtension>
            <ns3:atemp>25.0</ns3:atemp>
          </ns3:TrackPointExtension>
        </extensions>
      </trkpt>
      <trkpt lat="43.14667630009353160858154296875" lon="13.14390853978693485260009765625">
        <ele>555.20001220703125</ele>
        <time>2021-05-25T09:01:35.000Z</time>
        <extensions>
          <ns3:TrackPointExtension>
            <ns3:atemp>25.0</ns3:atemp>
          </ns3:TrackPointExtension>
        </extensions>
      </trkpt>
      <trkpt lat="43.14664947800338268280029296875" lon="13.144032843410968780517578125">
        <ele>556.4000244140625</ele>
        <time>2021-05-25T09:01:39.000Z</time>
        <extensions>
          <ns3:TrackPointExtension>
            <ns3:atemp>25.0</ns3:atemp>
          </ns3:TrackPointExtension>
        </extensions>
      </trkpt>
      <trkpt lat="43.146630115807056427001953125" lon="13.14412998966872692108154296875">
        <ele>557.4000244140625</ele>
        <time>2021-05-25T09:01:42.000Z</time>
        <extensions>
          <ns3:TrackPointExtension>
            <ns3:atemp>25.0</ns3:atemp>
          </ns3:TrackPointExtension>
        </extensions>
      </trkpt>
      <trkpt lat="43.14662902615964412689208984375" lon="13.144161589443683624267578125">
        <ele>557.79998779296875</ele>
        <time>2021-05-25T09:01:43.000Z</time>
        <extensions>
          <ns3:TrackPointExtension>
            <ns3:atemp>25.0</ns3:atemp>
          </ns3:TrackPointExtension>
        </extensions>
      </trkpt>
      <trkpt lat="43.14662667922675609588623046875" lon="13.144249431788921356201171875">
        <ele>559</ele>
        <time>2021-05-25T09:01:46.000Z</time>
        <extensions>
          <ns3:TrackPointExtension>
            <ns3:atemp>25.0</ns3:atemp>
          </ns3:TrackPointExtension>
        </extensions>
      </trkpt>
      <trkpt lat="43.14661502838134765625" lon="13.1443153135478496551513671875">
        <ele>560</ele>
        <time>2021-05-25T09:01:48.000Z</time>
        <extensions>
          <ns3:TrackPointExtension>
            <ns3:atemp>25.0</ns3:atemp>
          </ns3:TrackPointExtension>
        </extensions>
      </trkpt>
      <trkpt lat="43.14660890959203243255615234375" lon="13.144349344074726104736328125">
        <ele>560.4000244140625</ele>
        <time>2021-05-25T09:01:49.000Z</time>
        <extensions>
          <ns3:TrackPointExtension>
            <ns3:atemp>25.0</ns3:atemp>
          </ns3:TrackPointExtension>
        </extensions>
      </trkpt>
      <trkpt lat="43.146598599851131439208984375" lon="13.14444959163665771484375">
        <ele>561.5999755859375</ele>
        <time>2021-05-25T09:01:52.000Z</time>
        <extensions>
          <ns3:TrackPointExtension>
            <ns3:atemp>25.0</ns3:atemp>
          </ns3:TrackPointExtension>
        </extensions>
      </trkpt>
      <trkpt lat="43.146595247089862823486328125" lon="13.14458169043064117431640625">
        <ele>562.5999755859375</ele>
        <time>2021-05-25T09:01:56.000Z</time>
        <extensions>
          <ns3:TrackPointExtension>
            <ns3:atemp>25.0</ns3:atemp>
          </ns3:TrackPointExtension>
        </extensions>
      </trkpt>
      <trkpt lat="43.14659583382308483123779296875" lon="13.14461211673915386199951171875">
        <ele>562.79998779296875</ele>
        <time>2021-05-25T09:01:57.000Z</time>
        <extensions>
          <ns3:TrackPointExtension>
            <ns3:atemp>25.0</ns3:atemp>
          </ns3:TrackPointExtension>
        </extensions>
      </trkpt>
      <trkpt lat="43.14658351242542266845703125" lon="13.14485552720725536346435546875">
        <ele>564.20001220703125</ele>
        <time>2021-05-25T09:02:04.000Z</time>
        <extensions>
          <ns3:TrackPointExtension>
            <ns3:atemp>25.0</ns3:atemp>
          </ns3:TrackPointExtension>
        </extensions>
      </trkpt>
      <trkpt lat="43.14658124931156635284423828125" lon="13.14499231986701488494873046875">
        <ele>565.4000244140625</ele>
        <time>2021-05-25T09:02:08.000Z</time>
        <extensions>
          <ns3:TrackPointExtension>
            <ns3:atemp>25.0</ns3:atemp>
          </ns3:TrackPointExtension>
        </extensions>
      </trkpt>
      <trkpt lat="43.14657504670321941375732421875" lon="13.14511117525398731231689453125">
        <ele>565.79998779296875</ele>
        <time>2021-05-25T09:02:11.000Z</time>
        <extensions>
          <ns3:TrackPointExtension>
            <ns3:atemp>25.0</ns3:atemp>
          </ns3:TrackPointExtension>
        </extensions>
      </trkpt>
      <trkpt lat="43.1465736217796802520751953125" lon="13.14523170702159404754638671875">
        <ele>566.4000244140625</ele>
        <time>2021-05-25T09:02:14.000Z</time>
        <extensions>
          <ns3:TrackPointExtension>
            <ns3:atemp>25.0</ns3:atemp>
          </ns3:TrackPointExtension>
        </extensions>
      </trkpt>
      <trkpt lat="43.14657119102776050567626953125" lon="13.1453023664653301239013671875">
        <ele>566.79998779296875</ele>
        <time>2021-05-25T09:02:16.000Z</time>
        <extensions>
          <ns3:TrackPointExtension>
            <ns3:atemp>25.0</ns3:atemp>
          </ns3:TrackPointExtension>
        </extensions>
      </trkpt>
      <trkpt lat="43.14655937254428863525390625" lon="13.1455343775451183319091796875">
        <ele>567.20001220703125</ele>
        <time>2021-05-25T09:02:22.000Z</time>
        <extensions>
          <ns3:TrackPointExtension>
            <ns3:atemp>25.0</ns3:atemp>
          </ns3:TrackPointExtension>
        </extensions>
      </trkpt>
      <trkpt lat="43.1465444527566432952880859375" lon="13.14566052518784999847412109375">
        <ele>567.79998779296875</ele>
        <time>2021-05-25T09:02:25.000Z</time>
        <extensions>
          <ns3:TrackPointExtension>
            <ns3:atemp>25.0</ns3:atemp>
          </ns3:TrackPointExtension>
        </extensions>
      </trkpt>
      <trkpt lat="43.146528191864490509033203125" lon="13.1458076275885105133056640625">
        <ele>568.20001220703125</ele>
        <time>2021-05-25T09:02:29.000Z</time>
        <extensions>
          <ns3:TrackPointExtension>
            <ns3:atemp>25.0</ns3:atemp>
          </ns3:TrackPointExtension>
        </extensions>
      </trkpt>
      <trkpt lat="43.1465263478457927703857421875" lon="13.1458441726863384246826171875">
        <ele>568.79998779296875</ele>
        <time>2021-05-25T09:02:30.000Z</time>
        <extensions>
          <ns3:TrackPointExtension>
            <ns3:atemp>25.0</ns3:atemp>
          </ns3:TrackPointExtension>
        </extensions>
      </trkpt>
      <trkpt lat="43.1465233303606510162353515625" lon="13.1458830647170543670654296875">
        <ele>569.20001220703125</ele>
        <time>2021-05-25T09:02:33.000Z</time>
        <extensions>
          <ns3:TrackPointExtension>
            <ns3:atemp>25.0</ns3:atemp>
          </ns3:TrackPointExtension>
        </extensions>
      </trkpt>
      <trkpt lat="43.146515786647796630859375" lon="13.14588700421154499053955078125">
        <ele>569.4000244140625</ele>
        <time>2021-05-25T09:02:51.000Z</time>
        <extensions>
          <ns3:TrackPointExtension>
            <ns3:atemp>25.0</ns3:atemp>
          </ns3:TrackPointExtension>
        </extensions>
      </trkpt>
      <trkpt lat="43.14651670865714550018310546875" lon="13.145887590944766998291015625">
        <ele>569</ele>
        <time>2021-05-25T09:02:57.000Z</time>
        <extensions>
          <ns3:TrackPointExtension>
            <ns3:atemp>25.0</ns3:atemp>
          </ns3:TrackPointExtension>
        </extensions>
      </trkpt>
      <trkpt lat="43.14651369117200374603271484375" lon="13.1459368765354156494140625">
        <ele>568.79998779296875</ele>
        <time>2021-05-25T09:02:59.000Z</time>
        <extensions>
          <ns3:TrackPointExtension>
            <ns3:atemp>25.0</ns3:atemp>
          </ns3:TrackPointExtension>
        </extensions>
      </trkpt>
      <trkpt lat="43.1465467996895313262939453125" lon="13.14615824259817600250244140625">
        <ele>568.5999755859375</ele>
        <time>2021-05-25T09:03:04.000Z</time>
        <extensions>
          <ns3:TrackPointExtension>
            <ns3:atemp>25.0</ns3:atemp>
          </ns3:TrackPointExtension>
        </extensions>
      </trkpt>
      <trkpt lat="43.146569766104221343994140625" lon="13.14640835858881473541259765625">
        <ele>568</ele>
        <time>2021-05-25T09:03:10.000Z</time>
        <extensions>
          <ns3:TrackPointExtension>
            <ns3:atemp>25.0</ns3:atemp>
          </ns3:TrackPointExtension>
        </extensions>
      </trkpt>
      <trkpt lat="43.14655208028852939605712890625" lon="13.1464731507003307342529296875">
        <ele>567.79998779296875</ele>
        <time>2021-05-25T09:03:12.000Z</time>
        <extensions>
          <ns3:TrackPointExtension>
            <ns3:atemp>25.0</ns3:atemp>
          </ns3:TrackPointExtension>
        </extensions>
      </trkpt>
      <trkpt lat="43.1465012021362781524658203125" lon="13.14651899971067905426025390625">
        <ele>567.79998779296875</ele>
        <time>2021-05-25T09:03:14.000Z</time>
        <extensions>
          <ns3:TrackPointExtension>
            <ns3:atemp>25.0</ns3:atemp>
          </ns3:TrackPointExtension>
        </extensions>
      </trkpt>
      <trkpt lat="43.1462953425943851470947265625" lon="13.14663148485124111175537109375">
        <ele>567.5999755859375</ele>
        <time>2021-05-25T09:03:21.000Z</time>
        <extensions>
          <ns3:TrackPointExtension>
            <ns3:atemp>25.0</ns3:atemp>
          </ns3:TrackPointExtension>
        </extensions>
      </trkpt>
      <trkpt lat="43.1462088413536548614501953125" lon="13.1467805989086627960205078125">
        <ele>567.79998779296875</ele>
        <time>2021-05-25T09:03:26.000Z</time>
        <extensions>
          <ns3:TrackPointExtension>
            <ns3:atemp>25.0</ns3:atemp>
          </ns3:TrackPointExtension>
        </extensions>
      </trkpt>
      <trkpt lat="43.14620758406817913055419921875" lon="13.1469023041427135467529296875">
        <ele>568.79998779296875</ele>
        <time>2021-05-25T09:03:29.000Z</time>
        <extensions>
          <ns3:TrackPointExtension>
            <ns3:atemp>25.0</ns3:atemp>
          </ns3:TrackPointExtension>
        </extensions>
      </trkpt>
      <trkpt lat="43.14621261321008205413818359375" lon="13.1469945050776004791259765625">
        <ele>570.4000244140625</ele>
        <time>2021-05-25T09:03:31.000Z</time>
        <extensions>
          <ns3:TrackPointExtension>
            <ns3:atemp>25.0</ns3:atemp>
          </ns3:TrackPointExtension>
        </extensions>
      </trkpt>
      <trkpt lat="43.1462199054658412933349609375" lon="13.14708913676440715789794921875">
        <ele>571.79998779296875</ele>
        <time>2021-05-25T09:03:33.000Z</time>
        <extensions>
          <ns3:TrackPointExtension>
            <ns3:atemp>25.0</ns3:atemp>
          </ns3:TrackPointExtension>
        </extensions>
      </trkpt>
      <trkpt lat="43.1462247669696807861328125" lon="13.14716423861682415008544921875">
        <ele>572.4000244140625</ele>
        <time>2021-05-25T09:03:37.000Z</time>
        <extensions>
          <ns3:TrackPointExtension>
            <ns3:atemp>25.0</ns3:atemp>
          </ns3:TrackPointExtension>
        </extensions>
      </trkpt>
      <trkpt lat="43.14622283913195133209228515625" lon="13.14715392887592315673828125">
        <ele>572.79998779296875</ele>
        <time>2021-05-25T09:03:41.000Z</time>
        <extensions>
          <ns3:TrackPointExtension>
            <ns3:atemp>25.0</ns3:atemp>
          </ns3:TrackPointExtension>
        </extensions>
      </trkpt>
      <trkpt lat="43.14622141420841217041015625" lon="13.147154264152050018310546875">
        <ele>572.79998779296875</ele>
        <time>2021-05-25T09:03:48.000Z</time>
        <extensions>
          <ns3:TrackPointExtension>
            <ns3:atemp>25.0</ns3:atemp>
          </ns3:TrackPointExtension>
        </extensions>
      </trkpt>
      <trkpt lat="43.14622568897902965545654296875" lon="13.14718334935605525970458984375">
        <ele>573.20001220703125</ele>
        <time>2021-05-25T09:04:02.000Z</time>
        <extensions>
          <ns3:TrackPointExtension>
            <ns3:atemp>25.0</ns3:atemp>
          </ns3:TrackPointExtension>
        </extensions>
      </trkpt>
      <trkpt lat="43.14626030623912811279296875" lon="13.14733942039310932159423828125">
        <ele>573.20001220703125</ele>
        <time>2021-05-25T09:04:07.000Z</time>
        <extensions>
          <ns3:TrackPointExtension>
            <ns3:atemp>25.0</ns3:atemp>
          </ns3:TrackPointExtension>
        </extensions>
      </trkpt>
      <trkpt lat="43.14627396874129772186279296875" lon="13.14757478423416614532470703125">
        <ele>573.4000244140625</ele>
        <time>2021-05-25T09:04:13.000Z</time>
        <extensions>
          <ns3:TrackPointExtension>
            <ns3:atemp>25.0</ns3:atemp>
          </ns3:TrackPointExtension>
        </extensions>
      </trkpt>
      <trkpt lat="43.146235831081867218017578125" lon="13.14776237122714519500732421875">
        <ele>573.4000244140625</ele>
        <time>2021-05-25T09:04:18.000Z</time>
        <extensions>
          <ns3:TrackPointExtension>
            <ns3:atemp>25.0</ns3:atemp>
          </ns3:TrackPointExtension>
        </extensions>
      </trkpt>
      <trkpt lat="43.14612711779773235321044921875" lon="13.14796739257872104644775390625">
        <ele>573.5999755859375</ele>
        <time>2021-05-25T09:04:25.000Z</time>
        <extensions>
          <ns3:TrackPointExtension>
            <ns3:atemp>25.0</ns3:atemp>
          </ns3:TrackPointExtension>
        </extensions>
      </trkpt>
      <trkpt lat="43.14607548527419567108154296875" lon="13.14800058491528034210205078125">
        <ele>573.5999755859375</ele>
        <time>2021-05-25T09:04:27.000Z</time>
        <extensions>
          <ns3:TrackPointExtension>
            <ns3:atemp>25.0</ns3:atemp>
          </ns3:TrackPointExtension>
        </extensions>
      </trkpt>
      <trkpt lat="43.146016560494899749755859375" lon="13.14799119718372821807861328125">
        <ele>574</ele>
        <time>2021-05-25T09:04:29.000Z</time>
        <extensions>
          <ns3:TrackPointExtension>
            <ns3:atemp>25.0</ns3:atemp>
          </ns3:TrackPointExtension>
        </extensions>
      </trkpt>
      <trkpt lat="43.14586610533297061920166015625" lon="13.14796018414199352264404296875">
        <ele>575.20001220703125</ele>
        <time>2021-05-25T09:04:35.000Z</time>
        <extensions>
          <ns3:TrackPointExtension>
            <ns3:atemp>25.0</ns3:atemp>
          </ns3:TrackPointExtension>
        </extensions>
      </trkpt>
      <trkpt lat="43.14584179781377315521240234375" lon="13.14796001650393009185791015625">
        <ele>575.5999755859375</ele>
        <time>2021-05-25T09:04:36.000Z</time>
        <extensions>
          <ns3:TrackPointExtension>
            <ns3:atemp>25.0</ns3:atemp>
          </ns3:TrackPointExtension>
        </extensions>
      </trkpt>
      <trkpt lat="43.14577440731227397918701171875" lon="13.14796336926519870758056640625">
        <ele>576.79998779296875</ele>
        <time>2021-05-25T09:04:39.000Z</time>
        <extensions>
          <ns3:TrackPointExtension>
            <ns3:atemp>25.0</ns3:atemp>
          </ns3:TrackPointExtension>
        </extensions>
      </trkpt>
      <trkpt lat="43.14570919610559940338134765625" lon="13.14797041006386280059814453125">
        <ele>578.20001220703125</ele>
        <time>2021-05-25T09:04:42.000Z</time>
        <extensions>
          <ns3:TrackPointExtension>
            <ns3:atemp>25.0</ns3:atemp>
          </ns3:TrackPointExtension>
        </extensions>
      </trkpt>
      <trkpt lat="43.14568606205284595489501953125" lon="13.14797342754900455474853515625">
        <ele>578.79998779296875</ele>
        <time>2021-05-25T09:04:43.000Z</time>
        <extensions>
          <ns3:TrackPointExtension>
            <ns3:atemp>25.0</ns3:atemp>
          </ns3:TrackPointExtension>
        </extensions>
      </trkpt>
      <trkpt lat="43.14564348198473453521728515625" lon="13.14797527156770229339599609375">
        <ele>579.4000244140625</ele>
        <time>2021-05-25T09:04:45.000Z</time>
        <extensions>
          <ns3:TrackPointExtension>
            <ns3:atemp>25.0</ns3:atemp>
          </ns3:TrackPointExtension>
        </extensions>
      </trkpt>
      <trkpt lat="43.1455996446311473846435546875" lon="13.14797778613865375518798828125">
        <ele>580.79998779296875</ele>
        <time>2021-05-25T09:04:47.000Z</time>
        <extensions>
          <ns3:TrackPointExtension>
            <ns3:atemp>25.0</ns3:atemp>
          </ns3:TrackPointExtension>
        </extensions>
      </trkpt>
      <trkpt lat="43.145542480051517486572265625" lon="13.1480046920478343963623046875">
        <ele>582</ele>
        <time>2021-05-25T09:04:50.000Z</time>
        <extensions>
          <ns3:TrackPointExtension>
            <ns3:atemp>25.0</ns3:atemp>
          </ns3:TrackPointExtension>
        </extensions>
      </trkpt>
      <trkpt lat="43.14554817974567413330078125" lon="13.1480611860752105712890625">
        <ele>583.4000244140625</ele>
        <time>2021-05-25T09:04:53.000Z</time>
        <extensions>
          <ns3:TrackPointExtension>
            <ns3:atemp>25.0</ns3:atemp>
          </ns3:TrackPointExtension>
        </extensions>
      </trkpt>
      <trkpt lat="43.14556318335235118865966796875" lon="13.148071579635143280029296875">
        <ele>584</ele>
        <time>2021-05-25T09:04:54.000Z</time>
        <extensions>
          <ns3:TrackPointExtension>
            <ns3:atemp>25.0</ns3:atemp>
          </ns3:TrackPointExtension>
        </extensions>
      </trkpt>
      <trkpt lat="43.14558045007288455963134765625" lon="13.1480787880718708038330078125">
        <ele>584.5999755859375</ele>
        <time>2021-05-25T09:04:55.000Z</time>
        <extensions>
          <ns3:TrackPointExtension>
            <ns3:atemp>25.0</ns3:atemp>
          </ns3:TrackPointExtension>
        </extensions>
      </trkpt>
      <trkpt lat="43.1456264667212963104248046875" lon="13.14810368232429027557373046875">
        <ele>586</ele>
        <time>2021-05-25T09:04:58.000Z</time>
        <extensions>
          <ns3:TrackPointExtension>
            <ns3:atemp>25.0</ns3:atemp>
          </ns3:TrackPointExtension>
        </extensions>
      </trkpt>
      <trkpt lat="43.14564247615635395050048828125" lon="13.14811323769390583038330078125">
        <ele>586.5999755859375</ele>
        <time>2021-05-25T09:04:59.000Z</time>
        <extensions>
          <ns3:TrackPointExtension>
            <ns3:atemp>25.0</ns3:atemp>
          </ns3:TrackPointExtension>
        </extensions>
      </trkpt>
      <trkpt lat="43.1456593237817287445068359375" lon="13.14812354743480682373046875">
        <ele>587</ele>
        <time>2021-05-25T09:05:00.000Z</time>
        <extensions>
          <ns3:TrackPointExtension>
            <ns3:atemp>25.0</ns3:atemp>
          </ns3:TrackPointExtension>
        </extensions>
      </trkpt>
      <trkpt lat="43.1456911750137805938720703125" lon="13.14814643003046512603759765625">
        <ele>587.20001220703125</ele>
        <time>2021-05-25T09:05:02.000Z</time>
        <extensions>
          <ns3:TrackPointExtension>
            <ns3:atemp>25.0</ns3:atemp>
          </ns3:TrackPointExtension>
        </extensions>
      </trkpt>
      <trkpt lat="43.14573534764349460601806640625" lon="13.1481904350221157073974609375">
        <ele>588.5999755859375</ele>
        <time>2021-05-25T09:05:05.000Z</time>
        <extensions>
          <ns3:TrackPointExtension>
            <ns3:atemp>25.0</ns3:atemp>
          </ns3:TrackPointExtension>
        </extensions>
      </trkpt>
      <trkpt lat="43.145759738981723785400390625" lon="13.1482196040451526641845703125">
        <ele>589.4000244140625</ele>
        <time>2021-05-25T09:05:07.000Z</time>
        <extensions>
          <ns3:TrackPointExtension>
            <ns3:atemp>25.0</ns3:atemp>
          </ns3:TrackPointExtension>
        </extensions>
      </trkpt>
      <trkpt lat="43.1457847170531749725341796875" lon="13.1482548080384731292724609375">
        <ele>589.5999755859375</ele>
        <time>2021-05-25T09:05:09.000Z</time>
        <extensions>
          <ns3:TrackPointExtension>
            <ns3:atemp>25.0</ns3:atemp>
          </ns3:TrackPointExtension>
        </extensions>
      </trkpt>
      <trkpt lat="43.14583173952996730804443359375" lon="13.148337118327617645263671875">
        <ele>590.79998779296875</ele>
        <time>2021-05-25T09:05:13.000Z</time>
        <extensions>
          <ns3:TrackPointExtension>
            <ns3:atemp>25.0</ns3:atemp>
          </ns3:TrackPointExtension>
        </extensions>
      </trkpt>
      <trkpt lat="43.1458546221256256103515625" lon="13.14837835729122161865234375">
        <ele>591.5999755859375</ele>
        <time>2021-05-25T09:05:15.000Z</time>
        <extensions>
          <ns3:TrackPointExtension>
            <ns3:atemp>25.0</ns3:atemp>
          </ns3:TrackPointExtension>
        </extensions>
      </trkpt>
      <trkpt lat="43.1458638422191143035888671875" lon="13.14839889295399188995361328125">
        <ele>592</ele>
        <time>2021-05-25T09:05:16.000Z</time>
        <extensions>
          <ns3:TrackPointExtension>
            <ns3:atemp>25.0</ns3:atemp>
          </ns3:TrackPointExtension>
        </extensions>
      </trkpt>
      <trkpt lat="43.145899213850498199462890625" lon="13.1484822928905487060546875">
        <ele>593.20001220703125</ele>
        <time>2021-05-25T09:05:20.000Z</time>
        <extensions>
          <ns3:TrackPointExtension>
            <ns3:atemp>25.0</ns3:atemp>
          </ns3:TrackPointExtension>
        </extensions>
      </trkpt>
      <trkpt lat="43.1459265388548374176025390625" lon="13.14853719435632228851318359375">
        <ele>594.4000244140625</ele>
        <time>2021-05-25T09:05:23.000Z</time>
        <extensions>
          <ns3:TrackPointExtension>
            <ns3:atemp>25.0</ns3:atemp>
          </ns3:TrackPointExtension>
        </extensions>
      </trkpt>
      <trkpt lat="43.145940117537975311279296875" lon="13.14863928593695163726806640625">
        <ele>595.4000244140625</ele>
        <time>2021-05-25T09:05:27.000Z</time>
        <extensions>
          <ns3:TrackPointExtension>
            <ns3:atemp>25.0</ns3:atemp>
          </ns3:TrackPointExtension>
        </extensions>
      </trkpt>
      <trkpt lat="43.145940788090229034423828125" lon="13.14869460649788379669189453125">
        <ele>596.20001220703125</ele>
        <time>2021-05-25T09:05:29.000Z</time>
        <extensions>
          <ns3:TrackPointExtension>
            <ns3:atemp>25.0</ns3:atemp>
          </ns3:TrackPointExtension>
        </extensions>
      </trkpt>
      <trkpt lat="43.145942799746990203857421875" lon="13.1487218476831912994384765625">
        <ele>596.79998779296875</ele>
        <time>2021-05-25T09:05:30.000Z</time>
        <extensions>
          <ns3:TrackPointExtension>
            <ns3:atemp>25.0</ns3:atemp>
          </ns3:TrackPointExtension>
        </extensions>
      </trkpt>
      <trkpt lat="43.14594020135700702667236328125" lon="13.148810863494873046875">
        <ele>598.20001220703125</ele>
        <time>2021-05-25T09:05:33.000Z</time>
        <extensions>
          <ns3:TrackPointExtension>
            <ns3:atemp>25.0</ns3:atemp>
          </ns3:TrackPointExtension>
        </extensions>
      </trkpt>
      <trkpt lat="43.14593969844281673431396484375" lon="13.14889359287917613983154296875">
        <ele>598.5999755859375</ele>
        <time>2021-05-25T09:05:36.000Z</time>
        <extensions>
          <ns3:TrackPointExtension>
            <ns3:atemp>25.0</ns3:atemp>
          </ns3:TrackPointExtension>
        </extensions>
      </trkpt>
      <trkpt lat="43.1459557078778743743896484375" lon="13.1489758193492889404296875">
        <ele>599.20001220703125</ele>
        <time>2021-05-25T09:05:39.000Z</time>
        <extensions>
          <ns3:TrackPointExtension>
            <ns3:atemp>25.0</ns3:atemp>
          </ns3:TrackPointExtension>
        </extensions>
      </trkpt>
      <trkpt lat="43.14595897682011127471923828125" lon="13.149006329476833343505859375">
        <ele>599.4000244140625</ele>
        <time>2021-05-25T09:05:40.000Z</time>
        <extensions>
          <ns3:TrackPointExtension>
            <ns3:atemp>25.0</ns3:atemp>
          </ns3:TrackPointExtension>
        </extensions>
      </trkpt>
      <trkpt lat="43.14595830626785755157470703125" lon="13.1490323133766651153564453125">
        <ele>599.5999755859375</ele>
        <time>2021-05-25T09:05:41.000Z</time>
        <extensions>
          <ns3:TrackPointExtension>
            <ns3:atemp>25.0</ns3:atemp>
          </ns3:TrackPointExtension>
        </extensions>
      </trkpt>
      <trkpt lat="43.14595461823046207427978515625" lon="13.1490608118474483489990234375">
        <ele>600.4000244140625</ele>
        <time>2021-05-25T09:05:45.000Z</time>
        <extensions>
          <ns3:TrackPointExtension>
            <ns3:atemp>25.0</ns3:atemp>
          </ns3:TrackPointExtension>
        </extensions>
      </trkpt>
      <trkpt lat="43.145968280732631683349609375" lon="13.14907011575996875762939453125">
        <ele>601.4000244140625</ele>
        <time>2021-05-25T09:05:58.000Z</time>
        <extensions>
          <ns3:TrackPointExtension>
            <ns3:atemp>25.0</ns3:atemp>
          </ns3:TrackPointExtension>
        </extensions>
      </trkpt>
      <trkpt lat="43.14596953801810741424560546875" lon="13.14907095395028591156005859375">
        <ele>601.5999755859375</ele>
        <time>2021-05-25T09:06:19.000Z</time>
        <extensions>
          <ns3:TrackPointExtension>
            <ns3:atemp>24.0</ns3:atemp>
          </ns3:TrackPointExtension>
        </extensions>
      </trkpt>
      <trkpt lat="43.1459699571132659912109375" lon="13.14907095395028591156005859375">
        <ele>601.5999755859375</ele>
        <time>2021-05-25T09:06:25.000Z</time>
        <extensions>
          <ns3:TrackPointExtension>
            <ns3:atemp>24.0</ns3:atemp>
          </ns3:TrackPointExtension>
        </extensions>
      </trkpt>
      <trkpt lat="43.14597054384648799896240234375" lon="13.14907313324511051177978515625">
        <ele>601</ele>
        <time>2021-05-25T09:06:53.000Z</time>
        <extensions>
          <ns3:TrackPointExtension>
            <ns3:atemp>24.0</ns3:atemp>
          </ns3:TrackPointExtension>
        </extensions>
      </trkpt>
      <trkpt lat="43.14597054384648799896240234375" lon="13.149073384702205657958984375">
        <ele>600.5999755859375</ele>
        <time>2021-05-25T09:06:59.000Z</time>
        <extensions>
          <ns3:TrackPointExtension>
            <ns3:atemp>24.0</ns3:atemp>
          </ns3:TrackPointExtension>
        </extensions>
      </trkpt>
      <trkpt lat="43.14597071148455142974853515625" lon="13.149073384702205657958984375">
        <ele>600.4000244140625</ele>
        <time>2021-05-25T09:07:01.000Z</time>
        <extensions>
          <ns3:TrackPointExtension>
            <ns3:atemp>24.0</ns3:atemp>
          </ns3:TrackPointExtension>
        </extensions>
      </trkpt>
      <trkpt lat="43.14597121439874172210693359375" lon="13.14907464198768138885498046875">
        <ele>601.4000244140625</ele>
        <time>2021-05-25T09:07:27.000Z</time>
        <extensions>
          <ns3:TrackPointExtension>
            <ns3:atemp>23.0</ns3:atemp>
          </ns3:TrackPointExtension>
        </extensions>
      </trkpt>
      <trkpt lat="43.1459712982177734375" lon="13.14907531253993511199951171875">
        <ele>602</ele>
        <time>2021-05-25T09:07:37.000Z</time>
        <extensions>
          <ns3:TrackPointExtension>
            <ns3:atemp>23.0</ns3:atemp>
          </ns3:TrackPointExtension>
        </extensions>
      </trkpt>
      <trkpt lat="43.1459714658558368682861328125" lon="13.1490755639970302581787109375">
        <ele>603.20001220703125</ele>
        <time>2021-05-25T09:07:43.000Z</time>
        <extensions>
          <ns3:TrackPointExtension>
            <ns3:atemp>23.0</ns3:atemp>
          </ns3:TrackPointExtension>
        </extensions>
      </trkpt>
      <trkpt lat="43.14597154967486858367919921875" lon="13.1490758992731571197509765625">
        <ele>603.4000244140625</ele>
        <time>2021-05-25T09:07:56.000Z</time>
        <extensions>
          <ns3:TrackPointExtension>
            <ns3:atemp>23.0</ns3:atemp>
          </ns3:TrackPointExtension>
        </extensions>
      </trkpt>
      <trkpt lat="43.14597171731293201446533203125" lon="13.14907598309218883514404296875">
        <ele>603.4000244140625</ele>
        <time>2021-05-25T09:08:03.000Z</time>
        <extensions>
          <ns3:TrackPointExtension>
            <ns3:atemp>23.0</ns3:atemp>
          </ns3:TrackPointExtension>
        </extensions>
      </trkpt>
      <trkpt lat="43.14597289077937602996826171875" lon="13.14907715655863285064697265625">
        <ele>602.20001220703125</ele>
        <time>2021-05-25T09:08:21.000Z</time>
        <extensions>
          <ns3:TrackPointExtension>
            <ns3:atemp>22.0</ns3:atemp>
          </ns3:TrackPointExtension>
        </extensions>
      </trkpt>
      <trkpt lat="43.1459734775125980377197265625" lon="13.14907715655863285064697265625">
        <ele>601.79998779296875</ele>
        <time>2021-05-25T09:08:35.000Z</time>
        <extensions>
          <ns3:TrackPointExtension>
            <ns3:atemp>22.0</ns3:atemp>
          </ns3:TrackPointExtension>
        </extensions>
      </trkpt>
      <trkpt lat="43.14597339369356632232666015625" lon="13.14907732419669628143310546875">
        <ele>601.20001220703125</ele>
        <time>2021-05-25T09:08:37.000Z</time>
        <extensions>
          <ns3:TrackPointExtension>
            <ns3:atemp>22.0</ns3:atemp>
          </ns3:TrackPointExtension>
        </extensions>
      </trkpt>
      <trkpt lat="43.145973645150661468505859375" lon="13.1490785814821720123291015625">
        <ele>601</ele>
        <time>2021-05-25T09:09:00.000Z</time>
        <extensions>
          <ns3:TrackPointExtension>
            <ns3:atemp>22.0</ns3:atemp>
          </ns3:TrackPointExtension>
        </extensions>
      </trkpt>
      <trkpt lat="43.145973645150661468505859375" lon="13.149078749120235443115234375">
        <ele>601.20001220703125</ele>
        <time>2021-05-25T09:09:02.000Z</time>
        <extensions>
          <ns3:TrackPointExtension>
            <ns3:atemp>22.0</ns3:atemp>
          </ns3:TrackPointExtension>
        </extensions>
      </trkpt>
      <trkpt lat="43.1459751538932323455810546875" lon="13.14908067695796489715576171875">
        <ele>600.5999755859375</ele>
        <time>2021-05-25T09:09:31.000Z</time>
        <extensions>
          <ns3:TrackPointExtension>
            <ns3:atemp>21.0</ns3:atemp>
          </ns3:TrackPointExtension>
        </extensions>
      </trkpt>
      <trkpt lat="43.14595629461109638214111328125" lon="13.14907883293926715850830078125">
        <ele>601.4000244140625</ele>
        <time>2021-05-25T09:09:46.000Z</time>
        <extensions>
          <ns3:TrackPointExtension>
            <ns3:atemp>21.0</ns3:atemp>
          </ns3:TrackPointExtension>
        </extensions>
      </trkpt>
      <trkpt lat="43.1459503434598445892333984375" lon="13.14905553124845027923583984375">
        <ele>601.4000244140625</ele>
        <time>2021-05-25T09:09:47.000Z</time>
        <extensions>
          <ns3:TrackPointExtension>
            <ns3:atemp>21.0</ns3:atemp>
          </ns3:TrackPointExtension>
        </extensions>
      </trkpt>
      <trkpt lat="43.145963586866855621337890625" lon="13.14900867640972137451171875">
        <ele>601.4000244140625</ele>
        <time>2021-05-25T09:09:50.000Z</time>
        <extensions>
          <ns3:TrackPointExtension>
            <ns3:atemp>21.0</ns3:atemp>
          </ns3:TrackPointExtension>
        </extensions>
      </trkpt>
      <trkpt lat="43.1460182368755340576171875" lon="13.14906324259936809539794921875">
        <ele>601.4000244140625</ele>
        <time>2021-05-25T09:09:54.000Z</time>
        <extensions>
          <ns3:TrackPointExtension>
            <ns3:atemp>21.0</ns3:atemp>
          </ns3:TrackPointExtension>
        </extensions>
      </trkpt>
      <trkpt lat="43.14613600261509418487548828125" lon="13.149186708033084869384765625">
        <ele>600.79998779296875</ele>
        <time>2021-05-25T09:10:00.000Z</time>
        <extensions>
          <ns3:TrackPointExtension>
            <ns3:atemp>21.0</ns3:atemp>
          </ns3:TrackPointExtension>
        </extensions>
      </trkpt>
      <trkpt lat="43.146288804709911346435546875" lon="13.1491939164698123931884765625">
        <ele>600.79998779296875</ele>
        <time>2021-05-25T09:10:06.000Z</time>
        <extensions>
          <ns3:TrackPointExtension>
            <ns3:atemp>21.0</ns3:atemp>
          </ns3:TrackPointExtension>
        </extensions>
      </trkpt>
      <trkpt lat="43.146462477743625640869140625" lon="13.14919601194560527801513671875">
        <ele>602.4000244140625</ele>
        <time>2021-05-25T09:10:13.000Z</time>
        <extensions>
          <ns3:TrackPointExtension>
            <ns3:atemp>21.0</ns3:atemp>
          </ns3:TrackPointExtension>
        </extensions>
      </trkpt>
      <trkpt lat="43.1465333886444568634033203125" lon="13.14921227283775806427001953125">
        <ele>602.5999755859375</ele>
        <time>2021-05-25T09:10:16.000Z</time>
        <extensions>
          <ns3:TrackPointExtension>
            <ns3:atemp>21.0</ns3:atemp>
          </ns3:TrackPointExtension>
        </extensions>
      </trkpt>
      <trkpt lat="43.14660170115530490875244140625" lon="13.149240016937255859375">
        <ele>604</ele>
        <time>2021-05-25T09:10:19.000Z</time>
        <extensions>
          <ns3:TrackPointExtension>
            <ns3:atemp>21.0</ns3:atemp>
          </ns3:TrackPointExtension>
        </extensions>
      </trkpt>
      <trkpt lat="43.1466245837509632110595703125" lon="13.14925007522106170654296875">
        <ele>604.4000244140625</ele>
        <time>2021-05-25T09:10:20.000Z</time>
        <extensions>
          <ns3:TrackPointExtension>
            <ns3:atemp>21.0</ns3:atemp>
          </ns3:TrackPointExtension>
        </extensions>
      </trkpt>
      <trkpt lat="43.14666607417166233062744140625" lon="13.1492613069713115692138671875">
        <ele>605.4000244140625</ele>
        <time>2021-05-25T09:10:22.000Z</time>
        <extensions>
          <ns3:TrackPointExtension>
            <ns3:atemp>21.0</ns3:atemp>
          </ns3:TrackPointExtension>
        </extensions>
      </trkpt>
      <trkpt lat="43.14678023569285869598388671875" lon="13.14926876686513423919677734375">
        <ele>606.4000244140625</ele>
        <time>2021-05-25T09:10:27.000Z</time>
        <extensions>
          <ns3:TrackPointExtension>
            <ns3:atemp>21.0</ns3:atemp>
          </ns3:TrackPointExtension>
        </extensions>
      </trkpt>
      <trkpt lat="43.14680085517466068267822265625" lon="13.1492613069713115692138671875">
        <ele>606.5999755859375</ele>
        <time>2021-05-25T09:10:28.000Z</time>
        <extensions>
          <ns3:TrackPointExtension>
            <ns3:atemp>21.0</ns3:atemp>
          </ns3:TrackPointExtension>
        </extensions>
      </trkpt>
      <trkpt lat="43.14690244384109973907470703125" lon="13.1492307968437671661376953125">
        <ele>607.4000244140625</ele>
        <time>2021-05-25T09:10:33.000Z</time>
        <extensions>
          <ns3:TrackPointExtension>
            <ns3:atemp>21.0</ns3:atemp>
          </ns3:TrackPointExtension>
        </extensions>
      </trkpt>
      <trkpt lat="43.14692524261772632598876953125" lon="13.14923037774860858917236328125">
        <ele>607.4000244140625</ele>
        <time>2021-05-25T09:10:34.000Z</time>
        <extensions>
          <ns3:TrackPointExtension>
            <ns3:atemp>21.0</ns3:atemp>
          </ns3:TrackPointExtension>
        </extensions>
      </trkpt>
      <trkpt lat="43.147031776607036590576171875" lon="13.14925141632556915283203125">
        <ele>608.79998779296875</ele>
        <time>2021-05-25T09:10:39.000Z</time>
        <extensions>
          <ns3:TrackPointExtension>
            <ns3:atemp>21.0</ns3:atemp>
          </ns3:TrackPointExtension>
        </extensions>
      </trkpt>
      <trkpt lat="43.14705532975494861602783203125" lon="13.149260468780994415283203125">
        <ele>609</ele>
        <time>2021-05-25T09:10:40.000Z</time>
        <extensions>
          <ns3:TrackPointExtension>
            <ns3:atemp>21.0</ns3:atemp>
          </ns3:TrackPointExtension>
        </extensions>
      </trkpt>
      <trkpt lat="43.14713361673057079315185546875" lon="13.14928494393825531005859375">
        <ele>610</ele>
        <time>2021-05-25T09:10:44.000Z</time>
        <extensions>
          <ns3:TrackPointExtension>
            <ns3:atemp>21.0</ns3:atemp>
          </ns3:TrackPointExtension>
        </extensions>
      </trkpt>
      <trkpt lat="43.14716664142906665802001953125" lon="13.14930103719234466552734375">
        <ele>610.4000244140625</ele>
        <time>2021-05-25T09:10:46.000Z</time>
        <extensions>
          <ns3:TrackPointExtension>
            <ns3:atemp>21.0</ns3:atemp>
          </ns3:TrackPointExtension>
        </extensions>
      </trkpt>
      <trkpt lat="43.14721927978098392486572265625" lon="13.14933498390018939971923828125">
        <ele>611</ele>
        <time>2021-05-25T09:10:49.000Z</time>
        <extensions>
          <ns3:TrackPointExtension>
            <ns3:atemp>21.0</ns3:atemp>
          </ns3:TrackPointExtension>
        </extensions>
      </trkpt>
      <trkpt lat="43.14729656092822551727294921875" lon="13.149385862052440643310546875">
        <ele>611.20001220703125</ele>
        <time>2021-05-25T09:10:52.000Z</time>
        <extensions>
          <ns3:TrackPointExtension>
            <ns3:atemp>21.0</ns3:atemp>
          </ns3:TrackPointExtension>
        </extensions>
      </trkpt>
      <trkpt lat="43.14739395864307880401611328125" lon="13.14945392310619354248046875">
        <ele>612.79998779296875</ele>
        <time>2021-05-25T09:10:56.000Z</time>
        <extensions>
          <ns3:TrackPointExtension>
            <ns3:atemp>21.0</ns3:atemp>
          </ns3:TrackPointExtension>
        </extensions>
      </trkpt>
      <trkpt lat="43.14746838994324207305908203125" lon="13.149499855935573577880859375">
        <ele>613.79998779296875</ele>
        <time>2021-05-25T09:10:59.000Z</time>
        <extensions>
          <ns3:TrackPointExtension>
            <ns3:atemp>21.0</ns3:atemp>
          </ns3:TrackPointExtension>
        </extensions>
      </trkpt>
      <trkpt lat="43.14754583872854709625244140625" lon="13.1495540030300617218017578125">
        <ele>615</ele>
        <time>2021-05-25T09:11:03.000Z</time>
        <extensions>
          <ns3:TrackPointExtension>
            <ns3:atemp>21.0</ns3:atemp>
          </ns3:TrackPointExtension>
        </extensions>
      </trkpt>
      <trkpt lat="43.14762596972286701202392578125" lon="13.14959364943206310272216796875">
        <ele>615.5999755859375</ele>
        <time>2021-05-25T09:11:07.000Z</time>
        <extensions>
          <ns3:TrackPointExtension>
            <ns3:atemp>21.0</ns3:atemp>
          </ns3:TrackPointExtension>
        </extensions>
      </trkpt>
      <trkpt lat="43.147669471800327301025390625" lon="13.1496109999716281890869140625">
        <ele>616.20001220703125</ele>
        <time>2021-05-25T09:11:09.000Z</time>
        <extensions>
          <ns3:TrackPointExtension>
            <ns3:atemp>21.0</ns3:atemp>
          </ns3:TrackPointExtension>
        </extensions>
      </trkpt>
      <trkpt lat="43.14773141406476497650146484375" lon="13.14963220618665218353271484375">
        <ele>617.20001220703125</ele>
        <time>2021-05-25T09:11:12.000Z</time>
        <extensions>
          <ns3:TrackPointExtension>
            <ns3:atemp>21.0</ns3:atemp>
          </ns3:TrackPointExtension>
        </extensions>
      </trkpt>
      <trkpt lat="43.14779578708112239837646484375" lon="13.1496455334126949310302734375">
        <ele>618.5999755859375</ele>
        <time>2021-05-25T09:11:15.000Z</time>
        <extensions>
          <ns3:TrackPointExtension>
            <ns3:atemp>21.0</ns3:atemp>
          </ns3:TrackPointExtension>
        </extensions>
      </trkpt>
      <trkpt lat="43.14785865135490894317626953125" lon="13.14965751953423023223876953125">
        <ele>619.4000244140625</ele>
        <time>2021-05-25T09:11:18.000Z</time>
        <extensions>
          <ns3:TrackPointExtension>
            <ns3:atemp>21.0</ns3:atemp>
          </ns3:TrackPointExtension>
        </extensions>
      </trkpt>
      <trkpt lat="43.14795202575623989105224609375" lon="13.14966556616127490997314453125">
        <ele>620.20001220703125</ele>
        <time>2021-05-25T09:11:23.000Z</time>
        <extensions>
          <ns3:TrackPointExtension>
            <ns3:atemp>21.0</ns3:atemp>
          </ns3:TrackPointExtension>
        </extensions>
      </trkpt>
      <trkpt lat="43.1479881517589092254638671875" lon="13.14966690726578235626220703125">
        <ele>620.4000244140625</ele>
        <time>2021-05-25T09:11:25.000Z</time>
        <extensions>
          <ns3:TrackPointExtension>
            <ns3:atemp>21.0</ns3:atemp>
          </ns3:TrackPointExtension>
        </extensions>
      </trkpt>
      <trkpt lat="43.14804590307176113128662109375" lon="13.1496705114841461181640625">
        <ele>621.4000244140625</ele>
        <time>2021-05-25T09:11:28.000Z</time>
        <extensions>
          <ns3:TrackPointExtension>
            <ns3:atemp>21.0</ns3:atemp>
          </ns3:TrackPointExtension>
        </extensions>
      </trkpt>
      <trkpt lat="43.1480676122009754180908203125" lon="13.14966849982738494873046875">
        <ele>622</ele>
        <time>2021-05-25T09:11:29.000Z</time>
        <extensions>
          <ns3:TrackPointExtension>
            <ns3:atemp>21.0</ns3:atemp>
          </ns3:TrackPointExtension>
        </extensions>
      </trkpt>
      <trkpt lat="43.1480883993208408355712890625" lon="13.1496659852564334869384765625">
        <ele>622.5999755859375</ele>
        <time>2021-05-25T09:11:30.000Z</time>
        <extensions>
          <ns3:TrackPointExtension>
            <ns3:atemp>21.0</ns3:atemp>
          </ns3:TrackPointExtension>
        </extensions>
      </trkpt>
      <trkpt lat="43.1481668539345264434814453125" lon="13.149659447371959686279296875">
        <ele>623.79998779296875</ele>
        <time>2021-05-25T09:11:34.000Z</time>
        <extensions>
          <ns3:TrackPointExtension>
            <ns3:atemp>21.0</ns3:atemp>
          </ns3:TrackPointExtension>
        </extensions>
      </trkpt>
      <trkpt lat="43.14824723638594150543212890625" lon="13.1496436893939971923828125">
        <ele>625.20001220703125</ele>
        <time>2021-05-25T09:11:38.000Z</time>
        <extensions>
          <ns3:TrackPointExtension>
            <ns3:atemp>21.0</ns3:atemp>
          </ns3:TrackPointExtension>
        </extensions>
      </trkpt>
      <trkpt lat="43.14828394912183284759521484375" lon="13.1496223993599414825439453125">
        <ele>626.20001220703125</ele>
        <time>2021-05-25T09:11:40.000Z</time>
        <extensions>
          <ns3:TrackPointExtension>
            <ns3:atemp>21.0</ns3:atemp>
          </ns3:TrackPointExtension>
        </extensions>
      </trkpt>
      <trkpt lat="43.1483576260507106781005859375" lon="13.1495271809399127960205078125">
        <ele>627.20001220703125</ele>
        <time>2021-05-25T09:11:45.000Z</time>
        <extensions>
          <ns3:TrackPointExtension>
            <ns3:atemp>22.0</ns3:atemp>
          </ns3:TrackPointExtension>
        </extensions>
      </trkpt>
      <trkpt lat="43.148370198905467987060546875" lon="13.14950312487781047821044921875">
        <ele>627.4000244140625</ele>
        <time>2021-05-25T09:11:46.000Z</time>
        <extensions>
          <ns3:TrackPointExtension>
            <ns3:atemp>22.0</ns3:atemp>
          </ns3:TrackPointExtension>
        </extensions>
      </trkpt>
      <trkpt lat="43.1484337337315082550048828125" lon="13.14935199916362762451171875">
        <ele>628.4000244140625</ele>
        <time>2021-05-25T09:11:52.000Z</time>
        <extensions>
          <ns3:TrackPointExtension>
            <ns3:atemp>22.0</ns3:atemp>
          </ns3:TrackPointExtension>
        </extensions>
      </trkpt>
      <trkpt lat="43.14844362437725067138671875" lon="13.1493290327489376068115234375">
        <ele>629.20001220703125</ele>
        <time>2021-05-25T09:11:53.000Z</time>
        <extensions>
          <ns3:TrackPointExtension>
            <ns3:atemp>22.0</ns3:atemp>
          </ns3:TrackPointExtension>
        </extensions>
      </trkpt>
      <trkpt lat="43.148468099534511566162109375" lon="13.149255104362964630126953125">
        <ele>630.4000244140625</ele>
        <time>2021-05-25T09:11:56.000Z</time>
        <extensions>
          <ns3:TrackPointExtension>
            <ns3:atemp>22.0</ns3:atemp>
          </ns3:TrackPointExtension>
        </extensions>
      </trkpt>
      <trkpt lat="43.1484877131879329681396484375" lon="13.14920447766780853271484375">
        <ele>631.4000244140625</ele>
        <time>2021-05-25T09:11:58.000Z</time>
        <extensions>
          <ns3:TrackPointExtension>
            <ns3:atemp>22.0</ns3:atemp>
          </ns3:TrackPointExtension>
        </extensions>
      </trkpt>
      <trkpt lat="43.14850372262299060821533203125" lon="13.14915217459201812744140625">
        <ele>633.20001220703125</ele>
        <time>2021-05-25T09:12:00.000Z</time>
        <extensions>
          <ns3:TrackPointExtension>
            <ns3:atemp>22.0</ns3:atemp>
          </ns3:TrackPointExtension>
        </extensions>
      </trkpt>
      <trkpt lat="43.1485302932560443878173828125" lon="13.1490390188992023468017578125">
        <ele>634.5999755859375</ele>
        <time>2021-05-25T09:12:04.000Z</time>
        <extensions>
          <ns3:TrackPointExtension>
            <ns3:atemp>22.0</ns3:atemp>
          </ns3:TrackPointExtension>
        </extensions>
      </trkpt>
      <trkpt lat="43.14854797907173633575439453125" lon="13.14895100891590118408203125">
        <ele>635.4000244140625</ele>
        <time>2021-05-25T09:12:07.000Z</time>
        <extensions>
          <ns3:TrackPointExtension>
            <ns3:atemp>22.0</ns3:atemp>
          </ns3:TrackPointExtension>
        </extensions>
      </trkpt>
      <trkpt lat="43.14856256358325481414794921875" lon="13.14889468252658843994140625">
        <ele>635.5999755859375</ele>
        <time>2021-05-25T09:12:09.000Z</time>
        <extensions>
          <ns3:TrackPointExtension>
            <ns3:atemp>22.0</ns3:atemp>
          </ns3:TrackPointExtension>
        </extensions>
      </trkpt>
      <trkpt lat="43.148607909679412841796875" lon="13.1487332470715045928955078125">
        <ele>636.5999755859375</ele>
        <time>2021-05-25T09:12:15.000Z</time>
        <extensions>
          <ns3:TrackPointExtension>
            <ns3:atemp>22.0</ns3:atemp>
          </ns3:TrackPointExtension>
        </extensions>
      </trkpt>
      <trkpt lat="43.14861905761063098907470703125" lon="13.148679770529270172119140625">
        <ele>636.79998779296875</ele>
        <time>2021-05-25T09:12:17.000Z</time>
        <extensions>
          <ns3:TrackPointExtension>
            <ns3:atemp>22.0</ns3:atemp>
          </ns3:TrackPointExtension>
        </extensions>
      </trkpt>
      <trkpt lat="43.148645795881748199462890625" lon="13.14857876859605312347412109375">
        <ele>638</ele>
        <time>2021-05-25T09:12:21.000Z</time>
        <extensions>
          <ns3:TrackPointExtension>
            <ns3:atemp>22.0</ns3:atemp>
          </ns3:TrackPointExtension>
        </extensions>
      </trkpt>
      <trkpt lat="43.1486513279378414154052734375" lon="13.14855697564780712127685546875">
        <ele>638.20001220703125</ele>
        <time>2021-05-25T09:12:22.000Z</time>
        <extensions>
          <ns3:TrackPointExtension>
            <ns3:atemp>22.0</ns3:atemp>
          </ns3:TrackPointExtension>
        </extensions>
      </trkpt>
      <trkpt lat="43.14866767264902591705322265625" lon="13.14848430454730987548828125">
        <ele>639</ele>
        <time>2021-05-25T09:12:25.000Z</time>
        <extensions>
          <ns3:TrackPointExtension>
            <ns3:atemp>22.0</ns3:atemp>
          </ns3:TrackPointExtension>
        </extensions>
      </trkpt>
      <trkpt lat="43.14867488108575344085693359375" lon="13.1484321691095829010009765625">
        <ele>640</ele>
        <time>2021-05-25T09:12:27.000Z</time>
        <extensions>
          <ns3:TrackPointExtension>
            <ns3:atemp>22.0</ns3:atemp>
          </ns3:TrackPointExtension>
        </extensions>
      </trkpt>
      <trkpt lat="43.14868904650211334228515625" lon="13.14835245721042156219482421875">
        <ele>641.20001220703125</ele>
        <time>2021-05-25T09:12:30.000Z</time>
        <extensions>
          <ns3:TrackPointExtension>
            <ns3:atemp>22.0</ns3:atemp>
          </ns3:TrackPointExtension>
        </extensions>
      </trkpt>
      <trkpt lat="43.14869382418692111968994140625" lon="13.14832613803446292877197265625">
        <ele>641.79998779296875</ele>
        <time>2021-05-25T09:12:31.000Z</time>
        <extensions>
          <ns3:TrackPointExtension>
            <ns3:atemp>22.0</ns3:atemp>
          </ns3:TrackPointExtension>
        </extensions>
      </trkpt>
      <trkpt lat="43.148705475032329559326171875" lon="13.14827400259673595428466796875">
        <ele>642.5999755859375</ele>
        <time>2021-05-25T09:12:33.000Z</time>
        <extensions>
          <ns3:TrackPointExtension>
            <ns3:atemp>22.0</ns3:atemp>
          </ns3:TrackPointExtension>
        </extensions>
      </trkpt>
      <trkpt lat="43.14872617833316326141357421875" lon="13.14819940365850925445556640625">
        <ele>643.79998779296875</ele>
        <time>2021-05-25T09:12:36.000Z</time>
        <extensions>
          <ns3:TrackPointExtension>
            <ns3:atemp>21.0</ns3:atemp>
          </ns3:TrackPointExtension>
        </extensions>
      </trkpt>
      <trkpt lat="43.148757778108119964599609375" lon="13.14809915609657764434814453125">
        <ele>644.4000244140625</ele>
        <time>2021-05-25T09:12:40.000Z</time>
        <extensions>
          <ns3:TrackPointExtension>
            <ns3:atemp>21.0</ns3:atemp>
          </ns3:TrackPointExtension>
        </extensions>
      </trkpt>
      <trkpt lat="43.14877747558057308197021484375" lon="13.14805020578205585479736328125">
        <ele>645</ele>
        <time>2021-05-25T09:12:42.000Z</time>
        <extensions>
          <ns3:TrackPointExtension>
            <ns3:atemp>21.0</ns3:atemp>
          </ns3:TrackPointExtension>
        </extensions>
      </trkpt>
      <trkpt lat="43.14880765043199062347412109375" lon="13.1479798816144466400146484375">
        <ele>646.4000244140625</ele>
        <time>2021-05-25T09:12:45.000Z</time>
        <extensions>
          <ns3:TrackPointExtension>
            <ns3:atemp>21.0</ns3:atemp>
          </ns3:TrackPointExtension>
        </extensions>
      </trkpt>
      <trkpt lat="43.14882759936153888702392578125" lon="13.147933781147003173828125">
        <ele>647.20001220703125</ele>
        <time>2021-05-25T09:12:47.000Z</time>
        <extensions>
          <ns3:TrackPointExtension>
            <ns3:atemp>21.0</ns3:atemp>
          </ns3:TrackPointExtension>
        </extensions>
      </trkpt>
      <trkpt lat="43.14884151332080364227294921875" lon="13.14788625575602054595947265625">
        <ele>647.79998779296875</ele>
        <time>2021-05-25T09:12:49.000Z</time>
        <extensions>
          <ns3:TrackPointExtension>
            <ns3:atemp>21.0</ns3:atemp>
          </ns3:TrackPointExtension>
        </extensions>
      </trkpt>
      <trkpt lat="43.14886339008808135986328125" lon="13.1478152610361576080322265625">
        <ele>649</ele>
        <time>2021-05-25T09:12:52.000Z</time>
        <extensions>
          <ns3:TrackPointExtension>
            <ns3:atemp>21.0</ns3:atemp>
          </ns3:TrackPointExtension>
        </extensions>
      </trkpt>
      <trkpt lat="43.148889876902103424072265625" lon="13.1477471999824047088623046875">
        <ele>649.79998779296875</ele>
        <time>2021-05-25T09:12:55.000Z</time>
        <extensions>
          <ns3:TrackPointExtension>
            <ns3:atemp>21.0</ns3:atemp>
          </ns3:TrackPointExtension>
        </extensions>
      </trkpt>
      <trkpt lat="43.1488994322717189788818359375" lon="13.1477240659296512603759765625">
        <ele>650.4000244140625</ele>
        <time>2021-05-25T09:12:56.000Z</time>
        <extensions>
          <ns3:TrackPointExtension>
            <ns3:atemp>21.0</ns3:atemp>
          </ns3:TrackPointExtension>
        </extensions>
      </trkpt>
      <trkpt lat="43.14891644753515720367431640625" lon="13.14767830073833465576171875">
        <ele>651.5999755859375</ele>
        <time>2021-05-25T09:12:58.000Z</time>
        <extensions>
          <ns3:TrackPointExtension>
            <ns3:atemp>21.0</ns3:atemp>
          </ns3:TrackPointExtension>
        </extensions>
      </trkpt>
      <trkpt lat="43.14896439202129840850830078125" lon="13.1475569307804107666015625">
        <ele>652.5999755859375</ele>
        <time>2021-05-25T09:13:03.000Z</time>
        <extensions>
          <ns3:TrackPointExtension>
            <ns3:atemp>21.0</ns3:atemp>
          </ns3:TrackPointExtension>
        </extensions>
      </trkpt>
      <trkpt lat="43.14897277392446994781494140625" lon="13.14753077924251556396484375">
        <ele>653</ele>
        <time>2021-05-25T09:13:04.000Z</time>
        <extensions>
          <ns3:TrackPointExtension>
            <ns3:atemp>21.0</ns3:atemp>
          </ns3:TrackPointExtension>
        </extensions>
      </trkpt>
      <trkpt lat="43.1489983387291431427001953125" lon="13.147454671561717987060546875">
        <ele>654</ele>
        <time>2021-05-25T09:13:07.000Z</time>
        <extensions>
          <ns3:TrackPointExtension>
            <ns3:atemp>21.0</ns3:atemp>
          </ns3:TrackPointExtension>
        </extensions>
      </trkpt>
      <trkpt lat="43.14901434816420078277587890625" lon="13.14737680368125438690185546875">
        <ele>655.4000244140625</ele>
        <time>2021-05-25T09:13:10.000Z</time>
        <extensions>
          <ns3:TrackPointExtension>
            <ns3:atemp>21.0</ns3:atemp>
          </ns3:TrackPointExtension>
        </extensions>
      </trkpt>
      <trkpt lat="43.14902105368673801422119140625" lon="13.147323243319988250732421875">
        <ele>656.4000244140625</ele>
        <time>2021-05-25T09:13:12.000Z</time>
        <extensions>
          <ns3:TrackPointExtension>
            <ns3:atemp>21.0</ns3:atemp>
          </ns3:TrackPointExtension>
        </extensions>
      </trkpt>
      <trkpt lat="43.14903513528406620025634765625" lon="13.14727320335805416107177734375">
        <ele>657.4000244140625</ele>
        <time>2021-05-25T09:13:14.000Z</time>
        <extensions>
          <ns3:TrackPointExtension>
            <ns3:atemp>21.0</ns3:atemp>
          </ns3:TrackPointExtension>
        </extensions>
      </trkpt>
      <trkpt lat="43.14905357547104358673095703125" lon="13.1472028791904449462890625">
        <ele>658.79998779296875</ele>
        <time>2021-05-25T09:13:17.000Z</time>
        <extensions>
          <ns3:TrackPointExtension>
            <ns3:atemp>21.0</ns3:atemp>
          </ns3:TrackPointExtension>
        </extensions>
      </trkpt>
      <trkpt lat="43.14905726350843906402587890625" lon="13.1471289508044719696044921875">
        <ele>660</ele>
        <time>2021-05-25T09:13:20.000Z</time>
        <extensions>
          <ns3:TrackPointExtension>
            <ns3:atemp>21.0</ns3:atemp>
          </ns3:TrackPointExtension>
        </extensions>
      </trkpt>
      <trkpt lat="43.14906748943030834197998046875" lon="13.14704873599112033843994140625">
        <ele>661.20001220703125</ele>
        <time>2021-05-25T09:13:23.000Z</time>
        <extensions>
          <ns3:TrackPointExtension>
            <ns3:atemp>21.0</ns3:atemp>
          </ns3:TrackPointExtension>
        </extensions>
      </trkpt>
      <trkpt lat="43.1490962393581867218017578125" lon="13.14691127277910709381103515625">
        <ele>662.5999755859375</ele>
        <time>2021-05-25T09:13:28.000Z</time>
        <extensions>
          <ns3:TrackPointExtension>
            <ns3:atemp>21.0</ns3:atemp>
          </ns3:TrackPointExtension>
        </extensions>
      </trkpt>
      <trkpt lat="43.14910487271845340728759765625" lon="13.146857880055904388427734375">
        <ele>663</ele>
        <time>2021-05-25T09:13:30.000Z</time>
        <extensions>
          <ns3:TrackPointExtension>
            <ns3:atemp>21.0</ns3:atemp>
          </ns3:TrackPointExtension>
        </extensions>
      </trkpt>
      <trkpt lat="43.14911283552646636962890625" lon="13.1468064151704311370849609375">
        <ele>663.5999755859375</ele>
        <time>2021-05-25T09:13:32.000Z</time>
        <extensions>
          <ns3:TrackPointExtension>
            <ns3:atemp>21.0</ns3:atemp>
          </ns3:TrackPointExtension>
        </extensions>
      </trkpt>
      <trkpt lat="43.14913605339825153350830078125" lon="13.14669418148696422576904296875">
        <ele>664.79998779296875</ele>
        <time>2021-05-25T09:13:36.000Z</time>
        <extensions>
          <ns3:TrackPointExtension>
            <ns3:atemp>21.0</ns3:atemp>
          </ns3:TrackPointExtension>
        </extensions>
      </trkpt>
      <trkpt lat="43.14913722686469554901123046875" lon="13.146667778491973876953125">
        <ele>664.79998779296875</ele>
        <time>2021-05-25T09:13:37.000Z</time>
        <extensions>
          <ns3:TrackPointExtension>
            <ns3:atemp>21.0</ns3:atemp>
          </ns3:TrackPointExtension>
        </extensions>
      </trkpt>
      <trkpt lat="43.14913102425634860992431640625" lon="13.146562837064266204833984375">
        <ele>666</ele>
        <time>2021-05-25T09:13:41.000Z</time>
        <extensions>
          <ns3:TrackPointExtension>
            <ns3:atemp>21.0</ns3:atemp>
          </ns3:TrackPointExtension>
        </extensions>
      </trkpt>
      <trkpt lat="43.14912381581962108612060546875" lon="13.14648547209799289703369140625">
        <ele>667</ele>
        <time>2021-05-25T09:13:44.000Z</time>
        <extensions>
          <ns3:TrackPointExtension>
            <ns3:atemp>21.0</ns3:atemp>
          </ns3:TrackPointExtension>
        </extensions>
      </trkpt>
      <trkpt lat="43.1491197086870670318603515625" lon="13.1464610807597637176513671875">
        <ele>667.4000244140625</ele>
        <time>2021-05-25T09:13:45.000Z</time>
        <extensions>
          <ns3:TrackPointExtension>
            <ns3:atemp>21.0</ns3:atemp>
          </ns3:TrackPointExtension>
        </extensions>
      </trkpt>
      <trkpt lat="43.14911291934549808502197265625" lon="13.1463433988392353057861328125">
        <ele>668.20001220703125</ele>
        <time>2021-05-25T09:13:49.000Z</time>
        <extensions>
          <ns3:TrackPointExtension>
            <ns3:atemp>21.0</ns3:atemp>
          </ns3:TrackPointExtension>
        </extensions>
      </trkpt>
      <trkpt lat="43.1491193734109401702880859375" lon="13.146279193460941314697265625">
        <ele>668.4000244140625</ele>
        <time>2021-05-25T09:13:51.000Z</time>
        <extensions>
          <ns3:TrackPointExtension>
            <ns3:atemp>21.0</ns3:atemp>
          </ns3:TrackPointExtension>
        </extensions>
      </trkpt>
      <trkpt lat="43.1491207145154476165771484375" lon="13.1460704840719699859619140625">
        <ele>669</ele>
        <time>2021-05-25T09:13:57.000Z</time>
        <extensions>
          <ns3:TrackPointExtension>
            <ns3:atemp>21.0</ns3:atemp>
          </ns3:TrackPointExtension>
        </extensions>
      </trkpt>
      <trkpt lat="43.1491233967244625091552734375" lon="13.145956657826900482177734375">
        <ele>669.4000244140625</ele>
        <time>2021-05-25T09:14:00.000Z</time>
        <extensions>
          <ns3:TrackPointExtension>
            <ns3:atemp>21.0</ns3:atemp>
          </ns3:TrackPointExtension>
        </extensions>
      </trkpt>
      <trkpt lat="43.1491183675825595855712890625" lon="13.14566840417683124542236328125">
        <ele>670</ele>
        <time>2021-05-25T09:14:08.000Z</time>
        <extensions>
          <ns3:TrackPointExtension>
            <ns3:atemp>21.0</ns3:atemp>
          </ns3:TrackPointExtension>
        </extensions>
      </trkpt>
      <trkpt lat="43.14911928959190845489501953125" lon="13.14562414772808551788330078125">
        <ele>670</ele>
        <time>2021-05-25T09:14:09.000Z</time>
        <extensions>
          <ns3:TrackPointExtension>
            <ns3:atemp>21.0</ns3:atemp>
          </ns3:TrackPointExtension>
        </extensions>
      </trkpt>
      <trkpt lat="43.1491173617541790008544921875" lon="13.1453482992947101593017578125">
        <ele>670.20001220703125</ele>
        <time>2021-05-25T09:14:16.000Z</time>
        <extensions>
          <ns3:TrackPointExtension>
            <ns3:atemp>21.0</ns3:atemp>
          </ns3:TrackPointExtension>
        </extensions>
      </trkpt>
      <trkpt lat="43.14911074005067348480224609375" lon="13.14515057019889354705810546875">
        <ele>670.20001220703125</ele>
        <time>2021-05-25T09:14:22.000Z</time>
        <extensions>
          <ns3:TrackPointExtension>
            <ns3:atemp>21.0</ns3:atemp>
          </ns3:TrackPointExtension>
        </extensions>
      </trkpt>
      <trkpt lat="43.14911040477454662322998046875" lon="13.145136572420597076416015625">
        <ele>670.20001220703125</ele>
        <time>2021-05-25T09:14:27.000Z</time>
        <extensions>
          <ns3:TrackPointExtension>
            <ns3:atemp>21.0</ns3:atemp>
          </ns3:TrackPointExtension>
        </extensions>
      </trkpt>
      <trkpt lat="43.1491106562316417694091796875" lon="13.145135901868343353271484375">
        <ele>671</ele>
        <time>2021-05-25T09:14:37.000Z</time>
        <extensions>
          <ns3:TrackPointExtension>
            <ns3:atemp>21.0</ns3:atemp>
          </ns3:TrackPointExtension>
        </extensions>
      </trkpt>
      <trkpt lat="43.14911107532680034637451171875" lon="13.145135901868343353271484375">
        <ele>671.20001220703125</ele>
        <time>2021-05-25T09:14:51.000Z</time>
        <extensions>
          <ns3:TrackPointExtension>
            <ns3:atemp>21.0</ns3:atemp>
          </ns3:TrackPointExtension>
        </extensions>
      </trkpt>
      <trkpt lat="43.14911258406937122344970703125" lon="13.14511754550039768218994140625">
        <ele>671.20001220703125</ele>
        <time>2021-05-25T09:15:00.000Z</time>
        <extensions>
          <ns3:TrackPointExtension>
            <ns3:atemp>21.0</ns3:atemp>
          </ns3:TrackPointExtension>
        </extensions>
      </trkpt>
      <trkpt lat="43.149113841354846954345703125" lon="13.14507094211876392364501953125">
        <ele>671.20001220703125</ele>
        <time>2021-05-25T09:15:02.000Z</time>
        <extensions>
          <ns3:TrackPointExtension>
            <ns3:atemp>21.0</ns3:atemp>
          </ns3:TrackPointExtension>
        </extensions>
      </trkpt>
      <trkpt lat="43.149127252399921417236328125" lon="13.1448202393949031829833984375">
        <ele>671</ele>
        <time>2021-05-25T09:15:09.000Z</time>
        <extensions>
          <ns3:TrackPointExtension>
            <ns3:atemp>21.0</ns3:atemp>
          </ns3:TrackPointExtension>
        </extensions>
      </trkpt>
      <trkpt lat="43.14917989075183868408203125" lon="13.144469372928142547607421875">
        <ele>671</ele>
        <time>2021-05-25T09:15:17.000Z</time>
        <extensions>
          <ns3:TrackPointExtension>
            <ns3:atemp>21.0</ns3:atemp>
          </ns3:TrackPointExtension>
        </extensions>
      </trkpt>
      <trkpt lat="43.149238564074039459228515625" lon="13.1441480107605457305908203125">
        <ele>671</ele>
        <time>2021-05-25T09:15:24.000Z</time>
        <extensions>
          <ns3:TrackPointExtension>
            <ns3:atemp>21.0</ns3:atemp>
          </ns3:TrackPointExtension>
        </extensions>
      </trkpt>
      <trkpt lat="43.14932473003864288330078125" lon="13.1437828950583934783935546875">
        <ele>671.5999755859375</ele>
        <time>2021-05-25T09:15:31.000Z</time>
        <extensions>
          <ns3:TrackPointExtension>
            <ns3:atemp>22.0</ns3:atemp>
          </ns3:TrackPointExtension>
        </extensions>
      </trkpt>
      <trkpt lat="43.14938751049339771270751953125" lon="13.143498413264751434326171875">
        <ele>672.20001220703125</ele>
        <time>2021-05-25T09:15:37.000Z</time>
        <extensions>
          <ns3:TrackPointExtension>
            <ns3:atemp>22.0</ns3:atemp>
          </ns3:TrackPointExtension>
        </extensions>
      </trkpt>
      <trkpt lat="43.14940544776618480682373046875" lon="13.1433993391692638397216796875">
        <ele>672.5999755859375</ele>
        <time>2021-05-25T09:15:39.000Z</time>
        <extensions>
          <ns3:TrackPointExtension>
            <ns3:atemp>22.0</ns3:atemp>
          </ns3:TrackPointExtension>
        </extensions>
      </trkpt>
      <trkpt lat="43.1494487822055816650390625" lon="13.14321083016693592071533203125">
        <ele>673.4000244140625</ele>
        <time>2021-05-25T09:15:43.000Z</time>
        <extensions>
          <ns3:TrackPointExtension>
            <ns3:atemp>22.0</ns3:atemp>
          </ns3:TrackPointExtension>
        </extensions>
      </trkpt>
      <trkpt lat="43.14949161373078823089599609375" lon="13.1430281884968280792236328125">
        <ele>674</ele>
        <time>2021-05-25T09:15:47.000Z</time>
        <extensions>
          <ns3:TrackPointExtension>
            <ns3:atemp>22.0</ns3:atemp>
          </ns3:TrackPointExtension>
        </extensions>
      </trkpt>
      <trkpt lat="43.1495641171932220458984375" lon="13.1427073292434215545654296875">
        <ele>674</ele>
        <time>2021-05-25T09:15:54.000Z</time>
        <extensions>
          <ns3:TrackPointExtension>
            <ns3:atemp>22.0</ns3:atemp>
          </ns3:TrackPointExtension>
        </extensions>
      </trkpt>
      <trkpt lat="43.1496373750269412994384765625" lon="13.142320923507213592529296875">
        <ele>672.79998779296875</ele>
        <time>2021-05-25T09:16:02.000Z</time>
        <extensions>
          <ns3:TrackPointExtension>
            <ns3:atemp>22.0</ns3:atemp>
          </ns3:TrackPointExtension>
        </extensions>
      </trkpt>
      <trkpt lat="43.1496953777968883514404296875" lon="13.14197215251624584197998046875">
        <ele>674.4000244140625</ele>
        <time>2021-05-25T09:16:10.000Z</time>
        <extensions>
          <ns3:TrackPointExtension>
            <ns3:atemp>22.0</ns3:atemp>
          </ns3:TrackPointExtension>
        </extensions>
      </trkpt>
      <trkpt lat="43.14972345717251300811767578125" lon="13.14179412089288234710693359375">
        <ele>675.4000244140625</ele>
        <time>2021-05-25T09:16:14.000Z</time>
        <extensions>
          <ns3:TrackPointExtension>
            <ns3:atemp>22.0</ns3:atemp>
          </ns3:TrackPointExtension>
        </extensions>
      </trkpt>
      <trkpt lat="43.1497597508132457733154296875" lon="13.14164911396801471710205078125">
        <ele>675.5999755859375</ele>
        <time>2021-05-25T09:16:18.000Z</time>
        <extensions>
          <ns3:TrackPointExtension>
            <ns3:atemp>22.0</ns3:atemp>
          </ns3:TrackPointExtension>
        </extensions>
      </trkpt>
      <trkpt lat="43.14978766255080699920654296875" lon="13.14142866991460323333740234375">
        <ele>676.20001220703125</ele>
        <time>2021-05-25T09:16:24.000Z</time>
        <extensions>
          <ns3:TrackPointExtension>
            <ns3:atemp>22.0</ns3:atemp>
          </ns3:TrackPointExtension>
        </extensions>
      </trkpt>
      <trkpt lat="43.14979889430105686187744140625" lon="13.14135373570024967193603515625">
        <ele>676.4000244140625</ele>
        <time>2021-05-25T09:16:26.000Z</time>
        <extensions>
          <ns3:TrackPointExtension>
            <ns3:atemp>22.0</ns3:atemp>
          </ns3:TrackPointExtension>
        </extensions>
      </trkpt>
      <trkpt lat="43.149832002818584442138671875" lon="13.14117805100977420806884765625">
        <ele>676.79998779296875</ele>
        <time>2021-05-25T09:16:30.000Z</time>
        <extensions>
          <ns3:TrackPointExtension>
            <ns3:atemp>22.0</ns3:atemp>
          </ns3:TrackPointExtension>
        </extensions>
      </trkpt>
      <trkpt lat="43.14990006387233734130859375" lon="13.14078963361680507659912109375">
        <ele>677.20001220703125</ele>
        <time>2021-05-25T09:16:38.000Z</time>
        <extensions>
          <ns3:TrackPointExtension>
            <ns3:atemp>21.0</ns3:atemp>
          </ns3:TrackPointExtension>
        </extensions>
      </trkpt>
      <trkpt lat="43.14993082545697689056396484375" lon="13.1406494043767452239990234375">
        <ele>677.5999755859375</ele>
        <time>2021-05-25T09:16:41.000Z</time>
        <extensions>
          <ns3:TrackPointExtension>
            <ns3:atemp>21.0</ns3:atemp>
          </ns3:TrackPointExtension>
        </extensions>
      </trkpt>
      <trkpt lat="43.1499786861240863800048828125" lon="13.14040708355605602264404296875">
        <ele>679.20001220703125</ele>
        <time>2021-05-25T09:16:46.000Z</time>
        <extensions>
          <ns3:TrackPointExtension>
            <ns3:atemp>21.0</ns3:atemp>
          </ns3:TrackPointExtension>
        </extensions>
      </trkpt>
      <trkpt lat="43.1500289775431156158447265625" lon="13.1402236036956310272216796875">
        <ele>680.20001220703125</ele>
        <time>2021-05-25T09:16:50.000Z</time>
        <extensions>
          <ns3:TrackPointExtension>
            <ns3:atemp>21.0</ns3:atemp>
          </ns3:TrackPointExtension>
        </extensions>
      </trkpt>
      <trkpt lat="43.15005294978618621826171875" lon="13.1401312351226806640625">
        <ele>680.5999755859375</ele>
        <time>2021-05-25T09:16:52.000Z</time>
        <extensions>
          <ns3:TrackPointExtension>
            <ns3:atemp>21.0</ns3:atemp>
          </ns3:TrackPointExtension>
        </extensions>
      </trkpt>
      <trkpt lat="43.15010433085262775421142578125" lon="13.13995127566158771514892578125">
        <ele>681.20001220703125</ele>
        <time>2021-05-25T09:16:55.000Z</time>
        <extensions>
          <ns3:TrackPointExtension>
            <ns3:atemp>21.0</ns3:atemp>
          </ns3:TrackPointExtension>
        </extensions>
      </trkpt>
      <trkpt lat="43.15014012157917022705078125" lon="13.1398242898285388946533203125">
        <ele>681.20001220703125</ele>
        <time>2021-05-25T09:16:57.000Z</time>
        <extensions>
          <ns3:TrackPointExtension>
            <ns3:atemp>21.0</ns3:atemp>
          </ns3:TrackPointExtension>
        </extensions>
      </trkpt>
      <trkpt lat="43.15024179406464099884033203125" lon="13.13949664123356342315673828125">
        <ele>680.79998779296875</ele>
        <time>2021-05-25T09:17:03.000Z</time>
        <extensions>
          <ns3:TrackPointExtension>
            <ns3:atemp>21.0</ns3:atemp>
          </ns3:TrackPointExtension>
        </extensions>
      </trkpt>
      <trkpt lat="43.15035092644393444061279296875" lon="13.13917812891304492950439453125">
        <ele>680.4000244140625</ele>
        <time>2021-05-25T09:17:10.000Z</time>
        <extensions>
          <ns3:TrackPointExtension>
            <ns3:atemp>21.0</ns3:atemp>
          </ns3:TrackPointExtension>
        </extensions>
      </trkpt>
      <trkpt lat="43.15048738382756710052490234375" lon="13.13884234987199306488037109375">
        <ele>680.4000244140625</ele>
        <time>2021-05-25T09:17:17.000Z</time>
        <extensions>
          <ns3:TrackPointExtension>
            <ns3:atemp>21.0</ns3:atemp>
          </ns3:TrackPointExtension>
        </extensions>
      </trkpt>
      <trkpt lat="43.1506478972733020782470703125" lon="13.138520233333110809326171875">
        <ele>681.4000244140625</ele>
        <time>2021-05-25T09:17:25.000Z</time>
        <extensions>
          <ns3:TrackPointExtension>
            <ns3:atemp>21.0</ns3:atemp>
          </ns3:TrackPointExtension>
        </extensions>
      </trkpt>
      <trkpt lat="43.15073800273239612579345703125" lon="13.13835435546934604644775390625">
        <ele>682.20001220703125</ele>
        <time>2021-05-25T09:17:30.000Z</time>
        <extensions>
          <ns3:TrackPointExtension>
            <ns3:atemp>21.0</ns3:atemp>
          </ns3:TrackPointExtension>
        </extensions>
      </trkpt>
      <trkpt lat="43.1508021242916584014892578125" lon="13.13824086450040340423583984375">
        <ele>682.79998779296875</ele>
        <time>2021-05-25T09:17:33.000Z</time>
        <extensions>
          <ns3:TrackPointExtension>
            <ns3:atemp>21.0</ns3:atemp>
          </ns3:TrackPointExtension>
        </extensions>
      </trkpt>
      <trkpt lat="43.1508462131023406982421875" lon="13.13816852867603302001953125">
        <ele>683.20001220703125</ele>
        <time>2021-05-25T09:17:35.000Z</time>
        <extensions>
          <ns3:TrackPointExtension>
            <ns3:atemp>21.0</ns3:atemp>
          </ns3:TrackPointExtension>
        </extensions>
      </trkpt>
      <trkpt lat="43.15099432133138179779052734375" lon="13.13793023116886615753173828125">
        <ele>683.5999755859375</ele>
        <time>2021-05-25T09:17:42.000Z</time>
        <extensions>
          <ns3:TrackPointExtension>
            <ns3:atemp>21.0</ns3:atemp>
          </ns3:TrackPointExtension>
        </extensions>
      </trkpt>
      <trkpt lat="43.15113228745758533477783203125" lon="13.137757815420627593994140625">
        <ele>684</ele>
        <time>2021-05-25T09:17:48.000Z</time>
        <extensions>
          <ns3:TrackPointExtension>
            <ns3:atemp>21.0</ns3:atemp>
          </ns3:TrackPointExtension>
        </extensions>
      </trkpt>
      <trkpt lat="43.15129925496876239776611328125" lon="13.1375978887081146240234375">
        <ele>685.4000244140625</ele>
        <time>2021-05-25T09:17:54.000Z</time>
        <extensions>
          <ns3:TrackPointExtension>
            <ns3:atemp>21.0</ns3:atemp>
          </ns3:TrackPointExtension>
        </extensions>
      </trkpt>
      <trkpt lat="43.1513285078108310699462890625" lon="13.1375725753605365753173828125">
        <ele>685.5999755859375</ele>
        <time>2021-05-25T09:17:55.000Z</time>
        <extensions>
          <ns3:TrackPointExtension>
            <ns3:atemp>21.0</ns3:atemp>
          </ns3:TrackPointExtension>
        </extensions>
      </trkpt>
      <trkpt lat="43.15140545368194580078125" lon="13.137501664459705352783203125">
        <ele>686.5999755859375</ele>
        <time>2021-05-25T09:17:58.000Z</time>
        <extensions>
          <ns3:TrackPointExtension>
            <ns3:atemp>21.0</ns3:atemp>
          </ns3:TrackPointExtension>
        </extensions>
      </trkpt>
      <trkpt lat="43.1515172682702541351318359375" lon="13.1374035961925983428955078125">
        <ele>687</ele>
        <time>2021-05-25T09:18:02.000Z</time>
        <extensions>
          <ns3:TrackPointExtension>
            <ns3:atemp>21.0</ns3:atemp>
          </ns3:TrackPointExtension>
        </extensions>
      </trkpt>
      <trkpt lat="43.15160821191966533660888671875" lon="13.13732841052114963531494140625">
        <ele>687.79998779296875</ele>
        <time>2021-05-25T09:18:05.000Z</time>
        <extensions>
          <ns3:TrackPointExtension>
            <ns3:atemp>21.0</ns3:atemp>
          </ns3:TrackPointExtension>
        </extensions>
      </trkpt>
      <trkpt lat="43.1516902707517147064208984375" lon="13.137246854603290557861328125">
        <ele>688</ele>
        <time>2021-05-25T09:18:08.000Z</time>
        <extensions>
          <ns3:TrackPointExtension>
            <ns3:atemp>21.0</ns3:atemp>
          </ns3:TrackPointExtension>
        </extensions>
      </trkpt>
      <trkpt lat="43.151941560208797454833984375" lon="13.13697553239762783050537109375">
        <ele>688.5999755859375</ele>
        <time>2021-05-25T09:18:17.000Z</time>
        <extensions>
          <ns3:TrackPointExtension>
            <ns3:atemp>21.0</ns3:atemp>
          </ns3:TrackPointExtension>
        </extensions>
      </trkpt>
      <trkpt lat="43.15197064541280269622802734375" lon="13.13694938085973262786865234375">
        <ele>688.79998779296875</ele>
        <time>2021-05-25T09:18:18.000Z</time>
        <extensions>
          <ns3:TrackPointExtension>
            <ns3:atemp>21.0</ns3:atemp>
          </ns3:TrackPointExtension>
        </extensions>
      </trkpt>
      <trkpt lat="43.15209687687456607818603515625" lon="13.1368307769298553466796875">
        <ele>689.79998779296875</ele>
        <time>2021-05-25T09:18:23.000Z</time>
        <extensions>
          <ns3:TrackPointExtension>
            <ns3:atemp>21.0</ns3:atemp>
          </ns3:TrackPointExtension>
        </extensions>
      </trkpt>
      <trkpt lat="43.15219259820878505706787109375" lon="13.13674603588879108428955078125">
        <ele>691</ele>
        <time>2021-05-25T09:18:27.000Z</time>
        <extensions>
          <ns3:TrackPointExtension>
            <ns3:atemp>21.0</ns3:atemp>
          </ns3:TrackPointExtension>
        </extensions>
      </trkpt>
      <trkpt lat="43.15225009806454181671142578125" lon="13.13670110888779163360595703125">
        <ele>691.5999755859375</ele>
        <time>2021-05-25T09:18:29.000Z</time>
        <extensions>
          <ns3:TrackPointExtension>
            <ns3:atemp>21.0</ns3:atemp>
          </ns3:TrackPointExtension>
        </extensions>
      </trkpt>
      <trkpt lat="43.15236509777605533599853515625" lon="13.136627934873104095458984375">
        <ele>692.4000244140625</ele>
        <time>2021-05-25T09:18:33.000Z</time>
        <extensions>
          <ns3:TrackPointExtension>
            <ns3:atemp>21.0</ns3:atemp>
          </ns3:TrackPointExtension>
        </extensions>
      </trkpt>
      <trkpt lat="43.1524322368204593658447265625" lon="13.13660304062068462371826171875">
        <ele>693.20001220703125</ele>
        <time>2021-05-25T09:18:35.000Z</time>
        <extensions>
          <ns3:TrackPointExtension>
            <ns3:atemp>21.0</ns3:atemp>
          </ns3:TrackPointExtension>
        </extensions>
      </trkpt>
      <trkpt lat="43.1524635851383209228515625" lon="13.13659197650849819183349609375">
        <ele>693.4000244140625</ele>
        <time>2021-05-25T09:18:36.000Z</time>
        <extensions>
          <ns3:TrackPointExtension>
            <ns3:atemp>21.0</ns3:atemp>
          </ns3:TrackPointExtension>
        </extensions>
      </trkpt>
      <trkpt lat="43.1525214202702045440673828125" lon="13.13650346361100673675537109375">
        <ele>694.4000244140625</ele>
        <time>2021-05-25T09:18:39.000Z</time>
        <extensions>
          <ns3:TrackPointExtension>
            <ns3:atemp>21.0</ns3:atemp>
          </ns3:TrackPointExtension>
        </extensions>
      </trkpt>
      <trkpt lat="43.1525351665914058685302734375" lon="13.1364552676677703857421875">
        <ele>694.79998779296875</ele>
        <time>2021-05-25T09:18:40.000Z</time>
        <extensions>
          <ns3:TrackPointExtension>
            <ns3:atemp>21.0</ns3:atemp>
          </ns3:TrackPointExtension>
        </extensions>
      </trkpt>
      <trkpt lat="43.15259241499006748199462890625" lon="13.13630229793488979339599609375">
        <ele>695.79998779296875</ele>
        <time>2021-05-25T09:18:44.000Z</time>
        <extensions>
          <ns3:TrackPointExtension>
            <ns3:atemp>20.0</ns3:atemp>
          </ns3:TrackPointExtension>
        </extensions>
      </trkpt>
      <trkpt lat="43.15263750962913036346435546875" lon="13.13623473979532718658447265625">
        <ele>695.79998779296875</ele>
        <time>2021-05-25T09:18:46.000Z</time>
        <extensions>
          <ns3:TrackPointExtension>
            <ns3:atemp>20.0</ns3:atemp>
          </ns3:TrackPointExtension>
        </extensions>
      </trkpt>
      <trkpt lat="43.1527237594127655029296875" lon="13.13609576784074306488037109375">
        <ele>696.4000244140625</ele>
        <time>2021-05-25T09:18:50.000Z</time>
        <extensions>
          <ns3:TrackPointExtension>
            <ns3:atemp>20.0</ns3:atemp>
          </ns3:TrackPointExtension>
        </extensions>
      </trkpt>
      <trkpt lat="43.152745552361011505126953125" lon="13.136063329875469207763671875">
        <ele>697</ele>
        <time>2021-05-25T09:18:51.000Z</time>
        <extensions>
          <ns3:TrackPointExtension>
            <ns3:atemp>20.0</ns3:atemp>
          </ns3:TrackPointExtension>
        </extensions>
      </trkpt>
      <trkpt lat="43.152810595929622650146484375" lon="13.135965764522552490234375">
        <ele>698.4000244140625</ele>
        <time>2021-05-25T09:18:54.000Z</time>
        <extensions>
          <ns3:TrackPointExtension>
            <ns3:atemp>20.0</ns3:atemp>
          </ns3:TrackPointExtension>
        </extensions>
      </trkpt>
      <trkpt lat="43.15288092009723186492919921875" lon="13.13584766350686550140380859375">
        <ele>699.20001220703125</ele>
        <time>2021-05-25T09:18:58.000Z</time>
        <extensions>
          <ns3:TrackPointExtension>
            <ns3:atemp>20.0</ns3:atemp>
          </ns3:TrackPointExtension>
        </extensions>
      </trkpt>
      <trkpt lat="43.1528982706367969512939453125" lon="13.135819919407367706298828125">
        <ele>699.4000244140625</ele>
        <time>2021-05-25T09:18:59.000Z</time>
        <extensions>
          <ns3:TrackPointExtension>
            <ns3:atemp>20.0</ns3:atemp>
          </ns3:TrackPointExtension>
        </extensions>
      </trkpt>
      <trkpt lat="43.15298569388687610626220703125" lon="13.1356693804264068603515625">
        <ele>700.5999755859375</ele>
        <time>2021-05-25T09:19:04.000Z</time>
        <extensions>
          <ns3:TrackPointExtension>
            <ns3:atemp>20.0</ns3:atemp>
          </ns3:TrackPointExtension>
        </extensions>
      </trkpt>
      <trkpt lat="43.15303095616400241851806640625" lon="13.13558832742273807525634765625">
        <ele>701.5999755859375</ele>
        <time>2021-05-25T09:19:07.000Z</time>
        <extensions>
          <ns3:TrackPointExtension>
            <ns3:atemp>20.0</ns3:atemp>
          </ns3:TrackPointExtension>
        </extensions>
      </trkpt>
      <trkpt lat="43.15311200916767120361328125" lon="13.1354378722608089447021484375">
        <ele>702.79998779296875</ele>
        <time>2021-05-25T09:19:12.000Z</time>
        <extensions>
          <ns3:TrackPointExtension>
            <ns3:atemp>20.0</ns3:atemp>
          </ns3:TrackPointExtension>
        </extensions>
      </trkpt>
      <trkpt lat="43.15312298946082592010498046875" lon="13.13540878705680370330810546875">
        <ele>703</ele>
        <time>2021-05-25T09:19:13.000Z</time>
        <extensions>
          <ns3:TrackPointExtension>
            <ns3:atemp>20.0</ns3:atemp>
          </ns3:TrackPointExtension>
        </extensions>
      </trkpt>
      <trkpt lat="43.15319658257067203521728515625" lon="13.13520141877233982086181640625">
        <ele>703.4000244140625</ele>
        <time>2021-05-25T09:19:18.000Z</time>
        <extensions>
          <ns3:TrackPointExtension>
            <ns3:atemp>20.0</ns3:atemp>
          </ns3:TrackPointExtension>
        </extensions>
      </trkpt>
      <trkpt lat="43.153322897851467132568359375" lon="13.13484099693596363067626953125">
        <ele>703.4000244140625</ele>
        <time>2021-05-25T09:19:24.000Z</time>
        <extensions>
          <ns3:TrackPointExtension>
            <ns3:atemp>20.0</ns3:atemp>
          </ns3:TrackPointExtension>
        </extensions>
      </trkpt>
      <trkpt lat="43.1534628756344318389892578125" lon="13.13441569916903972625732421875">
        <ele>701.5999755859375</ele>
        <time>2021-05-25T09:19:31.000Z</time>
        <extensions>
          <ns3:TrackPointExtension>
            <ns3:atemp>20.0</ns3:atemp>
          </ns3:TrackPointExtension>
        </extensions>
      </trkpt>
      <trkpt lat="43.1535138376057147979736328125" lon="13.1342818401753902435302734375">
        <ele>701.20001220703125</ele>
        <time>2021-05-25T09:19:33.000Z</time>
        <extensions>
          <ns3:TrackPointExtension>
            <ns3:atemp>20.0</ns3:atemp>
          </ns3:TrackPointExtension>
        </extensions>
      </trkpt>
      <trkpt lat="43.15357041545212268829345703125" lon="13.13416608609259128570556640625">
        <ele>700</ele>
        <time>2021-05-25T09:19:35.000Z</time>
        <extensions>
          <ns3:TrackPointExtension>
            <ns3:atemp>20.0</ns3:atemp>
          </ns3:TrackPointExtension>
        </extensions>
      </trkpt>
      <trkpt lat="43.1536295078694820404052734375" lon="13.1340565346181392669677734375">
        <ele>699.4000244140625</ele>
        <time>2021-05-25T09:19:37.000Z</time>
        <extensions>
          <ns3:TrackPointExtension>
            <ns3:atemp>20.0</ns3:atemp>
          </ns3:TrackPointExtension>
        </extensions>
      </trkpt>
      <trkpt lat="43.15372363664209842681884765625" lon="13.13388261012732982635498046875">
        <ele>699</ele>
        <time>2021-05-25T09:19:40.000Z</time>
        <extensions>
          <ns3:TrackPointExtension>
            <ns3:atemp>20.0</ns3:atemp>
          </ns3:TrackPointExtension>
        </extensions>
      </trkpt>
      <trkpt lat="43.15377677790820598602294921875" lon="13.133744560182094573974609375">
        <ele>698.20001220703125</ele>
        <time>2021-05-25T09:19:42.000Z</time>
        <extensions>
          <ns3:TrackPointExtension>
            <ns3:atemp>20.0</ns3:atemp>
          </ns3:TrackPointExtension>
        </extensions>
      </trkpt>
      <trkpt lat="43.15380259416997432708740234375" lon="13.1336659379303455352783203125">
        <ele>697.79998779296875</ele>
        <time>2021-05-25T09:19:43.000Z</time>
        <extensions>
          <ns3:TrackPointExtension>
            <ns3:atemp>20.0</ns3:atemp>
          </ns3:TrackPointExtension>
        </extensions>
      </trkpt>
      <trkpt lat="43.15392547287046909332275390625" lon="13.13332043588161468505859375">
        <ele>696.79998779296875</ele>
        <time>2021-05-25T09:19:47.000Z</time>
        <extensions>
          <ns3:TrackPointExtension>
            <ns3:atemp>20.0</ns3:atemp>
          </ns3:TrackPointExtension>
        </extensions>
      </trkpt>
      <trkpt lat="43.15395665355026721954345703125" lon="13.13324265182018280029296875">
        <ele>696.5999755859375</ele>
        <time>2021-05-25T09:19:48.000Z</time>
        <extensions>
          <ns3:TrackPointExtension>
            <ns3:atemp>20.0</ns3:atemp>
          </ns3:TrackPointExtension>
        </extensions>
      </trkpt>
      <trkpt lat="43.15401683561503887176513671875" lon="13.13309370540082454681396484375">
        <ele>695.4000244140625</ele>
        <time>2021-05-25T09:19:50.000Z</time>
        <extensions>
          <ns3:TrackPointExtension>
            <ns3:atemp>20.0</ns3:atemp>
          </ns3:TrackPointExtension>
        </extensions>
      </trkpt>
      <trkpt lat="43.15404902212321758270263671875" lon="13.1330305896699428558349609375">
        <ele>694.5999755859375</ele>
        <time>2021-05-25T09:19:51.000Z</time>
        <extensions>
          <ns3:TrackPointExtension>
            <ns3:atemp>20.0</ns3:atemp>
          </ns3:TrackPointExtension>
        </extensions>
      </trkpt>
      <trkpt lat="43.154079280793666839599609375" lon="13.13297820277512073516845703125">
        <ele>694</ele>
        <time>2021-05-25T09:19:52.000Z</time>
        <extensions>
          <ns3:TrackPointExtension>
            <ns3:atemp>20.0</ns3:atemp>
          </ns3:TrackPointExtension>
        </extensions>
      </trkpt>
      <trkpt lat="43.154106438159942626953125" lon="13.1329360418021678924560546875">
        <ele>693.5999755859375</ele>
        <time>2021-05-25T09:19:53.000Z</time>
        <extensions>
          <ns3:TrackPointExtension>
            <ns3:atemp>20.0</ns3:atemp>
          </ns3:TrackPointExtension>
        </extensions>
      </trkpt>
      <trkpt lat="43.15421280451118946075439453125" lon="13.132815174758434295654296875">
        <ele>693.4000244140625</ele>
        <time>2021-05-25T09:19:58.000Z</time>
        <extensions>
          <ns3:TrackPointExtension>
            <ns3:atemp>20.0</ns3:atemp>
          </ns3:TrackPointExtension>
        </extensions>
      </trkpt>
      <trkpt lat="43.154321350157260894775390625" lon="13.132748119533061981201171875">
        <ele>695.5999755859375</ele>
        <time>2021-05-25T09:20:03.000Z</time>
        <extensions>
          <ns3:TrackPointExtension>
            <ns3:atemp>20.0</ns3:atemp>
          </ns3:TrackPointExtension>
        </extensions>
      </trkpt>
      <trkpt lat="43.15436418168246746063232421875" lon="13.132734708487987518310546875">
        <ele>696.5999755859375</ele>
        <time>2021-05-25T09:20:05.000Z</time>
        <extensions>
          <ns3:TrackPointExtension>
            <ns3:atemp>20.0</ns3:atemp>
          </ns3:TrackPointExtension>
        </extensions>
      </trkpt>
      <trkpt lat="43.1544368527829647064208984375" lon="13.1327269971370697021484375">
        <ele>697.79998779296875</ele>
        <time>2021-05-25T09:20:08.000Z</time>
        <extensions>
          <ns3:TrackPointExtension>
            <ns3:atemp>20.0</ns3:atemp>
          </ns3:TrackPointExtension>
        </extensions>
      </trkpt>
      <trkpt lat="43.15448756329715251922607421875" lon="13.1327231414616107940673828125">
        <ele>698.79998779296875</ele>
        <time>2021-05-25T09:20:10.000Z</time>
        <extensions>
          <ns3:TrackPointExtension>
            <ns3:atemp>20.0</ns3:atemp>
          </ns3:TrackPointExtension>
        </extensions>
      </trkpt>
      <trkpt lat="43.1545159779489040374755859375" lon="13.1327228061854839324951171875">
        <ele>699.4000244140625</ele>
        <time>2021-05-25T09:20:11.000Z</time>
        <extensions>
          <ns3:TrackPointExtension>
            <ns3:atemp>20.0</ns3:atemp>
          </ns3:TrackPointExtension>
        </extensions>
      </trkpt>
      <trkpt lat="43.1545458175241947174072265625" lon="13.13272138126194477081298828125">
        <ele>699.79998779296875</ele>
        <time>2021-05-25T09:20:12.000Z</time>
        <extensions>
          <ns3:TrackPointExtension>
            <ns3:atemp>20.0</ns3:atemp>
          </ns3:TrackPointExtension>
        </extensions>
      </trkpt>
      <trkpt lat="43.15460373647511005401611328125" lon="13.1327228061854839324951171875">
        <ele>701</ele>
        <time>2021-05-25T09:20:14.000Z</time>
        <extensions>
          <ns3:TrackPointExtension>
            <ns3:atemp>20.0</ns3:atemp>
          </ns3:TrackPointExtension>
        </extensions>
      </trkpt>
      <trkpt lat="43.1546893157064914703369140625" lon="13.1327486224472522735595703125">
        <ele>701.79998779296875</ele>
        <time>2021-05-25T09:20:17.000Z</time>
        <extensions>
          <ns3:TrackPointExtension>
            <ns3:atemp>20.0</ns3:atemp>
          </ns3:TrackPointExtension>
        </extensions>
      </trkpt>
      <trkpt lat="43.15474522300064563751220703125" lon="13.1327663920819759368896484375">
        <ele>702</ele>
        <time>2021-05-25T09:20:19.000Z</time>
        <extensions>
          <ns3:TrackPointExtension>
            <ns3:atemp>20.0</ns3:atemp>
          </ns3:TrackPointExtension>
        </extensions>
      </trkpt>
      <trkpt lat="43.15486080944538116455078125" lon="13.1327712535858154296875">
        <ele>702.5999755859375</ele>
        <time>2021-05-25T09:20:23.000Z</time>
        <extensions>
          <ns3:TrackPointExtension>
            <ns3:atemp>20.0</ns3:atemp>
          </ns3:TrackPointExtension>
        </extensions>
      </trkpt>
      <trkpt lat="43.15488352440297603607177734375" lon="13.13274904154241085052490234375">
        <ele>702.79998779296875</ele>
        <time>2021-05-25T09:20:24.000Z</time>
        <extensions>
          <ns3:TrackPointExtension>
            <ns3:atemp>20.0</ns3:atemp>
          </ns3:TrackPointExtension>
        </extensions>
      </trkpt>
      <trkpt lat="43.15490414388477802276611328125" lon="13.13272138126194477081298828125">
        <ele>703</ele>
        <time>2021-05-25T09:20:25.000Z</time>
        <extensions>
          <ns3:TrackPointExtension>
            <ns3:atemp>20.0</ns3:atemp>
          </ns3:TrackPointExtension>
        </extensions>
      </trkpt>
      <trkpt lat="43.15493381582200527191162109375" lon="13.13264259137213230133056640625">
        <ele>703.5999755859375</ele>
        <time>2021-05-25T09:20:27.000Z</time>
        <extensions>
          <ns3:TrackPointExtension>
            <ns3:atemp>20.0</ns3:atemp>
          </ns3:TrackPointExtension>
        </extensions>
      </trkpt>
      <trkpt lat="43.154940940439701080322265625" lon="13.13257302157580852508544921875">
        <ele>704</ele>
        <time>2021-05-25T09:20:29.000Z</time>
        <extensions>
          <ns3:TrackPointExtension>
            <ns3:atemp>20.0</ns3:atemp>
          </ns3:TrackPointExtension>
        </extensions>
      </trkpt>
      <trkpt lat="43.1549364142119884490966796875" lon="13.1325075589120388031005859375">
        <ele>704.20001220703125</ele>
        <time>2021-05-25T09:20:31.000Z</time>
        <extensions>
          <ns3:TrackPointExtension>
            <ns3:atemp>20.0</ns3:atemp>
          </ns3:TrackPointExtension>
        </extensions>
      </trkpt>
      <trkpt lat="43.15493733622133731842041015625" lon="13.13230362720787525177001953125">
        <ele>704.4000244140625</ele>
        <time>2021-05-25T09:20:37.000Z</time>
        <extensions>
          <ns3:TrackPointExtension>
            <ns3:atemp>20.0</ns3:atemp>
          </ns3:TrackPointExtension>
        </extensions>
      </trkpt>
      <trkpt lat="43.1549929082393646240234375" lon="13.13214470632374286651611328125">
        <ele>705.4000244140625</ele>
        <time>2021-05-25T09:20:42.000Z</time>
        <extensions>
          <ns3:TrackPointExtension>
            <ns3:atemp>20.0</ns3:atemp>
          </ns3:TrackPointExtension>
        </extensions>
      </trkpt>
      <trkpt lat="43.1550919823348522186279296875" lon="13.13197757117450237274169921875">
        <ele>706.4000244140625</ele>
        <time>2021-05-25T09:20:48.000Z</time>
        <extensions>
          <ns3:TrackPointExtension>
            <ns3:atemp>20.0</ns3:atemp>
          </ns3:TrackPointExtension>
        </extensions>
      </trkpt>
      <trkpt lat="43.155125677585601806640625" lon="13.13192359171807765960693359375">
        <ele>706.5999755859375</ele>
        <time>2021-05-25T09:20:50.000Z</time>
        <extensions>
          <ns3:TrackPointExtension>
            <ns3:atemp>20.0</ns3:atemp>
          </ns3:TrackPointExtension>
        </extensions>
      </trkpt>
      <trkpt lat="43.15518460236489772796630859375" lon="13.131838850677013397216796875">
        <ele>707.4000244140625</ele>
        <time>2021-05-25T09:20:53.000Z</time>
        <extensions>
          <ns3:TrackPointExtension>
            <ns3:atemp>20.0</ns3:atemp>
          </ns3:TrackPointExtension>
        </extensions>
      </trkpt>
      <trkpt lat="43.155258782207965850830078125" lon="13.131755702197551727294921875">
        <ele>708.79998779296875</ele>
        <time>2021-05-25T09:20:56.000Z</time>
        <extensions>
          <ns3:TrackPointExtension>
            <ns3:atemp>20.0</ns3:atemp>
          </ns3:TrackPointExtension>
        </extensions>
      </trkpt>
      <trkpt lat="43.15528568811714649200439453125" lon="13.13172913156449794769287109375">
        <ele>709</ele>
        <time>2021-05-25T09:20:57.000Z</time>
        <extensions>
          <ns3:TrackPointExtension>
            <ns3:atemp>20.0</ns3:atemp>
          </ns3:TrackPointExtension>
        </extensions>
      </trkpt>
      <trkpt lat="43.1554567627608776092529296875" lon="13.13157993368804454803466796875">
        <ele>709.20001220703125</ele>
        <time>2021-05-25T09:21:03.000Z</time>
        <extensions>
          <ns3:TrackPointExtension>
            <ns3:atemp>20.0</ns3:atemp>
          </ns3:TrackPointExtension>
        </extensions>
      </trkpt>
      <trkpt lat="43.1556267477571964263916015625" lon="13.131429813802242279052734375">
        <ele>709.5999755859375</ele>
        <time>2021-05-25T09:21:09.000Z</time>
        <extensions>
          <ns3:TrackPointExtension>
            <ns3:atemp>20.0</ns3:atemp>
          </ns3:TrackPointExtension>
        </extensions>
      </trkpt>
      <trkpt lat="43.15576161257922649383544921875" lon="13.13128991983830928802490234375">
        <ele>709.79998779296875</ele>
        <time>2021-05-25T09:21:14.000Z</time>
        <extensions>
          <ns3:TrackPointExtension>
            <ns3:atemp>20.0</ns3:atemp>
          </ns3:TrackPointExtension>
        </extensions>
      </trkpt>
      <trkpt lat="43.15582011826336383819580078125" lon="13.131236024200916290283203125">
        <ele>710.4000244140625</ele>
        <time>2021-05-25T09:21:16.000Z</time>
        <extensions>
          <ns3:TrackPointExtension>
            <ns3:atemp>20.0</ns3:atemp>
          </ns3:TrackPointExtension>
        </extensions>
      </trkpt>
      <trkpt lat="43.155871331691741943359375" lon="13.13118564896285533905029296875">
        <ele>711</ele>
        <time>2021-05-25T09:21:18.000Z</time>
        <extensions>
          <ns3:TrackPointExtension>
            <ns3:atemp>20.0</ns3:atemp>
          </ns3:TrackPointExtension>
        </extensions>
      </trkpt>
      <trkpt lat="43.15592698752880096435546875" lon="13.13113116659224033355712890625">
        <ele>712</ele>
        <time>2021-05-25T09:21:20.000Z</time>
        <extensions>
          <ns3:TrackPointExtension>
            <ns3:atemp>20.0</ns3:atemp>
          </ns3:TrackPointExtension>
        </extensions>
      </trkpt>
      <trkpt lat="43.1559818051755428314208984375" lon="13.13108137808740139007568359375">
        <ele>713.79998779296875</ele>
        <time>2021-05-25T09:21:22.000Z</time>
        <extensions>
          <ns3:TrackPointExtension>
            <ns3:atemp>20.0</ns3:atemp>
          </ns3:TrackPointExtension>
        </extensions>
      </trkpt>
      <trkpt lat="43.156137205660343170166015625" lon="13.13100124709308147430419921875">
        <ele>714.4000244140625</ele>
        <time>2021-05-25T09:21:27.000Z</time>
        <extensions>
          <ns3:TrackPointExtension>
            <ns3:atemp>20.0</ns3:atemp>
          </ns3:TrackPointExtension>
        </extensions>
      </trkpt>
      <trkpt lat="43.15632135607302188873291015625" lon="13.13092933036386966705322265625">
        <ele>714.79998779296875</ele>
        <time>2021-05-25T09:21:33.000Z</time>
        <extensions>
          <ns3:TrackPointExtension>
            <ns3:atemp>20.0</ns3:atemp>
          </ns3:TrackPointExtension>
        </extensions>
      </trkpt>
      <trkpt lat="43.156430907547473907470703125" lon="13.13083193264901638031005859375">
        <ele>714.79998779296875</ele>
        <time>2021-05-25T09:21:37.000Z</time>
        <extensions>
          <ns3:TrackPointExtension>
            <ns3:atemp>20.0</ns3:atemp>
          </ns3:TrackPointExtension>
        </extensions>
      </trkpt>
      <trkpt lat="43.156504668295383453369140625" lon="13.130762614309787750244140625">
        <ele>715</ele>
        <time>2021-05-25T09:21:40.000Z</time>
        <extensions>
          <ns3:TrackPointExtension>
            <ns3:atemp>20.0</ns3:atemp>
          </ns3:TrackPointExtension>
        </extensions>
      </trkpt>
      <trkpt lat="43.1566141359508037567138671875" lon="13.130651302635669708251953125">
        <ele>716</ele>
        <time>2021-05-25T09:21:45.000Z</time>
        <extensions>
          <ns3:TrackPointExtension>
            <ns3:atemp>20.0</ns3:atemp>
          </ns3:TrackPointExtension>
        </extensions>
      </trkpt>
      <trkpt lat="43.15663509070873260498046875" lon="13.130633533000946044921875">
        <ele>716.4000244140625</ele>
        <time>2021-05-25T09:21:46.000Z</time>
        <extensions>
          <ns3:TrackPointExtension>
            <ns3:atemp>20.0</ns3:atemp>
          </ns3:TrackPointExtension>
        </extensions>
      </trkpt>
      <trkpt lat="43.15670549869537353515625" lon="13.13058986328542232513427734375">
        <ele>717</ele>
        <time>2021-05-25T09:21:49.000Z</time>
        <extensions>
          <ns3:TrackPointExtension>
            <ns3:atemp>20.0</ns3:atemp>
          </ns3:TrackPointExtension>
        </extensions>
      </trkpt>
      <trkpt lat="43.15683265216648578643798828125" lon="13.13055700622498989105224609375">
        <ele>717.79998779296875</ele>
        <time>2021-05-25T09:21:54.000Z</time>
        <extensions>
          <ns3:TrackPointExtension>
            <ns3:atemp>20.0</ns3:atemp>
          </ns3:TrackPointExtension>
        </extensions>
      </trkpt>
      <trkpt lat="43.15692954696714878082275390625" lon="13.13053764402866363525390625">
        <ele>719</ele>
        <time>2021-05-25T09:21:58.000Z</time>
        <extensions>
          <ns3:TrackPointExtension>
            <ns3:atemp>20.0</ns3:atemp>
          </ns3:TrackPointExtension>
        </extensions>
      </trkpt>
      <trkpt lat="43.15696408040821552276611328125" lon="13.130515851080417633056640625">
        <ele>720</ele>
        <time>2021-05-25T09:22:00.000Z</time>
        <extensions>
          <ns3:TrackPointExtension>
            <ns3:atemp>20.0</ns3:atemp>
          </ns3:TrackPointExtension>
        </extensions>
      </trkpt>
      <trkpt lat="43.157000206410884857177734375" lon="13.130481652915477752685546875">
        <ele>721.20001220703125</ele>
        <time>2021-05-25T09:22:02.000Z</time>
        <extensions>
          <ns3:TrackPointExtension>
            <ns3:atemp>20.0</ns3:atemp>
          </ns3:TrackPointExtension>
        </extensions>
      </trkpt>
      <trkpt lat="43.1570174731314182281494140625" lon="13.13041585497558116912841796875">
        <ele>722.79998779296875</ele>
        <time>2021-05-25T09:22:04.000Z</time>
        <extensions>
          <ns3:TrackPointExtension>
            <ns3:atemp>20.0</ns3:atemp>
          </ns3:TrackPointExtension>
        </extensions>
      </trkpt>
      <trkpt lat="43.15703071653842926025390625" lon="13.1303416751325130462646484375">
        <ele>724.79998779296875</ele>
        <time>2021-05-25T09:22:06.000Z</time>
        <extensions>
          <ns3:TrackPointExtension>
            <ns3:atemp>20.0</ns3:atemp>
          </ns3:TrackPointExtension>
        </extensions>
      </trkpt>
      <trkpt lat="43.1570429541170597076416015625" lon="13.1303051300346851348876953125">
        <ele>725.79998779296875</ele>
        <time>2021-05-25T09:22:07.000Z</time>
        <extensions>
          <ns3:TrackPointExtension>
            <ns3:atemp>20.0</ns3:atemp>
          </ns3:TrackPointExtension>
        </extensions>
      </trkpt>
      <trkpt lat="43.15706868655979633331298828125" lon="13.130230195820331573486328125">
        <ele>726.79998779296875</ele>
        <time>2021-05-25T09:22:09.000Z</time>
        <extensions>
          <ns3:TrackPointExtension>
            <ns3:atemp>20.0</ns3:atemp>
          </ns3:TrackPointExtension>
        </extensions>
      </trkpt>
      <trkpt lat="43.15710104070603847503662109375" lon="13.13014277257025241851806640625">
        <ele>727.20001220703125</ele>
        <time>2021-05-25T09:22:11.000Z</time>
        <extensions>
          <ns3:TrackPointExtension>
            <ns3:atemp>20.0</ns3:atemp>
          </ns3:TrackPointExtension>
        </extensions>
      </trkpt>
      <trkpt lat="43.157186619937419891357421875" lon="13.12988159246742725372314453125">
        <ele>727.20001220703125</ele>
        <time>2021-05-25T09:22:17.000Z</time>
        <extensions>
          <ns3:TrackPointExtension>
            <ns3:atemp>20.0</ns3:atemp>
          </ns3:TrackPointExtension>
        </extensions>
      </trkpt>
      <trkpt lat="43.157270438969135284423828125" lon="13.1296453066170215606689453125">
        <ele>727.20001220703125</ele>
        <time>2021-05-25T09:22:23.000Z</time>
        <extensions>
          <ns3:TrackPointExtension>
            <ns3:atemp>20.0</ns3:atemp>
          </ns3:TrackPointExtension>
        </extensions>
      </trkpt>
      <trkpt lat="43.15740865655243396759033203125" lon="13.12941622920334339141845703125">
        <ele>727.20001220703125</ele>
        <time>2021-05-25T09:22:29.000Z</time>
        <extensions>
          <ns3:TrackPointExtension>
            <ns3:atemp>20.0</ns3:atemp>
          </ns3:TrackPointExtension>
        </extensions>
      </trkpt>
      <trkpt lat="43.157479651272296905517578125" lon="13.1292604096233844757080078125">
        <ele>727.20001220703125</ele>
        <time>2021-05-25T09:22:35.000Z</time>
        <extensions>
          <ns3:TrackPointExtension>
            <ns3:atemp>20.0</ns3:atemp>
          </ns3:TrackPointExtension>
        </extensions>
      </trkpt>
      <trkpt lat="43.15749448724091053009033203125" lon="13.129237107932567596435546875">
        <ele>728</ele>
        <time>2021-05-25T09:22:38.000Z</time>
        <extensions>
          <ns3:TrackPointExtension>
            <ns3:atemp>20.0</ns3:atemp>
          </ns3:TrackPointExtension>
        </extensions>
      </trkpt>
      <trkpt lat="43.157507814466953277587890625" lon="13.1292060948908329010009765625">
        <ele>729</ele>
        <time>2021-05-25T09:22:41.000Z</time>
        <extensions>
          <ns3:TrackPointExtension>
            <ns3:atemp>20.0</ns3:atemp>
          </ns3:TrackPointExtension>
        </extensions>
      </trkpt>
      <trkpt lat="43.15751963295042514801025390625" lon="13.12918941490352153778076171875">
        <ele>729.79998779296875</ele>
        <time>2021-05-25T09:22:43.000Z</time>
        <extensions>
          <ns3:TrackPointExtension>
            <ns3:atemp>20.0</ns3:atemp>
          </ns3:TrackPointExtension>
        </extensions>
      </trkpt>
      <trkpt lat="43.15752700902521610260009765625" lon="13.129178099334239959716796875">
        <ele>729.79998779296875</ele>
        <time>2021-05-25T09:22:44.000Z</time>
        <extensions>
          <ns3:TrackPointExtension>
            <ns3:atemp>20.0</ns3:atemp>
          </ns3:TrackPointExtension>
        </extensions>
      </trkpt>
      <trkpt lat="43.1575498916208744049072265625" lon="13.1291219405829906463623046875">
        <ele>730.20001220703125</ele>
        <time>2021-05-25T09:22:49.000Z</time>
        <extensions>
          <ns3:TrackPointExtension>
            <ns3:atemp>20.0</ns3:atemp>
          </ns3:TrackPointExtension>
        </extensions>
      </trkpt>
      <trkpt lat="43.15755953080952167510986328125" lon="13.1291018240153789520263671875">
        <ele>730.20001220703125</ele>
        <time>2021-05-25T09:22:55.000Z</time>
        <extensions>
          <ns3:TrackPointExtension>
            <ns3:atemp>20.0</ns3:atemp>
          </ns3:TrackPointExtension>
        </extensions>
      </trkpt>
      <trkpt lat="43.15759037621319293975830078125" lon="13.12903569079935550689697265625">
        <ele>730.20001220703125</ele>
        <time>2021-05-25T09:23:00.000Z</time>
        <extensions>
          <ns3:TrackPointExtension>
            <ns3:atemp>20.0</ns3:atemp>
          </ns3:TrackPointExtension>
        </extensions>
      </trkpt>
      <trkpt lat="43.1576239876449108123779296875" lon="13.12893242575228214263916015625">
        <ele>730.20001220703125</ele>
        <time>2021-05-25T09:23:05.000Z</time>
        <extensions>
          <ns3:TrackPointExtension>
            <ns3:atemp>20.0</ns3:atemp>
          </ns3:TrackPointExtension>
        </extensions>
      </trkpt>
      <trkpt lat="43.15763480030000209808349609375" lon="13.128891773521900177001953125">
        <ele>729.79998779296875</ele>
        <time>2021-05-25T09:23:08.000Z</time>
        <extensions>
          <ns3:TrackPointExtension>
            <ns3:atemp>20.0</ns3:atemp>
          </ns3:TrackPointExtension>
        </extensions>
      </trkpt>
      <trkpt lat="43.15764552913606166839599609375" lon="13.128834106028079986572265625">
        <ele>729.4000244140625</ele>
        <time>2021-05-25T09:23:10.000Z</time>
        <extensions>
          <ns3:TrackPointExtension>
            <ns3:atemp>20.0</ns3:atemp>
          </ns3:TrackPointExtension>
        </extensions>
      </trkpt>
      <trkpt lat="43.15765458159148693084716796875" lon="13.12881206162273883819580078125">
        <ele>728.79998779296875</ele>
        <time>2021-05-25T09:23:12.000Z</time>
        <extensions>
          <ns3:TrackPointExtension>
            <ns3:atemp>20.0</ns3:atemp>
          </ns3:TrackPointExtension>
        </extensions>
      </trkpt>
      <trkpt lat="43.15765701234340667724609375" lon="13.12880502082407474517822265625">
        <ele>728.5999755859375</ele>
        <time>2021-05-25T09:23:13.000Z</time>
        <extensions>
          <ns3:TrackPointExtension>
            <ns3:atemp>20.0</ns3:atemp>
          </ns3:TrackPointExtension>
        </extensions>
      </trkpt>
      <trkpt lat="43.15767419524490833282470703125" lon="13.1287759356200695037841796875">
        <ele>727.79998779296875</ele>
        <time>2021-05-25T09:23:17.000Z</time>
        <extensions>
          <ns3:TrackPointExtension>
            <ns3:atemp>20.0</ns3:atemp>
          </ns3:TrackPointExtension>
        </extensions>
      </trkpt>
      <trkpt lat="43.1576923839747905731201171875" lon="13.12870024703443050384521484375">
        <ele>727.4000244140625</ele>
        <time>2021-05-25T09:23:20.000Z</time>
        <extensions>
          <ns3:TrackPointExtension>
            <ns3:atemp>20.0</ns3:atemp>
          </ns3:TrackPointExtension>
        </extensions>
      </trkpt>
      <trkpt lat="43.15771467983722686767578125" lon="13.12855842523276805877685546875">
        <ele>727.20001220703125</ele>
        <time>2021-05-25T09:23:23.000Z</time>
        <extensions>
          <ns3:TrackPointExtension>
            <ns3:atemp>20.0</ns3:atemp>
          </ns3:TrackPointExtension>
        </extensions>
      </trkpt>
      <trkpt lat="43.1577664799988269805908203125" lon="13.1283360533416271209716796875">
        <ele>726.5999755859375</ele>
        <time>2021-05-25T09:23:28.000Z</time>
        <extensions>
          <ns3:TrackPointExtension>
            <ns3:atemp>20.0</ns3:atemp>
          </ns3:TrackPointExtension>
        </extensions>
      </trkpt>
      <trkpt lat="43.15777963958680629730224609375" lon="13.1282884441316127777099609375">
        <ele>725.79998779296875</ele>
        <time>2021-05-25T09:23:29.000Z</time>
        <extensions>
          <ns3:TrackPointExtension>
            <ns3:atemp>20.0</ns3:atemp>
          </ns3:TrackPointExtension>
        </extensions>
      </trkpt>
      <trkpt lat="43.15779916942119598388671875" lon="13.12823832035064697265625">
        <ele>725.4000244140625</ele>
        <time>2021-05-25T09:23:30.000Z</time>
        <extensions>
          <ns3:TrackPointExtension>
            <ns3:atemp>20.0</ns3:atemp>
          </ns3:TrackPointExtension>
        </extensions>
      </trkpt>
      <trkpt lat="43.15784652717411518096923828125" lon="13.12810890376567840576171875">
        <ele>724.20001220703125</ele>
        <time>2021-05-25T09:23:32.000Z</time>
        <extensions>
          <ns3:TrackPointExtension>
            <ns3:atemp>20.0</ns3:atemp>
          </ns3:TrackPointExtension>
        </extensions>
      </trkpt>
      <trkpt lat="43.157866895198822021484375" lon="13.128030113875865936279296875">
        <ele>723.79998779296875</ele>
        <time>2021-05-25T09:23:33.000Z</time>
        <extensions>
          <ns3:TrackPointExtension>
            <ns3:atemp>20.0</ns3:atemp>
          </ns3:TrackPointExtension>
        </extensions>
      </trkpt>
      <trkpt lat="43.15789279527962207794189453125" lon="13.12795744277536869049072265625">
        <ele>723.5999755859375</ele>
        <time>2021-05-25T09:23:34.000Z</time>
        <extensions>
          <ns3:TrackPointExtension>
            <ns3:atemp>20.0</ns3:atemp>
          </ns3:TrackPointExtension>
        </extensions>
      </trkpt>
      <trkpt lat="43.1579197011888027191162109375" lon="13.1278864480555057525634765625">
        <ele>723</ele>
        <time>2021-05-25T09:23:35.000Z</time>
        <extensions>
          <ns3:TrackPointExtension>
            <ns3:atemp>20.0</ns3:atemp>
          </ns3:TrackPointExtension>
        </extensions>
      </trkpt>
      <trkpt lat="43.15798097290098667144775390625" lon="13.127757869660854339599609375">
        <ele>722.20001220703125</ele>
        <time>2021-05-25T09:23:37.000Z</time>
        <extensions>
          <ns3:TrackPointExtension>
            <ns3:atemp>20.0</ns3:atemp>
          </ns3:TrackPointExtension>
        </extensions>
      </trkpt>
      <trkpt lat="43.1580129079520702362060546875" lon="13.12769039534032344818115234375">
        <ele>722</ele>
        <time>2021-05-25T09:23:38.000Z</time>
        <extensions>
          <ns3:TrackPointExtension>
            <ns3:atemp>20.0</ns3:atemp>
          </ns3:TrackPointExtension>
        </extensions>
      </trkpt>
      <trkpt lat="43.15804668702185153961181640625" lon="13.12762350775301456451416015625">
        <ele>721.5999755859375</ele>
        <time>2021-05-25T09:23:39.000Z</time>
        <extensions>
          <ns3:TrackPointExtension>
            <ns3:atemp>20.0</ns3:atemp>
          </ns3:TrackPointExtension>
        </extensions>
      </trkpt>
      <trkpt lat="43.15813134424388408660888671875" lon="13.1275203265249729156494140625">
        <ele>720.5999755859375</ele>
        <time>2021-05-25T09:23:41.000Z</time>
        <extensions>
          <ns3:TrackPointExtension>
            <ns3:atemp>20.0</ns3:atemp>
          </ns3:TrackPointExtension>
        </extensions>
      </trkpt>
      <trkpt lat="43.1581812165677547454833984375" lon="13.12746760435402393341064453125">
        <ele>720.20001220703125</ele>
        <time>2021-05-25T09:23:42.000Z</time>
        <extensions>
          <ns3:TrackPointExtension>
            <ns3:atemp>20.0</ns3:atemp>
          </ns3:TrackPointExtension>
        </extensions>
      </trkpt>
      <trkpt lat="43.158289678394794464111328125" lon="13.12736433930695056915283203125">
        <ele>719</ele>
        <time>2021-05-25T09:23:44.000Z</time>
        <extensions>
          <ns3:TrackPointExtension>
            <ns3:atemp>20.0</ns3:atemp>
          </ns3:TrackPointExtension>
        </extensions>
      </trkpt>
      <trkpt lat="43.15839755348861217498779296875" lon="13.12725420109927654266357421875">
        <ele>717.79998779296875</ele>
        <time>2021-05-25T09:23:46.000Z</time>
        <extensions>
          <ns3:TrackPointExtension>
            <ns3:atemp>20.0</ns3:atemp>
          </ns3:TrackPointExtension>
        </extensions>
      </trkpt>
      <trkpt lat="43.158582709729671478271484375" lon="13.1271190010011196136474609375">
        <ele>715.79998779296875</ele>
        <time>2021-05-25T09:23:49.000Z</time>
        <extensions>
          <ns3:TrackPointExtension>
            <ns3:atemp>20.0</ns3:atemp>
          </ns3:TrackPointExtension>
        </extensions>
      </trkpt>
      <trkpt lat="43.15872796811163425445556640625" lon="13.12706510536372661590576171875">
        <ele>714.79998779296875</ele>
        <time>2021-05-25T09:23:51.000Z</time>
        <extensions>
          <ns3:TrackPointExtension>
            <ns3:atemp>20.0</ns3:atemp>
          </ns3:TrackPointExtension>
        </extensions>
      </trkpt>
      <trkpt lat="43.15887741744518280029296875" lon="13.12700073234736919403076171875">
        <ele>712.5999755859375</ele>
        <time>2021-05-25T09:23:53.000Z</time>
        <extensions>
          <ns3:TrackPointExtension>
            <ns3:atemp>20.0</ns3:atemp>
          </ns3:TrackPointExtension>
        </extensions>
      </trkpt>
      <trkpt lat="43.159018568694591522216796875" lon="13.12691020779311656951904296875">
        <ele>711.20001220703125</ele>
        <time>2021-05-25T09:23:55.000Z</time>
        <extensions>
          <ns3:TrackPointExtension>
            <ns3:atemp>20.0</ns3:atemp>
          </ns3:TrackPointExtension>
        </extensions>
      </trkpt>
      <trkpt lat="43.1590851210057735443115234375" lon="13.12686578370630741119384765625">
        <ele>711</ele>
        <time>2021-05-25T09:23:56.000Z</time>
        <extensions>
          <ns3:TrackPointExtension>
            <ns3:atemp>20.0</ns3:atemp>
          </ns3:TrackPointExtension>
        </extensions>
      </trkpt>
      <trkpt lat="43.15913985483348369598388671875" lon="13.1268118880689144134521484375">
        <ele>710.79998779296875</ele>
        <time>2021-05-25T09:23:57.000Z</time>
        <extensions>
          <ns3:TrackPointExtension>
            <ns3:atemp>20.0</ns3:atemp>
          </ns3:TrackPointExtension>
        </extensions>
      </trkpt>
      <trkpt lat="43.1591776572167873382568359375" lon="13.12662589363753795623779296875">
        <ele>710</ele>
        <time>2021-05-25T09:23:59.000Z</time>
        <extensions>
          <ns3:TrackPointExtension>
            <ns3:atemp>20.0</ns3:atemp>
          </ns3:TrackPointExtension>
        </extensions>
      </trkpt>
      <trkpt lat="43.159179501235485076904296875" lon="13.12642875127494335174560546875">
        <ele>709</ele>
        <time>2021-05-25T09:24:01.000Z</time>
        <extensions>
          <ns3:TrackPointExtension>
            <ns3:atemp>20.0</ns3:atemp>
          </ns3:TrackPointExtension>
        </extensions>
      </trkpt>
      <trkpt lat="43.15918562002480030059814453125" lon="13.126340992748737335205078125">
        <ele>708.5999755859375</ele>
        <time>2021-05-25T09:24:02.000Z</time>
        <extensions>
          <ns3:TrackPointExtension>
            <ns3:atemp>20.0</ns3:atemp>
          </ns3:TrackPointExtension>
        </extensions>
      </trkpt>
      <trkpt lat="43.15918880514800548553466796875" lon="13.12623915262520313262939453125">
        <ele>708.4000244140625</ele>
        <time>2021-05-25T09:24:03.000Z</time>
        <extensions>
          <ns3:TrackPointExtension>
            <ns3:atemp>20.0</ns3:atemp>
          </ns3:TrackPointExtension>
        </extensions>
      </trkpt>
      <trkpt lat="43.15919618122279644012451171875" lon="13.12602725811302661895751953125">
        <ele>706.79998779296875</ele>
        <time>2021-05-25T09:24:05.000Z</time>
        <extensions>
          <ns3:TrackPointExtension>
            <ns3:atemp>20.0</ns3:atemp>
          </ns3:TrackPointExtension>
        </extensions>
      </trkpt>
      <trkpt lat="43.1591947562992572784423828125" lon="13.12579281628131866455078125">
        <ele>704.79998779296875</ele>
        <time>2021-05-25T09:24:07.000Z</time>
        <extensions>
          <ns3:TrackPointExtension>
            <ns3:atemp>20.0</ns3:atemp>
          </ns3:TrackPointExtension>
        </extensions>
      </trkpt>
      <trkpt lat="43.15919458866119384765625" lon="13.12568393535912036895751953125">
        <ele>703.5999755859375</ele>
        <time>2021-05-25T09:24:08.000Z</time>
        <extensions>
          <ns3:TrackPointExtension>
            <ns3:atemp>20.0</ns3:atemp>
          </ns3:TrackPointExtension>
        </extensions>
      </trkpt>
      <trkpt lat="43.1591947562992572784423828125" lon="13.12557564117014408111572265625">
        <ele>702.4000244140625</ele>
        <time>2021-05-25T09:24:09.000Z</time>
        <extensions>
          <ns3:TrackPointExtension>
            <ns3:atemp>20.0</ns3:atemp>
          </ns3:TrackPointExtension>
        </extensions>
      </trkpt>
      <trkpt lat="43.15919970162212848663330078125" lon="13.12535888515412807464599609375">
        <ele>700.79998779296875</ele>
        <time>2021-05-25T09:24:11.000Z</time>
        <extensions>
          <ns3:TrackPointExtension>
            <ns3:atemp>20.0</ns3:atemp>
          </ns3:TrackPointExtension>
        </extensions>
      </trkpt>
      <trkpt lat="43.15921537578105926513671875" lon="13.12514481134712696075439453125">
        <ele>699.5999755859375</ele>
        <time>2021-05-25T09:24:13.000Z</time>
        <extensions>
          <ns3:TrackPointExtension>
            <ns3:atemp>20.0</ns3:atemp>
          </ns3:TrackPointExtension>
        </extensions>
      </trkpt>
      <trkpt lat="43.15922451205551624298095703125" lon="13.12504221685230731964111328125">
        <ele>698.79998779296875</ele>
        <time>2021-05-25T09:24:14.000Z</time>
        <extensions>
          <ns3:TrackPointExtension>
            <ns3:atemp>20.0</ns3:atemp>
          </ns3:TrackPointExtension>
        </extensions>
      </trkpt>
      <trkpt lat="43.159237168729305267333984375" lon="13.12494213692843914031982421875">
        <ele>697.79998779296875</ele>
        <time>2021-05-25T09:24:15.000Z</time>
        <extensions>
          <ns3:TrackPointExtension>
            <ns3:atemp>20.0</ns3:atemp>
          </ns3:TrackPointExtension>
        </extensions>
      </trkpt>
      <trkpt lat="43.15925116650760173797607421875" lon="13.12484121881425380706787109375">
        <ele>696.79998779296875</ele>
        <time>2021-05-25T09:24:16.000Z</time>
        <extensions>
          <ns3:TrackPointExtension>
            <ns3:atemp>20.0</ns3:atemp>
          </ns3:TrackPointExtension>
        </extensions>
      </trkpt>
      <trkpt lat="43.15929441712796688079833984375" lon="13.1246386282145977020263671875">
        <ele>695.20001220703125</ele>
        <time>2021-05-25T09:24:18.000Z</time>
        <extensions>
          <ns3:TrackPointExtension>
            <ns3:atemp>20.0</ns3:atemp>
          </ns3:TrackPointExtension>
        </extensions>
      </trkpt>
      <trkpt lat="43.15931788645684719085693359375" lon="13.12453729100525379180908203125">
        <ele>694</ele>
        <time>2021-05-25T09:24:19.000Z</time>
        <extensions>
          <ns3:TrackPointExtension>
            <ns3:atemp>20.0</ns3:atemp>
          </ns3:TrackPointExtension>
        </extensions>
      </trkpt>
      <trkpt lat="43.15933632664382457733154296875" lon="13.124434612691402435302734375">
        <ele>692.5999755859375</ele>
        <time>2021-05-25T09:24:20.000Z</time>
        <extensions>
          <ns3:TrackPointExtension>
            <ns3:atemp>20.0</ns3:atemp>
          </ns3:TrackPointExtension>
        </extensions>
      </trkpt>
      <trkpt lat="43.1593587063252925872802734375" lon="13.12433511950075626373291015625">
        <ele>691.5999755859375</ele>
        <time>2021-05-25T09:24:21.000Z</time>
        <extensions>
          <ns3:TrackPointExtension>
            <ns3:atemp>20.0</ns3:atemp>
          </ns3:TrackPointExtension>
        </extensions>
      </trkpt>
      <trkpt lat="43.1594053097069263458251953125" lon="13.12414267100393772125244140625">
        <ele>689.79998779296875</ele>
        <time>2021-05-25T09:24:23.000Z</time>
        <extensions>
          <ns3:TrackPointExtension>
            <ns3:atemp>20.0</ns3:atemp>
          </ns3:TrackPointExtension>
        </extensions>
      </trkpt>
      <trkpt lat="43.1594636477530002593994140625" lon="13.12395282089710235595703125">
        <ele>688.20001220703125</ele>
        <time>2021-05-25T09:24:25.000Z</time>
        <extensions>
          <ns3:TrackPointExtension>
            <ns3:atemp>20.0</ns3:atemp>
          </ns3:TrackPointExtension>
        </extensions>
      </trkpt>
      <trkpt lat="43.1595062278211116790771484375" lon="13.1238611228764057159423828125">
        <ele>687.5999755859375</ele>
        <time>2021-05-25T09:24:26.000Z</time>
        <extensions>
          <ns3:TrackPointExtension>
            <ns3:atemp>20.0</ns3:atemp>
          </ns3:TrackPointExtension>
        </extensions>
      </trkpt>
      <trkpt lat="43.15955869853496551513671875" lon="13.123772107064723968505859375">
        <ele>687</ele>
        <time>2021-05-25T09:24:27.000Z</time>
        <extensions>
          <ns3:TrackPointExtension>
            <ns3:atemp>20.0</ns3:atemp>
          </ns3:TrackPointExtension>
        </extensions>
      </trkpt>
      <trkpt lat="43.1596755422651767730712890625" lon="13.12359047122299671173095703125">
        <ele>686</ele>
        <time>2021-05-25T09:24:29.000Z</time>
        <extensions>
          <ns3:TrackPointExtension>
            <ns3:atemp>20.0</ns3:atemp>
          </ns3:TrackPointExtension>
        </extensions>
      </trkpt>
      <trkpt lat="43.15979531966149806976318359375" lon="13.12339819036424160003662109375">
        <ele>685</ele>
        <time>2021-05-25T09:24:31.000Z</time>
        <extensions>
          <ns3:TrackPointExtension>
            <ns3:atemp>20.0</ns3:atemp>
          </ns3:TrackPointExtension>
        </extensions>
      </trkpt>
      <trkpt lat="43.1598477065563201904296875" lon="13.1232918240129947662353515625">
        <ele>684.4000244140625</ele>
        <time>2021-05-25T09:24:32.000Z</time>
        <extensions>
          <ns3:TrackPointExtension>
            <ns3:atemp>20.0</ns3:atemp>
          </ns3:TrackPointExtension>
        </extensions>
      </trkpt>
      <trkpt lat="43.1598938070237636566162109375" lon="13.123183362185955047607421875">
        <ele>683.79998779296875</ele>
        <time>2021-05-25T09:24:33.000Z</time>
        <extensions>
          <ns3:TrackPointExtension>
            <ns3:atemp>20.0</ns3:atemp>
          </ns3:TrackPointExtension>
        </extensions>
      </trkpt>
      <trkpt lat="43.15997888334095478057861328125" lon="13.122973144054412841796875">
        <ele>681.79998779296875</ele>
        <time>2021-05-25T09:24:35.000Z</time>
        <extensions>
          <ns3:TrackPointExtension>
            <ns3:atemp>20.0</ns3:atemp>
          </ns3:TrackPointExtension>
        </extensions>
      </trkpt>
      <trkpt lat="43.16005800850689411163330078125" lon="13.12276870943605899810791015625">
        <ele>680.4000244140625</ele>
        <time>2021-05-25T09:24:37.000Z</time>
        <extensions>
          <ns3:TrackPointExtension>
            <ns3:atemp>20.0</ns3:atemp>
          </ns3:TrackPointExtension>
        </extensions>
      </trkpt>
      <trkpt lat="43.16013528965413570404052734375" lon="13.12257039360702037811279296875">
        <ele>678.4000244140625</ele>
        <time>2021-05-25T09:24:39.000Z</time>
        <extensions>
          <ns3:TrackPointExtension>
            <ns3:atemp>20.0</ns3:atemp>
          </ns3:TrackPointExtension>
        </extensions>
      </trkpt>
      <trkpt lat="43.1602207012474536895751953125" lon="13.12238297425210475921630859375">
        <ele>677.20001220703125</ele>
        <time>2021-05-25T09:24:41.000Z</time>
        <extensions>
          <ns3:TrackPointExtension>
            <ns3:atemp>20.0</ns3:atemp>
          </ns3:TrackPointExtension>
        </extensions>
      </trkpt>
      <trkpt lat="43.16026604734361171722412109375" lon="13.12230435200035572052001953125">
        <ele>677</ele>
        <time>2021-05-25T09:24:42.000Z</time>
        <extensions>
          <ns3:TrackPointExtension>
            <ns3:atemp>20.0</ns3:atemp>
          </ns3:TrackPointExtension>
        </extensions>
      </trkpt>
      <trkpt lat="43.1604109704494476318359375" lon="13.12205323018133640289306640625">
        <ele>676.5999755859375</ele>
        <time>2021-05-25T09:24:46.000Z</time>
        <extensions>
          <ns3:TrackPointExtension>
            <ns3:atemp>20.0</ns3:atemp>
          </ns3:TrackPointExtension>
        </extensions>
      </trkpt>
      <trkpt lat="43.16054415889084339141845703125" lon="13.121822141110897064208984375">
        <ele>676.4000244140625</ele>
        <time>2021-05-25T09:24:51.000Z</time>
        <extensions>
          <ns3:TrackPointExtension>
            <ns3:atemp>20.0</ns3:atemp>
          </ns3:TrackPointExtension>
        </extensions>
      </trkpt>
      <trkpt lat="43.160592019557952880859375" lon="13.12175399623811244964599609375">
        <ele>676</ele>
        <time>2021-05-25T09:24:55.000Z</time>
        <extensions>
          <ns3:TrackPointExtension>
            <ns3:atemp>20.0</ns3:atemp>
          </ns3:TrackPointExtension>
        </extensions>
      </trkpt>
      <trkpt lat="43.1606012396514415740966796875" lon="13.12174494378268718719482421875">
        <ele>674.5999755859375</ele>
        <time>2021-05-25T09:24:59.000Z</time>
        <extensions>
          <ns3:TrackPointExtension>
            <ns3:atemp>20.0</ns3:atemp>
          </ns3:TrackPointExtension>
        </extensions>
      </trkpt>
      <trkpt lat="43.16060467623174190521240234375" lon="13.12174762599170207977294921875">
        <ele>674.20001220703125</ele>
        <time>2021-05-25T09:25:02.000Z</time>
        <extensions>
          <ns3:TrackPointExtension>
            <ns3:atemp>20.0</ns3:atemp>
          </ns3:TrackPointExtension>
        </extensions>
      </trkpt>
      <trkpt lat="43.16060299985110759735107421875" lon="13.12174737453460693359375">
        <ele>674.20001220703125</ele>
        <time>2021-05-25T09:25:15.000Z</time>
        <extensions>
          <ns3:TrackPointExtension>
            <ns3:atemp>20.0</ns3:atemp>
          </ns3:TrackPointExtension>
        </extensions>
      </trkpt>
      <trkpt lat="43.1606042571365833282470703125" lon="13.12174963764846324920654296875">
        <ele>674.5999755859375</ele>
        <time>2021-05-25T09:25:31.000Z</time>
        <extensions>
          <ns3:TrackPointExtension>
            <ns3:atemp>20.0</ns3:atemp>
          </ns3:TrackPointExtension>
        </extensions>
      </trkpt>
      <trkpt lat="43.1606094539165496826171875" lon="13.12175114639103412628173828125">
        <ele>674.20001220703125</ele>
        <time>2021-05-25T09:25:46.000Z</time>
        <extensions>
          <ns3:TrackPointExtension>
            <ns3:atemp>20.0</ns3:atemp>
          </ns3:TrackPointExtension>
        </extensions>
      </trkpt>
      <trkpt lat="43.16061959601938724517822265625" lon="13.12175273895263671875">
        <ele>673.79998779296875</ele>
        <time>2021-05-25T09:26:01.000Z</time>
        <extensions>
          <ns3:TrackPointExtension>
            <ns3:atemp>20.0</ns3:atemp>
          </ns3:TrackPointExtension>
        </extensions>
      </trkpt>
      <trkpt lat="43.160626888275146484375" lon="13.12175114639103412628173828125">
        <ele>674.20001220703125</ele>
        <time>2021-05-25T09:26:19.000Z</time>
        <extensions>
          <ns3:TrackPointExtension>
            <ns3:atemp>20.0</ns3:atemp>
          </ns3:TrackPointExtension>
        </extensions>
      </trkpt>
      <trkpt lat="43.16063560545444488525390625" lon="13.1217549182474613189697265625">
        <ele>674.4000244140625</ele>
        <time>2021-05-25T09:26:29.000Z</time>
        <extensions>
          <ns3:TrackPointExtension>
            <ns3:atemp>20.0</ns3:atemp>
          </ns3:TrackPointExtension>
        </extensions>
      </trkpt>
      <trkpt lat="43.16062177531421184539794921875" lon="13.1217626295983791351318359375">
        <ele>674</ele>
        <time>2021-05-25T09:26:40.000Z</time>
        <extensions>
          <ns3:TrackPointExtension>
            <ns3:atemp>21.0</ns3:atemp>
          </ns3:TrackPointExtension>
        </extensions>
      </trkpt>
      <trkpt lat="43.16062412224709987640380859375" lon="13.1217659823596477508544921875">
        <ele>674</ele>
        <time>2021-05-25T09:26:48.000Z</time>
        <extensions>
          <ns3:TrackPointExtension>
            <ns3:atemp>21.0</ns3:atemp>
          </ns3:TrackPointExtension>
        </extensions>
      </trkpt>
      <trkpt lat="43.16062680445611476898193359375" lon="13.12176950275897979736328125">
        <ele>674</ele>
        <time>2021-05-25T09:26:54.000Z</time>
        <extensions>
          <ns3:TrackPointExtension>
            <ns3:atemp>21.0</ns3:atemp>
          </ns3:TrackPointExtension>
        </extensions>
      </trkpt>
      <trkpt lat="43.16063694655895233154296875" lon="13.12178148888051509857177734375">
        <ele>674.20001220703125</ele>
        <time>2021-05-25T09:27:05.000Z</time>
        <extensions>
          <ns3:TrackPointExtension>
            <ns3:atemp>21.0</ns3:atemp>
          </ns3:TrackPointExtension>
        </extensions>
      </trkpt>
      <trkpt lat="43.16064792685210704803466796875" lon="13.1217656470835208892822265625">
        <ele>674</ele>
        <time>2021-05-25T09:27:15.000Z</time>
        <extensions>
          <ns3:TrackPointExtension>
            <ns3:atemp>21.0</ns3:atemp>
          </ns3:TrackPointExtension>
        </extensions>
      </trkpt>
      <trkpt lat="43.16069126129150390625" lon="13.1217146851122379302978515625">
        <ele>674.20001220703125</ele>
        <time>2021-05-25T09:27:24.000Z</time>
        <extensions>
          <ns3:TrackPointExtension>
            <ns3:atemp>22.0</ns3:atemp>
          </ns3:TrackPointExtension>
        </extensions>
      </trkpt>
      <trkpt lat="43.16074012778699398040771484375" lon="13.121639080345630645751953125">
        <ele>674.20001220703125</ele>
        <time>2021-05-25T09:27:26.000Z</time>
        <extensions>
          <ns3:TrackPointExtension>
            <ns3:atemp>22.0</ns3:atemp>
          </ns3:TrackPointExtension>
        </extensions>
      </trkpt>
      <trkpt lat="43.16080131568014621734619140625" lon="13.121525757014751434326171875">
        <ele>674.20001220703125</ele>
        <time>2021-05-25T09:27:28.000Z</time>
        <extensions>
          <ns3:TrackPointExtension>
            <ns3:atemp>22.0</ns3:atemp>
          </ns3:TrackPointExtension>
        </extensions>
      </trkpt>
      <trkpt lat="43.1609968654811382293701171875" lon="13.1211916543543338775634765625">
        <ele>673.20001220703125</ele>
        <time>2021-05-25T09:27:33.000Z</time>
        <extensions>
          <ns3:TrackPointExtension>
            <ns3:atemp>22.0</ns3:atemp>
          </ns3:TrackPointExtension>
        </extensions>
      </trkpt>
      <trkpt lat="43.1610340811312198638916015625" lon="13.1211282871663570404052734375">
        <ele>672.5999755859375</ele>
        <time>2021-05-25T09:27:34.000Z</time>
        <extensions>
          <ns3:TrackPointExtension>
            <ns3:atemp>22.0</ns3:atemp>
          </ns3:TrackPointExtension>
        </extensions>
      </trkpt>
      <trkpt lat="43.16106869839131832122802734375" lon="13.12105930410325527191162109375">
        <ele>671.79998779296875</ele>
        <time>2021-05-25T09:27:35.000Z</time>
        <extensions>
          <ns3:TrackPointExtension>
            <ns3:atemp>22.0</ns3:atemp>
          </ns3:TrackPointExtension>
        </extensions>
      </trkpt>
      <trkpt lat="43.1611041538417339324951171875" lon="13.12099157832562923431396484375">
        <ele>670.5999755859375</ele>
        <time>2021-05-25T09:27:36.000Z</time>
        <extensions>
          <ns3:TrackPointExtension>
            <ns3:atemp>22.0</ns3:atemp>
          </ns3:TrackPointExtension>
        </extensions>
      </trkpt>
      <trkpt lat="43.16114128567278385162353515625" lon="13.12092435546219348907470703125">
        <ele>669.5999755859375</ele>
        <time>2021-05-25T09:27:37.000Z</time>
        <extensions>
          <ns3:TrackPointExtension>
            <ns3:atemp>22.0</ns3:atemp>
          </ns3:TrackPointExtension>
        </extensions>
      </trkpt>
      <trkpt lat="43.1611822731792926788330078125" lon="13.12085797078907489776611328125">
        <ele>668.5999755859375</ele>
        <time>2021-05-25T09:27:38.000Z</time>
        <extensions>
          <ns3:TrackPointExtension>
            <ns3:atemp>22.0</ns3:atemp>
          </ns3:TrackPointExtension>
        </extensions>
      </trkpt>
      <trkpt lat="43.16127355210483074188232421875" lon="13.12073148787021636962890625">
        <ele>666.79998779296875</ele>
        <time>2021-05-25T09:27:40.000Z</time>
        <extensions>
          <ns3:TrackPointExtension>
            <ns3:atemp>22.0</ns3:atemp>
          </ns3:TrackPointExtension>
        </extensions>
      </trkpt>
      <trkpt lat="43.161364495754241943359375" lon="13.12061087228357791900634765625">
        <ele>665</ele>
        <time>2021-05-25T09:27:42.000Z</time>
        <extensions>
          <ns3:TrackPointExtension>
            <ns3:atemp>22.0</ns3:atemp>
          </ns3:TrackPointExtension>
        </extensions>
      </trkpt>
      <trkpt lat="43.16145560704171657562255859375" lon="13.12047625891864299774169921875">
        <ele>663.79998779296875</ele>
        <time>2021-05-25T09:27:44.000Z</time>
        <extensions>
          <ns3:TrackPointExtension>
            <ns3:atemp>22.0</ns3:atemp>
          </ns3:TrackPointExtension>
        </extensions>
      </trkpt>
      <trkpt lat="43.161599524319171905517578125" lon="13.12025145627558231353759765625">
        <ele>661.20001220703125</ele>
        <time>2021-05-25T09:27:47.000Z</time>
        <extensions>
          <ns3:TrackPointExtension>
            <ns3:atemp>22.0</ns3:atemp>
          </ns3:TrackPointExtension>
        </extensions>
      </trkpt>
      <trkpt lat="43.16165325231850147247314453125" lon="13.1201868318021297454833984375">
        <ele>660.20001220703125</ele>
        <time>2021-05-25T09:27:48.000Z</time>
        <extensions>
          <ns3:TrackPointExtension>
            <ns3:atemp>22.0</ns3:atemp>
          </ns3:TrackPointExtension>
        </extensions>
      </trkpt>
      <trkpt lat="43.1617113389074802398681640625" lon="13.12012790702283382415771484375">
        <ele>659</ele>
        <time>2021-05-25T09:27:49.000Z</time>
        <extensions>
          <ns3:TrackPointExtension>
            <ns3:atemp>22.0</ns3:atemp>
          </ns3:TrackPointExtension>
        </extensions>
      </trkpt>
      <trkpt lat="43.16177244298160076141357421875" lon="13.1200775317847728729248046875">
        <ele>657.79998779296875</ele>
        <time>2021-05-25T09:27:50.000Z</time>
        <extensions>
          <ns3:TrackPointExtension>
            <ns3:atemp>22.0</ns3:atemp>
          </ns3:TrackPointExtension>
        </extensions>
      </trkpt>
      <trkpt lat="43.16183564253151416778564453125" lon="13.1200376339256763458251953125">
        <ele>656.4000244140625</ele>
        <time>2021-05-25T09:27:51.000Z</time>
        <extensions>
          <ns3:TrackPointExtension>
            <ns3:atemp>22.0</ns3:atemp>
          </ns3:TrackPointExtension>
        </extensions>
      </trkpt>
      <trkpt lat="43.161904625594615936279296875" lon="13.1200101412832736968994140625">
        <ele>654.79998779296875</ele>
        <time>2021-05-25T09:27:52.000Z</time>
        <extensions>
          <ns3:TrackPointExtension>
            <ns3:atemp>22.0</ns3:atemp>
          </ns3:TrackPointExtension>
        </extensions>
      </trkpt>
      <trkpt lat="43.16197729669511318206787109375" lon="13.12000058591365814208984375">
        <ele>653</ele>
        <time>2021-05-25T09:27:53.000Z</time>
        <extensions>
          <ns3:TrackPointExtension>
            <ns3:atemp>22.0</ns3:atemp>
          </ns3:TrackPointExtension>
        </extensions>
      </trkpt>
      <trkpt lat="43.1620444357395172119140625" lon="13.12000804580748081207275390625">
        <ele>651.20001220703125</ele>
        <time>2021-05-25T09:27:54.000Z</time>
        <extensions>
          <ns3:TrackPointExtension>
            <ns3:atemp>22.0</ns3:atemp>
          </ns3:TrackPointExtension>
        </extensions>
      </trkpt>
      <trkpt lat="43.16210185177624225616455078125" lon="13.1200329400599002838134765625">
        <ele>650</ele>
        <time>2021-05-25T09:27:55.000Z</time>
        <extensions>
          <ns3:TrackPointExtension>
            <ns3:atemp>22.0</ns3:atemp>
          </ns3:TrackPointExtension>
        </extensions>
      </trkpt>
      <trkpt lat="43.1621542386710643768310546875" lon="13.12008063308894634246826171875">
        <ele>649</ele>
        <time>2021-05-25T09:27:56.000Z</time>
        <extensions>
          <ns3:TrackPointExtension>
            <ns3:atemp>22.0</ns3:atemp>
          </ns3:TrackPointExtension>
        </extensions>
      </trkpt>
      <trkpt lat="43.16220561973750591278076171875" lon="13.1201492808759212493896484375">
        <ele>647.79998779296875</ele>
        <time>2021-05-25T09:27:57.000Z</time>
        <extensions>
          <ns3:TrackPointExtension>
            <ns3:atemp>22.0</ns3:atemp>
          </ns3:TrackPointExtension>
        </extensions>
      </trkpt>
      <trkpt lat="43.16225792281329631805419921875" lon="13.1202263943850994110107421875">
        <ele>646.79998779296875</ele>
        <time>2021-05-25T09:27:58.000Z</time>
        <extensions>
          <ns3:TrackPointExtension>
            <ns3:atemp>22.0</ns3:atemp>
          </ns3:TrackPointExtension>
        </extensions>
      </trkpt>
      <trkpt lat="43.1623113155364990234375" lon="13.120306693017482757568359375">
        <ele>645.79998779296875</ele>
        <time>2021-05-25T09:27:59.000Z</time>
        <extensions>
          <ns3:TrackPointExtension>
            <ns3:atemp>22.0</ns3:atemp>
          </ns3:TrackPointExtension>
        </extensions>
      </trkpt>
      <trkpt lat="43.1623668037354946136474609375" lon="13.12038824893534183502197265625">
        <ele>644.5999755859375</ele>
        <time>2021-05-25T09:28:00.000Z</time>
        <extensions>
          <ns3:TrackPointExtension>
            <ns3:atemp>22.0</ns3:atemp>
          </ns3:TrackPointExtension>
        </extensions>
      </trkpt>
      <trkpt lat="43.16242639906704425811767578125" lon="13.12047307379543781280517578125">
        <ele>643.4000244140625</ele>
        <time>2021-05-25T09:28:01.000Z</time>
        <extensions>
          <ns3:TrackPointExtension>
            <ns3:atemp>22.0</ns3:atemp>
          </ns3:TrackPointExtension>
        </extensions>
      </trkpt>
      <trkpt lat="43.16249177791178226470947265625" lon="13.12056326307356357574462890625">
        <ele>641.79998779296875</ele>
        <time>2021-05-25T09:28:02.000Z</time>
        <extensions>
          <ns3:TrackPointExtension>
            <ns3:atemp>22.0</ns3:atemp>
          </ns3:TrackPointExtension>
        </extensions>
      </trkpt>
      <trkpt lat="43.162566460669040679931640625" lon="13.12065596692264080047607421875">
        <ele>640.20001220703125</ele>
        <time>2021-05-25T09:28:03.000Z</time>
        <extensions>
          <ns3:TrackPointExtension>
            <ns3:atemp>22.0</ns3:atemp>
          </ns3:TrackPointExtension>
        </extensions>
      </trkpt>
      <trkpt lat="43.16271037794649600982666015625" lon="13.12084539793431758880615234375">
        <ele>638.5999755859375</ele>
        <time>2021-05-25T09:28:05.000Z</time>
        <extensions>
          <ns3:TrackPointExtension>
            <ns3:atemp>22.0</ns3:atemp>
          </ns3:TrackPointExtension>
        </extensions>
      </trkpt>
      <trkpt lat="43.1628356873989105224609375" lon="13.12103927135467529296875">
        <ele>637.20001220703125</ele>
        <time>2021-05-25T09:28:07.000Z</time>
        <extensions>
          <ns3:TrackPointExtension>
            <ns3:atemp>22.0</ns3:atemp>
          </ns3:TrackPointExtension>
        </extensions>
      </trkpt>
      <trkpt lat="43.16295211203396320343017578125" lon="13.12122375704348087310791015625">
        <ele>635.5999755859375</ele>
        <time>2021-05-25T09:28:09.000Z</time>
        <extensions>
          <ns3:TrackPointExtension>
            <ns3:atemp>22.0</ns3:atemp>
          </ns3:TrackPointExtension>
        </extensions>
      </trkpt>
      <trkpt lat="43.16300793550908565521240234375" lon="13.12131243757903575897216796875">
        <ele>634.4000244140625</ele>
        <time>2021-05-25T09:28:10.000Z</time>
        <extensions>
          <ns3:TrackPointExtension>
            <ns3:atemp>22.0</ns3:atemp>
          </ns3:TrackPointExtension>
        </extensions>
      </trkpt>
      <trkpt lat="43.16312377341091632843017578125" lon="13.1214766390621662139892578125">
        <ele>633</ele>
        <time>2021-05-25T09:28:12.000Z</time>
        <extensions>
          <ns3:TrackPointExtension>
            <ns3:atemp>22.0</ns3:atemp>
          </ns3:TrackPointExtension>
        </extensions>
      </trkpt>
      <trkpt lat="43.1631798483431339263916015625" lon="13.121556602418422698974609375">
        <ele>632.79998779296875</ele>
        <time>2021-05-25T09:28:13.000Z</time>
        <extensions>
          <ns3:TrackPointExtension>
            <ns3:atemp>22.0</ns3:atemp>
          </ns3:TrackPointExtension>
        </extensions>
      </trkpt>
      <trkpt lat="43.163393922150135040283203125" lon="13.1219632923603057861328125">
        <ele>632.5999755859375</ele>
        <time>2021-05-25T09:28:18.000Z</time>
        <extensions>
          <ns3:TrackPointExtension>
            <ns3:atemp>22.0</ns3:atemp>
          </ns3:TrackPointExtension>
        </extensions>
      </trkpt>
      <trkpt lat="43.16352912224829196929931640625" lon="13.12234357930719852447509765625">
        <ele>632.79998779296875</ele>
        <time>2021-05-25T09:28:23.000Z</time>
        <extensions>
          <ns3:TrackPointExtension>
            <ns3:atemp>22.0</ns3:atemp>
          </ns3:TrackPointExtension>
        </extensions>
      </trkpt>
      <trkpt lat="43.16362668760120868682861328125" lon="13.12261280603706836700439453125">
        <ele>633.20001220703125</ele>
        <time>2021-05-25T09:28:27.000Z</time>
        <extensions>
          <ns3:TrackPointExtension>
            <ns3:atemp>22.0</ns3:atemp>
          </ns3:TrackPointExtension>
        </extensions>
      </trkpt>
      <trkpt lat="43.16364278085529804229736328125" lon="13.1226767599582672119140625">
        <ele>633.20001220703125</ele>
        <time>2021-05-25T09:28:28.000Z</time>
        <extensions>
          <ns3:TrackPointExtension>
            <ns3:atemp>22.0</ns3:atemp>
          </ns3:TrackPointExtension>
        </extensions>
      </trkpt>
      <trkpt lat="43.16374872811138629913330078125" lon="13.12302553094923496246337890625">
        <ele>633.5999755859375</ele>
        <time>2021-05-25T09:28:33.000Z</time>
        <extensions>
          <ns3:TrackPointExtension>
            <ns3:atemp>22.0</ns3:atemp>
          </ns3:TrackPointExtension>
        </extensions>
      </trkpt>
      <trkpt lat="43.163878060877323150634765625" lon="13.12334052287042140960693359375">
        <ele>633.79998779296875</ele>
        <time>2021-05-25T09:28:38.000Z</time>
        <extensions>
          <ns3:TrackPointExtension>
            <ns3:atemp>22.0</ns3:atemp>
          </ns3:TrackPointExtension>
        </extensions>
      </trkpt>
      <trkpt lat="43.16400638781487941741943359375" lon="13.12336868606507778167724609375">
        <ele>633.79998779296875</ele>
        <time>2021-05-25T09:28:41.000Z</time>
        <extensions>
          <ns3:TrackPointExtension>
            <ns3:atemp>21.0</ns3:atemp>
          </ns3:TrackPointExtension>
        </extensions>
      </trkpt>
      <trkpt lat="43.1640720181167125701904296875" lon="13.12323130667209625244140625">
        <ele>633.4000244140625</ele>
        <time>2021-05-25T09:28:44.000Z</time>
        <extensions>
          <ns3:TrackPointExtension>
            <ns3:atemp>21.0</ns3:atemp>
          </ns3:TrackPointExtension>
        </extensions>
      </trkpt>
      <trkpt lat="43.16409221850335597991943359375" lon="13.12296031974256038665771484375">
        <ele>632.5999755859375</ele>
        <time>2021-05-25T09:28:48.000Z</time>
        <extensions>
          <ns3:TrackPointExtension>
            <ns3:atemp>21.0</ns3:atemp>
          </ns3:TrackPointExtension>
        </extensions>
      </trkpt>
      <trkpt lat="43.16411619074642658233642578125" lon="13.12272478826344013214111328125">
        <ele>631.79998779296875</ele>
        <time>2021-05-25T09:28:51.000Z</time>
        <extensions>
          <ns3:TrackPointExtension>
            <ns3:atemp>21.0</ns3:atemp>
          </ns3:TrackPointExtension>
        </extensions>
      </trkpt>
      <trkpt lat="43.16414921544492244720458984375" lon="13.12254424206912517547607421875">
        <ele>631.4000244140625</ele>
        <time>2021-05-25T09:28:53.000Z</time>
        <extensions>
          <ns3:TrackPointExtension>
            <ns3:atemp>21.0</ns3:atemp>
          </ns3:TrackPointExtension>
        </extensions>
      </trkpt>
      <trkpt lat="43.16418626345694065093994140625" lon="13.1223718263208866119384765625">
        <ele>630.79998779296875</ele>
        <time>2021-05-25T09:28:55.000Z</time>
        <extensions>
          <ns3:TrackPointExtension>
            <ns3:atemp>21.0</ns3:atemp>
          </ns3:TrackPointExtension>
        </extensions>
      </trkpt>
      <trkpt lat="43.16422716714441776275634765625" lon="13.12208038754761219024658203125">
        <ele>629.4000244140625</ele>
        <time>2021-05-25T09:28:58.000Z</time>
        <extensions>
          <ns3:TrackPointExtension>
            <ns3:atemp>21.0</ns3:atemp>
          </ns3:TrackPointExtension>
        </extensions>
      </trkpt>
      <trkpt lat="43.1642651371657848358154296875" lon="13.12176539562642574310302734375">
        <ele>628</ele>
        <time>2021-05-25T09:29:01.000Z</time>
        <extensions>
          <ns3:TrackPointExtension>
            <ns3:atemp>21.0</ns3:atemp>
          </ns3:TrackPointExtension>
        </extensions>
      </trkpt>
      <trkpt lat="43.16429053433239459991455078125" lon="13.1215490587055683135986328125">
        <ele>627.5999755859375</ele>
        <time>2021-05-25T09:29:03.000Z</time>
        <extensions>
          <ns3:TrackPointExtension>
            <ns3:atemp>21.0</ns3:atemp>
          </ns3:TrackPointExtension>
        </extensions>
      </trkpt>
      <trkpt lat="43.16430620849132537841796875" lon="13.1213267706334590911865234375">
        <ele>626.79998779296875</ele>
        <time>2021-05-25T09:29:05.000Z</time>
        <extensions>
          <ns3:TrackPointExtension>
            <ns3:atemp>21.0</ns3:atemp>
          </ns3:TrackPointExtension>
        </extensions>
      </trkpt>
      <trkpt lat="43.1643124110996723175048828125" lon="13.1210987828671932220458984375">
        <ele>625.5999755859375</ele>
        <time>2021-05-25T09:29:07.000Z</time>
        <extensions>
          <ns3:TrackPointExtension>
            <ns3:atemp>21.0</ns3:atemp>
          </ns3:TrackPointExtension>
        </extensions>
      </trkpt>
      <trkpt lat="43.1643067114055156707763671875" lon="13.12086291611194610595703125">
        <ele>625</ele>
        <time>2021-05-25T09:29:09.000Z</time>
        <extensions>
          <ns3:TrackPointExtension>
            <ns3:atemp>21.0</ns3:atemp>
          </ns3:TrackPointExtension>
        </extensions>
      </trkpt>
      <trkpt lat="43.16429858095943927764892578125" lon="13.12074028886854648590087890625">
        <ele>624.4000244140625</ele>
        <time>2021-05-25T09:29:10.000Z</time>
        <extensions>
          <ns3:TrackPointExtension>
            <ns3:atemp>21.0</ns3:atemp>
          </ns3:TrackPointExtension>
        </extensions>
      </trkpt>
      <trkpt lat="43.1642762012779712677001953125" lon="13.12049671076238155364990234375">
        <ele>622.79998779296875</ele>
        <time>2021-05-25T09:29:12.000Z</time>
        <extensions>
          <ns3:TrackPointExtension>
            <ns3:atemp>21.0</ns3:atemp>
          </ns3:TrackPointExtension>
        </extensions>
      </trkpt>
      <trkpt lat="43.16426103003323078155517578125" lon="13.12012656591832637786865234375">
        <ele>621</ele>
        <time>2021-05-25T09:29:15.000Z</time>
        <extensions>
          <ns3:TrackPointExtension>
            <ns3:atemp>21.0</ns3:atemp>
          </ns3:TrackPointExtension>
        </extensions>
      </trkpt>
      <trkpt lat="43.16426991485059261322021484375" lon="13.11987477354705333709716796875">
        <ele>619.5999755859375</ele>
        <time>2021-05-25T09:29:17.000Z</time>
        <extensions>
          <ns3:TrackPointExtension>
            <ns3:atemp>21.0</ns3:atemp>
          </ns3:TrackPointExtension>
        </extensions>
      </trkpt>
      <trkpt lat="43.1642919592559337615966796875" lon="13.1196175329387187957763671875">
        <ele>617.5999755859375</ele>
        <time>2021-05-25T09:29:19.000Z</time>
        <extensions>
          <ns3:TrackPointExtension>
            <ns3:atemp>21.0</ns3:atemp>
          </ns3:TrackPointExtension>
        </extensions>
      </trkpt>
      <trkpt lat="43.164307214319705963134765625" lon="13.11948518268764019012451171875">
        <ele>616.20001220703125</ele>
        <time>2021-05-25T09:29:20.000Z</time>
        <extensions>
          <ns3:TrackPointExtension>
            <ns3:atemp>21.0</ns3:atemp>
          </ns3:TrackPointExtension>
        </extensions>
      </trkpt>
      <trkpt lat="43.1643271632492542266845703125" lon="13.11935174278914928436279296875">
        <ele>615</ele>
        <time>2021-05-25T09:29:21.000Z</time>
        <extensions>
          <ns3:TrackPointExtension>
            <ns3:atemp>21.0</ns3:atemp>
          </ns3:TrackPointExtension>
        </extensions>
      </trkpt>
      <trkpt lat="43.16437921486794948577880859375" lon="13.1190901435911655426025390625">
        <ele>613.79998779296875</ele>
        <time>2021-05-25T09:29:23.000Z</time>
        <extensions>
          <ns3:TrackPointExtension>
            <ns3:atemp>21.0</ns3:atemp>
          </ns3:TrackPointExtension>
        </extensions>
      </trkpt>
      <trkpt lat="43.16444526426494121551513671875" lon="13.1188440509140491485595703125">
        <ele>613</ele>
        <time>2021-05-25T09:29:25.000Z</time>
        <extensions>
          <ns3:TrackPointExtension>
            <ns3:atemp>21.0</ns3:atemp>
          </ns3:TrackPointExtension>
        </extensions>
      </trkpt>
      <trkpt lat="43.164491616189479827880859375" lon="13.1187307275831699371337890625">
        <ele>612.4000244140625</ele>
        <time>2021-05-25T09:29:26.000Z</time>
        <extensions>
          <ns3:TrackPointExtension>
            <ns3:atemp>21.0</ns3:atemp>
          </ns3:TrackPointExtension>
        </extensions>
      </trkpt>
      <trkpt lat="43.16468029282987117767333984375" lon="13.11844289302825927734375">
        <ele>611.20001220703125</ele>
        <time>2021-05-25T09:29:29.000Z</time>
        <extensions>
          <ns3:TrackPointExtension>
            <ns3:atemp>21.0</ns3:atemp>
          </ns3:TrackPointExtension>
        </extensions>
      </trkpt>
      <trkpt lat="43.1648357771337032318115234375" lon="13.1183128058910369873046875">
        <ele>610.20001220703125</ele>
        <time>2021-05-25T09:29:31.000Z</time>
        <extensions>
          <ns3:TrackPointExtension>
            <ns3:atemp>21.0</ns3:atemp>
          </ns3:TrackPointExtension>
        </extensions>
      </trkpt>
      <trkpt lat="43.1649162434041500091552734375" lon="13.11826209537684917449951171875">
        <ele>609.79998779296875</ele>
        <time>2021-05-25T09:29:32.000Z</time>
        <extensions>
          <ns3:TrackPointExtension>
            <ns3:atemp>21.0</ns3:atemp>
          </ns3:TrackPointExtension>
        </extensions>
      </trkpt>
      <trkpt lat="43.1650754995644092559814453125" lon="13.11817224137485027313232421875">
        <ele>609</ele>
        <time>2021-05-25T09:29:34.000Z</time>
        <extensions>
          <ns3:TrackPointExtension>
            <ns3:atemp>21.0</ns3:atemp>
          </ns3:TrackPointExtension>
        </extensions>
      </trkpt>
      <trkpt lat="43.1651559658348560333251953125" lon="13.11813234351575374603271484375">
        <ele>607.79998779296875</ele>
        <time>2021-05-25T09:29:35.000Z</time>
        <extensions>
          <ns3:TrackPointExtension>
            <ns3:atemp>21.0</ns3:atemp>
          </ns3:TrackPointExtension>
        </extensions>
      </trkpt>
      <trkpt lat="43.16523827612400054931640625" lon="13.118097893893718719482421875">
        <ele>606.79998779296875</ele>
        <time>2021-05-25T09:29:36.000Z</time>
        <extensions>
          <ns3:TrackPointExtension>
            <ns3:atemp>21.0</ns3:atemp>
          </ns3:TrackPointExtension>
        </extensions>
      </trkpt>
      <trkpt lat="43.1654114462435245513916015625" lon="13.118032850325107574462890625">
        <ele>605.4000244140625</ele>
        <time>2021-05-25T09:29:38.000Z</time>
        <extensions>
          <ns3:TrackPointExtension>
            <ns3:atemp>21.0</ns3:atemp>
          </ns3:TrackPointExtension>
        </extensions>
      </trkpt>
      <trkpt lat="43.1655009649693965911865234375" lon="13.118005692958831787109375">
        <ele>603.5999755859375</ele>
        <time>2021-05-25T09:29:39.000Z</time>
        <extensions>
          <ns3:TrackPointExtension>
            <ns3:atemp>21.0</ns3:atemp>
          </ns3:TrackPointExtension>
        </extensions>
      </trkpt>
      <trkpt lat="43.16559542901813983917236328125" lon="13.1179820559918880462646484375">
        <ele>602</ele>
        <time>2021-05-25T09:29:40.000Z</time>
        <extensions>
          <ns3:TrackPointExtension>
            <ns3:atemp>21.0</ns3:atemp>
          </ns3:TrackPointExtension>
        </extensions>
      </trkpt>
      <trkpt lat="43.16569215618073940277099609375" lon="13.11795950867235660552978515625">
        <ele>601.20001220703125</ele>
        <time>2021-05-25T09:29:41.000Z</time>
        <extensions>
          <ns3:TrackPointExtension>
            <ns3:atemp>21.0</ns3:atemp>
          </ns3:TrackPointExtension>
        </extensions>
      </trkpt>
      <trkpt lat="43.1657919846475124359130859375" lon="13.117940984666347503662109375">
        <ele>600.5999755859375</ele>
        <time>2021-05-25T09:29:42.000Z</time>
        <extensions>
          <ns3:TrackPointExtension>
            <ns3:atemp>21.0</ns3:atemp>
          </ns3:TrackPointExtension>
        </extensions>
      </trkpt>
      <trkpt lat="43.16589315421879291534423828125" lon="13.1179210357367992401123046875">
        <ele>600.20001220703125</ele>
        <time>2021-05-25T09:29:43.000Z</time>
        <extensions>
          <ns3:TrackPointExtension>
            <ns3:atemp>21.0</ns3:atemp>
          </ns3:TrackPointExtension>
        </extensions>
      </trkpt>
      <trkpt lat="43.166198171675205230712890625" lon="13.11787049286067485809326171875">
        <ele>599.4000244140625</ele>
        <time>2021-05-25T09:29:46.000Z</time>
        <extensions>
          <ns3:TrackPointExtension>
            <ns3:atemp>21.0</ns3:atemp>
          </ns3:TrackPointExtension>
        </extensions>
      </trkpt>
      <trkpt lat="43.1664863415062427520751953125" lon="13.11781969852745532989501953125">
        <ele>598.5999755859375</ele>
        <time>2021-05-25T09:29:49.000Z</time>
        <extensions>
          <ns3:TrackPointExtension>
            <ns3:atemp>21.0</ns3:atemp>
          </ns3:TrackPointExtension>
        </extensions>
      </trkpt>
      <trkpt lat="43.166680298745632171630859375" lon="13.1178020127117633819580078125">
        <ele>597.79998779296875</ele>
        <time>2021-05-25T09:29:51.000Z</time>
        <extensions>
          <ns3:TrackPointExtension>
            <ns3:atemp>21.0</ns3:atemp>
          </ns3:TrackPointExtension>
        </extensions>
      </trkpt>
      <trkpt lat="43.1668742559850215911865234375" lon="13.11779187060892581939697265625">
        <ele>595.79998779296875</ele>
        <time>2021-05-25T09:29:53.000Z</time>
        <extensions>
          <ns3:TrackPointExtension>
            <ns3:atemp>21.0</ns3:atemp>
          </ns3:TrackPointExtension>
        </extensions>
      </trkpt>
      <trkpt lat="43.16706896759569644927978515625" lon="13.117796480655670166015625">
        <ele>594.4000244140625</ele>
        <time>2021-05-25T09:29:55.000Z</time>
        <extensions>
          <ns3:TrackPointExtension>
            <ns3:atemp>21.0</ns3:atemp>
          </ns3:TrackPointExtension>
        </extensions>
      </trkpt>
      <trkpt lat="43.16744229756295680999755859375" lon="13.1178023479878902435302734375">
        <ele>592.79998779296875</ele>
        <time>2021-05-25T09:29:59.000Z</time>
        <extensions>
          <ns3:TrackPointExtension>
            <ns3:atemp>21.0</ns3:atemp>
          </ns3:TrackPointExtension>
        </extensions>
      </trkpt>
      <trkpt lat="43.16761747933924198150634765625" lon="13.117813579738140106201171875">
        <ele>592</ele>
        <time>2021-05-25T09:30:01.000Z</time>
        <extensions>
          <ns3:TrackPointExtension>
            <ns3:atemp>20.0</ns3:atemp>
          </ns3:TrackPointExtension>
        </extensions>
      </trkpt>
      <trkpt lat="43.1677010469138622283935546875" lon="13.11781969852745532989501953125">
        <ele>591.79998779296875</ele>
        <time>2021-05-25T09:30:02.000Z</time>
        <extensions>
          <ns3:TrackPointExtension>
            <ns3:atemp>20.0</ns3:atemp>
          </ns3:TrackPointExtension>
        </extensions>
      </trkpt>
      <trkpt lat="43.1680135242640972137451171875" lon="13.11785507015883922576904296875">
        <ele>590.5999755859375</ele>
        <time>2021-05-25T09:30:06.000Z</time>
        <extensions>
          <ns3:TrackPointExtension>
            <ns3:atemp>20.0</ns3:atemp>
          </ns3:TrackPointExtension>
        </extensions>
      </trkpt>
      <trkpt lat="43.1680889613926410675048828125" lon="13.1178737618029117584228515625">
        <ele>589.79998779296875</ele>
        <time>2021-05-25T09:30:07.000Z</time>
        <extensions>
          <ns3:TrackPointExtension>
            <ns3:atemp>20.0</ns3:atemp>
          </ns3:TrackPointExtension>
        </extensions>
      </trkpt>
      <trkpt lat="43.1681623868644237518310546875" lon="13.11789731495082378387451171875">
        <ele>588.5999755859375</ele>
        <time>2021-05-25T09:30:08.000Z</time>
        <extensions>
          <ns3:TrackPointExtension>
            <ns3:atemp>20.0</ns3:atemp>
          </ns3:TrackPointExtension>
        </extensions>
      </trkpt>
      <trkpt lat="43.1682354770600795745849609375" lon="13.117931596934795379638671875">
        <ele>588</ele>
        <time>2021-05-25T09:30:09.000Z</time>
        <extensions>
          <ns3:TrackPointExtension>
            <ns3:atemp>20.0</ns3:atemp>
          </ns3:TrackPointExtension>
        </extensions>
      </trkpt>
      <trkpt lat="43.16830915398895740509033203125" lon="13.11797191388905048370361328125">
        <ele>587.20001220703125</ele>
        <time>2021-05-25T09:30:10.000Z</time>
        <extensions>
          <ns3:TrackPointExtension>
            <ns3:atemp>20.0</ns3:atemp>
          </ns3:TrackPointExtension>
        </extensions>
      </trkpt>
      <trkpt lat="43.16838626749813556671142578125" lon="13.118010722100734710693359375">
        <ele>586.20001220703125</ele>
        <time>2021-05-25T09:30:11.000Z</time>
        <extensions>
          <ns3:TrackPointExtension>
            <ns3:atemp>20.0</ns3:atemp>
          </ns3:TrackPointExtension>
        </extensions>
      </trkpt>
      <trkpt lat="43.1684656441211700439453125" lon="13.11803159303963184356689453125">
        <ele>585.20001220703125</ele>
        <time>2021-05-25T09:30:12.000Z</time>
        <extensions>
          <ns3:TrackPointExtension>
            <ns3:atemp>20.0</ns3:atemp>
          </ns3:TrackPointExtension>
        </extensions>
      </trkpt>
      <trkpt lat="43.1685472838580608367919921875" lon="13.11802874319255352020263671875">
        <ele>584.5999755859375</ele>
        <time>2021-05-25T09:30:13.000Z</time>
        <extensions>
          <ns3:TrackPointExtension>
            <ns3:atemp>20.0</ns3:atemp>
          </ns3:TrackPointExtension>
        </extensions>
      </trkpt>
      <trkpt lat="43.16862850449979305267333984375" lon="13.11801600269973278045654296875">
        <ele>584.20001220703125</ele>
        <time>2021-05-25T09:30:14.000Z</time>
        <extensions>
          <ns3:TrackPointExtension>
            <ns3:atemp>20.0</ns3:atemp>
          </ns3:TrackPointExtension>
        </extensions>
      </trkpt>
      <trkpt lat="43.16879245452582836151123046875" lon="13.1179864145815372467041015625">
        <ele>582.4000244140625</ele>
        <time>2021-05-25T09:30:16.000Z</time>
        <extensions>
          <ns3:TrackPointExtension>
            <ns3:atemp>20.0</ns3:atemp>
          </ns3:TrackPointExtension>
        </extensions>
      </trkpt>
      <trkpt lat="43.16895908676087856292724609375" lon="13.11797685921192169189453125">
        <ele>580.5999755859375</ele>
        <time>2021-05-25T09:30:18.000Z</time>
        <extensions>
          <ns3:TrackPointExtension>
            <ns3:atemp>20.0</ns3:atemp>
          </ns3:TrackPointExtension>
        </extensions>
      </trkpt>
      <trkpt lat="43.1691226176917552947998046875" lon="13.1179743446409702301025390625">
        <ele>579.4000244140625</ele>
        <time>2021-05-25T09:30:20.000Z</time>
        <extensions>
          <ns3:TrackPointExtension>
            <ns3:atemp>20.0</ns3:atemp>
          </ns3:TrackPointExtension>
        </extensions>
      </trkpt>
      <trkpt lat="43.1694813631474971771240234375" lon="13.117993287742137908935546875">
        <ele>578.20001220703125</ele>
        <time>2021-05-25T09:30:25.000Z</time>
        <extensions>
          <ns3:TrackPointExtension>
            <ns3:atemp>20.0</ns3:atemp>
          </ns3:TrackPointExtension>
        </extensions>
      </trkpt>
      <trkpt lat="43.16963181830942630767822265625" lon="13.118015415966510772705078125">
        <ele>577.4000244140625</ele>
        <time>2021-05-25T09:30:27.000Z</time>
        <extensions>
          <ns3:TrackPointExtension>
            <ns3:atemp>20.0</ns3:atemp>
          </ns3:TrackPointExtension>
        </extensions>
      </trkpt>
      <trkpt lat="43.1697093509137630462646484375" lon="13.11802824027836322784423828125">
        <ele>577</ele>
        <time>2021-05-25T09:30:28.000Z</time>
        <extensions>
          <ns3:TrackPointExtension>
            <ns3:atemp>20.0</ns3:atemp>
          </ns3:TrackPointExtension>
        </extensions>
      </trkpt>
      <trkpt lat="43.17018955014646053314208984375" lon="13.11814290471374988555908203125">
        <ele>575.79998779296875</ele>
        <time>2021-05-25T09:30:34.000Z</time>
        <extensions>
          <ns3:TrackPointExtension>
            <ns3:atemp>20.0</ns3:atemp>
          </ns3:TrackPointExtension>
        </extensions>
      </trkpt>
      <trkpt lat="43.1705036200582981109619140625" lon="13.11824239790439605712890625">
        <ele>574.79998779296875</ele>
        <time>2021-05-25T09:30:38.000Z</time>
        <extensions>
          <ns3:TrackPointExtension>
            <ns3:atemp>20.0</ns3:atemp>
          </ns3:TrackPointExtension>
        </extensions>
      </trkpt>
      <trkpt lat="43.17065491341054439544677734375" lon="13.11830065213143825531005859375">
        <ele>574.20001220703125</ele>
        <time>2021-05-25T09:30:40.000Z</time>
        <extensions>
          <ns3:TrackPointExtension>
            <ns3:atemp>20.0</ns3:atemp>
          </ns3:TrackPointExtension>
        </extensions>
      </trkpt>
      <trkpt lat="43.1707295961678028106689453125" lon="13.11833434738218784332275390625">
        <ele>573.5999755859375</ele>
        <time>2021-05-25T09:30:41.000Z</time>
        <extensions>
          <ns3:TrackPointExtension>
            <ns3:atemp>20.0</ns3:atemp>
          </ns3:TrackPointExtension>
        </extensions>
      </trkpt>
      <trkpt lat="43.17080318927764892578125" lon="13.118362762033939361572265625">
        <ele>573</ele>
        <time>2021-05-25T09:30:42.000Z</time>
        <extensions>
          <ns3:TrackPointExtension>
            <ns3:atemp>20.0</ns3:atemp>
          </ns3:TrackPointExtension>
        </extensions>
      </trkpt>
      <trkpt lat="43.1708771176636219024658203125" lon="13.11838933266699314117431640625">
        <ele>572.4000244140625</ele>
        <time>2021-05-25T09:30:43.000Z</time>
        <extensions>
          <ns3:TrackPointExtension>
            <ns3:atemp>20.0</ns3:atemp>
          </ns3:TrackPointExtension>
        </extensions>
      </trkpt>
      <trkpt lat="43.171088509261608123779296875" lon="13.11847298406064510345458984375">
        <ele>571.5999755859375</ele>
        <time>2021-05-25T09:30:46.000Z</time>
        <extensions>
          <ns3:TrackPointExtension>
            <ns3:atemp>20.0</ns3:atemp>
          </ns3:TrackPointExtension>
        </extensions>
      </trkpt>
      <trkpt lat="43.17122924141585826873779296875" lon="13.1185349263250827789306640625">
        <ele>571.4000244140625</ele>
        <time>2021-05-25T09:30:48.000Z</time>
        <extensions>
          <ns3:TrackPointExtension>
            <ns3:atemp>20.0</ns3:atemp>
          </ns3:TrackPointExtension>
        </extensions>
      </trkpt>
      <trkpt lat="43.17150617949664592742919921875" lon="13.11870331875979900360107421875">
        <ele>571</ele>
        <time>2021-05-25T09:30:52.000Z</time>
        <extensions>
          <ns3:TrackPointExtension>
            <ns3:atemp>20.0</ns3:atemp>
          </ns3:TrackPointExtension>
        </extensions>
      </trkpt>
      <trkpt lat="43.17170416004955768585205078125" lon="13.11883642338216304779052734375">
        <ele>570.20001220703125</ele>
        <time>2021-05-25T09:30:55.000Z</time>
        <extensions>
          <ns3:TrackPointExtension>
            <ns3:atemp>20.0</ns3:atemp>
          </ns3:TrackPointExtension>
        </extensions>
      </trkpt>
      <trkpt lat="43.171958215534687042236328125" lon="13.11901696957647800445556640625">
        <ele>569.79998779296875</ele>
        <time>2021-05-25T09:30:59.000Z</time>
        <extensions>
          <ns3:TrackPointExtension>
            <ns3:atemp>20.0</ns3:atemp>
          </ns3:TrackPointExtension>
        </extensions>
      </trkpt>
      <trkpt lat="43.17239315249025821685791015625" lon="13.11938770115375518798828125">
        <ele>569</ele>
        <time>2021-05-25T09:31:06.000Z</time>
        <extensions>
          <ns3:TrackPointExtension>
            <ns3:atemp>19.0</ns3:atemp>
          </ns3:TrackPointExtension>
        </extensions>
      </trkpt>
      <trkpt lat="43.17251242697238922119140625" lon="13.11951753683388233184814453125">
        <ele>568.5999755859375</ele>
        <time>2021-05-25T09:31:08.000Z</time>
        <extensions>
          <ns3:TrackPointExtension>
            <ns3:atemp>19.0</ns3:atemp>
          </ns3:TrackPointExtension>
        </extensions>
      </trkpt>
      <trkpt lat="43.172704875469207763671875" lon="13.1197368912398815155029296875">
        <ele>568</ele>
        <time>2021-05-25T09:31:11.000Z</time>
        <extensions>
          <ns3:TrackPointExtension>
            <ns3:atemp>19.0</ns3:atemp>
          </ns3:TrackPointExtension>
        </extensions>
      </trkpt>
      <trkpt lat="43.17279766313731670379638671875" lon="13.119909055531024932861328125">
        <ele>567.5999755859375</ele>
        <time>2021-05-25T09:31:13.000Z</time>
        <extensions>
          <ns3:TrackPointExtension>
            <ns3:atemp>19.0</ns3:atemp>
          </ns3:TrackPointExtension>
        </extensions>
      </trkpt>
      <trkpt lat="43.172865808010101318359375" lon="13.12010728754103183746337890625">
        <ele>567</ele>
        <time>2021-05-25T09:31:15.000Z</time>
        <extensions>
          <ns3:TrackPointExtension>
            <ns3:atemp>19.0</ns3:atemp>
          </ns3:TrackPointExtension>
        </extensions>
      </trkpt>
      <trkpt lat="43.172903358936309814453125" lon="13.12020351178944110870361328125">
        <ele>566.79998779296875</ele>
        <time>2021-05-25T09:31:16.000Z</time>
        <extensions>
          <ns3:TrackPointExtension>
            <ns3:atemp>19.0</ns3:atemp>
          </ns3:TrackPointExtension>
        </extensions>
      </trkpt>
      <trkpt lat="43.17294501699507236480712890625" lon="13.12029353342950344085693359375">
        <ele>566.5999755859375</ele>
        <time>2021-05-25T09:31:17.000Z</time>
        <extensions>
          <ns3:TrackPointExtension>
            <ns3:atemp>19.0</ns3:atemp>
          </ns3:TrackPointExtension>
        </extensions>
      </trkpt>
      <trkpt lat="43.17311835475265979766845703125" lon="13.1204835511744022369384765625">
        <ele>565.79998779296875</ele>
        <time>2021-05-25T09:31:20.000Z</time>
        <extensions>
          <ns3:TrackPointExtension>
            <ns3:atemp>19.0</ns3:atemp>
          </ns3:TrackPointExtension>
        </extensions>
      </trkpt>
      <trkpt lat="43.173302672803401947021484375" lon="13.120541386306285858154296875">
        <ele>565.4000244140625</ele>
        <time>2021-05-25T09:31:23.000Z</time>
        <extensions>
          <ns3:TrackPointExtension>
            <ns3:atemp>19.0</ns3:atemp>
          </ns3:TrackPointExtension>
        </extensions>
      </trkpt>
      <trkpt lat="43.17337299697101116180419921875" lon="13.12055689282715320587158203125">
        <ele>565.20001220703125</ele>
        <time>2021-05-25T09:31:24.000Z</time>
        <extensions>
          <ns3:TrackPointExtension>
            <ns3:atemp>19.0</ns3:atemp>
          </ns3:TrackPointExtension>
        </extensions>
      </trkpt>
      <trkpt lat="43.1736342608928680419921875" lon="13.12062017619609832763671875">
        <ele>564.79998779296875</ele>
        <time>2021-05-25T09:31:28.000Z</time>
        <extensions>
          <ns3:TrackPointExtension>
            <ns3:atemp>19.0</ns3:atemp>
          </ns3:TrackPointExtension>
        </extensions>
      </trkpt>
      <trkpt lat="43.17369662225246429443359375" lon="13.12062679789960384368896484375">
        <ele>564.5999755859375</ele>
        <time>2021-05-25T09:31:29.000Z</time>
        <extensions>
          <ns3:TrackPointExtension>
            <ns3:atemp>19.0</ns3:atemp>
          </ns3:TrackPointExtension>
        </extensions>
      </trkpt>
      <trkpt lat="43.17400666885077953338623046875" lon="13.12062688171863555908203125">
        <ele>564.79998779296875</ele>
        <time>2021-05-25T09:31:34.000Z</time>
        <extensions>
          <ns3:TrackPointExtension>
            <ns3:atemp>19.0</ns3:atemp>
          </ns3:TrackPointExtension>
        </extensions>
      </trkpt>
      <trkpt lat="43.17435585893690586090087890625" lon="13.1206421367824077606201171875">
        <ele>565.5999755859375</ele>
        <time>2021-05-25T09:31:40.000Z</time>
        <extensions>
          <ns3:TrackPointExtension>
            <ns3:atemp>19.0</ns3:atemp>
          </ns3:TrackPointExtension>
        </extensions>
      </trkpt>
      <trkpt lat="43.1744139455258846282958984375" lon="13.12064087949693202972412109375">
        <ele>565.5999755859375</ele>
        <time>2021-05-25T09:31:41.000Z</time>
        <extensions>
          <ns3:TrackPointExtension>
            <ns3:atemp>19.0</ns3:atemp>
          </ns3:TrackPointExtension>
        </extensions>
      </trkpt>
      <trkpt lat="43.1745219044387340545654296875" lon="13.12060274183750152587890625">
        <ele>565.79998779296875</ele>
        <time>2021-05-25T09:31:43.000Z</time>
        <extensions>
          <ns3:TrackPointExtension>
            <ns3:atemp>19.0</ns3:atemp>
          </ns3:TrackPointExtension>
        </extensions>
      </trkpt>
      <trkpt lat="43.17456037737429141998291015625" lon="13.1205497682094573974609375">
        <ele>565.79998779296875</ele>
        <time>2021-05-25T09:31:44.000Z</time>
        <extensions>
          <ns3:TrackPointExtension>
            <ns3:atemp>19.0</ns3:atemp>
          </ns3:TrackPointExtension>
        </extensions>
      </trkpt>
      <trkpt lat="43.17464587278664112091064453125" lon="13.120335526764392852783203125">
        <ele>566.20001220703125</ele>
        <time>2021-05-25T09:31:48.000Z</time>
        <extensions>
          <ns3:TrackPointExtension>
            <ns3:atemp>19.0</ns3:atemp>
          </ns3:TrackPointExtension>
        </extensions>
      </trkpt>
      <trkpt lat="43.17459306679666042327880859375" lon="13.12017618678510189056396484375">
        <ele>566.5999755859375</ele>
        <time>2021-05-25T09:31:52.000Z</time>
        <extensions>
          <ns3:TrackPointExtension>
            <ns3:atemp>19.0</ns3:atemp>
          </ns3:TrackPointExtension>
        </extensions>
      </trkpt>
      <trkpt lat="43.174533806741237640380859375" lon="13.12007811851799488067626953125">
        <ele>567</ele>
        <time>2021-05-25T09:31:55.000Z</time>
        <extensions>
          <ns3:TrackPointExtension>
            <ns3:atemp>19.0</ns3:atemp>
          </ns3:TrackPointExtension>
        </extensions>
      </trkpt>
      <trkpt lat="43.17447848618030548095703125" lon="13.1200235523283481597900390625">
        <ele>568</ele>
        <time>2021-05-25T09:31:57.000Z</time>
        <extensions>
          <ns3:TrackPointExtension>
            <ns3:atemp>19.0</ns3:atemp>
          </ns3:TrackPointExtension>
        </extensions>
      </trkpt>
      <trkpt lat="43.174445629119873046875" lon="13.11999966390430927276611328125">
        <ele>568.20001220703125</ele>
        <time>2021-05-25T09:31:58.000Z</time>
        <extensions>
          <ns3:TrackPointExtension>
            <ns3:atemp>19.0</ns3:atemp>
          </ns3:TrackPointExtension>
        </extensions>
      </trkpt>
      <trkpt lat="43.1742945872247219085693359375" lon="13.1198710016906261444091796875">
        <ele>569.5999755859375</ele>
        <time>2021-05-25T09:32:03.000Z</time>
        <extensions>
          <ns3:TrackPointExtension>
            <ns3:atemp>19.0</ns3:atemp>
          </ns3:TrackPointExtension>
        </extensions>
      </trkpt>
      <trkpt lat="43.17416600883007049560546875" lon="13.119733035564422607421875">
        <ele>570.5999755859375</ele>
        <time>2021-05-25T09:32:08.000Z</time>
        <extensions>
          <ns3:TrackPointExtension>
            <ns3:atemp>19.0</ns3:atemp>
          </ns3:TrackPointExtension>
        </extensions>
      </trkpt>
      <trkpt lat="43.174083866178989410400390625" lon="13.11966271139681339263916015625">
        <ele>571</ele>
        <time>2021-05-25T09:32:11.000Z</time>
        <extensions>
          <ns3:TrackPointExtension>
            <ns3:atemp>19.0</ns3:atemp>
          </ns3:TrackPointExtension>
        </extensions>
      </trkpt>
      <trkpt lat="43.17402963526546955108642578125" lon="13.11960806138813495635986328125">
        <ele>571.79998779296875</ele>
        <time>2021-05-25T09:32:13.000Z</time>
        <extensions>
          <ns3:TrackPointExtension>
            <ns3:atemp>19.0</ns3:atemp>
          </ns3:TrackPointExtension>
        </extensions>
      </trkpt>
      <trkpt lat="43.17395755089819431304931640625" lon="13.119512088596820831298828125">
        <ele>572.5999755859375</ele>
        <time>2021-05-25T09:32:16.000Z</time>
        <extensions>
          <ns3:TrackPointExtension>
            <ns3:atemp>19.0</ns3:atemp>
          </ns3:TrackPointExtension>
        </extensions>
      </trkpt>
      <trkpt lat="43.1739100255072116851806640625" lon="13.11945282854139804840087890625">
        <ele>573</ele>
        <time>2021-05-25T09:32:18.000Z</time>
        <extensions>
          <ns3:TrackPointExtension>
            <ns3:atemp>19.0</ns3:atemp>
          </ns3:TrackPointExtension>
        </extensions>
      </trkpt>
      <trkpt lat="43.17383609712123870849609375" lon="13.11935559846460819244384765625">
        <ele>573.79998779296875</ele>
        <time>2021-05-25T09:32:21.000Z</time>
        <extensions>
          <ns3:TrackPointExtension>
            <ns3:atemp>19.0</ns3:atemp>
          </ns3:TrackPointExtension>
        </extensions>
      </trkpt>
      <trkpt lat="43.173759989440441131591796875" lon="13.11919986270368099212646484375">
        <ele>575</ele>
        <time>2021-05-25T09:32:25.000Z</time>
        <extensions>
          <ns3:TrackPointExtension>
            <ns3:atemp>19.0</ns3:atemp>
          </ns3:TrackPointExtension>
        </extensions>
      </trkpt>
      <trkpt lat="43.1736391223967075347900390625" lon="13.118917979300022125244140625">
        <ele>576.20001220703125</ele>
        <time>2021-05-25T09:32:32.000Z</time>
        <extensions>
          <ns3:TrackPointExtension>
            <ns3:atemp>19.0</ns3:atemp>
          </ns3:TrackPointExtension>
        </extensions>
      </trkpt>
      <trkpt lat="43.17355505190789699554443359375" lon="13.11870097182691097259521484375">
        <ele>577.20001220703125</ele>
        <time>2021-05-25T09:32:37.000Z</time>
        <extensions>
          <ns3:TrackPointExtension>
            <ns3:atemp>19.0</ns3:atemp>
          </ns3:TrackPointExtension>
        </extensions>
      </trkpt>
      <trkpt lat="43.1735257990658283233642578125" lon="13.1186132133007049560546875">
        <ele>578.5999755859375</ele>
        <time>2021-05-25T09:32:39.000Z</time>
        <extensions>
          <ns3:TrackPointExtension>
            <ns3:atemp>19.0</ns3:atemp>
          </ns3:TrackPointExtension>
        </extensions>
      </trkpt>
      <trkpt lat="43.17348212935030460357666015625" lon="13.118493854999542236328125">
        <ele>579.79998779296875</ele>
        <time>2021-05-25T09:32:42.000Z</time>
        <extensions>
          <ns3:TrackPointExtension>
            <ns3:atemp>19.0</ns3:atemp>
          </ns3:TrackPointExtension>
        </extensions>
      </trkpt>
      <trkpt lat="43.1734540499746799468994140625" lon="13.1184147298336029052734375">
        <ele>580.20001220703125</ele>
        <time>2021-05-25T09:32:44.000Z</time>
        <extensions>
          <ns3:TrackPointExtension>
            <ns3:atemp>19.0</ns3:atemp>
          </ns3:TrackPointExtension>
        </extensions>
      </trkpt>
      <trkpt lat="43.17342848517000675201416015625" lon="13.11833032406866550445556640625">
        <ele>580.79998779296875</ele>
        <time>2021-05-25T09:32:46.000Z</time>
        <extensions>
          <ns3:TrackPointExtension>
            <ns3:atemp>19.0</ns3:atemp>
          </ns3:TrackPointExtension>
        </extensions>
      </trkpt>
      <trkpt lat="43.17334122955799102783203125" lon="13.1180740892887115478515625">
        <ele>581.79998779296875</ele>
        <time>2021-05-25T09:32:52.000Z</time>
        <extensions>
          <ns3:TrackPointExtension>
            <ns3:atemp>19.0</ns3:atemp>
          </ns3:TrackPointExtension>
        </extensions>
      </trkpt>
      <trkpt lat="43.17332605831325054168701171875" lon="13.11803075484931468963623046875">
        <ele>581.79998779296875</ele>
        <time>2021-05-25T09:32:53.000Z</time>
        <extensions>
          <ns3:TrackPointExtension>
            <ns3:atemp>19.0</ns3:atemp>
          </ns3:TrackPointExtension>
        </extensions>
      </trkpt>
      <trkpt lat="43.17326269112527370452880859375" lon="13.1178648769855499267578125">
        <ele>583</ele>
        <time>2021-05-25T09:32:57.000Z</time>
        <extensions>
          <ns3:TrackPointExtension>
            <ns3:atemp>19.0</ns3:atemp>
          </ns3:TrackPointExtension>
        </extensions>
      </trkpt>
      <trkpt lat="43.1732243858277797698974609375" lon="13.117736466228961944580078125">
        <ele>584.20001220703125</ele>
        <time>2021-05-25T09:33:00.000Z</time>
        <extensions>
          <ns3:TrackPointExtension>
            <ns3:atemp>19.0</ns3:atemp>
          </ns3:TrackPointExtension>
        </extensions>
      </trkpt>
      <trkpt lat="43.17321089096367359161376953125" lon="13.11769145540893077850341796875">
        <ele>584.79998779296875</ele>
        <time>2021-05-25T09:33:01.000Z</time>
        <extensions>
          <ns3:TrackPointExtension>
            <ns3:atemp>19.0</ns3:atemp>
          </ns3:TrackPointExtension>
        </extensions>
      </trkpt>
      <trkpt lat="43.1731968931853771209716796875" lon="13.11764569021761417388916015625">
        <ele>585.4000244140625</ele>
        <time>2021-05-25T09:33:02.000Z</time>
        <extensions>
          <ns3:TrackPointExtension>
            <ns3:atemp>19.0</ns3:atemp>
          </ns3:TrackPointExtension>
        </extensions>
      </trkpt>
      <trkpt lat="43.173176944255828857421875" lon="13.1175475381314754486083984375">
        <ele>586.4000244140625</ele>
        <time>2021-05-25T09:33:04.000Z</time>
        <extensions>
          <ns3:TrackPointExtension>
            <ns3:atemp>19.0</ns3:atemp>
          </ns3:TrackPointExtension>
        </extensions>
      </trkpt>
      <trkpt lat="43.17316177301108837127685546875" lon="13.11733120121061801910400390625">
        <ele>587.5999755859375</ele>
        <time>2021-05-25T09:33:08.000Z</time>
        <extensions>
          <ns3:TrackPointExtension>
            <ns3:atemp>19.0</ns3:atemp>
          </ns3:TrackPointExtension>
        </extensions>
      </trkpt>
      <trkpt lat="43.17320971749722957611083984375" lon="13.117002882063388824462890625">
        <ele>588.79998779296875</ele>
        <time>2021-05-25T09:33:15.000Z</time>
        <extensions>
          <ns3:TrackPointExtension>
            <ns3:atemp>20.0</ns3:atemp>
          </ns3:TrackPointExtension>
        </extensions>
      </trkpt>
      <trkpt lat="43.17328498698770999908447265625" lon="13.11676206998527050018310546875">
        <ele>590</ele>
        <time>2021-05-25T09:33:21.000Z</time>
        <extensions>
          <ns3:TrackPointExtension>
            <ns3:atemp>20.0</ns3:atemp>
          </ns3:TrackPointExtension>
        </extensions>
      </trkpt>
      <trkpt lat="43.1733038462698459625244140625" lon="13.11672502197325229644775390625">
        <ele>590.20001220703125</ele>
        <time>2021-05-25T09:33:22.000Z</time>
        <extensions>
          <ns3:TrackPointExtension>
            <ns3:atemp>20.0</ns3:atemp>
          </ns3:TrackPointExtension>
        </extensions>
      </trkpt>
      <trkpt lat="43.173365034162998199462890625" lon="13.116619326174259185791015625">
        <ele>591.20001220703125</ele>
        <time>2021-05-25T09:33:25.000Z</time>
        <extensions>
          <ns3:TrackPointExtension>
            <ns3:atemp>20.0</ns3:atemp>
          </ns3:TrackPointExtension>
        </extensions>
      </trkpt>
      <trkpt lat="43.17342295311391353607177734375" lon="13.1165148876607418060302734375">
        <ele>592.20001220703125</ele>
        <time>2021-05-25T09:33:28.000Z</time>
        <extensions>
          <ns3:TrackPointExtension>
            <ns3:atemp>20.0</ns3:atemp>
          </ns3:TrackPointExtension>
        </extensions>
      </trkpt>
      <trkpt lat="43.1734627671539783477783203125" lon="13.1164401210844516754150390625">
        <ele>592.4000244140625</ele>
        <time>2021-05-25T09:33:30.000Z</time>
        <extensions>
          <ns3:TrackPointExtension>
            <ns3:atemp>20.0</ns3:atemp>
          </ns3:TrackPointExtension>
        </extensions>
      </trkpt>
      <trkpt lat="43.1735314987599849700927734375" lon="13.11628438532352447509765625">
        <ele>593.4000244140625</ele>
        <time>2021-05-25T09:33:34.000Z</time>
        <extensions>
          <ns3:TrackPointExtension>
            <ns3:atemp>20.0</ns3:atemp>
          </ns3:TrackPointExtension>
        </extensions>
      </trkpt>
      <trkpt lat="43.17364473827183246612548828125" lon="13.11606436036527156829833984375">
        <ele>594.5999755859375</ele>
        <time>2021-05-25T09:33:40.000Z</time>
        <extensions>
          <ns3:TrackPointExtension>
            <ns3:atemp>20.0</ns3:atemp>
          </ns3:TrackPointExtension>
        </extensions>
      </trkpt>
      <trkpt lat="43.17368698306381702423095703125" lon="13.11600216664373874664306640625">
        <ele>595.4000244140625</ele>
        <time>2021-05-25T09:33:42.000Z</time>
        <extensions>
          <ns3:TrackPointExtension>
            <ns3:atemp>20.0</ns3:atemp>
          </ns3:TrackPointExtension>
        </extensions>
      </trkpt>
      <trkpt lat="43.1737061776220798492431640625" lon="13.11596981249749660491943359375">
        <ele>596.4000244140625</ele>
        <time>2021-05-25T09:33:43.000Z</time>
        <extensions>
          <ns3:TrackPointExtension>
            <ns3:atemp>20.0</ns3:atemp>
          </ns3:TrackPointExtension>
        </extensions>
      </trkpt>
      <trkpt lat="43.1737484224140644073486328125" lon="13.1158828921616077423095703125">
        <ele>597.4000244140625</ele>
        <time>2021-05-25T09:33:46.000Z</time>
        <extensions>
          <ns3:TrackPointExtension>
            <ns3:atemp>20.0</ns3:atemp>
          </ns3:TrackPointExtension>
        </extensions>
      </trkpt>
      <trkpt lat="43.173761665821075439453125" lon="13.1158520467579364776611328125">
        <ele>598</ele>
        <time>2021-05-25T09:33:47.000Z</time>
        <extensions>
          <ns3:TrackPointExtension>
            <ns3:atemp>20.0</ns3:atemp>
          </ns3:TrackPointExtension>
        </extensions>
      </trkpt>
      <trkpt lat="43.1738111190497875213623046875" lon="13.11570393852889537811279296875">
        <ele>598.79998779296875</ele>
        <time>2021-05-25T09:33:51.000Z</time>
        <extensions>
          <ns3:TrackPointExtension>
            <ns3:atemp>20.0</ns3:atemp>
          </ns3:TrackPointExtension>
        </extensions>
      </trkpt>
      <trkpt lat="43.17381455563008785247802734375" lon="13.115666806697845458984375">
        <ele>599</ele>
        <time>2021-05-25T09:33:52.000Z</time>
        <extensions>
          <ns3:TrackPointExtension>
            <ns3:atemp>20.0</ns3:atemp>
          </ns3:TrackPointExtension>
        </extensions>
      </trkpt>
      <trkpt lat="43.173796869814395904541015625" lon="13.1155466102063655853271484375">
        <ele>600</ele>
        <time>2021-05-25T09:33:55.000Z</time>
        <extensions>
          <ns3:TrackPointExtension>
            <ns3:atemp>20.0</ns3:atemp>
          </ns3:TrackPointExtension>
        </extensions>
      </trkpt>
      <trkpt lat="43.17376828752458095550537109375" lon="13.115467317402362823486328125">
        <ele>600</ele>
        <time>2021-05-25T09:33:57.000Z</time>
        <extensions>
          <ns3:TrackPointExtension>
            <ns3:atemp>20.0</ns3:atemp>
          </ns3:TrackPointExtension>
        </extensions>
      </trkpt>
      <trkpt lat="43.173702321946620941162109375" lon="13.11538089998066425323486328125">
        <ele>601</ele>
        <time>2021-05-25T09:34:00.000Z</time>
        <extensions>
          <ns3:TrackPointExtension>
            <ns3:atemp>20.0</ns3:atemp>
          </ns3:TrackPointExtension>
        </extensions>
      </trkpt>
      <trkpt lat="43.17364641465246677398681640625" lon="13.1153514795005321502685546875">
        <ele>601.79998779296875</ele>
        <time>2021-05-25T09:34:02.000Z</time>
        <extensions>
          <ns3:TrackPointExtension>
            <ns3:atemp>20.0</ns3:atemp>
          </ns3:TrackPointExtension>
        </extensions>
      </trkpt>
      <trkpt lat="43.17361691035330295562744140625" lon="13.1153430975973606109619140625">
        <ele>602.20001220703125</ele>
        <time>2021-05-25T09:34:03.000Z</time>
        <extensions>
          <ns3:TrackPointExtension>
            <ns3:atemp>20.0</ns3:atemp>
          </ns3:TrackPointExtension>
        </extensions>
      </trkpt>
      <trkpt lat="43.1734912656247615814208984375" lon="13.11533111147582530975341796875">
        <ele>603.20001220703125</ele>
        <time>2021-05-25T09:34:07.000Z</time>
        <extensions>
          <ns3:TrackPointExtension>
            <ns3:atemp>20.0</ns3:atemp>
          </ns3:TrackPointExtension>
        </extensions>
      </trkpt>
      <trkpt lat="43.173463605344295501708984375" lon="13.11533697880804538726806640625">
        <ele>603.4000244140625</ele>
        <time>2021-05-25T09:34:08.000Z</time>
        <extensions>
          <ns3:TrackPointExtension>
            <ns3:atemp>20.0</ns3:atemp>
          </ns3:TrackPointExtension>
        </extensions>
      </trkpt>
      <trkpt lat="43.17333444021642208099365234375" lon="13.11539934016764163970947265625">
        <ele>604.4000244140625</ele>
        <time>2021-05-25T09:34:13.000Z</time>
        <extensions>
          <ns3:TrackPointExtension>
            <ns3:atemp>20.0</ns3:atemp>
          </ns3:TrackPointExtension>
        </extensions>
      </trkpt>
      <trkpt lat="43.17330342717468738555908203125" lon="13.115411661565303802490234375">
        <ele>604.5999755859375</ele>
        <time>2021-05-25T09:34:14.000Z</time>
        <extensions>
          <ns3:TrackPointExtension>
            <ns3:atemp>20.0</ns3:atemp>
          </ns3:TrackPointExtension>
        </extensions>
      </trkpt>
      <trkpt lat="43.17309672944247722625732421875" lon="13.11549472622573375701904296875">
        <ele>605.4000244140625</ele>
        <time>2021-05-25T09:34:20.000Z</time>
        <extensions>
          <ns3:TrackPointExtension>
            <ns3:atemp>20.0</ns3:atemp>
          </ns3:TrackPointExtension>
        </extensions>
      </trkpt>
      <trkpt lat="43.17306320182979106903076171875" lon="13.11551333405077457427978515625">
        <ele>605.79998779296875</ele>
        <time>2021-05-25T09:34:21.000Z</time>
        <extensions>
          <ns3:TrackPointExtension>
            <ns3:atemp>20.0</ns3:atemp>
          </ns3:TrackPointExtension>
        </extensions>
      </trkpt>
      <trkpt lat="43.17295524291694164276123046875" lon="13.11554803512990474700927734375">
        <ele>606.5999755859375</ele>
        <time>2021-05-25T09:34:24.000Z</time>
        <extensions>
          <ns3:TrackPointExtension>
            <ns3:atemp>20.0</ns3:atemp>
          </ns3:TrackPointExtension>
        </extensions>
      </trkpt>
      <trkpt lat="43.17284770309925079345703125" lon="13.11558173038065433502197265625">
        <ele>607.5999755859375</ele>
        <time>2021-05-25T09:34:27.000Z</time>
        <extensions>
          <ns3:TrackPointExtension>
            <ns3:atemp>20.0</ns3:atemp>
          </ns3:TrackPointExtension>
        </extensions>
      </trkpt>
      <trkpt lat="43.172704875469207763671875" lon="13.1156103126704692840576171875">
        <ele>608.79998779296875</ele>
        <time>2021-05-25T09:34:31.000Z</time>
        <extensions>
          <ns3:TrackPointExtension>
            <ns3:atemp>20.0</ns3:atemp>
          </ns3:TrackPointExtension>
        </extensions>
      </trkpt>
      <trkpt lat="43.17259213887155055999755859375" lon="13.11560251750051975250244140625">
        <ele>609.5999755859375</ele>
        <time>2021-05-25T09:34:34.000Z</time>
        <extensions>
          <ns3:TrackPointExtension>
            <ns3:atemp>20.0</ns3:atemp>
          </ns3:TrackPointExtension>
        </extensions>
      </trkpt>
      <trkpt lat="43.17252022214233875274658203125" lon="13.1155700795352458953857421875">
        <ele>609.79998779296875</ele>
        <time>2021-05-25T09:34:36.000Z</time>
        <extensions>
          <ns3:TrackPointExtension>
            <ns3:atemp>20.0</ns3:atemp>
          </ns3:TrackPointExtension>
        </extensions>
      </trkpt>
      <trkpt lat="43.1723791547119617462158203125" lon="13.11545885168015956878662109375">
        <ele>610.79998779296875</ele>
        <time>2021-05-25T09:34:40.000Z</time>
        <extensions>
          <ns3:TrackPointExtension>
            <ns3:atemp>20.0</ns3:atemp>
          </ns3:TrackPointExtension>
        </extensions>
      </trkpt>
      <trkpt lat="43.1723468005657196044921875" lon="13.11542632989585399627685546875">
        <ele>611.20001220703125</ele>
        <time>2021-05-25T09:34:41.000Z</time>
        <extensions>
          <ns3:TrackPointExtension>
            <ns3:atemp>20.0</ns3:atemp>
          </ns3:TrackPointExtension>
        </extensions>
      </trkpt>
      <trkpt lat="43.17204597406089305877685546875" lon="13.115125335752964019775390625">
        <ele>612.20001220703125</ele>
        <time>2021-05-25T09:34:50.000Z</time>
        <extensions>
          <ns3:TrackPointExtension>
            <ns3:atemp>20.0</ns3:atemp>
          </ns3:TrackPointExtension>
        </extensions>
      </trkpt>
      <trkpt lat="43.171921670436859130859375" lon="13.11498661525547504425048828125">
        <ele>613.20001220703125</ele>
        <time>2021-05-25T09:34:54.000Z</time>
        <extensions>
          <ns3:TrackPointExtension>
            <ns3:atemp>20.0</ns3:atemp>
          </ns3:TrackPointExtension>
        </extensions>
      </trkpt>
      <trkpt lat="43.17185126245021820068359375" lon="13.11486725695431232452392578125">
        <ele>614.20001220703125</ele>
        <time>2021-05-25T09:34:57.000Z</time>
        <extensions>
          <ns3:TrackPointExtension>
            <ns3:atemp>20.0</ns3:atemp>
          </ns3:TrackPointExtension>
        </extensions>
      </trkpt>
      <trkpt lat="43.171830810606479644775390625" lon="13.114826940000057220458984375">
        <ele>614.4000244140625</ele>
        <time>2021-05-25T09:34:58.000Z</time>
        <extensions>
          <ns3:TrackPointExtension>
            <ns3:atemp>20.0</ns3:atemp>
          </ns3:TrackPointExtension>
        </extensions>
      </trkpt>
      <trkpt lat="43.171754367649555206298828125" lon="13.114658631384372711181640625">
        <ele>615.5999755859375</ele>
        <time>2021-05-25T09:35:02.000Z</time>
        <extensions>
          <ns3:TrackPointExtension>
            <ns3:atemp>20.0</ns3:atemp>
          </ns3:TrackPointExtension>
        </extensions>
      </trkpt>
      <trkpt lat="43.17173349671065807342529296875" lon="13.1145605631172657012939453125">
        <ele>616.20001220703125</ele>
        <time>2021-05-25T09:35:04.000Z</time>
        <extensions>
          <ns3:TrackPointExtension>
            <ns3:atemp>20.0</ns3:atemp>
          </ns3:TrackPointExtension>
        </extensions>
      </trkpt>
      <trkpt lat="43.171709440648555755615234375" lon="13.11446425504982471466064453125">
        <ele>616.79998779296875</ele>
        <time>2021-05-25T09:35:06.000Z</time>
        <extensions>
          <ns3:TrackPointExtension>
            <ns3:atemp>21.0</ns3:atemp>
          </ns3:TrackPointExtension>
        </extensions>
      </trkpt>
      <trkpt lat="43.17168002016842365264892578125" lon="13.1143255345523357391357421875">
        <ele>618</ele>
        <time>2021-05-25T09:35:09.000Z</time>
        <extensions>
          <ns3:TrackPointExtension>
            <ns3:atemp>21.0</ns3:atemp>
          </ns3:TrackPointExtension>
        </extensions>
      </trkpt>
      <trkpt lat="43.17166258580982685089111328125" lon="13.11423643492162227630615234375">
        <ele>618.4000244140625</ele>
        <time>2021-05-25T09:35:11.000Z</time>
        <extensions>
          <ns3:TrackPointExtension>
            <ns3:atemp>21.0</ns3:atemp>
          </ns3:TrackPointExtension>
        </extensions>
      </trkpt>
      <trkpt lat="43.17164699546992778778076171875" lon="13.11419268138706684112548828125">
        <ele>619.4000244140625</ele>
        <time>2021-05-25T09:35:12.000Z</time>
        <extensions>
          <ns3:TrackPointExtension>
            <ns3:atemp>21.0</ns3:atemp>
          </ns3:TrackPointExtension>
        </extensions>
      </trkpt>
      <trkpt lat="43.1715855561196804046630859375" lon="13.1140834651887416839599609375">
        <ele>620.5999755859375</ele>
        <time>2021-05-25T09:35:15.000Z</time>
        <extensions>
          <ns3:TrackPointExtension>
            <ns3:atemp>21.0</ns3:atemp>
          </ns3:TrackPointExtension>
        </extensions>
      </trkpt>
      <trkpt lat="43.1715657748281955718994140625" lon="13.11405873857438564300537109375">
        <ele>621</ele>
        <time>2021-05-25T09:35:16.000Z</time>
        <extensions>
          <ns3:TrackPointExtension>
            <ns3:atemp>21.0</ns3:atemp>
          </ns3:TrackPointExtension>
        </extensions>
      </trkpt>
      <trkpt lat="43.17150785587728023529052734375" lon="13.11402219347655773162841796875">
        <ele>621.5999755859375</ele>
        <time>2021-05-25T09:35:18.000Z</time>
        <extensions>
          <ns3:TrackPointExtension>
            <ns3:atemp>21.0</ns3:atemp>
          </ns3:TrackPointExtension>
        </extensions>
      </trkpt>
      <trkpt lat="43.1713921017944812774658203125" lon="13.1140184216201305389404296875">
        <ele>622.5999755859375</ele>
        <time>2021-05-25T09:35:21.000Z</time>
        <extensions>
          <ns3:TrackPointExtension>
            <ns3:atemp>21.0</ns3:atemp>
          </ns3:TrackPointExtension>
        </extensions>
      </trkpt>
      <trkpt lat="43.17122622393071651458740234375" lon="13.114058487117290496826171875">
        <ele>623.79998779296875</ele>
        <time>2021-05-25T09:35:25.000Z</time>
        <extensions>
          <ns3:TrackPointExtension>
            <ns3:atemp>21.0</ns3:atemp>
          </ns3:TrackPointExtension>
        </extensions>
      </trkpt>
      <trkpt lat="43.17111457698047161102294921875" lon="13.11407902278006076812744140625">
        <ele>624.4000244140625</ele>
        <time>2021-05-25T09:35:28.000Z</time>
        <extensions>
          <ns3:TrackPointExtension>
            <ns3:atemp>21.0</ns3:atemp>
          </ns3:TrackPointExtension>
        </extensions>
      </trkpt>
      <trkpt lat="43.1710430793464183807373046875" lon="13.1140680424869060516357421875">
        <ele>624.79998779296875</ele>
        <time>2021-05-25T09:35:30.000Z</time>
        <extensions>
          <ns3:TrackPointExtension>
            <ns3:atemp>21.0</ns3:atemp>
          </ns3:TrackPointExtension>
        </extensions>
      </trkpt>
      <trkpt lat="43.1709478609263896942138671875" lon="13.114037699997425079345703125">
        <ele>625.79998779296875</ele>
        <time>2021-05-25T09:35:33.000Z</time>
        <extensions>
          <ns3:TrackPointExtension>
            <ns3:atemp>21.0</ns3:atemp>
          </ns3:TrackPointExtension>
        </extensions>
      </trkpt>
      <trkpt lat="43.170921541750431060791015625" lon="13.11402336694300174713134765625">
        <ele>626</ele>
        <time>2021-05-25T09:35:34.000Z</time>
        <extensions>
          <ns3:TrackPointExtension>
            <ns3:atemp>21.0</ns3:atemp>
          </ns3:TrackPointExtension>
        </extensions>
      </trkpt>
      <trkpt lat="43.17074392922222614288330078125" lon="13.1138759292662143707275390625">
        <ele>626.79998779296875</ele>
        <time>2021-05-25T09:35:41.000Z</time>
        <extensions>
          <ns3:TrackPointExtension>
            <ns3:atemp>21.0</ns3:atemp>
          </ns3:TrackPointExtension>
        </extensions>
      </trkpt>
      <trkpt lat="43.1707175262272357940673828125" lon="13.1138541363179683685302734375">
        <ele>627.4000244140625</ele>
        <time>2021-05-25T09:35:42.000Z</time>
        <extensions>
          <ns3:TrackPointExtension>
            <ns3:atemp>21.0</ns3:atemp>
          </ns3:TrackPointExtension>
        </extensions>
      </trkpt>
      <trkpt lat="43.1706437654793262481689453125" lon="13.11379303224384784698486328125">
        <ele>628.5999755859375</ele>
        <time>2021-05-25T09:35:45.000Z</time>
        <extensions>
          <ns3:TrackPointExtension>
            <ns3:atemp>21.0</ns3:atemp>
          </ns3:TrackPointExtension>
        </extensions>
      </trkpt>
      <trkpt lat="43.170542009174823760986328125" lon="13.113731928169727325439453125">
        <ele>629.4000244140625</ele>
        <time>2021-05-25T09:35:49.000Z</time>
        <extensions>
          <ns3:TrackPointExtension>
            <ns3:atemp>21.0</ns3:atemp>
          </ns3:TrackPointExtension>
        </extensions>
      </trkpt>
      <trkpt lat="43.17038887180387973785400390625" lon="13.1136672198772430419921875">
        <ele>630.4000244140625</ele>
        <time>2021-05-25T09:35:55.000Z</time>
        <extensions>
          <ns3:TrackPointExtension>
            <ns3:atemp>21.0</ns3:atemp>
          </ns3:TrackPointExtension>
        </extensions>
      </trkpt>
      <trkpt lat="43.170338831841945648193359375" lon="13.1136496178805828094482421875">
        <ele>630.5999755859375</ele>
        <time>2021-05-25T09:35:57.000Z</time>
        <extensions>
          <ns3:TrackPointExtension>
            <ns3:atemp>21.0</ns3:atemp>
          </ns3:TrackPointExtension>
        </extensions>
      </trkpt>
      <trkpt lat="43.1702171266078948974609375" lon="13.11357208527624607086181640625">
        <ele>631.5999755859375</ele>
        <time>2021-05-25T09:36:02.000Z</time>
        <extensions>
          <ns3:TrackPointExtension>
            <ns3:atemp>21.0</ns3:atemp>
          </ns3:TrackPointExtension>
        </extensions>
      </trkpt>
      <trkpt lat="43.1701737083494663238525390625" lon="13.11352380551397800445556640625">
        <ele>632.20001220703125</ele>
        <time>2021-05-25T09:36:04.000Z</time>
        <extensions>
          <ns3:TrackPointExtension>
            <ns3:atemp>21.0</ns3:atemp>
          </ns3:TrackPointExtension>
        </extensions>
      </trkpt>
      <trkpt lat="43.1701083295047283172607421875" lon="13.11345272697508335113525390625">
        <ele>632.79998779296875</ele>
        <time>2021-05-25T09:36:07.000Z</time>
        <extensions>
          <ns3:TrackPointExtension>
            <ns3:atemp>21.0</ns3:atemp>
          </ns3:TrackPointExtension>
        </extensions>
      </trkpt>
      <trkpt lat="43.17004504613578319549560546875" lon="13.113329596817493438720703125">
        <ele>634.20001220703125</ele>
        <time>2021-05-25T09:36:11.000Z</time>
        <extensions>
          <ns3:TrackPointExtension>
            <ns3:atemp>21.0</ns3:atemp>
          </ns3:TrackPointExtension>
        </extensions>
      </trkpt>
      <trkpt lat="43.16998704336583614349365234375" lon="13.1131926365196704864501953125">
        <ele>635.4000244140625</ele>
        <time>2021-05-25T09:36:15.000Z</time>
        <extensions>
          <ns3:TrackPointExtension>
            <ns3:atemp>21.0</ns3:atemp>
          </ns3:TrackPointExtension>
        </extensions>
      </trkpt>
      <trkpt lat="43.16993390209972858428955078125" lon="13.1130434386432170867919921875">
        <ele>636.20001220703125</ele>
        <time>2021-05-25T09:36:19.000Z</time>
        <extensions>
          <ns3:TrackPointExtension>
            <ns3:atemp>21.0</ns3:atemp>
          </ns3:TrackPointExtension>
        </extensions>
      </trkpt>
      <trkpt lat="43.16990842111408710479736328125" lon="13.11296372674405574798583984375">
        <ele>636.5999755859375</ele>
        <time>2021-05-25T09:36:21.000Z</time>
        <extensions>
          <ns3:TrackPointExtension>
            <ns3:atemp>21.0</ns3:atemp>
          </ns3:TrackPointExtension>
        </extensions>
      </trkpt>
      <trkpt lat="43.16984103061258792877197265625" lon="13.11282970011234283447265625">
        <ele>637.5999755859375</ele>
        <time>2021-05-25T09:36:25.000Z</time>
        <extensions>
          <ns3:TrackPointExtension>
            <ns3:atemp>21.0</ns3:atemp>
          </ns3:TrackPointExtension>
        </extensions>
      </trkpt>
      <trkpt lat="43.169818818569183349609375" lon="13.1128030456602573394775390625">
        <ele>637.79998779296875</ele>
        <time>2021-05-25T09:36:26.000Z</time>
        <extensions>
          <ns3:TrackPointExtension>
            <ns3:atemp>21.0</ns3:atemp>
          </ns3:TrackPointExtension>
        </extensions>
      </trkpt>
      <trkpt lat="43.16969635896384716033935546875" lon="13.11268678866326808929443359375">
        <ele>638.79998779296875</ele>
        <time>2021-05-25T09:36:31.000Z</time>
        <extensions>
          <ns3:TrackPointExtension>
            <ns3:atemp>22.0</ns3:atemp>
          </ns3:TrackPointExtension>
        </extensions>
      </trkpt>
      <trkpt lat="43.16964807920157909393310546875" lon="13.11265644617378711700439453125">
        <ele>639.4000244140625</ele>
        <time>2021-05-25T09:36:33.000Z</time>
        <extensions>
          <ns3:TrackPointExtension>
            <ns3:atemp>22.0</ns3:atemp>
          </ns3:TrackPointExtension>
        </extensions>
      </trkpt>
      <trkpt lat="43.1695980392396450042724609375" lon="13.11262576840817928314208984375">
        <ele>640.20001220703125</ele>
        <time>2021-05-25T09:36:35.000Z</time>
        <extensions>
          <ns3:TrackPointExtension>
            <ns3:atemp>22.0</ns3:atemp>
          </ns3:TrackPointExtension>
        </extensions>
      </trkpt>
      <trkpt lat="43.16950709559023380279541015625" lon="13.11260632239282131195068359375">
        <ele>641.20001220703125</ele>
        <time>2021-05-25T09:36:38.000Z</time>
        <extensions>
          <ns3:TrackPointExtension>
            <ns3:atemp>22.0</ns3:atemp>
          </ns3:TrackPointExtension>
        </extensions>
      </trkpt>
      <trkpt lat="43.16943534649908542633056640625" lon="13.1125981919467449188232421875">
        <ele>641.20001220703125</ele>
        <time>2021-05-25T09:36:40.000Z</time>
        <extensions>
          <ns3:TrackPointExtension>
            <ns3:atemp>22.0</ns3:atemp>
          </ns3:TrackPointExtension>
        </extensions>
      </trkpt>
      <trkpt lat="43.169314898550510406494140625" lon="13.11258603818714618682861328125">
        <ele>642.20001220703125</ele>
        <time>2021-05-25T09:36:44.000Z</time>
        <extensions>
          <ns3:TrackPointExtension>
            <ns3:atemp>22.0</ns3:atemp>
          </ns3:TrackPointExtension>
        </extensions>
      </trkpt>
      <trkpt lat="43.169223032891750335693359375" lon="13.11261135153472423553466796875">
        <ele>643.4000244140625</ele>
        <time>2021-05-25T09:36:47.000Z</time>
        <extensions>
          <ns3:TrackPointExtension>
            <ns3:atemp>22.0</ns3:atemp>
          </ns3:TrackPointExtension>
        </extensions>
      </trkpt>
      <trkpt lat="43.169192858040332794189453125" lon="13.1126179732382297515869140625">
        <ele>643.79998779296875</ele>
        <time>2021-05-25T09:36:48.000Z</time>
        <extensions>
          <ns3:TrackPointExtension>
            <ns3:atemp>22.0</ns3:atemp>
          </ns3:TrackPointExtension>
        </extensions>
      </trkpt>
      <trkpt lat="43.1691370345652103424072265625" lon="13.11263968236744403839111328125">
        <ele>644.4000244140625</ele>
        <time>2021-05-25T09:36:50.000Z</time>
        <extensions>
          <ns3:TrackPointExtension>
            <ns3:atemp>22.0</ns3:atemp>
          </ns3:TrackPointExtension>
        </extensions>
      </trkpt>
      <trkpt lat="43.16910996101796627044677734375" lon="13.11265393160283565521240234375">
        <ele>644.5999755859375</ele>
        <time>2021-05-25T09:36:51.000Z</time>
        <extensions>
          <ns3:TrackPointExtension>
            <ns3:atemp>22.0</ns3:atemp>
          </ns3:TrackPointExtension>
        </extensions>
      </trkpt>
      <trkpt lat="43.16904340870678424835205078125" lon="13.112696595489978790283203125">
        <ele>645.20001220703125</ele>
        <time>2021-05-25T09:36:54.000Z</time>
        <extensions>
          <ns3:TrackPointExtension>
            <ns3:atemp>22.0</ns3:atemp>
          </ns3:TrackPointExtension>
        </extensions>
      </trkpt>
      <trkpt lat="43.16899412311613559722900390625" lon="13.1127403490245342254638671875">
        <ele>645.5999755859375</ele>
        <time>2021-05-25T09:36:56.000Z</time>
        <extensions>
          <ns3:TrackPointExtension>
            <ns3:atemp>22.0</ns3:atemp>
          </ns3:TrackPointExtension>
        </extensions>
      </trkpt>
      <trkpt lat="43.1688626110553741455078125" lon="13.112811930477619171142578125">
        <ele>646.79998779296875</ele>
        <time>2021-05-25T09:37:01.000Z</time>
        <extensions>
          <ns3:TrackPointExtension>
            <ns3:atemp>22.0</ns3:atemp>
          </ns3:TrackPointExtension>
        </extensions>
      </trkpt>
      <trkpt lat="43.16868818365037441253662109375" lon="13.11283028684556484222412109375">
        <ele>647.5999755859375</ele>
        <time>2021-05-25T09:37:06.000Z</time>
        <extensions>
          <ns3:TrackPointExtension>
            <ns3:atemp>22.0</ns3:atemp>
          </ns3:TrackPointExtension>
        </extensions>
      </trkpt>
      <trkpt lat="43.16859279759228229522705078125" lon="13.112826012074947357177734375">
        <ele>648</ele>
        <time>2021-05-25T09:37:09.000Z</time>
        <extensions>
          <ns3:TrackPointExtension>
            <ns3:atemp>22.0</ns3:atemp>
          </ns3:TrackPointExtension>
        </extensions>
      </trkpt>
      <trkpt lat="43.168522305786609649658203125" lon="13.11282165348529815673828125">
        <ele>649.4000244140625</ele>
        <time>2021-05-25T09:37:11.000Z</time>
        <extensions>
          <ns3:TrackPointExtension>
            <ns3:atemp>22.0</ns3:atemp>
          </ns3:TrackPointExtension>
        </extensions>
      </trkpt>
      <trkpt lat="43.1684621237218379974365234375" lon="13.1128104217350482940673828125">
        <ele>649.79998779296875</ele>
        <time>2021-05-25T09:37:13.000Z</time>
        <extensions>
          <ns3:TrackPointExtension>
            <ns3:atemp>22.0</ns3:atemp>
          </ns3:TrackPointExtension>
        </extensions>
      </trkpt>
      <trkpt lat="43.1682918034493923187255859375" lon="13.11276323162019252777099609375">
        <ele>650.4000244140625</ele>
        <time>2021-05-25T09:37:19.000Z</time>
        <extensions>
          <ns3:TrackPointExtension>
            <ns3:atemp>22.0</ns3:atemp>
          </ns3:TrackPointExtension>
        </extensions>
      </trkpt>
      <trkpt lat="43.1682358123362064361572265625" lon="13.11274110339581966400146484375">
        <ele>650.5999755859375</ele>
        <time>2021-05-25T09:37:21.000Z</time>
        <extensions>
          <ns3:TrackPointExtension>
            <ns3:atemp>22.0</ns3:atemp>
          </ns3:TrackPointExtension>
        </extensions>
      </trkpt>
      <trkpt lat="43.1681245006620883941650390625" lon="13.112678825855255126953125">
        <ele>651.5999755859375</ele>
        <time>2021-05-25T09:37:25.000Z</time>
        <extensions>
          <ns3:TrackPointExtension>
            <ns3:atemp>22.0</ns3:atemp>
          </ns3:TrackPointExtension>
        </extensions>
      </trkpt>
      <trkpt lat="43.1680436991155147552490234375" lon="13.112635910511016845703125">
        <ele>652.20001220703125</ele>
        <time>2021-05-25T09:37:28.000Z</time>
        <extensions>
          <ns3:TrackPointExtension>
            <ns3:atemp>22.0</ns3:atemp>
          </ns3:TrackPointExtension>
        </extensions>
      </trkpt>
      <trkpt lat="43.16801813431084156036376953125" lon="13.11261780560016632080078125">
        <ele>652.5999755859375</ele>
        <time>2021-05-25T09:37:29.000Z</time>
        <extensions>
          <ns3:TrackPointExtension>
            <ns3:atemp>22.0</ns3:atemp>
          </ns3:TrackPointExtension>
        </extensions>
      </trkpt>
      <trkpt lat="43.1678955070674419403076171875" lon="13.11248344369232654571533203125">
        <ele>653.20001220703125</ele>
        <time>2021-05-25T09:37:34.000Z</time>
        <extensions>
          <ns3:TrackPointExtension>
            <ns3:atemp>22.0</ns3:atemp>
          </ns3:TrackPointExtension>
        </extensions>
      </trkpt>
      <trkpt lat="43.16787421703338623046875" lon="13.11225847341120243072509765625">
        <ele>653.5999755859375</ele>
        <time>2021-05-25T09:37:39.000Z</time>
        <extensions>
          <ns3:TrackPointExtension>
            <ns3:atemp>22.0</ns3:atemp>
          </ns3:TrackPointExtension>
        </extensions>
      </trkpt>
      <trkpt lat="43.16788670606911182403564453125" lon="13.11222025193274021148681640625">
        <ele>653.79998779296875</ele>
        <time>2021-05-25T09:37:40.000Z</time>
        <extensions>
          <ns3:TrackPointExtension>
            <ns3:atemp>22.0</ns3:atemp>
          </ns3:TrackPointExtension>
        </extensions>
      </trkpt>
      <trkpt lat="43.16798712126910686492919921875" lon="13.1120835430920124053955078125">
        <ele>654.20001220703125</ele>
        <time>2021-05-25T09:37:44.000Z</time>
        <extensions>
          <ns3:TrackPointExtension>
            <ns3:atemp>22.0</ns3:atemp>
          </ns3:TrackPointExtension>
        </extensions>
      </trkpt>
      <trkpt lat="43.16806054674088954925537109375" lon="13.11204557307064533233642578125">
        <ele>654.4000244140625</ele>
        <time>2021-05-25T09:37:46.000Z</time>
        <extensions>
          <ns3:TrackPointExtension>
            <ns3:atemp>22.0</ns3:atemp>
          </ns3:TrackPointExtension>
        </extensions>
      </trkpt>
      <trkpt lat="43.1681008636951446533203125" lon="13.11203719116747379302978515625">
        <ele>654.79998779296875</ele>
        <time>2021-05-25T09:37:47.000Z</time>
        <extensions>
          <ns3:TrackPointExtension>
            <ns3:atemp>22.0</ns3:atemp>
          </ns3:TrackPointExtension>
        </extensions>
      </trkpt>
      <trkpt lat="43.16818443126976490020751953125" lon="13.11202897690236568450927734375">
        <ele>655.4000244140625</ele>
        <time>2021-05-25T09:37:49.000Z</time>
        <extensions>
          <ns3:TrackPointExtension>
            <ns3:atemp>22.0</ns3:atemp>
          </ns3:TrackPointExtension>
        </extensions>
      </trkpt>
      <trkpt lat="43.168402612209320068359375" lon="13.11200818978250026702880859375">
        <ele>656</ele>
        <time>2021-05-25T09:37:54.000Z</time>
        <extensions>
          <ns3:TrackPointExtension>
            <ns3:atemp>22.0</ns3:atemp>
          </ns3:TrackPointExtension>
        </extensions>
      </trkpt>
      <trkpt lat="43.1685251556336879730224609375" lon="13.111997544765472412109375">
        <ele>656.20001220703125</ele>
        <time>2021-05-25T09:37:57.000Z</time>
        <extensions>
          <ns3:TrackPointExtension>
            <ns3:atemp>22.0</ns3:atemp>
          </ns3:TrackPointExtension>
        </extensions>
      </trkpt>
      <trkpt lat="43.16874484531581401824951171875" lon="13.11193895526230335235595703125">
        <ele>656.4000244140625</ele>
        <time>2021-05-25T09:38:03.000Z</time>
        <extensions>
          <ns3:TrackPointExtension>
            <ns3:atemp>22.0</ns3:atemp>
          </ns3:TrackPointExtension>
        </extensions>
      </trkpt>
      <trkpt lat="43.16878071986138820648193359375" lon="13.11190760694444179534912109375">
        <ele>656.4000244140625</ele>
        <time>2021-05-25T09:38:04.000Z</time>
        <extensions>
          <ns3:TrackPointExtension>
            <ns3:atemp>22.0</ns3:atemp>
          </ns3:TrackPointExtension>
        </extensions>
      </trkpt>
      <trkpt lat="43.16885967738926410675048828125" lon="13.111760504543781280517578125">
        <ele>656.4000244140625</ele>
        <time>2021-05-25T09:38:07.000Z</time>
        <extensions>
          <ns3:TrackPointExtension>
            <ns3:atemp>22.0</ns3:atemp>
          </ns3:TrackPointExtension>
        </extensions>
      </trkpt>
      <trkpt lat="43.1688983179628849029541015625" lon="13.11157953925430774688720703125">
        <ele>656.4000244140625</ele>
        <time>2021-05-25T09:38:10.000Z</time>
        <extensions>
          <ns3:TrackPointExtension>
            <ns3:atemp>22.0</ns3:atemp>
          </ns3:TrackPointExtension>
        </extensions>
      </trkpt>
      <trkpt lat="43.16892371512949466705322265625" lon="13.11138004995882511138916015625">
        <ele>654.79998779296875</ele>
        <time>2021-05-25T09:38:13.000Z</time>
        <extensions>
          <ns3:TrackPointExtension>
            <ns3:atemp>22.0</ns3:atemp>
          </ns3:TrackPointExtension>
        </extensions>
      </trkpt>
      <trkpt lat="43.16895640455186367034912109375" lon="13.1111742742359638214111328125">
        <ele>653.79998779296875</ele>
        <time>2021-05-25T09:38:16.000Z</time>
        <extensions>
          <ns3:TrackPointExtension>
            <ns3:atemp>22.0</ns3:atemp>
          </ns3:TrackPointExtension>
        </extensions>
      </trkpt>
      <trkpt lat="43.16901491023600101470947265625" lon="13.110824413597583770751953125">
        <ele>653</ele>
        <time>2021-05-25T09:38:21.000Z</time>
        <extensions>
          <ns3:TrackPointExtension>
            <ns3:atemp>22.0</ns3:atemp>
          </ns3:TrackPointExtension>
        </extensions>
      </trkpt>
      <trkpt lat="43.16902630962431430816650390625" lon="13.11067990958690643310546875">
        <ele>652.79998779296875</ele>
        <time>2021-05-25T09:38:23.000Z</time>
        <extensions>
          <ns3:TrackPointExtension>
            <ns3:atemp>22.0</ns3:atemp>
          </ns3:TrackPointExtension>
        </extensions>
      </trkpt>
      <trkpt lat="43.1690310873091220855712890625" lon="13.11054688878357410430908203125">
        <ele>652.4000244140625</ele>
        <time>2021-05-25T09:38:25.000Z</time>
        <extensions>
          <ns3:TrackPointExtension>
            <ns3:atemp>22.0</ns3:atemp>
          </ns3:TrackPointExtension>
        </extensions>
      </trkpt>
      <trkpt lat="43.1690200231969356536865234375" lon="13.1104849465191364288330078125">
        <ele>652.4000244140625</ele>
        <time>2021-05-25T09:38:26.000Z</time>
        <extensions>
          <ns3:TrackPointExtension>
            <ns3:atemp>22.0</ns3:atemp>
          </ns3:TrackPointExtension>
        </extensions>
      </trkpt>
      <trkpt lat="43.1689184345304965972900390625" lon="13.11036047525703907012939453125">
        <ele>652.20001220703125</ele>
        <time>2021-05-25T09:38:29.000Z</time>
        <extensions>
          <ns3:TrackPointExtension>
            <ns3:atemp>22.0</ns3:atemp>
          </ns3:TrackPointExtension>
        </extensions>
      </trkpt>
      <trkpt lat="43.16876999102532863616943359375" lon="13.11027179472148418426513671875">
        <ele>652</ele>
        <time>2021-05-25T09:38:32.000Z</time>
        <extensions>
          <ns3:TrackPointExtension>
            <ns3:atemp>22.0</ns3:atemp>
          </ns3:TrackPointExtension>
        </extensions>
      </trkpt>
      <trkpt lat="43.168640993535518646240234375" lon="13.11021613888442516326904296875">
        <ele>651.79998779296875</ele>
        <time>2021-05-25T09:38:34.000Z</time>
        <extensions>
          <ns3:TrackPointExtension>
            <ns3:atemp>22.0</ns3:atemp>
          </ns3:TrackPointExtension>
        </extensions>
      </trkpt>
      <trkpt lat="43.16841878928244113922119140625" lon="13.11010457575321197509765625">
        <ele>651.5999755859375</ele>
        <time>2021-05-25T09:38:37.000Z</time>
        <extensions>
          <ns3:TrackPointExtension>
            <ns3:atemp>22.0</ns3:atemp>
          </ns3:TrackPointExtension>
        </extensions>
      </trkpt>
      <trkpt lat="43.16825970076024532318115234375" lon="13.11002737842500209808349609375">
        <ele>650.5999755859375</ele>
        <time>2021-05-25T09:38:39.000Z</time>
        <extensions>
          <ns3:TrackPointExtension>
            <ns3:atemp>22.0</ns3:atemp>
          </ns3:TrackPointExtension>
        </extensions>
      </trkpt>
      <trkpt lat="43.16818024031817913055419921875" lon="13.109982870519161224365234375">
        <ele>649</ele>
        <time>2021-05-25T09:38:40.000Z</time>
        <extensions>
          <ns3:TrackPointExtension>
            <ns3:atemp>22.0</ns3:atemp>
          </ns3:TrackPointExtension>
        </extensions>
      </trkpt>
      <trkpt lat="43.16802299581468105316162109375" lon="13.10988388024270534515380859375">
        <ele>647.5999755859375</ele>
        <time>2021-05-25T09:38:42.000Z</time>
        <extensions>
          <ns3:TrackPointExtension>
            <ns3:atemp>22.0</ns3:atemp>
          </ns3:TrackPointExtension>
        </extensions>
      </trkpt>
      <trkpt lat="43.1678690202534198760986328125" lon="13.109764941036701202392578125">
        <ele>646</ele>
        <time>2021-05-25T09:38:44.000Z</time>
        <extensions>
          <ns3:TrackPointExtension>
            <ns3:atemp>22.0</ns3:atemp>
          </ns3:TrackPointExtension>
        </extensions>
      </trkpt>
      <trkpt lat="43.16779014654457569122314453125" lon="13.109699897468090057373046875">
        <ele>645.20001220703125</ele>
        <time>2021-05-25T09:38:45.000Z</time>
        <extensions>
          <ns3:TrackPointExtension>
            <ns3:atemp>22.0</ns3:atemp>
          </ns3:TrackPointExtension>
        </extensions>
      </trkpt>
      <trkpt lat="43.167708925902843475341796875" lon="13.109635524451732635498046875">
        <ele>644.20001220703125</ele>
        <time>2021-05-25T09:38:46.000Z</time>
        <extensions>
          <ns3:TrackPointExtension>
            <ns3:atemp>22.0</ns3:atemp>
          </ns3:TrackPointExtension>
        </extensions>
      </trkpt>
      <trkpt lat="43.1675394438207149505615234375" lon="13.109497725963592529296875">
        <ele>642.5999755859375</ele>
        <time>2021-05-25T09:38:48.000Z</time>
        <extensions>
          <ns3:TrackPointExtension>
            <ns3:atemp>22.0</ns3:atemp>
          </ns3:TrackPointExtension>
        </extensions>
      </trkpt>
      <trkpt lat="43.1673677824437618255615234375" lon="13.1093597598373889923095703125">
        <ele>641.5999755859375</ele>
        <time>2021-05-25T09:38:50.000Z</time>
        <extensions>
          <ns3:TrackPointExtension>
            <ns3:atemp>22.0</ns3:atemp>
          </ns3:TrackPointExtension>
        </extensions>
      </trkpt>
      <trkpt lat="43.16719897091388702392578125" lon="13.10921751894056797027587890625">
        <ele>640.20001220703125</ele>
        <time>2021-05-25T09:38:52.000Z</time>
        <extensions>
          <ns3:TrackPointExtension>
            <ns3:atemp>22.0</ns3:atemp>
          </ns3:TrackPointExtension>
        </extensions>
      </trkpt>
      <trkpt lat="43.167043738067150115966796875" lon="13.1090660579502582550048828125">
        <ele>638.79998779296875</ele>
        <time>2021-05-25T09:38:54.000Z</time>
        <extensions>
          <ns3:TrackPointExtension>
            <ns3:atemp>22.0</ns3:atemp>
          </ns3:TrackPointExtension>
        </extensions>
      </trkpt>
      <trkpt lat="43.16697391681373119354248046875" lon="13.10898768715560436248779296875">
        <ele>638.20001220703125</ele>
        <time>2021-05-25T09:38:55.000Z</time>
        <extensions>
          <ns3:TrackPointExtension>
            <ns3:atemp>22.0</ns3:atemp>
          </ns3:TrackPointExtension>
        </extensions>
      </trkpt>
      <trkpt lat="43.16691507585346698760986328125" lon="13.1089034490287303924560546875">
        <ele>637.4000244140625</ele>
        <time>2021-05-25T09:38:56.000Z</time>
        <extensions>
          <ns3:TrackPointExtension>
            <ns3:atemp>22.0</ns3:atemp>
          </ns3:TrackPointExtension>
        </extensions>
      </trkpt>
      <trkpt lat="43.16686193458735942840576171875" lon="13.1088149361312389373779296875">
        <ele>636.5999755859375</ele>
        <time>2021-05-25T09:38:57.000Z</time>
        <extensions>
          <ns3:TrackPointExtension>
            <ns3:atemp>22.0</ns3:atemp>
          </ns3:TrackPointExtension>
        </extensions>
      </trkpt>
      <trkpt lat="43.1668107211589813232421875" lon="13.1087267585098743438720703125">
        <ele>636</ele>
        <time>2021-05-25T09:38:58.000Z</time>
        <extensions>
          <ns3:TrackPointExtension>
            <ns3:atemp>22.0</ns3:atemp>
          </ns3:TrackPointExtension>
        </extensions>
      </trkpt>
      <trkpt lat="43.16666194237768650054931640625" lon="13.108363486826419830322265625">
        <ele>635.20001220703125</ele>
        <time>2021-05-25T09:39:02.000Z</time>
        <extensions>
          <ns3:TrackPointExtension>
            <ns3:atemp>22.0</ns3:atemp>
          </ns3:TrackPointExtension>
        </extensions>
      </trkpt>
      <trkpt lat="43.16656286828219890594482421875" lon="13.10791715048253536224365234375">
        <ele>635.20001220703125</ele>
        <time>2021-05-25T09:39:07.000Z</time>
        <extensions>
          <ns3:TrackPointExtension>
            <ns3:atemp>22.0</ns3:atemp>
          </ns3:TrackPointExtension>
        </extensions>
      </trkpt>
      <trkpt lat="43.1665393151342868804931640625" lon="13.1078334152698516845703125">
        <ele>635.20001220703125</ele>
        <time>2021-05-25T09:39:08.000Z</time>
        <extensions>
          <ns3:TrackPointExtension>
            <ns3:atemp>22.0</ns3:atemp>
          </ns3:TrackPointExtension>
        </extensions>
      </trkpt>
      <trkpt lat="43.1663780473172664642333984375" lon="13.10739629901945590972900390625">
        <ele>635.20001220703125</ele>
        <time>2021-05-25T09:39:14.000Z</time>
        <extensions>
          <ns3:TrackPointExtension>
            <ns3:atemp>22.0</ns3:atemp>
          </ns3:TrackPointExtension>
        </extensions>
      </trkpt>
      <trkpt lat="43.1663413345813751220703125" lon="13.10733494348824024200439453125">
        <ele>635.20001220703125</ele>
        <time>2021-05-25T09:39:15.000Z</time>
        <extensions>
          <ns3:TrackPointExtension>
            <ns3:atemp>22.0</ns3:atemp>
          </ns3:TrackPointExtension>
        </extensions>
      </trkpt>
      <trkpt lat="43.16620127297937870025634765625" lon="13.10717954300343990325927734375">
        <ele>635.4000244140625</ele>
        <time>2021-05-25T09:39:18.000Z</time>
        <extensions>
          <ns3:TrackPointExtension>
            <ns3:atemp>22.0</ns3:atemp>
          </ns3:TrackPointExtension>
        </extensions>
      </trkpt>
      <trkpt lat="43.16614888608455657958984375" lon="13.10713914223015308380126953125">
        <ele>635.4000244140625</ele>
        <time>2021-05-25T09:39:19.000Z</time>
        <extensions>
          <ns3:TrackPointExtension>
            <ns3:atemp>22.0</ns3:atemp>
          </ns3:TrackPointExtension>
        </extensions>
      </trkpt>
      <trkpt lat="43.16580246202647686004638671875" lon="13.106899671256542205810546875">
        <ele>635.20001220703125</ele>
        <time>2021-05-25T09:39:25.000Z</time>
        <extensions>
          <ns3:TrackPointExtension>
            <ns3:atemp>22.0</ns3:atemp>
          </ns3:TrackPointExtension>
        </extensions>
      </trkpt>
      <trkpt lat="43.165341205894947052001953125" lon="13.106673024594783782958984375">
        <ele>635</ele>
        <time>2021-05-25T09:39:32.000Z</time>
        <extensions>
          <ns3:TrackPointExtension>
            <ns3:atemp>22.0</ns3:atemp>
          </ns3:TrackPointExtension>
        </extensions>
      </trkpt>
      <trkpt lat="43.1652863882482051849365234375" lon="13.10662482865154743194580078125">
        <ele>634.79998779296875</ele>
        <time>2021-05-25T09:39:33.000Z</time>
        <extensions>
          <ns3:TrackPointExtension>
            <ns3:atemp>22.0</ns3:atemp>
          </ns3:TrackPointExtension>
        </extensions>
      </trkpt>
      <trkpt lat="43.165061585605144500732421875" lon="13.1064133532345294952392578125">
        <ele>634.4000244140625</ele>
        <time>2021-05-25T09:39:37.000Z</time>
        <extensions>
          <ns3:TrackPointExtension>
            <ns3:atemp>22.0</ns3:atemp>
          </ns3:TrackPointExtension>
        </extensions>
      </trkpt>
      <trkpt lat="43.16500668413937091827392578125" lon="13.1063603796064853668212890625">
        <ele>633.5999755859375</ele>
        <time>2021-05-25T09:39:38.000Z</time>
        <extensions>
          <ns3:TrackPointExtension>
            <ns3:atemp>22.0</ns3:atemp>
          </ns3:TrackPointExtension>
        </extensions>
      </trkpt>
      <trkpt lat="43.16472890786826610565185546875" lon="13.10608956031501293182373046875">
        <ele>633</ele>
        <time>2021-05-25T09:39:43.000Z</time>
        <extensions>
          <ns3:TrackPointExtension>
            <ns3:atemp>22.0</ns3:atemp>
          </ns3:TrackPointExtension>
        </extensions>
      </trkpt>
      <trkpt lat="43.1646108068525791168212890625" lon="13.1060229241847991943359375">
        <ele>632.79998779296875</ele>
        <time>2021-05-25T09:39:45.000Z</time>
        <extensions>
          <ns3:TrackPointExtension>
            <ns3:atemp>22.0</ns3:atemp>
          </ns3:TrackPointExtension>
        </extensions>
      </trkpt>
      <trkpt lat="43.1644959747791290283203125" lon="13.10600020922720432281494140625">
        <ele>632.4000244140625</ele>
        <time>2021-05-25T09:39:47.000Z</time>
        <extensions>
          <ns3:TrackPointExtension>
            <ns3:atemp>22.0</ns3:atemp>
          </ns3:TrackPointExtension>
        </extensions>
      </trkpt>
      <trkpt lat="43.1644428335130214691162109375" lon="13.10599652118980884552001953125">
        <ele>632.20001220703125</ele>
        <time>2021-05-25T09:39:48.000Z</time>
        <extensions>
          <ns3:TrackPointExtension>
            <ns3:atemp>22.0</ns3:atemp>
          </ns3:TrackPointExtension>
        </extensions>
      </trkpt>
      <trkpt lat="43.1643928773701190948486328125" lon="13.10599350370466709136962890625">
        <ele>632.20001220703125</ele>
        <time>2021-05-25T09:39:49.000Z</time>
        <extensions>
          <ns3:TrackPointExtension>
            <ns3:atemp>22.0</ns3:atemp>
          </ns3:TrackPointExtension>
        </extensions>
      </trkpt>
      <trkpt lat="43.16400370560586452484130859375" lon="13.10600691474974155426025390625">
        <ele>632.4000244140625</ele>
        <time>2021-05-25T09:39:57.000Z</time>
        <extensions>
          <ns3:TrackPointExtension>
            <ns3:atemp>22.0</ns3:atemp>
          </ns3:TrackPointExtension>
        </extensions>
      </trkpt>
      <trkpt lat="43.1637957505881786346435546875" lon="13.1060257740318775177001953125">
        <ele>633.4000244140625</ele>
        <time>2021-05-25T09:40:01.000Z</time>
        <extensions>
          <ns3:TrackPointExtension>
            <ns3:atemp>22.0</ns3:atemp>
          </ns3:TrackPointExtension>
        </extensions>
      </trkpt>
      <trkpt lat="43.16358762793242931365966796875" lon="13.10603708960115909576416015625">
        <ele>633.5999755859375</ele>
        <time>2021-05-25T09:40:05.000Z</time>
        <extensions>
          <ns3:TrackPointExtension>
            <ns3:atemp>22.0</ns3:atemp>
          </ns3:TrackPointExtension>
        </extensions>
      </trkpt>
      <trkpt lat="43.16331068985164165496826171875" lon="13.10600808821618556976318359375">
        <ele>633.79998779296875</ele>
        <time>2021-05-25T09:40:11.000Z</time>
        <extensions>
          <ns3:TrackPointExtension>
            <ns3:atemp>22.0</ns3:atemp>
          </ns3:TrackPointExtension>
        </extensions>
      </trkpt>
      <trkpt lat="43.16310801543295383453369140625" lon="13.1059362553060054779052734375">
        <ele>634.5999755859375</ele>
        <time>2021-05-25T09:40:17.000Z</time>
        <extensions>
          <ns3:TrackPointExtension>
            <ns3:atemp>22.0</ns3:atemp>
          </ns3:TrackPointExtension>
        </extensions>
      </trkpt>
      <trkpt lat="43.16308152861893177032470703125" lon="13.10592259280383586883544921875">
        <ele>634.79998779296875</ele>
        <time>2021-05-25T09:40:18.000Z</time>
        <extensions>
          <ns3:TrackPointExtension>
            <ns3:atemp>22.0</ns3:atemp>
          </ns3:TrackPointExtension>
        </extensions>
      </trkpt>
      <trkpt lat="43.16302972845733165740966796875" lon="13.10588453896343708038330078125">
        <ele>635.5999755859375</ele>
        <time>2021-05-25T09:40:20.000Z</time>
        <extensions>
          <ns3:TrackPointExtension>
            <ns3:atemp>22.0</ns3:atemp>
          </ns3:TrackPointExtension>
        </extensions>
      </trkpt>
      <trkpt lat="43.16294959746301174163818359375" lon="13.1058242730796337127685546875">
        <ele>636.5999755859375</ele>
        <time>2021-05-25T09:40:23.000Z</time>
        <extensions>
          <ns3:TrackPointExtension>
            <ns3:atemp>22.0</ns3:atemp>
          </ns3:TrackPointExtension>
        </extensions>
      </trkpt>
      <trkpt lat="43.16285622306168079376220703125" lon="13.1057672761380672454833984375">
        <ele>637.4000244140625</ele>
        <time>2021-05-25T09:40:26.000Z</time>
        <extensions>
          <ns3:TrackPointExtension>
            <ns3:atemp>22.0</ns3:atemp>
          </ns3:TrackPointExtension>
        </extensions>
      </trkpt>
      <trkpt lat="43.1628268025815486907958984375" lon="13.1057458184659481048583984375">
        <ele>637.5999755859375</ele>
        <time>2021-05-25T09:40:27.000Z</time>
        <extensions>
          <ns3:TrackPointExtension>
            <ns3:atemp>22.0</ns3:atemp>
          </ns3:TrackPointExtension>
        </extensions>
      </trkpt>
      <trkpt lat="43.16264667548239231109619140625" lon="13.10566493310034275054931640625">
        <ele>638.79998779296875</ele>
        <time>2021-05-25T09:40:32.000Z</time>
        <extensions>
          <ns3:TrackPointExtension>
            <ns3:atemp>22.0</ns3:atemp>
          </ns3:TrackPointExtension>
        </extensions>
      </trkpt>
      <trkpt lat="43.1624385528266429901123046875" lon="13.10562687925994396209716796875">
        <ele>640.4000244140625</ele>
        <time>2021-05-25T09:40:37.000Z</time>
        <extensions>
          <ns3:TrackPointExtension>
            <ns3:atemp>22.0</ns3:atemp>
          </ns3:TrackPointExtension>
        </extensions>
      </trkpt>
      <trkpt lat="43.1623031012713909149169921875" lon="13.10561112128198146820068359375">
        <ele>641</ele>
        <time>2021-05-25T09:40:40.000Z</time>
        <extensions>
          <ns3:TrackPointExtension>
            <ns3:atemp>22.0</ns3:atemp>
          </ns3:TrackPointExtension>
        </extensions>
      </trkpt>
      <trkpt lat="43.16217712126672267913818359375" lon="13.1055884063243865966796875">
        <ele>641.4000244140625</ele>
        <time>2021-05-25T09:40:43.000Z</time>
        <extensions>
          <ns3:TrackPointExtension>
            <ns3:atemp>22.0</ns3:atemp>
          </ns3:TrackPointExtension>
        </extensions>
      </trkpt>
      <trkpt lat="43.16203965805470943450927734375" lon="13.10558564029633998870849609375">
        <ele>642.4000244140625</ele>
        <time>2021-05-25T09:40:46.000Z</time>
        <extensions>
          <ns3:TrackPointExtension>
            <ns3:atemp>22.0</ns3:atemp>
          </ns3:TrackPointExtension>
        </extensions>
      </trkpt>
      <trkpt lat="43.1619547493755817413330078125" lon="13.105576336383819580078125">
        <ele>643</ele>
        <time>2021-05-25T09:40:48.000Z</time>
        <extensions>
          <ns3:TrackPointExtension>
            <ns3:atemp>22.0</ns3:atemp>
          </ns3:TrackPointExtension>
        </extensions>
      </trkpt>
      <trkpt lat="43.16185492090880870819091796875" lon="13.10555596835911273956298828125">
        <ele>643.5999755859375</ele>
        <time>2021-05-25T09:40:50.000Z</time>
        <extensions>
          <ns3:TrackPointExtension>
            <ns3:atemp>22.0</ns3:atemp>
          </ns3:TrackPointExtension>
        </extensions>
      </trkpt>
      <trkpt lat="43.16166481934487819671630859375" lon="13.10548304580152034759521484375">
        <ele>644.5999755859375</ele>
        <time>2021-05-25T09:40:54.000Z</time>
        <extensions>
          <ns3:TrackPointExtension>
            <ns3:atemp>22.0</ns3:atemp>
          </ns3:TrackPointExtension>
        </extensions>
      </trkpt>
      <trkpt lat="43.16162358038127422332763671875" lon="13.10545689426362514495849609375">
        <ele>644.79998779296875</ele>
        <time>2021-05-25T09:40:55.000Z</time>
        <extensions>
          <ns3:TrackPointExtension>
            <ns3:atemp>22.0</ns3:atemp>
          </ns3:TrackPointExtension>
        </extensions>
      </trkpt>
      <trkpt lat="43.161429874598979949951171875" lon="13.1053012423217296600341796875">
        <ele>645.4000244140625</ele>
        <time>2021-05-25T09:41:00.000Z</time>
        <extensions>
          <ns3:TrackPointExtension>
            <ns3:atemp>22.0</ns3:atemp>
          </ns3:TrackPointExtension>
        </extensions>
      </trkpt>
      <trkpt lat="43.16130858846008777618408203125" lon="13.10519940219819545745849609375">
        <ele>645.5999755859375</ele>
        <time>2021-05-25T09:41:03.000Z</time>
        <extensions>
          <ns3:TrackPointExtension>
            <ns3:atemp>22.0</ns3:atemp>
          </ns3:TrackPointExtension>
        </extensions>
      </trkpt>
      <trkpt lat="43.16118872724473476409912109375" lon="13.105102591216564178466796875">
        <ele>646.79998779296875</ele>
        <time>2021-05-25T09:41:06.000Z</time>
        <extensions>
          <ns3:TrackPointExtension>
            <ns3:atemp>22.0</ns3:atemp>
          </ns3:TrackPointExtension>
        </extensions>
      </trkpt>
      <trkpt lat="43.16114799119532108306884765625" lon="13.1050739251077175140380859375">
        <ele>647.4000244140625</ele>
        <time>2021-05-25T09:41:07.000Z</time>
        <extensions>
          <ns3:TrackPointExtension>
            <ns3:atemp>22.0</ns3:atemp>
          </ns3:TrackPointExtension>
        </extensions>
      </trkpt>
      <trkpt lat="43.16106333397328853607177734375" lon="13.1050182692706584930419921875">
        <ele>648.20001220703125</ele>
        <time>2021-05-25T09:41:09.000Z</time>
        <extensions>
          <ns3:TrackPointExtension>
            <ns3:atemp>22.0</ns3:atemp>
          </ns3:TrackPointExtension>
        </extensions>
      </trkpt>
      <trkpt lat="43.16094380803406238555908203125" lon="13.1049341149628162384033203125">
        <ele>649.20001220703125</ele>
        <time>2021-05-25T09:41:12.000Z</time>
        <extensions>
          <ns3:TrackPointExtension>
            <ns3:atemp>22.0</ns3:atemp>
          </ns3:TrackPointExtension>
        </extensions>
      </trkpt>
      <trkpt lat="43.16086803562939167022705078125" lon="13.1048804707825183868408203125">
        <ele>649.4000244140625</ele>
        <time>2021-05-25T09:41:14.000Z</time>
        <extensions>
          <ns3:TrackPointExtension>
            <ns3:atemp>22.0</ns3:atemp>
          </ns3:TrackPointExtension>
        </extensions>
      </trkpt>
      <trkpt lat="43.16069369204342365264892578125" lon="13.1047567538917064666748046875">
        <ele>650.20001220703125</ele>
        <time>2021-05-25T09:41:19.000Z</time>
        <extensions>
          <ns3:TrackPointExtension>
            <ns3:atemp>22.0</ns3:atemp>
          </ns3:TrackPointExtension>
        </extensions>
      </trkpt>
      <trkpt lat="43.16065815277397632598876953125" lon="13.1047295965254306793212890625">
        <ele>650.4000244140625</ele>
        <time>2021-05-25T09:41:20.000Z</time>
        <extensions>
          <ns3:TrackPointExtension>
            <ns3:atemp>22.0</ns3:atemp>
          </ns3:TrackPointExtension>
        </extensions>
      </trkpt>
      <trkpt lat="43.1604812107980251312255859375" lon="13.10460629872977733612060546875">
        <ele>651.5999755859375</ele>
        <time>2021-05-25T09:41:25.000Z</time>
        <extensions>
          <ns3:TrackPointExtension>
            <ns3:atemp>22.0</ns3:atemp>
          </ns3:TrackPointExtension>
        </extensions>
      </trkpt>
      <trkpt lat="43.16037719137966632843017578125" lon="13.104522563517093658447265625">
        <ele>652.5999755859375</ele>
        <time>2021-05-25T09:41:28.000Z</time>
        <extensions>
          <ns3:TrackPointExtension>
            <ns3:atemp>22.0</ns3:atemp>
          </ns3:TrackPointExtension>
        </extensions>
      </trkpt>
      <trkpt lat="43.16034416668117046356201171875" lon="13.10449146665632724761962890625">
        <ele>652.79998779296875</ele>
        <time>2021-05-25T09:41:29.000Z</time>
        <extensions>
          <ns3:TrackPointExtension>
            <ns3:atemp>22.0</ns3:atemp>
          </ns3:TrackPointExtension>
        </extensions>
      </trkpt>
      <trkpt lat="43.16021374426782131195068359375" lon="13.10434662736952304840087890625">
        <ele>654</ele>
        <time>2021-05-25T09:41:33.000Z</time>
        <extensions>
          <ns3:TrackPointExtension>
            <ns3:atemp>22.0</ns3:atemp>
          </ns3:TrackPointExtension>
        </extensions>
      </trkpt>
      <trkpt lat="43.16014635376632213592529296875" lon="13.10426834039390087127685546875">
        <ele>654.5999755859375</ele>
        <time>2021-05-25T09:41:35.000Z</time>
        <extensions>
          <ns3:TrackPointExtension>
            <ns3:atemp>22.0</ns3:atemp>
          </ns3:TrackPointExtension>
        </extensions>
      </trkpt>
      <trkpt lat="43.1599129177629947662353515625" lon="13.10398670844733715057373046875">
        <ele>654.79998779296875</ele>
        <time>2021-05-25T09:41:41.000Z</time>
        <extensions>
          <ns3:TrackPointExtension>
            <ns3:atemp>22.0</ns3:atemp>
          </ns3:TrackPointExtension>
        </extensions>
      </trkpt>
      <trkpt lat="43.15961980260908603668212890625" lon="13.1037076748907566070556640625">
        <ele>655</ele>
        <time>2021-05-25T09:41:48.000Z</time>
        <extensions>
          <ns3:TrackPointExtension>
            <ns3:atemp>22.0</ns3:atemp>
          </ns3:TrackPointExtension>
        </extensions>
      </trkpt>
      <trkpt lat="43.15940438769757747650146484375" lon="13.10351698659360408782958984375">
        <ele>655.20001220703125</ele>
        <time>2021-05-25T09:41:53.000Z</time>
        <extensions>
          <ns3:TrackPointExtension>
            <ns3:atemp>22.0</ns3:atemp>
          </ns3:TrackPointExtension>
        </extensions>
      </trkpt>
      <trkpt lat="43.15932107158005237579345703125" lon="13.10345646925270557403564453125">
        <ele>655.20001220703125</ele>
        <time>2021-05-25T09:41:55.000Z</time>
        <extensions>
          <ns3:TrackPointExtension>
            <ns3:atemp>22.0</ns3:atemp>
          </ns3:TrackPointExtension>
        </extensions>
      </trkpt>
      <trkpt lat="43.1590465642511844635009765625" lon="13.10326502658426761627197265625">
        <ele>656.5999755859375</ele>
        <time>2021-05-25T09:42:02.000Z</time>
        <extensions>
          <ns3:TrackPointExtension>
            <ns3:atemp>22.0</ns3:atemp>
          </ns3:TrackPointExtension>
        </extensions>
      </trkpt>
      <trkpt lat="43.1588903255760669708251953125" lon="13.103158660233020782470703125">
        <ele>657.79998779296875</ele>
        <time>2021-05-25T09:42:06.000Z</time>
        <extensions>
          <ns3:TrackPointExtension>
            <ns3:atemp>22.0</ns3:atemp>
          </ns3:TrackPointExtension>
        </extensions>
      </trkpt>
      <trkpt lat="43.158728890120983123779296875" lon="13.10305648483335971832275390625">
        <ele>659.20001220703125</ele>
        <time>2021-05-25T09:42:10.000Z</time>
        <extensions>
          <ns3:TrackPointExtension>
            <ns3:atemp>22.0</ns3:atemp>
          </ns3:TrackPointExtension>
        </extensions>
      </trkpt>
      <trkpt lat="43.1584521196782588958740234375" lon="13.10288851149380207061767578125">
        <ele>660.5999755859375</ele>
        <time>2021-05-25T09:42:16.000Z</time>
        <extensions>
          <ns3:TrackPointExtension>
            <ns3:atemp>22.0</ns3:atemp>
          </ns3:TrackPointExtension>
        </extensions>
      </trkpt>
      <trkpt lat="43.1582705676555633544921875" lon="13.102746270596981048583984375">
        <ele>661.4000244140625</ele>
        <time>2021-05-25T09:42:20.000Z</time>
        <extensions>
          <ns3:TrackPointExtension>
            <ns3:atemp>22.0</ns3:atemp>
          </ns3:TrackPointExtension>
        </extensions>
      </trkpt>
      <trkpt lat="43.15822790376842021942138671875" lon="13.10270042158663272857666015625">
        <ele>661.4000244140625</ele>
        <time>2021-05-25T09:42:21.000Z</time>
        <extensions>
          <ns3:TrackPointExtension>
            <ns3:atemp>22.0</ns3:atemp>
          </ns3:TrackPointExtension>
        </extensions>
      </trkpt>
      <trkpt lat="43.1581842340528964996337890625" lon="13.102654404938220977783203125">
        <ele>661.5999755859375</ele>
        <time>2021-05-25T09:42:22.000Z</time>
        <extensions>
          <ns3:TrackPointExtension>
            <ns3:atemp>22.0</ns3:atemp>
          </ns3:TrackPointExtension>
        </extensions>
      </trkpt>
      <trkpt lat="43.1579411588609218597412109375" lon="13.10244393534958362579345703125">
        <ele>662.20001220703125</ele>
        <time>2021-05-25T09:42:28.000Z</time>
        <extensions>
          <ns3:TrackPointExtension>
            <ns3:atemp>22.0</ns3:atemp>
          </ns3:TrackPointExtension>
        </extensions>
      </trkpt>
      <trkpt lat="43.15784476697444915771484375" lon="13.10234335251152515411376953125">
        <ele>662.5999755859375</ele>
        <time>2021-05-25T09:42:31.000Z</time>
        <extensions>
          <ns3:TrackPointExtension>
            <ns3:atemp>22.0</ns3:atemp>
          </ns3:TrackPointExtension>
        </extensions>
      </trkpt>
      <trkpt lat="43.15773705951869487762451171875" lon="13.10225400142371654510498046875">
        <ele>663.5999755859375</ele>
        <time>2021-05-25T09:42:34.000Z</time>
        <extensions>
          <ns3:TrackPointExtension>
            <ns3:atemp>22.0</ns3:atemp>
          </ns3:TrackPointExtension>
        </extensions>
      </trkpt>
      <trkpt lat="43.15754595212638378143310546875" lon="13.1021120958030223846435546875">
        <ele>664.5999755859375</ele>
        <time>2021-05-25T09:42:39.000Z</time>
        <extensions>
          <ns3:TrackPointExtension>
            <ns3:atemp>22.0</ns3:atemp>
          </ns3:TrackPointExtension>
        </extensions>
      </trkpt>
      <trkpt lat="43.1574980914592742919921875" lon="13.10210580937564373016357421875">
        <ele>664.5999755859375</ele>
        <time>2021-05-25T09:42:40.000Z</time>
        <extensions>
          <ns3:TrackPointExtension>
            <ns3:atemp>22.0</ns3:atemp>
          </ns3:TrackPointExtension>
        </extensions>
      </trkpt>
      <trkpt lat="43.15744285471737384796142578125" lon="13.10209952294826507568359375">
        <ele>664.5999755859375</ele>
        <time>2021-05-25T09:42:41.000Z</time>
        <extensions>
          <ns3:TrackPointExtension>
            <ns3:atemp>22.0</ns3:atemp>
          </ns3:TrackPointExtension>
        </extensions>
      </trkpt>
      <trkpt lat="43.1572682596743106842041015625" lon="13.1020854413509368896484375">
        <ele>664.79998779296875</ele>
        <time>2021-05-25T09:42:45.000Z</time>
        <extensions>
          <ns3:TrackPointExtension>
            <ns3:atemp>22.0</ns3:atemp>
          </ns3:TrackPointExtension>
        </extensions>
      </trkpt>
      <trkpt lat="43.1571274437010288238525390625" lon="13.10210354626178741455078125">
        <ele>665.4000244140625</ele>
        <time>2021-05-25T09:42:50.000Z</time>
        <extensions>
          <ns3:TrackPointExtension>
            <ns3:atemp>22.0</ns3:atemp>
          </ns3:TrackPointExtension>
        </extensions>
      </trkpt>
      <trkpt lat="43.1571069918572902679443359375" lon="13.10211360454559326171875">
        <ele>666.5999755859375</ele>
        <time>2021-05-25T09:42:51.000Z</time>
        <extensions>
          <ns3:TrackPointExtension>
            <ns3:atemp>22.0</ns3:atemp>
          </ns3:TrackPointExtension>
        </extensions>
      </trkpt>
      <trkpt lat="43.1570888869464397430419921875" lon="13.1021231599152088165283203125">
        <ele>668</ele>
        <time>2021-05-25T09:42:52.000Z</time>
        <extensions>
          <ns3:TrackPointExtension>
            <ns3:atemp>22.0</ns3:atemp>
          </ns3:TrackPointExtension>
        </extensions>
      </trkpt>
      <trkpt lat="43.157066591084003448486328125" lon="13.1021328829228878021240234375">
        <ele>669</ele>
        <time>2021-05-25T09:42:53.000Z</time>
        <extensions>
          <ns3:TrackPointExtension>
            <ns3:atemp>22.0</ns3:atemp>
          </ns3:TrackPointExtension>
        </extensions>
      </trkpt>
      <trkpt lat="43.15701521001756191253662109375" lon="13.10214369557797908782958984375">
        <ele>670.4000244140625</ele>
        <time>2021-05-25T09:42:55.000Z</time>
        <extensions>
          <ns3:TrackPointExtension>
            <ns3:atemp>22.0</ns3:atemp>
          </ns3:TrackPointExtension>
        </extensions>
      </trkpt>
      <trkpt lat="43.15695536322891712188720703125" lon="13.102165572345256805419921875">
        <ele>671.5999755859375</ele>
        <time>2021-05-25T09:42:57.000Z</time>
        <extensions>
          <ns3:TrackPointExtension>
            <ns3:atemp>22.0</ns3:atemp>
          </ns3:TrackPointExtension>
        </extensions>
      </trkpt>
      <trkpt lat="43.156834580004215240478515625" lon="13.10221075080335140228271484375">
        <ele>672.4000244140625</ele>
        <time>2021-05-25T09:43:01.000Z</time>
        <extensions>
          <ns3:TrackPointExtension>
            <ns3:atemp>22.0</ns3:atemp>
          </ns3:TrackPointExtension>
        </extensions>
      </trkpt>
      <trkpt lat="43.15675620920956134796142578125" lon="13.10224972665309906005859375">
        <ele>673.20001220703125</ele>
        <time>2021-05-25T09:43:04.000Z</time>
        <extensions>
          <ns3:TrackPointExtension>
            <ns3:atemp>22.0</ns3:atemp>
          </ns3:TrackPointExtension>
        </extensions>
      </trkpt>
      <trkpt lat="43.15670608542859554290771484375" lon="13.102272860705852508544921875">
        <ele>674.5999755859375</ele>
        <time>2021-05-25T09:43:06.000Z</time>
        <extensions>
          <ns3:TrackPointExtension>
            <ns3:atemp>22.0</ns3:atemp>
          </ns3:TrackPointExtension>
        </extensions>
      </trkpt>
      <trkpt lat="43.15665847621858119964599609375" lon="13.102300353348255157470703125">
        <ele>675.5999755859375</ele>
        <time>2021-05-25T09:43:08.000Z</time>
        <extensions>
          <ns3:TrackPointExtension>
            <ns3:atemp>22.0</ns3:atemp>
          </ns3:TrackPointExtension>
        </extensions>
      </trkpt>
      <trkpt lat="43.15663534216582775115966796875" lon="13.10230605304241180419921875">
        <ele>676</ele>
        <time>2021-05-25T09:43:09.000Z</time>
        <extensions>
          <ns3:TrackPointExtension>
            <ns3:atemp>22.0</ns3:atemp>
          </ns3:TrackPointExtension>
        </extensions>
      </trkpt>
      <trkpt lat="43.156593181192874908447265625" lon="13.10233228839933872222900390625">
        <ele>677.20001220703125</ele>
        <time>2021-05-25T09:43:11.000Z</time>
        <extensions>
          <ns3:TrackPointExtension>
            <ns3:atemp>22.0</ns3:atemp>
          </ns3:TrackPointExtension>
        </extensions>
      </trkpt>
      <trkpt lat="43.15655169077217578887939453125" lon="13.10236372053623199462890625">
        <ele>678</ele>
        <time>2021-05-25T09:43:13.000Z</time>
        <extensions>
          <ns3:TrackPointExtension>
            <ns3:atemp>22.0</ns3:atemp>
          </ns3:TrackPointExtension>
        </extensions>
      </trkpt>
      <trkpt lat="43.1565105356276035308837890625" lon="13.10239079408347606658935546875">
        <ele>679.20001220703125</ele>
        <time>2021-05-25T09:43:15.000Z</time>
        <extensions>
          <ns3:TrackPointExtension>
            <ns3:atemp>22.0</ns3:atemp>
          </ns3:TrackPointExtension>
        </extensions>
      </trkpt>
      <trkpt lat="43.15646602772176265716552734375" lon="13.10241191647946834564208984375">
        <ele>679.79998779296875</ele>
        <time>2021-05-25T09:43:17.000Z</time>
        <extensions>
          <ns3:TrackPointExtension>
            <ns3:atemp>22.0</ns3:atemp>
          </ns3:TrackPointExtension>
        </extensions>
      </trkpt>
      <trkpt lat="43.1564454920589923858642578125" lon="13.10242482461035251617431640625">
        <ele>680.20001220703125</ele>
        <time>2021-05-25T09:43:18.000Z</time>
        <extensions>
          <ns3:TrackPointExtension>
            <ns3:atemp>22.0</ns3:atemp>
          </ns3:TrackPointExtension>
        </extensions>
      </trkpt>
      <trkpt lat="43.15639176405966281890869140625" lon="13.1024651415646076202392578125">
        <ele>681.5999755859375</ele>
        <time>2021-05-25T09:43:21.000Z</time>
        <extensions>
          <ns3:TrackPointExtension>
            <ns3:atemp>22.0</ns3:atemp>
          </ns3:TrackPointExtension>
        </extensions>
      </trkpt>
      <trkpt lat="43.1563554704189300537109375" lon="13.1024849228560924530029296875">
        <ele>682.79998779296875</ele>
        <time>2021-05-25T09:43:23.000Z</time>
        <extensions>
          <ns3:TrackPointExtension>
            <ns3:atemp>22.0</ns3:atemp>
          </ns3:TrackPointExtension>
        </extensions>
      </trkpt>
      <trkpt lat="43.15633845515549182891845703125" lon="13.1024976633489131927490234375">
        <ele>683.4000244140625</ele>
        <time>2021-05-25T09:43:24.000Z</time>
        <extensions>
          <ns3:TrackPointExtension>
            <ns3:atemp>22.0</ns3:atemp>
          </ns3:TrackPointExtension>
        </extensions>
      </trkpt>
      <trkpt lat="43.1563211046159267425537109375" lon="13.10251032002270221710205078125">
        <ele>684</ele>
        <time>2021-05-25T09:43:25.000Z</time>
        <extensions>
          <ns3:TrackPointExtension>
            <ns3:atemp>22.0</ns3:atemp>
          </ns3:TrackPointExtension>
        </extensions>
      </trkpt>
      <trkpt lat="43.1562728248536586761474609375" lon="13.1025442667305469512939453125">
        <ele>685.4000244140625</ele>
        <time>2021-05-25T09:43:28.000Z</time>
        <extensions>
          <ns3:TrackPointExtension>
            <ns3:atemp>22.0</ns3:atemp>
          </ns3:TrackPointExtension>
        </extensions>
      </trkpt>
      <trkpt lat="43.15623007714748382568359375" lon="13.102582991123199462890625">
        <ele>686.5999755859375</ele>
        <time>2021-05-25T09:43:31.000Z</time>
        <extensions>
          <ns3:TrackPointExtension>
            <ns3:atemp>22.0</ns3:atemp>
          </ns3:TrackPointExtension>
        </extensions>
      </trkpt>
      <trkpt lat="43.1561963818967342376708984375" lon="13.1026116572320461273193359375">
        <ele>687.5999755859375</ele>
        <time>2021-05-25T09:43:33.000Z</time>
        <extensions>
          <ns3:TrackPointExtension>
            <ns3:atemp>22.0</ns3:atemp>
          </ns3:TrackPointExtension>
        </extensions>
      </trkpt>
      <trkpt lat="43.1561591662466526031494140625" lon="13.10264132916927337646484375">
        <ele>688.79998779296875</ele>
        <time>2021-05-25T09:43:35.000Z</time>
        <extensions>
          <ns3:TrackPointExtension>
            <ns3:atemp>22.0</ns3:atemp>
          </ns3:TrackPointExtension>
        </extensions>
      </trkpt>
      <trkpt lat="43.15610627643764019012451171875" lon="13.10270193032920360565185546875">
        <ele>690.20001220703125</ele>
        <time>2021-05-25T09:43:38.000Z</time>
        <extensions>
          <ns3:TrackPointExtension>
            <ns3:atemp>22.0</ns3:atemp>
          </ns3:TrackPointExtension>
        </extensions>
      </trkpt>
      <trkpt lat="43.1560636125504970550537109375" lon="13.102765381336212158203125">
        <ele>691.4000244140625</ele>
        <time>2021-05-25T09:43:41.000Z</time>
        <extensions>
          <ns3:TrackPointExtension>
            <ns3:atemp>22.0</ns3:atemp>
          </ns3:TrackPointExtension>
        </extensions>
      </trkpt>
      <trkpt lat="43.15600569359958171844482421875" lon="13.10284861363470554351806640625">
        <ele>692.79998779296875</ele>
        <time>2021-05-25T09:43:45.000Z</time>
        <extensions>
          <ns3:TrackPointExtension>
            <ns3:atemp>22.0</ns3:atemp>
          </ns3:TrackPointExtension>
        </extensions>
      </trkpt>
      <trkpt lat="43.15592204220592975616455078125" lon="13.102941401302814483642578125">
        <ele>694</ele>
        <time>2021-05-25T09:43:49.000Z</time>
        <extensions>
          <ns3:TrackPointExtension>
            <ns3:atemp>22.0</ns3:atemp>
          </ns3:TrackPointExtension>
        </extensions>
      </trkpt>
      <trkpt lat="43.15586797893047332763671875" lon="13.1029787845909595489501953125">
        <ele>694.79998779296875</ele>
        <time>2021-05-25T09:43:51.000Z</time>
        <extensions>
          <ns3:TrackPointExtension>
            <ns3:atemp>22.0</ns3:atemp>
          </ns3:TrackPointExtension>
        </extensions>
      </trkpt>
      <trkpt lat="43.15583755262196063995361328125" lon="13.1029992364346981048583984375">
        <ele>695.20001220703125</ele>
        <time>2021-05-25T09:43:52.000Z</time>
        <extensions>
          <ns3:TrackPointExtension>
            <ns3:atemp>22.0</ns3:atemp>
          </ns3:TrackPointExtension>
        </extensions>
      </trkpt>
      <trkpt lat="43.15575909800827503204345703125" lon="13.10306251980364322662353515625">
        <ele>696.20001220703125</ele>
        <time>2021-05-25T09:43:55.000Z</time>
        <extensions>
          <ns3:TrackPointExtension>
            <ns3:atemp>22.0</ns3:atemp>
          </ns3:TrackPointExtension>
        </extensions>
      </trkpt>
      <trkpt lat="43.15573831088840961456298828125" lon="13.10308682732284069061279296875">
        <ele>696.79998779296875</ele>
        <time>2021-05-25T09:43:56.000Z</time>
        <extensions>
          <ns3:TrackPointExtension>
            <ns3:atemp>22.0</ns3:atemp>
          </ns3:TrackPointExtension>
        </extensions>
      </trkpt>
      <trkpt lat="43.1556676514446735382080078125" lon="13.103166706860065460205078125">
        <ele>697.20001220703125</ele>
        <time>2021-05-25T09:43:59.000Z</time>
        <extensions>
          <ns3:TrackPointExtension>
            <ns3:atemp>22.0</ns3:atemp>
          </ns3:TrackPointExtension>
        </extensions>
      </trkpt>
      <trkpt lat="43.15559707581996917724609375" lon="13.103271313011646270751953125">
        <ele>697.5999755859375</ele>
        <time>2021-05-25T09:44:02.000Z</time>
        <extensions>
          <ns3:TrackPointExtension>
            <ns3:atemp>22.0</ns3:atemp>
          </ns3:TrackPointExtension>
        </extensions>
      </trkpt>
      <trkpt lat="43.155527673661708831787109375" lon="13.10343786142766475677490234375">
        <ele>698.4000244140625</ele>
        <time>2021-05-25T09:44:06.000Z</time>
        <extensions>
          <ns3:TrackPointExtension>
            <ns3:atemp>22.0</ns3:atemp>
          </ns3:TrackPointExtension>
        </extensions>
      </trkpt>
      <trkpt lat="43.1555043719708919525146484375" lon="13.10351363383233547210693359375">
        <ele>698.5999755859375</ele>
        <time>2021-05-25T09:44:08.000Z</time>
        <extensions>
          <ns3:TrackPointExtension>
            <ns3:atemp>22.0</ns3:atemp>
          </ns3:TrackPointExtension>
        </extensions>
      </trkpt>
      <trkpt lat="43.1554584391415119171142578125" lon="13.103636763989925384521484375">
        <ele>699.4000244140625</ele>
        <time>2021-05-25T09:44:12.000Z</time>
        <extensions>
          <ns3:TrackPointExtension>
            <ns3:atemp>22.0</ns3:atemp>
          </ns3:TrackPointExtension>
        </extensions>
      </trkpt>
      <trkpt lat="43.15542231313884258270263671875" lon="13.10368680395185947418212890625">
        <ele>700</ele>
        <time>2021-05-25T09:44:14.000Z</time>
        <extensions>
          <ns3:TrackPointExtension>
            <ns3:atemp>22.0</ns3:atemp>
          </ns3:TrackPointExtension>
        </extensions>
      </trkpt>
      <trkpt lat="43.15539054572582244873046875" lon="13.10372971929609775543212890625">
        <ele>700.5999755859375</ele>
        <time>2021-05-25T09:44:16.000Z</time>
        <extensions>
          <ns3:TrackPointExtension>
            <ns3:atemp>22.0</ns3:atemp>
          </ns3:TrackPointExtension>
        </extensions>
      </trkpt>
      <trkpt lat="43.155265487730503082275390625" lon="13.10382108204066753387451171875">
        <ele>701.79998779296875</ele>
        <time>2021-05-25T09:44:20.000Z</time>
        <extensions>
          <ns3:TrackPointExtension>
            <ns3:atemp>22.0</ns3:atemp>
          </ns3:TrackPointExtension>
        </extensions>
      </trkpt>
      <trkpt lat="43.15513732843101024627685546875" lon="13.1038615666329860687255859375">
        <ele>703</ele>
        <time>2021-05-25T09:44:23.000Z</time>
        <extensions>
          <ns3:TrackPointExtension>
            <ns3:atemp>22.0</ns3:atemp>
          </ns3:TrackPointExtension>
        </extensions>
      </trkpt>
      <trkpt lat="43.15505669452250003814697265625" lon="13.10386114753782749176025390625">
        <ele>704</ele>
        <time>2021-05-25T09:44:25.000Z</time>
        <extensions>
          <ns3:TrackPointExtension>
            <ns3:atemp>22.0</ns3:atemp>
          </ns3:TrackPointExtension>
        </extensions>
      </trkpt>
      <trkpt lat="43.1550192274153232574462890625" lon="13.1038503348827362060546875">
        <ele>704.4000244140625</ele>
        <time>2021-05-25T09:44:26.000Z</time>
        <extensions>
          <ns3:TrackPointExtension>
            <ns3:atemp>22.0</ns3:atemp>
          </ns3:TrackPointExtension>
        </extensions>
      </trkpt>
      <trkpt lat="43.1548837758600711822509765625" lon="13.1038065813481807708740234375">
        <ele>705.5999755859375</ele>
        <time>2021-05-25T09:44:29.000Z</time>
        <extensions>
          <ns3:TrackPointExtension>
            <ns3:atemp>22.0</ns3:atemp>
          </ns3:TrackPointExtension>
        </extensions>
      </trkpt>
      <trkpt lat="43.15483725629746913909912109375" lon="13.103795349597930908203125">
        <ele>705.79998779296875</ele>
        <time>2021-05-25T09:44:30.000Z</time>
        <extensions>
          <ns3:TrackPointExtension>
            <ns3:atemp>22.0</ns3:atemp>
          </ns3:TrackPointExtension>
        </extensions>
      </trkpt>
      <trkpt lat="43.15452176146209239959716796875" lon="13.10379141010344028472900390625">
        <ele>706.20001220703125</ele>
        <time>2021-05-25T09:44:36.000Z</time>
        <extensions>
          <ns3:TrackPointExtension>
            <ns3:atemp>22.0</ns3:atemp>
          </ns3:TrackPointExtension>
        </extensions>
      </trkpt>
      <trkpt lat="43.15415203571319580078125" lon="13.1037710420787334442138671875">
        <ele>706.20001220703125</ele>
        <time>2021-05-25T09:44:43.000Z</time>
        <extensions>
          <ns3:TrackPointExtension>
            <ns3:atemp>22.0</ns3:atemp>
          </ns3:TrackPointExtension>
        </extensions>
      </trkpt>
      <trkpt lat="43.15380929969251155853271484375" lon="13.1037418730556964874267578125">
        <ele>706</ele>
        <time>2021-05-25T09:44:50.000Z</time>
        <extensions>
          <ns3:TrackPointExtension>
            <ns3:atemp>22.0</ns3:atemp>
          </ns3:TrackPointExtension>
        </extensions>
      </trkpt>
      <trkpt lat="43.15357561223208904266357421875" lon="13.10373022221028804779052734375">
        <ele>706.4000244140625</ele>
        <time>2021-05-25T09:44:56.000Z</time>
        <extensions>
          <ns3:TrackPointExtension>
            <ns3:atemp>21.0</ns3:atemp>
          </ns3:TrackPointExtension>
        </extensions>
      </trkpt>
      <trkpt lat="43.15341769717633724212646484375" lon="13.1037150509655475616455078125">
        <ele>707.4000244140625</ele>
        <time>2021-05-25T09:45:02.000Z</time>
        <extensions>
          <ns3:TrackPointExtension>
            <ns3:atemp>21.0</ns3:atemp>
          </ns3:TrackPointExtension>
        </extensions>
      </trkpt>
      <trkpt lat="43.15339975990355014801025390625" lon="13.103711195290088653564453125">
        <ele>708</ele>
        <time>2021-05-25T09:45:03.000Z</time>
        <extensions>
          <ns3:TrackPointExtension>
            <ns3:atemp>21.0</ns3:atemp>
          </ns3:TrackPointExtension>
        </extensions>
      </trkpt>
      <trkpt lat="43.1533782184123992919921875" lon="13.10370574705302715301513671875">
        <ele>708.4000244140625</ele>
        <time>2021-05-25T09:45:04.000Z</time>
        <extensions>
          <ns3:TrackPointExtension>
            <ns3:atemp>21.0</ns3:atemp>
          </ns3:TrackPointExtension>
        </extensions>
      </trkpt>
      <trkpt lat="43.15331795252859592437744140625" lon="13.10369954444468021392822265625">
        <ele>709.79998779296875</ele>
        <time>2021-05-25T09:45:07.000Z</time>
        <extensions>
          <ns3:TrackPointExtension>
            <ns3:atemp>21.0</ns3:atemp>
          </ns3:TrackPointExtension>
        </extensions>
      </trkpt>
      <trkpt lat="43.1532526575028896331787109375" lon="13.1036791764199733734130859375">
        <ele>710.79998779296875</ele>
        <time>2021-05-25T09:45:11.000Z</time>
        <extensions>
          <ns3:TrackPointExtension>
            <ns3:atemp>21.0</ns3:atemp>
          </ns3:TrackPointExtension>
        </extensions>
      </trkpt>
      <trkpt lat="43.153199851512908935546875" lon="13.10363383032381534576416015625">
        <ele>712</ele>
        <time>2021-05-25T09:45:15.000Z</time>
        <extensions>
          <ns3:TrackPointExtension>
            <ns3:atemp>21.0</ns3:atemp>
          </ns3:TrackPointExtension>
        </extensions>
      </trkpt>
      <trkpt lat="43.1531832553446292877197265625" lon="13.10359954833984375">
        <ele>712.4000244140625</ele>
        <time>2021-05-25T09:45:17.000Z</time>
        <extensions>
          <ns3:TrackPointExtension>
            <ns3:atemp>21.0</ns3:atemp>
          </ns3:TrackPointExtension>
        </extensions>
      </trkpt>
      <trkpt lat="43.1531690061092376708984375" lon="13.1036089360713958740234375">
        <ele>713</ele>
        <time>2021-05-25T09:45:19.000Z</time>
        <extensions>
          <ns3:TrackPointExtension>
            <ns3:atemp>21.0</ns3:atemp>
          </ns3:TrackPointExtension>
        </extensions>
      </trkpt>
      <trkpt lat="43.1531406752765178680419921875" lon="13.103623352944850921630859375">
        <ele>714</ele>
        <time>2021-05-25T09:45:24.000Z</time>
        <extensions>
          <ns3:TrackPointExtension>
            <ns3:atemp>21.0</ns3:atemp>
          </ns3:TrackPointExtension>
        </extensions>
      </trkpt>
      <trkpt lat="43.153141178190708160400390625" lon="13.1036238558590412139892578125">
        <ele>714.20001220703125</ele>
        <time>2021-05-25T09:45:25.000Z</time>
        <extensions>
          <ns3:TrackPointExtension>
            <ns3:atemp>21.0</ns3:atemp>
          </ns3:TrackPointExtension>
        </extensions>
      </trkpt>
      <trkpt lat="43.153138495981693267822265625" lon="13.10362176038324832916259765625">
        <ele>715</ele>
        <time>2021-05-25T09:45:31.000Z</time>
        <extensions>
          <ns3:TrackPointExtension>
            <ns3:atemp>21.0</ns3:atemp>
          </ns3:TrackPointExtension>
        </extensions>
      </trkpt>
      <trkpt lat="43.15313757397234439849853515625" lon="13.1036221794784069061279296875">
        <ele>715</ele>
        <time>2021-05-25T09:45:34.000Z</time>
        <extensions>
          <ns3:TrackPointExtension>
            <ns3:atemp>21.0</ns3:atemp>
          </ns3:TrackPointExtension>
        </extensions>
      </trkpt>
      <trkpt lat="43.15313405357301235198974609375" lon="13.10360801406204700469970703125">
        <ele>715.20001220703125</ele>
        <time>2021-05-25T09:45:37.000Z</time>
        <extensions>
          <ns3:TrackPointExtension>
            <ns3:atemp>21.0</ns3:atemp>
          </ns3:TrackPointExtension>
        </extensions>
      </trkpt>
      <trkpt lat="43.1531319580972194671630859375" lon="13.103583790361881256103515625">
        <ele>715.20001220703125</ele>
        <time>2021-05-25T09:45:39.000Z</time>
        <extensions>
          <ns3:TrackPointExtension>
            <ns3:atemp>21.0</ns3:atemp>
          </ns3:TrackPointExtension>
        </extensions>
      </trkpt>
      <trkpt lat="43.15311125479638576507568359375" lon="13.10354682616889476776123046875">
        <ele>715</ele>
        <time>2021-05-25T09:45:48.000Z</time>
        <extensions>
          <ns3:TrackPointExtension>
            <ns3:atemp>21.0</ns3:atemp>
          </ns3:TrackPointExtension>
        </extensions>
      </trkpt>
      <trkpt lat="43.15310589037835597991943359375" lon="13.1035467423498630523681640625">
        <ele>715.4000244140625</ele>
        <time>2021-05-25T09:45:58.000Z</time>
        <extensions>
          <ns3:TrackPointExtension>
            <ns3:atemp>21.0</ns3:atemp>
          </ns3:TrackPointExtension>
        </extensions>
      </trkpt>
      <trkpt lat="43.15311309881508350372314453125" lon="13.10350089333951473236083984375">
        <ele>715.5999755859375</ele>
        <time>2021-05-25T09:46:05.000Z</time>
        <extensions>
          <ns3:TrackPointExtension>
            <ns3:atemp>21.0</ns3:atemp>
          </ns3:TrackPointExtension>
        </extensions>
      </trkpt>
      <trkpt lat="43.15313749015331268310546875" lon="13.10345579870045185089111328125">
        <ele>715.5999755859375</ele>
        <time>2021-05-25T09:46:07.000Z</time>
        <extensions>
          <ns3:TrackPointExtension>
            <ns3:atemp>21.0</ns3:atemp>
          </ns3:TrackPointExtension>
        </extensions>
      </trkpt>
      <trkpt lat="43.15323128364980220794677734375" lon="13.10334817506372928619384765625">
        <ele>715.20001220703125</ele>
        <time>2021-05-25T09:46:11.000Z</time>
        <extensions>
          <ns3:TrackPointExtension>
            <ns3:atemp>21.0</ns3:atemp>
          </ns3:TrackPointExtension>
        </extensions>
      </trkpt>
      <trkpt lat="43.1533348001539707183837890625" lon="13.10322999022901058197021484375">
        <ele>714.20001220703125</ele>
        <time>2021-05-25T09:46:15.000Z</time>
        <extensions>
          <ns3:TrackPointExtension>
            <ns3:atemp>21.0</ns3:atemp>
          </ns3:TrackPointExtension>
        </extensions>
      </trkpt>
      <trkpt lat="43.1533482111990451812744140625" lon="13.10320434160530567169189453125">
        <ele>714</ele>
        <time>2021-05-25T09:46:16.000Z</time>
        <extensions>
          <ns3:TrackPointExtension>
            <ns3:atemp>21.0</ns3:atemp>
          </ns3:TrackPointExtension>
        </extensions>
      </trkpt>
      <trkpt lat="43.15344803966581821441650390625" lon="13.1030471809208393096923828125">
        <ele>713.79998779296875</ele>
        <time>2021-05-25T09:46:22.000Z</time>
        <extensions>
          <ns3:TrackPointExtension>
            <ns3:atemp>21.0</ns3:atemp>
          </ns3:TrackPointExtension>
        </extensions>
      </trkpt>
      <trkpt lat="43.15352330915629863739013671875" lon="13.10291868634521961212158203125">
        <ele>713.79998779296875</ele>
        <time>2021-05-25T09:46:26.000Z</time>
        <extensions>
          <ns3:TrackPointExtension>
            <ns3:atemp>21.0</ns3:atemp>
          </ns3:TrackPointExtension>
        </extensions>
      </trkpt>
      <trkpt lat="43.153547532856464385986328125" lon="13.10289102606475353240966796875">
        <ele>713.79998779296875</ele>
        <time>2021-05-25T09:46:27.000Z</time>
        <extensions>
          <ns3:TrackPointExtension>
            <ns3:atemp>21.0</ns3:atemp>
          </ns3:TrackPointExtension>
        </extensions>
      </trkpt>
      <trkpt lat="43.15363931469619274139404296875" lon="13.1027447618544101715087890625">
        <ele>714</ele>
        <time>2021-05-25T09:46:31.000Z</time>
        <extensions>
          <ns3:TrackPointExtension>
            <ns3:atemp>21.0</ns3:atemp>
          </ns3:TrackPointExtension>
        </extensions>
      </trkpt>
      <trkpt lat="43.15369999967515468597412109375" lon="13.102507889270782470703125">
        <ele>714.5999755859375</ele>
        <time>2021-05-25T09:46:37.000Z</time>
        <extensions>
          <ns3:TrackPointExtension>
            <ns3:atemp>21.0</ns3:atemp>
          </ns3:TrackPointExtension>
        </extensions>
      </trkpt>
      <trkpt lat="43.153704442083835601806640625" lon="13.10246874578297138214111328125">
        <ele>715</ele>
        <time>2021-05-25T09:46:38.000Z</time>
        <extensions>
          <ns3:TrackPointExtension>
            <ns3:atemp>21.0</ns3:atemp>
          </ns3:TrackPointExtension>
        </extensions>
      </trkpt>
      <trkpt lat="43.1537183560431003570556640625" lon="13.102268837392330169677734375">
        <ele>716</ele>
        <time>2021-05-25T09:46:43.000Z</time>
        <extensions>
          <ns3:TrackPointExtension>
            <ns3:atemp>21.0</ns3:atemp>
          </ns3:TrackPointExtension>
        </extensions>
      </trkpt>
      <trkpt lat="43.15370854921638965606689453125" lon="13.10204512439668178558349609375">
        <ele>717</ele>
        <time>2021-05-25T09:46:49.000Z</time>
        <extensions>
          <ns3:TrackPointExtension>
            <ns3:atemp>21.0</ns3:atemp>
          </ns3:TrackPointExtension>
        </extensions>
      </trkpt>
      <trkpt lat="43.153698407113552093505859375" lon="13.10199231840670108795166015625">
        <ele>717.20001220703125</ele>
        <time>2021-05-25T09:46:50.000Z</time>
        <extensions>
          <ns3:TrackPointExtension>
            <ns3:atemp>21.0</ns3:atemp>
          </ns3:TrackPointExtension>
        </extensions>
      </trkpt>
      <trkpt lat="43.1536563299596309661865234375" lon="13.10182032175362110137939453125">
        <ele>717.20001220703125</ele>
        <time>2021-05-25T09:46:53.000Z</time>
        <extensions>
          <ns3:TrackPointExtension>
            <ns3:atemp>21.0</ns3:atemp>
          </ns3:TrackPointExtension>
        </extensions>
      </trkpt>
      <trkpt lat="43.1536345370113849639892578125" lon="13.1017479859292507171630859375">
        <ele>717.20001220703125</ele>
        <time>2021-05-25T09:46:54.000Z</time>
        <extensions>
          <ns3:TrackPointExtension>
            <ns3:atemp>20.0</ns3:atemp>
          </ns3:TrackPointExtension>
        </extensions>
      </trkpt>
      <trkpt lat="43.15348173491656780242919921875" lon="13.1013409607112407684326171875">
        <ele>717</ele>
        <time>2021-05-25T09:46:59.000Z</time>
        <extensions>
          <ns3:TrackPointExtension>
            <ns3:atemp>20.0</ns3:atemp>
          </ns3:TrackPointExtension>
        </extensions>
      </trkpt>
      <trkpt lat="43.15344166941940784454345703125" lon="13.101252950727939605712890625">
        <ele>716</ele>
        <time>2021-05-25T09:47:00.000Z</time>
        <extensions>
          <ns3:TrackPointExtension>
            <ns3:atemp>20.0</ns3:atemp>
          </ns3:TrackPointExtension>
        </extensions>
      </trkpt>
      <trkpt lat="43.15335315652191638946533203125" lon="13.10106192715466022491455078125">
        <ele>714.5999755859375</ele>
        <time>2021-05-25T09:47:02.000Z</time>
        <extensions>
          <ns3:TrackPointExtension>
            <ns3:atemp>20.0</ns3:atemp>
          </ns3:TrackPointExtension>
        </extensions>
      </trkpt>
      <trkpt lat="43.15327621065080165863037109375" lon="13.100883476436138153076171875">
        <ele>712.79998779296875</ele>
        <time>2021-05-25T09:47:04.000Z</time>
        <extensions>
          <ns3:TrackPointExtension>
            <ns3:atemp>20.0</ns3:atemp>
          </ns3:TrackPointExtension>
        </extensions>
      </trkpt>
      <trkpt lat="43.15323983319103717803955078125" lon="13.10080192051827907562255859375">
        <ele>712</ele>
        <time>2021-05-25T09:47:05.000Z</time>
        <extensions>
          <ns3:TrackPointExtension>
            <ns3:atemp>20.0</ns3:atemp>
          </ns3:TrackPointExtension>
        </extensions>
      </trkpt>
      <trkpt lat="43.153202868998050689697265625" lon="13.100715838372707366943359375">
        <ele>711.4000244140625</ele>
        <time>2021-05-25T09:47:06.000Z</time>
        <extensions>
          <ns3:TrackPointExtension>
            <ns3:atemp>20.0</ns3:atemp>
          </ns3:TrackPointExtension>
        </extensions>
      </trkpt>
      <trkpt lat="43.15301679074764251708984375" lon="13.1002925522625446319580078125">
        <ele>710.4000244140625</ele>
        <time>2021-05-25T09:47:11.000Z</time>
        <extensions>
          <ns3:TrackPointExtension>
            <ns3:atemp>20.0</ns3:atemp>
          </ns3:TrackPointExtension>
        </extensions>
      </trkpt>
      <trkpt lat="43.15290170721709728240966796875" lon="13.1000588648021221160888671875">
        <ele>710.20001220703125</ele>
        <time>2021-05-25T09:47:15.000Z</time>
        <extensions>
          <ns3:TrackPointExtension>
            <ns3:atemp>20.0</ns3:atemp>
          </ns3:TrackPointExtension>
        </extensions>
      </trkpt>
      <trkpt lat="43.1527893058955669403076171875" lon="13.099806569516658782958984375">
        <ele>710.4000244140625</ele>
        <time>2021-05-25T09:47:21.000Z</time>
        <extensions>
          <ns3:TrackPointExtension>
            <ns3:atemp>20.0</ns3:atemp>
          </ns3:TrackPointExtension>
        </extensions>
      </trkpt>
      <trkpt lat="43.1527427025139331817626953125" lon="13.09970439411699771881103515625">
        <ele>711.79998779296875</ele>
        <time>2021-05-25T09:47:24.000Z</time>
        <extensions>
          <ns3:TrackPointExtension>
            <ns3:atemp>20.0</ns3:atemp>
          </ns3:TrackPointExtension>
        </extensions>
      </trkpt>
      <trkpt lat="43.1527091749012470245361328125" lon="13.09964907355606555938720703125">
        <ele>712.79998779296875</ele>
        <time>2021-05-25T09:47:26.000Z</time>
        <extensions>
          <ns3:TrackPointExtension>
            <ns3:atemp>20.0</ns3:atemp>
          </ns3:TrackPointExtension>
        </extensions>
      </trkpt>
      <trkpt lat="43.15269014798104763031005859375" lon="13.099620155990123748779296875">
        <ele>713.20001220703125</ele>
        <time>2021-05-25T09:47:27.000Z</time>
        <extensions>
          <ns3:TrackPointExtension>
            <ns3:atemp>20.0</ns3:atemp>
          </ns3:TrackPointExtension>
        </extensions>
      </trkpt>
      <trkpt lat="43.15266902558505535125732421875" lon="13.0995911546051502227783203125">
        <ele>714</ele>
        <time>2021-05-25T09:47:28.000Z</time>
        <extensions>
          <ns3:TrackPointExtension>
            <ns3:atemp>20.0</ns3:atemp>
          </ns3:TrackPointExtension>
        </extensions>
      </trkpt>
      <trkpt lat="43.1526183150708675384521484375" lon="13.099544048309326171875">
        <ele>716</ele>
        <time>2021-05-25T09:47:30.000Z</time>
        <extensions>
          <ns3:TrackPointExtension>
            <ns3:atemp>20.0</ns3:atemp>
          </ns3:TrackPointExtension>
        </extensions>
      </trkpt>
      <trkpt lat="43.1525467336177825927734375" lon="13.0994972772896289825439453125">
        <ele>717.79998779296875</ele>
        <time>2021-05-25T09:47:32.000Z</time>
        <extensions>
          <ns3:TrackPointExtension>
            <ns3:atemp>20.0</ns3:atemp>
          </ns3:TrackPointExtension>
        </extensions>
      </trkpt>
      <trkpt lat="43.15251345746219158172607421875" lon="13.09948344714939594268798828125">
        <ele>718.4000244140625</ele>
        <time>2021-05-25T09:47:33.000Z</time>
        <extensions>
          <ns3:TrackPointExtension>
            <ns3:atemp>20.0</ns3:atemp>
          </ns3:TrackPointExtension>
        </extensions>
      </trkpt>
      <trkpt lat="43.1524738110601902008056640625" lon="13.0994707904756069183349609375">
        <ele>718.79998779296875</ele>
        <time>2021-05-25T09:47:34.000Z</time>
        <extensions>
          <ns3:TrackPointExtension>
            <ns3:atemp>20.0</ns3:atemp>
          </ns3:TrackPointExtension>
        </extensions>
      </trkpt>
      <trkpt lat="43.1524295546114444732666015625" lon="13.09946500696241855621337890625">
        <ele>719</ele>
        <time>2021-05-25T09:47:35.000Z</time>
        <extensions>
          <ns3:TrackPointExtension>
            <ns3:atemp>20.0</ns3:atemp>
          </ns3:TrackPointExtension>
        </extensions>
      </trkpt>
      <trkpt lat="43.15233475528657436370849609375" lon="13.0994650907814502716064453125">
        <ele>719.20001220703125</ele>
        <time>2021-05-25T09:47:37.000Z</time>
        <extensions>
          <ns3:TrackPointExtension>
            <ns3:atemp>20.0</ns3:atemp>
          </ns3:TrackPointExtension>
        </extensions>
      </trkpt>
      <trkpt lat="43.15201791934669017791748046875" lon="13.0994622409343719482421875">
        <ele>719.4000244140625</ele>
        <time>2021-05-25T09:47:42.000Z</time>
        <extensions>
          <ns3:TrackPointExtension>
            <ns3:atemp>20.0</ns3:atemp>
          </ns3:TrackPointExtension>
        </extensions>
      </trkpt>
      <trkpt lat="43.15195287577807903289794921875" lon="13.0994489975273609161376953125">
        <ele>719.20001220703125</ele>
        <time>2021-05-25T09:47:43.000Z</time>
        <extensions>
          <ns3:TrackPointExtension>
            <ns3:atemp>20.0</ns3:atemp>
          </ns3:TrackPointExtension>
        </extensions>
      </trkpt>
      <trkpt lat="43.15178775228559970855712890625" lon="13.09938990511000156402587890625">
        <ele>718</ele>
        <time>2021-05-25T09:47:46.000Z</time>
        <extensions>
          <ns3:TrackPointExtension>
            <ns3:atemp>20.0</ns3:atemp>
          </ns3:TrackPointExtension>
        </extensions>
      </trkpt>
      <trkpt lat="43.15169890411198139190673828125" lon="13.09932402335107326507568359375">
        <ele>716</ele>
        <time>2021-05-25T09:47:48.000Z</time>
        <extensions>
          <ns3:TrackPointExtension>
            <ns3:atemp>20.0</ns3:atemp>
          </ns3:TrackPointExtension>
        </extensions>
      </trkpt>
      <trkpt lat="43.15162614919245243072509765625" lon="13.0992476642131805419921875">
        <ele>714.4000244140625</ele>
        <time>2021-05-25T09:47:50.000Z</time>
        <extensions>
          <ns3:TrackPointExtension>
            <ns3:atemp>20.0</ns3:atemp>
          </ns3:TrackPointExtension>
        </extensions>
      </trkpt>
      <trkpt lat="43.151584155857563018798828125" lon="13.09920282103121280670166015625">
        <ele>713.20001220703125</ele>
        <time>2021-05-25T09:47:51.000Z</time>
        <extensions>
          <ns3:TrackPointExtension>
            <ns3:atemp>20.0</ns3:atemp>
          </ns3:TrackPointExtension>
        </extensions>
      </trkpt>
      <trkpt lat="43.15149472095072269439697265625" lon="13.0990976281464099884033203125">
        <ele>712</ele>
        <time>2021-05-25T09:47:53.000Z</time>
        <extensions>
          <ns3:TrackPointExtension>
            <ns3:atemp>20.0</ns3:atemp>
          </ns3:TrackPointExtension>
        </extensions>
      </trkpt>
      <trkpt lat="43.151399083435535430908203125" lon="13.09899729676544666290283203125">
        <ele>711.5999755859375</ele>
        <time>2021-05-25T09:47:55.000Z</time>
        <extensions>
          <ns3:TrackPointExtension>
            <ns3:atemp>20.0</ns3:atemp>
          </ns3:TrackPointExtension>
        </extensions>
      </trkpt>
      <trkpt lat="43.151354826986789703369140625" lon="13.0989454127848148345947265625">
        <ele>711.4000244140625</ele>
        <time>2021-05-25T09:47:56.000Z</time>
        <extensions>
          <ns3:TrackPointExtension>
            <ns3:atemp>20.0</ns3:atemp>
          </ns3:TrackPointExtension>
        </extensions>
      </trkpt>
      <trkpt lat="43.151313252747058868408203125" lon="13.098887242376804351806640625">
        <ele>710.79998779296875</ele>
        <time>2021-05-25T09:47:57.000Z</time>
        <extensions>
          <ns3:TrackPointExtension>
            <ns3:atemp>20.0</ns3:atemp>
          </ns3:TrackPointExtension>
        </extensions>
      </trkpt>
      <trkpt lat="43.1512410007417201995849609375" lon="13.09873402118682861328125">
        <ele>708.5999755859375</ele>
        <time>2021-05-25T09:47:59.000Z</time>
        <extensions>
          <ns3:TrackPointExtension>
            <ns3:atemp>20.0</ns3:atemp>
          </ns3:TrackPointExtension>
        </extensions>
      </trkpt>
      <trkpt lat="43.15118878148496150970458984375" lon="13.0985662154853343963623046875">
        <ele>706.5999755859375</ele>
        <time>2021-05-25T09:48:01.000Z</time>
        <extensions>
          <ns3:TrackPointExtension>
            <ns3:atemp>20.0</ns3:atemp>
          </ns3:TrackPointExtension>
        </extensions>
      </trkpt>
      <trkpt lat="43.151165731251239776611328125" lon="13.09847996570169925689697265625">
        <ele>705.5999755859375</ele>
        <time>2021-05-25T09:48:02.000Z</time>
        <extensions>
          <ns3:TrackPointExtension>
            <ns3:atemp>20.0</ns3:atemp>
          </ns3:TrackPointExtension>
        </extensions>
      </trkpt>
      <trkpt lat="43.15113949589431285858154296875" lon="13.09839782305061817169189453125">
        <ele>704.5999755859375</ele>
        <time>2021-05-25T09:48:03.000Z</time>
        <extensions>
          <ns3:TrackPointExtension>
            <ns3:atemp>20.0</ns3:atemp>
          </ns3:TrackPointExtension>
        </extensions>
      </trkpt>
      <trkpt lat="43.151107728481292724609375" lon="13.0983120761811733245849609375">
        <ele>703.4000244140625</ele>
        <time>2021-05-25T09:48:04.000Z</time>
        <extensions>
          <ns3:TrackPointExtension>
            <ns3:atemp>20.0</ns3:atemp>
          </ns3:TrackPointExtension>
        </extensions>
      </trkpt>
      <trkpt lat="43.15106120891869068145751953125" lon="13.0982118286192417144775390625">
        <ele>702.4000244140625</ele>
        <time>2021-05-25T09:48:05.000Z</time>
        <extensions>
          <ns3:TrackPointExtension>
            <ns3:atemp>20.0</ns3:atemp>
          </ns3:TrackPointExtension>
        </extensions>
      </trkpt>
      <trkpt lat="43.15095090307295322418212890625" lon="13.09803186915814876556396484375">
        <ele>700.5999755859375</ele>
        <time>2021-05-25T09:48:07.000Z</time>
        <extensions>
          <ns3:TrackPointExtension>
            <ns3:atemp>20.0</ns3:atemp>
          </ns3:TrackPointExtension>
        </extensions>
      </trkpt>
      <trkpt lat="43.15081729553639888763427734375" lon="13.0979065597057342529296875">
        <ele>699.79998779296875</ele>
        <time>2021-05-25T09:48:09.000Z</time>
        <extensions>
          <ns3:TrackPointExtension>
            <ns3:atemp>20.0</ns3:atemp>
          </ns3:TrackPointExtension>
        </extensions>
      </trkpt>
      <trkpt lat="43.15074604935944080352783203125" lon="13.0978594534099102020263671875">
        <ele>699.4000244140625</ele>
        <time>2021-05-25T09:48:10.000Z</time>
        <extensions>
          <ns3:TrackPointExtension>
            <ns3:atemp>20.0</ns3:atemp>
          </ns3:TrackPointExtension>
        </extensions>
      </trkpt>
      <trkpt lat="43.15067262388765811920166015625" lon="13.0978188849985599517822265625">
        <ele>699</ele>
        <time>2021-05-25T09:48:11.000Z</time>
        <extensions>
          <ns3:TrackPointExtension>
            <ns3:atemp>20.0</ns3:atemp>
          </ns3:TrackPointExtension>
        </extensions>
      </trkpt>
      <trkpt lat="43.1506048142910003662109375" lon="13.0977820046246051788330078125">
        <ele>698.20001220703125</ele>
        <time>2021-05-25T09:48:12.000Z</time>
        <extensions>
          <ns3:TrackPointExtension>
            <ns3:atemp>20.0</ns3:atemp>
          </ns3:TrackPointExtension>
        </extensions>
      </trkpt>
      <trkpt lat="43.1505426205694675445556640625" lon="13.09774537570774555206298828125">
        <ele>696.79998779296875</ele>
        <time>2021-05-25T09:48:13.000Z</time>
        <extensions>
          <ns3:TrackPointExtension>
            <ns3:atemp>20.0</ns3:atemp>
          </ns3:TrackPointExtension>
        </extensions>
      </trkpt>
      <trkpt lat="43.1504852883517742156982421875" lon="13.09770832769572734832763671875">
        <ele>696</ele>
        <time>2021-05-25T09:48:14.000Z</time>
        <extensions>
          <ns3:TrackPointExtension>
            <ns3:atemp>20.0</ns3:atemp>
          </ns3:TrackPointExtension>
        </extensions>
      </trkpt>
      <trkpt lat="43.15043306909501552581787109375" lon="13.09767345897853374481201171875">
        <ele>695.5999755859375</ele>
        <time>2021-05-25T09:48:15.000Z</time>
        <extensions>
          <ns3:TrackPointExtension>
            <ns3:atemp>20.0</ns3:atemp>
          </ns3:TrackPointExtension>
        </extensions>
      </trkpt>
      <trkpt lat="43.1502070091664791107177734375" lon="13.09752275235950946807861328125">
        <ele>695.20001220703125</ele>
        <time>2021-05-25T09:48:20.000Z</time>
        <extensions>
          <ns3:TrackPointExtension>
            <ns3:atemp>20.0</ns3:atemp>
          </ns3:TrackPointExtension>
        </extensions>
      </trkpt>
      <trkpt lat="43.15007968805730342864990234375" lon="13.09742820449173450469970703125">
        <ele>695.79998779296875</ele>
        <time>2021-05-25T09:48:23.000Z</time>
        <extensions>
          <ns3:TrackPointExtension>
            <ns3:atemp>20.0</ns3:atemp>
          </ns3:TrackPointExtension>
        </extensions>
      </trkpt>
      <trkpt lat="43.15000559203326702117919921875" lon="13.097348324954509735107421875">
        <ele>696.79998779296875</ele>
        <time>2021-05-25T09:48:25.000Z</time>
        <extensions>
          <ns3:TrackPointExtension>
            <ns3:atemp>20.0</ns3:atemp>
          </ns3:TrackPointExtension>
        </extensions>
      </trkpt>
      <trkpt lat="43.149973489344120025634765625" lon="13.09730012901127338409423828125">
        <ele>697.20001220703125</ele>
        <time>2021-05-25T09:48:26.000Z</time>
        <extensions>
          <ns3:TrackPointExtension>
            <ns3:atemp>20.0</ns3:atemp>
          </ns3:TrackPointExtension>
        </extensions>
      </trkpt>
      <trkpt lat="43.1499243713915348052978515625" lon="13.09708689339458942413330078125">
        <ele>697.4000244140625</ele>
        <time>2021-05-25T09:48:29.000Z</time>
        <extensions>
          <ns3:TrackPointExtension>
            <ns3:atemp>20.0</ns3:atemp>
          </ns3:TrackPointExtension>
        </extensions>
      </trkpt>
      <trkpt lat="43.1499154865741729736328125" lon="13.09700156562030315399169921875">
        <ele>697.4000244140625</ele>
        <time>2021-05-25T09:48:30.000Z</time>
        <extensions>
          <ns3:TrackPointExtension>
            <ns3:atemp>20.0</ns3:atemp>
          </ns3:TrackPointExtension>
        </extensions>
      </trkpt>
      <trkpt lat="43.14991121180355548858642578125" lon="13.096913136541843414306640625">
        <ele>697.4000244140625</ele>
        <time>2021-05-25T09:48:31.000Z</time>
        <extensions>
          <ns3:TrackPointExtension>
            <ns3:atemp>20.0</ns3:atemp>
          </ns3:TrackPointExtension>
        </extensions>
      </trkpt>
      <trkpt lat="43.14993266947567462921142578125" lon="13.0966333486139774322509765625">
        <ele>697.4000244140625</ele>
        <time>2021-05-25T09:48:34.000Z</time>
        <extensions>
          <ns3:TrackPointExtension>
            <ns3:atemp>20.0</ns3:atemp>
          </ns3:TrackPointExtension>
        </extensions>
      </trkpt>
      <trkpt lat="43.14986712299287319183349609375" lon="13.09641919098794460296630859375">
        <ele>696</ele>
        <time>2021-05-25T09:48:37.000Z</time>
        <extensions>
          <ns3:TrackPointExtension>
            <ns3:atemp>20.0</ns3:atemp>
          </ns3:TrackPointExtension>
        </extensions>
      </trkpt>
      <trkpt lat="43.149821273982524871826171875" lon="13.09638381935656070709228515625">
        <ele>694.79998779296875</ele>
        <time>2021-05-25T09:48:38.000Z</time>
        <extensions>
          <ns3:TrackPointExtension>
            <ns3:atemp>20.0</ns3:atemp>
          </ns3:TrackPointExtension>
        </extensions>
      </trkpt>
      <trkpt lat="43.14977358095347881317138671875" lon="13.09636018238961696624755859375">
        <ele>693.5999755859375</ele>
        <time>2021-05-25T09:48:39.000Z</time>
        <extensions>
          <ns3:TrackPointExtension>
            <ns3:atemp>20.0</ns3:atemp>
          </ns3:TrackPointExtension>
        </extensions>
      </trkpt>
      <trkpt lat="43.14973083324730396270751953125" lon="13.09634911827743053436279296875">
        <ele>692.4000244140625</ele>
        <time>2021-05-25T09:48:40.000Z</time>
        <extensions>
          <ns3:TrackPointExtension>
            <ns3:atemp>20.0</ns3:atemp>
          </ns3:TrackPointExtension>
        </extensions>
      </trkpt>
      <trkpt lat="43.1496890075504779815673828125" lon="13.096344172954559326171875">
        <ele>691.79998779296875</ele>
        <time>2021-05-25T09:48:41.000Z</time>
        <extensions>
          <ns3:TrackPointExtension>
            <ns3:atemp>20.0</ns3:atemp>
          </ns3:TrackPointExtension>
        </extensions>
      </trkpt>
      <trkpt lat="43.14963628537952899932861328125" lon="13.0963347852230072021484375">
        <ele>691.4000244140625</ele>
        <time>2021-05-25T09:48:42.000Z</time>
        <extensions>
          <ns3:TrackPointExtension>
            <ns3:atemp>20.0</ns3:atemp>
          </ns3:TrackPointExtension>
        </extensions>
      </trkpt>
      <trkpt lat="43.14958381466567516326904296875" lon="13.09632782824337482452392578125">
        <ele>691.20001220703125</ele>
        <time>2021-05-25T09:48:43.000Z</time>
        <extensions>
          <ns3:TrackPointExtension>
            <ns3:atemp>20.0</ns3:atemp>
          </ns3:TrackPointExtension>
        </extensions>
      </trkpt>
      <trkpt lat="43.14934291876852512359619140625" lon="13.09630419127643108367919921875">
        <ele>691.20001220703125</ele>
        <time>2021-05-25T09:48:47.000Z</time>
        <extensions>
          <ns3:TrackPointExtension>
            <ns3:atemp>20.0</ns3:atemp>
          </ns3:TrackPointExtension>
        </extensions>
      </trkpt>
      <trkpt lat="43.14923244528472423553466796875" lon="13.09628206305205821990966796875">
        <ele>691.20001220703125</ele>
        <time>2021-05-25T09:48:49.000Z</time>
        <extensions>
          <ns3:TrackPointExtension>
            <ns3:atemp>19.0</ns3:atemp>
          </ns3:TrackPointExtension>
        </extensions>
      </trkpt>
      <trkpt lat="43.1491106562316417694091796875" lon="13.09621601365506649017333984375">
        <ele>691</ele>
        <time>2021-05-25T09:48:52.000Z</time>
        <extensions>
          <ns3:TrackPointExtension>
            <ns3:atemp>19.0</ns3:atemp>
          </ns3:TrackPointExtension>
        </extensions>
      </trkpt>
      <trkpt lat="43.14907385967671871185302734375" lon="13.09618349187076091766357421875">
        <ele>691</ele>
        <time>2021-05-25T09:48:53.000Z</time>
        <extensions>
          <ns3:TrackPointExtension>
            <ns3:atemp>19.0</ns3:atemp>
          </ns3:TrackPointExtension>
        </extensions>
      </trkpt>
      <trkpt lat="43.14903362654149532318115234375" lon="13.09616220183670520782470703125">
        <ele>691</ele>
        <time>2021-05-25T09:48:54.000Z</time>
        <extensions>
          <ns3:TrackPointExtension>
            <ns3:atemp>19.0</ns3:atemp>
          </ns3:TrackPointExtension>
        </extensions>
      </trkpt>
      <trkpt lat="43.1489467062056064605712890625" lon="13.09618852101266384124755859375">
        <ele>691</ele>
        <time>2021-05-25T09:48:56.000Z</time>
        <extensions>
          <ns3:TrackPointExtension>
            <ns3:atemp>19.0</ns3:atemp>
          </ns3:TrackPointExtension>
        </extensions>
      </trkpt>
      <trkpt lat="43.1488766334950923919677734375" lon="13.09634341858327388763427734375">
        <ele>690.5999755859375</ele>
        <time>2021-05-25T09:48:59.000Z</time>
        <extensions>
          <ns3:TrackPointExtension>
            <ns3:atemp>19.0</ns3:atemp>
          </ns3:TrackPointExtension>
        </extensions>
      </trkpt>
      <trkpt lat="43.1488575227558612823486328125" lon="13.0964653752744197845458984375">
        <ele>690</ele>
        <time>2021-05-25T09:49:01.000Z</time>
        <extensions>
          <ns3:TrackPointExtension>
            <ns3:atemp>19.0</ns3:atemp>
          </ns3:TrackPointExtension>
        </extensions>
      </trkpt>
      <trkpt lat="43.14882290549576282501220703125" lon="13.09672647155821323394775390625">
        <ele>688.79998779296875</ele>
        <time>2021-05-25T09:49:05.000Z</time>
        <extensions>
          <ns3:TrackPointExtension>
            <ns3:atemp>19.0</ns3:atemp>
          </ns3:TrackPointExtension>
        </extensions>
      </trkpt>
      <trkpt lat="43.1488112546503543853759765625" lon="13.09679520316421985626220703125">
        <ele>688.79998779296875</ele>
        <time>2021-05-25T09:49:06.000Z</time>
        <extensions>
          <ns3:TrackPointExtension>
            <ns3:atemp>19.0</ns3:atemp>
          </ns3:TrackPointExtension>
        </extensions>
      </trkpt>
      <trkpt lat="43.148777894675731658935546875" lon="13.09707113541662693023681640625">
        <ele>688.4000244140625</ele>
        <time>2021-05-25T09:49:10.000Z</time>
        <extensions>
          <ns3:TrackPointExtension>
            <ns3:atemp>19.0</ns3:atemp>
          </ns3:TrackPointExtension>
        </extensions>
      </trkpt>
      <trkpt lat="43.14878585748374462127685546875" lon="13.09718999080359935760498046875">
        <ele>688.4000244140625</ele>
        <time>2021-05-25T09:49:12.000Z</time>
        <extensions>
          <ns3:TrackPointExtension>
            <ns3:atemp>19.0</ns3:atemp>
          </ns3:TrackPointExtension>
        </extensions>
      </trkpt>
      <trkpt lat="43.1488028727471828460693359375" lon="13.09740959666669368743896484375">
        <ele>688.20001220703125</ele>
        <time>2021-05-25T09:49:16.000Z</time>
        <extensions>
          <ns3:TrackPointExtension>
            <ns3:atemp>19.0</ns3:atemp>
          </ns3:TrackPointExtension>
        </extensions>
      </trkpt>
      <trkpt lat="43.14871813170611858367919921875" lon="13.09749961830675601959228515625">
        <ele>687.79998779296875</ele>
        <time>2021-05-25T09:49:19.000Z</time>
        <extensions>
          <ns3:TrackPointExtension>
            <ns3:atemp>19.0</ns3:atemp>
          </ns3:TrackPointExtension>
        </extensions>
      </trkpt>
      <trkpt lat="43.14861922524869441986083984375" lon="13.097503222525119781494140625">
        <ele>687.4000244140625</ele>
        <time>2021-05-25T09:49:21.000Z</time>
        <extensions>
          <ns3:TrackPointExtension>
            <ns3:atemp>19.0</ns3:atemp>
          </ns3:TrackPointExtension>
        </extensions>
      </trkpt>
      <trkpt lat="43.14850724302232265472412109375" lon="13.097501881420612335205078125">
        <ele>686.5999755859375</ele>
        <time>2021-05-25T09:49:23.000Z</time>
        <extensions>
          <ns3:TrackPointExtension>
            <ns3:atemp>19.0</ns3:atemp>
          </ns3:TrackPointExtension>
        </extensions>
      </trkpt>
      <trkpt lat="43.14845209009945392608642578125" lon="13.097497187554836273193359375">
        <ele>686.20001220703125</ele>
        <time>2021-05-25T09:49:24.000Z</time>
        <extensions>
          <ns3:TrackPointExtension>
            <ns3:atemp>19.0</ns3:atemp>
          </ns3:TrackPointExtension>
        </extensions>
      </trkpt>
      <trkpt lat="43.14839760772883892059326171875" lon="13.0974872969090938568115234375">
        <ele>685.4000244140625</ele>
        <time>2021-05-25T09:49:25.000Z</time>
        <extensions>
          <ns3:TrackPointExtension>
            <ns3:atemp>19.0</ns3:atemp>
          </ns3:TrackPointExtension>
        </extensions>
      </trkpt>
      <trkpt lat="43.1482945941388607025146484375" lon="13.09743273071944713592529296875">
        <ele>683.5999755859375</ele>
        <time>2021-05-25T09:49:27.000Z</time>
        <extensions>
          <ns3:TrackPointExtension>
            <ns3:atemp>19.0</ns3:atemp>
          </ns3:TrackPointExtension>
        </extensions>
      </trkpt>
      <trkpt lat="43.14824589528143405914306640625" lon="13.09739165939390659332275390625">
        <ele>681.5999755859375</ele>
        <time>2021-05-25T09:49:28.000Z</time>
        <extensions>
          <ns3:TrackPointExtension>
            <ns3:atemp>19.0</ns3:atemp>
          </ns3:TrackPointExtension>
        </extensions>
      </trkpt>
      <trkpt lat="43.14819878898561000823974609375" lon="13.09733734466135501861572265625">
        <ele>680.5999755859375</ele>
        <time>2021-05-25T09:49:29.000Z</time>
        <extensions>
          <ns3:TrackPointExtension>
            <ns3:atemp>19.0</ns3:atemp>
          </ns3:TrackPointExtension>
        </extensions>
      </trkpt>
      <trkpt lat="43.148130141198635101318359375" lon="13.09718965552747249603271484375">
        <ele>679</ele>
        <time>2021-05-25T09:49:31.000Z</time>
        <extensions>
          <ns3:TrackPointExtension>
            <ns3:atemp>19.0</ns3:atemp>
          </ns3:TrackPointExtension>
        </extensions>
      </trkpt>
      <trkpt lat="43.14807976596057415008544921875" lon="13.09703224338591098785400390625">
        <ele>677.20001220703125</ele>
        <time>2021-05-25T09:49:33.000Z</time>
        <extensions>
          <ns3:TrackPointExtension>
            <ns3:atemp>19.0</ns3:atemp>
          </ns3:TrackPointExtension>
        </extensions>
      </trkpt>
      <trkpt lat="43.14806384034454822540283203125" lon="13.0969538725912570953369140625">
        <ele>675.79998779296875</ele>
        <time>2021-05-25T09:49:34.000Z</time>
        <extensions>
          <ns3:TrackPointExtension>
            <ns3:atemp>19.0</ns3:atemp>
          </ns3:TrackPointExtension>
        </extensions>
      </trkpt>
      <trkpt lat="43.14804799854755401611328125" lon="13.09687592089176177978515625">
        <ele>674.4000244140625</ele>
        <time>2021-05-25T09:49:35.000Z</time>
        <extensions>
          <ns3:TrackPointExtension>
            <ns3:atemp>19.0</ns3:atemp>
          </ns3:TrackPointExtension>
        </extensions>
      </trkpt>
      <trkpt lat="43.14802930690348148345947265625" lon="13.096796460449695587158203125">
        <ele>672.79998779296875</ele>
        <time>2021-05-25T09:49:36.000Z</time>
        <extensions>
          <ns3:TrackPointExtension>
            <ns3:atemp>19.0</ns3:atemp>
          </ns3:TrackPointExtension>
        </extensions>
      </trkpt>
      <trkpt lat="43.14801455475389957427978515625" lon="13.0967181734740734100341796875">
        <ele>671</ele>
        <time>2021-05-25T09:49:37.000Z</time>
        <extensions>
          <ns3:TrackPointExtension>
            <ns3:atemp>19.0</ns3:atemp>
          </ns3:TrackPointExtension>
        </extensions>
      </trkpt>
      <trkpt lat="43.14800114370882511138916015625" lon="13.0966450832784175872802734375">
        <ele>669.79998779296875</ele>
        <time>2021-05-25T09:49:38.000Z</time>
        <extensions>
          <ns3:TrackPointExtension>
            <ns3:atemp>19.0</ns3:atemp>
          </ns3:TrackPointExtension>
        </extensions>
      </trkpt>
      <trkpt lat="43.14797532744705677032470703125" lon="13.09651315212249755859375">
        <ele>668.20001220703125</ele>
        <time>2021-05-25T09:49:40.000Z</time>
        <extensions>
          <ns3:TrackPointExtension>
            <ns3:atemp>19.0</ns3:atemp>
          </ns3:TrackPointExtension>
        </extensions>
      </trkpt>
      <trkpt lat="43.1479707174003124237060546875" lon="13.09644802473485469818115234375">
        <ele>667.5999755859375</ele>
        <time>2021-05-25T09:49:41.000Z</time>
        <extensions>
          <ns3:TrackPointExtension>
            <ns3:atemp>19.0</ns3:atemp>
          </ns3:TrackPointExtension>
        </extensions>
      </trkpt>
      <trkpt lat="43.14797289669513702392578125" lon="13.0963775329291820526123046875">
        <ele>666.79998779296875</ele>
        <time>2021-05-25T09:49:42.000Z</time>
        <extensions>
          <ns3:TrackPointExtension>
            <ns3:atemp>19.0</ns3:atemp>
          </ns3:TrackPointExtension>
        </extensions>
      </trkpt>
      <trkpt lat="43.14798094332218170166015625" lon="13.09630285017192363739013671875">
        <ele>665.79998779296875</ele>
        <time>2021-05-25T09:49:43.000Z</time>
        <extensions>
          <ns3:TrackPointExtension>
            <ns3:atemp>19.0</ns3:atemp>
          </ns3:TrackPointExtension>
        </extensions>
      </trkpt>
      <trkpt lat="43.14799041487276554107666015625" lon="13.0962216295301914215087890625">
        <ele>664.79998779296875</ele>
        <time>2021-05-25T09:49:44.000Z</time>
        <extensions>
          <ns3:TrackPointExtension>
            <ns3:atemp>19.0</ns3:atemp>
          </ns3:TrackPointExtension>
        </extensions>
      </trkpt>
      <trkpt lat="43.14800181426107883453369140625" lon="13.09613563120365142822265625">
        <ele>663.79998779296875</ele>
        <time>2021-05-25T09:49:45.000Z</time>
        <extensions>
          <ns3:TrackPointExtension>
            <ns3:atemp>19.0</ns3:atemp>
          </ns3:TrackPointExtension>
        </extensions>
      </trkpt>
      <trkpt lat="43.14802126027643680572509765625" lon="13.09605156071484088897705078125">
        <ele>662.79998779296875</ele>
        <time>2021-05-25T09:49:46.000Z</time>
        <extensions>
          <ns3:TrackPointExtension>
            <ns3:atemp>19.0</ns3:atemp>
          </ns3:TrackPointExtension>
        </extensions>
      </trkpt>
      <trkpt lat="43.14806601963937282562255859375" lon="13.0958679132163524627685546875">
        <ele>661.5999755859375</ele>
        <time>2021-05-25T09:49:48.000Z</time>
        <extensions>
          <ns3:TrackPointExtension>
            <ns3:atemp>19.0</ns3:atemp>
          </ns3:TrackPointExtension>
        </extensions>
      </trkpt>
      <trkpt lat="43.1480890698730945587158203125" lon="13.0957797355949878692626953125">
        <ele>660.79998779296875</ele>
        <time>2021-05-25T09:49:49.000Z</time>
        <extensions>
          <ns3:TrackPointExtension>
            <ns3:atemp>19.0</ns3:atemp>
          </ns3:TrackPointExtension>
        </extensions>
      </trkpt>
      <trkpt lat="43.1481058336794376373291015625" lon="13.0956975929439067840576171875">
        <ele>660.20001220703125</ele>
        <time>2021-05-25T09:49:50.000Z</time>
        <extensions>
          <ns3:TrackPointExtension>
            <ns3:atemp>19.0</ns3:atemp>
          </ns3:TrackPointExtension>
        </extensions>
      </trkpt>
      <trkpt lat="43.14813659526407718658447265625" lon="13.09551863931119441986083984375">
        <ele>658.5999755859375</ele>
        <time>2021-05-25T09:49:52.000Z</time>
        <extensions>
          <ns3:TrackPointExtension>
            <ns3:atemp>19.0</ns3:atemp>
          </ns3:TrackPointExtension>
        </extensions>
      </trkpt>
      <trkpt lat="43.14817263744771480560302734375" lon="13.09534169733524322509765625">
        <ele>657</ele>
        <time>2021-05-25T09:49:54.000Z</time>
        <extensions>
          <ns3:TrackPointExtension>
            <ns3:atemp>19.0</ns3:atemp>
          </ns3:TrackPointExtension>
        </extensions>
      </trkpt>
      <trkpt lat="43.148205243051052093505859375" lon="13.095146901905536651611328125">
        <ele>655.5999755859375</ele>
        <time>2021-05-25T09:49:56.000Z</time>
        <extensions>
          <ns3:TrackPointExtension>
            <ns3:atemp>19.0</ns3:atemp>
          </ns3:TrackPointExtension>
        </extensions>
      </trkpt>
      <trkpt lat="43.14821437932550907135009765625" lon="13.09504531323909759521484375">
        <ele>654.4000244140625</ele>
        <time>2021-05-25T09:49:57.000Z</time>
        <extensions>
          <ns3:TrackPointExtension>
            <ns3:atemp>19.0</ns3:atemp>
          </ns3:TrackPointExtension>
        </extensions>
      </trkpt>
      <trkpt lat="43.1482221744954586029052734375" lon="13.09486585669219493865966796875">
        <ele>654</ele>
        <time>2021-05-25T09:49:59.000Z</time>
        <extensions>
          <ns3:TrackPointExtension>
            <ns3:atemp>19.0</ns3:atemp>
          </ns3:TrackPointExtension>
        </extensions>
      </trkpt>
      <trkpt lat="43.1482352502644062042236328125" lon="13.09475823305547237396240234375">
        <ele>653.4000244140625</ele>
        <time>2021-05-25T09:50:01.000Z</time>
        <extensions>
          <ns3:TrackPointExtension>
            <ns3:atemp>19.0</ns3:atemp>
          </ns3:TrackPointExtension>
        </extensions>
      </trkpt>
      <trkpt lat="43.14824606291949748992919921875" lon="13.09472118504345417022705078125">
        <ele>652.20001220703125</ele>
        <time>2021-05-25T09:50:02.000Z</time>
        <extensions>
          <ns3:TrackPointExtension>
            <ns3:atemp>19.0</ns3:atemp>
          </ns3:TrackPointExtension>
        </extensions>
      </trkpt>
      <trkpt lat="43.14826047979295253753662109375" lon="13.09465580619871616363525390625">
        <ele>650.79998779296875</ele>
        <time>2021-05-25T09:50:05.000Z</time>
        <extensions>
          <ns3:TrackPointExtension>
            <ns3:atemp>19.0</ns3:atemp>
          </ns3:TrackPointExtension>
        </extensions>
      </trkpt>
      <trkpt lat="43.14825913868844509124755859375" lon="13.09465161524713039398193359375">
        <ele>650.79998779296875</ele>
        <time>2021-05-25T09:50:06.000Z</time>
        <extensions>
          <ns3:TrackPointExtension>
            <ns3:atemp>19.0</ns3:atemp>
          </ns3:TrackPointExtension>
        </extensions>
      </trkpt>
      <trkpt lat="43.14825662411749362945556640625" lon="13.09465127997100353240966796875">
        <ele>650.20001220703125</ele>
        <time>2021-05-25T09:50:19.000Z</time>
        <extensions>
          <ns3:TrackPointExtension>
            <ns3:atemp>19.0</ns3:atemp>
          </ns3:TrackPointExtension>
        </extensions>
      </trkpt>
      <trkpt lat="43.14825947396457195281982421875" lon="13.094649352133274078369140625">
        <ele>649.79998779296875</ele>
        <time>2021-05-25T09:50:28.000Z</time>
        <extensions>
          <ns3:TrackPointExtension>
            <ns3:atemp>19.0</ns3:atemp>
          </ns3:TrackPointExtension>
        </extensions>
      </trkpt>
      <trkpt lat="43.1482597254216670989990234375" lon="13.094649016857147216796875">
        <ele>649.79998779296875</ele>
        <time>2021-05-25T09:50:30.000Z</time>
        <extensions>
          <ns3:TrackPointExtension>
            <ns3:atemp>19.0</ns3:atemp>
          </ns3:TrackPointExtension>
        </extensions>
      </trkpt>
      <trkpt lat="43.14827372319996356964111328125" lon="13.094639293849468231201171875">
        <ele>649.5999755859375</ele>
        <time>2021-05-25T09:50:50.000Z</time>
        <extensions>
          <ns3:TrackPointExtension>
            <ns3:atemp>19.0</ns3:atemp>
          </ns3:TrackPointExtension>
        </extensions>
      </trkpt>
      <trkpt lat="43.14836625941097736358642578125" lon="13.09457433409988880157470703125">
        <ele>649.4000244140625</ele>
        <time>2021-05-25T09:50:53.000Z</time>
        <extensions>
          <ns3:TrackPointExtension>
            <ns3:atemp>19.0</ns3:atemp>
          </ns3:TrackPointExtension>
        </extensions>
      </trkpt>
      <trkpt lat="43.14854647032916545867919921875" lon="13.09441390447318553924560546875">
        <ele>649</ele>
        <time>2021-05-25T09:50:57.000Z</time>
        <extensions>
          <ns3:TrackPointExtension>
            <ns3:atemp>19.0</ns3:atemp>
          </ns3:TrackPointExtension>
        </extensions>
      </trkpt>
      <trkpt lat="43.1485958397388458251953125" lon="13.09437685646116733551025390625">
        <ele>648.5999755859375</ele>
        <time>2021-05-25T09:50:58.000Z</time>
        <extensions>
          <ns3:TrackPointExtension>
            <ns3:atemp>19.0</ns3:atemp>
          </ns3:TrackPointExtension>
        </extensions>
      </trkpt>
      <trkpt lat="43.14875048585236072540283203125" lon="13.0942673049867153167724609375">
        <ele>647</ele>
        <time>2021-05-25T09:51:01.000Z</time>
        <extensions>
          <ns3:TrackPointExtension>
            <ns3:atemp>19.0</ns3:atemp>
          </ns3:TrackPointExtension>
        </extensions>
      </trkpt>
      <trkpt lat="43.14880429767072200775146484375" lon="13.09423084370791912078857421875">
        <ele>645.5999755859375</ele>
        <time>2021-05-25T09:51:02.000Z</time>
        <extensions>
          <ns3:TrackPointExtension>
            <ns3:atemp>19.0</ns3:atemp>
          </ns3:TrackPointExtension>
        </extensions>
      </trkpt>
      <trkpt lat="43.148858360946178436279296875" lon="13.09420133940875530242919921875">
        <ele>644.4000244140625</ele>
        <time>2021-05-25T09:51:03.000Z</time>
        <extensions>
          <ns3:TrackPointExtension>
            <ns3:atemp>19.0</ns3:atemp>
          </ns3:TrackPointExtension>
        </extensions>
      </trkpt>
      <trkpt lat="43.14891678281128406524658203125" lon="13.094183318316936492919921875">
        <ele>643.4000244140625</ele>
        <time>2021-05-25T09:51:04.000Z</time>
        <extensions>
          <ns3:TrackPointExtension>
            <ns3:atemp>19.0</ns3:atemp>
          </ns3:TrackPointExtension>
        </extensions>
      </trkpt>
      <trkpt lat="43.148973025381565093994140625" lon="13.09416680596768856048583984375">
        <ele>642.20001220703125</ele>
        <time>2021-05-25T09:51:05.000Z</time>
        <extensions>
          <ns3:TrackPointExtension>
            <ns3:atemp>19.0</ns3:atemp>
          </ns3:TrackPointExtension>
        </extensions>
      </trkpt>
      <trkpt lat="43.1490271724760532379150390625" lon="13.09416227973997592926025390625">
        <ele>641.20001220703125</ele>
        <time>2021-05-25T09:51:06.000Z</time>
        <extensions>
          <ns3:TrackPointExtension>
            <ns3:atemp>19.0</ns3:atemp>
          </ns3:TrackPointExtension>
        </extensions>
      </trkpt>
      <trkpt lat="43.14911191351711750030517578125" lon="13.09417418204247951507568359375">
        <ele>639.79998779296875</ele>
        <time>2021-05-25T09:51:08.000Z</time>
        <extensions>
          <ns3:TrackPointExtension>
            <ns3:atemp>19.0</ns3:atemp>
          </ns3:TrackPointExtension>
        </extensions>
      </trkpt>
      <trkpt lat="43.1491917930543422698974609375" lon="13.09424928389489650726318359375">
        <ele>638.4000244140625</ele>
        <time>2021-05-25T09:51:10.000Z</time>
        <extensions>
          <ns3:TrackPointExtension>
            <ns3:atemp>19.0</ns3:atemp>
          </ns3:TrackPointExtension>
        </extensions>
      </trkpt>
      <trkpt lat="43.1492273323237895965576171875" lon="13.09429337270557880401611328125">
        <ele>637.4000244140625</ele>
        <time>2021-05-25T09:51:11.000Z</time>
        <extensions>
          <ns3:TrackPointExtension>
            <ns3:atemp>19.0</ns3:atemp>
          </ns3:TrackPointExtension>
        </extensions>
      </trkpt>
      <trkpt lat="43.14925968647003173828125" lon="13.09432606212794780731201171875">
        <ele>636.79998779296875</ele>
        <time>2021-05-25T09:51:12.000Z</time>
        <extensions>
          <ns3:TrackPointExtension>
            <ns3:atemp>19.0</ns3:atemp>
          </ns3:TrackPointExtension>
        </extensions>
      </trkpt>
      <trkpt lat="43.14932196401059627532958984375" lon="13.09435070492327213287353515625">
        <ele>635</ele>
        <time>2021-05-25T09:51:14.000Z</time>
        <extensions>
          <ns3:TrackPointExtension>
            <ns3:atemp>19.0</ns3:atemp>
          </ns3:TrackPointExtension>
        </extensions>
      </trkpt>
      <trkpt lat="43.1493527255952358245849609375" lon="13.0943338572978973388671875">
        <ele>634.20001220703125</ele>
        <time>2021-05-25T09:51:15.000Z</time>
        <extensions>
          <ns3:TrackPointExtension>
            <ns3:atemp>19.0</ns3:atemp>
          </ns3:TrackPointExtension>
        </extensions>
      </trkpt>
      <trkpt lat="43.149350546300411224365234375" lon="13.094277195632457733154296875">
        <ele>633.5999755859375</ele>
        <time>2021-05-25T09:51:16.000Z</time>
        <extensions>
          <ns3:TrackPointExtension>
            <ns3:atemp>19.0</ns3:atemp>
          </ns3:TrackPointExtension>
        </extensions>
      </trkpt>
      <trkpt lat="43.149337135255336761474609375" lon="13.09422053396701812744140625">
        <ele>633</ele>
        <time>2021-05-25T09:51:17.000Z</time>
        <extensions>
          <ns3:TrackPointExtension>
            <ns3:atemp>19.0</ns3:atemp>
          </ns3:TrackPointExtension>
        </extensions>
      </trkpt>
      <trkpt lat="43.14932565204799175262451171875" lon="13.09416395612061023712158203125">
        <ele>632</ele>
        <time>2021-05-25T09:51:18.000Z</time>
        <extensions>
          <ns3:TrackPointExtension>
            <ns3:atemp>19.0</ns3:atemp>
          </ns3:TrackPointExtension>
        </extensions>
      </trkpt>
      <trkpt lat="43.1493121571838855743408203125" lon="13.0941020138561725616455078125">
        <ele>630.79998779296875</ele>
        <time>2021-05-25T09:51:19.000Z</time>
        <extensions>
          <ns3:TrackPointExtension>
            <ns3:atemp>19.0</ns3:atemp>
          </ns3:TrackPointExtension>
        </extensions>
      </trkpt>
      <trkpt lat="43.14929413609206676483154296875" lon="13.09403688646852970123291015625">
        <ele>630.20001220703125</ele>
        <time>2021-05-25T09:51:20.000Z</time>
        <extensions>
          <ns3:TrackPointExtension>
            <ns3:atemp>19.0</ns3:atemp>
          </ns3:TrackPointExtension>
        </extensions>
      </trkpt>
      <trkpt lat="43.14927267841994762420654296875" lon="13.09397385455667972564697265625">
        <ele>629.79998779296875</ele>
        <time>2021-05-25T09:51:21.000Z</time>
        <extensions>
          <ns3:TrackPointExtension>
            <ns3:atemp>19.0</ns3:atemp>
          </ns3:TrackPointExtension>
        </extensions>
      </trkpt>
      <trkpt lat="43.14921601675450801849365234375" lon="13.09384167194366455078125">
        <ele>628.5999755859375</ele>
        <time>2021-05-25T09:51:23.000Z</time>
        <extensions>
          <ns3:TrackPointExtension>
            <ns3:atemp>19.0</ns3:atemp>
          </ns3:TrackPointExtension>
        </extensions>
      </trkpt>
      <trkpt lat="43.14917611889541149139404296875" lon="13.09377134777605533599853515625">
        <ele>628</ele>
        <time>2021-05-25T09:51:24.000Z</time>
        <extensions>
          <ns3:TrackPointExtension>
            <ns3:atemp>19.0</ns3:atemp>
          </ns3:TrackPointExtension>
        </extensions>
      </trkpt>
      <trkpt lat="43.14913161098957061767578125" lon="13.0936973355710506439208984375">
        <ele>626.4000244140625</ele>
        <time>2021-05-25T09:51:25.000Z</time>
        <extensions>
          <ns3:TrackPointExtension>
            <ns3:atemp>19.0</ns3:atemp>
          </ns3:TrackPointExtension>
        </extensions>
      </trkpt>
      <trkpt lat="43.1490338779985904693603515625" lon="13.0935506522655487060546875">
        <ele>625.79998779296875</ele>
        <time>2021-05-25T09:51:27.000Z</time>
        <extensions>
          <ns3:TrackPointExtension>
            <ns3:atemp>19.0</ns3:atemp>
          </ns3:TrackPointExtension>
        </extensions>
      </trkpt>
      <trkpt lat="43.14898501150310039520263671875" lon="13.0934817530214786529541015625">
        <ele>625</ele>
        <time>2021-05-25T09:51:28.000Z</time>
        <extensions>
          <ns3:TrackPointExtension>
            <ns3:atemp>19.0</ns3:atemp>
          </ns3:TrackPointExtension>
        </extensions>
      </trkpt>
      <trkpt lat="43.14893706701695919036865234375" lon="13.09341897256672382354736328125">
        <ele>624</ele>
        <time>2021-05-25T09:51:29.000Z</time>
        <extensions>
          <ns3:TrackPointExtension>
            <ns3:atemp>19.0</ns3:atemp>
          </ns3:TrackPointExtension>
        </extensions>
      </trkpt>
      <trkpt lat="43.14889113418757915496826171875" lon="13.093355856835842132568359375">
        <ele>622.79998779296875</ele>
        <time>2021-05-25T09:51:30.000Z</time>
        <extensions>
          <ns3:TrackPointExtension>
            <ns3:atemp>19.0</ns3:atemp>
          </ns3:TrackPointExtension>
        </extensions>
      </trkpt>
      <trkpt lat="43.1488042138516902923583984375" lon="13.09322149492800235748291015625">
        <ele>620.5999755859375</ele>
        <time>2021-05-25T09:51:32.000Z</time>
        <extensions>
          <ns3:TrackPointExtension>
            <ns3:atemp>19.0</ns3:atemp>
          </ns3:TrackPointExtension>
        </extensions>
      </trkpt>
      <trkpt lat="43.1487562693655490875244140625" lon="13.09315703809261322021484375">
        <ele>619.20001220703125</ele>
        <time>2021-05-25T09:51:33.000Z</time>
        <extensions>
          <ns3:TrackPointExtension>
            <ns3:atemp>19.0</ns3:atemp>
          </ns3:TrackPointExtension>
        </extensions>
      </trkpt>
      <trkpt lat="43.1487063132226467132568359375" lon="13.09309895150363445281982421875">
        <ele>617.79998779296875</ele>
        <time>2021-05-25T09:51:34.000Z</time>
        <extensions>
          <ns3:TrackPointExtension>
            <ns3:atemp>19.0</ns3:atemp>
          </ns3:TrackPointExtension>
        </extensions>
      </trkpt>
      <trkpt lat="43.14865610562264919281005859375" lon="13.09304363094270229339599609375">
        <ele>616.5999755859375</ele>
        <time>2021-05-25T09:51:35.000Z</time>
        <extensions>
          <ns3:TrackPointExtension>
            <ns3:atemp>19.0</ns3:atemp>
          </ns3:TrackPointExtension>
        </extensions>
      </trkpt>
      <trkpt lat="43.148606233298778533935546875" lon="13.0929820239543914794921875">
        <ele>616</ele>
        <time>2021-05-25T09:51:36.000Z</time>
        <extensions>
          <ns3:TrackPointExtension>
            <ns3:atemp>19.0</ns3:atemp>
          </ns3:TrackPointExtension>
        </extensions>
      </trkpt>
      <trkpt lat="43.14855485223233699798583984375" lon="13.09292242862284183502197265625">
        <ele>615.4000244140625</ele>
        <time>2021-05-25T09:51:37.000Z</time>
        <extensions>
          <ns3:TrackPointExtension>
            <ns3:atemp>19.0</ns3:atemp>
          </ns3:TrackPointExtension>
        </extensions>
      </trkpt>
      <trkpt lat="43.1484478153288364410400390625" lon="13.09280969202518463134765625">
        <ele>613.79998779296875</ele>
        <time>2021-05-25T09:51:39.000Z</time>
        <extensions>
          <ns3:TrackPointExtension>
            <ns3:atemp>19.0</ns3:atemp>
          </ns3:TrackPointExtension>
        </extensions>
      </trkpt>
      <trkpt lat="43.14838922582566738128662109375" lon="13.0927639268338680267333984375">
        <ele>612.5999755859375</ele>
        <time>2021-05-25T09:51:40.000Z</time>
        <extensions>
          <ns3:TrackPointExtension>
            <ns3:atemp>19.0</ns3:atemp>
          </ns3:TrackPointExtension>
        </extensions>
      </trkpt>
      <trkpt lat="43.14832963049411773681640625" lon="13.0927317403256893157958984375">
        <ele>611.20001220703125</ele>
        <time>2021-05-25T09:51:41.000Z</time>
        <extensions>
          <ns3:TrackPointExtension>
            <ns3:atemp>19.0</ns3:atemp>
          </ns3:TrackPointExtension>
        </extensions>
      </trkpt>
      <trkpt lat="43.14827053807675838470458984375" lon="13.09270776808261871337890625">
        <ele>610.20001220703125</ele>
        <time>2021-05-25T09:51:42.000Z</time>
        <extensions>
          <ns3:TrackPointExtension>
            <ns3:atemp>19.0</ns3:atemp>
          </ns3:TrackPointExtension>
        </extensions>
      </trkpt>
      <trkpt lat="43.1482104398310184478759765625" lon="13.0926891602575778961181640625">
        <ele>609.4000244140625</ele>
        <time>2021-05-25T09:51:43.000Z</time>
        <extensions>
          <ns3:TrackPointExtension>
            <ns3:atemp>19.0</ns3:atemp>
          </ns3:TrackPointExtension>
        </extensions>
      </trkpt>
      <trkpt lat="43.1481487490236759185791015625" lon="13.09266485273838043212890625">
        <ele>608.79998779296875</ele>
        <time>2021-05-25T09:51:44.000Z</time>
        <extensions>
          <ns3:TrackPointExtension>
            <ns3:atemp>19.0</ns3:atemp>
          </ns3:TrackPointExtension>
        </extensions>
      </trkpt>
      <trkpt lat="43.148093260824680328369140625" lon="13.0926351808011531829833984375">
        <ele>608.5999755859375</ele>
        <time>2021-05-25T09:51:45.000Z</time>
        <extensions>
          <ns3:TrackPointExtension>
            <ns3:atemp>19.0</ns3:atemp>
          </ns3:TrackPointExtension>
        </extensions>
      </trkpt>
      <trkpt lat="43.14803995192050933837890625" lon="13.09259712696075439453125">
        <ele>608</ele>
        <time>2021-05-25T09:51:46.000Z</time>
        <extensions>
          <ns3:TrackPointExtension>
            <ns3:atemp>19.0</ns3:atemp>
          </ns3:TrackPointExtension>
        </extensions>
      </trkpt>
      <trkpt lat="43.1479861401021480560302734375" lon="13.09255312196910381317138671875">
        <ele>607.20001220703125</ele>
        <time>2021-05-25T09:51:47.000Z</time>
        <extensions>
          <ns3:TrackPointExtension>
            <ns3:atemp>19.0</ns3:atemp>
          </ns3:TrackPointExtension>
        </extensions>
      </trkpt>
      <trkpt lat="43.147867619991302490234375" lon="13.09244667179882526397705078125">
        <ele>605.79998779296875</ele>
        <time>2021-05-25T09:51:49.000Z</time>
        <extensions>
          <ns3:TrackPointExtension>
            <ns3:atemp>19.0</ns3:atemp>
          </ns3:TrackPointExtension>
        </extensions>
      </trkpt>
      <trkpt lat="43.14773979596793651580810546875" lon="13.09233049862086772918701171875">
        <ele>604.4000244140625</ele>
        <time>2021-05-25T09:51:51.000Z</time>
        <extensions>
          <ns3:TrackPointExtension>
            <ns3:atemp>19.0</ns3:atemp>
          </ns3:TrackPointExtension>
        </extensions>
      </trkpt>
      <trkpt lat="43.14759931527078151702880859375" lon="13.0921885930001735687255859375">
        <ele>603</ele>
        <time>2021-05-25T09:51:53.000Z</time>
        <extensions>
          <ns3:TrackPointExtension>
            <ns3:atemp>19.0</ns3:atemp>
          </ns3:TrackPointExtension>
        </extensions>
      </trkpt>
      <trkpt lat="43.14752320758998394012451171875" lon="13.0921155028045177459716796875">
        <ele>601.4000244140625</ele>
        <time>2021-05-25T09:51:54.000Z</time>
        <extensions>
          <ns3:TrackPointExtension>
            <ns3:atemp>19.0</ns3:atemp>
          </ns3:TrackPointExtension>
        </extensions>
      </trkpt>
      <trkpt lat="43.14736445434391498565673828125" lon="13.09196068905293941497802734375">
        <ele>600</ele>
        <time>2021-05-25T09:51:56.000Z</time>
        <extensions>
          <ns3:TrackPointExtension>
            <ns3:atemp>19.0</ns3:atemp>
          </ns3:TrackPointExtension>
        </extensions>
      </trkpt>
      <trkpt lat="43.14728499390184879302978515625" lon="13.09188189916312694549560546875">
        <ele>598.79998779296875</ele>
        <time>2021-05-25T09:51:57.000Z</time>
        <extensions>
          <ns3:TrackPointExtension>
            <ns3:atemp>19.0</ns3:atemp>
          </ns3:TrackPointExtension>
        </extensions>
      </trkpt>
      <trkpt lat="43.1472079642117023468017578125" lon="13.09180386364459991455078125">
        <ele>597.4000244140625</ele>
        <time>2021-05-25T09:51:58.000Z</time>
        <extensions>
          <ns3:TrackPointExtension>
            <ns3:atemp>19.0</ns3:atemp>
          </ns3:TrackPointExtension>
        </extensions>
      </trkpt>
      <trkpt lat="43.1471315212547779083251953125" lon="13.0917235650122165679931640625">
        <ele>596.20001220703125</ele>
        <time>2021-05-25T09:51:59.000Z</time>
        <extensions>
          <ns3:TrackPointExtension>
            <ns3:atemp>19.0</ns3:atemp>
          </ns3:TrackPointExtension>
        </extensions>
      </trkpt>
      <trkpt lat="43.147055245935916900634765625" lon="13.091639243066310882568359375">
        <ele>595.20001220703125</ele>
        <time>2021-05-25T09:52:00.000Z</time>
        <extensions>
          <ns3:TrackPointExtension>
            <ns3:atemp>19.0</ns3:atemp>
          </ns3:TrackPointExtension>
        </extensions>
      </trkpt>
      <trkpt lat="43.1469756178557872772216796875" lon="13.09155383147299289703369140625">
        <ele>593.5999755859375</ele>
        <time>2021-05-25T09:52:01.000Z</time>
        <extensions>
          <ns3:TrackPointExtension>
            <ns3:atemp>19.0</ns3:atemp>
          </ns3:TrackPointExtension>
        </extensions>
      </trkpt>
      <trkpt lat="43.1468953192234039306640625" lon="13.091467581689357757568359375">
        <ele>591.5999755859375</ele>
        <time>2021-05-25T09:52:02.000Z</time>
        <extensions>
          <ns3:TrackPointExtension>
            <ns3:atemp>19.0</ns3:atemp>
          </ns3:TrackPointExtension>
        </extensions>
      </trkpt>
      <trkpt lat="43.14681359566748142242431640625" lon="13.09138116426765918731689453125">
        <ele>590</ele>
        <time>2021-05-25T09:52:03.000Z</time>
        <extensions>
          <ns3:TrackPointExtension>
            <ns3:atemp>19.0</ns3:atemp>
          </ns3:TrackPointExtension>
        </extensions>
      </trkpt>
      <trkpt lat="43.1467305310070514678955078125" lon="13.09129902161657810211181640625">
        <ele>588.4000244140625</ele>
        <time>2021-05-25T09:52:04.000Z</time>
        <extensions>
          <ns3:TrackPointExtension>
            <ns3:atemp>19.0</ns3:atemp>
          </ns3:TrackPointExtension>
        </extensions>
      </trkpt>
      <trkpt lat="43.146644197404384613037109375" lon="13.091217465698719024658203125">
        <ele>587.4000244140625</ele>
        <time>2021-05-25T09:52:05.000Z</time>
        <extensions>
          <ns3:TrackPointExtension>
            <ns3:atemp>19.0</ns3:atemp>
          </ns3:TrackPointExtension>
        </extensions>
      </trkpt>
      <trkpt lat="43.1464857794344425201416015625" lon="13.09103650040924549102783203125">
        <ele>585.79998779296875</ele>
        <time>2021-05-25T09:52:07.000Z</time>
        <extensions>
          <ns3:TrackPointExtension>
            <ns3:atemp>19.0</ns3:atemp>
          </ns3:TrackPointExtension>
        </extensions>
      </trkpt>
      <trkpt lat="43.1464147008955478668212890625" lon="13.0909417010843753814697265625">
        <ele>585</ele>
        <time>2021-05-25T09:52:08.000Z</time>
        <extensions>
          <ns3:TrackPointExtension>
            <ns3:atemp>19.0</ns3:atemp>
          </ns3:TrackPointExtension>
        </extensions>
      </trkpt>
      <trkpt lat="43.146352507174015045166015625" lon="13.09084354899823665618896484375">
        <ele>584.5999755859375</ele>
        <time>2021-05-25T09:52:09.000Z</time>
        <extensions>
          <ns3:TrackPointExtension>
            <ns3:atemp>19.0</ns3:atemp>
          </ns3:TrackPointExtension>
        </extensions>
      </trkpt>
      <trkpt lat="43.146297521889209747314453125" lon="13.09073768556118011474609375">
        <ele>583.20001220703125</ele>
        <time>2021-05-25T09:52:10.000Z</time>
        <extensions>
          <ns3:TrackPointExtension>
            <ns3:atemp>19.0</ns3:atemp>
          </ns3:TrackPointExtension>
        </extensions>
      </trkpt>
      <trkpt lat="43.14624899066984653472900390625" lon="13.0906258709728717803955078125">
        <ele>581.5999755859375</ele>
        <time>2021-05-25T09:52:11.000Z</time>
        <extensions>
          <ns3:TrackPointExtension>
            <ns3:atemp>19.0</ns3:atemp>
          </ns3:TrackPointExtension>
        </extensions>
      </trkpt>
      <trkpt lat="43.1462006270885467529296875" lon="13.0905105359852313995361328125">
        <ele>580.4000244140625</ele>
        <time>2021-05-25T09:52:12.000Z</time>
        <extensions>
          <ns3:TrackPointExtension>
            <ns3:atemp>19.0</ns3:atemp>
          </ns3:TrackPointExtension>
        </extensions>
      </trkpt>
      <trkpt lat="43.1461550295352935791015625" lon="13.0903921835124492645263671875">
        <ele>578.79998779296875</ele>
        <time>2021-05-25T09:52:13.000Z</time>
        <extensions>
          <ns3:TrackPointExtension>
            <ns3:atemp>19.0</ns3:atemp>
          </ns3:TrackPointExtension>
        </extensions>
      </trkpt>
      <trkpt lat="43.1461126171052455902099609375" lon="13.0902738310396671295166015625">
        <ele>577.4000244140625</ele>
        <time>2021-05-25T09:52:14.000Z</time>
        <extensions>
          <ns3:TrackPointExtension>
            <ns3:atemp>19.0</ns3:atemp>
          </ns3:TrackPointExtension>
        </extensions>
      </trkpt>
      <trkpt lat="43.1460271216928958892822265625" lon="13.0900404788553714752197265625">
        <ele>575.79998779296875</ele>
        <time>2021-05-25T09:52:16.000Z</time>
        <extensions>
          <ns3:TrackPointExtension>
            <ns3:atemp>19.0</ns3:atemp>
          </ns3:TrackPointExtension>
        </extensions>
      </trkpt>
      <trkpt lat="43.145950846374034881591796875" lon="13.0898084677755832672119140625">
        <ele>574.79998779296875</ele>
        <time>2021-05-25T09:52:18.000Z</time>
        <extensions>
          <ns3:TrackPointExtension>
            <ns3:atemp>19.0</ns3:atemp>
          </ns3:TrackPointExtension>
        </extensions>
      </trkpt>
      <trkpt lat="43.14583173952996730804443359375" lon="13.08948433957993984222412109375">
        <ele>573.5999755859375</ele>
        <time>2021-05-25T09:52:21.000Z</time>
        <extensions>
          <ns3:TrackPointExtension>
            <ns3:atemp>19.0</ns3:atemp>
          </ns3:TrackPointExtension>
        </extensions>
      </trkpt>
      <trkpt lat="43.1457203440368175506591796875" lon="13.08916867710649967193603515625">
        <ele>572.5999755859375</ele>
        <time>2021-05-25T09:52:24.000Z</time>
        <extensions>
          <ns3:TrackPointExtension>
            <ns3:atemp>19.0</ns3:atemp>
          </ns3:TrackPointExtension>
        </extensions>
      </trkpt>
      <trkpt lat="43.14568488858640193939208984375" lon="13.08906457386910915374755859375">
        <ele>572.4000244140625</ele>
        <time>2021-05-25T09:52:25.000Z</time>
        <extensions>
          <ns3:TrackPointExtension>
            <ns3:atemp>19.0</ns3:atemp>
          </ns3:TrackPointExtension>
        </extensions>
      </trkpt>
      <trkpt lat="43.1455399654805660247802734375" lon="13.08879132382571697235107421875">
        <ele>572</ele>
        <time>2021-05-25T09:52:28.000Z</time>
        <extensions>
          <ns3:TrackPointExtension>
            <ns3:atemp>19.0</ns3:atemp>
          </ns3:TrackPointExtension>
        </extensions>
      </trkpt>
      <trkpt lat="43.14548321999609470367431640625" lon="13.0887121148407459259033203125">
        <ele>572</ele>
        <time>2021-05-25T09:52:29.000Z</time>
        <extensions>
          <ns3:TrackPointExtension>
            <ns3:atemp>19.0</ns3:atemp>
          </ns3:TrackPointExtension>
        </extensions>
      </trkpt>
      <trkpt lat="43.145210556685924530029296875" lon="13.08835714124143123626708984375">
        <ele>571</ele>
        <time>2021-05-25T09:52:34.000Z</time>
        <extensions>
          <ns3:TrackPointExtension>
            <ns3:atemp>19.0</ns3:atemp>
          </ns3:TrackPointExtension>
        </extensions>
      </trkpt>
      <trkpt lat="43.145164288580417633056640625" lon="13.0882957018911838531494140625">
        <ele>570.5999755859375</ele>
        <time>2021-05-25T09:52:35.000Z</time>
        <extensions>
          <ns3:TrackPointExtension>
            <ns3:atemp>19.0</ns3:atemp>
          </ns3:TrackPointExtension>
        </extensions>
      </trkpt>
      <trkpt lat="43.14512128941714763641357421875" lon="13.08823878876864910125732421875">
        <ele>570</ele>
        <time>2021-05-25T09:52:36.000Z</time>
        <extensions>
          <ns3:TrackPointExtension>
            <ns3:atemp>19.0</ns3:atemp>
          </ns3:TrackPointExtension>
        </extensions>
      </trkpt>
      <trkpt lat="43.14499774016439914703369140625" lon="13.0880750901997089385986328125">
        <ele>568.5999755859375</ele>
        <time>2021-05-25T09:52:39.000Z</time>
        <extensions>
          <ns3:TrackPointExtension>
            <ns3:atemp>19.0</ns3:atemp>
          </ns3:TrackPointExtension>
        </extensions>
      </trkpt>
      <trkpt lat="43.144923560321331024169921875" lon="13.08798079378902912139892578125">
        <ele>567.79998779296875</ele>
        <time>2021-05-25T09:52:41.000Z</time>
        <extensions>
          <ns3:TrackPointExtension>
            <ns3:atemp>19.0</ns3:atemp>
          </ns3:TrackPointExtension>
        </extensions>
      </trkpt>
      <trkpt lat="43.14488341100513935089111328125" lon="13.08793519623577594757080078125">
        <ele>567.4000244140625</ele>
        <time>2021-05-25T09:52:42.000Z</time>
        <extensions>
          <ns3:TrackPointExtension>
            <ns3:atemp>19.0</ns3:atemp>
          </ns3:TrackPointExtension>
        </extensions>
      </trkpt>
      <trkpt lat="43.14466430805623531341552734375" lon="13.08771575801074504852294921875">
        <ele>566.5999755859375</ele>
        <time>2021-05-25T09:52:47.000Z</time>
        <extensions>
          <ns3:TrackPointExtension>
            <ns3:atemp>19.0</ns3:atemp>
          </ns3:TrackPointExtension>
        </extensions>
      </trkpt>
      <trkpt lat="43.1446353904902935028076171875" lon="13.0876808054745197296142578125">
        <ele>566.4000244140625</ele>
        <time>2021-05-25T09:52:48.000Z</time>
        <extensions>
          <ns3:TrackPointExtension>
            <ns3:atemp>19.0</ns3:atemp>
          </ns3:TrackPointExtension>
        </extensions>
      </trkpt>
      <trkpt lat="43.14460546709597110748291015625" lon="13.08764585293829441070556640625">
        <ele>565.79998779296875</ele>
        <time>2021-05-25T09:52:50.000Z</time>
        <extensions>
          <ns3:TrackPointExtension>
            <ns3:atemp>19.0</ns3:atemp>
          </ns3:TrackPointExtension>
        </extensions>
      </trkpt>
      <trkpt lat="43.1446052156388759613037109375" lon="13.08764266781508922576904296875">
        <ele>565</ele>
        <time>2021-05-25T09:52:51.000Z</time>
        <extensions>
          <ns3:TrackPointExtension>
            <ns3:atemp>19.0</ns3:atemp>
          </ns3:TrackPointExtension>
        </extensions>
      </trkpt>
      <trkpt lat="43.14460462890565395355224609375" lon="13.0876405723392963409423828125">
        <ele>562.5999755859375</ele>
        <time>2021-05-25T09:52:53.000Z</time>
        <extensions>
          <ns3:TrackPointExtension>
            <ns3:atemp>19.0</ns3:atemp>
          </ns3:TrackPointExtension>
        </extensions>
      </trkpt>
      <trkpt lat="43.1446047127246856689453125" lon="13.08763973414897918701171875">
        <ele>562</ele>
        <time>2021-05-25T09:52:56.000Z</time>
        <extensions>
          <ns3:TrackPointExtension>
            <ns3:atemp>19.0</ns3:atemp>
          </ns3:TrackPointExtension>
        </extensions>
      </trkpt>
      <trkpt lat="43.14458166249096393585205078125" lon="13.08761064894497394561767578125">
        <ele>561.79998779296875</ele>
        <time>2021-05-25T09:53:12.000Z</time>
        <extensions>
          <ns3:TrackPointExtension>
            <ns3:atemp>19.0</ns3:atemp>
          </ns3:TrackPointExtension>
        </extensions>
      </trkpt>
      <trkpt lat="43.144503124058246612548828125" lon="13.0874749459326267242431640625">
        <ele>561.5999755859375</ele>
        <time>2021-05-25T09:53:16.000Z</time>
        <extensions>
          <ns3:TrackPointExtension>
            <ns3:atemp>19.0</ns3:atemp>
          </ns3:TrackPointExtension>
        </extensions>
      </trkpt>
      <trkpt lat="43.14447755925357341766357421875" lon="13.08742524124681949615478515625">
        <ele>561.5999755859375</ele>
        <time>2021-05-25T09:53:17.000Z</time>
        <extensions>
          <ns3:TrackPointExtension>
            <ns3:atemp>19.0</ns3:atemp>
          </ns3:TrackPointExtension>
        </extensions>
      </trkpt>
      <trkpt lat="43.14442207105457782745361328125" lon="13.08715961873531341552734375">
        <ele>560.79998779296875</ele>
        <time>2021-05-25T09:53:21.000Z</time>
        <extensions>
          <ns3:TrackPointExtension>
            <ns3:atemp>19.0</ns3:atemp>
          </ns3:TrackPointExtension>
        </extensions>
      </trkpt>
      <trkpt lat="43.1444047205150127410888671875" lon="13.08708845637738704681396484375">
        <ele>559.79998779296875</ele>
        <time>2021-05-25T09:53:22.000Z</time>
        <extensions>
          <ns3:TrackPointExtension>
            <ns3:atemp>19.0</ns3:atemp>
          </ns3:TrackPointExtension>
        </extensions>
      </trkpt>
      <trkpt lat="43.14434629864990711212158203125" lon="13.08697781525552272796630859375">
        <ele>558.79998779296875</ele>
        <time>2021-05-25T09:53:24.000Z</time>
        <extensions>
          <ns3:TrackPointExtension>
            <ns3:atemp>19.0</ns3:atemp>
          </ns3:TrackPointExtension>
        </extensions>
      </trkpt>
      <trkpt lat="43.1443152017891407012939453125" lon="13.0869442038238048553466796875">
        <ele>558.5999755859375</ele>
        <time>2021-05-25T09:53:25.000Z</time>
        <extensions>
          <ns3:TrackPointExtension>
            <ns3:atemp>19.0</ns3:atemp>
          </ns3:TrackPointExtension>
        </extensions>
      </trkpt>
      <trkpt lat="43.14428527839481830596923828125" lon="13.08691713027656078338623046875">
        <ele>558.5999755859375</ele>
        <time>2021-05-25T09:53:26.000Z</time>
        <extensions>
          <ns3:TrackPointExtension>
            <ns3:atemp>19.0</ns3:atemp>
          </ns3:TrackPointExtension>
        </extensions>
      </trkpt>
      <trkpt lat="43.14419877715408802032470703125" lon="13.0868198163807392120361328125">
        <ele>558.4000244140625</ele>
        <time>2021-05-25T09:53:29.000Z</time>
        <extensions>
          <ns3:TrackPointExtension>
            <ns3:atemp>19.0</ns3:atemp>
          </ns3:TrackPointExtension>
        </extensions>
      </trkpt>
      <trkpt lat="43.14410917460918426513671875" lon="13.086703978478908538818359375">
        <ele>558.4000244140625</ele>
        <time>2021-05-25T09:53:32.000Z</time>
        <extensions>
          <ns3:TrackPointExtension>
            <ns3:atemp>19.0</ns3:atemp>
          </ns3:TrackPointExtension>
        </extensions>
      </trkpt>
      <trkpt lat="43.14406030811369419097900390625" lon="13.08660767041146755218505859375">
        <ele>558.5999755859375</ele>
        <time>2021-05-25T09:53:34.000Z</time>
        <extensions>
          <ns3:TrackPointExtension>
            <ns3:atemp>19.0</ns3:atemp>
          </ns3:TrackPointExtension>
        </extensions>
      </trkpt>
      <trkpt lat="43.14395218156278133392333984375" lon="13.08632872067391872406005859375">
        <ele>560.20001220703125</ele>
        <time>2021-05-25T09:53:39.000Z</time>
        <extensions>
          <ns3:TrackPointExtension>
            <ns3:atemp>19.0</ns3:atemp>
          </ns3:TrackPointExtension>
        </extensions>
      </trkpt>
      <trkpt lat="43.1439165584743022918701171875" lon="13.08619360439479351043701171875">
        <ele>560.5999755859375</ele>
        <time>2021-05-25T09:53:41.000Z</time>
        <extensions>
          <ns3:TrackPointExtension>
            <ns3:atemp>19.0</ns3:atemp>
          </ns3:TrackPointExtension>
        </extensions>
      </trkpt>
      <trkpt lat="43.14389728009700775146484375" lon="13.08604809455573558807373046875">
        <ele>561.20001220703125</ele>
        <time>2021-05-25T09:53:43.000Z</time>
        <extensions>
          <ns3:TrackPointExtension>
            <ns3:atemp>19.0</ns3:atemp>
          </ns3:TrackPointExtension>
        </extensions>
      </trkpt>
      <trkpt lat="43.14390943385660648345947265625" lon="13.085822872817516326904296875">
        <ele>562.5999755859375</ele>
        <time>2021-05-25T09:53:46.000Z</time>
        <extensions>
          <ns3:TrackPointExtension>
            <ns3:atemp>19.0</ns3:atemp>
          </ns3:TrackPointExtension>
        </extensions>
      </trkpt>
      <trkpt lat="43.143936507403850555419921875" lon="13.08567945845425128936767578125">
        <ele>563.20001220703125</ele>
        <time>2021-05-25T09:53:48.000Z</time>
        <extensions>
          <ns3:TrackPointExtension>
            <ns3:atemp>19.0</ns3:atemp>
          </ns3:TrackPointExtension>
        </extensions>
      </trkpt>
      <trkpt lat="43.14395494759082794189453125" lon="13.08560804463922977447509765625">
        <ele>563.4000244140625</ele>
        <time>2021-05-25T09:53:49.000Z</time>
        <extensions>
          <ns3:TrackPointExtension>
            <ns3:atemp>19.0</ns3:atemp>
          </ns3:TrackPointExtension>
        </extensions>
      </trkpt>
      <trkpt lat="43.14402108080685138702392578125" lon="13.08540017344057559967041015625">
        <ele>563.4000244140625</ele>
        <time>2021-05-25T09:53:52.000Z</time>
        <extensions>
          <ns3:TrackPointExtension>
            <ns3:atemp>19.0</ns3:atemp>
          </ns3:TrackPointExtension>
        </extensions>
      </trkpt>
      <trkpt lat="43.14408478327095508575439453125" lon="13.08520495891571044921875">
        <ele>563.5999755859375</ele>
        <time>2021-05-25T09:53:55.000Z</time>
        <extensions>
          <ns3:TrackPointExtension>
            <ns3:atemp>19.0</ns3:atemp>
          </ns3:TrackPointExtension>
        </extensions>
      </trkpt>
      <trkpt lat="43.14418989233672618865966796875" lon="13.08489357121288776397705078125">
        <ele>563.79998779296875</ele>
        <time>2021-05-25T09:54:00.000Z</time>
        <extensions>
          <ns3:TrackPointExtension>
            <ns3:atemp>19.0</ns3:atemp>
          </ns3:TrackPointExtension>
        </extensions>
      </trkpt>
      <trkpt lat="43.1443383358418941497802734375" lon="13.084479756653308868408203125">
        <ele>564.4000244140625</ele>
        <time>2021-05-25T09:54:07.000Z</time>
        <extensions>
          <ns3:TrackPointExtension>
            <ns3:atemp>19.0</ns3:atemp>
          </ns3:TrackPointExtension>
        </extensions>
      </trkpt>
      <trkpt lat="43.14437597058713436126708984375" lon="13.08436970226466655731201171875">
        <ele>565.79998779296875</ele>
        <time>2021-05-25T09:54:09.000Z</time>
        <extensions>
          <ns3:TrackPointExtension>
            <ns3:atemp>19.0</ns3:atemp>
          </ns3:TrackPointExtension>
        </extensions>
      </trkpt>
      <trkpt lat="43.144489713013172149658203125" lon="13.08404750190675258636474609375">
        <ele>567.20001220703125</ele>
        <time>2021-05-25T09:54:15.000Z</time>
        <extensions>
          <ns3:TrackPointExtension>
            <ns3:atemp>19.0</ns3:atemp>
          </ns3:TrackPointExtension>
        </extensions>
      </trkpt>
      <trkpt lat="43.1445110030472278594970703125" lon="13.08398924767971038818359375">
        <ele>567.5999755859375</ele>
        <time>2021-05-25T09:54:16.000Z</time>
        <extensions>
          <ns3:TrackPointExtension>
            <ns3:atemp>19.0</ns3:atemp>
          </ns3:TrackPointExtension>
        </extensions>
      </trkpt>
      <trkpt lat="43.1445465423166751861572265625" lon="13.08387382887303829193115234375">
        <ele>568.4000244140625</ele>
        <time>2021-05-25T09:54:18.000Z</time>
        <extensions>
          <ns3:TrackPointExtension>
            <ns3:atemp>19.0</ns3:atemp>
          </ns3:TrackPointExtension>
        </extensions>
      </trkpt>
      <trkpt lat="43.1445760466158390045166015625" lon="13.0837560631334781646728515625">
        <ele>568.79998779296875</ele>
        <time>2021-05-25T09:54:20.000Z</time>
        <extensions>
          <ns3:TrackPointExtension>
            <ns3:atemp>19.0</ns3:atemp>
          </ns3:TrackPointExtension>
        </extensions>
      </trkpt>
      <trkpt lat="43.14459004439413547515869140625" lon="13.08357593603432178497314453125">
        <ele>569.5999755859375</ele>
        <time>2021-05-25T09:54:23.000Z</time>
        <extensions>
          <ns3:TrackPointExtension>
            <ns3:atemp>19.0</ns3:atemp>
          </ns3:TrackPointExtension>
        </extensions>
      </trkpt>
      <trkpt lat="43.14457411877810955047607421875" lon="13.08335649780929088592529296875">
        <ele>570.5999755859375</ele>
        <time>2021-05-25T09:54:27.000Z</time>
        <extensions>
          <ns3:TrackPointExtension>
            <ns3:atemp>19.0</ns3:atemp>
          </ns3:TrackPointExtension>
        </extensions>
      </trkpt>
      <trkpt lat="43.1445455364882946014404296875" lon="13.08325222693383693695068359375">
        <ele>570.79998779296875</ele>
        <time>2021-05-25T09:54:29.000Z</time>
        <extensions>
          <ns3:TrackPointExtension>
            <ns3:atemp>19.0</ns3:atemp>
          </ns3:TrackPointExtension>
        </extensions>
      </trkpt>
      <trkpt lat="43.14447068609297275543212890625" lon="13.0831042863428592681884765625">
        <ele>571</ele>
        <time>2021-05-25T09:54:32.000Z</time>
        <extensions>
          <ns3:TrackPointExtension>
            <ns3:atemp>19.0</ns3:atemp>
          </ns3:TrackPointExtension>
        </extensions>
      </trkpt>
      <trkpt lat="43.14440530724823474884033203125" lon="13.08300697244703769683837890625">
        <ele>571</ele>
        <time>2021-05-25T09:54:34.000Z</time>
        <extensions>
          <ns3:TrackPointExtension>
            <ns3:atemp>19.0</ns3:atemp>
          </ns3:TrackPointExtension>
        </extensions>
      </trkpt>
      <trkpt lat="43.144327439367771148681640625" lon="13.0829111672937870025634765625">
        <ele>571.79998779296875</ele>
        <time>2021-05-25T09:54:36.000Z</time>
        <extensions>
          <ns3:TrackPointExtension>
            <ns3:atemp>19.0</ns3:atemp>
          </ns3:TrackPointExtension>
        </extensions>
      </trkpt>
      <trkpt lat="43.144171200692653656005859375" lon="13.0827388353645801544189453125">
        <ele>572.4000244140625</ele>
        <time>2021-05-25T09:54:40.000Z</time>
        <extensions>
          <ns3:TrackPointExtension>
            <ns3:atemp>19.0</ns3:atemp>
          </ns3:TrackPointExtension>
        </extensions>
      </trkpt>
      <trkpt lat="43.1439004652202129364013671875" lon="13.0824380926787853240966796875">
        <ele>572.79998779296875</ele>
        <time>2021-05-25T09:54:47.000Z</time>
        <extensions>
          <ns3:TrackPointExtension>
            <ns3:atemp>19.0</ns3:atemp>
          </ns3:TrackPointExtension>
        </extensions>
      </trkpt>
      <trkpt lat="43.1436124630272388458251953125" lon="13.08208043687045574188232421875">
        <ele>573</ele>
        <time>2021-05-25T09:54:55.000Z</time>
        <extensions>
          <ns3:TrackPointExtension>
            <ns3:atemp>19.0</ns3:atemp>
          </ns3:TrackPointExtension>
        </extensions>
      </trkpt>
      <trkpt lat="43.14345077611505985260009765625" lon="13.08182864449918270111083984375">
        <ele>572.79998779296875</ele>
        <time>2021-05-25T09:55:01.000Z</time>
        <extensions>
          <ns3:TrackPointExtension>
            <ns3:atemp>19.0</ns3:atemp>
          </ns3:TrackPointExtension>
        </extensions>
      </trkpt>
      <trkpt lat="43.1433529593050479888916015625" lon="13.081593699753284454345703125">
        <ele>572.4000244140625</ele>
        <time>2021-05-25T09:55:06.000Z</time>
        <extensions>
          <ns3:TrackPointExtension>
            <ns3:atemp>19.0</ns3:atemp>
          </ns3:TrackPointExtension>
        </extensions>
      </trkpt>
      <trkpt lat="43.1433360278606414794921875" lon="13.0815303325653076171875">
        <ele>572.20001220703125</ele>
        <time>2021-05-25T09:55:07.000Z</time>
        <extensions>
          <ns3:TrackPointExtension>
            <ns3:atemp>19.0</ns3:atemp>
          </ns3:TrackPointExtension>
        </extensions>
      </trkpt>
      <trkpt lat="43.14328146167099475860595703125" lon="13.08122967369854450225830078125">
        <ele>571.79998779296875</ele>
        <time>2021-05-25T09:55:11.000Z</time>
        <extensions>
          <ns3:TrackPointExtension>
            <ns3:atemp>20.0</ns3:atemp>
          </ns3:TrackPointExtension>
        </extensions>
      </trkpt>
      <trkpt lat="43.14326151274144649505615234375" lon="13.08115012943744659423828125">
        <ele>571.79998779296875</ele>
        <time>2021-05-25T09:55:12.000Z</time>
        <extensions>
          <ns3:TrackPointExtension>
            <ns3:atemp>20.0</ns3:atemp>
          </ns3:TrackPointExtension>
        </extensions>
      </trkpt>
      <trkpt lat="43.14320233650505542755126953125" lon="13.08089070953428745269775390625">
        <ele>570.5999755859375</ele>
        <time>2021-05-25T09:55:15.000Z</time>
        <extensions>
          <ns3:TrackPointExtension>
            <ns3:atemp>20.0</ns3:atemp>
          </ns3:TrackPointExtension>
        </extensions>
      </trkpt>
      <trkpt lat="43.14312824048101902008056640625" lon="13.08062550611793994903564453125">
        <ele>569.4000244140625</ele>
        <time>2021-05-25T09:55:18.000Z</time>
        <extensions>
          <ns3:TrackPointExtension>
            <ns3:atemp>20.0</ns3:atemp>
          </ns3:TrackPointExtension>
        </extensions>
      </trkpt>
      <trkpt lat="43.14306654967367649078369140625" lon="13.08033096604049205780029296875">
        <ele>568</ele>
        <time>2021-05-25T09:55:21.000Z</time>
        <extensions>
          <ns3:TrackPointExtension>
            <ns3:atemp>20.0</ns3:atemp>
          </ns3:TrackPointExtension>
        </extensions>
      </trkpt>
      <trkpt lat="43.14303134568035602569580078125" lon="13.08013231493532657623291015625">
        <ele>566.5999755859375</ele>
        <time>2021-05-25T09:55:23.000Z</time>
        <extensions>
          <ns3:TrackPointExtension>
            <ns3:atemp>20.0</ns3:atemp>
          </ns3:TrackPointExtension>
        </extensions>
      </trkpt>
      <trkpt lat="43.14301307313144207000732421875" lon="13.08003391139209270477294921875">
        <ele>566</ele>
        <time>2021-05-25T09:55:24.000Z</time>
        <extensions>
          <ns3:TrackPointExtension>
            <ns3:atemp>20.0</ns3:atemp>
          </ns3:TrackPointExtension>
        </extensions>
      </trkpt>
      <trkpt lat="43.142995052039623260498046875" lon="13.07993768714368343353271484375">
        <ele>565.5999755859375</ele>
        <time>2021-05-25T09:55:25.000Z</time>
        <extensions>
          <ns3:TrackPointExtension>
            <ns3:atemp>20.0</ns3:atemp>
          </ns3:TrackPointExtension>
        </extensions>
      </trkpt>
      <trkpt lat="43.1428966484963893890380859375" lon="13.0794796161353588104248046875">
        <ele>564.4000244140625</ele>
        <time>2021-05-25T09:55:30.000Z</time>
        <extensions>
          <ns3:TrackPointExtension>
            <ns3:atemp>20.0</ns3:atemp>
          </ns3:TrackPointExtension>
        </extensions>
      </trkpt>
      <trkpt lat="43.1428765319287776947021484375" lon="13.07938632555305957794189453125">
        <ele>563.5999755859375</ele>
        <time>2021-05-25T09:55:31.000Z</time>
        <extensions>
          <ns3:TrackPointExtension>
            <ns3:atemp>20.0</ns3:atemp>
          </ns3:TrackPointExtension>
        </extensions>
      </trkpt>
      <trkpt lat="43.142857588827610015869140625" lon="13.07929546572268009185791015625">
        <ele>563.20001220703125</ele>
        <time>2021-05-25T09:55:32.000Z</time>
        <extensions>
          <ns3:TrackPointExtension>
            <ns3:atemp>20.0</ns3:atemp>
          </ns3:TrackPointExtension>
        </extensions>
      </trkpt>
      <trkpt lat="43.14279849641025066375732421875" lon="13.079045601189136505126953125">
        <ele>562</ele>
        <time>2021-05-25T09:55:35.000Z</time>
        <extensions>
          <ns3:TrackPointExtension>
            <ns3:atemp>20.0</ns3:atemp>
          </ns3:TrackPointExtension>
        </extensions>
      </trkpt>
      <trkpt lat="43.14276161603629589080810546875" lon="13.07888240553438663482666015625">
        <ele>561.4000244140625</ele>
        <time>2021-05-25T09:55:37.000Z</time>
        <extensions>
          <ns3:TrackPointExtension>
            <ns3:atemp>20.0</ns3:atemp>
          </ns3:TrackPointExtension>
        </extensions>
      </trkpt>
      <trkpt lat="43.142742924392223358154296875" lon="13.07880026288330554962158203125">
        <ele>561</ele>
        <time>2021-05-25T09:55:38.000Z</time>
        <extensions>
          <ns3:TrackPointExtension>
            <ns3:atemp>20.0</ns3:atemp>
          </ns3:TrackPointExtension>
        </extensions>
      </trkpt>
      <trkpt lat="43.142642341554164886474609375" lon="13.07842366397380828857421875">
        <ele>559.79998779296875</ele>
        <time>2021-05-25T09:55:43.000Z</time>
        <extensions>
          <ns3:TrackPointExtension>
            <ns3:atemp>20.0</ns3:atemp>
          </ns3:TrackPointExtension>
        </extensions>
      </trkpt>
      <trkpt lat="43.1426230631768703460693359375" lon="13.07835149578750133514404296875">
        <ele>559.20001220703125</ele>
        <time>2021-05-25T09:55:44.000Z</time>
        <extensions>
          <ns3:TrackPointExtension>
            <ns3:atemp>20.0</ns3:atemp>
          </ns3:TrackPointExtension>
        </extensions>
      </trkpt>
      <trkpt lat="43.14259397797286510467529296875" lon="13.0782193131744861602783203125">
        <ele>558.79998779296875</ele>
        <time>2021-05-25T09:55:46.000Z</time>
        <extensions>
          <ns3:TrackPointExtension>
            <ns3:atemp>20.0</ns3:atemp>
          </ns3:TrackPointExtension>
        </extensions>
      </trkpt>
      <trkpt lat="43.142566569149494171142578125" lon="13.078080676496028900146484375">
        <ele>558.4000244140625</ele>
        <time>2021-05-25T09:55:49.000Z</time>
        <extensions>
          <ns3:TrackPointExtension>
            <ns3:atemp>20.0</ns3:atemp>
          </ns3:TrackPointExtension>
        </extensions>
      </trkpt>
      <trkpt lat="43.14254553057253360748291015625" lon="13.07791228406131267547607421875">
        <ele>559.20001220703125</ele>
        <time>2021-05-25T09:55:53.000Z</time>
        <extensions>
          <ns3:TrackPointExtension>
            <ns3:atemp>20.0</ns3:atemp>
          </ns3:TrackPointExtension>
        </extensions>
      </trkpt>
      <trkpt lat="43.142465986311435699462890625" lon="13.0778615735471248626708984375">
        <ele>559.4000244140625</ele>
        <time>2021-05-25T09:55:56.000Z</time>
        <extensions>
          <ns3:TrackPointExtension>
            <ns3:atemp>20.0</ns3:atemp>
          </ns3:TrackPointExtension>
        </extensions>
      </trkpt>
      <trkpt lat="43.14240840263664722442626953125" lon="13.07789669372141361236572265625">
        <ele>559.79998779296875</ele>
        <time>2021-05-25T09:55:58.000Z</time>
        <extensions>
          <ns3:TrackPointExtension>
            <ns3:atemp>20.0</ns3:atemp>
          </ns3:TrackPointExtension>
        </extensions>
      </trkpt>
      <trkpt lat="43.14237370155751705169677734375" lon="13.0778904072940349578857421875">
        <ele>560</ele>
        <time>2021-05-25T09:55:59.000Z</time>
        <extensions>
          <ns3:TrackPointExtension>
            <ns3:atemp>20.0</ns3:atemp>
          </ns3:TrackPointExtension>
        </extensions>
      </trkpt>
      <trkpt lat="43.14234788529574871063232421875" lon="13.077831566333770751953125">
        <ele>560.4000244140625</ele>
        <time>2021-05-25T09:56:01.000Z</time>
        <extensions>
          <ns3:TrackPointExtension>
            <ns3:atemp>20.0</ns3:atemp>
          </ns3:TrackPointExtension>
        </extensions>
      </trkpt>
      <trkpt lat="43.14234453253448009490966796875" lon="13.0777831189334392547607421875">
        <ele>560.5999755859375</ele>
        <time>2021-05-25T09:56:03.000Z</time>
        <extensions>
          <ns3:TrackPointExtension>
            <ns3:atemp>20.0</ns3:atemp>
          </ns3:TrackPointExtension>
        </extensions>
      </trkpt>
      <trkpt lat="43.14234218560159206390380859375" lon="13.0777787603437900543212890625">
        <ele>560.5999755859375</ele>
        <time>2021-05-25T09:56:04.000Z</time>
        <extensions>
          <ns3:TrackPointExtension>
            <ns3:atemp>20.0</ns3:atemp>
          </ns3:TrackPointExtension>
        </extensions>
      </trkpt>
    </trkseg>
  </trk>
</gpx>
